﻿<?xml version="1.0" encoding="utf-8"?><gpx creator="Garmin Desktop App" version="1.1" xsi:schemaLocation="http://www.topografix.com/GPX/1/1 http://www.topografix.com/GPX/1/1/gpx.xsd http://www.garmin.com/xmlschemas/WaypointExtension/v1 http://www8.garmin.com/xmlschemas/WaypointExtensionv1.xsd http://www.garmin.com/xmlschemas/TrackPointExtension/v1 http://www.garmin.com/xmlschemas/TrackPointExtensionv1.xsd http://www.garmin.com/xmlschemas/GpxExtensions/v3 http://www8.garmin.com/xmlschemas/GpxExtensionsv3.xsd http://www.garmin.com/xmlschemas/ActivityExtension/v1 http://www8.garmin.com/xmlschemas/ActivityExtensionv1.xsd http://www.garmin.com/xmlschemas/AdventuresExtensions/v1 http://www8.garmin.com/xmlschemas/AdventuresExtensionv1.xsd http://www.garmin.com/xmlschemas/PressureExtension/v1 http://www.garmin.com/xmlschemas/PressureExtensionv1.xsd http://www.garmin.com/xmlschemas/TripExtensions/v1 http://www.garmin.com/xmlschemas/TripExtensionsv1.xsd http://www.garmin.com/xmlschemas/TripMetaDataExtensions/v1 http://www.garmin.com/xmlschemas/TripMetaDataExtensionsv1.xsd http://www.garmin.com/xmlschemas/ViaPointTransportationModeExtensions/v1 http://www.garmin.com/xmlschemas/ViaPointTransportationModeExtensionsv1.xsd http://www.garmin.com/xmlschemas/CreationTimeExtension/v1 http://www.garmin.com/xmlschemas/CreationTimeExtensionsv1.xsd http://www.garmin.com/xmlschemas/AccelerationExtension/v1 http://www.garmin.com/xmlschemas/AccelerationExtensionv1.xsd http://www.garmin.com/xmlschemas/PowerExtension/v1 http://www.garmin.com/xmlschemas/PowerExtensionv1.xsd http://www.garmin.com/xmlschemas/VideoExtension/v1 http://www.garmin.com/xmlschemas/VideoExtensionv1.xsd" xmlns="http://www.topografix.com/GPX/1/1" xmlns:xsi="http://www.w3.org/2001/XMLSchema-instance" xmlns:wptx1="http://www.garmin.com/xmlschemas/WaypointExtension/v1" xmlns:gpxtrx="http://www.garmin.com/xmlschemas/GpxExtensions/v3" xmlns:gpxtpx="http://www.garmin.com/xmlschemas/TrackPointExtension/v1" xmlns:gpxx="http://www.garmin.com/xmlschemas/GpxExtensions/v3" xmlns:trp="http://www.garmin.com/xmlschemas/TripExtensions/v1" xmlns:adv="http://www.garmin.com/xmlschemas/AdventuresExtensions/v1" xmlns:prs="http://www.garmin.com/xmlschemas/PressureExtension/v1" xmlns:tmd="http://www.garmin.com/xmlschemas/TripMetaDataExtensions/v1" xmlns:vptm="http://www.garmin.com/xmlschemas/ViaPointTransportationModeExtensions/v1" xmlns:ctx="http://www.garmin.com/xmlschemas/CreationTimeExtension/v1" xmlns:gpxacc="http://www.garmin.com/xmlschemas/AccelerationExtension/v1" xmlns:gpxpx="http://www.garmin.com/xmlschemas/PowerExtension/v1" xmlns:vidx1="http://www.garmin.com/xmlschemas/VideoExtension/v1">

  <metadata>
    <link href="http://www.garmin.com">
      <text>Garmin International</text>
    </link>
    <time>2017-05-21T16:22:09Z</time>
    <bounds maxlat="51.690176026895642" maxlon="11.101786997169256" minlat="50.068187993019819" minlon="8.452265979722142" />
  </metadata>

  <trk>
    <name>Track vom: 21 MAI 2017 09:18</name>
    <extensions>
      <gpxx:TrackExtension>
        <gpxx:DisplayColor>DarkGray</gpxx:DisplayColor>
      </gpxx:TrackExtension>
    </extensions>
    <trkseg>
      <trkpt lat="50.068492004647851" lon="8.478183997794986">
        <ele>111.17</ele>
        <time>2017-05-21T07:18:03Z</time>
      </trkpt>
      <trkpt lat="50.068460991606116" lon="8.478191960602999">
        <ele>111.65000000000001</ele>
        <time>2017-05-21T07:18:26Z</time>
      </trkpt>
      <trkpt lat="50.068487981334329" lon="8.478196989744902">
        <ele>112.61</ele>
        <time>2017-05-21T07:19:11Z</time>
      </trkpt>
      <trkpt lat="50.06846803240478" lon="8.478211993351579">
        <ele>112.61</ele>
        <time>2017-05-21T07:19:36Z</time>
      </trkpt>
      <trkpt lat="50.068431990221143" lon="8.478329004719853">
        <ele>111.65000000000001</ele>
        <time>2017-05-21T07:19:39Z</time>
      </trkpt>
      <trkpt lat="50.068400977179408" lon="8.478384995833039">
        <ele>111.65000000000001</ele>
        <time>2017-05-21T07:19:40Z</time>
      </trkpt>
      <trkpt lat="50.068363007158041" lon="8.478439981117845">
        <ele>111.65000000000001</ele>
        <time>2017-05-21T07:19:41Z</time>
      </trkpt>
      <trkpt lat="50.068187993019819" lon="8.478639973327518">
        <ele>108.77</ele>
        <time>2017-05-21T07:19:49Z</time>
      </trkpt>
      <trkpt lat="50.068195033818483" lon="8.478700993582606">
        <ele>107.31999999999999</ele>
        <time>2017-05-21T07:19:50Z</time>
      </trkpt>
      <trkpt lat="50.068215988576412" lon="8.47879302687943">
        <ele>107.31999999999999</ele>
        <time>2017-05-21T07:19:51Z</time>
      </trkpt>
      <trkpt lat="50.06825597025454" lon="8.478891011327505">
        <ele>107.31999999999999</ele>
        <time>2017-05-21T07:19:52Z</time>
      </trkpt>
      <trkpt lat="50.068303998559713" lon="8.478986984118819">
        <ele>106.84</ele>
        <time>2017-05-21T07:19:53Z</time>
      </trkpt>
      <trkpt lat="50.068356972187757" lon="8.479088991880417">
        <ele>106.84</ele>
        <time>2017-05-21T07:19:54Z</time>
      </trkpt>
      <trkpt lat="50.068861981853843" lon="8.480104962363839">
        <ele>107.81</ele>
        <time>2017-05-21T07:20:03Z</time>
      </trkpt>
      <trkpt lat="50.069523984566331" lon="8.481470961123705">
        <ele>110.20999999999999</ele>
        <time>2017-05-21T07:20:14Z</time>
      </trkpt>
      <trkpt lat="50.069835959002376" lon="8.482180992141366">
        <ele>111.17</ele>
        <time>2017-05-21T07:20:22Z</time>
      </trkpt>
      <trkpt lat="50.069858003407717" lon="8.482203958556056">
        <ele>109.25</ele>
        <time>2017-05-21T07:20:34Z</time>
      </trkpt>
      <trkpt lat="50.06986303254962" lon="8.482222985476255">
        <ele>109.25</ele>
        <time>2017-05-21T07:21:37Z</time>
      </trkpt>
      <trkpt lat="50.069922963157296" lon="8.482345025986433">
        <ele>109.25</ele>
        <time>2017-05-21T07:21:38Z</time>
      </trkpt>
      <trkpt lat="50.070052966475487" lon="8.482347959652543">
        <ele>108.77</ele>
        <time>2017-05-21T07:21:39Z</time>
      </trkpt>
      <trkpt lat="50.070114992558956" lon="8.482328010722995">
        <ele>108.29000000000001</ele>
        <time>2017-05-21T07:21:40Z</time>
      </trkpt>
      <trkpt lat="50.070178024470806" lon="8.4822759591043">
        <ele>108.29000000000001</ele>
        <time>2017-05-21T07:21:41Z</time>
      </trkpt>
      <trkpt lat="50.070244995877147" lon="8.482199013233185">
        <ele>107.81</ele>
        <time>2017-05-21T07:21:42Z</time>
      </trkpt>
      <trkpt lat="50.070334011688828" lon="8.482112009078264">
        <ele>108.29000000000001</ele>
        <time>2017-05-21T07:21:43Z</time>
      </trkpt>
      <trkpt lat="50.07098201662302" lon="8.481039041653276">
        <ele>108.77</ele>
        <time>2017-05-21T07:21:53Z</time>
      </trkpt>
      <trkpt lat="50.071807969361544" lon="8.479529041796923">
        <ele>109.25</ele>
        <time>2017-05-21T07:22:07Z</time>
      </trkpt>
      <trkpt lat="50.07220602594316" lon="8.47875396721065">
        <ele>110.20999999999999</ele>
        <time>2017-05-21T07:22:15Z</time>
      </trkpt>
      <trkpt lat="50.072743976488709" lon="8.477660967037082">
        <ele>114.53</ele>
        <time>2017-05-21T07:22:24Z</time>
      </trkpt>
      <trkpt lat="50.073312018066645" lon="8.476264961063862">
        <ele>115.01000000000001</ele>
        <time>2017-05-21T07:22:32Z</time>
      </trkpt>
      <trkpt lat="50.073949964717031" lon="8.47507799975574">
        <ele>115.01000000000001</ele>
        <time>2017-05-21T07:22:41Z</time>
      </trkpt>
      <trkpt lat="50.074041998013854" lon="8.47496903501451">
        <ele>114.05</ele>
        <time>2017-05-21T07:22:48Z</time>
      </trkpt>
      <trkpt lat="50.074222963303328" lon="8.474743980914354">
        <ele>115.5</ele>
        <time>2017-05-21T07:22:55Z</time>
      </trkpt>
      <trkpt lat="50.074825035408139" lon="8.473814008757472">
        <ele>112.61</ele>
        <time>2017-05-21T07:23:03Z</time>
      </trkpt>
      <trkpt lat="50.075674960389733" lon="8.472479023039341">
        <ele>112.61</ele>
        <time>2017-05-21T07:23:13Z</time>
      </trkpt>
      <trkpt lat="50.077189989387989" lon="8.470095964148641">
        <ele>113.56999999999999</ele>
        <time>2017-05-21T07:23:30Z</time>
      </trkpt>
      <trkpt lat="50.078033963218331" lon="8.468109034001827">
        <ele>114.53</ele>
        <time>2017-05-21T07:23:41Z</time>
      </trkpt>
      <trkpt lat="50.078453980386257" lon="8.466575983911753">
        <ele>116.45999999999999</ele>
        <time>2017-05-21T07:23:50Z</time>
      </trkpt>
      <trkpt lat="50.078574009239674" lon="8.46594700589776">
        <ele>116.94</ele>
        <time>2017-05-21T07:23:58Z</time>
      </trkpt>
      <trkpt lat="50.078680040314794" lon="8.465649029240012">
        <ele>116.45999999999999</ele>
        <time>2017-05-21T07:24:04Z</time>
      </trkpt>
      <trkpt lat="50.078729996457696" lon="8.465592032298446">
        <ele>115.98</ele>
        <time>2017-05-21T07:24:05Z</time>
      </trkpt>
      <trkpt lat="50.07880300283432" lon="8.465541992336512">
        <ele>115.5</ele>
        <time>2017-05-21T07:24:06Z</time>
      </trkpt>
      <trkpt lat="50.078892018646002" lon="8.465522965416312">
        <ele>115.01000000000001</ele>
        <time>2017-05-21T07:24:07Z</time>
      </trkpt>
      <trkpt lat="50.078988997265697" lon="8.465526988729835">
        <ele>115.01000000000001</ele>
        <time>2017-05-21T07:24:08Z</time>
      </trkpt>
      <trkpt lat="50.079699028283358" lon="8.465398997068405">
        <ele>112.13</ele>
        <time>2017-05-21T07:24:15Z</time>
      </trkpt>
      <trkpt lat="50.079865995794535" lon="8.465242004022002">
        <ele>111.65000000000001</ele>
        <time>2017-05-21T07:24:17Z</time>
      </trkpt>
      <trkpt lat="50.079988036304712" lon="8.465015022084117">
        <ele>111.65000000000001</ele>
        <time>2017-05-21T07:24:19Z</time>
      </trkpt>
      <trkpt lat="50.080034974962473" lon="8.464872026816011">
        <ele>111.65000000000001</ele>
        <time>2017-05-21T07:24:20Z</time>
      </trkpt>
      <trkpt lat="50.080075040459633" lon="8.464732971042395">
        <ele>112.13</ele>
        <time>2017-05-21T07:24:21Z</time>
      </trkpt>
      <trkpt lat="50.080103036016226" lon="8.464578995481134">
        <ele>112.61</ele>
        <time>2017-05-21T07:24:22Z</time>
      </trkpt>
      <trkpt lat="50.080118039622903" lon="8.464416973292828">
        <ele>113.09</ele>
        <time>2017-05-21T07:24:23Z</time>
      </trkpt>
      <trkpt lat="50.080121979117393" lon="8.464254029095173">
        <ele>113.56999999999999</ele>
        <time>2017-05-21T07:24:24Z</time>
      </trkpt>
      <trkpt lat="50.080104963853955" lon="8.46409996971488">
        <ele>114.53</ele>
        <time>2017-05-21T07:24:25Z</time>
      </trkpt>
      <trkpt lat="50.080066993832588" lon="8.463945994153619">
        <ele>115.01000000000001</ele>
        <time>2017-05-21T07:24:26Z</time>
      </trkpt>
      <trkpt lat="50.080009996891022" lon="8.463800987228751">
        <ele>115.98</ele>
        <time>2017-05-21T07:24:27Z</time>
      </trkpt>
      <trkpt lat="50.079944031313062" lon="8.463663021102548">
        <ele>116.94</ele>
        <time>2017-05-21T07:24:28Z</time>
      </trkpt>
      <trkpt lat="50.079862978309393" lon="8.463531006127596">
        <ele>117.90000000000001</ele>
        <time>2017-05-21T07:24:29Z</time>
      </trkpt>
      <trkpt lat="50.079782009124756" lon="8.463398991152644">
        <ele>118.86</ele>
        <time>2017-05-21T07:24:30Z</time>
      </trkpt>
      <trkpt lat="50.079558966681361" lon="8.462999006733298">
        <ele>119.34</ele>
        <time>2017-05-21T07:24:33Z</time>
      </trkpt>
      <trkpt lat="50.079506998881698" lon="8.46285299398005">
        <ele>119.81999999999999</ele>
        <time>2017-05-21T07:24:34Z</time>
      </trkpt>
      <trkpt lat="50.079471040517092" lon="8.462688960134983">
        <ele>120.3</ele>
        <time>2017-05-21T07:24:35Z</time>
      </trkpt>
      <trkpt lat="50.079444972798228" lon="8.462524004280567">
        <ele>120.78</ele>
        <time>2017-05-21T07:24:36Z</time>
      </trkpt>
      <trkpt lat="50.079428041353822" lon="8.462357958778739">
        <ele>120.78</ele>
        <time>2017-05-21T07:24:37Z</time>
      </trkpt>
      <trkpt lat="50.079429969191551" lon="8.462183028459549">
        <ele>120.78</ele>
        <time>2017-05-21T07:24:38Z</time>
      </trkpt>
      <trkpt lat="50.079437009990215" lon="8.462010025978088">
        <ele>121.73999999999999</ele>
        <time>2017-05-21T07:24:39Z</time>
      </trkpt>
      <trkpt lat="50.079456958919764" lon="8.46184004098177">
        <ele>121.73999999999999</ele>
        <time>2017-05-21T07:24:40Z</time>
      </trkpt>
      <trkpt lat="50.079481014981866" lon="8.461673995479941">
        <ele>121.73999999999999</ele>
        <time>2017-05-21T07:24:41Z</time>
      </trkpt>
      <trkpt lat="50.079514961689711" lon="8.461511973291636">
        <ele>122.22</ele>
        <time>2017-05-21T07:24:42Z</time>
      </trkpt>
      <trkpt lat="50.080035980790854" lon="8.459960985928774">
        <ele>124.63</ele>
        <time>2017-05-21T07:24:52Z</time>
      </trkpt>
      <trkpt lat="50.0812319945544" lon="8.457042993977666">
        <ele>126.55</ele>
        <time>2017-05-21T07:25:11Z</time>
      </trkpt>
      <trkpt lat="50.08202500641346" lon="8.455571969971061">
        <ele>128.47</ele>
        <time>2017-05-21T07:25:23Z</time>
      </trkpt>
      <trkpt lat="50.082076974213123" lon="8.455442972481251">
        <ele>127.98999999999999</ele>
        <time>2017-05-21T07:25:24Z</time>
      </trkpt>
      <trkpt lat="50.082128020003438" lon="8.455302994698286">
        <ele>127.98999999999999</ele>
        <time>2017-05-21T07:25:25Z</time>
      </trkpt>
      <trkpt lat="50.082765966653824" lon="8.453286979347467">
        <ele>129.91999999999999</ele>
        <time>2017-05-21T07:25:39Z</time>
      </trkpt>
      <trkpt lat="50.083052041009068" lon="8.452521041035652">
        <ele>129.91999999999999</ele>
        <time>2017-05-21T07:25:47Z</time>
      </trkpt>
      <trkpt lat="50.083154970780015" lon="8.452362036332488">
        <ele>130.40000000000001</ele>
        <time>2017-05-21T07:25:56Z</time>
      </trkpt>
      <trkpt lat="50.083181038498878" lon="8.45232599414885">
        <ele>129.91999999999999</ele>
        <time>2017-05-21T07:26:02Z</time>
      </trkpt>
      <trkpt lat="50.083210961893201" lon="8.452285006642342">
        <ele>129.91999999999999</ele>
        <time>2017-05-21T07:26:03Z</time>
      </trkpt>
      <trkpt lat="50.083241974934936" lon="8.452265979722142">
        <ele>129.43000000000001</ele>
        <time>2017-05-21T07:26:04Z</time>
      </trkpt>
      <trkpt lat="50.083295032382011" lon="8.452301016077399">
        <ele>129.43000000000001</ele>
        <time>2017-05-21T07:26:05Z</time>
      </trkpt>
      <trkpt lat="50.083372984081507" lon="8.452348960563541">
        <ele>129.43000000000001</ele>
        <time>2017-05-21T07:26:06Z</time>
      </trkpt>
      <trkpt lat="50.083829965442419" lon="8.452624976634979">
        <ele>127.51000000000001</ele>
        <time>2017-05-21T07:26:11Z</time>
      </trkpt>
      <trkpt lat="50.084011014550924" lon="8.452788004651666">
        <ele>127.03</ele>
        <time>2017-05-21T07:26:13Z</time>
      </trkpt>
      <trkpt lat="50.084426002576947" lon="8.453280022367835">
        <ele>128.47</ele>
        <time>2017-05-21T07:26:18Z</time>
      </trkpt>
      <trkpt lat="50.084514012560248" lon="8.453358979895711">
        <ele>128.94999999999999</ele>
        <time>2017-05-21T07:26:19Z</time>
      </trkpt>
      <trkpt lat="50.085856039077044" lon="8.454618025571108">
        <ele>132.31999999999999</ele>
        <time>2017-05-21T07:26:34Z</time>
      </trkpt>
      <trkpt lat="50.086627006530762" lon="8.456268003210425">
        <ele>135.68000000000001</ele>
        <time>2017-05-21T07:26:47Z</time>
      </trkpt>
      <trkpt lat="50.087636020034552" lon="8.458596998825669">
        <ele>142.88999999999999</ele>
        <time>2017-05-21T07:27:06Z</time>
      </trkpt>
      <trkpt lat="50.087838023900986" lon="8.459022967144847">
        <ele>143.84999999999999</ele>
        <time>2017-05-21T07:27:11Z</time>
      </trkpt>
      <trkpt lat="50.087893009185791" lon="8.459089016541839">
        <ele>143.84999999999999</ele>
        <time>2017-05-21T07:27:12Z</time>
      </trkpt>
      <trkpt lat="50.088061988353729" lon="8.4593500290066">
        <ele>143.37</ele>
        <time>2017-05-21T07:27:15Z</time>
      </trkpt>
      <trkpt lat="50.088103981688619" lon="8.45948196016252">
        <ele>143.37</ele>
        <time>2017-05-21T07:27:16Z</time>
      </trkpt>
      <trkpt lat="50.088680991902947" lon="8.461233023554087">
        <ele>143.84999999999999</ele>
        <time>2017-05-21T07:27:27Z</time>
      </trkpt>
      <trkpt lat="50.089318016543984" lon="8.462857017293572">
        <ele>144.81999999999999</ele>
        <time>2017-05-21T07:27:39Z</time>
      </trkpt>
      <trkpt lat="50.089408038184047" lon="8.463059021160007">
        <ele>144.81999999999999</ele>
        <time>2017-05-21T07:27:46Z</time>
      </trkpt>
      <trkpt lat="50.08943997323513" lon="8.463102020323277">
        <ele>144.81999999999999</ele>
        <time>2017-05-21T07:28:51Z</time>
      </trkpt>
      <trkpt lat="50.0895019993186" lon="8.463122975081205">
        <ele>143.84999999999999</ele>
        <time>2017-05-21T07:28:52Z</time>
      </trkpt>
      <trkpt lat="50.08956796489656" lon="8.463124986737967">
        <ele>143.84999999999999</ele>
        <time>2017-05-21T07:28:53Z</time>
      </trkpt>
      <trkpt lat="50.089643988758326" lon="8.4630870167166">
        <ele>143.84999999999999</ele>
        <time>2017-05-21T07:28:54Z</time>
      </trkpt>
      <trkpt lat="50.089725963771343" lon="8.463037982583046">
        <ele>143.84999999999999</ele>
        <time>2017-05-21T07:28:55Z</time>
      </trkpt>
      <trkpt lat="50.090685021132231" lon="8.462500032037497">
        <ele>143.37</ele>
        <time>2017-05-21T07:29:04Z</time>
      </trkpt>
      <trkpt lat="50.091534024104476" lon="8.462096024304628">
        <ele>143.37</ele>
        <time>2017-05-21T07:29:12Z</time>
      </trkpt>
      <trkpt lat="50.091836024075747" lon="8.461997034028173">
        <ele>143.37</ele>
        <time>2017-05-21T07:29:15Z</time>
      </trkpt>
      <trkpt lat="50.091912969946861" lon="8.461897959932685">
        <ele>143.37</ele>
        <time>2017-05-21T07:29:16Z</time>
      </trkpt>
      <trkpt lat="50.091972984373569" lon="8.461771979928017">
        <ele>142.88999999999999</ele>
        <time>2017-05-21T07:29:17Z</time>
      </trkpt>
      <trkpt lat="50.09201698936522" lon="8.461626973003149">
        <ele>142.88999999999999</ele>
        <time>2017-05-21T07:29:18Z</time>
      </trkpt>
      <trkpt lat="50.092049008235335" lon="8.46147601492703">
        <ele>143.37</ele>
        <time>2017-05-21T07:29:19Z</time>
      </trkpt>
      <trkpt lat="50.092071974650025" lon="8.461319021880627">
        <ele>143.37</ele>
        <time>2017-05-21T07:29:20Z</time>
      </trkpt>
      <trkpt lat="50.092088989913464" lon="8.461164040490985">
        <ele>143.37</ele>
        <time>2017-05-21T07:29:21Z</time>
      </trkpt>
      <trkpt lat="50.092175994068384" lon="8.460302967578173">
        <ele>143.84999999999999</ele>
        <time>2017-05-21T07:29:27Z</time>
      </trkpt>
      <trkpt lat="50.092200972139835" lon="8.46018897369504">
        <ele>143.84999999999999</ele>
        <time>2017-05-21T07:29:28Z</time>
      </trkpt>
      <trkpt lat="50.092250006273389" lon="8.460116973146796">
        <ele>143.37</ele>
        <time>2017-05-21T07:29:29Z</time>
      </trkpt>
      <trkpt lat="50.092313960194588" lon="8.460089983418584">
        <ele>143.37</ele>
        <time>2017-05-21T07:29:30Z</time>
      </trkpt>
      <trkpt lat="50.092396019026637" lon="8.460098030045629">
        <ele>143.37</ele>
        <time>2017-05-21T07:29:31Z</time>
      </trkpt>
      <trkpt lat="50.092486962676048" lon="8.460122002288699">
        <ele>142.88999999999999</ele>
        <time>2017-05-21T07:29:32Z</time>
      </trkpt>
      <trkpt lat="50.092578995972872" lon="8.460162989795208">
        <ele>142.88999999999999</ele>
        <time>2017-05-21T07:29:33Z</time>
      </trkpt>
      <trkpt lat="50.09377802722156" lon="8.460658024996519">
        <ele>143.84999999999999</ele>
        <time>2017-05-21T07:29:45Z</time>
      </trkpt>
      <trkpt lat="50.094770025461912" lon="8.461181977763772">
        <ele>143.84999999999999</ele>
        <time>2017-05-21T07:29:55Z</time>
      </trkpt>
      <trkpt lat="50.094873961061239" lon="8.46115498803556">
        <ele>142.88999999999999</ele>
        <time>2017-05-21T07:29:56Z</time>
      </trkpt>
      <trkpt lat="50.094959959387779" lon="8.461103020235896">
        <ele>142.88999999999999</ele>
        <time>2017-05-21T07:29:57Z</time>
      </trkpt>
      <trkpt lat="50.095037994906306" lon="8.461024984717369">
        <ele>142.41</ele>
        <time>2017-05-21T07:29:58Z</time>
      </trkpt>
      <trkpt lat="50.095113012939692" lon="8.460936974734068">
        <ele>142.41</ele>
        <time>2017-05-21T07:29:59Z</time>
      </trkpt>
      <trkpt lat="50.095189036801457" lon="8.460845025256276">
        <ele>141.93000000000001</ele>
        <time>2017-05-21T07:30:00Z</time>
      </trkpt>
      <trkpt lat="50.095456000417471" lon="8.460577977821231">
        <ele>144.34</ele>
        <time>2017-05-21T07:30:04Z</time>
      </trkpt>
      <trkpt lat="50.095494976267219" lon="8.46055400557816">
        <ele>143.84999999999999</ele>
        <time>2017-05-21T07:30:05Z</time>
      </trkpt>
      <trkpt lat="50.095528000965714" lon="8.460560040548444">
        <ele>143.84999999999999</ele>
        <time>2017-05-21T07:30:06Z</time>
      </trkpt>
      <trkpt lat="50.095572005957365" lon="8.460588958114386">
        <ele>143.84999999999999</ele>
        <time>2017-05-21T07:30:07Z</time>
      </trkpt>
      <trkpt lat="50.095616010949016" lon="8.460660958662629">
        <ele>144.34</ele>
        <time>2017-05-21T07:30:08Z</time>
      </trkpt>
      <trkpt lat="50.095666972920299" lon="8.460763972252607">
        <ele>144.34</ele>
        <time>2017-05-21T07:30:09Z</time>
      </trkpt>
      <trkpt lat="50.095727993175387" lon="8.460880983620882">
        <ele>144.34</ele>
        <time>2017-05-21T07:30:10Z</time>
      </trkpt>
      <trkpt lat="50.096472976729274" lon="8.462329041212797">
        <ele>144.81999999999999</ele>
        <time>2017-05-21T07:30:20Z</time>
      </trkpt>
      <trkpt lat="50.097749959677458" lon="8.46478502266109">
        <ele>147.69999999999999</ele>
        <time>2017-05-21T07:30:35Z</time>
      </trkpt>
      <trkpt lat="50.09785900823772" lon="8.464933969080448">
        <ele>148.18000000000001</ele>
        <time>2017-05-21T07:30:36Z</time>
      </trkpt>
      <trkpt lat="50.09798800572753" lon="8.465058021247387">
        <ele>148.18000000000001</ele>
        <time>2017-05-21T07:30:37Z</time>
      </trkpt>
      <trkpt lat="50.099199023097754" lon="8.466062005609274">
        <ele>147.22</ele>
        <time>2017-05-21T07:30:45Z</time>
      </trkpt>
      <trkpt lat="50.101675959303975" lon="8.46800995990634">
        <ele>141.93000000000001</ele>
        <time>2017-05-21T07:31:00Z</time>
      </trkpt>
      <trkpt lat="50.104021970182657" lon="8.469329020008445">
        <ele>142.41</ele>
        <time>2017-05-21T07:31:14Z</time>
      </trkpt>
      <trkpt lat="50.106488009914756" lon="8.470534002408385">
        <ele>147.69999999999999</ele>
        <time>2017-05-21T07:31:27Z</time>
      </trkpt>
      <trkpt lat="50.110448962077498" lon="8.472426971420646">
        <ele>150.09999999999999</ele>
        <time>2017-05-21T07:31:47Z</time>
      </trkpt>
      <trkpt lat="50.112775024026632" lon="8.473600018769503">
        <ele>148.66</ele>
        <time>2017-05-21T07:31:58Z</time>
      </trkpt>
      <trkpt lat="50.114869996905327" lon="8.475146982818842">
        <ele>150.09999999999999</ele>
        <time>2017-05-21T07:32:08Z</time>
      </trkpt>
      <trkpt lat="50.117567041888833" lon="8.47724799066782">
        <ele>156.83000000000001</ele>
        <time>2017-05-21T07:32:22Z</time>
      </trkpt>
      <trkpt lat="50.119149964302778" lon="8.47752601839602">
        <ele>158.27000000000001</ele>
        <time>2017-05-21T07:32:29Z</time>
      </trkpt>
      <trkpt lat="50.120673039928079" lon="8.477070964872837">
        <ele>157.78999999999999</ele>
        <time>2017-05-21T07:32:36Z</time>
      </trkpt>
      <trkpt lat="50.122182033956051" lon="8.475972013548017">
        <ele>159.24000000000001</ele>
        <time>2017-05-21T07:32:44Z</time>
      </trkpt>
      <trkpt lat="50.125252995640039" lon="8.473843010142446">
        <ele>166.44999999999999</ele>
        <time>2017-05-21T07:33:00Z</time>
      </trkpt>
      <trkpt lat="50.126585969701409" lon="8.473373958840966">
        <ele>170.28999999999999</ele>
        <time>2017-05-21T07:33:08Z</time>
      </trkpt>
      <trkpt lat="50.12731603346765" lon="8.473147982731462">
        <ele>171.72999999999999</ele>
        <time>2017-05-21T07:33:15Z</time>
      </trkpt>
      <trkpt lat="50.1274049654603" lon="8.473153011873364">
        <ele>171.72999999999999</ele>
        <time>2017-05-21T07:33:16Z</time>
      </trkpt>
      <trkpt lat="50.127493981271982" lon="8.473191987723112">
        <ele>172.21000000000001</ele>
        <time>2017-05-21T07:33:17Z</time>
      </trkpt>
      <trkpt lat="50.127572016790509" lon="8.473283015191555">
        <ele>172.21000000000001</ele>
        <time>2017-05-21T07:33:18Z</time>
      </trkpt>
      <trkpt lat="50.127633037045598" lon="8.473420981317759">
        <ele>172.21000000000001</ele>
        <time>2017-05-21T07:33:19Z</time>
      </trkpt>
      <trkpt lat="50.127677964046597" lon="8.4735949896276">
        <ele>172.69</ele>
        <time>2017-05-21T07:33:20Z</time>
      </trkpt>
      <trkpt lat="50.127723980695009" lon="8.473785007372499">
        <ele>172.69</ele>
        <time>2017-05-21T07:33:21Z</time>
      </trkpt>
      <trkpt lat="50.127777960151434" lon="8.473979970440269">
        <ele>172.21000000000001</ele>
        <time>2017-05-21T07:33:22Z</time>
      </trkpt>
      <trkpt lat="50.127848032861948" lon="8.474162025377154">
        <ele>172.21000000000001</ele>
        <time>2017-05-21T07:33:23Z</time>
      </trkpt>
      <trkpt lat="50.127935037016869" lon="8.47430401481688">
        <ele>172.21000000000001</ele>
        <time>2017-05-21T07:33:24Z</time>
      </trkpt>
      <trkpt lat="50.128036038950086" lon="8.474408034235239">
        <ele>172.21000000000001</ele>
        <time>2017-05-21T07:33:25Z</time>
      </trkpt>
      <trkpt lat="50.128143997862935" lon="8.47447500564158">
        <ele>171.25</ele>
        <time>2017-05-21T07:33:26Z</time>
      </trkpt>
      <trkpt lat="50.128244999796152" lon="8.474524039775133">
        <ele>171.25</ele>
        <time>2017-05-21T07:33:27Z</time>
      </trkpt>
      <trkpt lat="50.12839000672102" lon="8.47464700229466">
        <ele>170.77000000000001</ele>
        <time>2017-05-21T07:33:29Z</time>
      </trkpt>
      <trkpt lat="50.128445997834206" lon="8.474729983136058">
        <ele>170.28999999999999</ele>
        <time>2017-05-21T07:33:30Z</time>
      </trkpt>
      <trkpt lat="50.128490002825856" lon="8.474840959534049">
        <ele>169.81</ele>
        <time>2017-05-21T07:33:31Z</time>
      </trkpt>
      <trkpt lat="50.128523027524352" lon="8.474985966458917">
        <ele>169.81</ele>
        <time>2017-05-21T07:33:32Z</time>
      </trkpt>
      <trkpt lat="50.128546999767423" lon="8.475166009739041">
        <ele>170.28999999999999</ele>
        <time>2017-05-21T07:33:33Z</time>
      </trkpt>
      <trkpt lat="50.128566026687622" lon="8.47537899389863">
        <ele>170.28999999999999</ele>
        <time>2017-05-21T07:33:34Z</time>
      </trkpt>
      <trkpt lat="50.128681026399136" lon="8.477679993957281">
        <ele>170.28999999999999</ele>
        <time>2017-05-21T07:33:43Z</time>
      </trkpt>
      <trkpt lat="50.128591004759073" lon="8.479715036228299">
        <ele>167.41</ele>
        <time>2017-05-21T07:33:51Z</time>
      </trkpt>
      <trkpt lat="50.1282839756459" lon="8.482716009020805">
        <ele>166.93000000000001</ele>
        <time>2017-05-21T07:34:03Z</time>
      </trkpt>
      <trkpt lat="50.128350025042892" lon="8.484525997191668">
        <ele>169.81</ele>
        <time>2017-05-21T07:34:11Z</time>
      </trkpt>
      <trkpt lat="50.128856962546706" lon="8.48672297783196">
        <ele>174.62</ele>
        <time>2017-05-21T07:34:22Z</time>
      </trkpt>
      <trkpt lat="50.129630025476217" lon="8.48893596790731">
        <ele>180.87</ele>
        <time>2017-05-21T07:34:35Z</time>
      </trkpt>
      <trkpt lat="50.130006959661841" lon="8.490247987210751">
        <ele>184.71000000000001</ele>
        <time>2017-05-21T07:34:43Z</time>
      </trkpt>
      <trkpt lat="50.130004025995731" lon="8.490421995520592">
        <ele>184.71000000000001</ele>
        <time>2017-05-21T07:34:44Z</time>
      </trkpt>
      <trkpt lat="50.129972007125616" lon="8.490564990788698">
        <ele>184.71000000000001</ele>
        <time>2017-05-21T07:34:45Z</time>
      </trkpt>
      <trkpt lat="50.129918027669191" lon="8.490679990500212">
        <ele>184.71000000000001</ele>
        <time>2017-05-21T07:34:46Z</time>
      </trkpt>
      <trkpt lat="50.129842003807425" lon="8.490752996876836">
        <ele>184.22999999999999</ele>
        <time>2017-05-21T07:34:47Z</time>
      </trkpt>
      <trkpt lat="50.12974401935935" lon="8.490819968283176">
        <ele>184.22999999999999</ele>
        <time>2017-05-21T07:34:48Z</time>
      </trkpt>
      <trkpt lat="50.129631031304598" lon="8.490876965224743">
        <ele>182.31</ele>
        <time>2017-05-21T07:34:49Z</time>
      </trkpt>
      <trkpt lat="50.129521982744336" lon="8.49097796715796">
        <ele>181.83000000000001</ele>
        <time>2017-05-21T07:34:50Z</time>
      </trkpt>
      <trkpt lat="50.1294219866395" lon="8.491110987961292">
        <ele>181.34999999999999</ele>
        <time>2017-05-21T07:34:51Z</time>
      </trkpt>
      <trkpt lat="50.129330959171057" lon="8.491257000714541">
        <ele>180.87</ele>
        <time>2017-05-21T07:34:52Z</time>
      </trkpt>
      <trkpt lat="50.129259964451194" lon="8.491436038166285">
        <ele>179.90000000000001</ele>
        <time>2017-05-21T07:34:53Z</time>
      </trkpt>
      <trkpt lat="50.12920699082315" lon="8.491631001234055">
        <ele>179.41999999999999</ele>
        <time>2017-05-21T07:34:54Z</time>
      </trkpt>
      <trkpt lat="50.129178995266557" lon="8.491845997050405">
        <ele>179.41999999999999</ele>
        <time>2017-05-21T07:34:55Z</time>
      </trkpt>
      <trkpt lat="50.129181006923318" lon="8.492074990645051">
        <ele>178.94</ele>
        <time>2017-05-21T07:34:56Z</time>
      </trkpt>
      <trkpt lat="50.129210008308291" lon="8.492299960926175">
        <ele>177.97999999999999</ele>
        <time>2017-05-21T07:34:57Z</time>
      </trkpt>
      <trkpt lat="50.129262981936336" lon="8.492512023076415">
        <ele>177.5</ele>
        <time>2017-05-21T07:34:58Z</time>
      </trkpt>
      <trkpt lat="50.129328025504947" lon="8.492706986144185">
        <ele>177.02000000000001</ele>
        <time>2017-05-21T07:34:59Z</time>
      </trkpt>
      <trkpt lat="50.129394996911287" lon="8.492886023595929">
        <ele>177.02000000000001</ele>
        <time>2017-05-21T07:35:00Z</time>
      </trkpt>
      <trkpt lat="50.129446964710951" lon="8.493066988885403">
        <ele>176.53999999999999</ele>
        <time>2017-05-21T07:35:01Z</time>
      </trkpt>
      <trkpt lat="50.129472026601434" lon="8.493264969438314">
        <ele>176.06</ele>
        <time>2017-05-21T07:35:02Z</time>
      </trkpt>
      <trkpt lat="50.129469009116292" lon="8.493482982739806">
        <ele>176.06</ele>
        <time>2017-05-21T07:35:03Z</time>
      </trkpt>
      <trkpt lat="50.129433972761035" lon="8.493700996041298">
        <ele>176.06</ele>
        <time>2017-05-21T07:35:04Z</time>
      </trkpt>
      <trkpt lat="50.129370018839836" lon="8.493910962715745">
        <ele>175.58000000000001</ele>
        <time>2017-05-21T07:35:05Z</time>
      </trkpt>
      <trkpt lat="50.129287960007787" lon="8.494122019037604">
        <ele>175.58000000000001</ele>
        <time>2017-05-21T07:35:06Z</time>
      </trkpt>
      <trkpt lat="50.129201039671898" lon="8.494337014853954">
        <ele>175.09999999999999</ele>
        <time>2017-05-21T07:35:07Z</time>
      </trkpt>
      <trkpt lat="50.128250028938055" lon="8.497093990445137">
        <ele>169.81</ele>
        <time>2017-05-21T07:35:18Z</time>
      </trkpt>
      <trkpt lat="50.127140013501048" lon="8.500589998438954">
        <ele>163.56</ele>
        <time>2017-05-21T07:35:32Z</time>
      </trkpt>
      <trkpt lat="50.126121025532484" lon="8.504140991717577">
        <ele>156.83000000000001</ele>
        <time>2017-05-21T07:35:45Z</time>
      </trkpt>
      <trkpt lat="50.124808000400662" lon="8.509264010936022">
        <ele>146.25999999999999</ele>
        <time>2017-05-21T07:36:02Z</time>
      </trkpt>
      <trkpt lat="50.123721035197377" lon="8.514077989384532">
        <ele>140.00999999999999</ele>
        <time>2017-05-21T07:36:16Z</time>
      </trkpt>
      <trkpt lat="50.12263398617506" lon="8.519933000206947">
        <ele>135.68000000000001</ele>
        <time>2017-05-21T07:36:33Z</time>
      </trkpt>
      <trkpt lat="50.122198965400457" lon="8.522421000525355">
        <ele>134.24000000000001</ele>
        <time>2017-05-21T07:36:41Z</time>
      </trkpt>
      <trkpt lat="50.121633019298315" lon="8.524806993082166">
        <ele>132.80000000000001</ele>
        <time>2017-05-21T07:36:49Z</time>
      </trkpt>
      <trkpt lat="50.121534029021859" lon="8.525100024417043">
        <ele>132.80000000000001</ele>
        <time>2017-05-21T07:36:50Z</time>
      </trkpt>
      <trkpt lat="50.120497019961476" lon="8.527171025052667">
        <ele>130.40000000000001</ele>
        <time>2017-05-21T07:36:58Z</time>
      </trkpt>
      <trkpt lat="50.119575010612607" lon="8.528419006615877">
        <ele>128.47</ele>
        <time>2017-05-21T07:37:05Z</time>
      </trkpt>
      <trkpt lat="50.118477987125516" lon="8.529649972915649">
        <ele>123.19</ele>
        <time>2017-05-21T07:37:15Z</time>
      </trkpt>
      <trkpt lat="50.116752991452813" lon="8.531578984111548">
        <ele>117.42</ele>
        <time>2017-05-21T07:37:31Z</time>
      </trkpt>
      <trkpt lat="50.116385025903583" lon="8.531986009329557">
        <ele>116.94</ele>
        <time>2017-05-21T07:37:35Z</time>
      </trkpt>
      <trkpt lat="50.116287041455507" lon="8.532063961029053">
        <ele>116.45999999999999</ele>
        <time>2017-05-21T07:37:36Z</time>
      </trkpt>
      <trkpt lat="50.116190984845161" lon="8.532107966020703">
        <ele>116.45999999999999</ele>
        <time>2017-05-21T07:37:37Z</time>
      </trkpt>
      <trkpt lat="50.116091994568706" lon="8.532123975455761">
        <ele>115.98</ele>
        <time>2017-05-21T07:37:38Z</time>
      </trkpt>
      <trkpt lat="50.115997027605772" lon="8.532091034576297">
        <ele>115.5</ele>
        <time>2017-05-21T07:37:39Z</time>
      </trkpt>
      <trkpt lat="50.115900970995426" lon="8.531996989622712">
        <ele>115.01000000000001</ele>
        <time>2017-05-21T07:37:40Z</time>
      </trkpt>
      <trkpt lat="50.115811033174396" lon="8.53186497464776">
        <ele>115.01000000000001</ele>
        <time>2017-05-21T07:37:41Z</time>
      </trkpt>
      <trkpt lat="50.115732997655869" lon="8.531706975772977">
        <ele>115.01000000000001</ele>
        <time>2017-05-21T07:37:42Z</time>
      </trkpt>
      <trkpt lat="50.11567298322916" lon="8.531534979119897">
        <ele>115.01000000000001</ele>
        <time>2017-05-21T07:37:43Z</time>
      </trkpt>
      <trkpt lat="50.115621015429497" lon="8.531364994123578">
        <ele>115.5</ele>
        <time>2017-05-21T07:37:44Z</time>
      </trkpt>
      <trkpt lat="50.11550098657608" lon="8.531058970838785">
        <ele>115.98</ele>
        <time>2017-05-21T07:37:46Z</time>
      </trkpt>
      <trkpt lat="50.11543502099812" lon="8.530927039682865">
        <ele>115.01000000000001</ele>
        <time>2017-05-21T07:37:47Z</time>
      </trkpt>
      <trkpt lat="50.115341981872916" lon="8.530816985294223">
        <ele>115.5</ele>
        <time>2017-05-21T07:37:48Z</time>
      </trkpt>
      <trkpt lat="50.115228993818164" lon="8.530739033594728">
        <ele>115.01000000000001</ele>
        <time>2017-05-21T07:37:49Z</time>
      </trkpt>
      <trkpt lat="50.115103013813496" lon="8.530697962269187">
        <ele>115.01000000000001</ele>
        <time>2017-05-21T07:37:50Z</time>
      </trkpt>
      <trkpt lat="50.114967981353402" lon="8.530707014724612">
        <ele>114.05</ele>
        <time>2017-05-21T07:37:51Z</time>
      </trkpt>
      <trkpt lat="50.114838983863592" lon="8.530755965039134">
        <ele>113.56999999999999</ele>
        <time>2017-05-21T07:37:52Z</time>
      </trkpt>
      <trkpt lat="50.114724989980459" lon="8.53085202164948">
        <ele>113.09</ele>
        <time>2017-05-21T07:37:53Z</time>
      </trkpt>
      <trkpt lat="50.114628011360765" lon="8.530970960855484">
        <ele>113.09</ele>
        <time>2017-05-21T07:37:54Z</time>
      </trkpt>
      <trkpt lat="50.114540001377463" lon="8.531102975830436">
        <ele>112.61</ele>
        <time>2017-05-21T07:37:55Z</time>
      </trkpt>
      <trkpt lat="50.11444897390902" lon="8.531233984977007">
        <ele>112.13</ele>
        <time>2017-05-21T07:37:56Z</time>
      </trkpt>
      <trkpt lat="50.114388037472963" lon="8.531389972195029">
        <ele>111.65000000000001</ele>
        <time>2017-05-21T07:37:57Z</time>
      </trkpt>
      <trkpt lat="50.114429024979472" lon="8.531671017408371">
        <ele>111.17</ele>
        <time>2017-05-21T07:37:58Z</time>
      </trkpt>
      <trkpt lat="50.114471018314362" lon="8.53188500739634">
        <ele>111.65000000000001</ele>
        <time>2017-05-21T07:37:59Z</time>
      </trkpt>
      <trkpt lat="50.114546958357096" lon="8.532092040404677">
        <ele>112.13</ele>
        <time>2017-05-21T07:38:00Z</time>
      </trkpt>
      <trkpt lat="50.114636979997158" lon="8.532274011522532">
        <ele>112.61</ele>
        <time>2017-05-21T07:38:01Z</time>
      </trkpt>
      <trkpt lat="50.114739993587136" lon="8.53242002427578">
        <ele>113.09</ele>
        <time>2017-05-21T07:38:02Z</time>
      </trkpt>
      <trkpt lat="50.114847030490637" lon="8.532564025372267">
        <ele>113.56999999999999</ele>
        <time>2017-05-21T07:38:03Z</time>
      </trkpt>
      <trkpt lat="50.114958006888628" lon="8.532725963741541">
        <ele>114.53</ele>
        <time>2017-05-21T07:38:04Z</time>
      </trkpt>
      <trkpt lat="50.115051968023181" lon="8.532898966223002">
        <ele>114.53</ele>
        <time>2017-05-21T07:38:05Z</time>
      </trkpt>
      <trkpt lat="50.115130003541708" lon="8.5331080108881">
        <ele>115.98</ele>
        <time>2017-05-21T07:38:06Z</time>
      </trkpt>
      <trkpt lat="50.115875992923975" lon="8.535126959905028">
        <ele>119.34</ele>
        <time>2017-05-21T07:38:14Z</time>
      </trkpt>
      <trkpt lat="50.11693898588419" lon="8.538070013746619">
        <ele>121.26000000000001</ele>
        <time>2017-05-21T07:38:23Z</time>
      </trkpt>
      <trkpt lat="50.119466967880726" lon="8.545015007257462">
        <ele>126.55</ele>
        <time>2017-05-21T07:38:42Z</time>
      </trkpt>
      <trkpt lat="50.120797008275986" lon="8.548803040757775">
        <ele>120.78</ele>
        <time>2017-05-21T07:38:52Z</time>
      </trkpt>
      <trkpt lat="50.122559973970056" lon="8.553339997306466">
        <ele>116.94</ele>
        <time>2017-05-21T07:39:05Z</time>
      </trkpt>
      <trkpt lat="50.124486973509192" lon="8.557767989113927">
        <ele>123.19</ele>
        <time>2017-05-21T07:39:19Z</time>
      </trkpt>
      <trkpt lat="50.126505000516772" lon="8.562309974804521">
        <ele>125.59</ele>
        <time>2017-05-21T07:39:34Z</time>
      </trkpt>
      <trkpt lat="50.128492014482617" lon="8.567222021520138">
        <ele>124.63</ele>
        <time>2017-05-21T07:39:50Z</time>
      </trkpt>
      <trkpt lat="50.129001969471574" lon="8.570050997659564">
        <ele>120.78</ele>
        <time>2017-05-21T07:39:58Z</time>
      </trkpt>
      <trkpt lat="50.129368007183075" lon="8.574116975069046">
        <ele>118.86</ele>
        <time>2017-05-21T07:40:09Z</time>
      </trkpt>
      <trkpt lat="50.130219021812081" lon="8.577168993651867">
        <ele>119.81999999999999</ele>
        <time>2017-05-21T07:40:18Z</time>
      </trkpt>
      <trkpt lat="50.131899006664753" lon="8.581080995500088">
        <ele>122.70999999999999</ele>
        <time>2017-05-21T07:40:31Z</time>
      </trkpt>
      <trkpt lat="50.133673036471009" lon="8.585086036473513">
        <ele>123.19</ele>
        <time>2017-05-21T07:40:45Z</time>
      </trkpt>
      <trkpt lat="50.134376026690006" lon="8.58761896379292">
        <ele>121.73999999999999</ele>
        <time>2017-05-21T07:40:54Z</time>
      </trkpt>
      <trkpt lat="50.134640978649259" lon="8.590204026550055">
        <ele>122.22</ele>
        <time>2017-05-21T07:41:03Z</time>
      </trkpt>
      <trkpt lat="50.134473005309701" lon="8.592374017462134">
        <ele>122.22</ele>
        <time>2017-05-21T07:41:12Z</time>
      </trkpt>
      <trkpt lat="50.13440603390336" lon="8.59255800023675">
        <ele>122.22</ele>
        <time>2017-05-21T07:41:13Z</time>
      </trkpt>
      <trkpt lat="50.134314000606537" lon="8.592699989676476">
        <ele>122.22</ele>
        <time>2017-05-21T07:41:14Z</time>
      </trkpt>
      <trkpt lat="50.134194977581501" lon="8.592776013538241">
        <ele>122.22</ele>
        <time>2017-05-21T07:41:15Z</time>
      </trkpt>
      <trkpt lat="50.134078972041607" lon="8.592820018529892">
        <ele>121.73999999999999</ele>
        <time>2017-05-21T07:41:16Z</time>
      </trkpt>
      <trkpt lat="50.133953997865319" lon="8.59281599521637">
        <ele>121.73999999999999</ele>
        <time>2017-05-21T07:41:17Z</time>
      </trkpt>
      <trkpt lat="50.133832041174173" lon="8.592771990224719">
        <ele>121.26000000000001</ele>
        <time>2017-05-21T07:41:18Z</time>
      </trkpt>
      <trkpt lat="50.133626013994217" lon="8.592533022165299">
        <ele>120.3</ele>
        <time>2017-05-21T07:41:20Z</time>
      </trkpt>
      <trkpt lat="50.13354797847569" lon="8.592335041612387">
        <ele>119.81999999999999</ele>
        <time>2017-05-21T07:41:21Z</time>
      </trkpt>
      <trkpt lat="50.133523000404239" lon="8.592132031917572">
        <ele>118.86</ele>
        <time>2017-05-21T07:41:22Z</time>
      </trkpt>
      <trkpt lat="50.13354898430407" lon="8.591916030272842">
        <ele>116.94</ele>
        <time>2017-05-21T07:41:23Z</time>
      </trkpt>
      <trkpt lat="50.133584020659328" lon="8.591714026406407">
        <ele>115.98</ele>
        <time>2017-05-21T07:41:24Z</time>
      </trkpt>
      <trkpt lat="50.133642023429275" lon="8.591515040025115">
        <ele>115.5</ele>
        <time>2017-05-21T07:41:25Z</time>
      </trkpt>
      <trkpt lat="50.13384997844696" lon="8.59122603200376">
        <ele>115.5</ele>
        <time>2017-05-21T07:41:27Z</time>
      </trkpt>
      <trkpt lat="50.133980987593532" lon="8.591138022020459">
        <ele>115.98</ele>
        <time>2017-05-21T07:41:28Z</time>
      </trkpt>
      <trkpt lat="50.134129012003541" lon="8.591087982058525">
        <ele>115.98</ele>
        <time>2017-05-21T07:41:29Z</time>
      </trkpt>
      <trkpt lat="50.13427997007966" lon="8.591083958745003">
        <ele>115.5</ele>
        <time>2017-05-21T07:41:30Z</time>
      </trkpt>
      <trkpt lat="50.134438974782825" lon="8.591102985665202">
        <ele>115.5</ele>
        <time>2017-05-21T07:41:31Z</time>
      </trkpt>
      <trkpt lat="50.134597979485989" lon="8.591155959293246">
        <ele>115.98</ele>
        <time>2017-05-21T07:41:32Z</time>
      </trkpt>
      <trkpt lat="50.134754972532392" lon="8.59122603200376">
        <ele>115.98</ele>
        <time>2017-05-21T07:41:33Z</time>
      </trkpt>
      <trkpt lat="50.136135974898934" lon="8.591833971440792">
        <ele>116.94</ele>
        <time>2017-05-21T07:41:40Z</time>
      </trkpt>
      <trkpt lat="50.138491960242391" lon="8.593068039044738">
        <ele>115.5</ele>
        <time>2017-05-21T07:41:51Z</time>
      </trkpt>
      <trkpt lat="50.141658978536725" lon="8.594782976433635">
        <ele>116.94</ele>
        <time>2017-05-21T07:42:05Z</time>
      </trkpt>
      <trkpt lat="50.145318014547229" lon="8.596793962642551">
        <ele>122.70999999999999</ele>
        <time>2017-05-21T07:42:20Z</time>
      </trkpt>
      <trkpt lat="50.147810038179159" lon="8.598141018301249">
        <ele>128.47</ele>
        <time>2017-05-21T07:42:30Z</time>
      </trkpt>
      <trkpt lat="50.152657041326165" lon="8.600818030536175">
        <ele>138.56999999999999</ele>
        <time>2017-05-21T07:42:48Z</time>
      </trkpt>
      <trkpt lat="50.156543981283903" lon="8.602964971214533">
        <ele>135.68000000000001</ele>
        <time>2017-05-21T07:43:02Z</time>
      </trkpt>
      <trkpt lat="50.16201501712203" lon="8.605980025604367">
        <ele>140.97</ele>
        <time>2017-05-21T07:43:21Z</time>
      </trkpt>
      <trkpt lat="50.166568988934159" lon="8.608514964580536">
        <ele>145.30000000000001</ele>
        <time>2017-05-21T07:43:37Z</time>
      </trkpt>
      <trkpt lat="50.169661995023489" lon="8.610190004110336">
        <ele>150.58000000000001</ele>
        <time>2017-05-21T07:43:48Z</time>
      </trkpt>
      <trkpt lat="50.172677971422672" lon="8.611911982297897">
        <ele>152.99000000000001</ele>
        <time>2017-05-21T07:43:59Z</time>
      </trkpt>
      <trkpt lat="50.176927009597421" lon="8.614275008440018">
        <ele>158.27000000000001</ele>
        <time>2017-05-21T07:44:15Z</time>
      </trkpt>
      <trkpt lat="50.181706035509706" lon="8.616855964064598">
        <ele>160.19999999999999</ele>
        <time>2017-05-21T07:44:32Z</time>
      </trkpt>
      <trkpt lat="50.185253005474806" lon="8.619529958814383">
        <ele>162.12</ele>
        <time>2017-05-21T07:44:45Z</time>
      </trkpt>
      <trkpt lat="50.187601028010249" lon="8.622406041249633">
        <ele>157.31</ele>
        <time>2017-05-21T07:44:54Z</time>
      </trkpt>
      <trkpt lat="50.189657025039196" lon="8.625786965712905">
        <ele>148.66</ele>
        <time>2017-05-21T07:45:03Z</time>
      </trkpt>
      <trkpt lat="50.193261997774243" lon="8.632033998146653">
        <ele>158.27000000000001</ele>
        <time>2017-05-21T07:45:20Z</time>
      </trkpt>
      <trkpt lat="50.196658009663224" lon="8.637897977605462">
        <ele>165.47999999999999</ele>
        <time>2017-05-21T07:45:36Z</time>
      </trkpt>
      <trkpt lat="50.199737017974257" lon="8.643281003460288">
        <ele>164.52000000000001</ele>
        <time>2017-05-21T07:45:50Z</time>
      </trkpt>
      <trkpt lat="50.201573995873332" lon="8.646500995382667">
        <ele>168.37</ele>
        <time>2017-05-21T07:45:58Z</time>
      </trkpt>
      <trkpt lat="50.204345975071192" lon="8.651312962174416">
        <ele>164.03999999999999</ele>
        <time>2017-05-21T07:46:11Z</time>
      </trkpt>
      <trkpt lat="50.207276036962867" lon="8.656171029433608">
        <ele>153.47</ele>
        <time>2017-05-21T07:46:24Z</time>
      </trkpt>
      <trkpt lat="50.20992798730731" lon="8.6592470202595">
        <ele>155.87</ele>
        <time>2017-05-21T07:46:34Z</time>
      </trkpt>
      <trkpt lat="50.212496034801006" lon="8.661329001188278">
        <ele>147.69999999999999</ele>
        <time>2017-05-21T07:46:43Z</time>
      </trkpt>
      <trkpt lat="50.215245969593525" lon="8.662674967199564">
        <ele>147.69999999999999</ele>
        <time>2017-05-21T07:46:52Z</time>
      </trkpt>
      <trkpt lat="50.217270031571388" lon="8.663276033475995">
        <ele>152.99000000000001</ele>
        <time>2017-05-21T07:46:59Z</time>
      </trkpt>
      <trkpt lat="50.219921981915832" lon="8.663455992937088">
        <ele>159.24000000000001</ele>
        <time>2017-05-21T07:47:08Z</time>
      </trkpt>
      <trkpt lat="50.224010003730655" lon="8.663418022915721">
        <ele>158.27000000000001</ele>
        <time>2017-05-21T07:47:22Z</time>
      </trkpt>
      <trkpt lat="50.230090990662575" lon="8.663334958255291">
        <ele>160.68000000000001</ele>
        <time>2017-05-21T07:47:44Z</time>
      </trkpt>
      <trkpt lat="50.23313001729548" lon="8.663283996284008">
        <ele>163.08000000000001</ele>
        <time>2017-05-21T07:47:55Z</time>
      </trkpt>
      <trkpt lat="50.234730960801244" lon="8.663238985463977">
        <ele>162.12</ele>
        <time>2017-05-21T07:48:00Z</time>
      </trkpt>
      <trkpt lat="50.238012978807092" lon="8.663203027099371">
        <ele>165.47999999999999</ele>
        <time>2017-05-21T07:48:10Z</time>
      </trkpt>
      <trkpt lat="50.243388963863254" lon="8.663144018501043">
        <ele>175.09999999999999</ele>
        <time>2017-05-21T07:48:27Z</time>
      </trkpt>
      <trkpt lat="50.248616002500057" lon="8.663002029061317">
        <ele>183.75</ele>
        <time>2017-05-21T07:48:44Z</time>
      </trkpt>
      <trkpt lat="50.250864028930664" lon="8.662992976605892">
        <ele>183.27000000000001</ele>
        <time>2017-05-21T07:48:52Z</time>
      </trkpt>
      <trkpt lat="50.255681024864316" lon="8.662951989099383">
        <ele>184.22999999999999</ele>
        <time>2017-05-21T07:49:08Z</time>
      </trkpt>
      <trkpt lat="50.259839035570621" lon="8.662859033793211">
        <ele>186.15000000000001</ele>
        <time>2017-05-21T07:49:21Z</time>
      </trkpt>
      <trkpt lat="50.262341033667326" lon="8.662759959697723">
        <ele>190.96000000000001</ele>
        <time>2017-05-21T07:49:28Z</time>
      </trkpt>
      <trkpt lat="50.26548801921308" lon="8.663080986589193">
        <ele>197.21000000000001</ele>
        <time>2017-05-21T07:49:37Z</time>
      </trkpt>
      <trkpt lat="50.268717985600233" lon="8.664174992591143">
        <ele>204.90000000000001</ele>
        <time>2017-05-21T07:49:47Z</time>
      </trkpt>
      <trkpt lat="50.272776000201702" lon="8.665527999401093">
        <ele>218.36000000000001</ele>
        <time>2017-05-21T07:50:00Z</time>
      </trkpt>
      <trkpt lat="50.275387968868017" lon="8.666455959901214">
        <ele>227.49000000000001</ele>
        <time>2017-05-21T07:50:08Z</time>
      </trkpt>
      <trkpt lat="50.279654022306204" lon="8.667977023869753">
        <ele>227.00999999999999</ele>
        <time>2017-05-21T07:50:22Z</time>
      </trkpt>
      <trkpt lat="50.282820034772158" lon="8.669042028486729">
        <ele>216.91</ele>
        <time>2017-05-21T07:50:33Z</time>
      </trkpt>
      <trkpt lat="50.284540001302958" lon="8.669636975973845">
        <ele>213.55000000000001</ele>
        <time>2017-05-21T07:50:41Z</time>
      </trkpt>
      <trkpt lat="50.285269981250167" lon="8.669924978166819">
        <ele>216.91</ele>
        <time>2017-05-21T07:50:45Z</time>
      </trkpt>
      <trkpt lat="50.285433009266853" lon="8.670035032555461">
        <ele>216.43000000000001</ele>
        <time>2017-05-21T07:50:46Z</time>
      </trkpt>
      <trkpt lat="50.285584973171353" lon="8.670176016166806">
        <ele>217.40000000000001</ele>
        <time>2017-05-21T07:50:47Z</time>
      </trkpt>
      <trkpt lat="50.28570600785315" lon="8.67035798728466">
        <ele>217.88</ele>
        <time>2017-05-21T07:50:48Z</time>
      </trkpt>
      <trkpt lat="50.285801980644464" lon="8.670552028343082">
        <ele>218.36000000000001</ele>
        <time>2017-05-21T07:50:49Z</time>
      </trkpt>
      <trkpt lat="50.285889990627766" lon="8.670740034431219">
        <ele>218.84</ele>
        <time>2017-05-21T07:50:50Z</time>
      </trkpt>
      <trkpt lat="50.285990992560983" lon="8.670881018042564">
        <ele>218.84</ele>
        <time>2017-05-21T07:50:51Z</time>
      </trkpt>
      <trkpt lat="50.286099035292864" lon="8.670976990833879">
        <ele>218.84</ele>
        <time>2017-05-21T07:50:52Z</time>
      </trkpt>
      <trkpt lat="50.286212023347616" lon="8.671052008867264">
        <ele>218.84</ele>
        <time>2017-05-21T07:50:53Z</time>
      </trkpt>
      <trkpt lat="50.286319982260466" lon="8.671116968616843">
        <ele>218.36000000000001</ele>
        <time>2017-05-21T07:50:54Z</time>
      </trkpt>
      <trkpt lat="50.287331007421017" lon="8.671564981341362">
        <ele>216.43000000000001</ele>
        <time>2017-05-21T07:51:04Z</time>
      </trkpt>
      <trkpt lat="50.287437960505486" lon="8.671546960249543">
        <ele>216.91</ele>
        <time>2017-05-21T07:51:05Z</time>
      </trkpt>
      <trkpt lat="50.287522030994296" lon="8.671520976349711">
        <ele>216.43000000000001</ele>
        <time>2017-05-21T07:51:06Z</time>
      </trkpt>
      <trkpt lat="50.287669971585274" lon="8.671501027420163">
        <ele>215.94999999999999</ele>
        <time>2017-05-21T07:51:08Z</time>
      </trkpt>
      <trkpt lat="50.287734009325504" lon="8.671524999663234">
        <ele>215.94999999999999</ele>
        <time>2017-05-21T07:51:09Z</time>
      </trkpt>
      <trkpt lat="50.287797041237354" lon="8.671598006039858">
        <ele>215.94999999999999</ele>
        <time>2017-05-21T07:51:10Z</time>
      </trkpt>
      <trkpt lat="50.287868035957217" lon="8.671718034893274">
        <ele>214.99000000000001</ele>
        <time>2017-05-21T07:51:11Z</time>
      </trkpt>
      <trkpt lat="50.28794196434319" lon="8.671864969655871">
        <ele>214.99000000000001</ele>
        <time>2017-05-21T07:51:12Z</time>
      </trkpt>
      <trkpt lat="50.288016982376575" lon="8.672026991844177">
        <ele>215.47</ele>
        <time>2017-05-21T07:51:13Z</time>
      </trkpt>
      <trkpt lat="50.2887980081141" lon="8.673675963655114">
        <ele>219.31999999999999</ele>
        <time>2017-05-21T07:51:21Z</time>
      </trkpt>
      <trkpt lat="50.289921015501022" lon="8.676268989220262">
        <ele>223.63999999999999</ele>
        <time>2017-05-21T07:51:32Z</time>
      </trkpt>
      <trkpt lat="50.290416972711682" lon="8.678387012332678">
        <ele>222.68000000000001</ele>
        <time>2017-05-21T07:51:40Z</time>
      </trkpt>
      <trkpt lat="50.290844030678272" lon="8.680989006534219">
        <ele>216.91</ele>
        <time>2017-05-21T07:51:49Z</time>
      </trkpt>
      <trkpt lat="50.291351974010468" lon="8.682161970064044">
        <ele>214.03</ele>
        <time>2017-05-21T07:51:55Z</time>
      </trkpt>
      <trkpt lat="50.292053036391735" lon="8.682996975257993">
        <ele>211.63</ele>
        <time>2017-05-21T07:52:02Z</time>
      </trkpt>
      <trkpt lat="50.293035982176661" lon="8.6836579721421">
        <ele>207.78</ele>
        <time>2017-05-21T07:52:09Z</time>
      </trkpt>
      <trkpt lat="50.293746013194323" lon="8.68410799652338">
        <ele>205.38</ele>
        <time>2017-05-21T07:52:17Z</time>
      </trkpt>
      <trkpt lat="50.293799992650747" lon="8.684144960716367">
        <ele>205.38</ele>
        <time>2017-05-21T07:52:24Z</time>
      </trkpt>
    </trkseg>
  </trk>

  <trk>
    <name>Track vom: 21 MAI 2017 09:53</name>
    <extensions>
      <gpxx:TrackExtension>
        <gpxx:DisplayColor>DarkGray</gpxx:DisplayColor>
      </gpxx:TrackExtension>
    </extensions>
    <trkseg>
      <trkpt lat="50.293797980993986" lon="8.684143032878637">
        <ele>204.90000000000001</ele>
        <time>2017-05-21T07:53:12Z</time>
      </trkpt>
      <trkpt lat="50.293791024014354" lon="8.684141021221876">
        <ele>204.90000000000001</ele>
        <time>2017-05-21T07:55:04Z</time>
      </trkpt>
      <trkpt lat="50.293993027880788" lon="8.684230037033558">
        <ele>204.90000000000001</ele>
        <time>2017-05-21T07:55:40Z</time>
      </trkpt>
      <trkpt lat="50.294710015878081" lon="8.684621974825859">
        <ele>204.90000000000001</ele>
        <time>2017-05-21T07:55:51Z</time>
      </trkpt>
      <trkpt lat="50.294912019744515" lon="8.684762958437204">
        <ele>204.90000000000001</ele>
        <time>2017-05-21T07:56:01Z</time>
      </trkpt>
      <trkpt lat="50.295160040259361" lon="8.684931015595794">
        <ele>204.90000000000001</ele>
        <time>2017-05-21T07:56:14Z</time>
      </trkpt>
      <trkpt lat="50.296299979090691" lon="8.68569896556437">
        <ele>202.49000000000001</ele>
        <time>2017-05-21T07:56:23Z</time>
      </trkpt>
      <trkpt lat="50.297317961230874" lon="8.686866983771324">
        <ele>199.61000000000001</ele>
        <time>2017-05-21T07:56:32Z</time>
      </trkpt>
      <trkpt lat="50.298085995018482" lon="8.688191995024681">
        <ele>196.72999999999999</ele>
        <time>2017-05-21T07:56:39Z</time>
      </trkpt>
      <trkpt lat="50.299861030653119" lon="8.691376028582454">
        <ele>190.47999999999999</ele>
        <time>2017-05-21T07:56:55Z</time>
      </trkpt>
      <trkpt lat="50.300523033365607" lon="8.692568019032478">
        <ele>188.08000000000001</ele>
        <time>2017-05-21T07:57:03Z</time>
      </trkpt>
      <trkpt lat="50.301812002435327" lon="8.694871030747891">
        <ele>184.22999999999999</ele>
        <time>2017-05-21T07:57:16Z</time>
      </trkpt>
      <trkpt lat="50.303145982325077" lon="8.696424029767513">
        <ele>181.83000000000001</ele>
        <time>2017-05-21T07:57:25Z</time>
      </trkpt>
      <trkpt lat="50.304174022749066" lon="8.696991987526417">
        <ele>182.78999999999999</ele>
        <time>2017-05-21T07:57:32Z</time>
      </trkpt>
      <trkpt lat="50.306989001110196" lon="8.698079036548734">
        <ele>187.59</ele>
        <time>2017-05-21T07:57:51Z</time>
      </trkpt>
      <trkpt lat="50.308488020673394" lon="8.699099030345678">
        <ele>189.52000000000001</ele>
        <time>2017-05-21T07:58:01Z</time>
      </trkpt>
      <trkpt lat="50.310639990493655" lon="8.701328029856086">
        <ele>193.84</ele>
        <time>2017-05-21T07:58:15Z</time>
      </trkpt>
      <trkpt lat="50.313075017184019" lon="8.704030020162463">
        <ele>198.16999999999999</ele>
        <time>2017-05-21T07:58:30Z</time>
      </trkpt>
      <trkpt lat="50.314845023676753" lon="8.706958992406726">
        <ele>195.28</ele>
        <time>2017-05-21T07:58:42Z</time>
      </trkpt>
      <trkpt lat="50.318720983341336" lon="8.713400987908244">
        <ele>184.71000000000001</ele>
        <time>2017-05-21T07:59:08Z</time>
      </trkpt>
      <trkpt lat="50.319956978783011" lon="8.715696958824992">
        <ele>183.75</ele>
        <time>2017-05-21T07:59:18Z</time>
      </trkpt>
      <trkpt lat="50.320442039519548" lon="8.717586994171143">
        <ele>183.27000000000001</ele>
        <time>2017-05-21T07:59:25Z</time>
      </trkpt>
      <trkpt lat="50.320663992315531" lon="8.720777984708548">
        <ele>181.83000000000001</ele>
        <time>2017-05-21T07:59:36Z</time>
      </trkpt>
      <trkpt lat="50.320969009771943" lon="8.724982012063265">
        <ele>180.38</ele>
        <time>2017-05-21T07:59:50Z</time>
      </trkpt>
      <trkpt lat="50.321905016899109" lon="8.729396006092429">
        <ele>176.06</ele>
        <time>2017-05-21T08:00:06Z</time>
      </trkpt>
      <trkpt lat="50.322311958298087" lon="8.731098035350442">
        <ele>175.09999999999999</ele>
        <time>2017-05-21T08:00:14Z</time>
      </trkpt>
      <trkpt lat="50.322825014591217" lon="8.732624966651201">
        <ele>173.66</ele>
        <time>2017-05-21T08:00:22Z</time>
      </trkpt>
      <trkpt lat="50.323744006454945" lon="8.735039038583636">
        <ele>170.77000000000001</ele>
        <time>2017-05-21T08:00:33Z</time>
      </trkpt>
      <trkpt lat="50.324383964762092" lon="8.736737966537476">
        <ele>169.81</ele>
        <time>2017-05-21T08:00:42Z</time>
      </trkpt>
      <trkpt lat="50.32442101277411" lon="8.736905017867684">
        <ele>169.81</ele>
        <time>2017-05-21T08:00:43Z</time>
      </trkpt>
      <trkpt lat="50.324432998895645" lon="8.73706896789372">
        <ele>169.81</ele>
        <time>2017-05-21T08:00:44Z</time>
      </trkpt>
      <trkpt lat="50.324426963925362" lon="8.737211041152477">
        <ele>169.81</ele>
        <time>2017-05-21T08:00:45Z</time>
      </trkpt>
      <trkpt lat="50.324402991682291" lon="8.737329980358481">
        <ele>169.81</ele>
        <time>2017-05-21T08:00:46Z</time>
      </trkpt>
      <trkpt lat="50.324389999732375" lon="8.73743399977684">
        <ele>169.81</ele>
        <time>2017-05-21T08:00:47Z</time>
      </trkpt>
      <trkpt lat="50.324409026652575" lon="8.737527960911393">
        <ele>169.81</ele>
        <time>2017-05-21T08:00:48Z</time>
      </trkpt>
      <trkpt lat="50.324458982795477" lon="8.737588981166482">
        <ele>169.81</ele>
        <time>2017-05-21T08:00:49Z</time>
      </trkpt>
      <trkpt lat="50.324531989172101" lon="8.73762502335012">
        <ele>169.81</ele>
        <time>2017-05-21T08:00:50Z</time>
      </trkpt>
      <trkpt lat="50.32461597584188" lon="8.737662993371487">
        <ele>169.81</ele>
        <time>2017-05-21T08:00:51Z</time>
      </trkpt>
      <trkpt lat="50.324704991653562" lon="8.737745974212885">
        <ele>169.33000000000001</ele>
        <time>2017-05-21T08:00:52Z</time>
      </trkpt>
      <trkpt lat="50.324782021343708" lon="8.737880000844598">
        <ele>169.33000000000001</ele>
        <time>2017-05-21T08:00:53Z</time>
      </trkpt>
      <trkpt lat="50.324847986921668" lon="8.738030958920717">
        <ele>169.33000000000001</ele>
        <time>2017-05-21T08:00:54Z</time>
      </trkpt>
      <trkpt lat="50.32543103210628" lon="8.739571971818805">
        <ele>169.81</ele>
        <time>2017-05-21T08:01:02Z</time>
      </trkpt>
      <trkpt lat="50.326412972062826" lon="8.7422039732337">
        <ele>171.25</ele>
        <time>2017-05-21T08:01:15Z</time>
      </trkpt>
      <trkpt lat="50.327645028010011" lon="8.745542988181114">
        <ele>169.33000000000001</ele>
        <time>2017-05-21T08:01:33Z</time>
      </trkpt>
      <trkpt lat="50.32882796600461" lon="8.748706988990307">
        <ele>165.47999999999999</ele>
        <time>2017-05-21T08:01:54Z</time>
      </trkpt>
      <trkpt lat="50.329186040908098" lon="8.749732011929154">
        <ele>165</ele>
        <time>2017-05-21T08:02:04Z</time>
      </trkpt>
      <trkpt lat="50.329237002879381" lon="8.74985296279192">
        <ele>165</ele>
        <time>2017-05-21T08:02:14Z</time>
      </trkpt>
      <trkpt lat="50.329374969005585" lon="8.750229980796576">
        <ele>165.47999999999999</ele>
        <time>2017-05-21T08:02:27Z</time>
      </trkpt>
      <trkpt lat="50.329435989260674" lon="8.750422010198236">
        <ele>165.47999999999999</ele>
        <time>2017-05-21T08:02:29Z</time>
      </trkpt>
      <trkpt lat="50.329483011737466" lon="8.750510020181537">
        <ele>165.47999999999999</ele>
        <time>2017-05-21T08:02:30Z</time>
      </trkpt>
      <trkpt lat="50.329543026164174" lon="8.750587971881032">
        <ele>165.96000000000001</ele>
        <time>2017-05-21T08:02:31Z</time>
      </trkpt>
      <trkpt lat="50.329607985913754" lon="8.750654021278024">
        <ele>165.96000000000001</ele>
        <time>2017-05-21T08:02:32Z</time>
      </trkpt>
      <trkpt lat="50.329678980633616" lon="8.750701965764165">
        <ele>165.96000000000001</ele>
        <time>2017-05-21T08:02:33Z</time>
      </trkpt>
      <trkpt lat="50.32975098118186" lon="8.750741025432944">
        <ele>165.96000000000001</ele>
        <time>2017-05-21T08:02:34Z</time>
      </trkpt>
      <trkpt lat="50.329973017796874" lon="8.750815959647298">
        <ele>165.96000000000001</ele>
        <time>2017-05-21T08:02:37Z</time>
      </trkpt>
      <trkpt lat="50.330319022759795" lon="8.750938000157476">
        <ele>165.47999999999999</ele>
        <time>2017-05-21T08:02:46Z</time>
      </trkpt>
      <trkpt lat="50.330637032166123" lon="8.751079989597201">
        <ele>169.81</ele>
        <time>2017-05-21T08:02:56Z</time>
      </trkpt>
      <trkpt lat="50.331691978499293" lon="8.751466982066631">
        <ele>168.37</ele>
        <time>2017-05-21T08:03:08Z</time>
      </trkpt>
      <trkpt lat="50.332954963669181" lon="8.752032006159425">
        <ele>165.47999999999999</ele>
        <time>2017-05-21T08:03:22Z</time>
      </trkpt>
      <trkpt lat="50.333650996908545" lon="8.752331994473934">
        <ele>165.96000000000001</ele>
        <time>2017-05-21T08:03:35Z</time>
      </trkpt>
      <trkpt lat="50.334030026569963" lon="8.752496028319001">
        <ele>170.28999999999999</ele>
        <time>2017-05-21T08:03:41Z</time>
      </trkpt>
      <trkpt lat="50.33426002599299" lon="8.752595018595457">
        <ele>169.81</ele>
        <time>2017-05-21T08:03:44Z</time>
      </trkpt>
      <trkpt lat="50.335385967046022" lon="8.753145039081574">
        <ele>173.16999999999999</ele>
        <time>2017-05-21T08:03:57Z</time>
      </trkpt>
      <trkpt lat="50.33617596141994" lon="8.753538988530636">
        <ele>178.46000000000001</ele>
        <time>2017-05-21T08:04:07Z</time>
      </trkpt>
      <trkpt lat="50.337182963266969" lon="8.753903014585376">
        <ele>178.46000000000001</ele>
        <time>2017-05-21T08:04:18Z</time>
      </trkpt>
      <trkpt lat="50.338396998122334" lon="8.754258994013071">
        <ele>174.62</ele>
        <time>2017-05-21T08:04:31Z</time>
      </trkpt>
      <trkpt lat="50.339566022157669" lon="8.754332000389695">
        <ele>174.13999999999999</ele>
        <time>2017-05-21T08:04:44Z</time>
      </trkpt>
      <trkpt lat="50.340115958824754" lon="8.754238961264491">
        <ele>168.84999999999999</ele>
        <time>2017-05-21T08:04:50Z</time>
      </trkpt>
      <trkpt lat="50.340196006000042" lon="8.754180036485195">
        <ele>167.88999999999999</ele>
        <time>2017-05-21T08:04:51Z</time>
      </trkpt>
      <trkpt lat="50.340257026255131" lon="8.754080040380359">
        <ele>166.93000000000001</ele>
        <time>2017-05-21T08:04:52Z</time>
      </trkpt>
      <trkpt lat="50.340286027640104" lon="8.753942996263504">
        <ele>165.47999999999999</ele>
        <time>2017-05-21T08:04:53Z</time>
      </trkpt>
      <trkpt lat="50.340309999883175" lon="8.753792960196734">
        <ele>165.47999999999999</ele>
        <time>2017-05-21T08:04:54Z</time>
      </trkpt>
      <trkpt lat="50.340331038460135" lon="8.753628004342318">
        <ele>164.52000000000001</ele>
        <time>2017-05-21T08:04:55Z</time>
      </trkpt>
      <trkpt lat="50.340348975732923" lon="8.75346296466887">
        <ele>164.03999999999999</ele>
        <time>2017-05-21T08:04:56Z</time>
      </trkpt>
      <trkpt lat="50.340375965461135" lon="8.753293985500932">
        <ele>162.59999999999999</ele>
        <time>2017-05-21T08:04:57Z</time>
      </trkpt>
      <trkpt lat="50.340413013473153" lon="8.753137998282909">
        <ele>162.59999999999999</ele>
        <time>2017-05-21T08:04:58Z</time>
      </trkpt>
      <trkpt lat="50.340457018464804" lon="8.753004977479577">
        <ele>161.63999999999999</ele>
        <time>2017-05-21T08:04:59Z</time>
      </trkpt>
      <trkpt lat="50.340517032891512" lon="8.752894001081586">
        <ele>161.16</ele>
        <time>2017-05-21T08:05:00Z</time>
      </trkpt>
      <trkpt lat="50.340594984591007" lon="8.752810014411807">
        <ele>160.68000000000001</ele>
        <time>2017-05-21T08:05:01Z</time>
      </trkpt>
      <trkpt lat="50.340689029544592" lon="8.752730973064899">
        <ele>160.19999999999999</ele>
        <time>2017-05-21T08:05:02Z</time>
      </trkpt>
      <trkpt lat="50.340807968750596" lon="8.752664001658559">
        <ele>161.63999999999999</ele>
        <time>2017-05-21T08:05:03Z</time>
      </trkpt>
      <trkpt lat="50.342185031622648" lon="8.751694969832897">
        <ele>157.78999999999999</ele>
        <time>2017-05-21T08:05:16Z</time>
      </trkpt>
      <trkpt lat="50.342478984966874" lon="8.751515010371804">
        <ele>157.78999999999999</ele>
        <time>2017-05-21T08:05:19Z</time>
      </trkpt>
      <trkpt lat="50.342579986900091" lon="8.751477962359786">
        <ele>157.31</ele>
        <time>2017-05-21T08:05:20Z</time>
      </trkpt>
      <trkpt lat="50.342679983004928" lon="8.75146103091538">
        <ele>157.31</ele>
        <time>2017-05-21T08:05:21Z</time>
      </trkpt>
      <trkpt lat="50.342777967453003" lon="8.751477040350437">
        <ele>155.87</ele>
        <time>2017-05-21T08:05:22Z</time>
      </trkpt>
      <trkpt lat="50.342875029891729" lon="8.751510987058282">
        <ele>154.91</ele>
        <time>2017-05-21T08:05:23Z</time>
      </trkpt>
      <trkpt lat="50.342976031824946" lon="8.751558009535074">
        <ele>154.43000000000001</ele>
        <time>2017-05-21T08:05:24Z</time>
      </trkpt>
      <trkpt lat="50.34307099878788" lon="8.751631015911698">
        <ele>153.94999999999999</ele>
        <time>2017-05-21T08:05:25Z</time>
      </trkpt>
      <trkpt lat="50.343162026256323" lon="8.751725982874632">
        <ele>153.47</ele>
        <time>2017-05-21T08:05:26Z</time>
      </trkpt>
      <trkpt lat="50.343240983784199" lon="8.751845005899668">
        <ele>152.99000000000001</ele>
        <time>2017-05-21T08:05:27Z</time>
      </trkpt>
      <trkpt lat="50.343311978504062" lon="8.751975009217858">
        <ele>152.50999999999999</ele>
        <time>2017-05-21T08:05:28Z</time>
      </trkpt>
      <trkpt lat="50.343372998759151" lon="8.752127978950739">
        <ele>152.03</ele>
        <time>2017-05-21T08:05:29Z</time>
      </trkpt>
      <trkpt lat="50.343411974608898" lon="8.752287989482284">
        <ele>152.03</ele>
        <time>2017-05-21T08:05:30Z</time>
      </trkpt>
      <trkpt lat="50.343437036499381" lon="8.752455962821841">
        <ele>151.06</ele>
        <time>2017-05-21T08:05:31Z</time>
      </trkpt>
      <trkpt lat="50.343441981822252" lon="8.752661990001798">
        <ele>150.09999999999999</ele>
        <time>2017-05-21T08:05:32Z</time>
      </trkpt>
      <trkpt lat="50.343446005135775" lon="8.752856031060219">
        <ele>149.62</ele>
        <time>2017-05-21T08:05:33Z</time>
      </trkpt>
      <trkpt lat="50.343434019014239" lon="8.753058034926653">
        <ele>148.66</ele>
        <time>2017-05-21T08:05:34Z</time>
      </trkpt>
      <trkpt lat="50.343407029286027" lon="8.753258027136326">
        <ele>148.66</ele>
        <time>2017-05-21T08:05:35Z</time>
      </trkpt>
      <trkpt lat="50.343370987102389" lon="8.753468999639154">
        <ele>148.18000000000001</ele>
        <time>2017-05-21T08:05:36Z</time>
      </trkpt>
      <trkpt lat="50.342918029054999" lon="8.755044965073466">
        <ele>143.37</ele>
        <time>2017-05-21T08:05:45Z</time>
      </trkpt>
      <trkpt lat="50.342891961336136" lon="8.755211010575295">
        <ele>142.41</ele>
        <time>2017-05-21T08:05:46Z</time>
      </trkpt>
      <trkpt lat="50.342896990478039" lon="8.755386024713516">
        <ele>141.93000000000001</ele>
        <time>2017-05-21T08:05:47Z</time>
      </trkpt>
      <trkpt lat="50.34291903488338" lon="8.755557015538216">
        <ele>141.93000000000001</ele>
        <time>2017-05-21T08:05:48Z</time>
      </trkpt>
      <trkpt lat="50.342952981591225" lon="8.755724988877773">
        <ele>141.93000000000001</ele>
        <time>2017-05-21T08:05:49Z</time>
      </trkpt>
      <trkpt lat="50.343003021553159" lon="8.755881981924176">
        <ele>142.41</ele>
        <time>2017-05-21T08:05:50Z</time>
      </trkpt>
      <trkpt lat="50.343057001009583" lon="8.756034029647708">
        <ele>142.41</ele>
        <time>2017-05-21T08:05:51Z</time>
      </trkpt>
      <trkpt lat="50.343231009319425" lon="8.756420016288757">
        <ele>142.88999999999999</ele>
        <time>2017-05-21T08:05:54Z</time>
      </trkpt>
      <trkpt lat="50.343304015696049" lon="8.756528981029987">
        <ele>143.37</ele>
        <time>2017-05-21T08:05:55Z</time>
      </trkpt>
      <trkpt lat="50.343380039557815" lon="8.756622020155191">
        <ele>143.37</ele>
        <time>2017-05-21T08:05:56Z</time>
      </trkpt>
      <trkpt lat="50.343461008742452" lon="8.756716987118125">
        <ele>146.25999999999999</ele>
        <time>2017-05-21T08:05:57Z</time>
      </trkpt>
      <trkpt lat="50.343554969877005" lon="8.756786976009607">
        <ele>146.25999999999999</ele>
        <time>2017-05-21T08:05:58Z</time>
      </trkpt>
      <trkpt lat="50.34365002065897" lon="8.756830981001258">
        <ele>145.78</ele>
        <time>2017-05-21T08:05:59Z</time>
      </trkpt>
      <trkpt lat="50.343746999278665" lon="8.756861994042993">
        <ele>146.25999999999999</ele>
        <time>2017-05-21T08:06:00Z</time>
      </trkpt>
      <trkpt lat="50.343856969848275" lon="8.756870962679386">
        <ele>144.34</ele>
        <time>2017-05-21T08:06:01Z</time>
      </trkpt>
      <trkpt lat="50.343963000923395" lon="8.756868029013276">
        <ele>143.84999999999999</ele>
        <time>2017-05-21T08:06:02Z</time>
      </trkpt>
      <trkpt lat="50.344070959836245" lon="8.756840033456683">
        <ele>143.37</ele>
        <time>2017-05-21T08:06:03Z</time>
      </trkpt>
      <trkpt lat="50.344180008396506" lon="8.756807008758187">
        <ele>142.41</ele>
        <time>2017-05-21T08:06:04Z</time>
      </trkpt>
      <trkpt lat="50.344406990334392" lon="8.756761997938156">
        <ele>142.41</ele>
        <time>2017-05-21T08:06:06Z</time>
      </trkpt>
      <trkpt lat="50.344518972560763" lon="8.756763003766537">
        <ele>142.88999999999999</ele>
        <time>2017-05-21T08:06:07Z</time>
      </trkpt>
      <trkpt lat="50.344629026949406" lon="8.756786976009607">
        <ele>142.88999999999999</ele>
        <time>2017-05-21T08:06:08Z</time>
      </trkpt>
      <trkpt lat="50.344732040539384" lon="8.756826035678387">
        <ele>143.84999999999999</ele>
        <time>2017-05-21T08:06:09Z</time>
      </trkpt>
      <trkpt lat="50.344828013330698" lon="8.756893007084727">
        <ele>144.81999999999999</ele>
        <time>2017-05-21T08:06:10Z</time>
      </trkpt>
      <trkpt lat="50.344921974465251" lon="8.756965007632971">
        <ele>145.78</ele>
        <time>2017-05-21T08:06:11Z</time>
      </trkpt>
      <trkpt lat="50.346414037048817" lon="8.758199997246265">
        <ele>154.91</ele>
        <time>2017-05-21T08:06:26Z</time>
      </trkpt>
      <trkpt lat="50.347064975649118" lon="8.758677011355758">
        <ele>156.83000000000001</ele>
        <time>2017-05-21T08:06:34Z</time>
      </trkpt>
      <trkpt lat="50.347111998125911" lon="8.758705006912351">
        <ele>157.31</ele>
        <time>2017-05-21T08:06:42Z</time>
      </trkpt>
      <trkpt lat="50.347172012552619" lon="8.75874700024724">
        <ele>156.83000000000001</ele>
        <time>2017-05-21T08:06:44Z</time>
      </trkpt>
      <trkpt lat="50.347214005887508" lon="8.758797040209174">
        <ele>156.83000000000001</ele>
        <time>2017-05-21T08:06:45Z</time>
      </trkpt>
      <trkpt lat="50.34723998978734" lon="8.758881026878953">
        <ele>155.87</ele>
        <time>2017-05-21T08:06:46Z</time>
      </trkpt>
      <trkpt lat="50.347226997837424" lon="8.758972976356745">
        <ele>155.38999999999999</ele>
        <time>2017-05-21T08:06:47Z</time>
      </trkpt>
      <trkpt lat="50.347207970917225" lon="8.759098034352064">
        <ele>153.94999999999999</ele>
        <time>2017-05-21T08:06:48Z</time>
      </trkpt>
      <trkpt lat="50.347180981189013" lon="8.759238012135029">
        <ele>153.47</ele>
        <time>2017-05-21T08:06:49Z</time>
      </trkpt>
      <trkpt lat="50.347027005627751" lon="8.760737031698227">
        <ele>151.53999999999999</ele>
        <time>2017-05-21T08:06:57Z</time>
      </trkpt>
      <trkpt lat="50.347201013937593" lon="8.762403018772602">
        <ele>153.47</ele>
        <time>2017-05-21T08:07:05Z</time>
      </trkpt>
      <trkpt lat="50.347508965060115" lon="8.763265013694763">
        <ele>154.91</ele>
        <time>2017-05-21T08:07:11Z</time>
      </trkpt>
      <trkpt lat="50.347660006955266" lon="8.763641025871038">
        <ele>155.38999999999999</ele>
        <time>2017-05-21T08:07:15Z</time>
      </trkpt>
      <trkpt lat="50.347703006118536" lon="8.763660974800587">
        <ele>155.38999999999999</ele>
        <time>2017-05-21T08:07:16Z</time>
      </trkpt>
      <trkpt lat="50.347739970311522" lon="8.763633985072374">
        <ele>155.38999999999999</ele>
        <time>2017-05-21T08:07:17Z</time>
      </trkpt>
      <trkpt lat="50.347771989181638" lon="8.763558967038989">
        <ele>154.91</ele>
        <time>2017-05-21T08:07:18Z</time>
      </trkpt>
      <trkpt lat="50.347794033586979" lon="8.763453019782901">
        <ele>153.94999999999999</ele>
        <time>2017-05-21T08:07:19Z</time>
      </trkpt>
      <trkpt lat="50.347822029143572" lon="8.763329973444343">
        <ele>153.47</ele>
        <time>2017-05-21T08:07:20Z</time>
      </trkpt>
      <trkpt lat="50.347885983064771" lon="8.762886989861727">
        <ele>152.50999999999999</ele>
        <time>2017-05-21T08:07:23Z</time>
      </trkpt>
      <trkpt lat="50.347892018035054" lon="8.762713987380266">
        <ele>152.03</ele>
        <time>2017-05-21T08:07:24Z</time>
      </trkpt>
      <trkpt lat="50.347876008599997" lon="8.760934006422758">
        <ele>151.53999999999999</ele>
        <time>2017-05-21T08:07:34Z</time>
      </trkpt>
      <trkpt lat="50.347897969186306" lon="8.760810038074851">
        <ele>151.53999999999999</ele>
        <time>2017-05-21T08:07:35Z</time>
      </trkpt>
      <trkpt lat="50.347949014976621" lon="8.760733008384705">
        <ele>151.53999999999999</ele>
        <time>2017-05-21T08:07:36Z</time>
      </trkpt>
      <trkpt lat="50.348021015524864" lon="8.760693026706576">
        <ele>151.53999999999999</ele>
        <time>2017-05-21T08:07:37Z</time>
      </trkpt>
      <trkpt lat="50.348115982487798" lon="8.760691015049815">
        <ele>151.53999999999999</ele>
        <time>2017-05-21T08:07:38Z</time>
      </trkpt>
      <trkpt lat="50.348213966935873" lon="8.760710963979363">
        <ele>152.03</ele>
        <time>2017-05-21T08:07:39Z</time>
      </trkpt>
      <trkpt lat="50.348322009667754" lon="8.760766033083201">
        <ele>152.03</ele>
        <time>2017-05-21T08:07:40Z</time>
      </trkpt>
      <trkpt lat="50.348431980237365" lon="8.760840967297554">
        <ele>152.50999999999999</ele>
        <time>2017-05-21T08:07:41Z</time>
      </trkpt>
      <trkpt lat="50.349390031769872" lon="8.761660968884826">
        <ele>154.43000000000001</ele>
        <time>2017-05-21T08:07:48Z</time>
      </trkpt>
      <trkpt lat="50.351094994693995" lon="8.763148002326489">
        <ele>146.74000000000001</ele>
        <time>2017-05-21T08:07:58Z</time>
      </trkpt>
      <trkpt lat="50.352151030674577" lon="8.764207977801561">
        <ele>139.05000000000001</ele>
        <time>2017-05-21T08:08:05Z</time>
      </trkpt>
      <trkpt lat="50.352603988721967" lon="8.764660013839603">
        <ele>138.56999999999999</ele>
        <time>2017-05-21T08:08:10Z</time>
      </trkpt>
      <trkpt lat="50.353346038609743" lon="8.765159994363785">
        <ele>137.13</ele>
        <time>2017-05-21T08:08:18Z</time>
      </trkpt>
      <trkpt lat="50.353738982230425" lon="8.765547992661595">
        <ele>137.13</ele>
        <time>2017-05-21T08:08:23Z</time>
      </trkpt>
      <trkpt lat="50.35377100110054" lon="8.765650000423193">
        <ele>137.61000000000001</ele>
        <time>2017-05-21T08:08:24Z</time>
      </trkpt>
      <trkpt lat="50.353775024414063" lon="8.765770029276609">
        <ele>138.09</ele>
        <time>2017-05-21T08:08:25Z</time>
      </trkpt>
      <trkpt lat="50.353763960301876" lon="8.765892991796136">
        <ele>137.61000000000001</ele>
        <time>2017-05-21T08:08:26Z</time>
      </trkpt>
      <trkpt lat="50.35374702885747" lon="8.766022995114327">
        <ele>137.13</ele>
        <time>2017-05-21T08:08:27Z</time>
      </trkpt>
      <trkpt lat="50.353377973660827" lon="8.767960974946618">
        <ele>138.09</ele>
        <time>2017-05-21T08:08:39Z</time>
      </trkpt>
      <trkpt lat="50.35319197922945" lon="8.769025979563594">
        <ele>140.49000000000001</ele>
        <time>2017-05-21T08:08:46Z</time>
      </trkpt>
      <trkpt lat="50.353187033906579" lon="8.769177021458745">
        <ele>140.97</ele>
        <time>2017-05-21T08:08:47Z</time>
      </trkpt>
      <trkpt lat="50.353378979489207" lon="8.77092900685966">
        <ele>149.13999999999999</ele>
        <time>2017-05-21T08:08:58Z</time>
      </trkpt>
      <trkpt lat="50.353893041610718" lon="8.773087011650205">
        <ele>146.74000000000001</ele>
        <time>2017-05-21T08:09:12Z</time>
      </trkpt>
      <trkpt lat="50.354033019393682" lon="8.774980986490846">
        <ele>142.41</ele>
        <time>2017-05-21T08:09:20Z</time>
      </trkpt>
      <trkpt lat="50.354234017431736" lon="8.776259981095791">
        <ele>140.00999999999999</ele>
        <time>2017-05-21T08:09:25Z</time>
      </trkpt>
      <trkpt lat="50.354310963302851" lon="8.776501966640353">
        <ele>140.00999999999999</ele>
        <time>2017-05-21T08:09:26Z</time>
      </trkpt>
      <trkpt lat="50.354916974902153" lon="8.778690984472632">
        <ele>139.05000000000001</ele>
        <time>2017-05-21T08:09:35Z</time>
      </trkpt>
      <trkpt lat="50.354819996282458" lon="8.78059702925384">
        <ele>137.61000000000001</ele>
        <time>2017-05-21T08:09:42Z</time>
      </trkpt>
      <trkpt lat="50.354333007708192" lon="8.781999992206693">
        <ele>135.68000000000001</ele>
        <time>2017-05-21T08:09:48Z</time>
      </trkpt>
      <trkpt lat="50.353639991953969" lon="8.783280998468399">
        <ele>134.24000000000001</ele>
        <time>2017-05-21T08:09:56Z</time>
      </trkpt>
      <trkpt lat="50.353401023894548" lon="8.784619001671672">
        <ele>133.28</ele>
        <time>2017-05-21T08:10:03Z</time>
      </trkpt>
      <trkpt lat="50.35346900112927" lon="8.78545300103724">
        <ele>133.75999999999999</ele>
        <time>2017-05-21T08:10:08Z</time>
      </trkpt>
      <trkpt lat="50.353518035262823" lon="8.785530030727387">
        <ele>133.75999999999999</ele>
        <time>2017-05-21T08:10:09Z</time>
      </trkpt>
      <trkpt lat="50.353590035811067" lon="8.785563977435231">
        <ele>133.75999999999999</ele>
        <time>2017-05-21T08:10:10Z</time>
      </trkpt>
      <trkpt lat="50.353679973632097" lon="8.785541011020541">
        <ele>134.24000000000001</ele>
        <time>2017-05-21T08:10:11Z</time>
      </trkpt>
      <trkpt lat="50.353775024414063" lon="8.785499017685652">
        <ele>134.24000000000001</ele>
        <time>2017-05-21T08:10:12Z</time>
      </trkpt>
      <trkpt lat="50.353992031887174" lon="8.785382006317377">
        <ele>134.72</ele>
        <time>2017-05-21T08:10:14Z</time>
      </trkpt>
      <trkpt lat="50.354100996628404" lon="8.785282010212541">
        <ele>134.72</ele>
        <time>2017-05-21T08:10:15Z</time>
      </trkpt>
      <trkpt lat="50.354184983298182" lon="8.785142032429576">
        <ele>136.16</ele>
        <time>2017-05-21T08:10:16Z</time>
      </trkpt>
      <trkpt lat="50.354232005774975" lon="8.78495997749269">
        <ele>136.63999999999999</ele>
        <time>2017-05-21T08:10:17Z</time>
      </trkpt>
      <trkpt lat="50.354249021038413" lon="8.784759985283017">
        <ele>137.61000000000001</ele>
        <time>2017-05-21T08:10:18Z</time>
      </trkpt>
      <trkpt lat="50.354241980239749" lon="8.784562004730105">
        <ele>138.09</ele>
        <time>2017-05-21T08:10:19Z</time>
      </trkpt>
      <trkpt lat="50.354232005774975" lon="8.78437701612711">
        <ele>139.05000000000001</ele>
        <time>2017-05-21T08:10:20Z</time>
      </trkpt>
      <trkpt lat="50.35424298606813" lon="8.784065963700414">
        <ele>140.97</ele>
        <time>2017-05-21T08:10:22Z</time>
      </trkpt>
      <trkpt lat="50.35426301881671" lon="8.783939983695746">
        <ele>140.49000000000001</ele>
        <time>2017-05-21T08:10:23Z</time>
      </trkpt>
      <trkpt lat="50.354299983009696" lon="8.783833030611277">
        <ele>140.97</ele>
        <time>2017-05-21T08:10:24Z</time>
      </trkpt>
      <trkpt lat="50.354338958859444" lon="8.78375600092113">
        <ele>140.97</ele>
        <time>2017-05-21T08:10:25Z</time>
      </trkpt>
      <trkpt lat="50.354373995214701" lon="8.783706966787577">
        <ele>140.97</ele>
        <time>2017-05-21T08:10:26Z</time>
      </trkpt>
      <trkpt lat="50.354402996599674" lon="8.783673020079732">
        <ele>141.44999999999999</ele>
        <time>2017-05-21T08:10:27Z</time>
      </trkpt>
      <trkpt lat="50.354419006034732" lon="8.783657010644674">
        <ele>141.44999999999999</ele>
        <time>2017-05-21T08:10:28Z</time>
      </trkpt>
      <trkpt lat="50.354465022683144" lon="8.783635972067714">
        <ele>142.88999999999999</ele>
        <time>2017-05-21T08:10:36Z</time>
      </trkpt>
      <trkpt lat="50.354514978826046" lon="8.783674025908113">
        <ele>142.88999999999999</ele>
        <time>2017-05-21T08:10:37Z</time>
      </trkpt>
      <trkpt lat="50.354569964110851" lon="8.78375600092113">
        <ele>142.88999999999999</ele>
        <time>2017-05-21T08:10:38Z</time>
      </trkpt>
      <trkpt lat="50.354622015729547" lon="8.783868988975883">
        <ele>143.37</ele>
        <time>2017-05-21T08:10:39Z</time>
      </trkpt>
      <trkpt lat="50.35467297770083" lon="8.784005027264357">
        <ele>143.37</ele>
        <time>2017-05-21T08:10:40Z</time>
      </trkpt>
      <trkpt lat="50.355227021500468" lon="8.785321991890669">
        <ele>143.37</ele>
        <time>2017-05-21T08:10:47Z</time>
      </trkpt>
      <trkpt lat="50.356222037225962" lon="8.78743096254766">
        <ele>142.88999999999999</ele>
        <time>2017-05-21T08:10:55Z</time>
      </trkpt>
      <trkpt lat="50.357103981077671" lon="8.790231021121144">
        <ele>141.93000000000001</ele>
        <time>2017-05-21T08:11:03Z</time>
      </trkpt>
      <trkpt lat="50.357902022078633" lon="8.792118960991502">
        <ele>144.81999999999999</ele>
        <time>2017-05-21T08:11:09Z</time>
      </trkpt>
      <trkpt lat="50.358686987310648" lon="8.793182959780097">
        <ele>149.13999999999999</ele>
        <time>2017-05-21T08:11:15Z</time>
      </trkpt>
      <trkpt lat="50.359317976981401" lon="8.793725017458201">
        <ele>152.03</ele>
        <time>2017-05-21T08:11:22Z</time>
      </trkpt>
      <trkpt lat="50.359547976404428" lon="8.793886033818126">
        <ele>152.99000000000001</ele>
        <time>2017-05-21T08:11:30Z</time>
      </trkpt>
      <trkpt lat="50.359799014404416" lon="8.794039003551006">
        <ele>153.94999999999999</ele>
        <time>2017-05-21T08:11:45Z</time>
      </trkpt>
      <trkpt lat="50.360662015154958" lon="8.794581983238459">
        <ele>158.27000000000001</ele>
        <time>2017-05-21T08:11:52Z</time>
      </trkpt>
      <trkpt lat="50.36204201169312" lon="8.795453030616045">
        <ele>162.59999999999999</ele>
        <time>2017-05-21T08:12:00Z</time>
      </trkpt>
      <trkpt lat="50.363810006529093" lon="8.796587018296123">
        <ele>161.16</ele>
        <time>2017-05-21T08:12:10Z</time>
      </trkpt>
      <trkpt lat="50.36393104121089" lon="8.79668802022934">
        <ele>160.68000000000001</ele>
        <time>2017-05-21T08:12:11Z</time>
      </trkpt>
      <trkpt lat="50.364028019830585" lon="8.796831015497446">
        <ele>160.68000000000001</ele>
        <time>2017-05-21T08:12:12Z</time>
      </trkpt>
      <trkpt lat="50.364111000671983" lon="8.797010974958539">
        <ele>160.19999999999999</ele>
        <time>2017-05-21T08:12:13Z</time>
      </trkpt>
      <trkpt lat="50.364180989563465" lon="8.797229994088411">
        <ele>160.19999999999999</ele>
        <time>2017-05-21T08:12:14Z</time>
      </trkpt>
      <trkpt lat="50.364252990111709" lon="8.797468040138483">
        <ele>159.72</ele>
        <time>2017-05-21T08:12:15Z</time>
      </trkpt>
      <trkpt lat="50.365149015560746" lon="8.800548976287246">
        <ele>159.72</ele>
        <time>2017-05-21T08:12:26Z</time>
      </trkpt>
      <trkpt lat="50.366678964346647" lon="8.805717006325722">
        <ele>159.24000000000001</ele>
        <time>2017-05-21T08:12:44Z</time>
      </trkpt>
      <trkpt lat="50.367595022544265" lon="8.808845970779657">
        <ele>155.38999999999999</ele>
        <time>2017-05-21T08:12:54Z</time>
      </trkpt>
      <trkpt lat="50.368516026064754" lon="8.812066968530417">
        <ele>151.53999999999999</ele>
        <time>2017-05-21T08:13:03Z</time>
      </trkpt>
      <trkpt lat="50.37068098783493" lon="8.819290995597839">
        <ele>144.81999999999999</ele>
        <time>2017-05-21T08:13:24Z</time>
      </trkpt>
      <trkpt lat="50.37134600803256" lon="8.821499962359667">
        <ele>142.88999999999999</ele>
        <time>2017-05-21T08:13:32Z</time>
      </trkpt>
      <trkpt lat="50.371696036309004" lon="8.822655994445086">
        <ele>143.37</ele>
        <time>2017-05-21T08:13:38Z</time>
      </trkpt>
      <trkpt lat="50.372175984084606" lon="8.824278982356191">
        <ele>142.88999999999999</ele>
        <time>2017-05-21T08:13:46Z</time>
      </trkpt>
      <trkpt lat="50.373039990663528" lon="8.827056996524334">
        <ele>148.66</ele>
        <time>2017-05-21T08:13:56Z</time>
      </trkpt>
      <trkpt lat="50.374043975025415" lon="8.830508999526501">
        <ele>149.62</ele>
        <time>2017-05-21T08:14:06Z</time>
      </trkpt>
      <trkpt lat="50.375249041244388" lon="8.834573971107602">
        <ele>153.47</ele>
        <time>2017-05-21T08:14:18Z</time>
      </trkpt>
      <trkpt lat="50.376035012304783" lon="8.83714503608644">
        <ele>155.38999999999999</ele>
        <time>2017-05-21T08:14:28Z</time>
      </trkpt>
      <trkpt lat="50.376113969832659" lon="8.83744896389544">
        <ele>155.38999999999999</ele>
        <time>2017-05-21T08:14:30Z</time>
      </trkpt>
      <trkpt lat="50.376126961782575" lon="8.837577039375901">
        <ele>154.91</ele>
        <time>2017-05-21T08:14:31Z</time>
      </trkpt>
      <trkpt lat="50.376149006187916" lon="8.837820030748844">
        <ele>154.91</ele>
        <time>2017-05-21T08:14:33Z</time>
      </trkpt>
      <trkpt lat="50.376193011179566" lon="8.8379190210253">
        <ele>154.91</ele>
        <time>2017-05-21T08:14:34Z</time>
      </trkpt>
      <trkpt lat="50.376332988962531" lon="8.838153965771198">
        <ele>154.91</ele>
        <time>2017-05-21T08:14:36Z</time>
      </trkpt>
      <trkpt lat="50.376400966197252" lon="8.838338032364845">
        <ele>154.91</ele>
        <time>2017-05-21T08:14:37Z</time>
      </trkpt>
      <trkpt lat="50.376891978085041" lon="8.839936964213848">
        <ele>154.43000000000001</ele>
        <time>2017-05-21T08:14:43Z</time>
      </trkpt>
      <trkpt lat="50.377851035445929" lon="8.843229040503502">
        <ele>152.99000000000001</ele>
        <time>2017-05-21T08:14:52Z</time>
      </trkpt>
      <trkpt lat="50.379635961726308" lon="8.849618984386325">
        <ele>149.62</ele>
        <time>2017-05-21T08:15:08Z</time>
      </trkpt>
      <trkpt lat="50.381648959591985" lon="8.85775001719594">
        <ele>144.81999999999999</ele>
        <time>2017-05-21T08:15:28Z</time>
      </trkpt>
      <trkpt lat="50.382692003622651" lon="8.862910000607371">
        <ele>140.49000000000001</ele>
        <time>2017-05-21T08:15:41Z</time>
      </trkpt>
      <trkpt lat="50.384118016809225" lon="8.870191024616361">
        <ele>133.75999999999999</ele>
        <time>2017-05-21T08:16:00Z</time>
      </trkpt>
      <trkpt lat="50.384142994880676" lon="8.872629990801215">
        <ele>131.36000000000001</ele>
        <time>2017-05-21T08:16:06Z</time>
      </trkpt>
      <trkpt lat="50.383637985214591" lon="8.875249000266194">
        <ele>130.88</ele>
        <time>2017-05-21T08:16:13Z</time>
      </trkpt>
      <trkpt lat="50.382899036630988" lon="8.877143980935216">
        <ele>132.80000000000001</ele>
        <time>2017-05-21T08:16:20Z</time>
      </trkpt>
      <trkpt lat="50.382509026676416" lon="8.878621039912105">
        <ele>131.36000000000001</ele>
        <time>2017-05-21T08:16:27Z</time>
      </trkpt>
      <trkpt lat="50.381998987868428" lon="8.881226973608136">
        <ele>131.36000000000001</ele>
        <time>2017-05-21T08:16:43Z</time>
      </trkpt>
      <trkpt lat="50.381907038390636" lon="8.881649002432823">
        <ele>132.31999999999999</ele>
        <time>2017-05-21T08:16:46Z</time>
      </trkpt>
      <trkpt lat="50.381862027570605" lon="8.881970029324293">
        <ele>132.31999999999999</ele>
        <time>2017-05-21T08:16:49Z</time>
      </trkpt>
      <trkpt lat="50.381880970671773" lon="8.882055021822453">
        <ele>132.31999999999999</ele>
        <time>2017-05-21T08:16:50Z</time>
      </trkpt>
      <trkpt lat="50.381921958178282" lon="8.882121993228793">
        <ele>132.31999999999999</ele>
        <time>2017-05-21T08:16:51Z</time>
      </trkpt>
      <trkpt lat="50.381983984261751" lon="8.882161974906921">
        <ele>131.84</ele>
        <time>2017-05-21T08:16:52Z</time>
      </trkpt>
      <trkpt lat="50.38206503726542" lon="8.882187036797404">
        <ele>131.36000000000001</ele>
        <time>2017-05-21T08:16:53Z</time>
      </trkpt>
      <trkpt lat="50.382154975086451" lon="8.882196005433798">
        <ele>131.36000000000001</ele>
        <time>2017-05-21T08:16:54Z</time>
      </trkpt>
      <trkpt lat="50.382241979241371" lon="8.88219902291894">
        <ele>130.88</ele>
        <time>2017-05-21T08:16:55Z</time>
      </trkpt>
      <trkpt lat="50.383110009133816" lon="8.882386023178697">
        <ele>130.40000000000001</ele>
        <time>2017-05-21T08:17:05Z</time>
      </trkpt>
      <trkpt lat="50.383374039083719" lon="8.882524995133281">
        <ele>130.40000000000001</ele>
        <time>2017-05-21T08:17:10Z</time>
      </trkpt>
      <trkpt lat="50.384050961583853" lon="8.882855996489525">
        <ele>131.84</ele>
        <time>2017-05-21T08:17:18Z</time>
      </trkpt>
      <trkpt lat="50.385207999497652" lon="8.883399982005358">
        <ele>133.28</ele>
        <time>2017-05-21T08:17:29Z</time>
      </trkpt>
      <trkpt lat="50.386842973530293" lon="8.884189976379275">
        <ele>133.75999999999999</ele>
        <time>2017-05-21T08:17:45Z</time>
      </trkpt>
      <trkpt lat="50.388257000595331" lon="8.884857008233666">
        <ele>133.28</ele>
        <time>2017-05-21T08:17:59Z</time>
      </trkpt>
      <trkpt lat="50.38924396969378" lon="8.885139981284738">
        <ele>132.80000000000001</ele>
        <time>2017-05-21T08:18:09Z</time>
      </trkpt>
      <trkpt lat="50.390368988737464" lon="8.885727971792221">
        <ele>132.80000000000001</ele>
        <time>2017-05-21T08:18:20Z</time>
      </trkpt>
      <trkpt lat="50.391834983602166" lon="8.886851985007525">
        <ele>129.91999999999999</ele>
        <time>2017-05-21T08:18:35Z</time>
      </trkpt>
      <trkpt lat="50.392323983833194" lon="8.887268984690309">
        <ele>129.91999999999999</ele>
        <time>2017-05-21T08:18:40Z</time>
      </trkpt>
      <trkpt lat="50.392575021833181" lon="8.887532008811832">
        <ele>133.75999999999999</ele>
        <time>2017-05-21T08:18:43Z</time>
      </trkpt>
      <trkpt lat="50.392685998231173" lon="8.887585988268256">
        <ele>134.72</ele>
        <time>2017-05-21T08:18:44Z</time>
      </trkpt>
      <trkpt lat="50.394079992547631" lon="8.888096027076244">
        <ele>139.05000000000001</ele>
        <time>2017-05-21T08:18:57Z</time>
      </trkpt>
      <trkpt lat="50.394373023882508" lon="8.88810901902616">
        <ele>139.53</ele>
        <time>2017-05-21T08:19:00Z</time>
      </trkpt>
      <trkpt lat="50.394475031644106" lon="8.888106001541019">
        <ele>140.00999999999999</ele>
        <time>2017-05-21T08:19:01Z</time>
      </trkpt>
      <trkpt lat="50.395985031500459" lon="8.888331977650523">
        <ele>138.09</ele>
        <time>2017-05-21T08:19:14Z</time>
      </trkpt>
      <trkpt lat="50.397488996386528" lon="8.88853800483048">
        <ele>136.16</ele>
        <time>2017-05-21T08:19:24Z</time>
      </trkpt>
      <trkpt lat="50.399107038974762" lon="8.888679994270206">
        <ele>137.61000000000001</ele>
        <time>2017-05-21T08:19:32Z</time>
      </trkpt>
      <trkpt lat="50.401614988222718" lon="8.88898903504014">
        <ele>139.53</ele>
        <time>2017-05-21T08:19:42Z</time>
      </trkpt>
      <trkpt lat="50.404557036235929" lon="8.889695964753628">
        <ele>135.68000000000001</ele>
        <time>2017-05-21T08:19:53Z</time>
      </trkpt>
      <trkpt lat="50.406863987445831" lon="8.890336006879807">
        <ele>131.84</ele>
        <time>2017-05-21T08:20:02Z</time>
      </trkpt>
      <trkpt lat="50.407135980203748" lon="8.890441032126546">
        <ele>129.91999999999999</ele>
        <time>2017-05-21T08:20:03Z</time>
      </trkpt>
      <trkpt lat="50.409939978271723" lon="8.891162965446711">
        <ele>126.55</ele>
        <time>2017-05-21T08:20:14Z</time>
      </trkpt>
      <trkpt lat="50.413042958825827" lon="8.891980033367872">
        <ele>128.47</ele>
        <time>2017-05-21T08:20:27Z</time>
      </trkpt>
      <trkpt lat="50.415163999423385" lon="8.892531981691718">
        <ele>129.91999999999999</ele>
        <time>2017-05-21T08:20:38Z</time>
      </trkpt>
      <trkpt lat="50.416221963241696" lon="8.892825013026595">
        <ele>129.43000000000001</ele>
        <time>2017-05-21T08:20:46Z</time>
      </trkpt>
      <trkpt lat="50.41640100069344" lon="8.892890978604555">
        <ele>128.94999999999999</ele>
        <time>2017-05-21T08:20:48Z</time>
      </trkpt>
      <trkpt lat="50.416462020948529" lon="8.892925009131432">
        <ele>127.98999999999999</ele>
        <time>2017-05-21T08:20:49Z</time>
      </trkpt>
      <trkpt lat="50.416511977091432" lon="8.89296599663794">
        <ele>127.51000000000001</ele>
        <time>2017-05-21T08:20:50Z</time>
      </trkpt>
      <trkpt lat="50.416543995961547" lon="8.892997009679675">
        <ele>127.51000000000001</ele>
        <time>2017-05-21T08:20:51Z</time>
      </trkpt>
      <trkpt lat="50.416560005396605" lon="8.8930319622159">
        <ele>127.03</ele>
        <time>2017-05-21T08:20:52Z</time>
      </trkpt>
      <trkpt lat="50.416580038145185" lon="8.893082002177835">
        <ele>128.47</ele>
        <time>2017-05-21T08:20:53Z</time>
      </trkpt>
      <trkpt lat="50.416586995124817" lon="8.893164983019233">
        <ele>128.94999999999999</ele>
        <time>2017-05-21T08:20:54Z</time>
      </trkpt>
      <trkpt lat="50.416567968204618" lon="8.893290041014552">
        <ele>129.43000000000001</ele>
        <time>2017-05-21T08:20:55Z</time>
      </trkpt>
      <trkpt lat="50.416520023718476" lon="8.893453991040587">
        <ele>128.94999999999999</ele>
        <time>2017-05-21T08:20:56Z</time>
      </trkpt>
      <trkpt lat="50.416097994893789" lon="8.894843962043524">
        <ele>129.43000000000001</ele>
        <time>2017-05-21T08:21:02Z</time>
      </trkpt>
      <trkpt lat="50.415339013561606" lon="8.897188967093825">
        <ele>131.36000000000001</ele>
        <time>2017-05-21T08:21:09Z</time>
      </trkpt>
      <trkpt lat="50.414174012839794" lon="8.900576010346413">
        <ele>132.80000000000001</ele>
        <time>2017-05-21T08:21:19Z</time>
      </trkpt>
      <trkpt lat="50.413764975965023" lon="8.902564030140638">
        <ele>132.31999999999999</ele>
        <time>2017-05-21T08:21:26Z</time>
      </trkpt>
      <trkpt lat="50.413816021755338" lon="8.904019966721535">
        <ele>133.28</ele>
        <time>2017-05-21T08:21:31Z</time>
      </trkpt>
      <trkpt lat="50.413881987333298" lon="8.904307968914509">
        <ele>134.24000000000001</ele>
        <time>2017-05-21T08:21:32Z</time>
      </trkpt>
      <trkpt lat="50.413966979831457" lon="8.904592031612992">
        <ele>134.72</ele>
        <time>2017-05-21T08:21:33Z</time>
      </trkpt>
      <trkpt lat="50.414070999249816" lon="8.904865030199289">
        <ele>135.19999999999999</ele>
        <time>2017-05-21T08:21:34Z</time>
      </trkpt>
      <trkpt lat="50.414185998961329" lon="8.905129982158542">
        <ele>135.19999999999999</ele>
        <time>2017-05-21T08:21:35Z</time>
      </trkpt>
      <trkpt lat="50.415015975013375" lon="8.907206011936069">
        <ele>137.61000000000001</ele>
        <time>2017-05-21T08:21:43Z</time>
      </trkpt>
      <trkpt lat="50.415387963876128" lon="8.908961014822125">
        <ele>139.05000000000001</ele>
        <time>2017-05-21T08:21:52Z</time>
      </trkpt>
      <trkpt lat="50.415507992729545" lon="8.910989016294479">
        <ele>141.44999999999999</ele>
        <time>2017-05-21T08:21:59Z</time>
      </trkpt>
      <trkpt lat="50.415506986901164" lon="8.914315961301327">
        <ele>144.81999999999999</ele>
        <time>2017-05-21T08:22:08Z</time>
      </trkpt>
      <trkpt lat="50.416016019880772" lon="8.920220006257296">
        <ele>147.69999999999999</ele>
        <time>2017-05-21T08:22:23Z</time>
      </trkpt>
      <trkpt lat="50.41652899235487" lon="8.924191016703844">
        <ele>146.74000000000001</ele>
        <time>2017-05-21T08:22:33Z</time>
      </trkpt>
      <trkpt lat="50.417395010590553" lon="8.930344004184008">
        <ele>146.74000000000001</ele>
        <time>2017-05-21T08:22:49Z</time>
      </trkpt>
      <trkpt lat="50.417463993653655" lon="8.931118994951248">
        <ele>146.74000000000001</ele>
        <time>2017-05-21T08:22:51Z</time>
      </trkpt>
      <trkpt lat="50.417455025017262" lon="8.931507999077439">
        <ele>147.22</ele>
        <time>2017-05-21T08:22:52Z</time>
      </trkpt>
      <trkpt lat="50.417376989498734" lon="8.934189034625888">
        <ele>149.62</ele>
        <time>2017-05-21T08:22:59Z</time>
      </trkpt>
      <trkpt lat="50.417371038347483" lon="8.935665003955364">
        <ele>150.09999999999999</ele>
        <time>2017-05-21T08:23:04Z</time>
      </trkpt>
      <trkpt lat="50.417403979226947" lon="8.935975972563028">
        <ele>150.58000000000001</ele>
        <time>2017-05-21T08:23:05Z</time>
      </trkpt>
      <trkpt lat="50.417457036674023" lon="8.936304040253162">
        <ele>151.06</ele>
        <time>2017-05-21T08:23:06Z</time>
      </trkpt>
      <trkpt lat="50.417529037222266" lon="8.936641998589039">
        <ele>151.53999999999999</ele>
        <time>2017-05-21T08:23:07Z</time>
      </trkpt>
      <trkpt lat="50.417615035548806" lon="8.936997978016734">
        <ele>151.53999999999999</ele>
        <time>2017-05-21T08:23:08Z</time>
      </trkpt>
      <trkpt lat="50.418563028797507" lon="8.940376974642277">
        <ele>150.09999999999999</ele>
        <time>2017-05-21T08:23:18Z</time>
      </trkpt>
      <trkpt lat="50.418752962723374" lon="8.941687988117337">
        <ele>151.53999999999999</ele>
        <time>2017-05-21T08:23:22Z</time>
      </trkpt>
      <trkpt lat="50.418751034885645" lon="8.942001974210143">
        <ele>152.03</ele>
        <time>2017-05-21T08:23:23Z</time>
      </trkpt>
      <trkpt lat="50.418728990480304" lon="8.94231696613133">
        <ele>152.50999999999999</ele>
        <time>2017-05-21T08:23:24Z</time>
      </trkpt>
      <trkpt lat="50.418683979660273" lon="8.942622989416122">
        <ele>152.99000000000001</ele>
        <time>2017-05-21T08:23:25Z</time>
      </trkpt>
      <trkpt lat="50.418622037395835" lon="8.942929012700915">
        <ele>152.99000000000001</ele>
        <time>2017-05-21T08:23:26Z</time>
      </trkpt>
      <trkpt lat="50.41854802519083" lon="8.94324098713696">
        <ele>152.99000000000001</ele>
        <time>2017-05-21T08:23:27Z</time>
      </trkpt>
      <trkpt lat="50.41758201085031" lon="8.946894994005561">
        <ele>155.87</ele>
        <time>2017-05-21T08:23:38Z</time>
      </trkpt>
      <trkpt lat="50.41725997813046" lon="8.949165986850858">
        <ele>155.87</ele>
        <time>2017-05-21T08:23:45Z</time>
      </trkpt>
      <trkpt lat="50.417283028364182" lon="8.949477039277554">
        <ele>155.87</ele>
        <time>2017-05-21T08:23:46Z</time>
      </trkpt>
      <trkpt lat="50.417340025305748" lon="8.949808962643147">
        <ele>156.34999999999999</ele>
        <time>2017-05-21T08:23:47Z</time>
      </trkpt>
      <trkpt lat="50.417762976139784" lon="8.951850961893797">
        <ele>157.78999999999999</ele>
        <time>2017-05-21T08:23:52Z</time>
      </trkpt>
      <trkpt lat="50.417987024411559" lon="8.953642006963491">
        <ele>159.72</ele>
        <time>2017-05-21T08:23:57Z</time>
      </trkpt>
      <trkpt lat="50.417962968349457" lon="8.953959010541439">
        <ele>160.19999999999999</ele>
        <time>2017-05-21T08:23:58Z</time>
      </trkpt>
      <trkpt lat="50.4179020319134" lon="8.954276014119387">
        <ele>160.68000000000001</ele>
        <time>2017-05-21T08:23:59Z</time>
      </trkpt>
      <trkpt lat="50.417813016101718" lon="8.954583965241909">
        <ele>160.68000000000001</ele>
        <time>2017-05-21T08:24:00Z</time>
      </trkpt>
      <trkpt lat="50.417717965319753" lon="8.954876996576786">
        <ele>161.63999999999999</ele>
        <time>2017-05-21T08:24:01Z</time>
      </trkpt>
      <trkpt lat="50.417492995038629" lon="8.955705966800451">
        <ele>163.56</ele>
        <time>2017-05-21T08:24:04Z</time>
      </trkpt>
      <trkpt lat="50.417454019188881" lon="8.956004027277231">
        <ele>164.52000000000001</ele>
        <time>2017-05-21T08:24:05Z</time>
      </trkpt>
      <trkpt lat="50.417433986440301" lon="8.956318013370037">
        <ele>165</ele>
        <time>2017-05-21T08:24:06Z</time>
      </trkpt>
      <trkpt lat="50.417433986440301" lon="8.958110986277461">
        <ele>166.44999999999999</ele>
        <time>2017-05-21T08:24:13Z</time>
      </trkpt>
      <trkpt lat="50.417480003088713" lon="8.958265967667103">
        <ele>166.44999999999999</ele>
        <time>2017-05-21T08:24:14Z</time>
      </trkpt>
      <trkpt lat="50.417555021122098" lon="8.958394965156913">
        <ele>166.93000000000001</ele>
        <time>2017-05-21T08:24:15Z</time>
      </trkpt>
      <trkpt lat="50.417661974206567" lon="8.958500996232033">
        <ele>166.93000000000001</ele>
        <time>2017-05-21T08:24:16Z</time>
      </trkpt>
      <trkpt lat="50.417777979746461" lon="8.958606021478772">
        <ele>166.93000000000001</ele>
        <time>2017-05-21T08:24:17Z</time>
      </trkpt>
      <trkpt lat="50.4178830049932" lon="8.958767959848046">
        <ele>166.44999999999999</ele>
        <time>2017-05-21T08:24:18Z</time>
      </trkpt>
      <trkpt lat="50.417966991662979" lon="8.958991002291441">
        <ele>165.96000000000001</ele>
        <time>2017-05-21T08:24:19Z</time>
      </trkpt>
      <trkpt lat="50.418050978332758" lon="8.959227036684752">
        <ele>166.44999999999999</ele>
        <time>2017-05-21T08:24:20Z</time>
      </trkpt>
      <trkpt lat="50.418353984132409" lon="8.960015019401908">
        <ele>169.33000000000001</ele>
        <time>2017-05-21T08:24:23Z</time>
      </trkpt>
      <trkpt lat="50.418498991057277" lon="8.960266979411244">
        <ele>170.28999999999999</ele>
        <time>2017-05-21T08:24:24Z</time>
      </trkpt>
      <trkpt lat="50.419871024787426" lon="8.96214603446424">
        <ele>172.69</ele>
        <time>2017-05-21T08:24:32Z</time>
      </trkpt>
      <trkpt lat="50.420794039964676" lon="8.963515972718597">
        <ele>172.69</ele>
        <time>2017-05-21T08:24:39Z</time>
      </trkpt>
      <trkpt lat="50.42174999602139" lon="8.965161005035043">
        <ele>174.13999999999999</ele>
        <time>2017-05-21T08:24:48Z</time>
      </trkpt>
      <trkpt lat="50.422745011746883" lon="8.967011980712414">
        <ele>175.58000000000001</ele>
        <time>2017-05-21T08:24:55Z</time>
      </trkpt>
      <trkpt lat="50.424095001071692" lon="8.968887012451887">
        <ele>176.53999999999999</ele>
        <time>2017-05-21T08:25:02Z</time>
      </trkpt>
      <trkpt lat="50.42447897605598" lon="8.969342987984419">
        <ele>176.53999999999999</ele>
        <time>2017-05-21T08:25:04Z</time>
      </trkpt>
      <trkpt lat="50.424677040427923" lon="8.969512972980738">
        <ele>176.53999999999999</ele>
        <time>2017-05-21T08:25:05Z</time>
      </trkpt>
      <trkpt lat="50.426549976691604" lon="8.970666993409395">
        <ele>177.02000000000001</ele>
        <time>2017-05-21T08:25:14Z</time>
      </trkpt>
      <trkpt lat="50.427510039880872" lon="8.971269987523556">
        <ele>177.97999999999999</ele>
        <time>2017-05-21T08:25:19Z</time>
      </trkpt>
      <trkpt lat="50.428792973980308" lon="8.97239500656724">
        <ele>178.94</ele>
        <time>2017-05-21T08:25:29Z</time>
      </trkpt>
      <trkpt lat="50.429644994437695" lon="8.97295500151813">
        <ele>180.38</ele>
        <time>2017-05-21T08:25:38Z</time>
      </trkpt>
      <trkpt lat="50.430316971614957" lon="8.973574005067349">
        <ele>180.87</ele>
        <time>2017-05-21T08:25:47Z</time>
      </trkpt>
      <trkpt lat="50.430688038468361" lon="8.973972983658314">
        <ele>179.41999999999999</ele>
        <time>2017-05-21T08:25:52Z</time>
      </trkpt>
      <trkpt lat="50.43075299821794" lon="8.97409301251173">
        <ele>178.94</ele>
        <time>2017-05-21T08:25:53Z</time>
      </trkpt>
      <trkpt lat="50.430804966017604" lon="8.974236007779837">
        <ele>179.41999999999999</ele>
        <time>2017-05-21T08:25:54Z</time>
      </trkpt>
      <trkpt lat="50.430843019858003" lon="8.974388977512717">
        <ele>178.94</ele>
        <time>2017-05-21T08:25:55Z</time>
      </trkpt>
      <trkpt lat="50.430870009586215" lon="8.974539013579488">
        <ele>178.94</ele>
        <time>2017-05-21T08:25:56Z</time>
      </trkpt>
      <trkpt lat="50.430894987657666" lon="8.974692989140749">
        <ele>178.94</ele>
        <time>2017-05-21T08:25:57Z</time>
      </trkpt>
      <trkpt lat="50.43092398904264" lon="8.974841013550758">
        <ele>178.46000000000001</ele>
        <time>2017-05-21T08:25:58Z</time>
      </trkpt>
      <trkpt lat="50.430974029004574" lon="8.974977973848581">
        <ele>177.97999999999999</ele>
        <time>2017-05-21T08:25:59Z</time>
      </trkpt>
      <trkpt lat="50.43103002011776" lon="8.975104037672281">
        <ele>177.5</ele>
        <time>2017-05-21T08:26:00Z</time>
      </trkpt>
      <trkpt lat="50.431093974038959" lon="8.975225994363427">
        <ele>177.02000000000001</ele>
        <time>2017-05-21T08:26:01Z</time>
      </trkpt>
      <trkpt lat="50.431166980415583" lon="8.975332025438547">
        <ele>176.53999999999999</ele>
        <time>2017-05-21T08:26:02Z</time>
      </trkpt>
      <trkpt lat="50.431442996487021" lon="8.975809039548039">
        <ele>175.09999999999999</ele>
        <time>2017-05-21T08:26:06Z</time>
      </trkpt>
      <trkpt lat="50.431502005085349" lon="8.975961003452539">
        <ele>174.13999999999999</ele>
        <time>2017-05-21T08:26:07Z</time>
      </trkpt>
      <trkpt lat="50.431552967056632" lon="8.976125959306955">
        <ele>174.13999999999999</ele>
        <time>2017-05-21T08:26:08Z</time>
      </trkpt>
      <trkpt lat="50.431596972048283" lon="8.976290998980403">
        <ele>174.13999999999999</ele>
        <time>2017-05-21T08:26:09Z</time>
      </trkpt>
      <trkpt lat="50.431631002575159" lon="8.976451009511948">
        <ele>174.62</ele>
        <time>2017-05-21T08:26:10Z</time>
      </trkpt>
      <trkpt lat="50.431656986474991" lon="8.976615965366364">
        <ele>174.13999999999999</ele>
        <time>2017-05-21T08:26:11Z</time>
      </trkpt>
      <trkpt lat="50.431667966768146" lon="8.976785028353334">
        <ele>174.13999999999999</ele>
        <time>2017-05-21T08:26:12Z</time>
      </trkpt>
      <trkpt lat="50.431661009788513" lon="8.976963981986046">
        <ele>174.13999999999999</ele>
        <time>2017-05-21T08:26:13Z</time>
      </trkpt>
      <trkpt lat="50.431646006181836" lon="8.977138996124268">
        <ele>174.13999999999999</ele>
        <time>2017-05-21T08:26:14Z</time>
      </trkpt>
      <trkpt lat="50.431620022282004" lon="8.977300012484193">
        <ele>174.13999999999999</ele>
        <time>2017-05-21T08:26:15Z</time>
      </trkpt>
      <trkpt lat="50.43159001506865" lon="8.977445019409061">
        <ele>174.13999999999999</ele>
        <time>2017-05-21T08:26:16Z</time>
      </trkpt>
      <trkpt lat="50.431552967056632" lon="8.977574016898871">
        <ele>174.62</ele>
        <time>2017-05-21T08:26:17Z</time>
      </trkpt>
      <trkpt lat="50.431294972077012" lon="8.978613037616015">
        <ele>175.09999999999999</ele>
        <time>2017-05-21T08:26:24Z</time>
      </trkpt>
      <trkpt lat="50.431280974298716" lon="8.978773970156908">
        <ele>174.62</ele>
        <time>2017-05-21T08:26:25Z</time>
      </trkpt>
      <trkpt lat="50.431279968470335" lon="8.978958958759904">
        <ele>174.62</ele>
        <time>2017-05-21T08:26:26Z</time>
      </trkpt>
      <trkpt lat="50.431301007047296" lon="8.979174038395286">
        <ele>175.58000000000001</ele>
        <time>2017-05-21T08:26:27Z</time>
      </trkpt>
      <trkpt lat="50.431341994553804" lon="8.979404959827662">
        <ele>175.58000000000001</ele>
        <time>2017-05-21T08:26:28Z</time>
      </trkpt>
      <trkpt lat="50.431407960131764" lon="8.979649962857366">
        <ele>175.58000000000001</ele>
        <time>2017-05-21T08:26:29Z</time>
      </trkpt>
      <trkpt lat="50.431480966508389" lon="8.979901000857353">
        <ele>175.09999999999999</ele>
        <time>2017-05-21T08:26:30Z</time>
      </trkpt>
      <trkpt lat="50.431982958689332" lon="8.982402998954058">
        <ele>173.66</ele>
        <time>2017-05-21T08:26:40Z</time>
      </trkpt>
      <trkpt lat="50.432382021099329" lon="8.986109979450703">
        <ele>171.25</ele>
        <time>2017-05-21T08:26:56Z</time>
      </trkpt>
      <trkpt lat="50.43268502689898" lon="8.989072982221842">
        <ele>170.28999999999999</ele>
        <time>2017-05-21T08:27:11Z</time>
      </trkpt>
      <trkpt lat="50.432895999401808" lon="8.991317991167307">
        <ele>168.37</ele>
        <time>2017-05-21T08:27:24Z</time>
      </trkpt>
      <trkpt lat="50.43305098079145" lon="8.992411997169256">
        <ele>168.37</ele>
        <time>2017-05-21T08:27:34Z</time>
      </trkpt>
      <trkpt lat="50.433375025168061" lon="8.993759974837303">
        <ele>168.37</ele>
        <time>2017-05-21T08:27:42Z</time>
      </trkpt>
      <trkpt lat="50.434013977646828" lon="8.996278988197446">
        <ele>169.81</ele>
        <time>2017-05-21T08:27:53Z</time>
      </trkpt>
      <trkpt lat="50.434859041124582" lon="8.999710036441684">
        <ele>169.81</ele>
        <time>2017-05-21T08:28:04Z</time>
      </trkpt>
      <trkpt lat="50.435569994151592" lon="9.002765994518995">
        <ele>167.88999999999999</ele>
        <time>2017-05-21T08:28:13Z</time>
      </trkpt>
      <trkpt lat="50.436710016801953" lon="9.006955018267036">
        <ele>163.56</ele>
        <time>2017-05-21T08:28:25Z</time>
      </trkpt>
      <trkpt lat="50.436846977099776" lon="9.007267998531461">
        <ele>163.08000000000001</ele>
        <time>2017-05-21T08:28:26Z</time>
      </trkpt>
      <trkpt lat="50.43803402222693" lon="9.009130038321018">
        <ele>160.19999999999999</ele>
        <time>2017-05-21T08:28:33Z</time>
      </trkpt>
      <trkpt lat="50.440659988671541" lon="9.012092035263777">
        <ele>153.47</ele>
        <time>2017-05-21T08:28:46Z</time>
      </trkpt>
      <trkpt lat="50.441550984978676" lon="9.013834968209267">
        <ele>148.18000000000001</ele>
        <time>2017-05-21T08:28:52Z</time>
      </trkpt>
      <trkpt lat="50.441857008263469" lon="9.015746964141727">
        <ele>145.78</ele>
        <time>2017-05-21T08:28:57Z</time>
      </trkpt>
      <trkpt lat="50.441853990778327" lon="9.016148960217834">
        <ele>145.30000000000001</ele>
        <time>2017-05-21T08:28:58Z</time>
      </trkpt>
      <trkpt lat="50.441830018535256" lon="9.016553973779082">
        <ele>144.81999999999999</ele>
        <time>2017-05-21T08:28:59Z</time>
      </trkpt>
      <trkpt lat="50.441791964694858" lon="9.016945995390415">
        <ele>144.34</ele>
        <time>2017-05-21T08:29:00Z</time>
      </trkpt>
      <trkpt lat="50.441743014380336" lon="9.017318990081549">
        <ele>144.34</ele>
        <time>2017-05-21T08:29:01Z</time>
      </trkpt>
      <trkpt lat="50.44147496111691" lon="9.019010039046407">
        <ele>143.37</ele>
        <time>2017-05-21T08:29:07Z</time>
      </trkpt>
      <trkpt lat="50.441306987777352" lon="9.019910003989935">
        <ele>142.88999999999999</ele>
        <time>2017-05-21T08:29:13Z</time>
      </trkpt>
      <trkpt lat="50.441272035241127" lon="9.019992984831333">
        <ele>141.93000000000001</ele>
        <time>2017-05-21T08:29:14Z</time>
      </trkpt>
      <trkpt lat="50.441239010542631" lon="9.020061967894435">
        <ele>141.93000000000001</ele>
        <time>2017-05-21T08:29:15Z</time>
      </trkpt>
      <trkpt lat="50.441196011379361" lon="9.020175961777568">
        <ele>141.93000000000001</ele>
        <time>2017-05-21T08:29:17Z</time>
      </trkpt>
      <trkpt lat="50.441191988065839" lon="9.020257014781237">
        <ele>141.93000000000001</ele>
        <time>2017-05-21T08:29:18Z</time>
      </trkpt>
      <trkpt lat="50.441213026642799" lon="9.020368997007608">
        <ele>141.44999999999999</ele>
        <time>2017-05-21T08:29:19Z</time>
      </trkpt>
      <trkpt lat="50.44125996530056" lon="9.020502017810941">
        <ele>141.44999999999999</ele>
        <time>2017-05-21T08:29:20Z</time>
      </trkpt>
      <trkpt lat="50.441329032182693" lon="9.020646018907428">
        <ele>141.44999999999999</ele>
        <time>2017-05-21T08:29:21Z</time>
      </trkpt>
      <trkpt lat="50.441406983882189" lon="9.02080200612545">
        <ele>141.44999999999999</ele>
        <time>2017-05-21T08:29:22Z</time>
      </trkpt>
      <trkpt lat="50.441969996318221" lon="9.022324997931719">
        <ele>142.41</ele>
        <time>2017-05-21T08:29:29Z</time>
      </trkpt>
      <trkpt lat="50.442899968475103" lon="9.025462009012699">
        <ele>143.84999999999999</ele>
        <time>2017-05-21T08:29:40Z</time>
      </trkpt>
      <trkpt lat="50.443878974765539" lon="9.028671020641923">
        <ele>145.78</ele>
        <time>2017-05-21T08:29:52Z</time>
      </trkpt>
      <trkpt lat="50.444779023528099" lon="9.030629033222795">
        <ele>148.66</ele>
        <time>2017-05-21T08:30:03Z</time>
      </trkpt>
      <trkpt lat="50.445372965186834" lon="9.031948009505868">
        <ele>149.13999999999999</ele>
        <time>2017-05-21T08:30:13Z</time>
      </trkpt>
      <trkpt lat="50.445439014583826" lon="9.033256005495787">
        <ele>152.03</ele>
        <time>2017-05-21T08:30:21Z</time>
      </trkpt>
      <trkpt lat="50.445440020412207" lon="9.03375799767673">
        <ele>152.03</ele>
        <time>2017-05-21T08:30:24Z</time>
      </trkpt>
      <trkpt lat="50.445458963513374" lon="9.033923037350178">
        <ele>152.03</ele>
        <time>2017-05-21T08:30:25Z</time>
      </trkpt>
      <trkpt lat="50.44581301510334" lon="9.036715971305966">
        <ele>155.38999999999999</ele>
        <time>2017-05-21T08:30:41Z</time>
      </trkpt>
      <trkpt lat="50.44621903449297" lon="9.038768028840423">
        <ele>157.31</ele>
        <time>2017-05-21T08:30:51Z</time>
      </trkpt>
      <trkpt lat="50.446721026673913" lon="9.039635974913836">
        <ele>157.31</ele>
        <time>2017-05-21T08:30:56Z</time>
      </trkpt>
      <trkpt lat="50.446848012506962" lon="9.039774024859071">
        <ele>156.83000000000001</ele>
        <time>2017-05-21T08:30:57Z</time>
      </trkpt>
      <trkpt lat="50.446982961148024" lon="9.039896987378597">
        <ele>156.83000000000001</ele>
        <time>2017-05-21T08:30:58Z</time>
      </trkpt>
      <trkpt lat="50.447124028578401" lon="9.040007963776588">
        <ele>156.34999999999999</ele>
        <time>2017-05-21T08:30:59Z</time>
      </trkpt>
      <trkpt lat="50.447273980826139" lon="9.040107959881425">
        <ele>156.34999999999999</ele>
        <time>2017-05-21T08:31:00Z</time>
      </trkpt>
      <trkpt lat="50.447429968044162" lon="9.040191024541855">
        <ele>156.34999999999999</ele>
        <time>2017-05-21T08:31:01Z</time>
      </trkpt>
      <trkpt lat="50.447588972747326" lon="9.040255984291434">
        <ele>155.87</ele>
        <time>2017-05-21T08:31:02Z</time>
      </trkpt>
      <trkpt lat="50.447759041562676" lon="9.040303006768227">
        <ele>154.91</ele>
        <time>2017-05-21T08:31:03Z</time>
      </trkpt>
      <trkpt lat="50.449387980625033" lon="9.041011026129127">
        <ele>152.99000000000001</ele>
        <time>2017-05-21T08:31:12Z</time>
      </trkpt>
      <trkpt lat="50.450895968824625" lon="9.042517002671957">
        <ele>154.91</ele>
        <time>2017-05-21T08:31:19Z</time>
      </trkpt>
      <trkpt lat="50.45367700047791" lon="9.045418985188007">
        <ele>156.83000000000001</ele>
        <time>2017-05-21T08:31:32Z</time>
      </trkpt>
      <trkpt lat="50.454485015943646" lon="9.046337977051735">
        <ele>158.27000000000001</ele>
        <time>2017-05-21T08:31:38Z</time>
      </trkpt>
      <trkpt lat="50.455195968970656" lon="9.047675980255008">
        <ele>160.19999999999999</ele>
        <time>2017-05-21T08:31:47Z</time>
      </trkpt>
      <trkpt lat="50.455672983080149" lon="9.049683026969433">
        <ele>163.08000000000001</ele>
        <time>2017-05-21T08:31:58Z</time>
      </trkpt>
      <trkpt lat="50.456185033544898" lon="9.052006993442774">
        <ele>166.93000000000001</ele>
        <time>2017-05-21T08:32:11Z</time>
      </trkpt>
      <trkpt lat="50.456908978521824" lon="9.054118981584907">
        <ele>167.88999999999999</ele>
        <time>2017-05-21T08:32:24Z</time>
      </trkpt>
      <trkpt lat="50.457499986514449" lon="9.055162025615573">
        <ele>168.84999999999999</ele>
        <time>2017-05-21T08:32:32Z</time>
      </trkpt>
      <trkpt lat="50.458453008905053" lon="9.055954031646252">
        <ele>169.81</ele>
        <time>2017-05-21T08:32:42Z</time>
      </trkpt>
      <trkpt lat="50.459364037960768" lon="9.056642018258572">
        <ele>172.69</ele>
        <time>2017-05-21T08:32:49Z</time>
      </trkpt>
      <trkpt lat="50.460329968482256" lon="9.058084040880203">
        <ele>177.02000000000001</ele>
        <time>2017-05-21T08:32:55Z</time>
      </trkpt>
      <trkpt lat="50.461065983399749" lon="9.06044103205204">
        <ele>181.83000000000001</ele>
        <time>2017-05-21T08:33:01Z</time>
      </trkpt>
      <trkpt lat="50.461950022727251" lon="9.063704023137689">
        <ele>187.59</ele>
        <time>2017-05-21T08:33:09Z</time>
      </trkpt>
      <trkpt lat="50.462684025987983" lon="9.065517028793693">
        <ele>188.56</ele>
        <time>2017-05-21T08:33:15Z</time>
      </trkpt>
      <trkpt lat="50.463910968974233" lon="9.067161977291107">
        <ele>186.15000000000001</ele>
        <time>2017-05-21T08:33:22Z</time>
      </trkpt>
      <trkpt lat="50.465930001810193" lon="9.068981017917395">
        <ele>181.34999999999999</ele>
        <time>2017-05-21T08:33:32Z</time>
      </trkpt>
      <trkpt lat="50.466870032250881" lon="9.070636024698615">
        <ele>181.34999999999999</ele>
        <time>2017-05-21T08:33:39Z</time>
      </trkpt>
      <trkpt lat="50.467992033809423" lon="9.072389015927911">
        <ele>180.38</ele>
        <time>2017-05-21T08:33:48Z</time>
      </trkpt>
      <trkpt lat="50.469121998175979" lon="9.073523003607988">
        <ele>181.34999999999999</ele>
        <time>2017-05-21T08:33:58Z</time>
      </trkpt>
      <trkpt lat="50.470596039667726" lon="9.075312959030271">
        <ele>182.31</ele>
        <time>2017-05-21T08:34:15Z</time>
      </trkpt>
      <trkpt lat="50.471952985972166" lon="9.077915037050843">
        <ele>188.08000000000001</ele>
        <time>2017-05-21T08:34:34Z</time>
      </trkpt>
      <trkpt lat="50.472967028617859" lon="9.078906029462814">
        <ele>190.47999999999999</ele>
        <time>2017-05-21T08:34:42Z</time>
      </trkpt>
      <trkpt lat="50.47464600764215" lon="9.080000035464764">
        <ele>194.80000000000001</ele>
        <time>2017-05-21T08:34:51Z</time>
      </trkpt>
      <trkpt lat="50.47664500772953" lon="9.081938015297055">
        <ele>197.21000000000001</ele>
        <time>2017-05-21T08:35:01Z</time>
      </trkpt>
      <trkpt lat="50.477882008999586" lon="9.084335993975401">
        <ele>199.61000000000001</ele>
        <time>2017-05-21T08:35:09Z</time>
      </trkpt>
      <trkpt lat="50.479281032457948" lon="9.088173983618617">
        <ele>214.99000000000001</ele>
        <time>2017-05-21T08:35:20Z</time>
      </trkpt>
      <trkpt lat="50.479843961074948" lon="9.091157019138336">
        <ele>227.00999999999999</ele>
        <time>2017-05-21T08:35:28Z</time>
      </trkpt>
      <trkpt lat="50.480274958536029" lon="9.092516982927918">
        <ele>230.37</ele>
        <time>2017-05-21T08:35:32Z</time>
      </trkpt>
      <trkpt lat="50.481332000344992" lon="9.094354966655374">
        <ele>234.69999999999999</ele>
        <time>2017-05-21T08:35:39Z</time>
      </trkpt>
      <trkpt lat="50.482494989410043" lon="9.095395999029279">
        <ele>239.50999999999999</ele>
        <time>2017-05-21T08:35:47Z</time>
      </trkpt>
      <trkpt lat="50.484204981476068" lon="9.096871968358755">
        <ele>243.83000000000001</ele>
        <time>2017-05-21T08:35:58Z</time>
      </trkpt>
      <trkpt lat="50.485551031306386" lon="9.098575003445149">
        <ele>246.72</ele>
        <time>2017-05-21T08:36:05Z</time>
      </trkpt>
      <trkpt lat="50.486849974840879" lon="9.100419022142887">
        <ele>248.63999999999999</ele>
        <time>2017-05-21T08:36:12Z</time>
      </trkpt>
      <trkpt lat="50.487896036356688" lon="9.101475980132818">
        <ele>251.52000000000001</ele>
        <time>2017-05-21T08:36:18Z</time>
      </trkpt>
      <trkpt lat="50.489753969013691" lon="9.103249004110694">
        <ele>248.63999999999999</ele>
        <time>2017-05-21T08:36:29Z</time>
      </trkpt>
      <trkpt lat="50.491055008023977" lon="9.104515006765723">
        <ele>249.59999999999999</ele>
        <time>2017-05-21T08:36:37Z</time>
      </trkpt>
      <trkpt lat="50.492007024586201" lon="9.105680007487536">
        <ele>252.47999999999999</ele>
        <time>2017-05-21T08:36:43Z</time>
      </trkpt>
      <trkpt lat="50.492140967398882" lon="9.105902966111898">
        <ele>253.44</ele>
        <time>2017-05-21T08:36:44Z</time>
      </trkpt>
      <trkpt lat="50.492727030068636" lon="9.10760298371315">
        <ele>258.73000000000002</ele>
        <time>2017-05-21T08:36:51Z</time>
      </trkpt>
      <trkpt lat="50.493375035002828" lon="9.109180960804224">
        <ele>264.5</ele>
        <time>2017-05-21T08:36:58Z</time>
      </trkpt>
      <trkpt lat="50.49432503990829" lon="9.110584007576108">
        <ele>269.31</ele>
        <time>2017-05-21T08:37:07Z</time>
      </trkpt>
      <trkpt lat="50.495216958224773" lon="9.112367006018758">
        <ele>272.19</ele>
        <time>2017-05-21T08:37:19Z</time>
      </trkpt>
      <trkpt lat="50.496392017230392" lon="9.114212030544877">
        <ele>269.79000000000002</ele>
        <time>2017-05-21T08:37:33Z</time>
      </trkpt>
      <trkpt lat="50.497289970517159" lon="9.116180017590523">
        <ele>268.35000000000002</ele>
        <time>2017-05-21T08:37:44Z</time>
      </trkpt>
      <trkpt lat="50.498352041468024" lon="9.119128016754985">
        <ele>267.38</ele>
        <time>2017-05-21T08:37:56Z</time>
      </trkpt>
      <trkpt lat="50.499129965901375" lon="9.120604991912842">
        <ele>267.86000000000001</ele>
        <time>2017-05-21T08:38:05Z</time>
      </trkpt>
      <trkpt lat="50.499536991119385" lon="9.121429016813636">
        <ele>268.82999999999998</ele>
        <time>2017-05-21T08:38:14Z</time>
      </trkpt>
      <trkpt lat="50.4998470377177" lon="9.122222028672695">
        <ele>271.23000000000002</ele>
        <time>2017-05-21T08:38:21Z</time>
      </trkpt>
      <trkpt lat="50.500333020463586" lon="9.123945012688637">
        <ele>276.04000000000002</ele>
        <time>2017-05-21T08:38:29Z</time>
      </trkpt>
      <trkpt lat="50.500959986820817" lon="9.126695031300187">
        <ele>286.13</ele>
        <time>2017-05-21T08:38:39Z</time>
      </trkpt>
      <trkpt lat="50.501562980934978" lon="9.127952987328172">
        <ele>291.42000000000002</ele>
        <time>2017-05-21T08:38:45Z</time>
      </trkpt>
      <trkpt lat="50.50191200338304" lon="9.128422960639">
        <ele>292.38</ele>
        <time>2017-05-21T08:38:48Z</time>
      </trkpt>
      <trkpt lat="50.502052986994386" lon="9.128552963957191">
        <ele>292.86000000000001</ele>
        <time>2017-05-21T08:38:49Z</time>
      </trkpt>
      <trkpt lat="50.502200005576015" lon="9.128672992810607">
        <ele>293.33999999999997</ele>
        <time>2017-05-21T08:38:50Z</time>
      </trkpt>
      <trkpt lat="50.503409011289477" lon="9.129164004698396">
        <ele>293.81999999999999</ele>
        <time>2017-05-21T08:38:58Z</time>
      </trkpt>
      <trkpt lat="50.504542998969555" lon="9.129446977749467">
        <ele>290.45999999999998</ele>
        <time>2017-05-21T08:39:07Z</time>
      </trkpt>
      <trkpt lat="50.504620028659701" lon="9.129486037418246">
        <ele>289.97000000000003</ele>
        <time>2017-05-21T08:39:08Z</time>
      </trkpt>
      <trkpt lat="50.504681970924139" lon="9.129515960812569">
        <ele>289.49000000000001</ele>
        <time>2017-05-21T08:39:09Z</time>
      </trkpt>
      <trkpt lat="50.504733016714454" lon="9.129559965804219">
        <ele>289.49000000000001</ele>
        <time>2017-05-21T08:39:10Z</time>
      </trkpt>
      <trkpt lat="50.504770986735821" lon="9.129621991887689">
        <ele>289.49000000000001</ele>
        <time>2017-05-21T08:39:11Z</time>
      </trkpt>
      <trkpt lat="50.504805017262697" lon="9.129694998264313">
        <ele>289.49000000000001</ele>
        <time>2017-05-21T08:39:12Z</time>
      </trkpt>
      <trkpt lat="50.50483200699091" lon="9.12979700602591">
        <ele>289.49000000000001</ele>
        <time>2017-05-21T08:39:13Z</time>
      </trkpt>
      <trkpt lat="50.504849022254348" lon="9.129915023222566">
        <ele>289.97000000000003</ele>
        <time>2017-05-21T08:39:14Z</time>
      </trkpt>
      <trkpt lat="50.504852961748838" lon="9.130044020712376">
        <ele>289.97000000000003</ele>
        <time>2017-05-21T08:39:15Z</time>
      </trkpt>
      <trkpt lat="50.504861008375883" lon="9.130187015980482">
        <ele>289.97000000000003</ele>
        <time>2017-05-21T08:39:16Z</time>
      </trkpt>
      <trkpt lat="50.504923034459352" lon="9.130459008738399">
        <ele>290.45999999999998</ele>
        <time>2017-05-21T08:39:18Z</time>
      </trkpt>
      <trkpt lat="50.504982965067029" lon="9.130580965429544">
        <ele>290.45999999999998</ele>
        <time>2017-05-21T08:39:19Z</time>
      </trkpt>
      <trkpt lat="50.505056977272034" lon="9.130681967362762">
        <ele>290.45999999999998</ele>
        <time>2017-05-21T08:39:20Z</time>
      </trkpt>
      <trkpt lat="50.505139958113432" lon="9.13076201453805">
        <ele>290.45999999999998</ele>
        <time>2017-05-21T08:39:21Z</time>
      </trkpt>
      <trkpt lat="50.505231991410255" lon="9.130824040621519">
        <ele>290.45999999999998</ele>
        <time>2017-05-21T08:39:22Z</time>
      </trkpt>
      <trkpt lat="50.505344979465008" lon="9.130881037563086">
        <ele>290.94</ele>
        <time>2017-05-21T08:39:23Z</time>
      </trkpt>
      <trkpt lat="50.50545503385365" lon="9.130937028676271">
        <ele>290.45999999999998</ele>
        <time>2017-05-21T08:39:24Z</time>
      </trkpt>
      <trkpt lat="50.506292972713709" lon="9.131485037505627">
        <ele>292.86000000000001</ele>
        <time>2017-05-21T08:39:32Z</time>
      </trkpt>
      <trkpt lat="50.506375031545758" lon="9.131620991975069">
        <ele>292.86000000000001</ele>
        <time>2017-05-21T08:39:33Z</time>
      </trkpt>
      <trkpt lat="50.507519999518991" lon="9.133920986205339">
        <ele>301.02999999999997</ele>
        <time>2017-05-21T08:39:48Z</time>
      </trkpt>
      <trkpt lat="50.50820798613131" lon="9.135767016559839">
        <ele>307.75999999999999</ele>
        <time>2017-05-21T08:39:58Z</time>
      </trkpt>
      <trkpt lat="50.50908699631691" lon="9.138294998556376">
        <ele>319.77999999999997</ele>
        <time>2017-05-21T08:40:11Z</time>
      </trkpt>
      <trkpt lat="50.509609021246433" lon="9.140016976743937">
        <ele>324.57999999999998</ele>
        <time>2017-05-21T08:40:19Z</time>
      </trkpt>
      <trkpt lat="50.509885959327221" lon="9.140691971406341">
        <ele>327.47000000000003</ele>
        <time>2017-05-21T08:40:22Z</time>
      </trkpt>
      <trkpt lat="50.509992996230721" lon="9.140876960009337">
        <ele>328.43000000000001</ele>
        <time>2017-05-21T08:40:23Z</time>
      </trkpt>
      <trkpt lat="50.510633960366249" lon="9.141826964914799">
        <ele>332.26999999999998</ele>
        <time>2017-05-21T08:40:29Z</time>
      </trkpt>
      <trkpt lat="50.510705960914493" lon="9.142004996538162">
        <ele>332.26999999999998</ele>
        <time>2017-05-21T08:40:30Z</time>
      </trkpt>
      <trkpt lat="50.510769998654723" lon="9.142174981534481">
        <ele>333.23000000000002</ele>
        <time>2017-05-21T08:40:31Z</time>
      </trkpt>
      <trkpt lat="50.510824983939528" lon="9.142351001501083">
        <ele>333.23000000000002</ele>
        <time>2017-05-21T08:40:32Z</time>
      </trkpt>
      <trkpt lat="50.510878041386604" lon="9.14253699593246">
        <ele>333.70999999999998</ele>
        <time>2017-05-21T08:40:33Z</time>
      </trkpt>
      <trkpt lat="50.510922968387604" lon="9.142746962606907">
        <ele>334.68000000000001</ele>
        <time>2017-05-21T08:40:34Z</time>
      </trkpt>
      <trkpt lat="50.511295963078737" lon="9.14524401538074">
        <ele>339.48000000000002</ele>
        <time>2017-05-21T08:40:44Z</time>
      </trkpt>
      <trkpt lat="50.511745987460017" lon="9.147673007100821">
        <ele>343.32999999999998</ele>
        <time>2017-05-21T08:40:51Z</time>
      </trkpt>
      <trkpt lat="50.511855036020279" lon="9.148032004013658">
        <ele>343.81</ele>
        <time>2017-05-21T08:40:52Z</time>
      </trkpt>
      <trkpt lat="50.511996019631624" lon="9.148381026461721">
        <ele>344.29000000000002</ele>
        <time>2017-05-21T08:40:53Z</time>
      </trkpt>
      <trkpt lat="50.512134991586208" lon="9.148728037253022">
        <ele>344.76999999999998</ele>
        <time>2017-05-21T08:40:54Z</time>
      </trkpt>
      <trkpt lat="50.512273963540792" lon="9.149094996973872">
        <ele>345.73000000000002</ele>
        <time>2017-05-21T08:40:55Z</time>
      </trkpt>
      <trkpt lat="50.513148028403521" lon="9.151864964514971">
        <ele>351.01999999999998</ele>
        <time>2017-05-21T08:41:02Z</time>
      </trkpt>
      <trkpt lat="50.51409300416708" lon="9.154357993975282">
        <ele>357.75</ele>
        <time>2017-05-21T08:41:09Z</time>
      </trkpt>
      <trkpt lat="50.514152012765408" lon="9.154706010594964">
        <ele>358.70999999999998</ele>
        <time>2017-05-21T08:41:10Z</time>
      </trkpt>
      <trkpt lat="50.514185959473252" lon="9.155079005286098">
        <ele>360.14999999999998</ele>
        <time>2017-05-21T08:41:11Z</time>
      </trkpt>
      <trkpt lat="50.514186965301633" lon="9.155456023290753">
        <ele>361.58999999999997</ele>
        <time>2017-05-21T08:41:12Z</time>
      </trkpt>
      <trkpt lat="50.514168022200465" lon="9.155827006325126">
        <ele>362.55000000000001</ele>
        <time>2017-05-21T08:41:13Z</time>
      </trkpt>
      <trkpt lat="50.51415704190731" lon="9.156542988494039">
        <ele>364.95999999999998</ele>
        <time>2017-05-21T08:41:15Z</time>
      </trkpt>
      <trkpt lat="50.514197023585439" lon="9.156876001507044">
        <ele>365.92000000000002</ele>
        <time>2017-05-21T08:41:16Z</time>
      </trkpt>
      <trkpt lat="50.51426500082016" lon="9.157208008691669">
        <ele>366.39999999999998</ele>
        <time>2017-05-21T08:41:17Z</time>
      </trkpt>
      <trkpt lat="50.515065975487232" lon="9.15974697098136">
        <ele>373.13</ele>
        <time>2017-05-21T08:41:24Z</time>
      </trkpt>
      <trkpt lat="50.515967030078173" lon="9.16228199377656">
        <ele>379.38</ele>
        <time>2017-05-21T08:41:31Z</time>
      </trkpt>
      <trkpt lat="50.516038024798036" lon="9.162681978195906">
        <ele>380.81999999999999</ele>
        <time>2017-05-21T08:41:32Z</time>
      </trkpt>
      <trkpt lat="50.516531970351934" lon="9.166679978370667">
        <ele>389.94999999999999</ele>
        <time>2017-05-21T08:41:42Z</time>
      </trkpt>
      <trkpt lat="50.516632972285151" lon="9.168587028980255">
        <ele>396.19999999999999</ele>
        <time>2017-05-21T08:41:47Z</time>
      </trkpt>
      <trkpt lat="50.516718970611691" lon="9.168926998972893">
        <ele>397.63999999999999</ele>
        <time>2017-05-21T08:41:48Z</time>
      </trkpt>
      <trkpt lat="50.516831958666444" lon="9.169269986450672">
        <ele>398.12</ele>
        <time>2017-05-21T08:41:49Z</time>
      </trkpt>
      <trkpt lat="50.516967996954918" lon="9.169602999463677">
        <ele>399.56999999999999</ele>
        <time>2017-05-21T08:41:50Z</time>
      </trkpt>
      <trkpt lat="50.517117027193308" lon="9.169938024133444">
        <ele>400.52999999999997</ele>
        <time>2017-05-21T08:41:51Z</time>
      </trkpt>
      <trkpt lat="50.517878020182252" lon="9.171430002897978">
        <ele>406.29000000000002</ele>
        <time>2017-05-21T08:41:56Z</time>
      </trkpt>
      <trkpt lat="50.518083041533828" lon="9.171652039512992">
        <ele>406.76999999999998</ele>
        <time>2017-05-21T08:41:57Z</time>
      </trkpt>
      <trkpt lat="50.518306000158191" lon="9.171849014237523">
        <ele>407.74000000000001</ele>
        <time>2017-05-21T08:41:58Z</time>
      </trkpt>
      <trkpt lat="50.519467983394861" lon="9.172663986682892">
        <ele>412.54000000000002</ele>
        <time>2017-05-21T08:42:03Z</time>
      </trkpt>
      <trkpt lat="50.519714998081326" lon="9.172755014151335">
        <ele>413.01999999999998</ele>
        <time>2017-05-21T08:42:04Z</time>
      </trkpt>
      <trkpt lat="50.520676989108324" lon="9.173033963888884">
        <ele>415.43000000000001</ele>
        <time>2017-05-21T08:42:09Z</time>
      </trkpt>
      <trkpt lat="50.521040009334683" lon="9.173192968592048">
        <ele>416.87</ele>
        <time>2017-05-21T08:42:12Z</time>
      </trkpt>
      <trkpt lat="50.521238995715976" lon="9.173369994387031">
        <ele>416.38999999999999</ele>
        <time>2017-05-21T08:42:14Z</time>
      </trkpt>
      <trkpt lat="50.522050028666854" lon="9.174364004284143">
        <ele>422.16000000000003</ele>
        <time>2017-05-21T08:42:24Z</time>
      </trkpt>
      <trkpt lat="50.522132003679872" lon="9.174437010660768">
        <ele>423.12</ele>
        <time>2017-05-21T08:42:25Z</time>
      </trkpt>
      <trkpt lat="50.522219007834792" lon="9.174489984288812">
        <ele>423.60000000000002</ele>
        <time>2017-05-21T08:42:26Z</time>
      </trkpt>
      <trkpt lat="50.522320009768009" lon="9.174511022865772">
        <ele>424.07999999999998</ele>
        <time>2017-05-21T08:42:27Z</time>
      </trkpt>
      <trkpt lat="50.522420005872846" lon="9.174491995945573">
        <ele>423.60000000000002</ele>
        <time>2017-05-21T08:42:28Z</time>
      </trkpt>
      <trkpt lat="50.522511033341289" lon="9.174434999004006">
        <ele>423.60000000000002</ele>
        <time>2017-05-21T08:42:29Z</time>
      </trkpt>
      <trkpt lat="50.522597031667829" lon="9.174345983192325">
        <ele>423.60000000000002</ele>
        <time>2017-05-21T08:42:30Z</time>
      </trkpt>
      <trkpt lat="50.522685963660479" lon="9.174258979037404">
        <ele>424.07999999999998</ele>
        <time>2017-05-21T08:42:31Z</time>
      </trkpt>
      <trkpt lat="50.522876987233758" lon="9.174166023731232">
        <ele>425.04000000000002</ele>
        <time>2017-05-21T08:42:33Z</time>
      </trkpt>
      <trkpt lat="50.522984024137259" lon="9.174165017902851">
        <ele>426</ele>
        <time>2017-05-21T08:42:34Z</time>
      </trkpt>
      <trkpt lat="50.524281039834023" lon="9.174403985962272">
        <ele>433.20999999999998</ele>
        <time>2017-05-21T08:42:47Z</time>
      </trkpt>
      <trkpt lat="50.525205982849002" lon="9.174558967351914">
        <ele>435.13</ele>
        <time>2017-05-21T08:42:57Z</time>
      </trkpt>
      <trkpt lat="50.525642009451985" lon="9.17465602979064">
        <ele>436.57999999999998</ele>
        <time>2017-05-21T08:43:01Z</time>
      </trkpt>
      <trkpt lat="50.525748962536454" lon="9.174741022288799">
        <ele>437.06</ele>
        <time>2017-05-21T08:43:02Z</time>
      </trkpt>
      <trkpt lat="50.526627972722054" lon="9.175736038014293">
        <ele>444.26999999999998</ele>
        <time>2017-05-21T08:43:11Z</time>
      </trkpt>
      <trkpt lat="50.527516035363078" lon="9.177283002063632">
        <ele>455.31999999999999</ele>
        <time>2017-05-21T08:43:22Z</time>
      </trkpt>
      <trkpt lat="50.528120035305619" lon="9.179092990234494">
        <ele>463.97000000000003</ele>
        <time>2017-05-21T08:43:30Z</time>
      </trkpt>
      <trkpt lat="50.528603000566363" lon="9.180411966517568">
        <ele>469.25999999999999</ele>
        <time>2017-05-21T08:43:35Z</time>
      </trkpt>
      <trkpt lat="50.528648011386395" lon="9.180725030601025">
        <ele>470.22000000000003</ele>
        <time>2017-05-21T08:43:36Z</time>
      </trkpt>
      <trkpt lat="50.528735015541315" lon="9.18138200417161">
        <ele>473.11000000000001</ele>
        <time>2017-05-21T08:43:38Z</time>
      </trkpt>
      <trkpt lat="50.528795029968023" lon="9.181721974164248">
        <ele>472.63</ele>
        <time>2017-05-21T08:43:39Z</time>
      </trkpt>
      <trkpt lat="50.528887985274196" lon="9.182016011327505">
        <ele>473.58999999999997</ele>
        <time>2017-05-21T08:43:40Z</time>
      </trkpt>
      <trkpt lat="50.529245976358652" lon="9.183024019002914">
        <ele>475.99000000000001</ele>
        <time>2017-05-21T08:43:44Z</time>
      </trkpt>
      <trkpt lat="50.529296016320586" lon="9.183300035074353">
        <ele>476.47000000000003</ele>
        <time>2017-05-21T08:43:45Z</time>
      </trkpt>
      <trkpt lat="50.529318982735276" lon="9.183592982590199">
        <ele>477.43000000000001</ele>
        <time>2017-05-21T08:43:46Z</time>
      </trkpt>
      <trkpt lat="50.529372040182352" lon="9.184184996411204">
        <ele>477.91000000000003</ele>
        <time>2017-05-21T08:43:48Z</time>
      </trkpt>
      <trkpt lat="50.529430964961648" lon="9.184435028582811">
        <ele>478.87</ele>
        <time>2017-05-21T08:43:49Z</time>
      </trkpt>
      <trkpt lat="50.52979800850153" lon="9.185861963778734">
        <ele>483.19999999999999</ele>
        <time>2017-05-21T08:43:54Z</time>
      </trkpt>
      <trkpt lat="50.530490018427372" lon="9.188369996845722">
        <ele>496.66000000000003</ele>
        <time>2017-05-21T08:44:01Z</time>
      </trkpt>
      <trkpt lat="50.530580962076783" lon="9.188720025122166">
        <ele>499.06</ele>
        <time>2017-05-21T08:44:02Z</time>
      </trkpt>
      <trkpt lat="50.530653968453407" lon="9.189082961529493">
        <ele>500.5</ele>
        <time>2017-05-21T08:44:03Z</time>
      </trkpt>
      <trkpt lat="50.530805010348558" lon="9.189809001982212">
        <ele>503.87</ele>
        <time>2017-05-21T08:44:05Z</time>
      </trkpt>
      <trkpt lat="50.53091699257493" lon="9.190154001116753">
        <ele>504.82999999999998</ele>
        <time>2017-05-21T08:44:06Z</time>
      </trkpt>
      <trkpt lat="50.531515963375568" lon="9.19184303842485">
        <ele>513</ele>
        <time>2017-05-21T08:44:12Z</time>
      </trkpt>
      <trkpt lat="50.531569020822644" lon="9.192068008705974">
        <ele>513.96000000000004</ele>
        <time>2017-05-21T08:44:13Z</time>
      </trkpt>
      <trkpt lat="50.531607996672392" lon="9.192303959280253">
        <ele>514.91999999999996</ele>
        <time>2017-05-21T08:44:14Z</time>
      </trkpt>
      <trkpt lat="50.531628029420972" lon="9.192559020593762">
        <ele>515.88</ele>
        <time>2017-05-21T08:44:15Z</time>
      </trkpt>
      <trkpt lat="50.531634986400604" lon="9.192795976996422">
        <ele>516.85000000000002</ele>
        <time>2017-05-21T08:44:16Z</time>
      </trkpt>
      <trkpt lat="50.531617971137166" lon="9.193000998347998">
        <ele>517.80999999999995</ele>
        <time>2017-05-21T08:44:17Z</time>
      </trkpt>
      <trkpt lat="50.531605985015631" lon="9.193186992779374">
        <ele>519.25</ele>
        <time>2017-05-21T08:44:18Z</time>
      </trkpt>
      <trkpt lat="50.531643033027649" lon="9.193449011072516">
        <ele>520.69000000000005</ele>
        <time>2017-05-21T08:44:20Z</time>
      </trkpt>
      <trkpt lat="50.531727019697428" lon="9.193523023277521">
        <ele>521.64999999999998</ele>
        <time>2017-05-21T08:44:21Z</time>
      </trkpt>
      <trkpt lat="50.531813018023968" lon="9.193524029105902">
        <ele>522.13</ele>
        <time>2017-05-21T08:44:22Z</time>
      </trkpt>
      <trkpt lat="50.531891975551844" lon="9.193437024950981">
        <ele>522.13</ele>
        <time>2017-05-21T08:44:23Z</time>
      </trkpt>
      <trkpt lat="50.531971016898751" lon="9.193291012197733">
        <ele>524.05999999999995</ele>
        <time>2017-05-21T08:44:24Z</time>
      </trkpt>
      <trkpt lat="50.532016027718782" lon="9.193082973361015">
        <ele>525.01999999999998</ele>
        <time>2017-05-21T08:44:25Z</time>
      </trkpt>
      <trkpt lat="50.532058021053672" lon="9.192860014736652">
        <ele>525.01999999999998</ele>
        <time>2017-05-21T08:44:26Z</time>
      </trkpt>
      <trkpt lat="50.532128009945154" lon="9.192624986171722">
        <ele>526.46000000000004</ele>
        <time>2017-05-21T08:44:27Z</time>
      </trkpt>
      <trkpt lat="50.532213002443314" lon="9.192374031990767">
        <ele>527.89999999999998</ele>
        <time>2017-05-21T08:44:28Z</time>
      </trkpt>
      <trkpt lat="50.532503016293049" lon="9.191546989604831">
        <ele>532.23000000000002</ele>
        <time>2017-05-21T08:44:31Z</time>
      </trkpt>
      <trkpt lat="50.532571999356151" lon="9.191255969926715">
        <ele>533.66999999999996</ele>
        <time>2017-05-21T08:44:32Z</time>
      </trkpt>
      <trkpt lat="50.532621033489704" lon="9.190971991047263">
        <ele>535.59000000000003</ele>
        <time>2017-05-21T08:44:33Z</time>
      </trkpt>
      <trkpt lat="50.532657997682691" lon="9.190715001896024">
        <ele>536.54999999999995</ele>
        <time>2017-05-21T08:44:34Z</time>
      </trkpt>
      <trkpt lat="50.532680964097381" lon="9.190494976937771">
        <ele>539.91999999999996</ele>
        <time>2017-05-21T08:44:35Z</time>
      </trkpt>
      <trkpt lat="50.532671995460987" lon="9.190284004434943">
        <ele>540.88</ele>
        <time>2017-05-21T08:44:36Z</time>
      </trkpt>
      <trkpt lat="50.532663026824594" lon="9.190092980861664">
        <ele>541.84000000000003</ele>
        <time>2017-05-21T08:44:37Z</time>
      </trkpt>
      <trkpt lat="50.532665038481355" lon="9.189930036664009">
        <ele>542.32000000000005</ele>
        <time>2017-05-21T08:44:38Z</time>
      </trkpt>
      <trkpt lat="50.532692028209567" lon="9.189801039174199">
        <ele>542.79999999999995</ele>
        <time>2017-05-21T08:44:39Z</time>
      </trkpt>
      <trkpt lat="50.532780038192868" lon="9.189738007262349">
        <ele>543.27999999999997</ele>
        <time>2017-05-21T08:44:40Z</time>
      </trkpt>
      <trkpt lat="50.532878022640944" lon="9.189734989777207">
        <ele>543.75999999999999</ele>
        <time>2017-05-21T08:44:41Z</time>
      </trkpt>
      <trkpt lat="50.532972989603877" lon="9.18978301808238">
        <ele>544.24000000000001</ele>
        <time>2017-05-21T08:44:42Z</time>
      </trkpt>
      <trkpt lat="50.533025963231921" lon="9.189926013350487">
        <ele>545.20000000000005</ele>
        <time>2017-05-21T08:44:43Z</time>
      </trkpt>
      <trkpt lat="50.533050019294024" lon="9.190103961154819">
        <ele>545.69000000000005</ele>
        <time>2017-05-21T08:44:44Z</time>
      </trkpt>
      <trkpt lat="50.533058987930417" lon="9.190316023305059">
        <ele>546.64999999999998</ele>
        <time>2017-05-21T08:44:45Z</time>
      </trkpt>
      <trkpt lat="50.533074997365475" lon="9.190545016899705">
        <ele>547.13</ele>
        <time>2017-05-21T08:44:46Z</time>
      </trkpt>
      <trkpt lat="50.533320000395179" lon="9.192280992865562">
        <ele>555.77999999999997</ele>
        <time>2017-05-21T08:44:52Z</time>
      </trkpt>
      <trkpt lat="50.533362999558449" lon="9.192908965051174">
        <ele>559.13999999999999</ele>
        <time>2017-05-21T08:44:54Z</time>
      </trkpt>
      <trkpt lat="50.533543964847922" lon="9.195467960089445">
        <ele>572.12</ele>
        <time>2017-05-21T08:45:02Z</time>
      </trkpt>
      <trkpt lat="50.533741023391485" lon="9.196224007755518">
        <ele>574.52999999999997</ele>
        <time>2017-05-21T08:45:05Z</time>
      </trkpt>
      <trkpt lat="50.533826015889645" lon="9.196436991915107">
        <ele>575.00999999999999</ele>
        <time>2017-05-21T08:45:06Z</time>
      </trkpt>
      <trkpt lat="50.53394696675241" lon="9.196638995781541">
        <ele>575.97000000000003</ele>
        <time>2017-05-21T08:45:07Z</time>
      </trkpt>
      <trkpt lat="50.534088034182787" lon="9.196803029626608">
        <ele>576.92999999999995</ele>
        <time>2017-05-21T08:45:08Z</time>
      </trkpt>
      <trkpt lat="50.53424502722919" lon="9.19695801101625">
        <ele>577.88999999999999</ele>
        <time>2017-05-21T08:45:09Z</time>
      </trkpt>
      <trkpt lat="50.534409983083606" lon="9.197122966870666">
        <ele>578.85000000000002</ele>
        <time>2017-05-21T08:45:10Z</time>
      </trkpt>
      <trkpt lat="50.535885030403733" lon="9.198607988655567">
        <ele>585.58000000000004</ele>
        <time>2017-05-21T08:45:18Z</time>
      </trkpt>
      <trkpt lat="50.537475999444723" lon="9.200094016268849">
        <ele>600.48000000000002</ele>
        <time>2017-05-21T08:45:27Z</time>
      </trkpt>
      <trkpt lat="50.538427010178566" lon="9.200414037331939">
        <ele>609.13</ele>
        <time>2017-05-21T08:45:34Z</time>
      </trkpt>
      <trkpt lat="50.538811990991235" lon="9.200422000139952">
        <ele>612.5</ele>
        <time>2017-05-21T08:45:38Z</time>
      </trkpt>
      <trkpt lat="50.538854990154505" lon="9.200451001524925">
        <ele>613.46000000000004</ele>
        <time>2017-05-21T08:45:39Z</time>
      </trkpt>
      <trkpt lat="50.538879968225956" lon="9.200519984588027">
        <ele>614.41999999999996</ele>
        <time>2017-05-21T08:45:40Z</time>
      </trkpt>
      <trkpt lat="50.538898995146155" lon="9.200601037591696">
        <ele>614.89999999999998</ele>
        <time>2017-05-21T08:45:41Z</time>
      </trkpt>
      <trkpt lat="50.538907963782549" lon="9.200716037303209">
        <ele>615.86000000000001</ele>
        <time>2017-05-21T08:45:42Z</time>
      </trkpt>
      <trkpt lat="50.53890997543931" lon="9.200849980115891">
        <ele>615.86000000000001</ele>
        <time>2017-05-21T08:45:43Z</time>
      </trkpt>
      <trkpt lat="50.5389070417732" lon="9.201029017567635">
        <ele>616.82000000000005</ele>
        <time>2017-05-21T08:45:44Z</time>
      </trkpt>
      <trkpt lat="50.538939982652664" lon="9.20273900963366">
        <ele>626.91999999999996</ele>
        <time>2017-05-21T08:45:51Z</time>
      </trkpt>
      <trkpt lat="50.538943000137806" lon="9.204614963382483">
        <ele>636.52999999999997</ele>
        <time>2017-05-21T08:45:57Z</time>
      </trkpt>
      <trkpt lat="50.538940988481045" lon="9.204948982223868">
        <ele>637.97000000000003</ele>
        <time>2017-05-21T08:45:58Z</time>
      </trkpt>
      <trkpt lat="50.538978958502412" lon="9.205967970192432">
        <ele>639.40999999999997</ele>
        <time>2017-05-21T08:46:01Z</time>
      </trkpt>
      <trkpt lat="50.539020029827952" lon="9.206296959891915">
        <ele>639.40999999999997</ele>
        <time>2017-05-21T08:46:02Z</time>
      </trkpt>
      <trkpt lat="50.53907903842628" lon="9.20662603341043">
        <ele>639.88999999999999</ele>
        <time>2017-05-21T08:46:03Z</time>
      </trkpt>
      <trkpt lat="50.539161013439298" lon="9.206950999796391">
        <ele>640.86000000000001</ele>
        <time>2017-05-21T08:46:04Z</time>
      </trkpt>
      <trkpt lat="50.539252962917089" lon="9.207274038344622">
        <ele>642.29999999999995</ele>
        <time>2017-05-21T08:46:05Z</time>
      </trkpt>
      <trkpt lat="50.539790997281671" lon="9.209372028708458">
        <ele>649.02999999999997</ele>
        <time>2017-05-21T08:46:12Z</time>
      </trkpt>
      <trkpt lat="50.539836008101702" lon="9.209671011194587">
        <ele>651.90999999999997</ele>
        <time>2017-05-21T08:46:13Z</time>
      </trkpt>
      <trkpt lat="50.539838019758463" lon="9.209954990074039">
        <ele>652.87</ele>
        <time>2017-05-21T08:46:14Z</time>
      </trkpt>
      <trkpt lat="50.539818992838264" lon="9.210249027237296">
        <ele>653.35000000000002</ele>
        <time>2017-05-21T08:46:15Z</time>
      </trkpt>
      <trkpt lat="50.539763001725078" lon="9.21055899001658">
        <ele>654.79999999999995</ele>
        <time>2017-05-21T08:46:16Z</time>
      </trkpt>
      <trkpt lat="50.539477011188865" lon="9.213107004761696">
        <ele>663.45000000000005</ele>
        <time>2017-05-21T08:46:23Z</time>
      </trkpt>
      <trkpt lat="50.539372991770506" lon="9.216042011976242">
        <ele>670.17999999999995</ele>
        <time>2017-05-21T08:46:31Z</time>
      </trkpt>
      <trkpt lat="50.539377015084028" lon="9.216992016881704">
        <ele>674.01999999999998</ele>
        <time>2017-05-21T08:46:34Z</time>
      </trkpt>
      <trkpt lat="50.539349019527435" lon="9.21730499714613">
        <ele>675.46000000000004</ele>
        <time>2017-05-21T08:46:35Z</time>
      </trkpt>
      <trkpt lat="50.539297973737121" lon="9.217613032087684">
        <ele>676.90999999999997</ele>
        <time>2017-05-21T08:46:36Z</time>
      </trkpt>
      <trkpt lat="50.539219016209245" lon="9.217919977381825">
        <ele>677.87</ele>
        <time>2017-05-21T08:46:37Z</time>
      </trkpt>
      <trkpt lat="50.539118014276028" lon="9.218224994838238">
        <ele>679.30999999999995</ele>
        <time>2017-05-21T08:46:38Z</time>
      </trkpt>
      <trkpt lat="50.538161974400282" lon="9.220294989645481">
        <ele>689.88</ele>
        <time>2017-05-21T08:46:45Z</time>
      </trkpt>
      <trkpt lat="50.537074003368616" lon="9.221876990050077">
        <ele>702.86000000000001</ele>
        <time>2017-05-21T08:46:51Z</time>
      </trkpt>
      <trkpt lat="50.536449970677495" lon="9.222584003582597">
        <ele>706.71000000000004</ele>
        <time>2017-05-21T08:46:55Z</time>
      </trkpt>
      <trkpt lat="50.536261964589357" lon="9.222711995244026">
        <ele>706.71000000000004</ele>
        <time>2017-05-21T08:46:56Z</time>
      </trkpt>
      <trkpt lat="50.536042023450136" lon="9.222809979692102">
        <ele>707.19000000000005</ele>
        <time>2017-05-21T08:46:57Z</time>
      </trkpt>
      <trkpt lat="50.53579299710691" lon="9.222880974411964">
        <ele>708.14999999999998</ele>
        <time>2017-05-21T08:46:58Z</time>
      </trkpt>
      <trkpt lat="50.535548999905586" lon="9.222949035465717">
        <ele>709.59000000000003</ele>
        <time>2017-05-21T08:46:59Z</time>
      </trkpt>
      <trkpt lat="50.533918971195817" lon="9.223484974354506">
        <ele>719.20000000000005</ele>
        <time>2017-05-21T08:47:05Z</time>
      </trkpt>
      <trkpt lat="50.533685032278299" lon="9.223619000986219">
        <ele>720.64999999999998</ele>
        <time>2017-05-21T08:47:06Z</time>
      </trkpt>
      <trkpt lat="50.533457966521382" lon="9.223807007074356">
        <ele>722.09000000000003</ele>
        <time>2017-05-21T08:47:07Z</time>
      </trkpt>
      <trkpt lat="50.531805977225304" lon="9.225471988320351">
        <ele>730.74000000000001</ele>
        <time>2017-05-21T08:47:15Z</time>
      </trkpt>
      <trkpt lat="50.53166700527072" lon="9.225722020491958">
        <ele>731.70000000000005</ele>
        <time>2017-05-21T08:47:16Z</time>
      </trkpt>
      <trkpt lat="50.531568014994264" lon="9.226015973836184">
        <ele>731.70000000000005</ele>
        <time>2017-05-21T08:47:17Z</time>
      </trkpt>
      <trkpt lat="50.531480005010962" lon="9.226348986849189">
        <ele>732.17999999999995</ele>
        <time>2017-05-21T08:47:18Z</time>
      </trkpt>
      <trkpt lat="50.531394006684422" lon="9.226701026782394">
        <ele>732.65999999999997</ele>
        <time>2017-05-21T08:47:19Z</time>
      </trkpt>
      <trkpt lat="50.530871981754899" lon="9.228445971384645">
        <ele>729.77999999999997</ele>
        <time>2017-05-21T08:47:24Z</time>
      </trkpt>
      <trkpt lat="50.530719012022018" lon="9.228775966912508">
        <ele>728.82000000000005</ele>
        <time>2017-05-21T08:47:25Z</time>
      </trkpt>
      <trkpt lat="50.529146986082196" lon="9.231325993314385">
        <ele>723.04999999999995</ele>
        <time>2017-05-21T08:47:33Z</time>
      </trkpt>
      <trkpt lat="50.527535984292626" lon="9.233668986707926">
        <ele>719.67999999999995</ele>
        <time>2017-05-21T08:47:41Z</time>
      </trkpt>
      <trkpt lat="50.526448013260961" lon="9.235085025429726">
        <ele>719.20000000000005</ele>
        <time>2017-05-21T08:47:47Z</time>
      </trkpt>
      <trkpt lat="50.526214996352792" lon="9.235246963799">
        <ele>718.24000000000001</ele>
        <time>2017-05-21T08:47:48Z</time>
      </trkpt>
      <trkpt lat="50.524365026503801" lon="9.236354967579246">
        <ele>722.09000000000003</ele>
        <time>2017-05-21T08:47:56Z</time>
      </trkpt>
      <trkpt lat="50.523759014904499" lon="9.236694015562534">
        <ele>723.04999999999995</ele>
        <time>2017-05-21T08:47:59Z</time>
      </trkpt>
      <trkpt lat="50.523547036573291" lon="9.236760986968875">
        <ele>723.52999999999997</ele>
        <time>2017-05-21T08:48:00Z</time>
      </trkpt>
      <trkpt lat="50.523326005786657" lon="9.236781019717455">
        <ele>723.52999999999997</ele>
        <time>2017-05-21T08:48:01Z</time>
      </trkpt>
      <trkpt lat="50.523104975000024" lon="9.23677196726203">
        <ele>724.00999999999999</ele>
        <time>2017-05-21T08:48:02Z</time>
      </trkpt>
      <trkpt lat="50.522869024425745" lon="9.236712036654353">
        <ele>724.49000000000001</ele>
        <time>2017-05-21T08:48:03Z</time>
      </trkpt>
      <trkpt lat="50.522632990032434" lon="9.236598964780569">
        <ele>724.97000000000003</ele>
        <time>2017-05-21T08:48:04Z</time>
      </trkpt>
      <trkpt lat="50.522400978952646" lon="9.236436020582914">
        <ele>724.97000000000003</ele>
        <time>2017-05-21T08:48:05Z</time>
      </trkpt>
      <trkpt lat="50.522189000621438" lon="9.23623401671648">
        <ele>724.97000000000003</ele>
        <time>2017-05-21T08:48:06Z</time>
      </trkpt>
      <trkpt lat="50.521966964006424" lon="9.236004017293453">
        <ele>724.97000000000003</ele>
        <time>2017-05-21T08:48:07Z</time>
      </trkpt>
      <trkpt lat="50.519782975316048" lon="9.233605032786727">
        <ele>727.37</ele>
        <time>2017-05-21T08:48:17Z</time>
      </trkpt>
      <trkpt lat="50.518296025693417" lon="9.231195989996195">
        <ele>726.40999999999997</ele>
        <time>2017-05-21T08:48:26Z</time>
      </trkpt>
      <trkpt lat="50.517453979700804" lon="9.229813981801271">
        <ele>722.57000000000005</ele>
        <time>2017-05-21T08:48:33Z</time>
      </trkpt>
      <trkpt lat="50.517072016373277" lon="9.229288017377257">
        <ele>722.57000000000005</ele>
        <time>2017-05-21T08:48:38Z</time>
      </trkpt>
      <trkpt lat="50.516712013632059" lon="9.228952992707491">
        <ele>721.61000000000001</ele>
        <time>2017-05-21T08:48:45Z</time>
      </trkpt>
      <trkpt lat="50.516273975372314" lon="9.228643029928207">
        <ele>720.15999999999997</ele>
        <time>2017-05-21T08:48:49Z</time>
      </trkpt>
      <trkpt lat="50.516151012852788" lon="9.228598019108176">
        <ele>721.13</ele>
        <time>2017-05-21T08:48:50Z</time>
      </trkpt>
      <trkpt lat="50.51602897234261" lon="9.228577986359596">
        <ele>720.64999999999998</ele>
        <time>2017-05-21T08:48:51Z</time>
      </trkpt>
      <trkpt lat="50.515911960974336" lon="9.228571029379964">
        <ele>720.64999999999998</ele>
        <time>2017-05-21T08:48:52Z</time>
      </trkpt>
      <trkpt lat="50.515798972919583" lon="9.228572035208345">
        <ele>721.13</ele>
        <time>2017-05-21T08:48:53Z</time>
      </trkpt>
      <trkpt lat="50.515693025663495" lon="9.228586032986641">
        <ele>721.13</ele>
        <time>2017-05-21T08:48:54Z</time>
      </trkpt>
      <trkpt lat="50.515594035387039" lon="9.228615034371615">
        <ele>721.13</ele>
        <time>2017-05-21T08:48:55Z</time>
      </trkpt>
      <trkpt lat="50.515502002090216" lon="9.228665996342897">
        <ele>721.61000000000001</ele>
        <time>2017-05-21T08:48:56Z</time>
      </trkpt>
      <trkpt lat="50.515412986278534" lon="9.228722993284464">
        <ele>722.09000000000003</ele>
        <time>2017-05-21T08:48:57Z</time>
      </trkpt>
      <trkpt lat="50.514625003561378" lon="9.229567972943187">
        <ele>723.52999999999997</ele>
        <time>2017-05-21T08:49:05Z</time>
      </trkpt>
      <trkpt lat="50.513389008119702" lon="9.231116026639938">
        <ele>730.25999999999999</ele>
        <time>2017-05-21T08:49:15Z</time>
      </trkpt>
      <trkpt lat="50.512572024017572" lon="9.232619991526008">
        <ele>731.22000000000003</ele>
        <time>2017-05-21T08:49:23Z</time>
      </trkpt>
      <trkpt lat="50.512104984372854" lon="9.233552981168032">
        <ele>731.70000000000005</ele>
        <time>2017-05-21T08:49:30Z</time>
      </trkpt>
      <trkpt lat="50.512054022401571" lon="9.233621964231134">
        <ele>731.70000000000005</ele>
        <time>2017-05-21T08:49:31Z</time>
      </trkpt>
      <trkpt lat="50.511990990489721" lon="9.233674015849829">
        <ele>732.65999999999997</ele>
        <time>2017-05-21T08:49:32Z</time>
      </trkpt>
      <trkpt lat="50.511913038790226" lon="9.233683990314603">
        <ele>732.17999999999995</ele>
        <time>2017-05-21T08:49:33Z</time>
      </trkpt>
      <trkpt lat="50.511827040463686" lon="9.233646020293236">
        <ele>732.17999999999995</ele>
        <time>2017-05-21T08:49:34Z</time>
      </trkpt>
      <trkpt lat="50.511745987460017" lon="9.233559016138315">
        <ele>732.17999999999995</ele>
        <time>2017-05-21T08:49:35Z</time>
      </trkpt>
      <trkpt lat="50.511675998568535" lon="9.233433958142996">
        <ele>732.17999999999995</ele>
        <time>2017-05-21T08:49:36Z</time>
      </trkpt>
      <trkpt lat="50.511612966656685" lon="9.233288029208779">
        <ele>732.17999999999995</ele>
        <time>2017-05-21T08:49:37Z</time>
      </trkpt>
      <trkpt lat="50.511545995250344" lon="9.23311703838408">
        <ele>732.17999999999995</ele>
        <time>2017-05-21T08:49:38Z</time>
      </trkpt>
      <trkpt lat="50.511491009965539" lon="9.232920985668898">
        <ele>732.65999999999997</ele>
        <time>2017-05-21T08:49:39Z</time>
      </trkpt>
      <trkpt lat="50.511448010802269" lon="9.232712024822831">
        <ele>732.65999999999997</ele>
        <time>2017-05-21T08:49:40Z</time>
      </trkpt>
      <trkpt lat="50.511185992509127" lon="9.231587005779147">
        <ele>733.13999999999999</ele>
        <time>2017-05-21T08:49:45Z</time>
      </trkpt>
      <trkpt lat="50.51110502332449" lon="9.231375027447939">
        <ele>733.13999999999999</ele>
        <time>2017-05-21T08:49:46Z</time>
      </trkpt>
      <trkpt lat="50.510688023641706" lon="9.230590984225273">
        <ele>733.62</ele>
        <time>2017-05-21T08:49:50Z</time>
      </trkpt>
      <trkpt lat="50.510084023699164" lon="9.229518016800284">
        <ele>735.54999999999995</ele>
        <time>2017-05-21T08:49:55Z</time>
      </trkpt>
      <trkpt lat="50.510004982352257" lon="9.229263961315155">
        <ele>736.50999999999999</ele>
        <time>2017-05-21T08:49:56Z</time>
      </trkpt>
      <trkpt lat="50.509942034259439" lon="9.228998003527522">
        <ele>737.47000000000003</ele>
        <time>2017-05-21T08:49:57Z</time>
      </trkpt>
      <trkpt lat="50.509898029267788" lon="9.228720981627703">
        <ele>738.42999999999995</ele>
        <time>2017-05-21T08:49:58Z</time>
      </trkpt>
      <trkpt lat="50.509874979034066" lon="9.22845602966845">
        <ele>739.38999999999999</ele>
        <time>2017-05-21T08:49:59Z</time>
      </trkpt>
      <trkpt lat="50.50988201983273" lon="9.228203985840082">
        <ele>739.38999999999999</ele>
        <time>2017-05-21T08:50:00Z</time>
      </trkpt>
      <trkpt lat="50.50990398041904" lon="9.227527985349298">
        <ele>742.27999999999997</ele>
        <time>2017-05-21T08:50:04Z</time>
      </trkpt>
      <trkpt lat="50.509918984025717" lon="9.227426983416081">
        <ele>742.75999999999999</ele>
        <time>2017-05-21T08:50:05Z</time>
      </trkpt>
      <trkpt lat="50.509952008724213" lon="9.227321036159992">
        <ele>743.24000000000001</ele>
        <time>2017-05-21T08:50:06Z</time>
      </trkpt>
      <trkpt lat="50.509996013715863" lon="9.227218022570014">
        <ele>743.24000000000001</ele>
        <time>2017-05-21T08:50:07Z</time>
      </trkpt>
      <trkpt lat="50.510057033970952" lon="9.227120038121939">
        <ele>744.20000000000005</ele>
        <time>2017-05-21T08:50:08Z</time>
      </trkpt>
      <trkpt lat="50.510114030912519" lon="9.227029010653496">
        <ele>744.20000000000005</ele>
        <time>2017-05-21T08:50:09Z</time>
      </trkpt>
      <trkpt lat="50.510167004540563" lon="9.226936977356672">
        <ele>744.67999999999995</ele>
        <time>2017-05-21T08:50:10Z</time>
      </trkpt>
      <trkpt lat="50.510221989825368" lon="9.226861959323287">
        <ele>745.15999999999997</ele>
        <time>2017-05-21T08:50:11Z</time>
      </trkpt>
      <trkpt lat="50.510475961491466" lon="9.226554008200765">
        <ele>746.60000000000002</ele>
        <time>2017-05-21T08:50:19Z</time>
      </trkpt>
      <trkpt lat="50.51048300229013" lon="9.226530035957694">
        <ele>746.60000000000002</ele>
        <time>2017-05-21T08:50:20Z</time>
      </trkpt>
      <trkpt lat="50.510513009503484" lon="9.226401960477233">
        <ele>747.55999999999995</ele>
        <time>2017-05-21T08:50:38Z</time>
      </trkpt>
      <trkpt lat="50.510532036423683" lon="9.226364996284246">
        <ele>754.76999999999998</ele>
        <time>2017-05-21T09:11:43Z</time>
      </trkpt>
      <trkpt lat="50.510518038645387" lon="9.226316967979074">
        <ele>748.51999999999998</ele>
        <time>2017-05-21T09:12:48Z</time>
      </trkpt>
      <trkpt lat="50.510492976754904" lon="9.226284027099609">
        <ele>748.51999999999998</ele>
        <time>2017-05-21T09:12:58Z</time>
      </trkpt>
      <trkpt lat="50.510411001741886" lon="9.226355021819472">
        <ele>749</ele>
        <time>2017-05-21T09:13:02Z</time>
      </trkpt>
      <trkpt lat="50.510283010080457" lon="9.226544033735991">
        <ele>748.51999999999998</ele>
        <time>2017-05-21T09:13:06Z</time>
      </trkpt>
      <trkpt lat="50.509840026497841" lon="9.227114003151655">
        <ele>746.12</ele>
        <time>2017-05-21T09:13:17Z</time>
      </trkpt>
      <trkpt lat="50.509822005406022" lon="9.227183992043138">
        <ele>746.12</ele>
        <time>2017-05-21T09:13:18Z</time>
      </trkpt>
      <trkpt lat="50.509822005406022" lon="9.227247023954988">
        <ele>746.12</ele>
        <time>2017-05-21T09:13:19Z</time>
      </trkpt>
      <trkpt lat="50.509827034547925" lon="9.227310977876186">
        <ele>746.12</ele>
        <time>2017-05-21T09:13:20Z</time>
      </trkpt>
      <trkpt lat="50.509836003184319" lon="9.227376021444798">
        <ele>746.12</ele>
        <time>2017-05-21T09:13:21Z</time>
      </trkpt>
      <trkpt lat="50.509867016226053" lon="9.227651031687856">
        <ele>744.67999999999995</ele>
        <time>2017-05-21T09:13:25Z</time>
      </trkpt>
      <trkpt lat="50.509898029267788" lon="9.228663984686136">
        <ele>740.35000000000002</ele>
        <time>2017-05-21T09:13:33Z</time>
      </trkpt>
      <trkpt lat="50.509913032874465" lon="9.228831036016345">
        <ele>739.87</ele>
        <time>2017-05-21T09:13:34Z</time>
      </trkpt>
      <trkpt lat="50.509973969310522" lon="9.22916597686708">
        <ele>738.42999999999995</ele>
        <time>2017-05-21T09:13:36Z</time>
      </trkpt>
      <trkpt lat="50.510014034807682" lon="9.229333028197289">
        <ele>737.95000000000005</ele>
        <time>2017-05-21T09:13:37Z</time>
      </trkpt>
      <trkpt lat="50.510066002607346" lon="9.22950703650713">
        <ele>738.90999999999997</ele>
        <time>2017-05-21T09:13:38Z</time>
      </trkpt>
      <trkpt lat="50.510129034519196" lon="9.229667969048023">
        <ele>737.95000000000005</ele>
        <time>2017-05-21T09:13:39Z</time>
      </trkpt>
      <trkpt lat="50.510202962905169" lon="9.229823034256697">
        <ele>737.47000000000003</ele>
        <time>2017-05-21T09:13:40Z</time>
      </trkpt>
      <trkpt lat="50.510287033393979" lon="9.229974998161197">
        <ele>736.50999999999999</ele>
        <time>2017-05-21T09:13:41Z</time>
      </trkpt>
      <trkpt lat="50.510378982871771" lon="9.230113970115781">
        <ele>736.02999999999997</ele>
        <time>2017-05-21T09:13:42Z</time>
      </trkpt>
      <trkpt lat="50.510478978976607" lon="9.230249002575874">
        <ele>736.02999999999997</ele>
        <time>2017-05-21T09:13:43Z</time>
      </trkpt>
      <trkpt lat="50.511145005002618" lon="9.231303026899695">
        <ele>734.58000000000004</ele>
        <time>2017-05-21T09:13:50Z</time>
      </trkpt>
      <trkpt lat="50.51132395863533" lon="9.231718014925718">
        <ele>734.10000000000002</ele>
        <time>2017-05-21T09:13:52Z</time>
      </trkpt>
      <trkpt lat="50.511393025517464" lon="9.231963017955422">
        <ele>733.62</ele>
        <time>2017-05-21T09:13:53Z</time>
      </trkpt>
      <trkpt lat="50.511441975831985" lon="9.232201986014843">
        <ele>733.62</ele>
        <time>2017-05-21T09:13:54Z</time>
      </trkpt>
      <trkpt lat="50.511645991355181" lon="9.233235977590084">
        <ele>733.13999999999999</ele>
        <time>2017-05-21T09:13:59Z</time>
      </trkpt>
      <trkpt lat="50.511720003560185" lon="9.233394982293248">
        <ele>732.65999999999997</ele>
        <time>2017-05-21T09:14:00Z</time>
      </trkpt>
      <trkpt lat="50.511806001886725" lon="9.233532026410103">
        <ele>731.70000000000005</ele>
        <time>2017-05-21T09:14:01Z</time>
      </trkpt>
      <trkpt lat="50.511884959414601" lon="9.233644008636475">
        <ele>731.70000000000005</ele>
        <time>2017-05-21T09:14:02Z</time>
      </trkpt>
      <trkpt lat="50.511968024075031" lon="9.233733024448156">
        <ele>731.22000000000003</ele>
        <time>2017-05-21T09:14:03Z</time>
      </trkpt>
      <trkpt lat="50.512041030451655" lon="9.233814999461174">
        <ele>730.74000000000001</ele>
        <time>2017-05-21T09:14:04Z</time>
      </trkpt>
      <trkpt lat="50.512244962155819" lon="9.234205009415746">
        <ele>729.29999999999995</ele>
        <time>2017-05-21T09:14:07Z</time>
      </trkpt>
      <trkpt lat="50.512344036251307" lon="9.234337024390698">
        <ele>728.82000000000005</ele>
        <time>2017-05-21T09:14:08Z</time>
      </trkpt>
      <trkpt lat="50.513490010052919" lon="9.235427007079125">
        <ele>726.88999999999999</ele>
        <time>2017-05-21T09:14:16Z</time>
      </trkpt>
      <trkpt lat="50.514668002724648" lon="9.2369220033288">
        <ele>735.54999999999995</ele>
        <time>2017-05-21T09:14:24Z</time>
      </trkpt>
      <trkpt lat="50.514779984951019" lon="9.237187961116433">
        <ele>736.50999999999999</ele>
        <time>2017-05-21T09:14:25Z</time>
      </trkpt>
      <trkpt lat="50.514885010197759" lon="9.237468000501394">
        <ele>736.50999999999999</ele>
        <time>2017-05-21T09:14:26Z</time>
      </trkpt>
      <trkpt lat="50.514971008524299" lon="9.237782992422581">
        <ele>737.47000000000003</ele>
        <time>2017-05-21T09:14:27Z</time>
      </trkpt>
      <trkpt lat="50.515046026557684" lon="9.238107036799192">
        <ele>737.95000000000005</ele>
        <time>2017-05-21T09:14:28Z</time>
      </trkpt>
      <trkpt lat="50.51510201767087" lon="9.238470979034901">
        <ele>739.87</ele>
        <time>2017-05-21T09:14:29Z</time>
      </trkpt>
      <trkpt lat="50.515706017613411" lon="9.24203303642571">
        <ele>746.60000000000002</ele>
        <time>2017-05-21T09:14:39Z</time>
      </trkpt>
      <trkpt lat="50.516245979815722" lon="9.244915992021561">
        <ele>743.72000000000003</ele>
        <time>2017-05-21T09:14:47Z</time>
      </trkpt>
      <trkpt lat="50.516360979527235" lon="9.245249005034566">
        <ele>742.27999999999997</ele>
        <time>2017-05-21T09:14:48Z</time>
      </trkpt>
      <trkpt lat="50.516491988673806" lon="9.245574977248907">
        <ele>740.35000000000002</ele>
        <time>2017-05-21T09:14:49Z</time>
      </trkpt>
      <trkpt lat="50.516647975891829" lon="9.245884018018842">
        <ele>739.38999999999999</ele>
        <time>2017-05-21T09:14:50Z</time>
      </trkpt>
      <trkpt lat="50.516811003908515" lon="9.246196998283267">
        <ele>738.90999999999997</ele>
        <time>2017-05-21T09:14:51Z</time>
      </trkpt>
      <trkpt lat="50.517834015190601" lon="9.248043028637767">
        <ele>731.22000000000003</ele>
        <time>2017-05-21T09:14:57Z</time>
      </trkpt>
      <trkpt lat="50.518041970208287" lon="9.248276967555285">
        <ele>730.25999999999999</ele>
        <time>2017-05-21T09:14:58Z</time>
      </trkpt>
      <trkpt lat="50.518271969631314" lon="9.248478971421719">
        <ele>729.29999999999995</ele>
        <time>2017-05-21T09:14:59Z</time>
      </trkpt>
      <trkpt lat="50.520010963082314" lon="9.24955302849412">
        <ele>724.49000000000001</ele>
        <time>2017-05-21T09:15:06Z</time>
      </trkpt>
      <trkpt lat="50.520257977768779" lon="9.249630980193615">
        <ele>724.00999999999999</ele>
        <time>2017-05-21T09:15:07Z</time>
      </trkpt>
      <trkpt lat="50.521427001804113" lon="9.249842036515474">
        <ele>719.67999999999995</ele>
        <time>2017-05-21T09:15:12Z</time>
      </trkpt>
      <trkpt lat="50.521669993177056" lon="9.250013027340174">
        <ele>719.20000000000005</ele>
        <time>2017-05-21T09:15:14Z</time>
      </trkpt>
      <trkpt lat="50.521737970411777" lon="9.250173037871718">
        <ele>718.72000000000003</ele>
        <time>2017-05-21T09:15:15Z</time>
      </trkpt>
      <trkpt lat="50.521777030080557" lon="9.250364983454347">
        <ele>718.24000000000001</ele>
        <time>2017-05-21T09:15:16Z</time>
      </trkpt>
      <trkpt lat="50.521774012595415" lon="9.250600012019277">
        <ele>717.75999999999999</ele>
        <time>2017-05-21T09:15:17Z</time>
      </trkpt>
      <trkpt lat="50.521753979846835" lon="9.250815007835627">
        <ele>716.79999999999995</ele>
        <time>2017-05-21T09:15:18Z</time>
      </trkpt>
      <trkpt lat="50.521635040640831" lon="9.251022962853313">
        <ele>713.91999999999996</ele>
        <time>2017-05-21T09:15:19Z</time>
      </trkpt>
      <trkpt lat="50.521537978202105" lon="9.251222033053637">
        <ele>712.95000000000005</ele>
        <time>2017-05-21T09:15:20Z</time>
      </trkpt>
      <trkpt lat="50.521417027339339" lon="9.251346001401544">
        <ele>713.44000000000005</ele>
        <time>2017-05-21T09:15:21Z</time>
      </trkpt>
      <trkpt lat="50.521229021251202" lon="9.251375002786517">
        <ele>712.95000000000005</ele>
        <time>2017-05-21T09:15:22Z</time>
      </trkpt>
      <trkpt lat="50.521049983799458" lon="9.251386988908052">
        <ele>712.47000000000003</ele>
        <time>2017-05-21T09:15:23Z</time>
      </trkpt>
      <trkpt lat="50.520870024338365" lon="9.251384977251291">
        <ele>711.99000000000001</ele>
        <time>2017-05-21T09:15:24Z</time>
      </trkpt>
      <trkpt lat="50.520687969401479" lon="9.251404004171491">
        <ele>711.02999999999997</ele>
        <time>2017-05-21T09:15:25Z</time>
      </trkpt>
      <trkpt lat="50.520469034090638" lon="9.251496037468314">
        <ele>707.19000000000005</ele>
        <time>2017-05-21T09:15:26Z</time>
      </trkpt>
      <trkpt lat="50.520317992195487" lon="9.251634003594518">
        <ele>705.25999999999999</ele>
        <time>2017-05-21T09:15:27Z</time>
      </trkpt>
      <trkpt lat="50.520186983048916" lon="9.251795019954443">
        <ele>703.34000000000003</ele>
        <time>2017-05-21T09:15:28Z</time>
      </trkpt>
      <trkpt lat="50.520091010257602" lon="9.251991994678974">
        <ele>701.89999999999998</ele>
        <time>2017-05-21T09:15:29Z</time>
      </trkpt>
      <trkpt lat="50.520039964467287" lon="9.252213025465608">
        <ele>699.98000000000002</ele>
        <time>2017-05-21T09:15:30Z</time>
      </trkpt>
      <trkpt lat="50.520029990002513" lon="9.252472026273608">
        <ele>699.5</ele>
        <time>2017-05-21T09:15:31Z</time>
      </trkpt>
      <trkpt lat="50.520050022751093" lon="9.252744019031525">
        <ele>698.52999999999997</ele>
        <time>2017-05-21T09:15:32Z</time>
      </trkpt>
      <trkpt lat="50.520071983337402" lon="9.253019029274583">
        <ele>698.52999999999997</ele>
        <time>2017-05-21T09:15:33Z</time>
      </trkpt>
      <trkpt lat="50.520214978605509" lon="9.254543026909232">
        <ele>697.57000000000005</ele>
        <time>2017-05-21T09:15:38Z</time>
      </trkpt>
      <trkpt lat="50.520062008872628" lon="9.256260981783271">
        <ele>696.13</ele>
        <time>2017-05-21T09:15:43Z</time>
      </trkpt>
      <trkpt lat="50.51972103305161" lon="9.257595967501402">
        <ele>695.16999999999996</ele>
        <time>2017-05-21T09:15:47Z</time>
      </trkpt>
      <trkpt lat="50.519601004198194" lon="9.257904002442956">
        <ele>694.69000000000005</ele>
        <time>2017-05-21T09:15:48Z</time>
      </trkpt>
      <trkpt lat="50.519462032243609" lon="9.258200973272324">
        <ele>695.64999999999998</ele>
        <time>2017-05-21T09:15:49Z</time>
      </trkpt>
      <trkpt lat="50.518525019288063" lon="9.259852040559053">
        <ele>692.28999999999996</ele>
        <time>2017-05-21T09:15:55Z</time>
      </trkpt>
      <trkpt lat="50.518404990434647" lon="9.260134007781744">
        <ele>692.28999999999996</ele>
        <time>2017-05-21T09:15:56Z</time>
      </trkpt>
      <trkpt lat="50.518314968794584" lon="9.260441036894918">
        <ele>691.80999999999995</ele>
        <time>2017-05-21T09:15:57Z</time>
      </trkpt>
      <trkpt lat="50.518268030136824" lon="9.260781006887555">
        <ele>691.33000000000004</ele>
        <time>2017-05-21T09:15:58Z</time>
      </trkpt>
      <trkpt lat="50.518242968246341" lon="9.261116031557322">
        <ele>690.84000000000003</ele>
        <time>2017-05-21T09:15:59Z</time>
      </trkpt>
      <trkpt lat="50.518250009045005" lon="9.261445021256805">
        <ele>690.36000000000001</ele>
        <time>2017-05-21T09:16:00Z</time>
      </trkpt>
      <trkpt lat="50.518288984894753" lon="9.261784991249442">
        <ele>689.88</ele>
        <time>2017-05-21T09:16:01Z</time>
      </trkpt>
      <trkpt lat="50.518358973786235" lon="9.262106018140912">
        <ele>687.48000000000002</ele>
        <time>2017-05-21T09:16:02Z</time>
      </trkpt>
      <trkpt lat="50.518455030396581" lon="9.262440036982298">
        <ele>686.03999999999996</ele>
        <time>2017-05-21T09:16:03Z</time>
      </trkpt>
      <trkpt lat="50.51856198348105" lon="9.262775983661413">
        <ele>685.08000000000004</ele>
        <time>2017-05-21T09:16:04Z</time>
      </trkpt>
      <trkpt lat="50.519157014787197" lon="9.264816977083683">
        <ele>682.66999999999996</ele>
        <time>2017-05-21T09:16:10Z</time>
      </trkpt>
      <trkpt lat="50.519190961495042" lon="9.265146972611547">
        <ele>682.66999999999996</ele>
        <time>2017-05-21T09:16:11Z</time>
      </trkpt>
      <trkpt lat="50.519198002293706" lon="9.265480991452932">
        <ele>681.71000000000004</ele>
        <time>2017-05-21T09:16:12Z</time>
      </trkpt>
      <trkpt lat="50.519171012565494" lon="9.265809981152415">
        <ele>681.23000000000002</ele>
        <time>2017-05-21T09:16:13Z</time>
      </trkpt>
      <trkpt lat="50.519110998138785" lon="9.266120027750731">
        <ele>680.26999999999998</ele>
        <time>2017-05-21T09:16:14Z</time>
      </trkpt>
      <trkpt lat="50.519005972892046" lon="9.266415992751718">
        <ele>679.30999999999995</ele>
        <time>2017-05-21T09:16:15Z</time>
      </trkpt>
      <trkpt lat="50.518887033686042" lon="9.266705000773072">
        <ele>678.35000000000002</ele>
        <time>2017-05-21T09:16:16Z</time>
      </trkpt>
      <trkpt lat="50.517872991040349" lon="9.269028967246413">
        <ele>665.85000000000002</ele>
        <time>2017-05-21T09:16:24Z</time>
      </trkpt>
      <trkpt lat="50.51778799854219" lon="9.269361980259419">
        <ele>664.88999999999999</ele>
        <time>2017-05-21T09:16:25Z</time>
      </trkpt>
      <trkpt lat="50.517440987750888" lon="9.271606989204884">
        <ele>659.12</ele>
        <time>2017-05-21T09:16:32Z</time>
      </trkpt>
      <trkpt lat="50.517453979700804" lon="9.271927010267973">
        <ele>658.63999999999999</ele>
        <time>2017-05-21T09:16:33Z</time>
      </trkpt>
      <trkpt lat="50.517483986914158" lon="9.272248959168792">
        <ele>657.67999999999995</ele>
        <time>2017-05-21T09:16:34Z</time>
      </trkpt>
      <trkpt lat="50.517533021047711" lon="9.272571997717023">
        <ele>656.72000000000003</ele>
        <time>2017-05-21T09:16:35Z</time>
      </trkpt>
      <trkpt lat="50.517590017989278" lon="9.272894030436873">
        <ele>656.24000000000001</ele>
        <time>2017-05-21T09:16:36Z</time>
      </trkpt>
      <trkpt lat="50.518361991271377" lon="9.27591897547245">
        <ele>645.65999999999997</ele>
        <time>2017-05-21T09:16:46Z</time>
      </trkpt>
      <trkpt lat="50.519137987866998" lon="9.278286024928093">
        <ele>635.09000000000003</ele>
        <time>2017-05-21T09:16:55Z</time>
      </trkpt>
      <trkpt lat="50.51954903639853" lon="9.280836973339319">
        <ele>627.88</ele>
        <time>2017-05-21T09:17:03Z</time>
      </trkpt>
      <trkpt lat="50.519575020298362" lon="9.282932030037046">
        <ele>622.11000000000001</ele>
        <time>2017-05-21T09:17:08Z</time>
      </trkpt>
      <trkpt lat="50.519526991993189" lon="9.286001985892654">
        <ele>611.05999999999995</ele>
        <time>2017-05-21T09:17:16Z</time>
      </trkpt>
      <trkpt lat="50.519847013056278" lon="9.287947006523609">
        <ele>605.28999999999996</ele>
        <time>2017-05-21T09:17:22Z</time>
      </trkpt>
      <trkpt lat="50.520408013835549" lon="9.290954014286399">
        <ele>600.96000000000004</ele>
        <time>2017-05-21T09:17:32Z</time>
      </trkpt>
      <trkpt lat="50.520713031291962" lon="9.294357988983393">
        <ele>593.75</ele>
        <time>2017-05-21T09:17:41Z</time>
      </trkpt>
      <trkpt lat="50.520725017413497" lon="9.296941962093115">
        <ele>590.38999999999999</ele>
        <time>2017-05-21T09:17:48Z</time>
      </trkpt>
      <trkpt lat="50.520569030195475" lon="9.298610966652632">
        <ele>585.10000000000002</ele>
        <time>2017-05-21T09:17:53Z</time>
      </trkpt>
      <trkpt lat="50.520590990781784" lon="9.298920007422566">
        <ele>583.65999999999997</ele>
        <time>2017-05-21T09:17:54Z</time>
      </trkpt>
      <trkpt lat="50.520638013258576" lon="9.299214966595173">
        <ele>582.70000000000005</ele>
        <time>2017-05-21T09:17:55Z</time>
      </trkpt>
      <trkpt lat="50.520704984664917" lon="9.299491988494992">
        <ele>581.73000000000002</ele>
        <time>2017-05-21T09:17:56Z</time>
      </trkpt>
      <trkpt lat="50.520794000476599" lon="9.299747971817851">
        <ele>580.76999999999998</ele>
        <time>2017-05-21T09:17:57Z</time>
      </trkpt>
      <trkpt lat="50.520921992138028" lon="9.299965985119343">
        <ele>579.33000000000004</ele>
        <time>2017-05-21T09:17:58Z</time>
      </trkpt>
      <trkpt lat="50.521063981577754" lon="9.300175029784441">
        <ele>578.37</ele>
        <time>2017-05-21T09:17:59Z</time>
      </trkpt>
      <trkpt lat="50.521230027079582" lon="9.30036898702383">
        <ele>577.88999999999999</ele>
        <time>2017-05-21T09:18:00Z</time>
      </trkpt>
      <trkpt lat="50.521417027339339" lon="9.300514999777079">
        <ele>576.45000000000005</ele>
        <time>2017-05-21T09:18:01Z</time>
      </trkpt>
      <trkpt lat="50.52163302898407" lon="9.300633016973734">
        <ele>573.08000000000004</ele>
        <time>2017-05-21T09:18:02Z</time>
      </trkpt>
      <trkpt lat="50.523297004401684" lon="9.301431979984045">
        <ele>564.90999999999997</ele>
        <time>2017-05-21T09:18:09Z</time>
      </trkpt>
      <trkpt lat="50.523934029042721" lon="9.30180799216032">
        <ele>560.59000000000003</ele>
        <time>2017-05-21T09:18:12Z</time>
      </trkpt>
      <trkpt lat="50.524106025695801" lon="9.302003961056471">
        <ele>558.65999999999997</ele>
        <time>2017-05-21T09:18:13Z</time>
      </trkpt>
      <trkpt lat="50.524230999872088" lon="9.302219962701201">
        <ele>557.70000000000005</ele>
        <time>2017-05-21T09:18:14Z</time>
      </trkpt>
      <trkpt lat="50.524318004027009" lon="9.30247200652957">
        <ele>556.74000000000001</ele>
        <time>2017-05-21T09:18:15Z</time>
      </trkpt>
      <trkpt lat="50.524348011240363" lon="9.302756991237402">
        <ele>555.29999999999995</ele>
        <time>2017-05-21T09:18:16Z</time>
      </trkpt>
      <trkpt lat="50.524350022897124" lon="9.303056979551911">
        <ele>554.82000000000005</ele>
        <time>2017-05-21T09:18:17Z</time>
      </trkpt>
      <trkpt lat="50.524324038997293" lon="9.303360991179943">
        <ele>553.86000000000001</ele>
        <time>2017-05-21T09:18:18Z</time>
      </trkpt>
      <trkpt lat="50.524226976558566" lon="9.303700039163232">
        <ele>551.92999999999995</ele>
        <time>2017-05-21T09:18:19Z</time>
      </trkpt>
      <trkpt lat="50.524111976847053" lon="9.304034980013967">
        <ele>550.49000000000001</ele>
        <time>2017-05-21T09:18:20Z</time>
      </trkpt>
      <trkpt lat="50.523984991014004" lon="9.304370004683733">
        <ele>549.04999999999995</ele>
        <time>2017-05-21T09:18:21Z</time>
      </trkpt>
      <trkpt lat="50.523404041305184" lon="9.306878037750721">
        <ele>541.36000000000001</ele>
        <time>2017-05-21T09:18:29Z</time>
      </trkpt>
      <trkpt lat="50.523461038246751" lon="9.308432964608073">
        <ele>534.14999999999998</ele>
        <time>2017-05-21T09:18:35Z</time>
      </trkpt>
      <trkpt lat="50.523484004661441" lon="9.308728007599711">
        <ele>532.71000000000004</ele>
        <time>2017-05-21T09:18:37Z</time>
      </trkpt>
      <trkpt lat="50.523488027974963" lon="9.308824986219406">
        <ele>532.23000000000002</ele>
        <time>2017-05-21T09:18:38Z</time>
      </trkpt>
      <trkpt lat="50.523461038246751" lon="9.308915007859469">
        <ele>531.75</ele>
        <time>2017-05-21T09:18:39Z</time>
      </trkpt>
      <trkpt lat="50.523405969142914" lon="9.308997988700867">
        <ele>531.26999999999998</ele>
        <time>2017-05-21T09:18:40Z</time>
      </trkpt>
      <trkpt lat="50.52333396859467" lon="9.309035036712885">
        <ele>527.41999999999996</ele>
        <time>2017-05-21T09:18:41Z</time>
      </trkpt>
      <trkpt lat="50.523220980539918" lon="9.309110976755619">
        <ele>527.41999999999996</ele>
        <time>2017-05-21T09:18:42Z</time>
      </trkpt>
      <trkpt lat="50.523089971393347" lon="9.309192029759288">
        <ele>526.46000000000004</ele>
        <time>2017-05-21T09:18:43Z</time>
      </trkpt>
      <trkpt lat="50.522151030600071" lon="9.309957968071103">
        <ele>520.69000000000005</ele>
        <time>2017-05-21T09:18:49Z</time>
      </trkpt>
      <trkpt lat="50.521329017356038" lon="9.311030013486743">
        <ele>510.12</ele>
        <time>2017-05-21T09:18:55Z</time>
      </trkpt>
      <trkpt lat="50.520372977480292" lon="9.312760960310698">
        <ele>491.37</ele>
        <time>2017-05-21T09:19:07Z</time>
      </trkpt>
      <trkpt lat="50.519123990088701" lon="9.315277962014079">
        <ele>472.13999999999999</ele>
        <time>2017-05-21T09:19:26Z</time>
      </trkpt>
      <trkpt lat="50.518931038677692" lon="9.316891981288791">
        <ele>466.38</ele>
        <time>2017-05-21T09:19:36Z</time>
      </trkpt>
      <trkpt lat="50.519208982586861" lon="9.318786961957812">
        <ele>459.17000000000002</ele>
        <time>2017-05-21T09:19:47Z</time>
      </trkpt>
      <trkpt lat="50.519818011671305" lon="9.32204500772059">
        <ele>448.58999999999997</ele>
        <time>2017-05-21T09:20:08Z</time>
      </trkpt>
      <trkpt lat="50.520322015509009" lon="9.324184991419315">
        <ele>440.89999999999998</ele>
        <time>2017-05-21T09:20:24Z</time>
      </trkpt>
      <trkpt lat="50.520900031551719" lon="9.326016018167138">
        <ele>435.13</ele>
        <time>2017-05-21T09:20:38Z</time>
      </trkpt>
      <trkpt lat="50.52167896181345" lon="9.327669013291597">
        <ele>430.32999999999998</ele>
        <time>2017-05-21T09:20:51Z</time>
      </trkpt>
      <trkpt lat="50.521735036745667" lon="9.327806979417801">
        <ele>429.85000000000002</ele>
        <time>2017-05-21T09:20:52Z</time>
      </trkpt>
      <trkpt lat="50.521875014528632" lon="9.328225990757346">
        <ele>430.32999999999998</ele>
        <time>2017-05-21T09:20:55Z</time>
      </trkpt>
      <trkpt lat="50.522222025319934" lon="9.329385962337256">
        <ele>429.37</ele>
        <time>2017-05-21T09:21:03Z</time>
      </trkpt>
      <trkpt lat="50.522324033081532" lon="9.330516010522842">
        <ele>427.44</ele>
        <time>2017-05-21T09:21:10Z</time>
      </trkpt>
      <trkpt lat="50.522306011989713" lon="9.330675015226007">
        <ele>426.95999999999998</ele>
        <time>2017-05-21T09:21:11Z</time>
      </trkpt>
      <trkpt lat="50.522269969806075" lon="9.330818010494113">
        <ele>426.48000000000002</ele>
        <time>2017-05-21T09:21:12Z</time>
      </trkpt>
      <trkpt lat="50.522139966487885" lon="9.331427961587906">
        <ele>425.51999999999998</ele>
        <time>2017-05-21T09:21:16Z</time>
      </trkpt>
      <trkpt lat="50.5221529584378" lon="9.331600964069367">
        <ele>425.04000000000002</ele>
        <time>2017-05-21T09:21:17Z</time>
      </trkpt>
      <trkpt lat="50.522184977307916" lon="9.331770027056336">
        <ele>425.04000000000002</ele>
        <time>2017-05-21T09:21:18Z</time>
      </trkpt>
      <trkpt lat="50.522231999784708" lon="9.331939006224275">
        <ele>424.56</ele>
        <time>2017-05-21T09:21:19Z</time>
      </trkpt>
      <trkpt lat="50.5222790222615" lon="9.332107985392213">
        <ele>424.07999999999998</ele>
        <time>2017-05-21T09:21:20Z</time>
      </trkpt>
      <trkpt lat="50.522871958091855" lon="9.333878997713327">
        <ele>422.16000000000003</ele>
        <time>2017-05-21T09:21:31Z</time>
      </trkpt>
      <trkpt lat="50.522954016923904" lon="9.333993997424841">
        <ele>421.68000000000001</ele>
        <time>2017-05-21T09:21:32Z</time>
      </trkpt>
      <trkpt lat="50.52305200137198" lon="9.334067003801465">
        <ele>421.68000000000001</ele>
        <time>2017-05-21T09:21:33Z</time>
      </trkpt>
      <trkpt lat="50.523159960284829" lon="9.33409902267158">
        <ele>421.68000000000001</ele>
        <time>2017-05-21T09:21:34Z</time>
      </trkpt>
      <trkpt lat="50.523273032158613" lon="9.3340980168432">
        <ele>421.68000000000001</ele>
        <time>2017-05-21T09:21:35Z</time>
      </trkpt>
      <trkpt lat="50.523379985243082" lon="9.334070021286607">
        <ele>421.19</ele>
        <time>2017-05-21T09:21:36Z</time>
      </trkpt>
      <trkpt lat="50.523501019924879" lon="9.334040014073253">
        <ele>421.19</ele>
        <time>2017-05-21T09:21:37Z</time>
      </trkpt>
      <trkpt lat="50.52462100982666" lon="9.33394898660481">
        <ele>421.68000000000001</ele>
        <time>2017-05-21T09:21:45Z</time>
      </trkpt>
      <trkpt lat="50.524797029793262" lon="9.334015036001802">
        <ele>422.16000000000003</ele>
        <time>2017-05-21T09:21:46Z</time>
      </trkpt>
      <trkpt lat="50.524975983425975" lon="9.334117965772748">
        <ele>422.16000000000003</ele>
        <time>2017-05-21T09:21:47Z</time>
      </trkpt>
      <trkpt lat="50.525149991735816" lon="9.334261966869235">
        <ele>422.16000000000003</ele>
        <time>2017-05-21T09:21:48Z</time>
      </trkpt>
      <trkpt lat="50.525318970903754" lon="9.334447961300612">
        <ele>422.16000000000003</ele>
        <time>2017-05-21T09:21:49Z</time>
      </trkpt>
      <trkpt lat="50.525486022233963" lon="9.334662035107613">
        <ele>422.63999999999999</ele>
        <time>2017-05-21T09:21:50Z</time>
      </trkpt>
      <trkpt lat="50.525646032765508" lon="9.334902008995414">
        <ele>422.63999999999999</ele>
        <time>2017-05-21T09:21:51Z</time>
      </trkpt>
      <trkpt lat="50.525799002498388" lon="9.33515296317637">
        <ele>422.16000000000003</ele>
        <time>2017-05-21T09:21:52Z</time>
      </trkpt>
      <trkpt lat="50.526267969980836" lon="9.335873974487186">
        <ele>422.16000000000003</ele>
        <time>2017-05-21T09:21:55Z</time>
      </trkpt>
      <trkpt lat="50.526456981897354" lon="9.336046976968646">
        <ele>422.16000000000003</ele>
        <time>2017-05-21T09:21:56Z</time>
      </trkpt>
      <trkpt lat="50.526672983542085" lon="9.336176980286837">
        <ele>422.16000000000003</ele>
        <time>2017-05-21T09:21:57Z</time>
      </trkpt>
      <trkpt lat="50.526898037642241" lon="9.336259961128235">
        <ele>422.63999999999999</ele>
        <time>2017-05-21T09:21:58Z</time>
      </trkpt>
      <trkpt lat="50.527131976559758" lon="9.336306983605027">
        <ele>422.63999999999999</ele>
        <time>2017-05-21T09:21:59Z</time>
      </trkpt>
      <trkpt lat="50.527373962104321" lon="9.336331961676478">
        <ele>422.16000000000003</ele>
        <time>2017-05-21T09:22:00Z</time>
      </trkpt>
      <trkpt lat="50.528808021917939" lon="9.3365069758147">
        <ele>422.63999999999999</ele>
        <time>2017-05-21T09:22:06Z</time>
      </trkpt>
      <trkpt lat="50.529039027169347" lon="9.336625998839736">
        <ele>422.63999999999999</ele>
        <time>2017-05-21T09:22:07Z</time>
      </trkpt>
      <trkpt lat="50.529258968308568" lon="9.336791038513184">
        <ele>422.16000000000003</ele>
        <time>2017-05-21T09:22:08Z</time>
      </trkpt>
      <trkpt lat="50.529462983831763" lon="9.337007040157914">
        <ele>422.16000000000003</ele>
        <time>2017-05-21T09:22:09Z</time>
      </trkpt>
      <trkpt lat="50.529644032940269" lon="9.337266962975264">
        <ele>421.68000000000001</ele>
        <time>2017-05-21T09:22:10Z</time>
      </trkpt>
      <trkpt lat="50.529791973531246" lon="9.337571980431676">
        <ele>421.68000000000001</ele>
        <time>2017-05-21T09:22:11Z</time>
      </trkpt>
      <trkpt lat="50.529905967414379" lon="9.337908010929823">
        <ele>421.68000000000001</ele>
        <time>2017-05-21T09:22:12Z</time>
      </trkpt>
      <trkpt lat="50.52999397739768" lon="9.338279999792576">
        <ele>421.68000000000001</ele>
        <time>2017-05-21T09:22:13Z</time>
      </trkpt>
      <trkpt lat="50.530058015137911" lon="9.338666992262006">
        <ele>421.68000000000001</ele>
        <time>2017-05-21T09:22:14Z</time>
      </trkpt>
      <trkpt lat="50.53009900264442" lon="9.339078040793538">
        <ele>421.68000000000001</ele>
        <time>2017-05-21T09:22:15Z</time>
      </trkpt>
      <trkpt lat="50.530124986544251" lon="9.3394910171628">
        <ele>421.19</ele>
        <time>2017-05-21T09:22:16Z</time>
      </trkpt>
      <trkpt lat="50.530137978494167" lon="9.339911034330726">
        <ele>421.19</ele>
        <time>2017-05-21T09:22:17Z</time>
      </trkpt>
      <trkpt lat="50.530512984842062" lon="9.34475501999259">
        <ele>418.31</ele>
        <time>2017-05-21T09:22:28Z</time>
      </trkpt>
      <trkpt lat="50.531077003106475" lon="9.347818018868566">
        <ele>418.79000000000002</ele>
        <time>2017-05-21T09:22:36Z</time>
      </trkpt>
      <trkpt lat="50.531172975897789" lon="9.348122030496597">
        <ele>418.79000000000002</ele>
        <time>2017-05-21T09:22:37Z</time>
      </trkpt>
      <trkpt lat="50.531289987266064" lon="9.348416989669204">
        <ele>418.31</ele>
        <time>2017-05-21T09:22:38Z</time>
      </trkpt>
      <trkpt lat="50.531434994190931" lon="9.348699962720275">
        <ele>417.82999999999998</ele>
        <time>2017-05-21T09:22:39Z</time>
      </trkpt>
      <trkpt lat="50.531602967530489" lon="9.348962986841798">
        <ele>417.35000000000002</ele>
        <time>2017-05-21T09:22:40Z</time>
      </trkpt>
      <trkpt lat="50.531793991103768" lon="9.349194997921586">
        <ele>416.87</ele>
        <time>2017-05-21T09:22:41Z</time>
      </trkpt>
      <trkpt lat="50.532005969434977" lon="9.349391972646117">
        <ele>416.87</ele>
        <time>2017-05-21T09:22:42Z</time>
      </trkpt>
      <trkpt lat="50.532234041020274" lon="9.349550977349281">
        <ele>416.87</ele>
        <time>2017-05-21T09:22:43Z</time>
      </trkpt>
      <trkpt lat="50.532478038221598" lon="9.349670000374317">
        <ele>416.87</ele>
        <time>2017-05-21T09:22:44Z</time>
      </trkpt>
      <trkpt lat="50.532729998230934" lon="9.349752981215715">
        <ele>416.87</ele>
        <time>2017-05-21T09:22:45Z</time>
      </trkpt>
      <trkpt lat="50.532994028180838" lon="9.34980696067214">
        <ele>417.35000000000002</ele>
        <time>2017-05-21T09:22:46Z</time>
      </trkpt>
      <trkpt lat="50.535745974630117" lon="9.350646995007992">
        <ele>425.51999999999998</ele>
        <time>2017-05-21T09:22:56Z</time>
      </trkpt>
      <trkpt lat="50.538504039868712" lon="9.351904029026628">
        <ele>433.20999999999998</ele>
        <time>2017-05-21T09:23:07Z</time>
      </trkpt>
      <trkpt lat="50.538916010409594" lon="9.352191025391221">
        <ele>433.20999999999998</ele>
        <time>2017-05-21T09:23:09Z</time>
      </trkpt>
      <trkpt lat="50.539113990962505" lon="9.352391017600894">
        <ele>433.69</ele>
        <time>2017-05-21T09:23:10Z</time>
      </trkpt>
      <trkpt lat="50.539292022585869" lon="9.352635014802218">
        <ele>433.20999999999998</ele>
        <time>2017-05-21T09:23:11Z</time>
      </trkpt>
      <trkpt lat="50.539452033117414" lon="9.352922011166811">
        <ele>433.20999999999998</ele>
        <time>2017-05-21T09:23:12Z</time>
      </trkpt>
      <trkpt lat="50.539582958444953" lon="9.353240020573139">
        <ele>433.69</ele>
        <time>2017-05-21T09:23:13Z</time>
      </trkpt>
      <trkpt lat="50.539685972034931" lon="9.353583008050919">
        <ele>434.17000000000002</ele>
        <time>2017-05-21T09:23:14Z</time>
      </trkpt>
      <trkpt lat="50.539761995896697" lon="9.353938987478614">
        <ele>435.13</ele>
        <time>2017-05-21T09:23:15Z</time>
      </trkpt>
      <trkpt lat="50.539803989231586" lon="9.35429597273469">
        <ele>436.57999999999998</ele>
        <time>2017-05-21T09:23:16Z</time>
      </trkpt>
      <trkpt lat="50.539814969524741" lon="9.35463803820312">
        <ele>438.01999999999998</ele>
        <time>2017-05-21T09:23:17Z</time>
      </trkpt>
      <trkpt lat="50.539795020595193" lon="9.354972979053855">
        <ele>439.94</ele>
        <time>2017-05-21T09:23:18Z</time>
      </trkpt>
      <trkpt lat="50.539755038917065" lon="9.355298029258847">
        <ele>441.86000000000001</ele>
        <time>2017-05-21T09:23:19Z</time>
      </trkpt>
      <trkpt lat="50.539702987298369" lon="9.355587037280202">
        <ele>443.31</ele>
        <time>2017-05-21T09:23:20Z</time>
      </trkpt>
      <trkpt lat="50.539645990356803" lon="9.35586104169488">
        <ele>444.75</ele>
        <time>2017-05-21T09:23:21Z</time>
      </trkpt>
      <trkpt lat="50.539612965658307" lon="9.356125993654132">
        <ele>446.19</ele>
        <time>2017-05-21T09:23:22Z</time>
      </trkpt>
      <trkpt lat="50.539611037820578" lon="9.356366973370314">
        <ele>447.14999999999998</ele>
        <time>2017-05-21T09:23:23Z</time>
      </trkpt>
      <trkpt lat="50.539630986750126" lon="9.356565959751606">
        <ele>448.11000000000001</ele>
        <time>2017-05-21T09:23:24Z</time>
      </trkpt>
      <trkpt lat="50.53966099396348" lon="9.356718007475138">
        <ele>448.58999999999997</ele>
        <time>2017-05-21T09:23:25Z</time>
      </trkpt>
      <trkpt lat="50.539682032540441" lon="9.356839964166284">
        <ele>448.58999999999997</ele>
        <time>2017-05-21T09:23:26Z</time>
      </trkpt>
      <trkpt lat="50.539683038368821" lon="9.356950018554926">
        <ele>449.06999999999999</ele>
        <time>2017-05-21T09:23:27Z</time>
      </trkpt>
      <trkpt lat="50.539650013670325" lon="9.357058983296156">
        <ele>450.02999999999997</ele>
        <time>2017-05-21T09:23:28Z</time>
      </trkpt>
      <trkpt lat="50.539578013122082" lon="9.357169959694147">
        <ele>451</ele>
        <time>2017-05-21T09:23:29Z</time>
      </trkpt>
      <trkpt lat="50.539477011188865" lon="9.357290994375944">
        <ele>451.48000000000002</ele>
        <time>2017-05-21T09:23:30Z</time>
      </trkpt>
      <trkpt lat="50.539357988163829" lon="9.357417980208993">
        <ele>451.48000000000002</ele>
        <time>2017-05-21T09:23:31Z</time>
      </trkpt>
      <trkpt lat="50.538240009918809" lon="9.358597984537482">
        <ele>449.55000000000001</ele>
        <time>2017-05-21T09:23:38Z</time>
      </trkpt>
      <trkpt lat="50.538073964416981" lon="9.358815997838974">
        <ele>449.06999999999999</ele>
        <time>2017-05-21T09:23:39Z</time>
      </trkpt>
      <trkpt lat="50.537918983027339" lon="9.359068041667342">
        <ele>448.11000000000001</ele>
        <time>2017-05-21T09:23:40Z</time>
      </trkpt>
      <trkpt lat="50.537785962224007" lon="9.359356965869665">
        <ele>448.11000000000001</ele>
        <time>2017-05-21T09:23:41Z</time>
      </trkpt>
      <trkpt lat="50.537680014967918" lon="9.359672963619232">
        <ele>447.14999999999998</ele>
        <time>2017-05-21T09:23:42Z</time>
      </trkpt>
      <trkpt lat="50.53759602829814" lon="9.360000025480986">
        <ele>446.67000000000002</ele>
        <time>2017-05-21T09:23:43Z</time>
      </trkpt>
      <trkpt lat="50.537537019699812" lon="9.36033496633172">
        <ele>446.19</ele>
        <time>2017-05-21T09:23:44Z</time>
      </trkpt>
      <trkpt lat="50.537509024143219" lon="9.360682982951403">
        <ele>445.70999999999998</ele>
        <time>2017-05-21T09:23:45Z</time>
      </trkpt>
      <trkpt lat="50.537508018314838" lon="9.361036028712988">
        <ele>445.70999999999998</ele>
        <time>2017-05-21T09:23:46Z</time>
      </trkpt>
      <trkpt lat="50.537537019699812" lon="9.361395025625825">
        <ele>444.75</ele>
        <time>2017-05-21T09:23:47Z</time>
      </trkpt>
      <trkpt lat="50.537590999156237" lon="9.361765002831817">
        <ele>444.75</ele>
        <time>2017-05-21T09:23:48Z</time>
      </trkpt>
      <trkpt lat="50.537655958905816" lon="9.362131040543318">
        <ele>444.26999999999998</ele>
        <time>2017-05-21T09:23:49Z</time>
      </trkpt>
      <trkpt lat="50.538484007120132" lon="9.366793977096677">
        <ele>438.01999999999998</ele>
        <time>2017-05-21T09:24:01Z</time>
      </trkpt>
      <trkpt lat="50.538589032366872" lon="9.3695920240134">
        <ele>433.69</ele>
        <time>2017-05-21T09:24:08Z</time>
      </trkpt>
      <trkpt lat="50.538213020190597" lon="9.372318992391229">
        <ele>430.32999999999998</ele>
        <time>2017-05-21T09:24:15Z</time>
      </trkpt>
      <trkpt lat="50.538144959136844" lon="9.37541401013732">
        <ele>426</ele>
        <time>2017-05-21T09:24:23Z</time>
      </trkpt>
      <trkpt lat="50.53817898966372" lon="9.3768759816885">
        <ele>425.04000000000002</ele>
        <time>2017-05-21T09:24:27Z</time>
      </trkpt>
      <trkpt lat="50.538139007985592" lon="9.37726397998631">
        <ele>425.04000000000002</ele>
        <time>2017-05-21T09:24:28Z</time>
      </trkpt>
      <trkpt lat="50.538078993558884" lon="9.377654995769262">
        <ele>424.56</ele>
        <time>2017-05-21T09:24:29Z</time>
      </trkpt>
      <trkpt lat="50.537739023566246" lon="9.380286997184157">
        <ele>421.19</ele>
        <time>2017-05-21T09:24:36Z</time>
      </trkpt>
      <trkpt lat="50.537670962512493" lon="9.380663009360433">
        <ele>419.75</ele>
        <time>2017-05-21T09:24:37Z</time>
      </trkpt>
      <trkpt lat="50.53757599554956" lon="9.381028041243553">
        <ele>418.31</ele>
        <time>2017-05-21T09:24:38Z</time>
      </trkpt>
      <trkpt lat="50.537458984181285" lon="9.381373040378094">
        <ele>417.82999999999998</ele>
        <time>2017-05-21T09:24:39Z</time>
      </trkpt>
      <trkpt lat="50.537325963377953" lon="9.381695995107293">
        <ele>417.35000000000002</ele>
        <time>2017-05-21T09:24:40Z</time>
      </trkpt>
      <trkpt lat="50.537186991423368" lon="9.38198802061379">
        <ele>416.87</ele>
        <time>2017-05-21T09:24:41Z</time>
      </trkpt>
      <trkpt lat="50.536380987614393" lon="9.383618971332908">
        <ele>416.87</ele>
        <time>2017-05-21T09:24:48Z</time>
      </trkpt>
      <trkpt lat="50.536075970157981" lon="9.384581968188286">
        <ele>416.38999999999999</ele>
        <time>2017-05-21T09:24:54Z</time>
      </trkpt>
      <trkpt lat="50.536058032885194" lon="9.38476100564003">
        <ele>416.87</ele>
        <time>2017-05-21T09:24:55Z</time>
      </trkpt>
      <trkpt lat="50.536049986258149" lon="9.384945994243026">
        <ele>416.87</ele>
        <time>2017-05-21T09:24:56Z</time>
      </trkpt>
      <trkpt lat="50.536125004291534" lon="9.387216987088323">
        <ele>413.98000000000002</ele>
        <time>2017-05-21T09:25:09Z</time>
      </trkpt>
      <trkpt lat="50.536100026220083" lon="9.387345984578133">
        <ele>413.98000000000002</ele>
        <time>2017-05-21T09:25:10Z</time>
      </trkpt>
      <trkpt lat="50.536059960722923" lon="9.387442963197827">
        <ele>413.5</ele>
        <time>2017-05-21T09:25:11Z</time>
      </trkpt>
      <trkpt lat="50.536004975438118" lon="9.38761998899281">
        <ele>413.01999999999998</ele>
        <time>2017-05-21T09:25:13Z</time>
      </trkpt>
      <trkpt lat="50.536004975438118" lon="9.387750998139381">
        <ele>412.54000000000002</ele>
        <time>2017-05-21T09:25:14Z</time>
      </trkpt>
      <trkpt lat="50.536022996529937" lon="9.387892987579107">
        <ele>412.06</ele>
        <time>2017-05-21T09:25:15Z</time>
      </trkpt>
      <trkpt lat="50.536377970129251" lon="9.389718985185027">
        <ele>412.54000000000002</ele>
        <time>2017-05-21T09:25:26Z</time>
      </trkpt>
      <trkpt lat="50.536576034501195" lon="9.390691034495831">
        <ele>414.47000000000003</ele>
        <time>2017-05-21T09:25:31Z</time>
      </trkpt>
      <trkpt lat="50.536847021430731" lon="9.393586982041597">
        <ele>417.35000000000002</ele>
        <time>2017-05-21T09:25:43Z</time>
      </trkpt>
      <trkpt lat="50.537421014159918" lon="9.395055994391441">
        <ele>417.35000000000002</ele>
        <time>2017-05-21T09:25:49Z</time>
      </trkpt>
      <trkpt lat="50.538369007408619" lon="9.396736985072494">
        <ele>415.43000000000001</ele>
        <time>2017-05-21T09:25:55Z</time>
      </trkpt>
      <trkpt lat="50.538489958271384" lon="9.397097993642092">
        <ele>414.94999999999999</ele>
        <time>2017-05-21T09:25:56Z</time>
      </trkpt>
      <trkpt lat="50.538588026538491" lon="9.397464031353593">
        <ele>413.98000000000002</ele>
        <time>2017-05-21T09:25:57Z</time>
      </trkpt>
      <trkpt lat="50.538658015429974" lon="9.397840965539217">
        <ele>413.01999999999998</ele>
        <time>2017-05-21T09:25:58Z</time>
      </trkpt>
      <trkpt lat="50.538709983229637" lon="9.398216977715492">
        <ele>411.57999999999998</ele>
        <time>2017-05-21T09:25:59Z</time>
      </trkpt>
      <trkpt lat="50.538742002099752" lon="9.398601958528161">
        <ele>410.62</ele>
        <time>2017-05-21T09:26:00Z</time>
      </trkpt>
      <trkpt lat="50.53875801153481" lon="9.398996997624636">
        <ele>409.66000000000003</ele>
        <time>2017-05-21T09:26:01Z</time>
      </trkpt>
      <trkpt lat="50.538923973217607" lon="9.401394976302981">
        <ele>400.52999999999997</ele>
        <time>2017-05-21T09:26:07Z</time>
      </trkpt>
      <trkpt lat="50.53901600651443" lon="9.401770988479257">
        <ele>400.05000000000001</ele>
        <time>2017-05-21T09:26:08Z</time>
      </trkpt>
      <trkpt lat="50.539128994569182" lon="9.402131997048855">
        <ele>400.52999999999997</ele>
        <time>2017-05-21T09:26:09Z</time>
      </trkpt>
      <trkpt lat="50.540038011968136" lon="9.404651010408998">
        <ele>401.97000000000003</ele>
        <time>2017-05-21T09:26:16Z</time>
      </trkpt>
      <trkpt lat="50.540298018604517" lon="9.406569041311741">
        <ele>396.68000000000001</ele>
        <time>2017-05-21T09:26:21Z</time>
      </trkpt>
      <trkpt lat="50.540368007495999" lon="9.408602993935347">
        <ele>387.06999999999999</ele>
        <time>2017-05-21T09:26:26Z</time>
      </trkpt>
      <trkpt lat="50.540430033579469" lon="9.408990992233157">
        <ele>385.14999999999998</ele>
        <time>2017-05-21T09:26:27Z</time>
      </trkpt>
      <trkpt lat="50.540521983057261" lon="9.409373961389065">
        <ele>383.22000000000003</ele>
        <time>2017-05-21T09:26:28Z</time>
      </trkpt>
      <trkpt lat="50.540635976940393" lon="9.409745028242469">
        <ele>381.77999999999997</ele>
        <time>2017-05-21T09:26:29Z</time>
      </trkpt>
      <trkpt lat="50.540765980258584" lon="9.410112993791699">
        <ele>380.33999999999997</ele>
        <time>2017-05-21T09:26:30Z</time>
      </trkpt>
      <trkpt lat="50.541738029569387" lon="9.413073984906077">
        <ele>378.42000000000002</ele>
        <time>2017-05-21T09:26:38Z</time>
      </trkpt>
      <trkpt lat="50.541940033435822" lon="9.415418989956379">
        <ele>376.97000000000003</ele>
        <time>2017-05-21T09:26:44Z</time>
      </trkpt>
      <trkpt lat="50.541703999042511" lon="9.417570037767291">
        <ele>376.49000000000001</ele>
        <time>2017-05-21T09:26:50Z</time>
      </trkpt>
      <trkpt lat="50.541409039869905" lon="9.419037960469723">
        <ele>375.05000000000001</ele>
        <time>2017-05-21T09:26:56Z</time>
      </trkpt>
      <trkpt lat="50.54133796133101" lon="9.421055987477303">
        <ele>370.24000000000001</ele>
        <time>2017-05-21T09:27:07Z</time>
      </trkpt>
      <trkpt lat="50.541074015200138" lon="9.422730021178722">
        <ele>370.24000000000001</ele>
        <time>2017-05-21T09:27:17Z</time>
      </trkpt>
      <trkpt lat="50.540437996387482" lon="9.42401303909719">
        <ele>369.27999999999997</ele>
        <time>2017-05-21T09:27:27Z</time>
      </trkpt>
      <trkpt lat="50.540124010294676" lon="9.424645034596324">
        <ele>369.27999999999997</ele>
        <time>2017-05-21T09:27:32Z</time>
      </trkpt>
      <trkpt lat="50.540081011131406" lon="9.424790041521192">
        <ele>369.27999999999997</ele>
        <time>2017-05-21T09:27:33Z</time>
      </trkpt>
      <trkpt lat="50.540052009746432" lon="9.424942005425692">
        <ele>369.27999999999997</ele>
        <time>2017-05-21T09:27:34Z</time>
      </trkpt>
      <trkpt lat="50.540028959512711" lon="9.425095980986953">
        <ele>369.27999999999997</ele>
        <time>2017-05-21T09:27:35Z</time>
      </trkpt>
      <trkpt lat="50.540015967562795" lon="9.425255991518498">
        <ele>369.27999999999997</ele>
        <time>2017-05-21T09:27:36Z</time>
      </trkpt>
      <trkpt lat="50.540009010583162" lon="9.425427988171578">
        <ele>369.75999999999999</ele>
        <time>2017-05-21T09:27:37Z</time>
      </trkpt>
      <trkpt lat="50.540019990876317" lon="9.425594033673406">
        <ele>369.75999999999999</ele>
        <time>2017-05-21T09:27:38Z</time>
      </trkpt>
      <trkpt lat="50.540048992261291" lon="9.425765024498105">
        <ele>369.75999999999999</ele>
        <time>2017-05-21T09:27:39Z</time>
      </trkpt>
      <trkpt lat="50.540094003081322" lon="9.42592503502965">
        <ele>370.24000000000001</ele>
        <time>2017-05-21T09:27:40Z</time>
      </trkpt>
      <trkpt lat="50.540157034993172" lon="9.426083033904433">
        <ele>370.24000000000001</ele>
        <time>2017-05-21T09:27:41Z</time>
      </trkpt>
      <trkpt lat="50.540229035541415" lon="9.426242038607597">
        <ele>370.73000000000002</ele>
        <time>2017-05-21T09:27:42Z</time>
      </trkpt>
      <trkpt lat="50.541066974401474" lon="9.427631003782153">
        <ele>376.00999999999999</ele>
        <time>2017-05-21T09:27:50Z</time>
      </trkpt>
      <trkpt lat="50.541179040446877" lon="9.427828984335065">
        <ele>376.49000000000001</ele>
        <time>2017-05-21T09:27:51Z</time>
      </trkpt>
      <trkpt lat="50.541278030723333" lon="9.428054038435221">
        <ele>376.97000000000003</ele>
        <time>2017-05-21T09:27:52Z</time>
      </trkpt>
      <trkpt lat="50.541366962715983" lon="9.428316978737712">
        <ele>378.89999999999998</ele>
        <time>2017-05-21T09:27:53Z</time>
      </trkpt>
      <trkpt lat="50.541437035426497" lon="9.42861202172935">
        <ele>379.86000000000001</ele>
        <time>2017-05-21T09:27:54Z</time>
      </trkpt>
      <trkpt lat="50.541495038196445" lon="9.428941011428833">
        <ele>381.30000000000001</ele>
        <time>2017-05-21T09:27:55Z</time>
      </trkpt>
      <trkpt lat="50.541556980460882" lon="9.429274024441838">
        <ele>382.25999999999999</ele>
        <time>2017-05-21T09:27:56Z</time>
      </trkpt>
      <trkpt lat="50.542025025933981" lon="9.431740986183286">
        <ele>387.55000000000001</ele>
        <time>2017-05-21T09:28:03Z</time>
      </trkpt>
      <trkpt lat="50.542127033695579" lon="9.43205002695322">
        <ele>388.50999999999999</ele>
        <time>2017-05-21T09:28:04Z</time>
      </trkpt>
      <trkpt lat="50.542257959023118" lon="9.432337023317814">
        <ele>389.47000000000003</ele>
        <time>2017-05-21T09:28:05Z</time>
      </trkpt>
      <trkpt lat="50.542416041716933" lon="9.432597029954195">
        <ele>389.94999999999999</ele>
        <time>2017-05-21T09:28:06Z</time>
      </trkpt>
      <trkpt lat="50.542598012834787" lon="9.4328230060637">
        <ele>390.91000000000003</ele>
        <time>2017-05-21T09:28:07Z</time>
      </trkpt>
      <trkpt lat="50.54279699921608" lon="9.433004977181554">
        <ele>391.87</ele>
        <time>2017-05-21T09:28:08Z</time>
      </trkpt>
      <trkpt lat="50.543009983375669" lon="9.43314403295517">
        <ele>391.87</ele>
        <time>2017-05-21T09:28:09Z</time>
      </trkpt>
      <trkpt lat="50.543234031647444" lon="9.433225002139807">
        <ele>390.91000000000003</ele>
        <time>2017-05-21T09:28:10Z</time>
      </trkpt>
      <trkpt lat="50.543466964736581" lon="9.433247968554497">
        <ele>389.94999999999999</ele>
        <time>2017-05-21T09:28:11Z</time>
      </trkpt>
      <trkpt lat="50.543701993301511" lon="9.433223996311426">
        <ele>389.94999999999999</ele>
        <time>2017-05-21T09:28:12Z</time>
      </trkpt>
      <trkpt lat="50.54393501020968" lon="9.433141015470028">
        <ele>389.47000000000003</ele>
        <time>2017-05-21T09:28:13Z</time>
      </trkpt>
      <trkpt lat="50.544169032946229" lon="9.433006988838315">
        <ele>388.50999999999999</ele>
        <time>2017-05-21T09:28:14Z</time>
      </trkpt>
      <trkpt lat="50.544403977692127" lon="9.432849995791912">
        <ele>387.55000000000001</ele>
        <time>2017-05-21T09:28:15Z</time>
      </trkpt>
      <trkpt lat="50.546336006373167" lon="9.431574018672109">
        <ele>376.97000000000003</ele>
        <time>2017-05-21T09:28:23Z</time>
      </trkpt>
      <trkpt lat="50.546561982482672" lon="9.43149397149682">
        <ele>376.00999999999999</ele>
        <time>2017-05-21T09:28:24Z</time>
      </trkpt>
      <trkpt lat="50.546791981905699" lon="9.431468993425369">
        <ele>374.56999999999999</ele>
        <time>2017-05-21T09:28:25Z</time>
      </trkpt>
      <trkpt lat="50.547027010470629" lon="9.431495983153582">
        <ele>373.61000000000001</ele>
        <time>2017-05-21T09:28:26Z</time>
      </trkpt>
      <trkpt lat="50.547265978530049" lon="9.431565972045064">
        <ele>372.17000000000002</ele>
        <time>2017-05-21T09:28:27Z</time>
      </trkpt>
      <trkpt lat="50.547515004873276" lon="9.431688012555242">
        <ele>370.73000000000002</ele>
        <time>2017-05-21T09:28:28Z</time>
      </trkpt>
      <trkpt lat="50.54776000790298" lon="9.431826984509826">
        <ele>369.75999999999999</ele>
        <time>2017-05-21T09:28:29Z</time>
      </trkpt>
      <trkpt lat="50.548698026686907" lon="9.432331994175911">
        <ele>362.06999999999999</ele>
        <time>2017-05-21T09:28:33Z</time>
      </trkpt>
      <trkpt lat="50.548926014453173" lon="9.432388991117477">
        <ele>360.63</ele>
        <time>2017-05-21T09:28:34Z</time>
      </trkpt>
      <trkpt lat="50.549161965027452" lon="9.432386979460716">
        <ele>358.23000000000002</ele>
        <time>2017-05-21T09:28:35Z</time>
      </trkpt>
      <trkpt lat="50.54939498193562" lon="9.432346997782588">
        <ele>356.79000000000002</ele>
        <time>2017-05-21T09:28:36Z</time>
      </trkpt>
      <trkpt lat="50.54963001050055" lon="9.432269968092442">
        <ele>355.33999999999997</ele>
        <time>2017-05-21T09:28:37Z</time>
      </trkpt>
      <trkpt lat="50.549868978559971" lon="9.432164020836353">
        <ele>353.89999999999998</ele>
        <time>2017-05-21T09:28:38Z</time>
      </trkpt>
      <trkpt lat="50.551269007846713" lon="9.431588016450405">
        <ele>344.29000000000002</ele>
        <time>2017-05-21T09:28:44Z</time>
      </trkpt>
      <trkpt lat="50.551494983956218" lon="9.431580975651741">
        <ele>342.85000000000002</ele>
        <time>2017-05-21T09:28:45Z</time>
      </trkpt>
      <trkpt lat="50.551730012521148" lon="9.431615006178618">
        <ele>341.88999999999999</ele>
        <time>2017-05-21T09:28:46Z</time>
      </trkpt>
      <trkpt lat="50.553895980119705" lon="9.432354960590601">
        <ele>331.79000000000002</ele>
        <time>2017-05-21T09:28:55Z</time>
      </trkpt>
      <trkpt lat="50.555428024381399" lon="9.433292979374528">
        <ele>325.06</ele>
        <time>2017-05-21T09:29:02Z</time>
      </trkpt>
      <trkpt lat="50.55669603869319" lon="9.43499400280416">
        <ele>321.22000000000003</ele>
        <time>2017-05-21T09:29:09Z</time>
      </trkpt>
      <trkpt lat="50.558013003319502" lon="9.436356984078884">
        <ele>315.93000000000001</ele>
        <time>2017-05-21T09:29:16Z</time>
      </trkpt>
      <trkpt lat="50.559690976515412" lon="9.437067015096545">
        <ele>310.63999999999999</ele>
        <time>2017-05-21T09:29:24Z</time>
      </trkpt>
      <trkpt lat="50.561968004330993" lon="9.438158003613353">
        <ele>319.30000000000001</ele>
        <time>2017-05-21T09:29:36Z</time>
      </trkpt>
      <trkpt lat="50.562123991549015" lon="9.438337041065097">
        <ele>320.25999999999999</ele>
        <time>2017-05-21T09:29:37Z</time>
      </trkpt>
      <trkpt lat="50.56226204149425" lon="9.43853703327477">
        <ele>321.22000000000003</ele>
        <time>2017-05-21T09:29:38Z</time>
      </trkpt>
      <trkpt lat="50.562380980700254" lon="9.43873300217092">
        <ele>321.69999999999999</ele>
        <time>2017-05-21T09:29:39Z</time>
      </trkpt>
      <trkpt lat="50.562486005946994" lon="9.438938023522496">
        <ele>322.66000000000003</ele>
        <time>2017-05-21T09:29:40Z</time>
      </trkpt>
      <trkpt lat="50.562769984826446" lon="9.439425012096763">
        <ele>324.10000000000002</ele>
        <time>2017-05-21T09:29:43Z</time>
      </trkpt>
      <trkpt lat="50.562854977324605" lon="9.439501035958529">
        <ele>324.10000000000002</ele>
        <time>2017-05-21T09:29:44Z</time>
      </trkpt>
      <trkpt lat="50.562931001186371" lon="9.439547974616289">
        <ele>324.10000000000002</ele>
        <time>2017-05-21T09:29:45Z</time>
      </trkpt>
      <trkpt lat="50.563073996454477" lon="9.439663980156183">
        <ele>323.62</ele>
        <time>2017-05-21T09:29:47Z</time>
      </trkpt>
      <trkpt lat="50.563141973689198" lon="9.439791971817613">
        <ele>323.62</ele>
        <time>2017-05-21T09:29:48Z</time>
      </trkpt>
      <trkpt lat="50.563201988115907" lon="9.439975032582879">
        <ele>323.13999999999999</ele>
        <time>2017-05-21T09:29:49Z</time>
      </trkpt>
      <trkpt lat="50.563690988346934" lon="9.441515039652586">
        <ele>319.30000000000001</ele>
        <time>2017-05-21T09:29:55Z</time>
      </trkpt>
      <trkpt lat="50.563892992213368" lon="9.443073989823461">
        <ele>313.52999999999997</ele>
        <time>2017-05-21T09:30:01Z</time>
      </trkpt>
      <trkpt lat="50.563996005803347" lon="9.444027012214065">
        <ele>309.19999999999999</ele>
        <time>2017-05-21T09:30:07Z</time>
      </trkpt>
      <trkpt lat="50.563973961398005" lon="9.444160033017397">
        <ele>308.24000000000001</ele>
        <time>2017-05-21T09:30:08Z</time>
      </trkpt>
      <trkpt lat="50.563926016911864" lon="9.444277966395021">
        <ele>308.24000000000001</ele>
        <time>2017-05-21T09:30:09Z</time>
      </trkpt>
      <trkpt lat="50.563867008313537" lon="9.444390032440424">
        <ele>307.27999999999997</ele>
        <time>2017-05-21T09:30:10Z</time>
      </trkpt>
      <trkpt lat="50.563802970573306" lon="9.444496985524893">
        <ele>307.27999999999997</ele>
        <time>2017-05-21T09:30:11Z</time>
      </trkpt>
      <trkpt lat="50.563098974525928" lon="9.445641031488776">
        <ele>301.50999999999999</ele>
        <time>2017-05-21T09:30:22Z</time>
      </trkpt>
      <trkpt lat="50.563034014776349" lon="9.445704985409975">
        <ele>301.02999999999997</ele>
        <time>2017-05-21T09:30:23Z</time>
      </trkpt>
      <trkpt lat="50.562964025884867" lon="9.445749996230006">
        <ele>301.02999999999997</ele>
        <time>2017-05-21T09:30:24Z</time>
      </trkpt>
      <trkpt lat="50.562888002023101" lon="9.445784026756883">
        <ele>301.02999999999997</ele>
        <time>2017-05-21T09:30:25Z</time>
      </trkpt>
      <trkpt lat="50.562806027010083" lon="9.44580003619194">
        <ele>300.55000000000001</ele>
        <time>2017-05-21T09:30:26Z</time>
      </trkpt>
      <trkpt lat="50.562722040340304" lon="9.445805987343192">
        <ele>300.06999999999999</ele>
        <time>2017-05-21T09:30:27Z</time>
      </trkpt>
      <trkpt lat="50.561500964686275" lon="9.446034980937839">
        <ele>302.47000000000003</ele>
        <time>2017-05-21T09:30:41Z</time>
      </trkpt>
      <trkpt lat="50.561422007158399" lon="9.44608099758625">
        <ele>302.47000000000003</ele>
        <time>2017-05-21T09:30:42Z</time>
      </trkpt>
      <trkpt lat="50.561353024095297" lon="9.446152998134494">
        <ele>302.94999999999999</ele>
        <time>2017-05-21T09:30:43Z</time>
      </trkpt>
      <trkpt lat="50.561290998011827" lon="9.446245031431317">
        <ele>303.43000000000001</ele>
        <time>2017-05-21T09:30:44Z</time>
      </trkpt>
      <trkpt lat="50.561238024383783" lon="9.446348967030644">
        <ele>303.91000000000003</ele>
        <time>2017-05-21T09:30:45Z</time>
      </trkpt>
      <trkpt lat="50.561186978593469" lon="9.446457009762526">
        <ele>303.91000000000003</ele>
        <time>2017-05-21T09:30:46Z</time>
      </trkpt>
      <trkpt lat="50.561099974438548" lon="9.446692038327456">
        <ele>304.38999999999999</ele>
        <time>2017-05-21T09:30:48Z</time>
      </trkpt>
      <trkpt lat="50.560537967830896" lon="9.448279989883304">
        <ele>305.36000000000001</ele>
        <time>2017-05-21T09:31:00Z</time>
      </trkpt>
      <trkpt lat="50.559520991519094" lon="9.449611958116293">
        <ele>309.68000000000001</ele>
        <time>2017-05-21T09:31:13Z</time>
      </trkpt>
      <trkpt lat="50.558459004387259" lon="9.450989020988345">
        <ele>315.93000000000001</ele>
        <time>2017-05-21T09:31:25Z</time>
      </trkpt>
      <trkpt lat="50.558019038289785" lon="9.451621016487479">
        <ele>319.30000000000001</ele>
        <time>2017-05-21T09:31:32Z</time>
      </trkpt>
      <trkpt lat="50.557971009984612" lon="9.451712965965271">
        <ele>319.30000000000001</ele>
        <time>2017-05-21T09:31:35Z</time>
      </trkpt>
      <trkpt lat="50.557977966964245" lon="9.451793013140559">
        <ele>319.77999999999997</ele>
        <time>2017-05-21T09:31:36Z</time>
      </trkpt>
      <trkpt lat="50.558005962520838" lon="9.451898038387299">
        <ele>319.77999999999997</ele>
        <time>2017-05-21T09:31:37Z</time>
      </trkpt>
      <trkpt lat="50.558053990826011" lon="9.452344039455056">
        <ele>318.81</ele>
        <time>2017-05-21T09:31:40Z</time>
      </trkpt>
      <trkpt lat="50.558043010532856" lon="9.452545959502459">
        <ele>317.85000000000002</ele>
        <time>2017-05-21T09:31:41Z</time>
      </trkpt>
      <trkpt lat="50.558005962520838" lon="9.454445969313383">
        <ele>313.05000000000001</ele>
        <time>2017-05-21T09:31:48Z</time>
      </trkpt>
      <trkpt lat="50.558402007445693" lon="9.457408972084522">
        <ele>304.38999999999999</ele>
        <time>2017-05-21T09:31:56Z</time>
      </trkpt>
      <trkpt lat="50.559239024296403" lon="9.463841998949647">
        <ele>308.24000000000001</ele>
        <time>2017-05-21T09:32:12Z</time>
      </trkpt>
      <trkpt lat="50.560032036155462" lon="9.467602036893368">
        <ele>305.36000000000001</ele>
        <time>2017-05-21T09:32:22Z</time>
      </trkpt>
      <trkpt lat="50.561242969706655" lon="9.47278599254787">
        <ele>294.77999999999997</ele>
        <time>2017-05-21T09:32:36Z</time>
      </trkpt>
      <trkpt lat="50.562335969880223" lon="9.476150991395116">
        <ele>285.64999999999998</ele>
        <time>2017-05-21T09:32:46Z</time>
      </trkpt>
      <trkpt lat="50.562486005946994" lon="9.476463971659541">
        <ele>285.17000000000002</ele>
        <time>2017-05-21T09:32:47Z</time>
      </trkpt>
      <trkpt lat="50.562661020085216" lon="9.476744011044502">
        <ele>284.69</ele>
        <time>2017-05-21T09:32:48Z</time>
      </trkpt>
      <trkpt lat="50.562850032001734" lon="9.477011980488896">
        <ele>284.20999999999998</ele>
        <time>2017-05-21T09:32:49Z</time>
      </trkpt>
      <trkpt lat="50.563054969534278" lon="9.477260001003742">
        <ele>284.69</ele>
        <time>2017-05-21T09:32:50Z</time>
      </trkpt>
      <trkpt lat="50.563268959522247" lon="9.477490000426769">
        <ele>284.20999999999998</ele>
        <time>2017-05-21T09:32:51Z</time>
      </trkpt>
      <trkpt lat="50.565015999600291" lon="9.47908197529614">
        <ele>281.31999999999999</ele>
        <time>2017-05-21T09:32:59Z</time>
      </trkpt>
      <trkpt lat="50.565259996801615" lon="9.479214996099472">
        <ele>280.83999999999997</ele>
        <time>2017-05-21T09:33:00Z</time>
      </trkpt>
      <trkpt lat="50.565509023144841" lon="9.479327984154224">
        <ele>280.83999999999997</ele>
        <time>2017-05-21T09:33:01Z</time>
      </trkpt>
      <trkpt lat="50.567466029897332" lon="9.480309002101421">
        <ele>282.27999999999997</ele>
        <time>2017-05-21T09:33:09Z</time>
      </trkpt>
      <trkpt lat="50.569908013567328" lon="9.481953028589487">
        <ele>287.08999999999997</ele>
        <time>2017-05-21T09:33:19Z</time>
      </trkpt>
      <trkpt lat="50.572229968383908" lon="9.482737993821502">
        <ele>282.27999999999997</ele>
        <time>2017-05-21T09:33:28Z</time>
      </trkpt>
      <trkpt lat="50.57388698682189" lon="9.482935974374414">
        <ele>285.17000000000002</ele>
        <time>2017-05-21T09:33:35Z</time>
      </trkpt>
      <trkpt lat="50.575837036594748" lon="9.48342296294868">
        <ele>286.61000000000001</ele>
        <time>2017-05-21T09:33:43Z</time>
      </trkpt>
      <trkpt lat="50.576546983793378" lon="9.483670983463526">
        <ele>286.13</ele>
        <time>2017-05-21T09:33:46Z</time>
      </trkpt>
      <trkpt lat="50.578621001914144" lon="9.484745040535927">
        <ele>283.25</ele>
        <time>2017-05-21T09:33:54Z</time>
      </trkpt>
      <trkpt lat="50.579840987920761" lon="9.485348034650087">
        <ele>284.69</ele>
        <time>2017-05-21T09:33:59Z</time>
      </trkpt>
      <trkpt lat="50.580095965415239" lon="9.485432021319866">
        <ele>284.69</ele>
        <time>2017-05-21T09:34:00Z</time>
      </trkpt>
      <trkpt lat="50.580340968444943" lon="9.485493963584304">
        <ele>285.17000000000002</ele>
        <time>2017-05-21T09:34:01Z</time>
      </trkpt>
      <trkpt lat="50.581500018015504" lon="9.485790012404323">
        <ele>285.64999999999998</ele>
        <time>2017-05-21T09:34:06Z</time>
      </trkpt>
      <trkpt lat="50.581730017438531" lon="9.485947005450726">
        <ele>285.17000000000002</ele>
        <time>2017-05-21T09:34:07Z</time>
      </trkpt>
      <trkpt lat="50.581935038790107" lon="9.486165018752217">
        <ele>284.69</ele>
        <time>2017-05-21T09:34:08Z</time>
      </trkpt>
      <trkpt lat="50.582142993807793" lon="9.486417984589934">
        <ele>283.73000000000002</ele>
        <time>2017-05-21T09:34:09Z</time>
      </trkpt>
      <trkpt lat="50.582323959097266" lon="9.486706992611289">
        <ele>283.25</ele>
        <time>2017-05-21T09:34:10Z</time>
      </trkpt>
      <trkpt lat="50.582494027912617" lon="9.487027013674378">
        <ele>283.25</ele>
        <time>2017-05-21T09:34:11Z</time>
      </trkpt>
      <trkpt lat="50.582672981545329" lon="9.487349968403578">
        <ele>282.76999999999998</ele>
        <time>2017-05-21T09:34:12Z</time>
      </trkpt>
      <trkpt lat="50.583525002002716" lon="9.489288032054901">
        <ele>282.76999999999998</ele>
        <time>2017-05-21T09:34:18Z</time>
      </trkpt>
      <trkpt lat="50.583867989480495" lon="9.48980201035738">
        <ele>283.25</ele>
        <time>2017-05-21T09:34:20Z</time>
      </trkpt>
      <trkpt lat="50.584059013053775" lon="9.490009965375066">
        <ele>283.25</ele>
        <time>2017-05-21T09:34:21Z</time>
      </trkpt>
      <trkpt lat="50.584261016920209" lon="9.490187996998429">
        <ele>282.76999999999998</ele>
        <time>2017-05-21T09:34:22Z</time>
      </trkpt>
      <trkpt lat="50.584484981372952" lon="9.490343984216452">
        <ele>282.27999999999997</ele>
        <time>2017-05-21T09:34:23Z</time>
      </trkpt>
      <trkpt lat="50.584725961089134" lon="9.490487985312939">
        <ele>281.31999999999999</ele>
        <time>2017-05-21T09:34:24Z</time>
      </trkpt>
      <trkpt lat="50.585205992683768" lon="9.490808006376028">
        <ele>279.39999999999998</ele>
        <time>2017-05-21T09:34:26Z</time>
      </trkpt>
      <trkpt lat="50.585428029298782" lon="9.49100598692894">
        <ele>278.92000000000002</ele>
        <time>2017-05-21T09:34:27Z</time>
      </trkpt>
      <trkpt lat="50.586528992280364" lon="9.492418002337217">
        <ele>274.11000000000001</ele>
        <time>2017-05-21T09:34:33Z</time>
      </trkpt>
      <trkpt lat="50.587386963889003" lon="9.49452999047935">
        <ele>265.45999999999998</ele>
        <time>2017-05-21T09:34:40Z</time>
      </trkpt>
      <trkpt lat="50.587845034897327" lon="9.496224978938699">
        <ele>264.01999999999998</ele>
        <time>2017-05-21T09:34:46Z</time>
      </trkpt>
      <trkpt lat="50.588376028463244" lon="9.497788036242127">
        <ele>260.64999999999998</ele>
        <time>2017-05-21T09:34:55Z</time>
      </trkpt>
      <trkpt lat="50.588844995945692" lon="9.499687040224671">
        <ele>258.25</ele>
        <time>2017-05-21T09:35:06Z</time>
      </trkpt>
      <trkpt lat="50.588916996493936" lon="9.500161036849022">
        <ele>258.73000000000002</ele>
        <time>2017-05-21T09:35:09Z</time>
      </trkpt>
      <trkpt lat="50.588964018970728" lon="9.500294979661703">
        <ele>258.25</ele>
        <time>2017-05-21T09:35:10Z</time>
      </trkpt>
      <trkpt lat="50.589022021740675" lon="9.500411991029978">
        <ele>258.25</ele>
        <time>2017-05-21T09:35:11Z</time>
      </trkpt>
      <trkpt lat="50.589361991733313" lon="9.500939967110753">
        <ele>259.20999999999998</ele>
        <time>2017-05-21T09:35:16Z</time>
      </trkpt>
      <trkpt lat="50.589418988674879" lon="9.501058990135789">
        <ele>259.69</ele>
        <time>2017-05-21T09:35:17Z</time>
      </trkpt>
      <trkpt lat="50.589662985876203" lon="9.501732978969812">
        <ele>259.20999999999998</ele>
        <time>2017-05-21T09:35:23Z</time>
      </trkpt>
      <trkpt lat="50.589718976989388" lon="9.501805985346437">
        <ele>258.73000000000002</ele>
        <time>2017-05-21T09:35:24Z</time>
      </trkpt>
      <trkpt lat="50.589784020558" lon="9.501858036965132">
        <ele>258.73000000000002</ele>
        <time>2017-05-21T09:35:25Z</time>
      </trkpt>
      <trkpt lat="50.589862978085876" lon="9.501891983672977">
        <ele>258.73000000000002</ele>
        <time>2017-05-21T09:35:26Z</time>
      </trkpt>
      <trkpt lat="50.589945958927274" lon="9.501924002543092">
        <ele>258.73000000000002</ele>
        <time>2017-05-21T09:35:27Z</time>
      </trkpt>
      <trkpt lat="50.590109992772341" lon="9.502017963677645">
        <ele>258.73000000000002</ele>
        <time>2017-05-21T09:35:29Z</time>
      </trkpt>
      <trkpt lat="50.590186016634107" lon="9.502082001417875">
        <ele>258.73000000000002</ele>
        <time>2017-05-21T09:35:30Z</time>
      </trkpt>
      <trkpt lat="50.59025801718235" lon="9.502150984480977">
        <ele>258.25</ele>
        <time>2017-05-21T09:35:31Z</time>
      </trkpt>
      <trkpt lat="50.590524980798364" lon="9.5024140086025">
        <ele>257.76999999999998</ele>
        <time>2017-05-21T09:35:35Z</time>
      </trkpt>
      <trkpt lat="50.590596981346607" lon="9.502456001937389">
        <ele>257.76999999999998</ele>
        <time>2017-05-21T09:35:36Z</time>
      </trkpt>
      <trkpt lat="50.590964024886489" lon="9.502650965005159">
        <ele>257.76999999999998</ele>
        <time>2017-05-21T09:35:41Z</time>
      </trkpt>
      <trkpt lat="50.591170974075794" lon="9.502797983586788">
        <ele>258.25</ele>
        <time>2017-05-21T09:35:44Z</time>
      </trkpt>
      <trkpt lat="50.591198969632387" lon="9.502873001620174">
        <ele>257.76999999999998</ele>
        <time>2017-05-21T09:35:45Z</time>
      </trkpt>
      <trkpt lat="50.591162005439401" lon="9.502945002168417">
        <ele>258.25</ele>
        <time>2017-05-21T09:35:46Z</time>
      </trkpt>
      <trkpt lat="50.59113803319633" lon="9.503021026030183">
        <ele>258.73000000000002</ele>
        <time>2017-05-21T09:35:47Z</time>
      </trkpt>
      <trkpt lat="50.591107020154595" lon="9.503105012699962">
        <ele>259.69</ele>
        <time>2017-05-21T09:35:48Z</time>
      </trkpt>
      <trkpt lat="50.591070977970958" lon="9.503192016854882">
        <ele>259.69</ele>
        <time>2017-05-21T09:35:49Z</time>
      </trkpt>
      <trkpt lat="50.59103200212121" lon="9.503285977989435">
        <ele>259.69</ele>
        <time>2017-05-21T09:35:50Z</time>
      </trkpt>
      <trkpt lat="50.591014986857772" lon="9.503369964659214">
        <ele>261.13999999999999</ele>
        <time>2017-05-21T09:35:51Z</time>
      </trkpt>
      <trkpt lat="50.590997971594334" lon="9.503471972420812">
        <ele>261.13999999999999</ele>
        <time>2017-05-21T09:35:52Z</time>
      </trkpt>
      <trkpt lat="50.590997971594334" lon="9.503581020981073">
        <ele>261.13999999999999</ele>
        <time>2017-05-21T09:35:53Z</time>
      </trkpt>
      <trkpt lat="50.591015992686152" lon="9.503686968237162">
        <ele>261.62</ele>
        <time>2017-05-21T09:35:54Z</time>
      </trkpt>
      <trkpt lat="50.591034013777971" lon="9.503801967948675">
        <ele>262.10000000000002</ele>
        <time>2017-05-21T09:35:55Z</time>
      </trkpt>
      <trkpt lat="50.591068966314197" lon="9.50389701873064">
        <ele>263.06</ele>
        <time>2017-05-21T09:35:56Z</time>
      </trkpt>
      <trkpt lat="50.591188995167613" lon="9.50417404063046">
        <ele>262.57999999999998</ele>
        <time>2017-05-21T09:35:59Z</time>
      </trkpt>
      <trkpt lat="50.591239035129547" lon="9.504259033128619">
        <ele>262.57999999999998</ele>
        <time>2017-05-21T09:36:00Z</time>
      </trkpt>
      <trkpt lat="50.591297959908843" lon="9.504331033676863">
        <ele>262.57999999999998</ele>
        <time>2017-05-21T09:36:01Z</time>
      </trkpt>
      <trkpt lat="50.591432992368937" lon="9.504459025338292">
        <ele>261.62</ele>
        <time>2017-05-21T09:36:03Z</time>
      </trkpt>
      <trkpt lat="50.591508010402322" lon="9.50447503477335">
        <ele>261.62</ele>
        <time>2017-05-21T09:36:04Z</time>
      </trkpt>
      <trkpt lat="50.591585962101817" lon="9.504441004246473">
        <ele>262.57999999999998</ele>
        <time>2017-05-21T09:36:05Z</time>
      </trkpt>
      <trkpt lat="50.591652011498809" lon="9.504387024790049">
        <ele>262.57999999999998</ele>
        <time>2017-05-21T09:36:06Z</time>
      </trkpt>
      <trkpt lat="50.591717977076769" lon="9.504322987049818">
        <ele>262.57999999999998</ele>
        <time>2017-05-21T09:36:07Z</time>
      </trkpt>
      <trkpt lat="50.591940013691783" lon="9.504200024530292">
        <ele>264.01999999999998</ele>
        <time>2017-05-21T09:36:10Z</time>
      </trkpt>
      <trkpt lat="50.592259028926492" lon="9.504201030358672">
        <ele>266.42000000000002</ele>
        <time>2017-05-21T09:36:14Z</time>
      </trkpt>
      <trkpt lat="50.592577960342169" lon="9.504236988723278">
        <ele>269.31</ele>
        <time>2017-05-21T09:36:18Z</time>
      </trkpt>
      <trkpt lat="50.592649038881063" lon="9.504204969853163">
        <ele>269.79000000000002</ele>
        <time>2017-05-21T09:36:19Z</time>
      </trkpt>
      <trkpt lat="50.592718021944165" lon="9.504145039245486">
        <ele>270.26999999999998</ele>
        <time>2017-05-21T09:36:20Z</time>
      </trkpt>
      <trkpt lat="50.593586973845959" lon="9.503556964918971">
        <ele>273.63</ele>
        <time>2017-05-21T09:36:31Z</time>
      </trkpt>
      <trkpt lat="50.593672972172499" lon="9.503537015989423">
        <ele>273.63</ele>
        <time>2017-05-21T09:36:32Z</time>
      </trkpt>
      <trkpt lat="50.59376198798418" lon="9.50353198684752">
        <ele>274.11000000000001</ele>
        <time>2017-05-21T09:36:33Z</time>
      </trkpt>
      <trkpt lat="50.593851003795862" lon="9.503537015989423">
        <ele>274.11000000000001</ele>
        <time>2017-05-21T09:36:34Z</time>
      </trkpt>
      <trkpt lat="50.593940019607544" lon="9.50355302542448">
        <ele>274.58999999999997</ele>
        <time>2017-05-21T09:36:35Z</time>
      </trkpt>
      <trkpt lat="50.594016965478659" lon="9.503586972132325">
        <ele>274.58999999999997</ele>
        <time>2017-05-21T09:36:36Z</time>
      </trkpt>
      <trkpt lat="50.594096006825566" lon="9.503633994609118">
        <ele>274.58999999999997</ele>
        <time>2017-05-21T09:36:37Z</time>
      </trkpt>
      <trkpt lat="50.594682991504669" lon="9.504260960966349">
        <ele>277</ele>
        <time>2017-05-21T09:36:45Z</time>
      </trkpt>
      <trkpt lat="50.594739988446236" lon="9.504352994263172">
        <ele>277</ele>
        <time>2017-05-21T09:36:46Z</time>
      </trkpt>
      <trkpt lat="50.59479002840817" lon="9.504448967054486">
        <ele>276.51999999999998</ele>
        <time>2017-05-21T09:36:47Z</time>
      </trkpt>
      <trkpt lat="50.594964036718011" lon="9.504720959812403">
        <ele>274.58999999999997</ele>
        <time>2017-05-21T09:36:54Z</time>
      </trkpt>
      <trkpt lat="50.595096973702312" lon="9.50479899533093">
        <ele>275.56</ele>
        <time>2017-05-21T09:36:58Z</time>
      </trkpt>
      <trkpt lat="50.595399979501963" lon="9.50505699031055">
        <ele>277.95999999999998</ele>
        <time>2017-05-21T09:37:03Z</time>
      </trkpt>
      <trkpt lat="50.595568036660552" lon="9.505165033042431">
        <ele>278.92000000000002</ele>
        <time>2017-05-21T09:37:05Z</time>
      </trkpt>
      <trkpt lat="50.595659986138344" lon="9.505209038034082">
        <ele>279.39999999999998</ele>
        <time>2017-05-21T09:37:06Z</time>
      </trkpt>
      <trkpt lat="50.595756964758039" lon="9.505214989185333">
        <ele>279.39999999999998</ele>
        <time>2017-05-21T09:37:07Z</time>
      </trkpt>
      <trkpt lat="50.595852015540004" lon="9.505215995013714">
        <ele>279.88</ele>
        <time>2017-05-21T09:37:08Z</time>
      </trkpt>
      <trkpt lat="50.595944970846176" lon="9.505209038034082">
        <ele>280.36000000000001</ele>
        <time>2017-05-21T09:37:09Z</time>
      </trkpt>
      <trkpt lat="50.596284018829465" lon="9.505205014720559">
        <ele>281.80000000000001</ele>
        <time>2017-05-21T09:37:13Z</time>
      </trkpt>
      <trkpt lat="50.597225977107882" lon="9.505137037485838">
        <ele>281.80000000000001</ele>
        <time>2017-05-21T09:37:23Z</time>
      </trkpt>
      <trkpt lat="50.597310969606042" lon="9.505158998072147">
        <ele>281.80000000000001</ele>
        <time>2017-05-21T09:37:24Z</time>
      </trkpt>
      <trkpt lat="50.597385987639427" lon="9.505195962265134">
        <ele>282.27999999999997</ele>
        <time>2017-05-21T09:37:25Z</time>
      </trkpt>
      <trkpt lat="50.597636019811034" lon="9.505322026088834">
        <ele>285.64999999999998</ele>
        <time>2017-05-21T09:37:31Z</time>
      </trkpt>
      <trkpt lat="50.597667032852769" lon="9.505370976403356">
        <ele>287.08999999999997</ele>
        <time>2017-05-21T09:38:44Z</time>
      </trkpt>
      <trkpt lat="50.598292993381619" lon="9.505664007738233">
        <ele>288.05000000000001</ele>
        <time>2017-05-21T09:38:50Z</time>
      </trkpt>
      <trkpt lat="50.599359003826976" lon="9.505825024098158">
        <ele>289.49000000000001</ele>
        <time>2017-05-21T09:38:56Z</time>
      </trkpt>
      <trkpt lat="50.601020967587829" lon="9.505719998851419">
        <ele>288.52999999999997</ele>
        <time>2017-05-21T09:39:03Z</time>
      </trkpt>
      <trkpt lat="50.602792985737324" lon="9.506212016567588">
        <ele>287.08999999999997</ele>
        <time>2017-05-21T09:39:10Z</time>
      </trkpt>
      <trkpt lat="50.604470958933234" lon="9.506871001794934">
        <ele>285.64999999999998</ele>
        <time>2017-05-21T09:39:17Z</time>
      </trkpt>
      <trkpt lat="50.605900995433331" lon="9.50772101059556">
        <ele>283.73000000000002</ele>
        <time>2017-05-21T09:39:23Z</time>
      </trkpt>
      <trkpt lat="50.606156978756189" lon="9.507756968960166">
        <ele>283.25</ele>
        <time>2017-05-21T09:39:24Z</time>
      </trkpt>
      <trkpt lat="50.606417991220951" lon="9.507757974788547">
        <ele>283.25</ele>
        <time>2017-05-21T09:39:25Z</time>
      </trkpt>
      <trkpt lat="50.608438029885292" lon="9.507408030331135">
        <ele>277.95999999999998</ele>
        <time>2017-05-21T09:39:33Z</time>
      </trkpt>
      <trkpt lat="50.608653025701642" lon="9.507329994812608">
        <ele>277.48000000000002</ele>
        <time>2017-05-21T09:39:34Z</time>
      </trkpt>
      <trkpt lat="50.60886500403285" lon="9.507206026464701">
        <ele>276.51999999999998</ele>
        <time>2017-05-21T09:39:35Z</time>
      </trkpt>
      <trkpt lat="50.610643979161978" lon="9.505987968295813">
        <ele>267.38</ele>
        <time>2017-05-21T09:39:44Z</time>
      </trkpt>
      <trkpt lat="50.611934037879109" lon="9.505489999428392">
        <ele>264.5</ele>
        <time>2017-05-21T09:39:52Z</time>
      </trkpt>
      <trkpt lat="50.613384023308754" lon="9.504806036129594">
        <ele>269.31</ele>
        <time>2017-05-21T09:40:02Z</time>
      </trkpt>
      <trkpt lat="50.614291029050946" lon="9.504548963159323">
        <ele>272.19</ele>
        <time>2017-05-21T09:40:08Z</time>
      </trkpt>
      <trkpt lat="50.61440896242857" lon="9.504566984251142">
        <ele>273.14999999999998</ele>
        <time>2017-05-21T09:40:09Z</time>
      </trkpt>
      <trkpt lat="50.61451499350369" lon="9.504622975364327">
        <ele>273.14999999999998</ele>
        <time>2017-05-21T09:40:10Z</time>
      </trkpt>
      <trkpt lat="50.61460099183023" lon="9.504724983125925">
        <ele>271.23000000000002</ele>
        <time>2017-05-21T09:40:11Z</time>
      </trkpt>
      <trkpt lat="50.614682966843247" lon="9.504856998100877">
        <ele>271.70999999999998</ele>
        <time>2017-05-21T09:40:12Z</time>
      </trkpt>
      <trkpt lat="50.614757984876633" lon="9.50501399114728">
        <ele>273.14999999999998</ele>
        <time>2017-05-21T09:40:13Z</time>
      </trkpt>
      <trkpt lat="50.61483702622354" lon="9.505191016942263">
        <ele>274.11000000000001</ele>
        <time>2017-05-21T09:40:14Z</time>
      </trkpt>
      <trkpt lat="50.615542028099298" lon="9.506876030936837">
        <ele>277.95999999999998</ele>
        <time>2017-05-21T09:40:21Z</time>
      </trkpt>
      <trkpt lat="50.616354988887906" lon="9.509608028456569">
        <ele>282.76999999999998</ele>
        <time>2017-05-21T09:40:30Z</time>
      </trkpt>
      <trkpt lat="50.617040041834116" lon="9.511929983273149">
        <ele>287.08999999999997</ele>
        <time>2017-05-21T09:40:38Z</time>
      </trkpt>
      <trkpt lat="50.617517977952957" lon="9.513144018128514">
        <ele>289.97000000000003</ele>
        <time>2017-05-21T09:40:45Z</time>
      </trkpt>
      <trkpt lat="50.617604982107878" lon="9.513417016714811">
        <ele>290.45999999999998</ele>
        <time>2017-05-21T09:40:51Z</time>
      </trkpt>
      <trkpt lat="50.617601964622736" lon="9.513416010886431">
        <ele>290.94</ele>
        <time>2017-05-21T09:40:55Z</time>
      </trkpt>
      <trkpt lat="50.617647981271148" lon="9.513426991179586">
        <ele>290.94</ele>
        <time>2017-05-21T09:40:56Z</time>
      </trkpt>
      <trkpt lat="50.617722999304533" lon="9.513404024764895">
        <ele>290.94</ele>
        <time>2017-05-21T09:40:57Z</time>
      </trkpt>
      <trkpt lat="50.617807991802692" lon="9.513343004509807">
        <ele>290.45999999999998</ele>
        <time>2017-05-21T09:40:58Z</time>
      </trkpt>
      <trkpt lat="50.617900025099516" lon="9.513257006183267">
        <ele>290.45999999999998</ele>
        <time>2017-05-21T09:40:59Z</time>
      </trkpt>
      <trkpt lat="50.618001027032733" lon="9.513159021735191">
        <ele>290.94</ele>
        <time>2017-05-21T09:41:00Z</time>
      </trkpt>
      <trkpt lat="50.619096038863063" lon="9.512112038210034">
        <ele>291.89999999999998</ele>
        <time>2017-05-21T09:41:09Z</time>
      </trkpt>
      <trkpt lat="50.619699032977223" lon="9.511635024100542">
        <ele>289.97000000000003</ele>
        <time>2017-05-21T09:41:14Z</time>
      </trkpt>
      <trkpt lat="50.619829036295414" lon="9.51158900745213">
        <ele>289.49000000000001</ele>
        <time>2017-05-21T09:41:15Z</time>
      </trkpt>
      <trkpt lat="50.619959961622953" lon="9.511570986360312">
        <ele>289.00999999999999</ele>
        <time>2017-05-21T09:41:16Z</time>
      </trkpt>
      <trkpt lat="50.620088959112763" lon="9.511576015502214">
        <ele>288.52999999999997</ele>
        <time>2017-05-21T09:41:17Z</time>
      </trkpt>
      <trkpt lat="50.620213011279702" lon="9.511617003008723">
        <ele>288.05000000000001</ele>
        <time>2017-05-21T09:41:18Z</time>
      </trkpt>
      <trkpt lat="50.620333962142467" lon="9.51169403269887">
        <ele>287.08999999999997</ele>
        <time>2017-05-21T09:41:19Z</time>
      </trkpt>
      <trkpt lat="50.620442004874349" lon="9.511816995218396">
        <ele>286.13</ele>
        <time>2017-05-21T09:41:20Z</time>
      </trkpt>
      <trkpt lat="50.620539989322424" lon="9.511964013800025">
        <ele>285.17000000000002</ele>
        <time>2017-05-21T09:41:21Z</time>
      </trkpt>
      <trkpt lat="50.620614001527429" lon="9.512133998796344">
        <ele>284.69</ele>
        <time>2017-05-21T09:41:22Z</time>
      </trkpt>
      <trkpt lat="50.620655994862318" lon="9.512334996834397">
        <ele>284.69</ele>
        <time>2017-05-21T09:41:23Z</time>
      </trkpt>
      <trkpt lat="50.620678039267659" lon="9.512550998479128">
        <ele>284.20999999999998</ele>
        <time>2017-05-21T09:41:24Z</time>
      </trkpt>
      <trkpt lat="50.620675021782517" lon="9.512780997902155">
        <ele>284.20999999999998</ele>
        <time>2017-05-21T09:41:25Z</time>
      </trkpt>
      <trkpt lat="50.620657000690699" lon="9.513008985668421">
        <ele>283.25</ele>
        <time>2017-05-21T09:41:26Z</time>
      </trkpt>
      <trkpt lat="50.620630010962486" lon="9.5132190361619">
        <ele>282.27999999999997</ele>
        <time>2017-05-21T09:41:27Z</time>
      </trkpt>
      <trkpt lat="50.620604027062654" lon="9.513619020581245">
        <ele>281.31999999999999</ele>
        <time>2017-05-21T09:41:29Z</time>
      </trkpt>
      <trkpt lat="50.620620036497712" lon="9.513809960335493">
        <ele>280.36000000000001</ele>
        <time>2017-05-21T09:41:30Z</time>
      </trkpt>
      <trkpt lat="50.620657000690699" lon="9.513981034979224">
        <ele>280.36000000000001</ele>
        <time>2017-05-21T09:41:31Z</time>
      </trkpt>
      <trkpt lat="50.620721038430929" lon="9.514111038297415">
        <ele>279.88</ele>
        <time>2017-05-21T09:41:32Z</time>
      </trkpt>
      <trkpt lat="50.620794966816902" lon="9.514195024967194">
        <ele>278.92000000000002</ele>
        <time>2017-05-21T09:41:33Z</time>
      </trkpt>
      <trkpt lat="50.620876019820571" lon="9.514241041615605">
        <ele>278.44</ele>
        <time>2017-05-21T09:41:34Z</time>
      </trkpt>
      <trkpt lat="50.620953971520066" lon="9.514255039393902">
        <ele>277.95999999999998</ele>
        <time>2017-05-21T09:41:35Z</time>
      </trkpt>
      <trkpt lat="50.621032007038593" lon="9.514241963624954">
        <ele>277.48000000000002</ele>
        <time>2017-05-21T09:41:36Z</time>
      </trkpt>
      <trkpt lat="50.621104007586837" lon="9.514204999431968">
        <ele>276.51999999999998</ele>
        <time>2017-05-21T09:41:37Z</time>
      </trkpt>
      <trkpt lat="50.621167961508036" lon="9.514150014147162">
        <ele>276.04000000000002</ele>
        <time>2017-05-21T09:41:38Z</time>
      </trkpt>
      <trkpt lat="50.621222024783492" lon="9.514076001942158">
        <ele>274.58999999999997</ele>
        <time>2017-05-21T09:41:39Z</time>
      </trkpt>
      <trkpt lat="50.621270975098014" lon="9.513985980302095">
        <ele>274.11000000000001</ele>
        <time>2017-05-21T09:41:40Z</time>
      </trkpt>
      <trkpt lat="50.621320009231567" lon="9.513871986418963">
        <ele>274.11000000000001</ele>
        <time>2017-05-21T09:41:41Z</time>
      </trkpt>
      <trkpt lat="50.621359990909696" lon="9.51375799253583">
        <ele>274.11000000000001</ele>
        <time>2017-05-21T09:41:42Z</time>
      </trkpt>
      <trkpt lat="50.621392009779811" lon="9.513635030016303">
        <ele>273.63</ele>
        <time>2017-05-21T09:41:43Z</time>
      </trkpt>
      <trkpt lat="50.621422016993165" lon="9.513507038354874">
        <ele>273.14999999999998</ele>
        <time>2017-05-21T09:41:44Z</time>
      </trkpt>
      <trkpt lat="50.621686968952417" lon="9.51242501847446">
        <ele>267.86000000000001</ele>
        <time>2017-05-21T09:41:52Z</time>
      </trkpt>
      <trkpt lat="50.621741032227874" lon="9.512307001277804">
        <ele>267.38</ele>
        <time>2017-05-21T09:41:53Z</time>
      </trkpt>
      <trkpt lat="50.622331034392118" lon="9.511078968644142">
        <ele>257.76999999999998</ele>
        <time>2017-05-21T09:42:03Z</time>
      </trkpt>
      <trkpt lat="50.622844006866217" lon="9.509322037920356">
        <ele>247.68000000000001</ele>
        <time>2017-05-21T09:42:16Z</time>
      </trkpt>
      <trkpt lat="50.622891029343009" lon="9.509215001016855">
        <ele>247.19999999999999</ele>
        <time>2017-05-21T09:42:17Z</time>
      </trkpt>
      <trkpt lat="50.623404001817107" lon="9.508314030244947">
        <ele>244.31</ele>
        <time>2017-05-21T09:42:26Z</time>
      </trkpt>
      <trkpt lat="50.623477008193731" lon="9.508231971412897">
        <ele>244.31</ele>
        <time>2017-05-21T09:42:27Z</time>
      </trkpt>
      <trkpt lat="50.624460037797689" lon="9.507467038929462">
        <ele>240.94999999999999</ele>
        <time>2017-05-21T09:42:40Z</time>
      </trkpt>
      <trkpt lat="50.625293031334877" lon="9.507035035640001">
        <ele>239.99000000000001</ele>
        <time>2017-05-21T09:42:51Z</time>
      </trkpt>
      <trkpt lat="50.625382969155908" lon="9.507040986791253">
        <ele>239.02000000000001</ele>
        <time>2017-05-21T09:42:52Z</time>
      </trkpt>
      <trkpt lat="50.625705001875758" lon="9.507005028426647">
        <ele>240.47</ele>
        <time>2017-05-21T09:42:56Z</time>
      </trkpt>
      <trkpt lat="50.6265489757061" lon="9.50694995932281">
        <ele>245.75</ele>
        <time>2017-05-21T09:43:06Z</time>
      </trkpt>
      <trkpt lat="50.626637991517782" lon="9.506949037313461">
        <ele>245.75</ele>
        <time>2017-05-21T09:43:07Z</time>
      </trkpt>
      <trkpt lat="50.627310974523425" lon="9.506950965151191">
        <ele>247.19999999999999</ele>
        <time>2017-05-21T09:43:14Z</time>
      </trkpt>
      <trkpt lat="50.628721984103322" lon="9.507401995360851">
        <ele>248.63999999999999</ele>
        <time>2017-05-21T09:43:29Z</time>
      </trkpt>
      <trkpt lat="50.62890999019146" lon="9.507522024214268">
        <ele>249.59999999999999</ele>
        <time>2017-05-21T09:43:31Z</time>
      </trkpt>
      <trkpt lat="50.629218025133014" lon="9.507713969796896">
        <ele>250.08000000000001</ele>
        <time>2017-05-21T09:43:34Z</time>
      </trkpt>
      <trkpt lat="50.630505988374352" lon="9.508528020232916">
        <ele>253.93000000000001</ele>
        <time>2017-05-21T09:43:45Z</time>
      </trkpt>
      <trkpt lat="50.632125036790967" lon="9.509030012413859">
        <ele>257.76999999999998</ele>
        <time>2017-05-21T09:43:56Z</time>
      </trkpt>
      <trkpt lat="50.632277000695467" lon="9.509043004363775">
        <ele>258.25</ele>
        <time>2017-05-21T09:43:57Z</time>
      </trkpt>
      <trkpt lat="50.632423013448715" lon="9.509035963565111">
        <ele>258.25</ele>
        <time>2017-05-21T09:43:58Z</time>
      </trkpt>
      <trkpt lat="50.633731009438634" lon="9.508894979953766">
        <ele>261.62</ele>
        <time>2017-05-21T09:44:07Z</time>
      </trkpt>
      <trkpt lat="50.634435005486012" lon="9.508733963593841">
        <ele>259.20999999999998</ele>
        <time>2017-05-21T09:44:11Z</time>
      </trkpt>
      <trkpt lat="50.634633991867304" lon="9.508616030216217">
        <ele>259.20999999999998</ele>
        <time>2017-05-21T09:44:12Z</time>
      </trkpt>
      <trkpt lat="50.636243987828493" lon="9.507626965641975">
        <ele>252.96000000000001</ele>
        <time>2017-05-21T09:44:19Z</time>
      </trkpt>
      <trkpt lat="50.638174004852772" lon="9.506935039535165">
        <ele>259.69</ele>
        <time>2017-05-21T09:44:27Z</time>
      </trkpt>
      <trkpt lat="50.639600018039346" lon="9.507454968988895">
        <ele>259.20999999999998</ele>
        <time>2017-05-21T09:44:33Z</time>
      </trkpt>
      <trkpt lat="50.640691006556153" lon="9.508459959179163">
        <ele>255.84999999999999</ele>
        <time>2017-05-21T09:44:39Z</time>
      </trkpt>
      <trkpt lat="50.641646962612867" lon="9.509414993226528">
        <ele>250.08000000000001</ele>
        <time>2017-05-21T09:44:45Z</time>
      </trkpt>
      <trkpt lat="50.642068991437554" lon="9.50991396792233">
        <ele>248.16</ele>
        <time>2017-05-21T09:44:48Z</time>
      </trkpt>
      <trkpt lat="50.642175022512674" lon="9.510080013424158">
        <ele>247.19999999999999</ele>
        <time>2017-05-21T09:44:49Z</time>
      </trkpt>
      <trkpt lat="50.642260015010834" lon="9.510249998420477">
        <ele>246.72</ele>
        <time>2017-05-21T09:44:50Z</time>
      </trkpt>
      <trkpt lat="50.642570983618498" lon="9.511246019974351">
        <ele>245.27000000000001</ele>
        <time>2017-05-21T09:44:57Z</time>
      </trkpt>
      <trkpt lat="50.642753038555384" lon="9.512200970202684">
        <ele>244.31</ele>
        <time>2017-05-21T09:45:04Z</time>
      </trkpt>
      <trkpt lat="50.642801988869905" lon="9.512325022369623">
        <ele>243.34999999999999</ele>
        <time>2017-05-21T09:45:05Z</time>
      </trkpt>
      <trkpt lat="50.642871977761388" lon="9.512414960190654">
        <ele>242.38999999999999</ele>
        <time>2017-05-21T09:45:06Z</time>
      </trkpt>
      <trkpt lat="50.642956970259547" lon="9.512487966567278">
        <ele>241.43000000000001</ele>
        <time>2017-05-21T09:45:07Z</time>
      </trkpt>
      <trkpt lat="50.643045986071229" lon="9.512552004307509">
        <ele>240.94999999999999</ele>
        <time>2017-05-21T09:45:08Z</time>
      </trkpt>
      <trkpt lat="50.643141958862543" lon="9.51259802095592">
        <ele>240.47</ele>
        <time>2017-05-21T09:45:09Z</time>
      </trkpt>
      <trkpt lat="50.643431972712278" lon="9.512772029265761">
        <ele>239.99000000000001</ele>
        <time>2017-05-21T09:45:12Z</time>
      </trkpt>
      <trkpt lat="50.645042974501848" lon="9.513755980879068">
        <ele>238.53999999999999</ele>
        <time>2017-05-21T09:45:27Z</time>
      </trkpt>
      <trkpt lat="50.645978981629014" lon="9.514125036075711">
        <ele>236.62</ele>
        <time>2017-05-21T09:45:33Z</time>
      </trkpt>
      <trkpt lat="50.646175034344196" lon="9.514128975570202">
        <ele>237.09999999999999</ele>
        <time>2017-05-21T09:45:34Z</time>
      </trkpt>
      <trkpt lat="50.646386006847024" lon="9.514097962528467">
        <ele>237.09999999999999</ele>
        <time>2017-05-21T09:45:35Z</time>
      </trkpt>
      <trkpt lat="50.646602008491755" lon="9.514038031920791">
        <ele>237.09999999999999</ele>
        <time>2017-05-21T09:45:36Z</time>
      </trkpt>
      <trkpt lat="50.646811975166202" lon="9.513964019715786">
        <ele>237.09999999999999</ele>
        <time>2017-05-21T09:45:37Z</time>
      </trkpt>
      <trkpt lat="50.647626025602221" lon="9.513675011694431">
        <ele>239.02000000000001</ele>
        <time>2017-05-21T09:45:41Z</time>
      </trkpt>
      <trkpt lat="50.647863987833261" lon="9.51365196146071">
        <ele>239.50999999999999</ele>
        <time>2017-05-21T09:45:42Z</time>
      </trkpt>
      <trkpt lat="50.648112008348107" lon="9.513664031401277">
        <ele>240.47</ele>
        <time>2017-05-21T09:45:43Z</time>
      </trkpt>
      <trkpt lat="50.649512959644198" lon="9.51416602358222">
        <ele>241.43000000000001</ele>
        <time>2017-05-21T09:45:49Z</time>
      </trkpt>
      <trkpt lat="50.650409990921617" lon="9.514808999374509">
        <ele>241.43000000000001</ele>
        <time>2017-05-21T09:45:53Z</time>
      </trkpt>
      <trkpt lat="50.650614006444812" lon="9.515014020726085">
        <ele>240.47</ele>
        <time>2017-05-21T09:45:54Z</time>
      </trkpt>
      <trkpt lat="50.65080301836133" lon="9.515227004885674">
        <ele>240.94999999999999</ele>
        <time>2017-05-21T09:45:55Z</time>
      </trkpt>
      <trkpt lat="50.650973003357649" lon="9.515450969338417">
        <ele>240.94999999999999</ele>
        <time>2017-05-21T09:45:56Z</time>
      </trkpt>
      <trkpt lat="50.651121027767658" lon="9.515675017610192">
        <ele>240.94999999999999</ele>
        <time>2017-05-21T09:45:57Z</time>
      </trkpt>
      <trkpt lat="50.651247007772326" lon="9.515881966799498">
        <ele>240.94999999999999</ele>
        <time>2017-05-21T09:45:58Z</time>
      </trkpt>
      <trkpt lat="50.651486981660128" lon="9.516390999779105">
        <ele>239.50999999999999</ele>
        <time>2017-05-21T09:46:01Z</time>
      </trkpt>
      <trkpt lat="50.651539033278823" lon="9.516555033624172">
        <ele>239.99000000000001</ele>
        <time>2017-05-21T09:46:02Z</time>
      </trkpt>
      <trkpt lat="50.651572979986668" lon="9.516725018620491">
        <ele>239.99000000000001</ele>
        <time>2017-05-21T09:46:03Z</time>
      </trkpt>
      <trkpt lat="50.651593012735248" lon="9.516885029152036">
        <ele>239.99000000000001</ele>
        <time>2017-05-21T09:46:04Z</time>
      </trkpt>
      <trkpt lat="50.651598041877151" lon="9.517053002491593">
        <ele>239.02000000000001</ele>
        <time>2017-05-21T09:46:05Z</time>
      </trkpt>
      <trkpt lat="50.651596030220389" lon="9.517211001366377">
        <ele>238.53999999999999</ele>
        <time>2017-05-21T09:46:06Z</time>
      </trkpt>
      <trkpt lat="50.651578009128571" lon="9.517363971099258">
        <ele>238.53999999999999</ele>
        <time>2017-05-21T09:46:07Z</time>
      </trkpt>
      <trkpt lat="50.651527969166636" lon="9.517510989680886">
        <ele>238.06</ele>
        <time>2017-05-21T09:46:08Z</time>
      </trkpt>
      <trkpt lat="50.651463009417057" lon="9.517649039626122">
        <ele>237.58000000000001</ele>
        <time>2017-05-21T09:46:09Z</time>
      </trkpt>
      <trkpt lat="50.651392014697194" lon="9.517778037115932">
        <ele>237.58000000000001</ele>
        <time>2017-05-21T09:46:10Z</time>
      </trkpt>
      <trkpt lat="50.651320014148951" lon="9.517899993807077">
        <ele>237.09999999999999</ele>
        <time>2017-05-21T09:46:11Z</time>
      </trkpt>
      <trkpt lat="50.651191016659141" lon="9.51816201210022">
        <ele>235.66</ele>
        <time>2017-05-21T09:46:13Z</time>
      </trkpt>
      <trkpt lat="50.651154974475503" lon="9.518325040116906">
        <ele>236.13999999999999</ele>
        <time>2017-05-21T09:46:14Z</time>
      </trkpt>
      <trkpt lat="50.651145000010729" lon="9.518497958779335">
        <ele>236.62</ele>
        <time>2017-05-21T09:46:15Z</time>
      </trkpt>
      <trkpt lat="50.65114701166749" lon="9.518671967089176">
        <ele>236.62</ele>
        <time>2017-05-21T09:46:16Z</time>
      </trkpt>
      <trkpt lat="50.651156986132264" lon="9.518843963742256">
        <ele>237.09999999999999</ele>
        <time>2017-05-21T09:46:17Z</time>
      </trkpt>
      <trkpt lat="50.651155980303884" lon="9.519013026729226">
        <ele>237.58000000000001</ele>
        <time>2017-05-21T09:46:18Z</time>
      </trkpt>
      <trkpt lat="50.65114701166749" lon="9.519179994240403">
        <ele>237.58000000000001</ele>
        <time>2017-05-21T09:46:19Z</time>
      </trkpt>
      <trkpt lat="50.651132008060813" lon="9.51934696175158">
        <ele>238.06</ele>
        <time>2017-05-21T09:46:20Z</time>
      </trkpt>
      <trkpt lat="50.651156986132264" lon="9.521158961579204">
        <ele>239.99000000000001</ele>
        <time>2017-05-21T09:46:30Z</time>
      </trkpt>
      <trkpt lat="50.651494022458792" lon="9.523323001340032">
        <ele>239.50999999999999</ele>
        <time>2017-05-21T09:46:40Z</time>
      </trkpt>
      <trkpt lat="50.652143033221364" lon="9.525913009420037">
        <ele>237.58000000000001</ele>
        <time>2017-05-21T09:46:48Z</time>
      </trkpt>
      <trkpt lat="50.652777040377259" lon="9.527656026184559">
        <ele>236.13999999999999</ele>
        <time>2017-05-21T09:46:54Z</time>
      </trkpt>
      <trkpt lat="50.653092032298446" lon="9.528393968939781">
        <ele>236.13999999999999</ele>
        <time>2017-05-21T09:46:57Z</time>
      </trkpt>
      <trkpt lat="50.653229998424649" lon="9.528618017211556">
        <ele>236.13999999999999</ele>
        <time>2017-05-21T09:46:58Z</time>
      </trkpt>
      <trkpt lat="50.653898036107421" lon="9.529571039602161">
        <ele>236.13999999999999</ele>
        <time>2017-05-21T09:47:03Z</time>
      </trkpt>
      <trkpt lat="50.654028039425611" lon="9.529674975201488">
        <ele>236.62</ele>
        <time>2017-05-21T09:47:04Z</time>
      </trkpt>
      <trkpt lat="50.654174974188209" lon="9.529737001284957">
        <ele>236.62</ele>
        <time>2017-05-21T09:47:05Z</time>
      </trkpt>
      <trkpt lat="50.654338002204895" lon="9.529763991013169">
        <ele>236.62</ele>
        <time>2017-05-21T09:47:06Z</time>
      </trkpt>
      <trkpt lat="50.654512010514736" lon="9.529780000448227">
        <ele>236.62</ele>
        <time>2017-05-21T09:47:07Z</time>
      </trkpt>
      <trkpt lat="50.655492022633553" lon="9.529719986021519">
        <ele>236.62</ele>
        <time>2017-05-21T09:47:12Z</time>
      </trkpt>
      <trkpt lat="50.657181981950998" lon="9.529103999957442">
        <ele>237.58000000000001</ele>
        <time>2017-05-21T09:47:20Z</time>
      </trkpt>
      <trkpt lat="50.658174986019731" lon="9.529326958581805">
        <ele>238.53999999999999</ele>
        <time>2017-05-21T09:47:26Z</time>
      </trkpt>
      <trkpt lat="50.65911803394556" lon="9.530349969863892">
        <ele>236.13999999999999</ele>
        <time>2017-05-21T09:47:34Z</time>
      </trkpt>
      <trkpt lat="50.659962007775903" lon="9.53191596083343">
        <ele>234.22</ele>
        <time>2017-05-21T09:47:42Z</time>
      </trkpt>
      <trkpt lat="50.660119000822306" lon="9.532131040468812">
        <ele>233.74000000000001</ele>
        <time>2017-05-21T09:47:43Z</time>
      </trkpt>
      <trkpt lat="50.660312036052346" lon="9.532327009364963">
        <ele>233.74000000000001</ele>
        <time>2017-05-21T09:47:44Z</time>
      </trkpt>
      <trkpt lat="50.660767005756497" lon="9.532698998227716">
        <ele>233.74000000000001</ele>
        <time>2017-05-21T09:47:46Z</time>
      </trkpt>
      <trkpt lat="50.661022989079356" lon="9.532831013202667">
        <ele>233.25999999999999</ele>
        <time>2017-05-21T09:47:47Z</time>
      </trkpt>
      <trkpt lat="50.662070978432894" lon="9.53333199955523">
        <ele>233.25999999999999</ele>
        <time>2017-05-21T09:47:51Z</time>
      </trkpt>
      <trkpt lat="50.662306006997824" lon="9.533527968451381">
        <ele>232.78</ele>
        <time>2017-05-21T09:47:52Z</time>
      </trkpt>
      <trkpt lat="50.662521002814174" lon="9.533758973702788">
        <ele>233.25999999999999</ele>
        <time>2017-05-21T09:47:53Z</time>
      </trkpt>
      <trkpt lat="50.662720995023847" lon="9.534015962854028">
        <ele>233.25999999999999</ele>
        <time>2017-05-21T09:47:54Z</time>
      </trkpt>
      <trkpt lat="50.662897014990449" lon="9.534312011674047">
        <ele>233.25999999999999</ele>
        <time>2017-05-21T09:47:55Z</time>
      </trkpt>
      <trkpt lat="50.663045039400458" lon="9.534644018858671">
        <ele>233.25999999999999</ele>
        <time>2017-05-21T09:47:56Z</time>
      </trkpt>
      <trkpt lat="50.663174958899617" lon="9.534997986629605">
        <ele>233.25999999999999</ele>
        <time>2017-05-21T09:47:57Z</time>
      </trkpt>
      <trkpt lat="50.663275960832834" lon="9.535370981320739">
        <ele>233.74000000000001</ele>
        <time>2017-05-21T09:47:58Z</time>
      </trkpt>
      <trkpt lat="50.663356008008122" lon="9.53575998544693">
        <ele>233.74000000000001</ele>
        <time>2017-05-21T09:47:59Z</time>
      </trkpt>
      <trkpt lat="50.663414010778069" lon="9.536164999008179">
        <ele>233.74000000000001</ele>
        <time>2017-05-21T09:48:00Z</time>
      </trkpt>
      <trkpt lat="50.663450974971056" lon="9.536579987034202">
        <ele>232.78</ele>
        <time>2017-05-21T09:48:01Z</time>
      </trkpt>
      <trkpt lat="50.663481988012791" lon="9.537006039172411">
        <ele>232.78</ele>
        <time>2017-05-21T09:48:02Z</time>
      </trkpt>
      <trkpt lat="50.663914997130632" lon="9.539460008963943">
        <ele>231.81</ele>
        <time>2017-05-21T09:48:08Z</time>
      </trkpt>
      <trkpt lat="50.664803981781006" lon="9.541488010436297">
        <ele>231.33000000000001</ele>
        <time>2017-05-21T09:48:14Z</time>
      </trkpt>
      <trkpt lat="50.666733998805285" lon="9.544895002618432">
        <ele>231.33000000000001</ele>
        <time>2017-05-21T09:48:26Z</time>
      </trkpt>
      <trkpt lat="50.66784200258553" lon="9.546930966898799">
        <ele>231.81</ele>
        <time>2017-05-21T09:48:34Z</time>
      </trkpt>
      <trkpt lat="50.668351035565138" lon="9.548294031992555">
        <ele>232.78</ele>
        <time>2017-05-21T09:48:41Z</time>
      </trkpt>
      <trkpt lat="50.669103981927037" lon="9.55105503089726">
        <ele>235.66</ele>
        <time>2017-05-21T09:48:57Z</time>
      </trkpt>
      <trkpt lat="50.66968702711165" lon="9.554577022790909">
        <ele>240.94999999999999</ele>
        <time>2017-05-21T09:49:16Z</time>
      </trkpt>
      <trkpt lat="50.669847959652543" lon="9.555935980752111">
        <ele>243.83000000000001</ele>
        <time>2017-05-21T09:49:24Z</time>
      </trkpt>
      <trkpt lat="50.669890958815813" lon="9.556085010990501">
        <ele>244.31</ele>
        <time>2017-05-21T09:49:25Z</time>
      </trkpt>
      <trkpt lat="50.669949967414141" lon="9.556220965459943">
        <ele>244.78999999999999</ele>
        <time>2017-05-21T09:49:26Z</time>
      </trkpt>
      <trkpt lat="50.670023979619145" lon="9.55634300597012">
        <ele>244.78999999999999</ele>
        <time>2017-05-21T09:49:27Z</time>
      </trkpt>
      <trkpt lat="50.670111989602447" lon="9.55644803121686">
        <ele>245.27000000000001</ele>
        <time>2017-05-21T09:49:28Z</time>
      </trkpt>
      <trkpt lat="50.670206034556031" lon="9.556539980694652">
        <ele>245.75</ele>
        <time>2017-05-21T09:49:29Z</time>
      </trkpt>
      <trkpt lat="50.670308964326978" lon="9.556622039526701">
        <ele>245.75</ele>
        <time>2017-05-21T09:49:30Z</time>
      </trkpt>
      <trkpt lat="50.671676974743605" lon="9.557720990851522">
        <ele>244.31</ele>
        <time>2017-05-21T09:49:44Z</time>
      </trkpt>
      <trkpt lat="50.671726008877158" lon="9.557797014713287">
        <ele>243.83000000000001</ele>
        <time>2017-05-21T09:49:45Z</time>
      </trkpt>
      <trkpt lat="50.671821981668472" lon="9.557971023023129">
        <ele>242.87</ele>
        <time>2017-05-21T09:49:48Z</time>
      </trkpt>
      <trkpt lat="50.671961959451437" lon="9.558266988024116">
        <ele>241.43000000000001</ele>
        <time>2017-05-21T09:49:59Z</time>
      </trkpt>
      <trkpt lat="50.672038989141583" lon="9.558271011337638">
        <ele>240.94999999999999</ele>
        <time>2017-05-21T09:50:09Z</time>
      </trkpt>
      <trkpt lat="50.672152983024716" lon="9.558226000517607">
        <ele>241.43000000000001</ele>
        <time>2017-05-21T09:50:22Z</time>
      </trkpt>
      <trkpt lat="50.672147031873465" lon="9.558220971375704">
        <ele>241.43000000000001</ele>
        <time>2017-05-21T09:50:55Z</time>
      </trkpt>
      <trkpt lat="50.672145020216703" lon="9.55816799774766">
        <ele>247.68000000000001</ele>
        <time>2017-05-21T09:56:37Z</time>
      </trkpt>
      <trkpt lat="50.672143008559942" lon="9.558199010789394">
        <ele>236.62</ele>
        <time>2017-05-21T09:57:25Z</time>
      </trkpt>
      <trkpt lat="50.672194976359606" lon="9.558090968057513">
        <ele>238.06</ele>
        <time>2017-05-21T09:57:29Z</time>
      </trkpt>
      <trkpt lat="50.672109983861446" lon="9.558002036064863">
        <ele>239.99000000000001</ele>
        <time>2017-05-21T09:57:35Z</time>
      </trkpt>
      <trkpt lat="50.672002024948597" lon="9.558289032429457">
        <ele>238.06</ele>
        <time>2017-05-21T09:57:42Z</time>
      </trkpt>
      <trkpt lat="50.672003030776978" lon="9.558388022705913">
        <ele>237.58000000000001</ele>
        <time>2017-05-21T09:57:43Z</time>
      </trkpt>
      <trkpt lat="50.672010993584991" lon="9.558488018810749">
        <ele>237.58000000000001</ele>
        <time>2017-05-21T09:57:44Z</time>
      </trkpt>
      <trkpt lat="50.672022979706526" lon="9.55984496511519">
        <ele>231.81</ele>
        <time>2017-05-21T09:57:54Z</time>
      </trkpt>
      <trkpt lat="50.672278963029385" lon="9.561380026862025">
        <ele>227.49000000000001</ele>
        <time>2017-05-21T09:58:06Z</time>
      </trkpt>
      <trkpt lat="50.672316011041403" lon="9.561482034623623">
        <ele>227.97</ele>
        <time>2017-05-21T09:58:07Z</time>
      </trkpt>
      <trkpt lat="50.672358004376292" lon="9.561581024900079">
        <ele>227.49000000000001</ele>
        <time>2017-05-21T09:58:08Z</time>
      </trkpt>
      <trkpt lat="50.672404021024704" lon="9.561673980206251">
        <ele>227.49000000000001</ele>
        <time>2017-05-21T09:58:09Z</time>
      </trkpt>
      <trkpt lat="50.672809034585953" lon="9.562445031479001">
        <ele>224.12</ele>
        <time>2017-05-21T09:58:17Z</time>
      </trkpt>
      <trkpt lat="50.673139030113816" lon="9.563060011714697">
        <ele>222.68000000000001</ele>
        <time>2017-05-21T09:58:24Z</time>
      </trkpt>
      <trkpt lat="50.67321203649044" lon="9.563099993392825">
        <ele>222.68000000000001</ele>
        <time>2017-05-21T09:58:25Z</time>
      </trkpt>
      <trkpt lat="50.673311026766896" lon="9.563118014484644">
        <ele>224.61000000000001</ele>
        <time>2017-05-21T09:58:26Z</time>
      </trkpt>
      <trkpt lat="50.67338403314352" lon="9.563138969242573">
        <ele>225.09</ele>
        <time>2017-05-21T09:58:27Z</time>
      </trkpt>
      <trkpt lat="50.673444969579577" lon="9.563159001991153">
        <ele>225.56999999999999</ele>
        <time>2017-05-21T09:58:28Z</time>
      </trkpt>
      <trkpt lat="50.673509007319808" lon="9.563162019476295">
        <ele>226.05000000000001</ele>
        <time>2017-05-21T09:58:29Z</time>
      </trkpt>
      <trkpt lat="50.673586959019303" lon="9.563159001991153">
        <ele>226.53</ele>
        <time>2017-05-21T09:58:30Z</time>
      </trkpt>
      <trkpt lat="50.673980992287397" lon="9.563203006982803">
        <ele>228.44999999999999</ele>
        <time>2017-05-21T09:58:35Z</time>
      </trkpt>
      <trkpt lat="50.674290033057332" lon="9.563265033066273">
        <ele>228.93000000000001</ele>
        <time>2017-05-21T09:58:39Z</time>
      </trkpt>
      <trkpt lat="50.674379970878363" lon="9.563267966732383">
        <ele>229.88999999999999</ele>
        <time>2017-05-21T09:58:40Z</time>
      </trkpt>
      <trkpt lat="50.67568302154541" lon="9.562992034479976">
        <ele>230.84999999999999</ele>
        <time>2017-05-21T09:58:54Z</time>
      </trkpt>
      <trkpt lat="50.677035022526979" lon="9.562749965116382">
        <ele>243.83000000000001</ele>
        <time>2017-05-21T09:59:08Z</time>
      </trkpt>
      <trkpt lat="50.678156018257141" lon="9.562820959836245">
        <ele>245.27000000000001</ele>
        <time>2017-05-21T09:59:19Z</time>
      </trkpt>
      <trkpt lat="50.679624024778605" lon="9.563510036095977">
        <ele>229.88999999999999</ele>
        <time>2017-05-21T09:59:34Z</time>
      </trkpt>
      <trkpt lat="50.681027993559837" lon="9.564666990190744">
        <ele>228.44999999999999</ele>
        <time>2017-05-21T09:59:48Z</time>
      </trkpt>
      <trkpt lat="50.682137003168464" lon="9.566185036674142">
        <ele>224.61000000000001</ele>
        <time>2017-05-21T10:00:00Z</time>
      </trkpt>
      <trkpt lat="50.683261016383767" lon="9.568578992038965">
        <ele>220.28</ele>
        <time>2017-05-21T10:00:16Z</time>
      </trkpt>
      <trkpt lat="50.68391103297472" lon="9.57110496237874">
        <ele>226.53</ele>
        <time>2017-05-21T10:00:31Z</time>
      </trkpt>
      <trkpt lat="50.684138014912605" lon="9.573823967948556">
        <ele>227.00999999999999</ele>
        <time>2017-05-21T10:00:44Z</time>
      </trkpt>
      <trkpt lat="50.684358961880207" lon="9.576099989935756">
        <ele>227.49000000000001</ele>
        <time>2017-05-21T10:00:56Z</time>
      </trkpt>
      <trkpt lat="50.684862965717912" lon="9.578326977789402">
        <ele>227.97</ele>
        <time>2017-05-21T10:01:08Z</time>
      </trkpt>
      <trkpt lat="50.68535297177732" lon="9.580756975337863">
        <ele>229.88999999999999</ele>
        <time>2017-05-21T10:01:21Z</time>
      </trkpt>
      <trkpt lat="50.685403011739254" lon="9.581546969711781">
        <ele>229.88999999999999</ele>
        <time>2017-05-21T10:01:25Z</time>
      </trkpt>
      <trkpt lat="50.685224980115891" lon="9.583705980330706">
        <ele>228.93000000000001</ele>
        <time>2017-05-21T10:01:36Z</time>
      </trkpt>
      <trkpt lat="50.685042003169656" lon="9.584632012993097">
        <ele>228.44999999999999</ele>
        <time>2017-05-21T10:01:41Z</time>
      </trkpt>
      <trkpt lat="50.684639001265168" lon="9.586453987285495">
        <ele>227.97</ele>
        <time>2017-05-21T10:01:51Z</time>
      </trkpt>
      <trkpt lat="50.684654004871845" lon="9.588825982064009">
        <ele>225.56999999999999</ele>
        <time>2017-05-21T10:02:03Z</time>
      </trkpt>
      <trkpt lat="50.68513797596097" lon="9.59044000133872">
        <ele>224.12</ele>
        <time>2017-05-21T10:02:12Z</time>
      </trkpt>
      <trkpt lat="50.685951020568609" lon="9.591672979295254">
        <ele>223.63999999999999</ele>
        <time>2017-05-21T10:02:21Z</time>
      </trkpt>
      <trkpt lat="50.686384029686451" lon="9.592082016170025">
        <ele>223.63999999999999</ele>
        <time>2017-05-21T10:02:25Z</time>
      </trkpt>
      <trkpt lat="50.686488971114159" lon="9.592177988961339">
        <ele>223.63999999999999</ele>
        <time>2017-05-21T10:02:26Z</time>
      </trkpt>
      <trkpt lat="50.686578992754221" lon="9.592301035299897">
        <ele>224.12</ele>
        <time>2017-05-21T10:02:27Z</time>
      </trkpt>
      <trkpt lat="50.68664001300931" lon="9.592452999204397">
        <ele>224.61000000000001</ele>
        <time>2017-05-21T10:02:28Z</time>
      </trkpt>
      <trkpt lat="50.686667002737522" lon="9.592634970322251">
        <ele>225.09</ele>
        <time>2017-05-21T10:02:29Z</time>
      </trkpt>
      <trkpt lat="50.686682006344199" lon="9.592820964753628">
        <ele>224.61000000000001</ele>
        <time>2017-05-21T10:02:30Z</time>
      </trkpt>
      <trkpt lat="50.686688963323832" lon="9.593021040782332">
        <ele>224.12</ele>
        <time>2017-05-21T10:02:31Z</time>
      </trkpt>
      <trkpt lat="50.686779990792274" lon="9.595222966745496">
        <ele>225.56999999999999</ele>
        <time>2017-05-21T10:02:40Z</time>
      </trkpt>
      <trkpt lat="50.686881998553872" lon="9.598786029964685">
        <ele>225.09</ele>
        <time>2017-05-21T10:02:54Z</time>
      </trkpt>
      <trkpt lat="50.686850985512137" lon="9.598985016345978">
        <ele>225.09</ele>
        <time>2017-05-21T10:02:55Z</time>
      </trkpt>
      <trkpt lat="50.686790971085429" lon="9.599136980250478">
        <ele>225.56999999999999</ele>
        <time>2017-05-21T10:02:56Z</time>
      </trkpt>
      <trkpt lat="50.686696004122496" lon="9.599248040467501">
        <ele>225.56999999999999</ele>
        <time>2017-05-21T10:02:57Z</time>
      </trkpt>
      <trkpt lat="50.686567006632686" lon="9.599346024915576">
        <ele>226.05000000000001</ele>
        <time>2017-05-21T10:02:58Z</time>
      </trkpt>
      <trkpt lat="50.686413031071424" lon="9.599427999928594">
        <ele>227.00999999999999</ele>
        <time>2017-05-21T10:02:59Z</time>
      </trkpt>
      <trkpt lat="50.686242962256074" lon="9.599508969113231">
        <ele>227.00999999999999</ele>
        <time>2017-05-21T10:03:00Z</time>
      </trkpt>
      <trkpt lat="50.684656016528606" lon="9.600399965420365">
        <ele>233.25999999999999</ele>
        <time>2017-05-21T10:03:08Z</time>
      </trkpt>
      <trkpt lat="50.682782996445894" lon="9.60103296674788">
        <ele>239.50999999999999</ele>
        <time>2017-05-21T10:03:17Z</time>
      </trkpt>
      <trkpt lat="50.681395037099719" lon="9.600562993437052">
        <ele>235.18000000000001</ele>
        <time>2017-05-21T10:03:24Z</time>
      </trkpt>
      <trkpt lat="50.678688017651439" lon="9.59924996830523">
        <ele>231.81</ele>
        <time>2017-05-21T10:03:37Z</time>
      </trkpt>
      <trkpt lat="50.677266027778387" lon="9.599318029358983">
        <ele>229.88999999999999</ele>
        <time>2017-05-21T10:03:43Z</time>
      </trkpt>
      <trkpt lat="50.675922995433211" lon="9.600228974595666">
        <ele>229.41</ele>
        <time>2017-05-21T10:03:49Z</time>
      </trkpt>
      <trkpt lat="50.673629036173224" lon="9.602752011269331">
        <ele>228.44999999999999</ele>
        <time>2017-05-21T10:04:00Z</time>
      </trkpt>
      <trkpt lat="50.672686994075775" lon="9.604411963373423">
        <ele>227.97</ele>
        <time>2017-05-21T10:04:06Z</time>
      </trkpt>
      <trkpt lat="50.672237975522876" lon="9.606377016752958">
        <ele>229.41</ele>
        <time>2017-05-21T10:04:12Z</time>
      </trkpt>
      <trkpt lat="50.672261025756598" lon="9.608580032363534">
        <ele>235.66</ele>
        <time>2017-05-21T10:04:18Z</time>
      </trkpt>
      <trkpt lat="50.672818003222346" lon="9.610891006886959">
        <ele>243.83000000000001</ele>
        <time>2017-05-21T10:04:24Z</time>
      </trkpt>
      <trkpt lat="50.673920977860689" lon="9.613330978900194">
        <ele>248.16</ele>
        <time>2017-05-21T10:04:31Z</time>
      </trkpt>
      <trkpt lat="50.67478297278285" lon="9.615562995895743">
        <ele>248.16</ele>
        <time>2017-05-21T10:04:38Z</time>
      </trkpt>
      <trkpt lat="50.674928985536098" lon="9.616701006889343">
        <ele>245.75</ele>
        <time>2017-05-21T10:04:41Z</time>
      </trkpt>
      <trkpt lat="50.674937032163143" lon="9.617104008793831">
        <ele>244.78999999999999</ele>
        <time>2017-05-21T10:04:42Z</time>
      </trkpt>
      <trkpt lat="50.674925968050957" lon="9.617504999041557">
        <ele>243.83000000000001</ele>
        <time>2017-05-21T10:04:43Z</time>
      </trkpt>
      <trkpt lat="50.674775009974837" lon="9.620274966582656">
        <ele>243.83000000000001</ele>
        <time>2017-05-21T10:04:50Z</time>
      </trkpt>
      <trkpt lat="50.674750031903386" lon="9.623066978529096">
        <ele>251.03999999999999</ele>
        <time>2017-05-21T10:04:57Z</time>
      </trkpt>
      <trkpt lat="50.674133962020278" lon="9.625757988542318">
        <ele>255.37</ele>
        <time>2017-05-21T10:05:04Z</time>
      </trkpt>
      <trkpt lat="50.673700030893087" lon="9.628573972731829">
        <ele>259.69</ele>
        <time>2017-05-21T10:05:11Z</time>
      </trkpt>
      <trkpt lat="50.673619983717799" lon="9.628979992121458">
        <ele>259.69</ele>
        <time>2017-05-21T10:05:12Z</time>
      </trkpt>
      <trkpt lat="50.672876005992293" lon="9.631757000461221">
        <ele>263.06</ele>
        <time>2017-05-21T10:05:19Z</time>
      </trkpt>
      <trkpt lat="50.671802032738924" lon="9.634309038519859">
        <ele>266.89999999999998</ele>
        <time>2017-05-21T10:05:26Z</time>
      </trkpt>
      <trkpt lat="50.671425014734268" lon="9.63540798984468">
        <ele>267.86000000000001</ele>
        <time>2017-05-21T10:05:29Z</time>
      </trkpt>
      <trkpt lat="50.671335998922586" lon="9.635786013677716">
        <ele>267.38</ele>
        <time>2017-05-21T10:05:30Z</time>
      </trkpt>
      <trkpt lat="50.671273972839117" lon="9.636163031682372">
        <ele>267.86000000000001</ele>
        <time>2017-05-21T10:05:31Z</time>
      </trkpt>
      <trkpt lat="50.671231979504228" lon="9.636553041636944">
        <ele>267.86000000000001</ele>
        <time>2017-05-21T10:05:32Z</time>
      </trkpt>
      <trkpt lat="50.671212030574679" lon="9.636950008571148">
        <ele>269.31</ele>
        <time>2017-05-21T10:05:33Z</time>
      </trkpt>
      <trkpt lat="50.671207001432776" lon="9.63734001852572">
        <ele>269.79000000000002</ele>
        <time>2017-05-21T10:05:34Z</time>
      </trkpt>
      <trkpt lat="50.670998962596059" lon="9.638897962868214">
        <ele>273.14999999999998</ele>
        <time>2017-05-21T10:05:38Z</time>
      </trkpt>
      <trkpt lat="50.67087197676301" lon="9.639258971437812">
        <ele>273.63</ele>
        <time>2017-05-21T10:05:39Z</time>
      </trkpt>
      <trkpt lat="50.670721018686891" lon="9.639589972794056">
        <ele>274.11000000000001</ele>
        <time>2017-05-21T10:05:40Z</time>
      </trkpt>
      <trkpt lat="50.670551033690572" lon="9.639880992472172">
        <ele>274.58999999999997</ele>
        <time>2017-05-21T10:05:41Z</time>
      </trkpt>
      <trkpt lat="50.670370990410447" lon="9.640148039907217">
        <ele>274.58999999999997</ele>
        <time>2017-05-21T10:05:42Z</time>
      </trkpt>
      <trkpt lat="50.670181978493929" lon="9.640405029058456">
        <ele>275.06999999999999</ele>
        <time>2017-05-21T10:05:43Z</time>
      </trkpt>
      <trkpt lat="50.669824993237853" lon="9.640978015959263">
        <ele>275.56</ele>
        <time>2017-05-21T10:05:45Z</time>
      </trkpt>
      <trkpt lat="50.669663976877928" lon="9.641317985951901">
        <ele>276.51999999999998</ele>
        <time>2017-05-21T10:05:46Z</time>
      </trkpt>
      <trkpt lat="50.669520981609821" lon="9.64168201200664">
        <ele>276.51999999999998</ele>
        <time>2017-05-21T10:05:47Z</time>
      </trkpt>
      <trkpt lat="50.669428026303649" lon="9.64206799864769">
        <ele>277.48000000000002</ele>
        <time>2017-05-21T10:05:48Z</time>
      </trkpt>
      <trkpt lat="50.669298022985458" lon="9.642461026087403">
        <ele>277</ele>
        <time>2017-05-21T10:05:49Z</time>
      </trkpt>
      <trkpt lat="50.669010020792484" lon="9.643504992127419">
        <ele>278.92000000000002</ele>
        <time>2017-05-21T10:05:52Z</time>
      </trkpt>
      <trkpt lat="50.668890997767448" lon="9.643797017633915">
        <ele>279.39999999999998</ele>
        <time>2017-05-21T10:05:53Z</time>
      </trkpt>
      <trkpt lat="50.668770968914032" lon="9.644054006785154">
        <ele>279.39999999999998</ele>
        <time>2017-05-21T10:05:54Z</time>
      </trkpt>
      <trkpt lat="50.668619005009532" lon="9.644291969016194">
        <ele>279.39999999999998</ele>
        <time>2017-05-21T10:05:55Z</time>
      </trkpt>
      <trkpt lat="50.668466035276651" lon="9.644540995359421">
        <ele>279.39999999999998</ele>
        <time>2017-05-21T10:05:56Z</time>
      </trkpt>
      <trkpt lat="50.66816202364862" lon="9.645091015845537">
        <ele>277.95999999999998</ele>
        <time>2017-05-21T10:05:58Z</time>
      </trkpt>
      <trkpt lat="50.668025985360146" lon="9.645412964746356">
        <ele>277.48000000000002</ele>
        <time>2017-05-21T10:05:59Z</time>
      </trkpt>
      <trkpt lat="50.667906040325761" lon="9.6457439661026">
        <ele>276.51999999999998</ele>
        <time>2017-05-21T10:06:00Z</time>
      </trkpt>
      <trkpt lat="50.667813001200557" lon="9.646090976893902">
        <ele>276.04000000000002</ele>
        <time>2017-05-21T10:06:01Z</time>
      </trkpt>
      <trkpt lat="50.667739994823933" lon="9.646442010998726">
        <ele>276.51999999999998</ele>
        <time>2017-05-21T10:06:02Z</time>
      </trkpt>
      <trkpt lat="50.667682997882366" lon="9.646791033446789">
        <ele>276.04000000000002</ele>
        <time>2017-05-21T10:06:03Z</time>
      </trkpt>
      <trkpt lat="50.667291982099414" lon="9.648753991350532">
        <ele>278.44</ele>
        <time>2017-05-21T10:06:09Z</time>
      </trkpt>
      <trkpt lat="50.667158961296082" lon="9.649063032120466">
        <ele>278.44</ele>
        <time>2017-05-21T10:06:10Z</time>
      </trkpt>
      <trkpt lat="50.667000040411949" lon="9.649356985464692">
        <ele>278.92000000000002</ele>
        <time>2017-05-21T10:06:11Z</time>
      </trkpt>
      <trkpt lat="50.666815973818302" lon="9.649634007364512">
        <ele>279.39999999999998</ele>
        <time>2017-05-21T10:06:12Z</time>
      </trkpt>
      <trkpt lat="50.66661698743701" lon="9.649876998737454">
        <ele>279.39999999999998</ele>
        <time>2017-05-21T10:06:13Z</time>
      </trkpt>
      <trkpt lat="50.666396962478757" lon="9.650126025080681">
        <ele>279.88</ele>
        <time>2017-05-21T10:06:14Z</time>
      </trkpt>
      <trkpt lat="50.666189007461071" lon="9.650358036160469">
        <ele>281.31999999999999</ele>
        <time>2017-05-21T10:06:15Z</time>
      </trkpt>
      <trkpt lat="50.664843963459134" lon="9.652216974645853">
        <ele>287.08999999999997</ele>
        <time>2017-05-21T10:06:22Z</time>
      </trkpt>
      <trkpt lat="50.66416896879673" lon="9.654130982235074">
        <ele>291.89999999999998</ele>
        <time>2017-05-21T10:06:28Z</time>
      </trkpt>
      <trkpt lat="50.664010969921947" lon="9.655308974906802">
        <ele>295.74000000000001</ele>
        <time>2017-05-21T10:06:32Z</time>
      </trkpt>
      <trkpt lat="50.664004012942314" lon="9.655834017321467">
        <ele>296.69999999999999</ele>
        <time>2017-05-21T10:06:34Z</time>
      </trkpt>
      <trkpt lat="50.664310958236456" lon="9.657931001856923">
        <ele>302.94999999999999</ele>
        <time>2017-05-21T10:06:42Z</time>
      </trkpt>
      <trkpt lat="50.664843041449785" lon="9.660069979727268">
        <ele>308.24000000000001</ele>
        <time>2017-05-21T10:06:50Z</time>
      </trkpt>
      <trkpt lat="50.664909007027745" lon="9.660684037953615">
        <ele>309.68000000000001</ele>
        <time>2017-05-21T10:06:52Z</time>
      </trkpt>
      <trkpt lat="50.664920993149281" lon="9.66099601238966">
        <ele>310.16000000000003</ele>
        <time>2017-05-21T10:06:53Z</time>
      </trkpt>
      <trkpt lat="50.664865002036095" lon="9.662314988672733">
        <ele>311.12</ele>
        <time>2017-05-21T10:06:58Z</time>
      </trkpt>
      <trkpt lat="50.664517991244793" lon="9.664015006273985">
        <ele>308.24000000000001</ele>
        <time>2017-05-21T10:07:05Z</time>
      </trkpt>
      <trkpt lat="50.663762027397752" lon="9.666050970554352">
        <ele>302.47000000000003</ele>
        <time>2017-05-21T10:07:15Z</time>
      </trkpt>
      <trkpt lat="50.663591036573052" lon="9.666420025750995">
        <ele>301.50999999999999</ele>
        <time>2017-05-21T10:07:18Z</time>
      </trkpt>
      <trkpt lat="50.663572009652853" lon="9.666524967178702">
        <ele>301.02999999999997</ele>
        <time>2017-05-21T10:07:19Z</time>
      </trkpt>
      <trkpt lat="50.663580978289247" lon="9.666617000475526">
        <ele>300.06999999999999</ele>
        <time>2017-05-21T10:07:20Z</time>
      </trkpt>
      <trkpt lat="50.663617020472884" lon="9.66671297326684">
        <ele>300.06999999999999</ele>
        <time>2017-05-21T10:07:21Z</time>
      </trkpt>
      <trkpt lat="50.663674017414451" lon="9.666812969371676">
        <ele>300.06999999999999</ele>
        <time>2017-05-21T10:07:22Z</time>
      </trkpt>
      <trkpt lat="50.663740988820791" lon="9.666938027366996">
        <ele>299.58999999999997</ele>
        <time>2017-05-21T10:07:23Z</time>
      </trkpt>
      <trkpt lat="50.663797985762358" lon="9.667098959907889">
        <ele>299.58999999999997</ele>
        <time>2017-05-21T10:07:24Z</time>
      </trkpt>
      <trkpt lat="50.663842996582389" lon="9.667294006794691">
        <ele>300.06999999999999</ele>
        <time>2017-05-21T10:07:25Z</time>
      </trkpt>
      <trkpt lat="50.663866968825459" lon="9.667511014267802">
        <ele>301.02999999999997</ele>
        <time>2017-05-21T10:07:26Z</time>
      </trkpt>
      <trkpt lat="50.663879960775375" lon="9.667734978720546">
        <ele>302.47000000000003</ele>
        <time>2017-05-21T10:07:27Z</time>
      </trkpt>
      <trkpt lat="50.663891024887562" lon="9.667967995628715">
        <ele>303.43000000000001</ele>
        <time>2017-05-21T10:07:28Z</time>
      </trkpt>
      <trkpt lat="50.663921032100916" lon="9.668202018365264">
        <ele>304.88</ele>
        <time>2017-05-21T10:07:29Z</time>
      </trkpt>
      <trkpt lat="50.663962019607425" lon="9.668451966717839">
        <ele>305.83999999999997</ele>
        <time>2017-05-21T10:07:30Z</time>
      </trkpt>
      <trkpt lat="50.664023961871862" lon="9.668704010546207">
        <ele>308.24000000000001</ele>
        <time>2017-05-21T10:07:31Z</time>
      </trkpt>
      <trkpt lat="50.66410300321877" lon="9.668954964727163">
        <ele>310.16000000000003</ele>
        <time>2017-05-21T10:07:32Z</time>
      </trkpt>
      <trkpt lat="50.664200987666845" lon="9.669197034090757">
        <ele>312.56999999999999</ele>
        <time>2017-05-21T10:07:33Z</time>
      </trkpt>
      <trkpt lat="50.664564007893205" lon="9.670018963515759">
        <ele>319.30000000000001</ele>
        <time>2017-05-21T10:07:37Z</time>
      </trkpt>
      <trkpt lat="50.664671966806054" lon="9.670181991532445">
        <ele>320.25999999999999</ele>
        <time>2017-05-21T10:07:38Z</time>
      </trkpt>
      <trkpt lat="50.664791995659471" lon="9.670314006507397">
        <ele>321.69999999999999</ele>
        <time>2017-05-21T10:07:39Z</time>
      </trkpt>
      <trkpt lat="50.664916969835758" lon="9.670422971248627">
        <ele>322.66000000000003</ele>
        <time>2017-05-21T10:07:40Z</time>
      </trkpt>
      <trkpt lat="50.665050996467471" lon="9.670504024252296">
        <ele>323.62</ele>
        <time>2017-05-21T10:07:41Z</time>
      </trkpt>
      <trkpt lat="50.665202960371971" lon="9.670569989830256">
        <ele>324.57999999999998</ele>
        <time>2017-05-21T10:07:42Z</time>
      </trkpt>
      <trkpt lat="50.66537001170218" lon="9.670590022578836">
        <ele>326.01999999999998</ele>
        <time>2017-05-21T10:07:43Z</time>
      </trkpt>
      <trkpt lat="50.665553994476795" lon="9.67057703062892">
        <ele>327.94999999999999</ele>
        <time>2017-05-21T10:07:44Z</time>
      </trkpt>
      <trkpt lat="50.665744012221694" lon="9.670520033687353">
        <ele>329.38999999999999</ele>
        <time>2017-05-21T10:07:45Z</time>
      </trkpt>
      <trkpt lat="50.665936963632703" lon="9.67042900621891">
        <ele>330.82999999999998</ele>
        <time>2017-05-21T10:07:46Z</time>
      </trkpt>
      <trkpt lat="50.666138967499137" lon="9.670297997072339">
        <ele>333.23000000000002</ele>
        <time>2017-05-21T10:07:47Z</time>
      </trkpt>
      <trkpt lat="50.668351035565138" lon="9.669166021049023">
        <ele>352.94</ele>
        <time>2017-05-21T10:07:57Z</time>
      </trkpt>
      <trkpt lat="50.670770974829793" lon="9.668389018625021">
        <ele>375.05000000000001</ele>
        <time>2017-05-21T10:08:07Z</time>
      </trkpt>
      <trkpt lat="50.67282797768712" lon="9.667520988732576">
        <ele>390.91000000000003</ele>
        <time>2017-05-21T10:08:16Z</time>
      </trkpt>
      <trkpt lat="50.673710005357862" lon="9.667109018191695">
        <ele>395.72000000000003</ele>
        <time>2017-05-21T10:08:20Z</time>
      </trkpt>
      <trkpt lat="50.673936987295747" lon="9.667069036513567">
        <ele>397.16000000000003</ele>
        <time>2017-05-21T10:08:21Z</time>
      </trkpt>
      <trkpt lat="50.674170004203916" lon="9.66707699932158">
        <ele>398.60000000000002</ele>
        <time>2017-05-21T10:08:22Z</time>
      </trkpt>
      <trkpt lat="50.674408972263336" lon="9.667131984606385">
        <ele>400.05000000000001</ele>
        <time>2017-05-21T10:08:23Z</time>
      </trkpt>
      <trkpt lat="50.67465296946466" lon="9.667222006246448">
        <ele>401.00999999999999</ele>
        <time>2017-05-21T10:08:24Z</time>
      </trkpt>
      <trkpt lat="50.674903001636267" lon="9.667330970987678">
        <ele>401.97000000000003</ele>
        <time>2017-05-21T10:08:25Z</time>
      </trkpt>
      <trkpt lat="50.67660897038877" lon="9.667927008122206">
        <ele>406.29000000000002</ele>
        <time>2017-05-21T10:08:32Z</time>
      </trkpt>
      <trkpt lat="50.677018007263541" lon="9.668085006996989">
        <ele>403.88999999999999</ele>
        <time>2017-05-21T10:08:34Z</time>
      </trkpt>
      <trkpt lat="50.677202995866537" lon="9.668230013921857">
        <ele>402.93000000000001</ele>
        <time>2017-05-21T10:08:35Z</time>
      </trkpt>
      <trkpt lat="50.677367029711604" lon="9.66843101195991">
        <ele>400.05000000000001</ele>
        <time>2017-05-21T10:08:36Z</time>
      </trkpt>
      <trkpt lat="50.677516981959343" lon="9.668690012767911">
        <ele>398.60000000000002</ele>
        <time>2017-05-21T10:08:37Z</time>
      </trkpt>
      <trkpt lat="50.677646985277534" lon="9.668983966112137">
        <ele>397.63999999999999</ele>
        <time>2017-05-21T10:08:38Z</time>
      </trkpt>
      <trkpt lat="50.677769025787711" lon="9.66931102797389">
        <ele>397.16000000000003</ele>
        <time>2017-05-21T10:08:39Z</time>
      </trkpt>
      <trkpt lat="50.677893999963999" lon="9.669643035158515">
        <ele>396.19999999999999</ele>
        <time>2017-05-21T10:08:40Z</time>
      </trkpt>
      <trkpt lat="50.678036995232105" lon="9.669969007372856">
        <ele>395.72000000000003</ele>
        <time>2017-05-21T10:08:41Z</time>
      </trkpt>
      <trkpt lat="50.679160002619028" lon="9.672015029937029">
        <ele>397.63999999999999</ele>
        <time>2017-05-21T10:08:48Z</time>
      </trkpt>
      <trkpt lat="50.67980800755322" lon="9.673039969056845">
        <ele>401.00999999999999</ele>
        <time>2017-05-21T10:08:52Z</time>
      </trkpt>
      <trkpt lat="50.680756000801921" lon="9.675278021022677">
        <ele>409.66000000000003</ele>
        <time>2017-05-21T10:08:59Z</time>
      </trkpt>
      <trkpt lat="50.680873012170196" lon="9.675596030429006">
        <ele>411.10000000000002</ele>
        <time>2017-05-21T10:09:00Z</time>
      </trkpt>
      <trkpt lat="50.68096999078989" lon="9.675939017906785">
        <ele>412.54000000000002</ele>
        <time>2017-05-21T10:09:01Z</time>
      </trkpt>
      <trkpt lat="50.681053977459669" lon="9.676296003162861">
        <ele>412.06</ele>
        <time>2017-05-21T10:09:02Z</time>
      </trkpt>
      <trkpt lat="50.681149028241634" lon="9.676635973155499">
        <ele>412.54000000000002</ele>
        <time>2017-05-21T10:09:03Z</time>
      </trkpt>
      <trkpt lat="50.681262016296387" lon="9.676962029188871">
        <ele>413.5</ele>
        <time>2017-05-21T10:09:04Z</time>
      </trkpt>
      <trkpt lat="50.681407023221254" lon="9.677259000018239">
        <ele>413.98000000000002</ele>
        <time>2017-05-21T10:09:05Z</time>
      </trkpt>
      <trkpt lat="50.681565022096038" lon="9.67756099998951">
        <ele>414.94999999999999</ele>
        <time>2017-05-21T10:09:06Z</time>
      </trkpt>
      <trkpt lat="50.682610999792814" lon="9.679785976186395">
        <ele>413.98000000000002</ele>
        <time>2017-05-21T10:09:13Z</time>
      </trkpt>
      <trkpt lat="50.682918028905988" lon="9.680303977802396">
        <ele>412.54000000000002</ele>
        <time>2017-05-21T10:09:15Z</time>
      </trkpt>
      <trkpt lat="50.683090025559068" lon="9.680524002760649">
        <ele>411.57999999999998</ele>
        <time>2017-05-21T10:09:16Z</time>
      </trkpt>
      <trkpt lat="50.683275014162064" lon="9.680697005242109">
        <ele>410.62</ele>
        <time>2017-05-21T10:09:17Z</time>
      </trkpt>
      <trkpt lat="50.683466037735343" lon="9.680834971368313">
        <ele>410.13999999999999</ele>
        <time>2017-05-21T10:09:18Z</time>
      </trkpt>
      <trkpt lat="50.683680027723312" lon="9.680928010493517">
        <ele>409.66000000000003</ele>
        <time>2017-05-21T10:09:19Z</time>
      </trkpt>
      <trkpt lat="50.683902986347675" lon="9.680997999384999">
        <ele>409.18000000000001</ele>
        <time>2017-05-21T10:09:20Z</time>
      </trkpt>
      <trkpt lat="50.684155030176044" lon="9.681011997163296">
        <ele>407.74000000000001</ele>
        <time>2017-05-21T10:09:21Z</time>
      </trkpt>
      <trkpt lat="50.684401961043477" lon="9.68102197162807">
        <ele>406.76999999999998</ele>
        <time>2017-05-21T10:09:22Z</time>
      </trkpt>
      <trkpt lat="50.686433985829353" lon="9.680919963866472">
        <ele>401.00999999999999</ele>
        <time>2017-05-21T10:09:30Z</time>
      </trkpt>
      <trkpt lat="50.686667002737522" lon="9.680959023535252">
        <ele>400.05000000000001</ele>
        <time>2017-05-21T10:09:31Z</time>
      </trkpt>
      <trkpt lat="50.686888033524156" lon="9.681054996326566">
        <ele>398.60000000000002</ele>
        <time>2017-05-21T10:09:32Z</time>
      </trkpt>
      <trkpt lat="50.687098000198603" lon="9.681206960231066">
        <ele>397.16000000000003</ele>
        <time>2017-05-21T10:09:33Z</time>
      </trkpt>
      <trkpt lat="50.687282988801599" lon="9.681407958269119">
        <ele>395.72000000000003</ele>
        <time>2017-05-21T10:09:34Z</time>
      </trkpt>
      <trkpt lat="50.687440987676382" lon="9.681642986834049">
        <ele>394.75999999999999</ele>
        <time>2017-05-21T10:09:35Z</time>
      </trkpt>
      <trkpt lat="50.687540983781219" lon="9.681911040097475">
        <ele>391.87</ele>
        <time>2017-05-21T10:09:36Z</time>
      </trkpt>
      <trkpt lat="50.687626982107759" lon="9.682197030633688">
        <ele>389.47000000000003</ele>
        <time>2017-05-21T10:09:37Z</time>
      </trkpt>
      <trkpt lat="50.68769202567637" lon="9.682510010898113">
        <ele>387.55000000000001</ele>
        <time>2017-05-21T10:09:38Z</time>
      </trkpt>
      <trkpt lat="50.687732007354498" lon="9.682842018082738">
        <ele>386.58999999999997</ele>
        <time>2017-05-21T10:09:39Z</time>
      </trkpt>
      <trkpt lat="50.687746005132794" lon="9.683177964761853">
        <ele>385.63</ele>
        <time>2017-05-21T10:09:40Z</time>
      </trkpt>
      <trkpt lat="50.687752962112427" lon="9.683516006916761">
        <ele>384.66000000000003</ele>
        <time>2017-05-21T10:09:41Z</time>
      </trkpt>
      <trkpt lat="50.687941974028945" lon="9.685970982536674">
        <ele>384.18000000000001</ele>
        <time>2017-05-21T10:09:48Z</time>
      </trkpt>
      <trkpt lat="50.688293008133769" lon="9.687046967446804">
        <ele>384.66000000000003</ele>
        <time>2017-05-21T10:09:53Z</time>
      </trkpt>
      <trkpt lat="50.689097000285983" lon="9.68858202919364">
        <ele>383.69999999999999</ele>
        <time>2017-05-21T10:10:00Z</time>
      </trkpt>
      <trkpt lat="50.690427962690592" lon="9.691132977604866">
        <ele>374.56999999999999</ele>
        <time>2017-05-21T10:10:10Z</time>
      </trkpt>
      <trkpt lat="50.691505037248135" lon="9.693644028156996">
        <ele>362.55000000000001</ele>
        <time>2017-05-21T10:10:18Z</time>
      </trkpt>
      <trkpt lat="50.693185022100806" lon="9.697970012202859">
        <ele>351.01999999999998</ele>
        <time>2017-05-21T10:10:30Z</time>
      </trkpt>
      <trkpt lat="50.693955989554524" lon="9.70123702660203">
        <ele>351.01999999999998</ele>
        <time>2017-05-21T10:10:38Z</time>
      </trkpt>
      <trkpt lat="50.694736009463668" lon="9.7039860393852">
        <ele>350.06</ele>
        <time>2017-05-21T10:10:46Z</time>
      </trkpt>
      <trkpt lat="50.695461966097355" lon="9.706644024699926">
        <ele>341.41000000000003</ele>
        <time>2017-05-21T10:10:53Z</time>
      </trkpt>
      <trkpt lat="50.696204015985131" lon="9.710017992183566">
        <ele>327.94999999999999</ele>
        <time>2017-05-21T10:11:02Z</time>
      </trkpt>
      <trkpt lat="50.696726962924004" lon="9.712055968120694">
        <ele>318.32999999999998</ele>
        <time>2017-05-21T10:11:08Z</time>
      </trkpt>
      <trkpt lat="50.696835005655885" lon="9.712343970313668">
        <ele>316.88999999999999</ele>
        <time>2017-05-21T10:11:09Z</time>
      </trkpt>
      <trkpt lat="50.697178998962045" lon="9.713190961629152">
        <ele>313.52999999999997</ele>
        <time>2017-05-21T10:11:12Z</time>
      </trkpt>
      <trkpt lat="50.697525003924966" lon="9.714340036734939">
        <ele>307.75999999999999</ele>
        <time>2017-05-21T10:11:16Z</time>
      </trkpt>
      <trkpt lat="50.697617037221789" lon="9.714513039216399">
        <ele>307.27999999999997</ele>
        <time>2017-05-21T10:11:17Z</time>
      </trkpt>
      <trkpt lat="50.697799008339643" lon="9.714926015585661">
        <ele>303.91000000000003</ele>
        <time>2017-05-21T10:11:20Z</time>
      </trkpt>
      <trkpt lat="50.697794985026121" lon="9.715085020288825">
        <ele>302.94999999999999</ele>
        <time>2017-05-21T10:11:21Z</time>
      </trkpt>
      <trkpt lat="50.697733964771032" lon="9.715236984193325">
        <ele>302.47000000000003</ele>
        <time>2017-05-21T10:11:22Z</time>
      </trkpt>
      <trkpt lat="50.697645032778382" lon="9.715372016653419">
        <ele>301.50999999999999</ele>
        <time>2017-05-21T10:11:23Z</time>
      </trkpt>
      <trkpt lat="50.697551993653178" lon="9.71550696529448">
        <ele>300.06999999999999</ele>
        <time>2017-05-21T10:11:24Z</time>
      </trkpt>
      <trkpt lat="50.697486028075218" lon="9.715660018846393">
        <ele>299.11000000000001</ele>
        <time>2017-05-21T10:11:25Z</time>
      </trkpt>
      <trkpt lat="50.697453003376722" lon="9.715828998014331">
        <ele>298.14999999999998</ele>
        <time>2017-05-21T10:11:26Z</time>
      </trkpt>
      <trkpt lat="50.69746901281178" lon="9.715989008545876">
        <ele>297.18000000000001</ele>
        <time>2017-05-21T10:11:27Z</time>
      </trkpt>
      <trkpt lat="50.697528021410108" lon="9.716123035177589">
        <ele>296.22000000000003</ele>
        <time>2017-05-21T10:11:28Z</time>
      </trkpt>
      <trkpt lat="50.697625000029802" lon="9.716196963563561">
        <ele>295.25999999999999</ele>
        <time>2017-05-21T10:11:29Z</time>
      </trkpt>
      <trkpt lat="50.697735976427794" lon="9.716243986040354">
        <ele>294.77999999999997</ele>
        <time>2017-05-21T10:11:30Z</time>
      </trkpt>
      <trkpt lat="50.697848964482546" lon="9.716296959668398">
        <ele>293.81999999999999</ele>
        <time>2017-05-21T10:11:31Z</time>
      </trkpt>
      <trkpt lat="50.697951978072524" lon="9.716405002400279">
        <ele>291.89999999999998</ele>
        <time>2017-05-21T10:11:32Z</time>
      </trkpt>
      <trkpt lat="50.698044011369348" lon="9.716568030416966">
        <ele>291.42000000000002</ele>
        <time>2017-05-21T10:11:33Z</time>
      </trkpt>
      <trkpt lat="50.698121963068843" lon="9.71679400652647">
        <ele>289.49000000000001</ele>
        <time>2017-05-21T10:11:34Z</time>
      </trkpt>
      <trkpt lat="50.698205027729273" lon="9.71703096292913">
        <ele>288.05000000000001</ele>
        <time>2017-05-21T10:11:35Z</time>
      </trkpt>
      <trkpt lat="50.69878002628684" lon="9.71913599409163">
        <ele>282.27999999999997</ele>
        <time>2017-05-21T10:11:43Z</time>
      </trkpt>
      <trkpt lat="50.698891002684832" lon="9.719551987946034">
        <ele>280.83999999999997</ele>
        <time>2017-05-21T10:11:45Z</time>
      </trkpt>
      <trkpt lat="50.698912041261792" lon="9.719733959063888">
        <ele>279.88</ele>
        <time>2017-05-21T10:11:46Z</time>
      </trkpt>
      <trkpt lat="50.698895025998354" lon="9.719888018444181">
        <ele>279.39999999999998</ele>
        <time>2017-05-21T10:11:47Z</time>
      </trkpt>
      <trkpt lat="50.698848003521562" lon="9.719981979578733">
        <ele>278.92000000000002</ele>
        <time>2017-05-21T10:11:48Z</time>
      </trkpt>
      <trkpt lat="50.698781032115221" lon="9.720039982348681">
        <ele>277.95999999999998</ele>
        <time>2017-05-21T10:11:49Z</time>
      </trkpt>
      <trkpt lat="50.698692016303539" lon="9.720082981511951">
        <ele>277.48000000000002</ele>
        <time>2017-05-21T10:11:50Z</time>
      </trkpt>
      <trkpt lat="50.698597971349955" lon="9.720083987340331">
        <ele>276.51999999999998</ele>
        <time>2017-05-21T10:11:51Z</time>
      </trkpt>
      <trkpt lat="50.69850199855864" lon="9.720060015097261">
        <ele>276.04000000000002</ele>
        <time>2017-05-21T10:11:52Z</time>
      </trkpt>
      <trkpt lat="50.698408037424088" lon="9.720032019540668">
        <ele>275.56</ele>
        <time>2017-05-21T10:11:53Z</time>
      </trkpt>
      <trkpt lat="50.698236962780356" lon="9.720052974298596">
        <ele>273.14999999999998</ele>
        <time>2017-05-21T10:11:55Z</time>
      </trkpt>
      <trkpt lat="50.698160016909242" lon="9.720131009817123">
        <ele>272.19</ele>
        <time>2017-05-21T10:11:56Z</time>
      </trkpt>
      <trkpt lat="50.698115006089211" lon="9.720241986215115">
        <ele>271.70999999999998</ele>
        <time>2017-05-21T10:11:57Z</time>
      </trkpt>
      <trkpt lat="50.698083993047476" lon="9.720380958169699">
        <ele>270.26999999999998</ele>
        <time>2017-05-21T10:11:58Z</time>
      </trkpt>
      <trkpt lat="50.698088016360998" lon="9.720520013943315">
        <ele>269.79000000000002</ele>
        <time>2017-05-21T10:11:59Z</time>
      </trkpt>
      <trkpt lat="50.698121041059494" lon="9.72064197063446">
        <ele>269.79000000000002</ele>
        <time>2017-05-21T10:12:00Z</time>
      </trkpt>
      <trkpt lat="50.698167979717255" lon="9.720749007537961">
        <ele>269.79000000000002</ele>
        <time>2017-05-21T10:12:01Z</time>
      </trkpt>
      <trkpt lat="50.698221959173679" lon="9.720841962844133">
        <ele>268.82999999999998</ele>
        <time>2017-05-21T10:12:02Z</time>
      </trkpt>
      <trkpt lat="50.698331007733941" lon="9.721180004999042">
        <ele>267.86000000000001</ele>
        <time>2017-05-21T10:12:05Z</time>
      </trkpt>
      <trkpt lat="50.698341988027096" lon="9.721318976953626">
        <ele>267.38</ele>
        <time>2017-05-21T10:12:06Z</time>
      </trkpt>
      <trkpt lat="50.698340982198715" lon="9.721459038555622">
        <ele>266.42000000000002</ele>
        <time>2017-05-21T10:12:07Z</time>
      </trkpt>
      <trkpt lat="50.69833000190556" lon="9.721604967489839">
        <ele>265.94</ele>
        <time>2017-05-21T10:12:08Z</time>
      </trkpt>
      <trkpt lat="50.698317009955645" lon="9.721747040748596">
        <ele>264.98000000000002</ele>
        <time>2017-05-21T10:12:09Z</time>
      </trkpt>
      <trkpt lat="50.698314998298883" lon="9.722198992967606">
        <ele>264.01999999999998</ele>
        <time>2017-05-21T10:12:12Z</time>
      </trkpt>
      <trkpt lat="50.698486994951963" lon="9.72381703555584">
        <ele>257.29000000000002</ele>
        <time>2017-05-21T10:12:24Z</time>
      </trkpt>
      <trkpt lat="50.698494035750628" lon="9.724319027736783">
        <ele>255.84999999999999</ele>
        <time>2017-05-21T10:12:28Z</time>
      </trkpt>
      <trkpt lat="50.698480037972331" lon="9.724534023553133">
        <ele>254.88999999999999</ele>
        <time>2017-05-21T10:12:30Z</time>
      </trkpt>
      <trkpt lat="50.69845899939537" lon="9.72463401965797">
        <ele>253.93000000000001</ele>
        <time>2017-05-21T10:12:31Z</time>
      </trkpt>
      <trkpt lat="50.698319021612406" lon="9.725998006761074">
        <ele>247.19999999999999</ele>
        <time>2017-05-21T10:12:42Z</time>
      </trkpt>
      <trkpt lat="50.698319021612406" lon="9.726217025890946">
        <ele>246.72</ele>
        <time>2017-05-21T10:12:44Z</time>
      </trkpt>
      <trkpt lat="50.698336036875844" lon="9.726302018389106">
        <ele>245.75</ele>
        <time>2017-05-21T10:12:45Z</time>
      </trkpt>
      <trkpt lat="50.698370989412069" lon="9.726371001452208">
        <ele>245.75</ele>
        <time>2017-05-21T10:12:46Z</time>
      </trkpt>
      <trkpt lat="50.698418011888862" lon="9.726403020322323">
        <ele>245.27000000000001</ele>
        <time>2017-05-21T10:12:47Z</time>
      </trkpt>
      <trkpt lat="50.698481965810061" lon="9.726406959816814">
        <ele>245.27000000000001</ele>
        <time>2017-05-21T10:12:48Z</time>
      </trkpt>
      <trkpt lat="50.698553966358304" lon="9.726393967866898">
        <ele>245.27000000000001</ele>
        <time>2017-05-21T10:12:49Z</time>
      </trkpt>
      <trkpt lat="50.69862999022007" lon="9.72637502476573">
        <ele>245.27000000000001</ele>
        <time>2017-05-21T10:12:50Z</time>
      </trkpt>
      <trkpt lat="50.698718000203371" lon="9.726391034200788">
        <ele>245.75</ele>
        <time>2017-05-21T10:12:51Z</time>
      </trkpt>
      <trkpt lat="50.698795029893517" lon="9.726439984515309">
        <ele>245.27000000000001</ele>
        <time>2017-05-21T10:12:52Z</time>
      </trkpt>
      <trkpt lat="50.698869964107871" lon="9.72650402225554">
        <ele>245.27000000000001</ele>
        <time>2017-05-21T10:12:53Z</time>
      </trkpt>
      <trkpt lat="50.698946993798018" lon="9.726574011147022">
        <ele>245.27000000000001</ele>
        <time>2017-05-21T10:12:54Z</time>
      </trkpt>
      <trkpt lat="50.699004996567965" lon="9.726696973666549">
        <ele>244.78999999999999</ele>
        <time>2017-05-21T10:12:55Z</time>
      </trkpt>
      <trkpt lat="50.699058976024389" lon="9.726819014176726">
        <ele>244.31</ele>
        <time>2017-05-21T10:12:56Z</time>
      </trkpt>
      <trkpt lat="50.699105998501182" lon="9.726951029151678">
        <ele>244.31</ele>
        <time>2017-05-21T10:12:57Z</time>
      </trkpt>
      <trkpt lat="50.69916601292789" lon="9.727087989449501">
        <ele>245.75</ele>
        <time>2017-05-21T10:12:58Z</time>
      </trkpt>
      <trkpt lat="50.699981991201639" lon="9.729263009503484">
        <ele>253.44</ele>
        <time>2017-05-21T10:13:14Z</time>
      </trkpt>
      <trkpt lat="50.70030796341598" lon="9.730123998597264">
        <ele>254.88999999999999</ele>
        <time>2017-05-21T10:13:22Z</time>
      </trkpt>
      <trkpt lat="50.700372001156211" lon="9.730228018015623">
        <ele>254.88999999999999</ele>
        <time>2017-05-21T10:13:23Z</time>
      </trkpt>
      <trkpt lat="50.700448025017977" lon="9.730313010513783">
        <ele>254.88999999999999</ele>
        <time>2017-05-21T10:13:24Z</time>
      </trkpt>
      <trkpt lat="50.700531005859375" lon="9.73037101328373">
        <ele>254.88999999999999</ele>
        <time>2017-05-21T10:13:25Z</time>
      </trkpt>
      <trkpt lat="50.700618010014296" lon="9.730404037982225">
        <ele>254.41</ele>
        <time>2017-05-21T10:13:26Z</time>
      </trkpt>
      <trkpt lat="50.700700990855694" lon="9.730416024103761">
        <ele>254.41</ele>
        <time>2017-05-21T10:13:27Z</time>
      </trkpt>
      <trkpt lat="50.700770979747176" lon="9.730441002175212">
        <ele>254.41</ele>
        <time>2017-05-21T10:13:28Z</time>
      </trkpt>
      <trkpt lat="50.700824959203601" lon="9.730478972196579">
        <ele>253.93000000000001</ele>
        <time>2017-05-21T10:13:29Z</time>
      </trkpt>
      <trkpt lat="50.700863013044" lon="9.730534963309765">
        <ele>253.93000000000001</ele>
        <time>2017-05-21T10:13:30Z</time>
      </trkpt>
      <trkpt lat="50.700882961973548" lon="9.730620039626956">
        <ele>253.93000000000001</ele>
        <time>2017-05-21T10:13:31Z</time>
      </trkpt>
      <trkpt lat="50.700892014428973" lon="9.730727998539805">
        <ele>253.93000000000001</ele>
        <time>2017-05-21T10:13:32Z</time>
      </trkpt>
      <trkpt lat="50.700876004993916" lon="9.730861019343138">
        <ele>253.44</ele>
        <time>2017-05-21T10:13:33Z</time>
      </trkpt>
      <trkpt lat="50.700855972245336" lon="9.73101700656116">
        <ele>253.93000000000001</ele>
        <time>2017-05-21T10:13:34Z</time>
      </trkpt>
      <trkpt lat="50.700508039444685" lon="9.732432039454579">
        <ele>255.84999999999999</ele>
        <time>2017-05-21T10:13:41Z</time>
      </trkpt>
      <trkpt lat="50.700381975620985" lon="9.733063029125333">
        <ele>256.81</ele>
        <time>2017-05-21T10:13:44Z</time>
      </trkpt>
      <trkpt lat="50.700211990624666" lon="9.735317006707192">
        <ele>260.64999999999998</ele>
        <time>2017-05-21T10:13:53Z</time>
      </trkpt>
      <trkpt lat="50.69991703145206" lon="9.737987983971834">
        <ele>266.42000000000002</ele>
        <time>2017-05-21T10:14:05Z</time>
      </trkpt>
      <trkpt lat="50.699389977380633" lon="9.740496017038822">
        <ele>268.35000000000002</ele>
        <time>2017-05-21T10:14:16Z</time>
      </trkpt>
      <trkpt lat="50.698626972734928" lon="9.742743037641048">
        <ele>267.38</ele>
        <time>2017-05-21T10:14:26Z</time>
      </trkpt>
      <trkpt lat="50.697874026373029" lon="9.74521704018116">
        <ele>264.5</ele>
        <time>2017-05-21T10:14:35Z</time>
      </trkpt>
      <trkpt lat="50.697458032518625" lon="9.746514977887273">
        <ele>261.62</ele>
        <time>2017-05-21T10:14:40Z</time>
      </trkpt>
      <trkpt lat="50.696928966790438" lon="9.747834959998727">
        <ele>261.13999999999999</ele>
        <time>2017-05-21T10:14:47Z</time>
      </trkpt>
      <trkpt lat="50.696855038404465" lon="9.747978039085865">
        <ele>261.13999999999999</ele>
        <time>2017-05-21T10:14:48Z</time>
      </trkpt>
      <trkpt lat="50.696779014542699" lon="9.748111981898546">
        <ele>261.13999999999999</ele>
        <time>2017-05-21T10:14:49Z</time>
      </trkpt>
      <trkpt lat="50.695791961625218" lon="9.749983996152878">
        <ele>259.20999999999998</ele>
        <time>2017-05-21T10:15:03Z</time>
      </trkpt>
      <trkpt lat="50.695719039067626" lon="9.750093966722488">
        <ele>259.69</ele>
        <time>2017-05-21T10:15:04Z</time>
      </trkpt>
      <trkpt lat="50.695638991892338" lon="9.750183988362551">
        <ele>259.20999999999998</ele>
        <time>2017-05-21T10:15:05Z</time>
      </trkpt>
      <trkpt lat="50.695553999394178" lon="9.750251965597272">
        <ele>258.73000000000002</ele>
        <time>2017-05-21T10:15:06Z</time>
      </trkpt>
      <trkpt lat="50.695469006896019" lon="9.750296976417303">
        <ele>258.73000000000002</ele>
        <time>2017-05-21T10:15:07Z</time>
      </trkpt>
      <trkpt lat="50.695372028276324" lon="9.750323966145515">
        <ele>258.25</ele>
        <time>2017-05-21T10:15:08Z</time>
      </trkpt>
      <trkpt lat="50.695268008857965" lon="9.750321032479405">
        <ele>258.25</ele>
        <time>2017-05-21T10:15:09Z</time>
      </trkpt>
      <trkpt lat="50.695162983611226" lon="9.750280966982245">
        <ele>257.76999999999998</ele>
        <time>2017-05-21T10:15:10Z</time>
      </trkpt>
      <trkpt lat="50.695060975849628" lon="9.750228999182582">
        <ele>258.25</ele>
        <time>2017-05-21T10:15:11Z</time>
      </trkpt>
      <trkpt lat="50.693293986842036" lon="9.749655006453395">
        <ele>262.57999999999998</ele>
        <time>2017-05-21T10:15:26Z</time>
      </trkpt>
      <trkpt lat="50.692800963297486" lon="9.749543024227023">
        <ele>265.45999999999998</ele>
        <time>2017-05-21T10:15:30Z</time>
      </trkpt>
      <trkpt lat="50.692673977464437" lon="9.749549981206656">
        <ele>266.42000000000002</ele>
        <time>2017-05-21T10:15:31Z</time>
      </trkpt>
      <trkpt lat="50.692305006086826" lon="9.749645031988621">
        <ele>267.38</ele>
        <time>2017-05-21T10:15:34Z</time>
      </trkpt>
      <trkpt lat="50.692187994718552" lon="9.7497099917382">
        <ele>267.38</ele>
        <time>2017-05-21T10:15:35Z</time>
      </trkpt>
      <trkpt lat="50.692075006663799" lon="9.749790960922837">
        <ele>267.38</ele>
        <time>2017-05-21T10:15:36Z</time>
      </trkpt>
      <trkpt lat="50.691428007557988" lon="9.7504370380193">
        <ele>266.89999999999998</ele>
        <time>2017-05-21T10:15:44Z</time>
      </trkpt>
      <trkpt lat="50.691378973424435" lon="9.750562012195587">
        <ele>265.94</ele>
        <time>2017-05-21T10:15:47Z</time>
      </trkpt>
      <trkpt lat="50.691391965374351" lon="9.750628983601928">
        <ele>265.45999999999998</ele>
        <time>2017-05-21T10:15:48Z</time>
      </trkpt>
      <trkpt lat="50.691422978416085" lon="9.750727973878384">
        <ele>266.42000000000002</ele>
        <time>2017-05-21T10:15:49Z</time>
      </trkpt>
      <trkpt lat="50.691543007269502" lon="9.751142039895058">
        <ele>267.38</ele>
        <time>2017-05-21T10:15:52Z</time>
      </trkpt>
      <trkpt lat="50.692006023600698" lon="9.752621026709676">
        <ele>270.75</ele>
        <time>2017-05-21T10:15:59Z</time>
      </trkpt>
      <trkpt lat="50.693011013790965" lon="9.754473008215427">
        <ele>276.04000000000002</ele>
        <time>2017-05-21T10:16:07Z</time>
      </trkpt>
      <trkpt lat="50.694549009203911" lon="9.756610980257392">
        <ele>283.73000000000002</ele>
        <time>2017-05-21T10:16:16Z</time>
      </trkpt>
      <trkpt lat="50.695396000519395" lon="9.758640993386507">
        <ele>289.97000000000003</ele>
        <time>2017-05-21T10:16:22Z</time>
      </trkpt>
      <trkpt lat="50.696231005713344" lon="9.761962993070483">
        <ele>297.67000000000002</ele>
        <time>2017-05-21T10:16:30Z</time>
      </trkpt>
      <trkpt lat="50.697328029200435" lon="9.764037011191249">
        <ele>304.88</ele>
        <time>2017-05-21T10:16:36Z</time>
      </trkpt>
      <trkpt lat="50.698611969128251" lon="9.766363995149732">
        <ele>311.60000000000002</ele>
        <time>2017-05-21T10:16:44Z</time>
      </trkpt>
      <trkpt lat="50.699190990999341" lon="9.768633982166648">
        <ele>316.88999999999999</ele>
        <time>2017-05-21T10:16:50Z</time>
      </trkpt>
      <trkpt lat="50.699181016534567" lon="9.770844960585237">
        <ele>321.22000000000003</ele>
        <time>2017-05-21T10:16:55Z</time>
      </trkpt>
      <trkpt lat="50.698638958856463" lon="9.773507975041866">
        <ele>326.99000000000001</ele>
        <time>2017-05-21T10:17:01Z</time>
      </trkpt>
      <trkpt lat="50.698190024122596" lon="9.776816982775927">
        <ele>328.91000000000003</ele>
        <time>2017-05-21T10:17:08Z</time>
      </trkpt>
      <trkpt lat="50.6984160002321" lon="9.780355989933014">
        <ele>325.06</ele>
        <time>2017-05-21T10:17:15Z</time>
      </trkpt>
      <trkpt lat="50.698122968897223" lon="9.78281800635159">
        <ele>322.18000000000001</ele>
        <time>2017-05-21T10:17:20Z</time>
      </trkpt>
      <trkpt lat="50.697267008945346" lon="9.784845001995564">
        <ele>326.01999999999998</ele>
        <time>2017-05-21T10:17:25Z</time>
      </trkpt>
      <trkpt lat="50.696026990190148" lon="9.786174036562443">
        <ele>329.87</ele>
        <time>2017-05-21T10:17:30Z</time>
      </trkpt>
      <trkpt lat="50.694154975935817" lon="9.787236023694277">
        <ele>327.47000000000003</ele>
        <time>2017-05-21T10:17:37Z</time>
      </trkpt>
      <trkpt lat="50.692758969962597" lon="9.788659019395709">
        <ele>325.06</ele>
        <time>2017-05-21T10:17:43Z</time>
      </trkpt>
      <trkpt lat="50.691940980032086" lon="9.790523992851377">
        <ele>323.62</ele>
        <time>2017-05-21T10:17:48Z</time>
      </trkpt>
      <trkpt lat="50.691611990332603" lon="9.792759027332068">
        <ele>320.74000000000001</ele>
        <time>2017-05-21T10:17:53Z</time>
      </trkpt>
      <trkpt lat="50.691796978935599" lon="9.795044017955661">
        <ele>318.32999999999998</ele>
        <time>2017-05-21T10:17:58Z</time>
      </trkpt>
      <trkpt lat="50.692489994689822" lon="9.797309981659055">
        <ele>314.97000000000003</ele>
        <time>2017-05-21T10:18:04Z</time>
      </trkpt>
      <trkpt lat="50.693211006000638" lon="9.800254041329026">
        <ele>306.80000000000001</ele>
        <time>2017-05-21T10:18:12Z</time>
      </trkpt>
      <trkpt lat="50.693794973194599" lon="9.802854023873806">
        <ele>301.02999999999997</ele>
        <time>2017-05-21T10:18:18Z</time>
      </trkpt>
      <trkpt lat="50.694897025823593" lon="9.805101966485381">
        <ele>304.88</ele>
        <time>2017-05-21T10:18:24Z</time>
      </trkpt>
      <trkpt lat="50.696004023775458" lon="9.80784603394568">
        <ele>314.00999999999999</ele>
        <time>2017-05-21T10:18:31Z</time>
      </trkpt>
      <trkpt lat="50.696383975446224" lon="9.809983000159264">
        <ele>318.81</ele>
        <time>2017-05-21T10:18:36Z</time>
      </trkpt>
      <trkpt lat="50.696485983207822" lon="9.810353983193636">
        <ele>319.30000000000001</ele>
        <time>2017-05-21T10:18:37Z</time>
      </trkpt>
      <trkpt lat="50.696617998182774" lon="9.810699988156557">
        <ele>319.30000000000001</ele>
        <time>2017-05-21T10:18:38Z</time>
      </trkpt>
      <trkpt lat="50.696779014542699" lon="9.811017997562885">
        <ele>319.30000000000001</ele>
        <time>2017-05-21T10:18:39Z</time>
      </trkpt>
      <trkpt lat="50.696960985660553" lon="9.811314968392253">
        <ele>319.30000000000001</ele>
        <time>2017-05-21T10:18:40Z</time>
      </trkpt>
      <trkpt lat="50.697149997577071" lon="9.811605988070369">
        <ele>319.30000000000001</ele>
        <time>2017-05-21T10:18:41Z</time>
      </trkpt>
      <trkpt lat="50.697691971436143" lon="9.812517017126083">
        <ele>319.77999999999997</ele>
        <time>2017-05-21T10:18:44Z</time>
      </trkpt>
      <trkpt lat="50.697839995846152" lon="9.812864027917385">
        <ele>319.77999999999997</ele>
        <time>2017-05-21T10:18:45Z</time>
      </trkpt>
      <trkpt lat="50.69861096329987" lon="9.815040975809097">
        <ele>322.18000000000001</ele>
        <time>2017-05-21T10:18:52Z</time>
      </trkpt>
      <trkpt lat="50.699026035144925" lon="9.816412003710866">
        <ele>324.10000000000002</ele>
        <time>2017-05-21T10:18:59Z</time>
      </trkpt>
      <trkpt lat="50.699632968753576" lon="9.818520974367857">
        <ele>326.5</ele>
        <time>2017-05-21T10:19:12Z</time>
      </trkpt>
      <trkpt lat="50.700216013938189" lon="9.820509999990463">
        <ele>326.99000000000001</ele>
        <time>2017-05-21T10:19:23Z</time>
      </trkpt>
      <trkpt lat="50.700822025537491" lon="9.822593992576003">
        <ele>327.94999999999999</ele>
        <time>2017-05-21T10:19:30Z</time>
      </trkpt>
      <trkpt lat="50.701934974640608" lon="9.826440028846264">
        <ele>331.31</ele>
        <time>2017-05-21T10:19:40Z</time>
      </trkpt>
      <trkpt lat="50.703040966764092" lon="9.830305008217692">
        <ele>335.63999999999999</ele>
        <time>2017-05-21T10:19:50Z</time>
      </trkpt>
      <trkpt lat="50.704155005514622" lon="9.834147021174431">
        <ele>349.10000000000002</ele>
        <time>2017-05-21T10:20:00Z</time>
      </trkpt>
      <trkpt lat="50.705557968467474" lon="9.839019002392888">
        <ele>362.06999999999999</ele>
        <time>2017-05-21T10:20:12Z</time>
      </trkpt>
      <trkpt lat="50.706585003063083" lon="9.841734990477562">
        <ele>367.36000000000001</ele>
        <time>2017-05-21T10:20:20Z</time>
      </trkpt>
      <trkpt lat="50.707450015470386" lon="9.843838009983301">
        <ele>368.80000000000001</ele>
        <time>2017-05-21T10:20:27Z</time>
      </trkpt>
      <trkpt lat="50.707928035408258" lon="9.844970991834998">
        <ele>368.80000000000001</ele>
        <time>2017-05-21T10:20:31Z</time>
      </trkpt>
      <trkpt lat="50.708902012556791" lon="9.848071960732341">
        <ele>377.44999999999999</ele>
        <time>2017-05-21T10:20:42Z</time>
      </trkpt>
      <trkpt lat="50.7095439825207" lon="9.851360013708472">
        <ele>376.97000000000003</ele>
        <time>2017-05-21T10:20:53Z</time>
      </trkpt>
      <trkpt lat="50.710441013798118" lon="9.854905977845192">
        <ele>387.55000000000001</ele>
        <time>2017-05-21T10:21:05Z</time>
      </trkpt>
      <trkpt lat="50.711835008114576" lon="9.85878998413682">
        <ele>388.99000000000001</ele>
        <time>2017-05-21T10:21:19Z</time>
      </trkpt>
      <trkpt lat="50.712717035785317" lon="9.862007964402437">
        <ele>389.47000000000003</ele>
        <time>2017-05-21T10:21:30Z</time>
      </trkpt>
      <trkpt lat="50.713580036535859" lon="9.864546004682779">
        <ele>381.30000000000001</ele>
        <time>2017-05-21T10:21:39Z</time>
      </trkpt>
      <trkpt lat="50.715720020234585" lon="9.870331026613712">
        <ele>348.13</ele>
        <time>2017-05-21T10:22:00Z</time>
      </trkpt>
      <trkpt lat="50.716803967952728" lon="9.874772010371089">
        <ele>339</ele>
        <time>2017-05-21T10:22:15Z</time>
      </trkpt>
      <trkpt lat="50.717740980908275" lon="9.876842005178332">
        <ele>338.04000000000002</ele>
        <time>2017-05-21T10:22:23Z</time>
      </trkpt>
      <trkpt lat="50.718143982812762" lon="9.878629026934505">
        <ele>339</ele>
        <time>2017-05-21T10:22:29Z</time>
      </trkpt>
      <trkpt lat="50.718096038326621" lon="9.880885016173124">
        <ele>334.68000000000001</ele>
        <time>2017-05-21T10:22:36Z</time>
      </trkpt>
      <trkpt lat="50.717749027535319" lon="9.882688969373703">
        <ele>332.75</ele>
        <time>2017-05-21T10:22:42Z</time>
      </trkpt>
      <trkpt lat="50.717380978167057" lon="9.885170012712479">
        <ele>330.35000000000002</ele>
        <time>2017-05-21T10:22:50Z</time>
      </trkpt>
      <trkpt lat="50.717433029785752" lon="9.888952011242509">
        <ele>321.69999999999999</ele>
        <time>2017-05-21T10:23:02Z</time>
      </trkpt>
      <trkpt lat="50.717425988987088" lon="9.889763966202736">
        <ele>321.22000000000003</ele>
        <time>2017-05-21T10:23:07Z</time>
      </trkpt>
      <trkpt lat="50.717409979552031" lon="9.889805959537625">
        <ele>320.74000000000001</ele>
        <time>2017-05-21T10:23:08Z</time>
      </trkpt>
      <trkpt lat="50.717303026467562" lon="9.889978962019086">
        <ele>319.30000000000001</ele>
        <time>2017-05-21T10:23:21Z</time>
      </trkpt>
      <trkpt lat="50.717307971790433" lon="9.889958007261157">
        <ele>318.81</ele>
        <time>2017-05-21T10:24:11Z</time>
      </trkpt>
      <trkpt lat="50.717309983447194" lon="9.889945015311241">
        <ele>318.81</ele>
        <time>2017-05-21T10:26:07Z</time>
      </trkpt>
      <trkpt lat="50.717313000932336" lon="9.889910984784365">
        <ele>318.81</ele>
        <time>2017-05-21T10:27:23Z</time>
      </trkpt>
      <trkpt lat="50.717310989275575" lon="9.889908973127604">
        <ele>318.81</ele>
        <time>2017-05-21T10:28:57Z</time>
      </trkpt>
      <trkpt lat="50.717311995103955" lon="9.889906961470842">
        <ele>318.81</ele>
        <time>2017-05-21T10:30:05Z</time>
      </trkpt>
      <trkpt lat="50.717309983447194" lon="9.889911990612745">
        <ele>318.32999999999998</ele>
        <time>2017-05-21T10:31:52Z</time>
      </trkpt>
      <trkpt lat="50.717307971790433" lon="9.889917019754648">
        <ele>318.32999999999998</ele>
        <time>2017-05-21T10:33:20Z</time>
      </trkpt>
      <trkpt lat="50.717305960133672" lon="9.889918025583029">
        <ele>317.85000000000002</ele>
        <time>2017-05-21T10:34:56Z</time>
      </trkpt>
      <trkpt lat="50.717310989275575" lon="9.890095973387361">
        <ele>318.32999999999998</ele>
        <time>2017-05-21T10:35:31Z</time>
      </trkpt>
      <trkpt lat="50.717356000095606" lon="9.890309041365981">
        <ele>319.77999999999997</ele>
        <time>2017-05-21T10:35:38Z</time>
      </trkpt>
      <trkpt lat="50.717363962903619" lon="9.890420017763972">
        <ele>319.77999999999997</ele>
        <time>2017-05-21T10:35:39Z</time>
      </trkpt>
      <trkpt lat="50.717367986217141" lon="9.890555972233415">
        <ele>320.25999999999999</ele>
        <time>2017-05-21T10:35:40Z</time>
      </trkpt>
      <trkpt lat="50.717508969828486" lon="9.892317010089755">
        <ele>325.06</ele>
        <time>2017-05-21T10:35:51Z</time>
      </trkpt>
      <trkpt lat="50.717483991757035" lon="9.892932996153832">
        <ele>326.01999999999998</ele>
        <time>2017-05-21T10:35:54Z</time>
      </trkpt>
      <trkpt lat="50.717419032007456" lon="9.893364999443293">
        <ele>325.54000000000002</ele>
        <time>2017-05-21T10:35:56Z</time>
      </trkpt>
      <trkpt lat="50.716963978484273" lon="9.895419990643859">
        <ele>319.77999999999997</ele>
        <time>2017-05-21T10:36:07Z</time>
      </trkpt>
      <trkpt lat="50.71663498878479" lon="9.897087989374995">
        <ele>323.62</ele>
        <time>2017-05-21T10:36:18Z</time>
      </trkpt>
      <trkpt lat="50.716585032641888" lon="9.897552011534572">
        <ele>325.06</ele>
        <time>2017-05-21T10:36:25Z</time>
      </trkpt>
      <trkpt lat="50.716570029035211" lon="9.897896004840732">
        <ele>326.5</ele>
        <time>2017-05-21T10:36:36Z</time>
      </trkpt>
      <trkpt lat="50.716570029035211" lon="9.898036988452077">
        <ele>326.99000000000001</ele>
        <time>2017-05-21T10:36:37Z</time>
      </trkpt>
      <trkpt lat="50.716786030679941" lon="9.899466019123793">
        <ele>329.38999999999999</ele>
        <time>2017-05-21T10:36:46Z</time>
      </trkpt>
      <trkpt lat="50.717065986245871" lon="9.900204967707396">
        <ele>330.35000000000002</ele>
        <time>2017-05-21T10:36:51Z</time>
      </trkpt>
      <trkpt lat="50.717820022255182" lon="9.90139301866293">
        <ele>328.91000000000003</ele>
        <time>2017-05-21T10:37:00Z</time>
      </trkpt>
      <trkpt lat="50.718349004164338" lon="9.902924979105592">
        <ele>326.99000000000001</ele>
        <time>2017-05-21T10:37:09Z</time>
      </trkpt>
      <trkpt lat="50.719152996316552" lon="9.90515498444438">
        <ele>333.23000000000002</ele>
        <time>2017-05-21T10:37:21Z</time>
      </trkpt>
      <trkpt lat="50.720196962356567" lon="9.906364995986223">
        <ele>346.20999999999998</ele>
        <time>2017-05-21T10:37:28Z</time>
      </trkpt>
      <trkpt lat="50.721217961981893" lon="9.908143971115351">
        <ele>354.38</ele>
        <time>2017-05-21T10:37:35Z</time>
      </trkpt>
      <trkpt lat="50.721866972744465" lon="9.909254992380738">
        <ele>357.26999999999998</ele>
        <time>2017-05-21T10:37:39Z</time>
      </trkpt>
      <trkpt lat="50.722530987113714" lon="9.910145988687873">
        <ele>359.19</ele>
        <time>2017-05-21T10:37:43Z</time>
      </trkpt>
      <trkpt lat="50.72265001013875" lon="9.910429967567325">
        <ele>359.67000000000002</ele>
        <time>2017-05-21T10:37:44Z</time>
      </trkpt>
      <trkpt lat="50.722744977101684" lon="9.910753006115556">
        <ele>360.14999999999998</ele>
        <time>2017-05-21T10:37:45Z</time>
      </trkpt>
      <trkpt lat="50.722816977649927" lon="9.911105968058109">
        <ele>360.63</ele>
        <time>2017-05-21T10:37:46Z</time>
      </trkpt>
      <trkpt lat="50.722877997905016" lon="9.911478962749243">
        <ele>361.11000000000001</ele>
        <time>2017-05-21T10:37:47Z</time>
      </trkpt>
      <trkpt lat="50.723140016198158" lon="9.912927020341158">
        <ele>362.06999999999999</ele>
        <time>2017-05-21T10:37:51Z</time>
      </trkpt>
      <trkpt lat="50.723253004252911" lon="9.91325500421226">
        <ele>362.06999999999999</ele>
        <time>2017-05-21T10:37:52Z</time>
      </trkpt>
      <trkpt lat="50.723399017006159" lon="9.913577036932111">
        <ele>361.11000000000001</ele>
        <time>2017-05-21T10:37:53Z</time>
      </trkpt>
      <trkpt lat="50.723565984517336" lon="9.913886999711394">
        <ele>360.63</ele>
        <time>2017-05-21T10:37:54Z</time>
      </trkpt>
      <trkpt lat="50.723743010312319" lon="9.914198974147439">
        <ele>360.14999999999998</ele>
        <time>2017-05-21T10:37:55Z</time>
      </trkpt>
      <trkpt lat="50.725302966311574" lon="9.916382962837815">
        <ele>355.33999999999997</ele>
        <time>2017-05-21T10:38:03Z</time>
      </trkpt>
      <trkpt lat="50.726627977564931" lon="9.917868990451098">
        <ele>346.20999999999998</ele>
        <time>2017-05-21T10:38:11Z</time>
      </trkpt>
      <trkpt lat="50.726931989192963" lon="9.918136959895492">
        <ele>343.32999999999998</ele>
        <time>2017-05-21T10:38:13Z</time>
      </trkpt>
      <trkpt lat="50.727103985846043" lon="9.918233016505837">
        <ele>341.41000000000003</ele>
        <time>2017-05-21T10:38:14Z</time>
      </trkpt>
      <trkpt lat="50.727289980277419" lon="9.9183040112257">
        <ele>339.48000000000002</ele>
        <time>2017-05-21T10:38:15Z</time>
      </trkpt>
      <trkpt lat="50.727481003850698" lon="9.918353967368603">
        <ele>337.07999999999998</ele>
        <time>2017-05-21T10:38:16Z</time>
      </trkpt>
      <trkpt lat="50.727672027423978" lon="9.918395960703492">
        <ele>335.16000000000003</ele>
        <time>2017-05-21T10:38:17Z</time>
      </trkpt>
      <trkpt lat="50.730494968593121" lon="9.918918991461396">
        <ele>323.13999999999999</ele>
        <time>2017-05-21T10:38:31Z</time>
      </trkpt>
      <trkpt lat="50.730690015479922" lon="9.91899199783802">
        <ele>322.66000000000003</ele>
        <time>2017-05-21T10:38:32Z</time>
      </trkpt>
      <trkpt lat="50.730879027396441" lon="9.919099034741521">
        <ele>322.66000000000003</ele>
        <time>2017-05-21T10:38:33Z</time>
      </trkpt>
      <trkpt lat="50.733503988012671" lon="9.920941041782498">
        <ele>306.31999999999999</ele>
        <time>2017-05-21T10:38:47Z</time>
      </trkpt>
      <trkpt lat="50.735523020848632" lon="9.922366971150041">
        <ele>299.58999999999997</ele>
        <time>2017-05-21T10:38:59Z</time>
      </trkpt>
      <trkpt lat="50.736359031870961" lon="9.922977006062865">
        <ele>299.11000000000001</ele>
        <time>2017-05-21T10:39:06Z</time>
      </trkpt>
      <trkpt lat="50.7370650395751" lon="9.923832966014743">
        <ele>299.58999999999997</ele>
        <time>2017-05-21T10:39:12Z</time>
      </trkpt>
      <trkpt lat="50.737628974020481" lon="9.924841979518533">
        <ele>302.94999999999999</ele>
        <time>2017-05-21T10:39:17Z</time>
      </trkpt>
      <trkpt lat="50.737706003710628" lon="9.925087988376617">
        <ele>303.91000000000003</ele>
        <time>2017-05-21T10:39:18Z</time>
      </trkpt>
      <trkpt lat="50.737772975116968" lon="9.925344977527857">
        <ele>304.38999999999999</ele>
        <time>2017-05-21T10:39:19Z</time>
      </trkpt>
      <trkpt lat="50.738225011155009" lon="9.927745973691344">
        <ele>310.63999999999999</ele>
        <time>2017-05-21T10:39:27Z</time>
      </trkpt>
      <trkpt lat="50.738627007231116" lon="9.929848993197084">
        <ele>318.32999999999998</ele>
        <time>2017-05-21T10:39:34Z</time>
      </trkpt>
      <trkpt lat="50.738741001114249" lon="9.930104976519942">
        <ele>318.81</ele>
        <time>2017-05-21T10:39:35Z</time>
      </trkpt>
      <trkpt lat="50.739435022696853" lon="9.931295961141586">
        <ele>318.81</ele>
        <time>2017-05-21T10:39:40Z</time>
      </trkpt>
      <trkpt lat="50.739545999094844" lon="9.931555967777968">
        <ele>318.81</ele>
        <time>2017-05-21T10:39:41Z</time>
      </trkpt>
      <trkpt lat="50.739640966057777" lon="9.931829972192645">
        <ele>318.81</ele>
        <time>2017-05-21T10:39:42Z</time>
      </trkpt>
      <trkpt lat="50.739834001287818" lon="9.932396002113819">
        <ele>318.81</ele>
        <time>2017-05-21T10:39:44Z</time>
      </trkpt>
      <trkpt lat="50.739954030141234" lon="9.932650979608297">
        <ele>318.81</ele>
        <time>2017-05-21T10:39:45Z</time>
      </trkpt>
      <trkpt lat="50.740093002095819" lon="9.932876033708453">
        <ele>318.32999999999998</ele>
        <time>2017-05-21T10:39:46Z</time>
      </trkpt>
      <trkpt lat="50.740254018455744" lon="9.93306596763432">
        <ele>318.32999999999998</ele>
        <time>2017-05-21T10:39:47Z</time>
      </trkpt>
      <trkpt lat="50.740426015108824" lon="9.93323503062129">
        <ele>317.85000000000002</ele>
        <time>2017-05-21T10:39:48Z</time>
      </trkpt>
      <trkpt lat="50.740602035075426" lon="9.933390012010932">
        <ele>317.37</ele>
        <time>2017-05-21T10:39:49Z</time>
      </trkpt>
      <trkpt lat="50.742973024025559" lon="9.935033032670617">
        <ele>321.69999999999999</ele>
        <time>2017-05-21T10:40:02Z</time>
      </trkpt>
      <trkpt lat="50.744636999443173" lon="9.935807017609477">
        <ele>313.52999999999997</ele>
        <time>2017-05-21T10:40:11Z</time>
      </trkpt>
      <trkpt lat="50.745894033461809" lon="9.936458040028811">
        <ele>309.68000000000001</ele>
        <time>2017-05-21T10:40:18Z</time>
      </trkpt>
      <trkpt lat="50.74602697044611" lon="9.936614027246833">
        <ele>309.68000000000001</ele>
        <time>2017-05-21T10:40:19Z</time>
      </trkpt>
      <trkpt lat="50.746139958500862" lon="9.936787029728293">
        <ele>309.68000000000001</ele>
        <time>2017-05-21T10:40:20Z</time>
      </trkpt>
      <trkpt lat="50.746244983747602" lon="9.93697302415967">
        <ele>310.16000000000003</ele>
        <time>2017-05-21T10:40:21Z</time>
      </trkpt>
      <trkpt lat="50.746339028701186" lon="9.937174022197723">
        <ele>310.63999999999999</ele>
        <time>2017-05-21T10:40:22Z</time>
      </trkpt>
      <trkpt lat="50.746422009542584" lon="9.937384994700551">
        <ele>311.12</ele>
        <time>2017-05-21T10:40:23Z</time>
      </trkpt>
      <trkpt lat="50.747201023623347" lon="9.939581975340843">
        <ele>316.41000000000003</ele>
        <time>2017-05-21T10:40:34Z</time>
      </trkpt>
      <trkpt lat="50.747833019122481" lon="9.941319040954113">
        <ele>317.85000000000002</ele>
        <time>2017-05-21T10:40:44Z</time>
      </trkpt>
      <trkpt lat="50.748578002676368" lon="9.943301025778055">
        <ele>313.52999999999997</ele>
        <time>2017-05-21T10:40:54Z</time>
      </trkpt>
      <trkpt lat="50.749016040936112" lon="9.945143032819033">
        <ele>303.43000000000001</ele>
        <time>2017-05-21T10:41:02Z</time>
      </trkpt>
      <trkpt lat="50.749119976535439" lon="9.946353966370225">
        <ele>296.69999999999999</ele>
        <time>2017-05-21T10:41:07Z</time>
      </trkpt>
      <trkpt lat="50.74916398152709" lon="9.946549013257027">
        <ele>295.25999999999999</ele>
        <time>2017-05-21T10:41:08Z</time>
      </trkpt>
      <trkpt lat="50.749232964590192" lon="9.946716986596584">
        <ele>293.81999999999999</ele>
        <time>2017-05-21T10:41:09Z</time>
      </trkpt>
      <trkpt lat="50.749326003715396" lon="9.946855958551168">
        <ele>291.89999999999998</ele>
        <time>2017-05-21T10:41:10Z</time>
      </trkpt>
      <trkpt lat="50.749441003426909" lon="9.946962995454669">
        <ele>289.97000000000003</ele>
        <time>2017-05-21T10:41:11Z</time>
      </trkpt>
      <trkpt lat="50.749573018401861" lon="9.947017980739474">
        <ele>288.05000000000001</ele>
        <time>2017-05-21T10:41:12Z</time>
      </trkpt>
      <trkpt lat="50.749718025326729" lon="9.947044970467687">
        <ele>286.13</ele>
        <time>2017-05-21T10:41:13Z</time>
      </trkpt>
      <trkpt lat="50.749869989231229" lon="9.947042036801577">
        <ele>284.69</ele>
        <time>2017-05-21T10:41:14Z</time>
      </trkpt>
      <trkpt lat="50.750029999762774" lon="9.947037007659674">
        <ele>283.25</ele>
        <time>2017-05-21T10:41:15Z</time>
      </trkpt>
      <trkpt lat="50.751043958589435" lon="9.947106996551156">
        <ele>273.14999999999998</ele>
        <time>2017-05-21T10:41:23Z</time>
      </trkpt>
      <trkpt lat="50.751608982682228" lon="9.947188971564174">
        <ele>265.94</ele>
        <time>2017-05-21T10:41:30Z</time>
      </trkpt>
      <trkpt lat="50.752512970939279" lon="9.947461970150471">
        <ele>262.57999999999998</ele>
        <time>2017-05-21T10:41:38Z</time>
      </trkpt>
      <trkpt lat="50.752625958994031" lon="9.947546040639281">
        <ele>262.10000000000002</ele>
        <time>2017-05-21T10:41:39Z</time>
      </trkpt>
      <trkpt lat="50.752735007554293" lon="9.947658022865653">
        <ele>261.13999999999999</ele>
        <time>2017-05-21T10:41:40Z</time>
      </trkpt>
      <trkpt lat="50.752827040851116" lon="9.947782997041941">
        <ele>260.64999999999998</ele>
        <time>2017-05-21T10:41:41Z</time>
      </trkpt>
      <trkpt lat="50.753683000802994" lon="9.949018992483616">
        <ele>258.25</ele>
        <time>2017-05-21T10:41:51Z</time>
      </trkpt>
      <trkpt lat="50.754582965746522" lon="9.949879981577396">
        <ele>258.25</ele>
        <time>2017-05-21T10:42:00Z</time>
      </trkpt>
      <trkpt lat="50.754678016528487" lon="9.949988024309278">
        <ele>258.25</ele>
        <time>2017-05-21T10:42:01Z</time>
      </trkpt>
      <trkpt lat="50.754757979884744" lon="9.950116015970707">
        <ele>257.76999999999998</ele>
        <time>2017-05-21T10:42:02Z</time>
      </trkpt>
      <trkpt lat="50.755010023713112" lon="9.950654972344637">
        <ele>256.32999999999998</ele>
        <time>2017-05-21T10:42:06Z</time>
      </trkpt>
      <trkpt lat="50.756075028330088" lon="9.953011963516474">
        <ele>256.32999999999998</ele>
        <time>2017-05-21T10:42:24Z</time>
      </trkpt>
      <trkpt lat="50.756207965314388" lon="9.953234000131488">
        <ele>256.32999999999998</ele>
        <time>2017-05-21T10:42:26Z</time>
      </trkpt>
      <trkpt lat="50.756293963640928" lon="9.953298959881067">
        <ele>256.32999999999998</ele>
        <time>2017-05-21T10:42:27Z</time>
      </trkpt>
      <trkpt lat="50.756391026079655" lon="9.953326033428311">
        <ele>256.81</ele>
        <time>2017-05-21T10:42:28Z</time>
      </trkpt>
      <trkpt lat="50.756494039669633" lon="9.953341037034988">
        <ele>256.81</ele>
        <time>2017-05-21T10:42:29Z</time>
      </trkpt>
      <trkpt lat="50.756594035774469" lon="9.953348999843001">
        <ele>256.81</ele>
        <time>2017-05-21T10:42:30Z</time>
      </trkpt>
      <trkpt lat="50.756696965545416" lon="9.953330978751183">
        <ele>256.81</ele>
        <time>2017-05-21T10:42:31Z</time>
      </trkpt>
      <trkpt lat="50.757222007960081" lon="9.953228970989585">
        <ele>256.81</ele>
        <time>2017-05-21T10:42:36Z</time>
      </trkpt>
      <trkpt lat="50.757336001843214" lon="9.953255038708448">
        <ele>256.81</ele>
        <time>2017-05-21T10:42:37Z</time>
      </trkpt>
      <trkpt lat="50.757444966584444" lon="9.953307006508112">
        <ele>256.81</ele>
        <time>2017-05-21T10:42:38Z</time>
      </trkpt>
      <trkpt lat="50.757546974346042" lon="9.953376995399594">
        <ele>257.29000000000002</ele>
        <time>2017-05-21T10:42:39Z</time>
      </trkpt>
      <trkpt lat="50.757648982107639" lon="9.953448995947838">
        <ele>257.29000000000002</ele>
        <time>2017-05-21T10:42:40Z</time>
      </trkpt>
      <trkpt lat="50.75868297368288" lon="9.95409800671041">
        <ele>258.73000000000002</ele>
        <time>2017-05-21T10:42:50Z</time>
      </trkpt>
      <trkpt lat="50.758796967566013" lon="9.954128013923764">
        <ele>258.25</ele>
        <time>2017-05-21T10:42:51Z</time>
      </trkpt>
      <trkpt lat="50.75891800224781" lon="9.954137988388538">
        <ele>259.20999999999998</ele>
        <time>2017-05-21T10:42:52Z</time>
      </trkpt>
      <trkpt lat="50.760516012087464" lon="9.954310990869999">
        <ele>261.13999999999999</ele>
        <time>2017-05-21T10:43:05Z</time>
      </trkpt>
      <trkpt lat="50.760798985138535" lon="9.954448034986854">
        <ele>261.13999999999999</ele>
        <time>2017-05-21T10:43:07Z</time>
      </trkpt>
      <trkpt lat="50.760955978184938" lon="9.954552976414561">
        <ele>261.62</ele>
        <time>2017-05-21T10:43:08Z</time>
      </trkpt>
      <trkpt lat="50.762045960873365" lon="9.955445984378457">
        <ele>265.94</ele>
        <time>2017-05-21T10:43:13Z</time>
      </trkpt>
      <trkpt lat="50.763968015089631" lon="9.957232000306249">
        <ele>278.44</ele>
        <time>2017-05-21T10:43:21Z</time>
      </trkpt>
      <trkpt lat="50.766447968780994" lon="9.959648000076413">
        <ele>286.13</ele>
        <time>2017-05-21T10:43:32Z</time>
      </trkpt>
      <trkpt lat="50.766634969040751" lon="9.959924016147852">
        <ele>288.52999999999997</ele>
        <time>2017-05-21T10:43:33Z</time>
      </trkpt>
      <trkpt lat="50.76798495836556" lon="9.962142035365105">
        <ele>298.63</ele>
        <time>2017-05-21T10:43:40Z</time>
      </trkpt>
      <trkpt lat="50.769880022853613" lon="9.965223977342248">
        <ele>308.72000000000003</ele>
        <time>2017-05-21T10:43:50Z</time>
      </trkpt>
      <trkpt lat="50.772371040657163" lon="9.969073031097651">
        <ele>317.37</ele>
        <time>2017-05-21T10:44:03Z</time>
      </trkpt>
      <trkpt lat="50.77459903433919" lon="9.971951963379979">
        <ele>322.66000000000003</ele>
        <time>2017-05-21T10:44:14Z</time>
      </trkpt>
      <trkpt lat="50.775748025625944" lon="9.97416403144598">
        <ele>326.01999999999998</ele>
        <time>2017-05-21T10:44:21Z</time>
      </trkpt>
      <trkpt lat="50.77698603272438" lon="9.975663973018527">
        <ele>327.94999999999999</ele>
        <time>2017-05-21T10:44:27Z</time>
      </trkpt>
      <trkpt lat="50.778522016480565" lon="9.977391986176372">
        <ele>330.35000000000002</ele>
        <time>2017-05-21T10:44:36Z</time>
      </trkpt>
      <trkpt lat="50.779240010306239" lon="9.978552041575313">
        <ele>332.26999999999998</ele>
        <time>2017-05-21T10:44:43Z</time>
      </trkpt>
      <trkpt lat="50.77980000525713" lon="9.980534026399255">
        <ele>333.23000000000002</ele>
        <time>2017-05-21T10:44:53Z</time>
      </trkpt>
      <trkpt lat="50.780669962987304" lon="9.982837038114667">
        <ele>328.91000000000003</ele>
        <time>2017-05-21T10:45:03Z</time>
      </trkpt>
      <trkpt lat="50.781330959871411" lon="9.984969981014729">
        <ele>324.10000000000002</ele>
        <time>2017-05-21T10:45:10Z</time>
      </trkpt>
      <trkpt lat="50.78145501203835" lon="9.985228981822729">
        <ele>323.62</ele>
        <time>2017-05-21T10:45:11Z</time>
      </trkpt>
      <trkpt lat="50.781602030619979" lon="9.985464010387659">
        <ele>323.13999999999999</ele>
        <time>2017-05-21T10:45:12Z</time>
      </trkpt>
      <trkpt lat="50.781770003959537" lon="9.985675988718867">
        <ele>322.66000000000003</ele>
        <time>2017-05-21T10:45:13Z</time>
      </trkpt>
      <trkpt lat="50.781938983127475" lon="9.985880004242063">
        <ele>321.69999999999999</ele>
        <time>2017-05-21T10:45:14Z</time>
      </trkpt>
      <trkpt lat="50.782455978915095" lon="9.986500013619661">
        <ele>317.37</ele>
        <time>2017-05-21T10:45:17Z</time>
      </trkpt>
      <trkpt lat="50.782613977789879" lon="9.986761026084423">
        <ele>315.93000000000001</ele>
        <time>2017-05-21T10:45:18Z</time>
      </trkpt>
      <trkpt lat="50.783073976635933" lon="9.987522019073367">
        <ele>312.56999999999999</ele>
        <time>2017-05-21T10:45:21Z</time>
      </trkpt>
      <trkpt lat="50.783249996602535" lon="9.987756963819265">
        <ele>310.63999999999999</ele>
        <time>2017-05-21T10:45:22Z</time>
      </trkpt>
      <trkpt lat="50.783460969105363" lon="9.987951004877687">
        <ele>309.19999999999999</ele>
        <time>2017-05-21T10:45:23Z</time>
      </trkpt>
      <trkpt lat="50.784138981252909" lon="9.988575037568808">
        <ele>308.24000000000001</ele>
        <time>2017-05-21T10:45:26Z</time>
      </trkpt>
      <trkpt lat="50.784341990947723" lon="9.98883998952806">
        <ele>308.72000000000003</ele>
        <time>2017-05-21T10:45:27Z</time>
      </trkpt>
      <trkpt lat="50.784523040056229" lon="9.989150036126375">
        <ele>309.68000000000001</ele>
        <time>2017-05-21T10:45:28Z</time>
      </trkpt>
      <trkpt lat="50.784681960940361" lon="9.989485982805491">
        <ele>310.63999999999999</ele>
        <time>2017-05-21T10:45:29Z</time>
      </trkpt>
      <trkpt lat="50.784840965643525" lon="9.989830981940031">
        <ele>312.56999999999999</ele>
        <time>2017-05-21T10:45:30Z</time>
      </trkpt>
      <trkpt lat="50.785655016079545" lon="9.991710959002376">
        <ele>312.56999999999999</ele>
        <time>2017-05-21T10:45:36Z</time>
      </trkpt>
      <trkpt lat="50.785825001075864" lon="9.991984041407704">
        <ele>313.05000000000001</ele>
        <time>2017-05-21T10:45:37Z</time>
      </trkpt>
      <trkpt lat="50.786020969972014" lon="9.992224015295506">
        <ele>314.00999999999999</ele>
        <time>2017-05-21T10:45:38Z</time>
      </trkpt>
      <trkpt lat="50.786231020465493" lon="9.992447979748249">
        <ele>314.49000000000001</ele>
        <time>2017-05-21T10:45:39Z</time>
      </trkpt>
      <trkpt lat="50.786446016281843" lon="9.99266498722136">
        <ele>314.97000000000003</ele>
        <time>2017-05-21T10:45:40Z</time>
      </trkpt>
      <trkpt lat="50.787997003644705" lon="9.994380008429289">
        <ele>318.81</ele>
        <time>2017-05-21T10:45:47Z</time>
      </trkpt>
      <trkpt lat="50.789374988526106" lon="9.996048007160425">
        <ele>322.66000000000003</ele>
        <time>2017-05-21T10:45:54Z</time>
      </trkpt>
      <trkpt lat="50.789936995133758" lon="9.996869014576078">
        <ele>321.22000000000003</ele>
        <time>2017-05-21T10:45:59Z</time>
      </trkpt>
      <trkpt lat="50.790045037865639" lon="9.996974039822817">
        <ele>320.74000000000001</ele>
        <time>2017-05-21T10:46:00Z</time>
      </trkpt>
      <trkpt lat="50.79135999083519" lon="9.997968971729279">
        <ele>315.93000000000001</ele>
        <time>2017-05-21T10:46:13Z</time>
      </trkpt>
      <trkpt lat="50.791912022978067" lon="9.998369039967656">
        <ele>312.08999999999997</ele>
        <time>2017-05-21T10:46:19Z</time>
      </trkpt>
      <trkpt lat="50.792011013254523" lon="9.998413966968656">
        <ele>311.60000000000002</ele>
        <time>2017-05-21T10:46:20Z</time>
      </trkpt>
      <trkpt lat="50.792113021016121" lon="9.998432993888855">
        <ele>311.12</ele>
        <time>2017-05-21T10:46:21Z</time>
      </trkpt>
      <trkpt lat="50.792215028777719" lon="9.998438023030758">
        <ele>310.16000000000003</ele>
        <time>2017-05-21T10:46:22Z</time>
      </trkpt>
      <trkpt lat="50.792321981862187" lon="9.998427964746952">
        <ele>309.68000000000001</ele>
        <time>2017-05-21T10:46:23Z</time>
      </trkpt>
      <trkpt lat="50.79243496991694" lon="9.99840198084712">
        <ele>309.19999999999999</ele>
        <time>2017-05-21T10:46:24Z</time>
      </trkpt>
      <trkpt lat="50.793670965358615" lon="9.998342972248793">
        <ele>303.91000000000003</ele>
        <time>2017-05-21T10:46:35Z</time>
      </trkpt>
      <trkpt lat="50.795092033222318" lon="9.998641032725573">
        <ele>297.18000000000001</ele>
        <time>2017-05-21T10:46:49Z</time>
      </trkpt>
      <trkpt lat="50.79518498852849" lon="9.998646983876824">
        <ele>297.18000000000001</ele>
        <time>2017-05-21T10:46:50Z</time>
      </trkpt>
      <trkpt lat="50.795278027653694" lon="9.998627034947276">
        <ele>296.22000000000003</ele>
        <time>2017-05-21T10:46:51Z</time>
      </trkpt>
      <trkpt lat="50.795374000445008" lon="9.9985930044204">
        <ele>296.22000000000003</ele>
        <time>2017-05-21T10:46:52Z</time>
      </trkpt>
      <trkpt lat="50.795831987634301" lon="9.998424025252461">
        <ele>294.77999999999997</ele>
        <time>2017-05-21T10:46:57Z</time>
      </trkpt>
      <trkpt lat="50.795927960425615" lon="9.998412039130926">
        <ele>294.30000000000001</ele>
        <time>2017-05-21T10:46:58Z</time>
      </trkpt>
      <trkpt lat="50.796023011207581" lon="9.998404998332262">
        <ele>293.81999999999999</ele>
        <time>2017-05-21T10:46:59Z</time>
      </trkpt>
      <trkpt lat="50.796117978170514" lon="9.998412961140275">
        <ele>293.81999999999999</ele>
        <time>2017-05-21T10:47:00Z</time>
      </trkpt>
      <trkpt lat="50.796210011467338" lon="9.998441962525249">
        <ele>293.33999999999997</ele>
        <time>2017-05-21T10:47:01Z</time>
      </trkpt>
      <trkpt lat="50.796301038935781" lon="9.99848403967917">
        <ele>292.86000000000001</ele>
        <time>2017-05-21T10:47:02Z</time>
      </trkpt>
      <trkpt lat="50.796392988413572" lon="9.998532989993691">
        <ele>292.38</ele>
        <time>2017-05-21T10:47:03Z</time>
      </trkpt>
      <trkpt lat="50.797439971938729" lon="9.998840019106865">
        <ele>290.94</ele>
        <time>2017-05-21T10:47:14Z</time>
      </trkpt>
      <trkpt lat="50.798489972949028" lon="9.998905984684825">
        <ele>289.97000000000003</ele>
        <time>2017-05-21T10:47:24Z</time>
      </trkpt>
      <trkpt lat="50.79995303414762" lon="9.998675985261798">
        <ele>286.61000000000001</ele>
        <time>2017-05-21T10:47:37Z</time>
      </trkpt>
      <trkpt lat="50.801280979067087" lon="9.998812023550272">
        <ele>286.13</ele>
        <time>2017-05-21T10:47:47Z</time>
      </trkpt>
      <trkpt lat="50.803060038015246" lon="9.999400014057756">
        <ele>283.25</ele>
        <time>2017-05-21T10:47:56Z</time>
      </trkpt>
      <trkpt lat="50.805018972605467" lon="10.000343983992934">
        <ele>284.20999999999998</ele>
        <time>2017-05-21T10:48:05Z</time>
      </trkpt>
      <trkpt lat="50.805931007489562" lon="10.001244032755494">
        <ele>282.27999999999997</ele>
        <time>2017-05-21T10:48:10Z</time>
      </trkpt>
      <trkpt lat="50.806084983050823" lon="10.001498004421592">
        <ele>281.31999999999999</ele>
        <time>2017-05-21T10:48:11Z</time>
      </trkpt>
      <trkpt lat="50.806785961613059" lon="10.003057038411498">
        <ele>277.95999999999998</ele>
        <time>2017-05-21T10:48:17Z</time>
      </trkpt>
      <trkpt lat="50.806857962161303" lon="10.003306986764073">
        <ele>277</ele>
        <time>2017-05-21T10:48:18Z</time>
      </trkpt>
      <trkpt lat="50.806900039315224" lon="10.003602029755712">
        <ele>275.06999999999999</ele>
        <time>2017-05-21T10:48:19Z</time>
      </trkpt>
      <trkpt lat="50.807004980742931" lon="10.004516998305917">
        <ele>271.23000000000002</ele>
        <time>2017-05-21T10:48:22Z</time>
      </trkpt>
      <trkpt lat="50.807078992947936" lon="10.004791002720594">
        <ele>269.31</ele>
        <time>2017-05-21T10:48:23Z</time>
      </trkpt>
      <trkpt lat="50.807191981002688" lon="10.005043968558311">
        <ele>267.86000000000001</ele>
        <time>2017-05-21T10:48:24Z</time>
      </trkpt>
      <trkpt lat="50.807632030919194" lon="10.00576900318265">
        <ele>265.45999999999998</ele>
        <time>2017-05-21T10:48:27Z</time>
      </trkpt>
      <trkpt lat="50.807824982330203" lon="10.005976036190987">
        <ele>264.5</ele>
        <time>2017-05-21T10:48:28Z</time>
      </trkpt>
      <trkpt lat="50.809626001864672" lon="10.007558958604932">
        <ele>259.69</ele>
        <time>2017-05-21T10:48:36Z</time>
      </trkpt>
      <trkpt lat="50.811070036143064" lon="10.009286971762776">
        <ele>259.20999999999998</ele>
        <time>2017-05-21T10:48:43Z</time>
      </trkpt>
      <trkpt lat="50.812383983284235" lon="10.010463036596775">
        <ele>255.37</ele>
        <time>2017-05-21T10:48:50Z</time>
      </trkpt>
      <trkpt lat="50.81365903839469" lon="10.011192010715604">
        <ele>249.59999999999999</ele>
        <time>2017-05-21T10:48:56Z</time>
      </trkpt>
      <trkpt lat="50.813881997019053" lon="10.011215982958674">
        <ele>249.59999999999999</ele>
        <time>2017-05-21T10:48:57Z</time>
      </trkpt>
      <trkpt lat="50.814114008098841" lon="10.011215982958674">
        <ele>249.12</ele>
        <time>2017-05-21T10:48:58Z</time>
      </trkpt>
      <trkpt lat="50.815065018832684" lon="10.011246996000409">
        <ele>246.72</ele>
        <time>2017-05-21T10:49:02Z</time>
      </trkpt>
      <trkpt lat="50.816461024805903" lon="10.01169802621007">
        <ele>244.78999999999999</ele>
        <time>2017-05-21T10:49:09Z</time>
      </trkpt>
      <trkpt lat="50.816619023680687" lon="10.011844960972667">
        <ele>243.83000000000001</ele>
        <time>2017-05-21T10:49:10Z</time>
      </trkpt>
      <trkpt lat="50.816767970100045" lon="10.012017963454127">
        <ele>243.34999999999999</ele>
        <time>2017-05-21T10:49:11Z</time>
      </trkpt>
      <trkpt lat="50.816900990903378" lon="10.012190965935588">
        <ele>242.38999999999999</ele>
        <time>2017-05-21T10:49:12Z</time>
      </trkpt>
      <trkpt lat="50.817028982564807" lon="10.012362962588668">
        <ele>241.43000000000001</ele>
        <time>2017-05-21T10:49:13Z</time>
      </trkpt>
      <trkpt lat="50.81725001335144" lon="10.012660017237067">
        <ele>239.50999999999999</ele>
        <time>2017-05-21T10:49:15Z</time>
      </trkpt>
      <trkpt lat="50.817368030548096" lon="10.012755990028381">
        <ele>239.02000000000001</ele>
        <time>2017-05-21T10:49:16Z</time>
      </trkpt>
      <trkpt lat="50.817494010552764" lon="10.012820027768612">
        <ele>238.06</ele>
        <time>2017-05-21T10:49:17Z</time>
      </trkpt>
      <trkpt lat="50.818867972120643" lon="10.013106018304825">
        <ele>234.69999999999999</ele>
        <time>2017-05-21T10:49:27Z</time>
      </trkpt>
      <trkpt lat="50.820595985278487" lon="10.013540033251047">
        <ele>233.74000000000001</ele>
        <time>2017-05-21T10:49:40Z</time>
      </trkpt>
      <trkpt lat="50.820711990818381" lon="10.013621002435684">
        <ele>233.74000000000001</ele>
        <time>2017-05-21T10:49:41Z</time>
      </trkpt>
      <trkpt lat="50.82081601023674" lon="10.013722004368901">
        <ele>233.25999999999999</ele>
        <time>2017-05-21T10:49:42Z</time>
      </trkpt>
      <trkpt lat="50.820917012169957" lon="10.013829963281751">
        <ele>232.78</ele>
        <time>2017-05-21T10:49:43Z</time>
      </trkpt>
      <trkpt lat="50.821017008274794" lon="10.013947980478406">
        <ele>233.25999999999999</ele>
        <time>2017-05-21T10:49:44Z</time>
      </trkpt>
      <trkpt lat="50.821110969409347" lon="10.014075972139835">
        <ele>233.25999999999999</ele>
        <time>2017-05-21T10:49:45Z</time>
      </trkpt>
      <trkpt lat="50.82120300270617" lon="10.014218967407942">
        <ele>233.25999999999999</ele>
        <time>2017-05-21T10:49:46Z</time>
      </trkpt>
      <trkpt lat="50.822643013671041" lon="10.016250992193818">
        <ele>231.33000000000001</ele>
        <time>2017-05-21T10:50:00Z</time>
      </trkpt>
      <trkpt lat="50.823860988020897" lon="10.017761997878551">
        <ele>232.30000000000001</ele>
        <time>2017-05-21T10:50:12Z</time>
      </trkpt>
      <trkpt lat="50.824216967448592" lon="10.018373960629106">
        <ele>233.74000000000001</ele>
        <time>2017-05-21T10:50:18Z</time>
      </trkpt>
      <trkpt lat="50.824225014075637" lon="10.018482003360987">
        <ele>233.25999999999999</ele>
        <time>2017-05-21T10:50:19Z</time>
      </trkpt>
      <trkpt lat="50.824214033782482" lon="10.018606977537274">
        <ele>233.25999999999999</ele>
        <time>2017-05-21T10:50:20Z</time>
      </trkpt>
      <trkpt lat="50.82418997772038" lon="10.01874796114862">
        <ele>233.74000000000001</ele>
        <time>2017-05-21T10:50:21Z</time>
      </trkpt>
      <trkpt lat="50.824151001870632" lon="10.018901014700532">
        <ele>233.74000000000001</ele>
        <time>2017-05-21T10:50:22Z</time>
      </trkpt>
      <trkpt lat="50.824105991050601" lon="10.019061025232077">
        <ele>234.22</ele>
        <time>2017-05-21T10:50:23Z</time>
      </trkpt>
      <trkpt lat="50.823558988049626" lon="10.021308967843652">
        <ele>240.47</ele>
        <time>2017-05-21T10:50:37Z</time>
      </trkpt>
      <trkpt lat="50.823165960609913" lon="10.023161033168435">
        <ele>239.02000000000001</ele>
        <time>2017-05-21T10:50:49Z</time>
      </trkpt>
      <trkpt lat="50.82304903306067" lon="10.023617008700967">
        <ele>238.53999999999999</ele>
        <time>2017-05-21T10:50:53Z</time>
      </trkpt>
      <trkpt lat="50.822998993098736" lon="10.023695966228843">
        <ele>238.06</ele>
        <time>2017-05-21T10:50:54Z</time>
      </trkpt>
      <trkpt lat="50.822912994772196" lon="10.023821024224162">
        <ele>238.06</ele>
        <time>2017-05-21T10:50:56Z</time>
      </trkpt>
      <trkpt lat="50.822914000600576" lon="10.023899981752038">
        <ele>238.06</ele>
        <time>2017-05-21T10:50:57Z</time>
      </trkpt>
      <trkpt lat="50.822934033349156" lon="10.023970976471901">
        <ele>238.06</ele>
        <time>2017-05-21T10:50:58Z</time>
      </trkpt>
      <trkpt lat="50.822966974228621" lon="10.024027973413467">
        <ele>238.06</ele>
        <time>2017-05-21T10:50:59Z</time>
      </trkpt>
      <trkpt lat="50.823016008362174" lon="10.024043982848525">
        <ele>238.53999999999999</ele>
        <time>2017-05-21T10:51:00Z</time>
      </trkpt>
      <trkpt lat="50.823078034445643" lon="10.024026967585087">
        <ele>238.53999999999999</ele>
        <time>2017-05-21T10:51:01Z</time>
      </trkpt>
      <trkpt lat="50.823151962831616" lon="10.024015987291932">
        <ele>238.53999999999999</ele>
        <time>2017-05-21T10:51:02Z</time>
      </trkpt>
      <trkpt lat="50.823238966986537" lon="10.024016993120313">
        <ele>238.06</ele>
        <time>2017-05-21T10:51:03Z</time>
      </trkpt>
      <trkpt lat="50.823851013556123" lon="10.024014981463552">
        <ele>238.06</ele>
        <time>2017-05-21T10:51:09Z</time>
      </trkpt>
      <trkpt lat="50.823955032974482" lon="10.024000983685255">
        <ele>237.58000000000001</ele>
        <time>2017-05-21T10:51:10Z</time>
      </trkpt>
      <trkpt lat="50.825409041717649" lon="10.023503014817834">
        <ele>235.18000000000001</ele>
        <time>2017-05-21T10:51:26Z</time>
      </trkpt>
      <trkpt lat="50.82547802478075" lon="10.023437971249223">
        <ele>235.18000000000001</ele>
        <time>2017-05-21T10:51:27Z</time>
      </trkpt>
      <trkpt lat="50.825834004208446" lon="10.022943019866943">
        <ele>235.66</ele>
        <time>2017-05-21T10:51:33Z</time>
      </trkpt>
      <trkpt lat="50.825914973393083" lon="10.022874036803842">
        <ele>235.18000000000001</ele>
        <time>2017-05-21T10:51:35Z</time>
      </trkpt>
      <trkpt lat="50.825960990041494" lon="10.022903038188815">
        <ele>234.69999999999999</ele>
        <time>2017-05-21T10:51:36Z</time>
      </trkpt>
      <trkpt lat="50.8260159753263" lon="10.02295802347362">
        <ele>234.69999999999999</ele>
        <time>2017-05-21T10:51:37Z</time>
      </trkpt>
      <trkpt lat="50.826070960611105" lon="10.023027006536722">
        <ele>234.22</ele>
        <time>2017-05-21T10:51:38Z</time>
      </trkpt>
      <trkpt lat="50.826128963381052" lon="10.023110993206501">
        <ele>234.69999999999999</ele>
        <time>2017-05-21T10:51:39Z</time>
      </trkpt>
      <trkpt lat="50.826180009171367" lon="10.02319598570466">
        <ele>234.22</ele>
        <time>2017-05-21T10:51:40Z</time>
      </trkpt>
      <trkpt lat="50.826554009690881" lon="10.023982040584087">
        <ele>232.78</ele>
        <time>2017-05-21T10:51:47Z</time>
      </trkpt>
      <trkpt lat="50.82708802074194" lon="10.025736037641764">
        <ele>234.69999999999999</ele>
        <time>2017-05-21T10:51:59Z</time>
      </trkpt>
      <trkpt lat="50.827996032312512" lon="10.027704024687409">
        <ele>231.81</ele>
        <time>2017-05-21T10:52:14Z</time>
      </trkpt>
      <trkpt lat="50.828099967911839" lon="10.027977023273706">
        <ele>232.30000000000001</ele>
        <time>2017-05-21T10:52:16Z</time>
      </trkpt>
      <trkpt lat="50.82814103923738" lon="10.028124963864684">
        <ele>231.81</ele>
        <time>2017-05-21T10:52:17Z</time>
      </trkpt>
      <trkpt lat="50.828174985945225" lon="10.028279023244977">
        <ele>231.33000000000001</ele>
        <time>2017-05-21T10:52:18Z</time>
      </trkpt>
      <trkpt lat="50.828192001208663" lon="10.028426041826606">
        <ele>230.84999999999999</ele>
        <time>2017-05-21T10:52:19Z</time>
      </trkpt>
      <trkpt lat="50.828213961794972" lon="10.028531989082694">
        <ele>231.33000000000001</ele>
        <time>2017-05-21T10:52:20Z</time>
      </trkpt>
      <trkpt lat="50.828289985656738" lon="10.028964998200536">
        <ele>231.33000000000001</ele>
        <time>2017-05-21T10:52:28Z</time>
      </trkpt>
      <trkpt lat="50.828303983435035" lon="10.029002968221903">
        <ele>232.30000000000001</ele>
        <time>2017-05-21T10:52:39Z</time>
      </trkpt>
      <trkpt lat="50.828360980376601" lon="10.029423991218209">
        <ele>230.84999999999999</ele>
        <time>2017-05-21T10:52:51Z</time>
      </trkpt>
      <trkpt lat="50.828739004209638" lon="10.031445035710931">
        <ele>230.37</ele>
        <time>2017-05-21T10:53:04Z</time>
      </trkpt>
      <trkpt lat="50.829131025820971" lon="10.03367998637259">
        <ele>230.84999999999999</ele>
        <time>2017-05-21T10:53:16Z</time>
      </trkpt>
      <trkpt lat="50.829645004123449" lon="10.03653603605926">
        <ele>232.30000000000001</ele>
        <time>2017-05-21T10:53:31Z</time>
      </trkpt>
      <trkpt lat="50.830360986292362" lon="10.040215020999312">
        <ele>230.84999999999999</ele>
        <time>2017-05-21T10:53:50Z</time>
      </trkpt>
      <trkpt lat="50.830919975414872" lon="10.042110001668334">
        <ele>231.81</ele>
        <time>2017-05-21T10:53:57Z</time>
      </trkpt>
      <trkpt lat="50.831739977002144" lon="10.044977031648159">
        <ele>232.78</ele>
        <time>2017-05-21T10:54:05Z</time>
      </trkpt>
      <trkpt lat="50.83276198245585" lon="10.049381973221898">
        <ele>234.22</ele>
        <time>2017-05-21T10:54:16Z</time>
      </trkpt>
      <trkpt lat="50.834151031449437" lon="10.054741026833653">
        <ele>235.66</ele>
        <time>2017-05-21T10:54:29Z</time>
      </trkpt>
      <trkpt lat="50.835169013589621" lon="10.057305973023176">
        <ele>233.74000000000001</ele>
        <time>2017-05-21T10:54:36Z</time>
      </trkpt>
      <trkpt lat="50.836218008771539" lon="10.060175014659762">
        <ele>234.69999999999999</ele>
        <time>2017-05-21T10:54:44Z</time>
      </trkpt>
      <trkpt lat="50.837372029200196" lon="10.06457400508225">
        <ele>230.84999999999999</ele>
        <time>2017-05-21T10:54:56Z</time>
      </trkpt>
      <trkpt lat="50.837926995009184" lon="10.066691022366285">
        <ele>230.37</ele>
        <time>2017-05-21T10:55:04Z</time>
      </trkpt>
      <trkpt lat="50.838422030210495" lon="10.069397035986185">
        <ele>228.93000000000001</ele>
        <time>2017-05-21T10:55:12Z</time>
      </trkpt>
      <trkpt lat="50.838853027671576" lon="10.073583964258432">
        <ele>225.56999999999999</ele>
        <time>2017-05-21T10:55:23Z</time>
      </trkpt>
      <trkpt lat="50.838870964944363" lon="10.074559031054378">
        <ele>224.61000000000001</ele>
        <time>2017-05-21T10:55:27Z</time>
      </trkpt>
      <trkpt lat="50.838832994922996" lon="10.078530963510275">
        <ele>222.68000000000001</ele>
        <time>2017-05-21T10:55:47Z</time>
      </trkpt>
      <trkpt lat="50.838522026315331" lon="10.081141004338861">
        <ele>224.61000000000001</ele>
        <time>2017-05-21T10:56:01Z</time>
      </trkpt>
      <trkpt lat="50.838314993306994" lon="10.08182899095118">
        <ele>224.61000000000001</ele>
        <time>2017-05-21T10:56:06Z</time>
      </trkpt>
      <trkpt lat="50.838312981650233" lon="10.081927981227636">
        <ele>225.09</ele>
        <time>2017-05-21T10:56:07Z</time>
      </trkpt>
      <trkpt lat="50.838343994691968" lon="10.082023032009602">
        <ele>226.05000000000001</ele>
        <time>2017-05-21T10:56:08Z</time>
      </trkpt>
      <trkpt lat="50.838400991633534" lon="10.0820869859308">
        <ele>225.56999999999999</ele>
        <time>2017-05-21T10:56:09Z</time>
      </trkpt>
      <trkpt lat="50.838481038808823" lon="10.082152029499412">
        <ele>225.56999999999999</ele>
        <time>2017-05-21T10:56:10Z</time>
      </trkpt>
      <trkpt lat="50.838576005771756" lon="10.082229981198907">
        <ele>225.56999999999999</ele>
        <time>2017-05-21T10:56:11Z</time>
      </trkpt>
      <trkpt lat="50.839591976255178" lon="10.083271013572812">
        <ele>224.12</ele>
        <time>2017-05-21T10:56:20Z</time>
      </trkpt>
      <trkpt lat="50.840846998617053" lon="10.08455403149128">
        <ele>224.12</ele>
        <time>2017-05-21T10:56:31Z</time>
      </trkpt>
      <trkpt lat="50.842303019016981" lon="10.08545701391995">
        <ele>225.09</ele>
        <time>2017-05-21T10:56:41Z</time>
      </trkpt>
      <trkpt lat="50.844248961657286" lon="10.086324959993362">
        <ele>223.16</ele>
        <time>2017-05-21T10:56:52Z</time>
      </trkpt>
      <trkpt lat="50.844392962753773" lon="10.086451023817062">
        <ele>223.16</ele>
        <time>2017-05-21T10:56:53Z</time>
      </trkpt>
      <trkpt lat="50.84451500326395" lon="10.086609022691846">
        <ele>223.16</ele>
        <time>2017-05-21T10:56:54Z</time>
      </trkpt>
      <trkpt lat="50.84462002851069" lon="10.086797028779984">
        <ele>223.63999999999999</ele>
        <time>2017-05-21T10:56:55Z</time>
      </trkpt>
      <trkpt lat="50.844710972160101" lon="10.087015964090824">
        <ele>224.12</ele>
        <time>2017-05-21T10:56:56Z</time>
      </trkpt>
      <trkpt lat="50.844797976315022" lon="10.087257027626038">
        <ele>224.12</ele>
        <time>2017-05-21T10:56:57Z</time>
      </trkpt>
      <trkpt lat="50.845368029549718" lon="10.089436993002892">
        <ele>223.63999999999999</ele>
        <time>2017-05-21T10:57:04Z</time>
      </trkpt>
      <trkpt lat="50.845789974555373" lon="10.091573959216475">
        <ele>223.16</ele>
        <time>2017-05-21T10:57:10Z</time>
      </trkpt>
      <trkpt lat="50.845812018960714" lon="10.091951983049512">
        <ele>223.16</ele>
        <time>2017-05-21T10:57:11Z</time>
      </trkpt>
      <trkpt lat="50.84580497816205" lon="10.092336041852832">
        <ele>223.16</ele>
        <time>2017-05-21T10:57:12Z</time>
      </trkpt>
      <trkpt lat="50.845783017575741" lon="10.092710964381695">
        <ele>222.68000000000001</ele>
        <time>2017-05-21T10:57:13Z</time>
      </trkpt>
      <trkpt lat="50.845741024240851" lon="10.093083037063479">
        <ele>222.68000000000001</ele>
        <time>2017-05-21T10:57:14Z</time>
      </trkpt>
      <trkpt lat="50.845685033127666" lon="10.093457959592342">
        <ele>222.19999999999999</ele>
        <time>2017-05-21T10:57:15Z</time>
      </trkpt>
      <trkpt lat="50.845614960417151" lon="10.093829026445746">
        <ele>222.19999999999999</ele>
        <time>2017-05-21T10:57:16Z</time>
      </trkpt>
      <trkpt lat="50.844869976863265" lon="10.096771996468306">
        <ele>225.09</ele>
        <time>2017-05-21T10:57:24Z</time>
      </trkpt>
      <trkpt lat="50.844164974987507" lon="10.100679975003004">
        <ele>225.09</ele>
        <time>2017-05-21T10:57:34Z</time>
      </trkpt>
      <trkpt lat="50.84313903003931" lon="10.107626980170608">
        <ele>227.97</ele>
        <time>2017-05-21T10:57:52Z</time>
      </trkpt>
      <trkpt lat="50.842851027846336" lon="10.109935021027923">
        <ele>229.41</ele>
        <time>2017-05-21T10:57:59Z</time>
      </trkpt>
      <trkpt lat="50.842724964022636" lon="10.111199012026191">
        <ele>228.93000000000001</ele>
        <time>2017-05-21T10:58:06Z</time>
      </trkpt>
      <trkpt lat="50.842632008716464" lon="10.113639989867806">
        <ele>230.84999999999999</ele>
        <time>2017-05-21T10:58:20Z</time>
      </trkpt>
      <trkpt lat="50.842663021758199" lon="10.114140976220369">
        <ele>231.33000000000001</ele>
        <time>2017-05-21T10:58:23Z</time>
      </trkpt>
      <trkpt lat="50.84268799982965" lon="10.114318002015352">
        <ele>230.84999999999999</ele>
        <time>2017-05-21T10:58:24Z</time>
      </trkpt>
      <trkpt lat="50.843065017834306" lon="10.11667700484395">
        <ele>233.25999999999999</ele>
        <time>2017-05-21T10:58:38Z</time>
      </trkpt>
      <trkpt lat="50.843428960070014" lon="10.118941040709615">
        <ele>233.74000000000001</ele>
        <time>2017-05-21T10:58:51Z</time>
      </trkpt>
      <trkpt lat="50.844094986096025" lon="10.121218990534544">
        <ele>232.78</ele>
        <time>2017-05-21T10:59:06Z</time>
      </trkpt>
      <trkpt lat="50.844273017719388" lon="10.121697010472417">
        <ele>231.33000000000001</ele>
        <time>2017-05-21T10:59:10Z</time>
      </trkpt>
      <trkpt lat="50.844597984105349" lon="10.122679034247994">
        <ele>231.81</ele>
        <time>2017-05-21T10:59:18Z</time>
      </trkpt>
      <trkpt lat="50.844803005456924" lon="10.123448995873332">
        <ele>232.78</ele>
        <time>2017-05-21T10:59:23Z</time>
      </trkpt>
      <trkpt lat="50.84485899657011" lon="10.1235940027982">
        <ele>232.78</ele>
        <time>2017-05-21T10:59:24Z</time>
      </trkpt>
      <trkpt lat="50.844927979633212" lon="10.123726017773151">
        <ele>232.30000000000001</ele>
        <time>2017-05-21T10:59:25Z</time>
      </trkpt>
      <trkpt lat="50.845001991838217" lon="10.12385199777782">
        <ele>232.30000000000001</ele>
        <time>2017-05-21T10:59:26Z</time>
      </trkpt>
      <trkpt lat="50.845087990164757" lon="10.123977977782488">
        <ele>232.78</ele>
        <time>2017-05-21T10:59:27Z</time>
      </trkpt>
      <trkpt lat="50.845181029289961" lon="10.124079985544086">
        <ele>233.25999999999999</ele>
        <time>2017-05-21T10:59:28Z</time>
      </trkpt>
      <trkpt lat="50.845275996252894" lon="10.12417403049767">
        <ele>233.25999999999999</ele>
        <time>2017-05-21T10:59:29Z</time>
      </trkpt>
      <trkpt lat="50.846505034714937" lon="10.125597026199102">
        <ele>235.18000000000001</ele>
        <time>2017-05-21T10:59:42Z</time>
      </trkpt>
      <trkpt lat="50.847076009958982" lon="10.126480981707573">
        <ele>235.66</ele>
        <time>2017-05-21T10:59:48Z</time>
      </trkpt>
      <trkpt lat="50.847151027992368" lon="10.126689020544291">
        <ele>235.66</ele>
        <time>2017-05-21T10:59:49Z</time>
      </trkpt>
      <trkpt lat="50.847211964428425" lon="10.126910973340273">
        <ele>235.66</ele>
        <time>2017-05-21T10:59:50Z</time>
      </trkpt>
      <trkpt lat="50.847480017691851" lon="10.12782895937562">
        <ele>235.66</ele>
        <time>2017-05-21T10:59:54Z</time>
      </trkpt>
      <trkpt lat="50.847582025453448" lon="10.128050995990634">
        <ele>235.66</ele>
        <time>2017-05-21T10:59:55Z</time>
      </trkpt>
      <trkpt lat="50.8487259875983" lon="10.13001898303628">
        <ele>237.09999999999999</ele>
        <time>2017-05-21T11:00:03Z</time>
      </trkpt>
      <trkpt lat="50.850564977154136" lon="10.132484016939998">
        <ele>239.02000000000001</ele>
        <time>2017-05-21T11:00:13Z</time>
      </trkpt>
      <trkpt lat="50.852576969191432" lon="10.134883001446724">
        <ele>240.47</ele>
        <time>2017-05-21T11:00:23Z</time>
      </trkpt>
      <trkpt lat="50.857240995392203" lon="10.141101032495499">
        <ele>244.31</ele>
        <time>2017-05-21T11:00:47Z</time>
      </trkpt>
      <trkpt lat="50.859453985467553" lon="10.143807968124747">
        <ele>251.03999999999999</ele>
        <time>2017-05-21T11:00:59Z</time>
      </trkpt>
      <trkpt lat="50.86075896397233" lon="10.144812036305666">
        <ele>253.93000000000001</ele>
        <time>2017-05-21T11:01:05Z</time>
      </trkpt>
      <trkpt lat="50.860946970060468" lon="10.145049998536706">
        <ele>254.41</ele>
        <time>2017-05-21T11:01:06Z</time>
      </trkpt>
      <trkpt lat="50.861116033047438" lon="10.145316962152719">
        <ele>254.41</ele>
        <time>2017-05-21T11:01:07Z</time>
      </trkpt>
      <trkpt lat="50.861263973638415" lon="10.145606976002455">
        <ele>254.41</ele>
        <time>2017-05-21T11:01:08Z</time>
      </trkpt>
      <trkpt lat="50.861396994441748" lon="10.145914005115628">
        <ele>254.41</ele>
        <time>2017-05-21T11:01:09Z</time>
      </trkpt>
      <trkpt lat="50.861514005810022" lon="10.146203013136983">
        <ele>254.41</ele>
        <time>2017-05-21T11:01:10Z</time>
      </trkpt>
      <trkpt lat="50.861884988844395" lon="10.147257037460804">
        <ele>253.93000000000001</ele>
        <time>2017-05-21T11:01:15Z</time>
      </trkpt>
      <trkpt lat="50.862193023785949" lon="10.148098999634385">
        <ele>255.37</ele>
        <time>2017-05-21T11:01:20Z</time>
      </trkpt>
      <trkpt lat="50.862277010455728" lon="10.148244006559253">
        <ele>255.37</ele>
        <time>2017-05-21T11:01:21Z</time>
      </trkpt>
      <trkpt lat="50.863038003444672" lon="10.149287972599268">
        <ele>256.32999999999998</ele>
        <time>2017-05-21T11:01:27Z</time>
      </trkpt>
      <trkpt lat="50.864220019429922" lon="10.151045992970467">
        <ele>260.64999999999998</ele>
        <time>2017-05-21T11:01:35Z</time>
      </trkpt>
      <trkpt lat="50.864276010543108" lon="10.151319997385144">
        <ele>261.13999999999999</ele>
        <time>2017-05-21T11:01:36Z</time>
      </trkpt>
      <trkpt lat="50.864307023584843" lon="10.151600958779454">
        <ele>261.62</ele>
        <time>2017-05-21T11:01:37Z</time>
      </trkpt>
      <trkpt lat="50.864292019978166" lon="10.151890972629189">
        <ele>262.10000000000002</ele>
        <time>2017-05-21T11:01:38Z</time>
      </trkpt>
      <trkpt lat="50.864227982237935" lon="10.152175035327673">
        <ele>263.06</ele>
        <time>2017-05-21T11:01:39Z</time>
      </trkpt>
      <trkpt lat="50.864132009446621" lon="10.15247100032866">
        <ele>264.01999999999998</ele>
        <time>2017-05-21T11:01:40Z</time>
      </trkpt>
      <trkpt lat="50.864027990028262" lon="10.152778029441833">
        <ele>264.5</ele>
        <time>2017-05-21T11:01:41Z</time>
      </trkpt>
      <trkpt lat="50.863153003156185" lon="10.155536010861397">
        <ele>267.38</ele>
        <time>2017-05-21T11:01:49Z</time>
      </trkpt>
      <trkpt lat="50.862643970176578" lon="10.157106025144458">
        <ele>272.19</ele>
        <time>2017-05-21T11:01:55Z</time>
      </trkpt>
      <trkpt lat="50.862484965473413" lon="10.157732991501689">
        <ele>275.06999999999999</ele>
        <time>2017-05-21T11:01:58Z</time>
      </trkpt>
      <trkpt lat="50.862484965473413" lon="10.157937007024884">
        <ele>275.56</ele>
        <time>2017-05-21T11:01:59Z</time>
      </trkpt>
      <trkpt lat="50.862529976293445" lon="10.158145967870951">
        <ele>275.56</ele>
        <time>2017-05-21T11:02:00Z</time>
      </trkpt>
      <trkpt lat="50.862598959356546" lon="10.158350989222527">
        <ele>276.04000000000002</ele>
        <time>2017-05-21T11:02:01Z</time>
      </trkpt>
      <trkpt lat="50.862698033452034" lon="10.158542012795806">
        <ele>276.51999999999998</ele>
        <time>2017-05-21T11:02:02Z</time>
      </trkpt>
      <trkpt lat="50.862817978486419" lon="10.158717026934028">
        <ele>277.48000000000002</ele>
        <time>2017-05-21T11:02:03Z</time>
      </trkpt>
      <trkpt lat="50.862960973754525" lon="10.158881982788444">
        <ele>277.95999999999998</ele>
        <time>2017-05-21T11:02:04Z</time>
      </trkpt>
      <trkpt lat="50.863119978457689" lon="10.159044004976749">
        <ele>278.92000000000002</ele>
        <time>2017-05-21T11:02:05Z</time>
      </trkpt>
      <trkpt lat="50.864621009677649" lon="10.160422995686531">
        <ele>286.61000000000001</ele>
        <time>2017-05-21T11:02:13Z</time>
      </trkpt>
      <trkpt lat="50.864970032125711" lon="10.160703035071492">
        <ele>289.00999999999999</ele>
        <time>2017-05-21T11:02:15Z</time>
      </trkpt>
      <trkpt lat="50.865146974101663" lon="10.160777969285846">
        <ele>289.49000000000001</ele>
        <time>2017-05-21T11:02:16Z</time>
      </trkpt>
      <trkpt lat="50.865329029038548" lon="10.16080898232758">
        <ele>290.45999999999998</ele>
        <time>2017-05-21T11:02:17Z</time>
      </trkpt>
      <trkpt lat="50.865507982671261" lon="10.160795990377665">
        <ele>291.42000000000002</ele>
        <time>2017-05-21T11:02:18Z</time>
      </trkpt>
      <trkpt lat="50.865672016516328" lon="10.160736981779337">
        <ele>292.86000000000001</ele>
        <time>2017-05-21T11:02:19Z</time>
      </trkpt>
      <trkpt lat="50.865823980420828" lon="10.160582000389695">
        <ele>290.94</ele>
        <time>2017-05-21T11:02:20Z</time>
      </trkpt>
      <trkpt lat="50.865963036194444" lon="10.16042098402977">
        <ele>291.42000000000002</ele>
        <time>2017-05-21T11:02:21Z</time>
      </trkpt>
      <trkpt lat="50.866089016199112" lon="10.160235995426774">
        <ele>291.89999999999998</ele>
        <time>2017-05-21T11:02:22Z</time>
      </trkpt>
      <trkpt lat="50.86634298786521" lon="10.159939024597406">
        <ele>293.81999999999999</ele>
        <time>2017-05-21T11:02:24Z</time>
      </trkpt>
      <trkpt lat="50.866481959819794" lon="10.159898959100246">
        <ele>295.25999999999999</ele>
        <time>2017-05-21T11:02:25Z</time>
      </trkpt>
      <trkpt lat="50.866627972573042" lon="10.159944975748658">
        <ele>295.74000000000001</ele>
        <time>2017-05-21T11:02:26Z</time>
      </trkpt>
      <trkpt lat="50.866769962012768" lon="10.16005402430892">
        <ele>296.69999999999999</ele>
        <time>2017-05-21T11:02:27Z</time>
      </trkpt>
      <trkpt lat="50.866892002522945" lon="10.160221997648478">
        <ele>297.67000000000002</ele>
        <time>2017-05-21T11:02:28Z</time>
      </trkpt>
      <trkpt lat="50.866999961435795" lon="10.160427019000053">
        <ele>299.11000000000001</ele>
        <time>2017-05-21T11:02:29Z</time>
      </trkpt>
      <trkpt lat="50.867111021652818" lon="10.160628017038107">
        <ele>299.58999999999997</ele>
        <time>2017-05-21T11:02:30Z</time>
      </trkpt>
      <trkpt lat="50.867227027192712" lon="10.160790039226413">
        <ele>300.55000000000001</ele>
        <time>2017-05-21T11:02:31Z</time>
      </trkpt>
      <trkpt lat="50.867364993318915" lon="10.160905960947275">
        <ele>301.02999999999997</ele>
        <time>2017-05-21T11:02:32Z</time>
      </trkpt>
      <trkpt lat="50.867533972486854" lon="10.160973016172647">
        <ele>303.91000000000003</ele>
        <time>2017-05-21T11:02:33Z</time>
      </trkpt>
      <trkpt lat="50.867705969139934" lon="10.160969998687506">
        <ele>305.36000000000001</ele>
        <time>2017-05-21T11:02:34Z</time>
      </trkpt>
      <trkpt lat="50.867872014641762" lon="10.160911995917559">
        <ele>305.36000000000001</ele>
        <time>2017-05-21T11:02:35Z</time>
      </trkpt>
      <trkpt lat="50.868034958839417" lon="10.160832032561302">
        <ele>306.31999999999999</ele>
        <time>2017-05-21T11:02:36Z</time>
      </trkpt>
      <trkpt lat="50.868187006562948" lon="10.160772018134594">
        <ele>307.27999999999997</ele>
        <time>2017-05-21T11:02:37Z</time>
      </trkpt>
      <trkpt lat="50.868347017094493" lon="10.160748967900872">
        <ele>308.24000000000001</ele>
        <time>2017-05-21T11:02:38Z</time>
      </trkpt>
      <trkpt lat="50.868511972948909" lon="10.160805964842439">
        <ele>309.19999999999999</ele>
        <time>2017-05-21T11:02:39Z</time>
      </trkpt>
      <trkpt lat="50.868677012622356" lon="10.160922976210713">
        <ele>310.16000000000003</ele>
        <time>2017-05-21T11:02:40Z</time>
      </trkpt>
      <trkpt lat="50.868845991790295" lon="10.161071000620723">
        <ele>311.60000000000002</ele>
        <time>2017-05-21T11:02:41Z</time>
      </trkpt>
      <trkpt lat="50.870053991675377" lon="10.162080014124513">
        <ele>321.22000000000003</ele>
        <time>2017-05-21T11:02:48Z</time>
      </trkpt>
      <trkpt lat="50.870233029127121" lon="10.162126030772924">
        <ele>322.66000000000003</ele>
        <time>2017-05-21T11:02:49Z</time>
      </trkpt>
      <trkpt lat="50.870418017730117" lon="10.162119995802641">
        <ele>324.10000000000002</ele>
        <time>2017-05-21T11:02:50Z</time>
      </trkpt>
      <trkpt lat="50.871548987925053" lon="10.16181799583137">
        <ele>329.38999999999999</ele>
        <time>2017-05-21T11:02:57Z</time>
      </trkpt>
      <trkpt lat="50.872547021135688" lon="10.161448018625379">
        <ele>329.87</ele>
        <time>2017-05-21T11:03:05Z</time>
      </trkpt>
      <trkpt lat="50.873774969950318" lon="10.161064965650439">
        <ele>325.54000000000002</ele>
        <time>2017-05-21T11:03:17Z</time>
      </trkpt>
      <trkpt lat="50.874986993148923" lon="10.160798002034426">
        <ele>320.74000000000001</ele>
        <time>2017-05-21T11:03:31Z</time>
      </trkpt>
      <trkpt lat="50.875063017010689" lon="10.160823985934258">
        <ele>320.25999999999999</ele>
        <time>2017-05-21T11:03:32Z</time>
      </trkpt>
      <trkpt lat="50.875127976760268" lon="10.160887017846107">
        <ele>319.30000000000001</ele>
        <time>2017-05-21T11:03:33Z</time>
      </trkpt>
      <trkpt lat="50.875186985358596" lon="10.16097703948617">
        <ele>319.30000000000001</ele>
        <time>2017-05-21T11:03:34Z</time>
      </trkpt>
      <trkpt lat="50.875225961208344" lon="10.161101007834077">
        <ele>318.81</ele>
        <time>2017-05-21T11:03:35Z</time>
      </trkpt>
      <trkpt lat="50.875228978693485" lon="10.161244003102183">
        <ele>317.85000000000002</ele>
        <time>2017-05-21T11:03:36Z</time>
      </trkpt>
      <trkpt lat="50.875229984521866" lon="10.161392027512193">
        <ele>317.37</ele>
        <time>2017-05-21T11:03:37Z</time>
      </trkpt>
      <trkpt lat="50.875230990350246" lon="10.16153703443706">
        <ele>317.85000000000002</ele>
        <time>2017-05-21T11:03:38Z</time>
      </trkpt>
      <trkpt lat="50.875246999785304" lon="10.161855965852737">
        <ele>317.37</ele>
        <time>2017-05-21T11:03:40Z</time>
      </trkpt>
      <trkpt lat="50.875273989513516" lon="10.161998961120844">
        <ele>317.37</ele>
        <time>2017-05-21T11:03:41Z</time>
      </trkpt>
      <trkpt lat="50.875659976154566" lon="10.163708031177521">
        <ele>318.32999999999998</ele>
        <time>2017-05-21T11:03:51Z</time>
      </trkpt>
      <trkpt lat="50.875725019723177" lon="10.163882961496711">
        <ele>318.32999999999998</ele>
        <time>2017-05-21T11:03:52Z</time>
      </trkpt>
      <trkpt lat="50.876425998285413" lon="10.165528999641538">
        <ele>315.44999999999999</ele>
        <time>2017-05-21T11:04:00Z</time>
      </trkpt>
      <trkpt lat="50.876749036833644" lon="10.16641303896904">
        <ele>313.52999999999997</ele>
        <time>2017-05-21T11:04:03Z</time>
      </trkpt>
      <trkpt lat="50.876832017675042" lon="10.16675803810358">
        <ele>313.05000000000001</ele>
        <time>2017-05-21T11:04:04Z</time>
      </trkpt>
      <trkpt lat="50.87717299349606" lon="10.169564969837666">
        <ele>308.24000000000001</ele>
        <time>2017-05-21T11:04:11Z</time>
      </trkpt>
      <trkpt lat="50.877399975433946" lon="10.171633958816528">
        <ele>302.94999999999999</ele>
        <time>2017-05-21T11:04:17Z</time>
      </trkpt>
      <trkpt lat="50.877502989023924" lon="10.171923972666264">
        <ele>302.47000000000003</ele>
        <time>2017-05-21T11:04:18Z</time>
      </trkpt>
      <trkpt lat="50.877636009827256" lon="10.172202000394464">
        <ele>301.99000000000001</ele>
        <time>2017-05-21T11:04:19Z</time>
      </trkpt>
      <trkpt lat="50.878882985562086" lon="10.174012994393706">
        <ele>301.02999999999997</ele>
        <time>2017-05-21T11:04:26Z</time>
      </trkpt>
      <trkpt lat="50.881204018369317" lon="10.176731999963522">
        <ele>304.38999999999999</ele>
        <time>2017-05-21T11:04:37Z</time>
      </trkpt>
      <trkpt lat="50.882272040471435" lon="10.178131023421884">
        <ele>300.55000000000001</ele>
        <time>2017-05-21T11:04:43Z</time>
      </trkpt>
      <trkpt lat="50.882915016263723" lon="10.179003998637199">
        <ele>301.99000000000001</ele>
        <time>2017-05-21T11:04:48Z</time>
      </trkpt>
      <trkpt lat="50.883054994046688" lon="10.179072981700301">
        <ele>302.94999999999999</ele>
        <time>2017-05-21T11:04:49Z</time>
      </trkpt>
      <trkpt lat="50.883186003193259" lon="10.179071975871921">
        <ele>303.91000000000003</ele>
        <time>2017-05-21T11:04:50Z</time>
      </trkpt>
      <trkpt lat="50.883333021774888" lon="10.179020008072257">
        <ele>304.88</ele>
        <time>2017-05-21T11:04:51Z</time>
      </trkpt>
      <trkpt lat="50.883492026478052" lon="10.178936021402478">
        <ele>305.36000000000001</ele>
        <time>2017-05-21T11:04:52Z</time>
      </trkpt>
      <trkpt lat="50.883668968454003" lon="10.178848011419177">
        <ele>305.83999999999997</ele>
        <time>2017-05-21T11:04:53Z</time>
      </trkpt>
      <trkpt lat="50.88385303504765" lon="10.178771987557411">
        <ele>306.31999999999999</ele>
        <time>2017-05-21T11:04:54Z</time>
      </trkpt>
      <trkpt lat="50.884051015600562" lon="10.178719013929367">
        <ele>307.75999999999999</ele>
        <time>2017-05-21T11:04:55Z</time>
      </trkpt>
      <trkpt lat="50.884271040558815" lon="10.178718008100986">
        <ele>309.19999999999999</ele>
        <time>2017-05-21T11:04:56Z</time>
      </trkpt>
      <trkpt lat="50.884495005011559" lon="10.178729994222522">
        <ele>310.16000000000003</ele>
        <time>2017-05-21T11:04:57Z</time>
      </trkpt>
      <trkpt lat="50.886232992634177" lon="10.178674003109336">
        <ele>315.44999999999999</ele>
        <time>2017-05-21T11:05:04Z</time>
      </trkpt>
      <trkpt lat="50.887705022469163" lon="10.178427994251251">
        <ele>319.77999999999997</ele>
        <time>2017-05-21T11:05:10Z</time>
      </trkpt>
      <trkpt lat="50.887887999415398" lon="10.178379965946078">
        <ele>320.74000000000001</ele>
        <time>2017-05-21T11:05:11Z</time>
      </trkpt>
      <trkpt lat="50.888090003281832" lon="10.178407039493322">
        <ele>321.22000000000003</ele>
        <time>2017-05-21T11:05:12Z</time>
      </trkpt>
      <trkpt lat="50.88827901519835" lon="10.178421959280968">
        <ele>322.18000000000001</ele>
        <time>2017-05-21T11:05:13Z</time>
      </trkpt>
      <trkpt lat="50.888847978785634" lon="10.178619017824531">
        <ele>321.69999999999999</ele>
        <time>2017-05-21T11:05:16Z</time>
      </trkpt>
      <trkpt lat="50.889021987095475" lon="10.178623963147402">
        <ele>321.69999999999999</ele>
        <time>2017-05-21T11:05:17Z</time>
      </trkpt>
      <trkpt lat="50.889177974313498" lon="10.178582975640893">
        <ele>322.66000000000003</ele>
        <time>2017-05-21T11:05:18Z</time>
      </trkpt>
      <trkpt lat="50.889341002330184" lon="10.178435035049915">
        <ele>322.66000000000003</ele>
        <time>2017-05-21T11:05:19Z</time>
      </trkpt>
      <trkpt lat="50.889508975669742" lon="10.178343001753092">
        <ele>322.18000000000001</ele>
        <time>2017-05-21T11:05:20Z</time>
      </trkpt>
      <trkpt lat="50.889680972322822" lon="10.178291033953428">
        <ele>322.18000000000001</ele>
        <time>2017-05-21T11:05:21Z</time>
      </trkpt>
      <trkpt lat="50.889845006167889" lon="10.178298996761441">
        <ele>321.69999999999999</ele>
        <time>2017-05-21T11:05:22Z</time>
      </trkpt>
      <trkpt lat="50.890013985335827" lon="10.178370997309685">
        <ele>321.69999999999999</ele>
        <time>2017-05-21T11:05:23Z</time>
      </trkpt>
      <trkpt lat="50.890183970332146" lon="10.178499994799495">
        <ele>321.22000000000003</ele>
        <time>2017-05-21T11:05:24Z</time>
      </trkpt>
      <trkpt lat="50.890365019440651" lon="10.178664028644562">
        <ele>321.69999999999999</ele>
        <time>2017-05-21T11:05:25Z</time>
      </trkpt>
      <trkpt lat="50.89154401794076" lon="10.180151984095573">
        <ele>323.13999999999999</ele>
        <time>2017-05-21T11:05:31Z</time>
      </trkpt>
      <trkpt lat="50.891849035397172" lon="10.180751960724592">
        <ele>325.06</ele>
        <time>2017-05-21T11:05:33Z</time>
      </trkpt>
      <trkpt lat="50.891965962946415" lon="10.181094026193023">
        <ele>326.99000000000001</ele>
        <time>2017-05-21T11:05:34Z</time>
      </trkpt>
      <trkpt lat="50.892062019556761" lon="10.181446988135576">
        <ele>327.94999999999999</ele>
        <time>2017-05-21T11:05:35Z</time>
      </trkpt>
      <trkpt lat="50.892127985134721" lon="10.181844038888812">
        <ele>330.35000000000002</ele>
        <time>2017-05-21T11:05:36Z</time>
      </trkpt>
      <trkpt lat="50.892184982076287" lon="10.182251986116171">
        <ele>331.79000000000002</ele>
        <time>2017-05-21T11:05:37Z</time>
      </trkpt>
      <trkpt lat="50.892224963754416" lon="10.182672003284097">
        <ele>333.70999999999998</ele>
        <time>2017-05-21T11:05:38Z</time>
      </trkpt>
      <trkpt lat="50.892261005938053" lon="10.183068970218301">
        <ele>333.23000000000002</ele>
        <time>2017-05-21T11:05:39Z</time>
      </trkpt>
      <trkpt lat="50.892570968717337" lon="10.185025976970792">
        <ele>329.38999999999999</ele>
        <time>2017-05-21T11:05:44Z</time>
      </trkpt>
      <trkpt lat="50.892715975642204" lon="10.185395032167435">
        <ele>328.43000000000001</ele>
        <time>2017-05-21T11:05:45Z</time>
      </trkpt>
      <trkpt lat="50.893720965832472" lon="10.187876997515559">
        <ele>323.62</ele>
        <time>2017-05-21T11:05:53Z</time>
      </trkpt>
      <trkpt lat="50.894381962716579" lon="10.188881987705827">
        <ele>317.37</ele>
        <time>2017-05-21T11:05:57Z</time>
      </trkpt>
      <trkpt lat="50.895187966525555" lon="10.18968204036355">
        <ele>315.93000000000001</ele>
        <time>2017-05-21T11:06:01Z</time>
      </trkpt>
      <trkpt lat="50.895408997312188" lon="10.189782958477736">
        <ele>314.97000000000003</ele>
        <time>2017-05-21T11:06:02Z</time>
      </trkpt>
      <trkpt lat="50.895656011998653" lon="10.189863005653024">
        <ele>314.49000000000001</ele>
        <time>2017-05-21T11:06:03Z</time>
      </trkpt>
      <trkpt lat="50.897113038226962" lon="10.190317975357175">
        <ele>295.74000000000001</ele>
        <time>2017-05-21T11:06:09Z</time>
      </trkpt>
      <trkpt lat="50.897315964102745" lon="10.190486032515764">
        <ele>293.33999999999997</ele>
        <time>2017-05-21T11:06:10Z</time>
      </trkpt>
      <trkpt lat="50.897506987676024" lon="10.19067001529038">
        <ele>291.42000000000002</ele>
        <time>2017-05-21T11:06:11Z</time>
      </trkpt>
      <trkpt lat="50.897685019299388" lon="10.190874030813575">
        <ele>290.45999999999998</ele>
        <time>2017-05-21T11:06:12Z</time>
      </trkpt>
      <trkpt lat="50.897843018174171" lon="10.191082991659641">
        <ele>289.00999999999999</ele>
        <time>2017-05-21T11:06:13Z</time>
      </trkpt>
      <trkpt lat="50.897988025099039" lon="10.191315002739429">
        <ele>288.05000000000001</ele>
        <time>2017-05-21T11:06:14Z</time>
      </trkpt>
      <trkpt lat="50.899054035544395" lon="10.193026000633836">
        <ele>279.88</ele>
        <time>2017-05-21T11:06:23Z</time>
      </trkpt>
      <trkpt lat="50.900170002132654" lon="10.194573970511556">
        <ele>271.70999999999998</ele>
        <time>2017-05-21T11:06:31Z</time>
      </trkpt>
      <trkpt lat="50.901559973135591" lon="10.196388987824321">
        <ele>261.62</ele>
        <time>2017-05-21T11:06:38Z</time>
      </trkpt>
      <trkpt lat="50.903069972991943" lon="10.198279023170471">
        <ele>253.93000000000001</ele>
        <time>2017-05-21T11:06:46Z</time>
      </trkpt>
      <trkpt lat="50.903591997921467" lon="10.198894003406167">
        <ele>252</ele>
        <time>2017-05-21T11:06:49Z</time>
      </trkpt>
      <trkpt lat="50.903777992352843" lon="10.199049990624189">
        <ele>251.52000000000001</ele>
        <time>2017-05-21T11:06:50Z</time>
      </trkpt>
      <trkpt lat="50.903975972905755" lon="10.199177982285619">
        <ele>250.56</ele>
        <time>2017-05-21T11:06:51Z</time>
      </trkpt>
      <trkpt lat="50.905491001904011" lon="10.200075013563037">
        <ele>245.75</ele>
        <time>2017-05-21T11:06:59Z</time>
      </trkpt>
      <trkpt lat="50.90761698782444" lon="10.201364988461137">
        <ele>240.94999999999999</ele>
        <time>2017-05-21T11:07:13Z</time>
      </trkpt>
      <trkpt lat="50.908746030181646" lon="10.201703030616045">
        <ele>238.53999999999999</ele>
        <time>2017-05-21T11:07:23Z</time>
      </trkpt>
      <trkpt lat="50.910297017544508" lon="10.20158601924777">
        <ele>237.09999999999999</ele>
        <time>2017-05-21T11:07:37Z</time>
      </trkpt>
      <trkpt lat="50.9112040232867" lon="10.201416034251451">
        <ele>236.62</ele>
        <time>2017-05-21T11:07:46Z</time>
      </trkpt>
      <trkpt lat="50.911276023834944" lon="10.201477976515889">
        <ele>235.66</ele>
        <time>2017-05-21T11:07:47Z</time>
      </trkpt>
      <trkpt lat="50.911334026604891" lon="10.201569003984332">
        <ele>235.66</ele>
        <time>2017-05-21T11:07:48Z</time>
      </trkpt>
      <trkpt lat="50.911380965262651" lon="10.201685009524226">
        <ele>235.66</ele>
        <time>2017-05-21T11:07:49Z</time>
      </trkpt>
      <trkpt lat="50.911423964425921" lon="10.201811995357275">
        <ele>235.66</ele>
        <time>2017-05-21T11:07:50Z</time>
      </trkpt>
      <trkpt lat="50.911640971899033" lon="10.20233997143805">
        <ele>236.62</ele>
        <time>2017-05-21T11:07:54Z</time>
      </trkpt>
      <trkpt lat="50.911707021296024" lon="10.202455976977944">
        <ele>237.09999999999999</ele>
        <time>2017-05-21T11:07:55Z</time>
      </trkpt>
      <trkpt lat="50.911774998530746" lon="10.202559996396303">
        <ele>237.09999999999999</ele>
        <time>2017-05-21T11:07:56Z</time>
      </trkpt>
      <trkpt lat="50.911843981593847" lon="10.202655969187617">
        <ele>237.09999999999999</ele>
        <time>2017-05-21T11:07:57Z</time>
      </trkpt>
      <trkpt lat="50.91191103681922" lon="10.20274699665606">
        <ele>237.58000000000001</ele>
        <time>2017-05-21T11:07:58Z</time>
      </trkpt>
      <trkpt lat="50.912119997665286" lon="10.202949000522494">
        <ele>238.06</ele>
        <time>2017-05-21T11:08:01Z</time>
      </trkpt>
      <trkpt lat="50.912411017343402" lon="10.203122003003955">
        <ele>238.53999999999999</ele>
        <time>2017-05-21T11:08:05Z</time>
      </trkpt>
      <trkpt lat="50.912498021498322" lon="10.203108005225658">
        <ele>239.02000000000001</ele>
        <time>2017-05-21T11:08:06Z</time>
      </trkpt>
      <trkpt lat="50.912663983181119" lon="10.203069029375911">
        <ele>239.02000000000001</ele>
        <time>2017-05-21T11:08:08Z</time>
      </trkpt>
      <trkpt lat="50.913133034482598" lon="10.202813968062401">
        <ele>241.43000000000001</ele>
        <time>2017-05-21T11:08:14Z</time>
      </trkpt>
      <trkpt lat="50.913210986182094" lon="10.202798964455724">
        <ele>241.91</ele>
        <time>2017-05-21T11:08:15Z</time>
      </trkpt>
      <trkpt lat="50.913289021700621" lon="10.202806005254388">
        <ele>241.91</ele>
        <time>2017-05-21T11:08:16Z</time>
      </trkpt>
      <trkpt lat="50.913506029173732" lon="10.202888986095786">
        <ele>242.87</ele>
        <time>2017-05-21T11:08:19Z</time>
      </trkpt>
      <trkpt lat="50.914371963590384" lon="10.203152010217309">
        <ele>246.72</ele>
        <time>2017-05-21T11:08:30Z</time>
      </trkpt>
      <trkpt lat="50.914457039907575" lon="10.203204983845353">
        <ele>247.68000000000001</ele>
        <time>2017-05-21T11:08:31Z</time>
      </trkpt>
      <trkpt lat="50.914524011313915" lon="10.203277990221977">
        <ele>247.68000000000001</ele>
        <time>2017-05-21T11:08:32Z</time>
      </trkpt>
      <trkpt lat="50.914578996598721" lon="10.203358959406614">
        <ele>248.16</ele>
        <time>2017-05-21T11:08:33Z</time>
      </trkpt>
      <trkpt lat="50.914636999368668" lon="10.203449986875057">
        <ele>248.63999999999999</ele>
        <time>2017-05-21T11:08:34Z</time>
      </trkpt>
      <trkpt lat="50.915031032636762" lon="10.204097991809249">
        <ele>251.52000000000001</ele>
        <time>2017-05-21T11:08:40Z</time>
      </trkpt>
      <trkpt lat="50.915086017921567" lon="10.20422900095582">
        <ele>252.47999999999999</ele>
        <time>2017-05-21T11:08:41Z</time>
      </trkpt>
      <trkpt lat="50.91573896817863" lon="10.206035971641541">
        <ele>262.10000000000002</ele>
        <time>2017-05-21T11:08:52Z</time>
      </trkpt>
      <trkpt lat="50.916471965610981" lon="10.208233036100864">
        <ele>275.06999999999999</ele>
        <time>2017-05-21T11:09:03Z</time>
      </trkpt>
      <trkpt lat="50.917296996340156" lon="10.210799993947148">
        <ele>289.00999999999999</ele>
        <time>2017-05-21T11:09:12Z</time>
      </trkpt>
      <trkpt lat="50.917575024068356" lon="10.211541038006544">
        <ele>292.86000000000001</ele>
        <time>2017-05-21T11:09:15Z</time>
      </trkpt>
      <trkpt lat="50.917702009901404" lon="10.211737006902695">
        <ele>294.30000000000001</ele>
        <time>2017-05-21T11:09:16Z</time>
      </trkpt>
      <trkpt lat="50.917850034311414" lon="10.211906991899014">
        <ele>295.74000000000001</ele>
        <time>2017-05-21T11:09:17Z</time>
      </trkpt>
      <trkpt lat="50.918005015701056" lon="10.212054010480642">
        <ele>297.18000000000001</ele>
        <time>2017-05-21T11:09:18Z</time>
      </trkpt>
      <trkpt lat="50.918159997090697" lon="10.212186025455594">
        <ele>298.63</ele>
        <time>2017-05-21T11:09:19Z</time>
      </trkpt>
      <trkpt lat="50.918605998158455" lon="10.212597995996475">
        <ele>300.55000000000001</ele>
        <time>2017-05-21T11:09:22Z</time>
      </trkpt>
      <trkpt lat="50.918731978163123" lon="10.212788013741374">
        <ele>301.50999999999999</ele>
        <time>2017-05-21T11:09:23Z</time>
      </trkpt>
      <trkpt lat="50.918841026723385" lon="10.213010972365737">
        <ele>301.99000000000001</ele>
        <time>2017-05-21T11:09:24Z</time>
      </trkpt>
      <trkpt lat="50.918915960937738" lon="10.213281959295273">
        <ele>302.94999999999999</ele>
        <time>2017-05-21T11:09:25Z</time>
      </trkpt>
      <trkpt lat="50.91898100450635" lon="10.213567027822137">
        <ele>303.43000000000001</ele>
        <time>2017-05-21T11:09:26Z</time>
      </trkpt>
      <trkpt lat="50.919206980615854" lon="10.214411001652479">
        <ele>305.36000000000001</ele>
        <time>2017-05-21T11:09:29Z</time>
      </trkpt>
      <trkpt lat="50.919313011690974" lon="10.214677965268493">
        <ele>306.31999999999999</ele>
        <time>2017-05-21T11:09:30Z</time>
      </trkpt>
      <trkpt lat="50.919442009180784" lon="10.214937971904874">
        <ele>308.24000000000001</ele>
        <time>2017-05-21T11:09:31Z</time>
      </trkpt>
      <trkpt lat="50.919993035495281" lon="10.215885965153575">
        <ele>315.93000000000001</ele>
        <time>2017-05-21T11:09:35Z</time>
      </trkpt>
      <trkpt lat="50.920152962207794" lon="10.216070031747222">
        <ele>316.41000000000003</ele>
        <time>2017-05-21T11:09:36Z</time>
      </trkpt>
      <trkpt lat="50.920329988002777" lon="10.216240016743541">
        <ele>317.37</ele>
        <time>2017-05-21T11:09:37Z</time>
      </trkpt>
      <trkpt lat="50.921449977904558" lon="10.217457991093397">
        <ele>319.77999999999997</ele>
        <time>2017-05-21T11:09:43Z</time>
      </trkpt>
      <trkpt lat="50.924022970721126" lon="10.220971014350653">
        <ele>320.74000000000001</ele>
        <time>2017-05-21T11:09:57Z</time>
      </trkpt>
      <trkpt lat="50.925896996632218" lon="10.223591029644012">
        <ele>324.10000000000002</ele>
        <time>2017-05-21T11:10:07Z</time>
      </trkpt>
      <trkpt lat="50.927212033420801" lon="10.225367993116379">
        <ele>319.77999999999997</ele>
        <time>2017-05-21T11:10:14Z</time>
      </trkpt>
      <trkpt lat="50.929775973781943" lon="10.228955028578639">
        <ele>308.24000000000001</ele>
        <time>2017-05-21T11:10:27Z</time>
      </trkpt>
      <trkpt lat="50.92991997487843" lon="10.22925803437829">
        <ele>309.19999999999999</ele>
        <time>2017-05-21T11:10:28Z</time>
      </trkpt>
      <trkpt lat="50.930037992075086" lon="10.229570008814335">
        <ele>309.19999999999999</ele>
        <time>2017-05-21T11:10:29Z</time>
      </trkpt>
      <trkpt lat="50.930463038384914" lon="10.230945982038975">
        <ele>310.63999999999999</ele>
        <time>2017-05-21T11:10:33Z</time>
      </trkpt>
      <trkpt lat="50.930598992854357" lon="10.231239013373852">
        <ele>310.16000000000003</ele>
        <time>2017-05-21T11:10:34Z</time>
      </trkpt>
      <trkpt lat="50.930743999779224" lon="10.231503965333104">
        <ele>310.16000000000003</ele>
        <time>2017-05-21T11:10:35Z</time>
      </trkpt>
      <trkpt lat="50.93122897669673" lon="10.232208967208862">
        <ele>308.24000000000001</ele>
        <time>2017-05-21T11:10:38Z</time>
      </trkpt>
      <trkpt lat="50.932681979611516" lon="10.233390983194113">
        <ele>301.99000000000001</ele>
        <time>2017-05-21T11:10:45Z</time>
      </trkpt>
      <trkpt lat="50.933412965387106" lon="10.233718967065215">
        <ele>299.11000000000001</ele>
        <time>2017-05-21T11:10:49Z</time>
      </trkpt>
      <trkpt lat="50.933555960655212" lon="10.233700023964047">
        <ele>298.63</ele>
        <time>2017-05-21T11:10:50Z</time>
      </trkpt>
      <trkpt lat="50.933684958145022" lon="10.233631040900946">
        <ele>298.14999999999998</ele>
        <time>2017-05-21T11:10:51Z</time>
      </trkpt>
      <trkpt lat="50.933815967291594" lon="10.233506988734007">
        <ele>297.67000000000002</ele>
        <time>2017-05-21T11:10:52Z</time>
      </trkpt>
      <trkpt lat="50.933952005580068" lon="10.233329962939024">
        <ele>296.69999999999999</ele>
        <time>2017-05-21T11:10:53Z</time>
      </trkpt>
      <trkpt lat="50.934100029990077" lon="10.233122007921338">
        <ele>295.74000000000001</ele>
        <time>2017-05-21T11:10:54Z</time>
      </trkpt>
      <trkpt lat="50.935235023498535" lon="10.231650983914733">
        <ele>288.52999999999997</ele>
        <time>2017-05-21T11:11:00Z</time>
      </trkpt>
      <trkpt lat="50.936690960079432" lon="10.229962030425668">
        <ele>281.31999999999999</ele>
        <time>2017-05-21T11:11:08Z</time>
      </trkpt>
      <trkpt lat="50.93685700558126" lon="10.22985901683569">
        <ele>280.36000000000001</ele>
        <time>2017-05-21T11:11:09Z</time>
      </trkpt>
      <trkpt lat="50.937032019719481" lon="10.229791961610317">
        <ele>279.39999999999998</ele>
        <time>2017-05-21T11:11:10Z</time>
      </trkpt>
      <trkpt lat="50.93722396530211" lon="10.229762960225344">
        <ele>278.44</ele>
        <time>2017-05-21T11:11:11Z</time>
      </trkpt>
      <trkpt lat="50.937403002753854" lon="10.229765977710485">
        <ele>277.48000000000002</ele>
        <time>2017-05-21T11:11:12Z</time>
      </trkpt>
      <trkpt lat="50.937552032992244" lon="10.229803025722504">
        <ele>277</ele>
        <time>2017-05-21T11:11:13Z</time>
      </trkpt>
      <trkpt lat="50.93767499551177" lon="10.229883994907141">
        <ele>276.04000000000002</ele>
        <time>2017-05-21T11:11:14Z</time>
      </trkpt>
      <trkpt lat="50.937795024365187" lon="10.229976028203964">
        <ele>275.56</ele>
        <time>2017-05-21T11:11:15Z</time>
      </trkpt>
      <trkpt lat="50.937899965792894" lon="10.230094967409968">
        <ele>274.58999999999997</ele>
        <time>2017-05-21T11:11:16Z</time>
      </trkpt>
      <trkpt lat="50.937987975776196" lon="10.230236034840345">
        <ele>274.11000000000001</ele>
        <time>2017-05-21T11:11:17Z</time>
      </trkpt>
      <trkpt lat="50.938056036829948" lon="10.230395039543509">
        <ele>273.63</ele>
        <time>2017-05-21T11:11:18Z</time>
      </trkpt>
      <trkpt lat="50.938109010457993" lon="10.230576004832983">
        <ele>274.11000000000001</ele>
        <time>2017-05-21T11:11:19Z</time>
      </trkpt>
      <trkpt lat="50.938143962994218" lon="10.230769040063024">
        <ele>274.11000000000001</ele>
        <time>2017-05-21T11:11:20Z</time>
      </trkpt>
      <trkpt lat="50.938165001571178" lon="10.230986969545484">
        <ele>273.63</ele>
        <time>2017-05-21T11:11:21Z</time>
      </trkpt>
      <trkpt lat="50.938176987692714" lon="10.231190985068679">
        <ele>273.14999999999998</ele>
        <time>2017-05-21T11:11:22Z</time>
      </trkpt>
      <trkpt lat="50.938274972140789" lon="10.233690971508622">
        <ele>264.98000000000002</ele>
        <time>2017-05-21T11:11:35Z</time>
      </trkpt>
      <trkpt lat="50.938300034031272" lon="10.234077963978052">
        <ele>264.5</ele>
        <time>2017-05-21T11:11:37Z</time>
      </trkpt>
      <trkpt lat="50.938326017931104" lon="10.234268987551332">
        <ele>264.01999999999998</ele>
        <time>2017-05-21T11:11:38Z</time>
      </trkpt>
      <trkpt lat="50.938364993780851" lon="10.234448025003076">
        <ele>263.54000000000002</ele>
        <time>2017-05-21T11:11:39Z</time>
      </trkpt>
      <trkpt lat="50.93842500820756" lon="10.23461096920073">
        <ele>263.06</ele>
        <time>2017-05-21T11:11:40Z</time>
      </trkpt>
      <trkpt lat="50.938501032069325" lon="10.234776008874178">
        <ele>263.06</ele>
        <time>2017-05-21T11:11:41Z</time>
      </trkpt>
      <trkpt lat="50.938579989597201" lon="10.234925039112568">
        <ele>262.57999999999998</ele>
        <time>2017-05-21T11:11:42Z</time>
      </trkpt>
      <trkpt lat="50.938660958781838" lon="10.235074991360307">
        <ele>262.57999999999998</ele>
        <time>2017-05-21T11:11:43Z</time>
      </trkpt>
      <trkpt lat="50.939577016979456" lon="10.236857989802957">
        <ele>258.73000000000002</ele>
        <time>2017-05-21T11:11:55Z</time>
      </trkpt>
      <trkpt lat="50.939787989482284" lon="10.237546982243657">
        <ele>258.73000000000002</ele>
        <time>2017-05-21T11:11:59Z</time>
      </trkpt>
      <trkpt lat="50.939820008352399" lon="10.237729037180543">
        <ele>258.73000000000002</ele>
        <time>2017-05-21T11:12:00Z</time>
      </trkpt>
      <trkpt lat="50.939839035272598" lon="10.237914025783539">
        <ele>259.20999999999998</ele>
        <time>2017-05-21T11:12:01Z</time>
      </trkpt>
      <trkpt lat="50.939839035272598" lon="10.238104965537786">
        <ele>259.20999999999998</ele>
        <time>2017-05-21T11:12:02Z</time>
      </trkpt>
      <trkpt lat="50.939823025837541" lon="10.238293977454305">
        <ele>259.20999999999998</ele>
        <time>2017-05-21T11:12:03Z</time>
      </trkpt>
      <trkpt lat="50.939794024452567" lon="10.238483995199203">
        <ele>259.69</ele>
        <time>2017-05-21T11:12:04Z</time>
      </trkpt>
      <trkpt lat="50.939753958955407" lon="10.238674012944102">
        <ele>260.17000000000002</ele>
        <time>2017-05-21T11:12:05Z</time>
      </trkpt>
      <trkpt lat="50.939700985327363" lon="10.238853972405195">
        <ele>260.17000000000002</ele>
        <time>2017-05-21T11:12:06Z</time>
      </trkpt>
      <trkpt lat="50.939635019749403" lon="10.239022029563785">
        <ele>260.17000000000002</ele>
        <time>2017-05-21T11:12:07Z</time>
      </trkpt>
      <trkpt lat="50.939565030857921" lon="10.239191008731723">
        <ele>260.64999999999998</ele>
        <time>2017-05-21T11:12:08Z</time>
      </trkpt>
      <trkpt lat="50.93915599398315" lon="10.240374030545354">
        <ele>261.62</ele>
        <time>2017-05-21T11:12:15Z</time>
      </trkpt>
      <trkpt lat="50.939125986769795" lon="10.240557007491589">
        <ele>262.10000000000002</ele>
        <time>2017-05-21T11:12:16Z</time>
      </trkpt>
      <trkpt lat="50.939037976786494" lon="10.242290971800685">
        <ele>264.5</ele>
        <time>2017-05-21T11:12:23Z</time>
      </trkpt>
      <trkpt lat="50.938844019547105" lon="10.245303008705378">
        <ele>270.26999999999998</ele>
        <time>2017-05-21T11:12:34Z</time>
      </trkpt>
      <trkpt lat="50.938787022605538" lon="10.246302969753742">
        <ele>272.67000000000002</ele>
        <time>2017-05-21T11:12:38Z</time>
      </trkpt>
      <trkpt lat="50.938810994848609" lon="10.246544033288956">
        <ele>273.14999999999998</ele>
        <time>2017-05-21T11:12:39Z</time>
      </trkpt>
      <trkpt lat="50.938873020932078" lon="10.246777972206473">
        <ele>274.58999999999997</ele>
        <time>2017-05-21T11:12:40Z</time>
      </trkpt>
      <trkpt lat="50.938960025086999" lon="10.246980981901288">
        <ele>275.56</ele>
        <time>2017-05-21T11:12:41Z</time>
      </trkpt>
      <trkpt lat="50.939077036455274" lon="10.247158007696271">
        <ele>276.51999999999998</ele>
        <time>2017-05-21T11:12:42Z</time>
      </trkpt>
      <trkpt lat="50.93922003172338" lon="10.247296979650855">
        <ele>277.48000000000002</ele>
        <time>2017-05-21T11:12:43Z</time>
      </trkpt>
      <trkpt lat="50.939379958435893" lon="10.24741499684751">
        <ele>278.92000000000002</ele>
        <time>2017-05-21T11:12:44Z</time>
      </trkpt>
      <trkpt lat="50.939551033079624" lon="10.247522033751011">
        <ele>279.88</ele>
        <time>2017-05-21T11:12:45Z</time>
      </trkpt>
      <trkpt lat="50.940088983625174" lon="10.247747004032135">
        <ele>282.76999999999998</ele>
        <time>2017-05-21T11:12:48Z</time>
      </trkpt>
      <trkpt lat="50.940288975834846" lon="10.247749015688896">
        <ele>282.76999999999998</ele>
        <time>2017-05-21T11:12:49Z</time>
      </trkpt>
      <trkpt lat="50.940500032156706" lon="10.247729988768697">
        <ele>283.73000000000002</ele>
        <time>2017-05-21T11:12:50Z</time>
      </trkpt>
      <trkpt lat="50.942247994244099" lon="10.247514992952347">
        <ele>290.94</ele>
        <time>2017-05-21T11:12:58Z</time>
      </trkpt>
      <trkpt lat="50.942425020039082" lon="10.247398987412453">
        <ele>291.42000000000002</ele>
        <time>2017-05-21T11:12:59Z</time>
      </trkpt>
      <trkpt lat="50.942587964236736" lon="10.247234031558037">
        <ele>292.38</ele>
        <time>2017-05-21T11:13:00Z</time>
      </trkpt>
      <trkpt lat="50.942731965333223" lon="10.247017024084926">
        <ele>293.33999999999997</ele>
        <time>2017-05-21T11:13:01Z</time>
      </trkpt>
      <trkpt lat="50.942857023328543" lon="10.246781995519996">
        <ele>294.30000000000001</ele>
        <time>2017-05-21T11:13:02Z</time>
      </trkpt>
      <trkpt lat="50.94321995973587" lon="10.246127033606172">
        <ele>296.22000000000003</ele>
        <time>2017-05-21T11:13:05Z</time>
      </trkpt>
      <trkpt lat="50.943365972489119" lon="10.245929975062609">
        <ele>296.69999999999999</ele>
        <time>2017-05-21T11:13:06Z</time>
      </trkpt>
      <trkpt lat="50.944754015654325" lon="10.244306987151504">
        <ele>300.55000000000001</ele>
        <time>2017-05-21T11:13:14Z</time>
      </trkpt>
      <trkpt lat="50.946599040180445" lon="10.241946978494525">
        <ele>306.31999999999999</ele>
        <time>2017-05-21T11:13:25Z</time>
      </trkpt>
      <trkpt lat="50.947805028408766" lon="10.240394985303283">
        <ele>312.56999999999999</ele>
        <time>2017-05-21T11:13:33Z</time>
      </trkpt>
      <trkpt lat="50.948347002267838" lon="10.239926017820835">
        <ele>315.93000000000001</ele>
        <time>2017-05-21T11:13:37Z</time>
      </trkpt>
      <trkpt lat="50.948482034727931" lon="10.23987103253603">
        <ele>315.44999999999999</ele>
        <time>2017-05-21T11:13:38Z</time>
      </trkpt>
      <trkpt lat="50.948593011125922" lon="10.239824010059237">
        <ele>315.93000000000001</ele>
        <time>2017-05-21T11:13:39Z</time>
      </trkpt>
      <trkpt lat="50.948687978088856" lon="10.239843036979437">
        <ele>316.41000000000003</ele>
        <time>2017-05-21T11:13:40Z</time>
      </trkpt>
      <trkpt lat="50.948771964758635" lon="10.239912020042539">
        <ele>316.88999999999999</ele>
        <time>2017-05-21T11:13:41Z</time>
      </trkpt>
      <trkpt lat="50.948802977800369" lon="10.240051997825503">
        <ele>316.41000000000003</ele>
        <time>2017-05-21T11:13:42Z</time>
      </trkpt>
      <trkpt lat="50.948802977800369" lon="10.240211002528667">
        <ele>316.88999999999999</ele>
        <time>2017-05-21T11:13:43Z</time>
      </trkpt>
      <trkpt lat="50.948769031092525" lon="10.240370007231832">
        <ele>317.37</ele>
        <time>2017-05-21T11:13:44Z</time>
      </trkpt>
      <trkpt lat="50.948705999180675" lon="10.240534963086247">
        <ele>317.37</ele>
        <time>2017-05-21T11:13:45Z</time>
      </trkpt>
      <trkpt lat="50.948602985590696" lon="10.240678964182734">
        <ele>318.32999999999998</ele>
        <time>2017-05-21T11:13:46Z</time>
      </trkpt>
      <trkpt lat="50.948496032506227" lon="10.240838974714279">
        <ele>318.81</ele>
        <time>2017-05-21T11:13:47Z</time>
      </trkpt>
      <trkpt lat="50.947778960689902" lon="10.24204102344811">
        <ele>321.22000000000003</ele>
        <time>2017-05-21T11:13:53Z</time>
      </trkpt>
      <trkpt lat="50.947589026764035" lon="10.242491969838738">
        <ele>321.22000000000003</ele>
        <time>2017-05-21T11:13:55Z</time>
      </trkpt>
      <trkpt lat="50.947499005123973" lon="10.242707971483469">
        <ele>322.18000000000001</ele>
        <time>2017-05-21T11:13:56Z</time>
      </trkpt>
      <trkpt lat="50.947458017617464" lon="10.242932019755244">
        <ele>322.66000000000003</ele>
        <time>2017-05-21T11:13:57Z</time>
      </trkpt>
      <trkpt lat="50.947452988475561" lon="10.243190014734864">
        <ele>324.10000000000002</ele>
        <time>2017-05-21T11:13:58Z</time>
      </trkpt>
      <trkpt lat="50.947475032880902" lon="10.243442980572581">
        <ele>325.06</ele>
        <time>2017-05-21T11:13:59Z</time>
      </trkpt>
      <trkpt lat="50.947533035650849" lon="10.24369603022933">
        <ele>326.01999999999998</ele>
        <time>2017-05-21T11:14:00Z</time>
      </trkpt>
      <trkpt lat="50.947616016492248" lon="10.24395402520895">
        <ele>327.47000000000003</ele>
        <time>2017-05-21T11:14:01Z</time>
      </trkpt>
      <trkpt lat="50.94770897179842" lon="10.244224006310105">
        <ele>328.43000000000001</ele>
        <time>2017-05-21T11:14:02Z</time>
      </trkpt>
      <trkpt lat="50.947947017848492" lon="10.244767991825938">
        <ele>330.35000000000002</ele>
        <time>2017-05-21T11:14:04Z</time>
      </trkpt>
      <trkpt lat="50.94916800968349" lon="10.247030016034842">
        <ele>344.29000000000002</ele>
        <time>2017-05-21T11:14:12Z</time>
      </trkpt>
      <trkpt lat="50.9492970071733" lon="10.247356994077563">
        <ele>344.76999999999998</ele>
        <time>2017-05-21T11:14:13Z</time>
      </trkpt>
      <trkpt lat="50.949981976300478" lon="10.249495971947908">
        <ele>344.29000000000002</ele>
        <time>2017-05-21T11:14:20Z</time>
      </trkpt>
      <trkpt lat="50.950021035969257" lon="10.249794032424688">
        <ele>344.29000000000002</ele>
        <time>2017-05-21T11:14:21Z</time>
      </trkpt>
      <trkpt lat="50.950025981292129" lon="10.250111036002636">
        <ele>344.29000000000002</ele>
        <time>2017-05-21T11:14:22Z</time>
      </trkpt>
      <trkpt lat="50.949997985735536" lon="10.250445976853371">
        <ele>344.29000000000002</ele>
        <time>2017-05-21T11:14:23Z</time>
      </trkpt>
      <trkpt lat="50.949960015714169" lon="10.250781001523137">
        <ele>346.20999999999998</ele>
        <time>2017-05-21T11:14:24Z</time>
      </trkpt>
      <trkpt lat="50.94992003403604" lon="10.251460019499063">
        <ele>348.62</ele>
        <time>2017-05-21T11:14:26Z</time>
      </trkpt>
      <trkpt lat="50.949950963258743" lon="10.25177501142025">
        <ele>350.06</ele>
        <time>2017-05-21T11:14:27Z</time>
      </trkpt>
      <trkpt lat="50.950021035969257" lon="10.252080028876662">
        <ele>351.98000000000002</ele>
        <time>2017-05-21T11:14:28Z</time>
      </trkpt>
      <trkpt lat="50.950125977396965" lon="10.252386974170804">
        <ele>353.42000000000002</ele>
        <time>2017-05-21T11:14:29Z</time>
      </trkpt>
      <trkpt lat="50.950238965451717" lon="10.2526980265975">
        <ele>354.86000000000001</ele>
        <time>2017-05-21T11:14:30Z</time>
      </trkpt>
      <trkpt lat="50.950697036460042" lon="10.253746015951037">
        <ele>359.67000000000002</ele>
        <time>2017-05-21T11:14:34Z</time>
      </trkpt>
      <trkpt lat="50.950847994536161" lon="10.253904014825821">
        <ele>360.63</ele>
        <time>2017-05-21T11:14:35Z</time>
      </trkpt>
      <trkpt lat="50.951020997017622" lon="10.254019014537334">
        <ele>361.11000000000001</ele>
        <time>2017-05-21T11:14:36Z</time>
      </trkpt>
      <trkpt lat="50.952073009684682" lon="10.254492005333304">
        <ele>365.44</ele>
        <time>2017-05-21T11:14:41Z</time>
      </trkpt>
      <trkpt lat="50.952626969665289" lon="10.254750000312924">
        <ele>366.88</ele>
        <time>2017-05-21T11:14:44Z</time>
      </trkpt>
      <trkpt lat="50.953663978725672" lon="10.255589028820395">
        <ele>369.75999999999999</ele>
        <time>2017-05-21T11:14:50Z</time>
      </trkpt>
      <trkpt lat="50.954825039952993" lon="10.256784036755562">
        <ele>365.92000000000002</ele>
        <time>2017-05-21T11:14:57Z</time>
      </trkpt>
      <trkpt lat="50.955622997134924" lon="10.258198985829949">
        <ele>360.63</ele>
        <time>2017-05-21T11:15:03Z</time>
      </trkpt>
      <trkpt lat="50.955976964905858" lon="10.258639035746455">
        <ele>358.23000000000002</ele>
        <time>2017-05-21T11:15:07Z</time>
      </trkpt>
      <trkpt lat="50.956056006252766" lon="10.258682034909725">
        <ele>358.70999999999998</ele>
        <time>2017-05-21T11:15:08Z</time>
      </trkpt>
      <trkpt lat="50.956134041771293" lon="10.258666025474668">
        <ele>358.23000000000002</ele>
        <time>2017-05-21T11:15:09Z</time>
      </trkpt>
      <trkpt lat="50.956204030662775" lon="10.258592013269663">
        <ele>357.75</ele>
        <time>2017-05-21T11:15:10Z</time>
      </trkpt>
      <trkpt lat="50.95625901594758" lon="10.258471984416246">
        <ele>356.79000000000002</ele>
        <time>2017-05-21T11:15:11Z</time>
      </trkpt>
      <trkpt lat="50.956279970705509" lon="10.258307028561831">
        <ele>356.79000000000002</ele>
        <time>2017-05-21T11:15:12Z</time>
      </trkpt>
      <trkpt lat="50.956277037039399" lon="10.258118016645312">
        <ele>355.82999999999998</ele>
        <time>2017-05-21T11:15:13Z</time>
      </trkpt>
      <trkpt lat="50.956253986805677" lon="10.257920036092401">
        <ele>355.82999999999998</ele>
        <time>2017-05-21T11:15:14Z</time>
      </trkpt>
      <trkpt lat="50.956220962107182" lon="10.257722977548838">
        <ele>354.86000000000001</ele>
        <time>2017-05-21T11:15:15Z</time>
      </trkpt>
      <trkpt lat="50.956188021227717" lon="10.257515022531152">
        <ele>353.89999999999998</ele>
        <time>2017-05-21T11:15:16Z</time>
      </trkpt>
      <trkpt lat="50.956115014851093" lon="10.256883027032018">
        <ele>351.5</ele>
        <time>2017-05-21T11:15:19Z</time>
      </trkpt>
      <trkpt lat="50.956128006801009" lon="10.256696026772261">
        <ele>351.01999999999998</ele>
        <time>2017-05-21T11:15:20Z</time>
      </trkpt>
      <trkpt lat="50.956180980429053" lon="10.256540961563587">
        <ele>350.06</ele>
        <time>2017-05-21T11:15:21Z</time>
      </trkpt>
      <trkpt lat="50.956249041482806" lon="10.256417999044061">
        <ele>349.57999999999998</ele>
        <time>2017-05-21T11:15:22Z</time>
      </trkpt>
      <trkpt lat="50.956334033980966" lon="10.256374999880791">
        <ele>349.10000000000002</ele>
        <time>2017-05-21T11:15:23Z</time>
      </trkpt>
      <trkpt lat="50.956445010378957" lon="10.256395032629371">
        <ele>348.62</ele>
        <time>2017-05-21T11:15:24Z</time>
      </trkpt>
      <trkpt lat="50.956563027575612" lon="10.256464015692472">
        <ele>348.62</ele>
        <time>2017-05-21T11:15:25Z</time>
      </trkpt>
      <trkpt lat="50.956664029508829" lon="10.256597036495805">
        <ele>348.62</ele>
        <time>2017-05-21T11:15:26Z</time>
      </trkpt>
      <trkpt lat="50.956764025613666" lon="10.256770038977265">
        <ele>347.64999999999998</ele>
        <time>2017-05-21T11:15:27Z</time>
      </trkpt>
      <trkpt lat="50.956852035596967" lon="10.25697598233819">
        <ele>344.29000000000002</ele>
        <time>2017-05-21T11:15:28Z</time>
      </trkpt>
      <trkpt lat="50.957085974514484" lon="10.257388958707452">
        <ele>342.37</ele>
        <time>2017-05-21T11:15:30Z</time>
      </trkpt>
      <trkpt lat="50.958274025470018" lon="10.258755041286349">
        <ele>334.19999999999999</ele>
        <time>2017-05-21T11:15:38Z</time>
      </trkpt>
      <trkpt lat="50.958431018516421" lon="10.258833998814225">
        <ele>333.23000000000002</ele>
        <time>2017-05-21T11:15:39Z</time>
      </trkpt>
      <trkpt lat="50.958582982420921" lon="10.258911028504372">
        <ele>332.75</ele>
        <time>2017-05-21T11:15:40Z</time>
      </trkpt>
      <trkpt lat="50.958733018487692" lon="10.2589510101825">
        <ele>331.79000000000002</ele>
        <time>2017-05-21T11:15:41Z</time>
      </trkpt>
      <trkpt lat="50.958877019584179" lon="10.258957967162132">
        <ele>331.31</ele>
        <time>2017-05-21T11:15:42Z</time>
      </trkpt>
      <trkpt lat="50.959012974053621" lon="10.258942963555455">
        <ele>330.35000000000002</ele>
        <time>2017-05-21T11:15:43Z</time>
      </trkpt>
      <trkpt lat="50.959162004292011" lon="10.258956961333752">
        <ele>328.91000000000003</ele>
        <time>2017-05-21T11:15:44Z</time>
      </trkpt>
      <trkpt lat="50.959320003166795" lon="10.259036002680659">
        <ele>328.43000000000001</ele>
        <time>2017-05-21T11:15:45Z</time>
      </trkpt>
      <trkpt lat="50.959597025066614" lon="10.2592100109905">
        <ele>327.47000000000003</ele>
        <time>2017-05-21T11:15:47Z</time>
      </trkpt>
      <trkpt lat="50.959733985364437" lon="10.259249992668629">
        <ele>326.99000000000001</ele>
        <time>2017-05-21T11:15:48Z</time>
      </trkpt>
      <trkpt lat="50.959862982854247" lon="10.259239012375474">
        <ele>325.54000000000002</ele>
        <time>2017-05-21T11:15:49Z</time>
      </trkpt>
      <trkpt lat="50.959988962858915" lon="10.259204981848598">
        <ele>324.57999999999998</ele>
        <time>2017-05-21T11:15:50Z</time>
      </trkpt>
      <trkpt lat="50.960101028904319" lon="10.259098028764129">
        <ele>321.69999999999999</ele>
        <time>2017-05-21T11:15:51Z</time>
      </trkpt>
      <trkpt lat="50.960203958675265" lon="10.258972970768809">
        <ele>320.25999999999999</ele>
        <time>2017-05-21T11:15:52Z</time>
      </trkpt>
      <trkpt lat="50.96029800362885" lon="10.258827041834593">
        <ele>319.30000000000001</ele>
        <time>2017-05-21T11:15:53Z</time>
      </trkpt>
      <trkpt lat="50.960387019440532" lon="10.25865102186799">
        <ele>319.30000000000001</ele>
        <time>2017-05-21T11:15:54Z</time>
      </trkpt>
      <trkpt lat="50.960464971140027" lon="10.258467039093375">
        <ele>318.32999999999998</ele>
        <time>2017-05-21T11:15:55Z</time>
      </trkpt>
      <trkpt lat="50.960580976679921" lon="10.258082980290055">
        <ele>317.37</ele>
        <time>2017-05-21T11:15:57Z</time>
      </trkpt>
      <trkpt lat="50.960706034675241" lon="10.257159965112805">
        <ele>311.60000000000002</ele>
        <time>2017-05-21T11:16:02Z</time>
      </trkpt>
      <trkpt lat="50.960755990818143" lon="10.257037002593279">
        <ele>310.63999999999999</ele>
        <time>2017-05-21T11:16:03Z</time>
      </trkpt>
      <trkpt lat="50.960907032713294" lon="10.256923008710146">
        <ele>308.72000000000003</ele>
        <time>2017-05-21T11:16:05Z</time>
      </trkpt>
      <trkpt lat="50.960959000512958" lon="10.256978999823332">
        <ele>307.27999999999997</ele>
        <time>2017-05-21T11:16:06Z</time>
      </trkpt>
      <trkpt lat="50.96102898940444" lon="10.257084025070071">
        <ele>306.31999999999999</ele>
        <time>2017-05-21T11:16:07Z</time>
      </trkpt>
      <trkpt lat="50.96107198856771" lon="10.257235988974571">
        <ele>304.88</ele>
        <time>2017-05-21T11:16:08Z</time>
      </trkpt>
      <trkpt lat="50.961124040186405" lon="10.257414020597935">
        <ele>304.38999999999999</ele>
        <time>2017-05-21T11:16:09Z</time>
      </trkpt>
      <trkpt lat="50.961158992722631" lon="10.257624993100762">
        <ele>303.91000000000003</ele>
        <time>2017-05-21T11:16:10Z</time>
      </trkpt>
      <trkpt lat="50.961196040734649" lon="10.257854992523789">
        <ele>303.43000000000001</ele>
        <time>2017-05-21T11:16:11Z</time>
      </trkpt>
      <trkpt lat="50.961366025730968" lon="10.25908101350069">
        <ele>300.06999999999999</ele>
        <time>2017-05-21T11:16:16Z</time>
      </trkpt>
      <trkpt lat="50.961363008245826" lon="10.259326016530395">
        <ele>299.11000000000001</ele>
        <time>2017-05-21T11:16:17Z</time>
      </trkpt>
      <trkpt lat="50.961331995204091" lon="10.25957596488297">
        <ele>298.63</ele>
        <time>2017-05-21T11:16:18Z</time>
      </trkpt>
      <trkpt lat="50.961274998262525" lon="10.259883999824524">
        <ele>299.11000000000001</ele>
        <time>2017-05-21T11:16:19Z</time>
      </trkpt>
      <trkpt lat="50.961209032684565" lon="10.260164961218834">
        <ele>298.63</ele>
        <time>2017-05-21T11:16:20Z</time>
      </trkpt>
      <trkpt lat="50.960692958906293" lon="10.261822985485196">
        <ele>294.30000000000001</ele>
        <time>2017-05-21T11:16:25Z</time>
      </trkpt>
      <trkpt lat="50.960054006427526" lon="10.263812011107802">
        <ele>290.45999999999998</ele>
        <time>2017-05-21T11:16:31Z</time>
      </trkpt>
      <trkpt lat="50.960002038627863" lon="10.264093978330493">
        <ele>290.45999999999998</ele>
        <time>2017-05-21T11:16:32Z</time>
      </trkpt>
      <trkpt lat="50.959959961473942" lon="10.264365971088409">
        <ele>289.97000000000003</ele>
        <time>2017-05-21T11:16:33Z</time>
      </trkpt>
      <trkpt lat="50.959939006716013" lon="10.264641987159848">
        <ele>289.97000000000003</ele>
        <time>2017-05-21T11:16:34Z</time>
      </trkpt>
      <trkpt lat="50.959932971745729" lon="10.264909034594893">
        <ele>289.49000000000001</ele>
        <time>2017-05-21T11:16:35Z</time>
      </trkpt>
      <trkpt lat="50.959936995059252" lon="10.265172980725765">
        <ele>288.05000000000001</ele>
        <time>2017-05-21T11:16:36Z</time>
      </trkpt>
      <trkpt lat="50.959973037242889" lon="10.265696011483669">
        <ele>285.64999999999998</ele>
        <time>2017-05-21T11:16:38Z</time>
      </trkpt>
      <trkpt lat="50.960032967850566" lon="10.265969010069966">
        <ele>285.64999999999998</ele>
        <time>2017-05-21T11:16:39Z</time>
      </trkpt>
      <trkpt lat="50.960107985883951" lon="10.266250977292657">
        <ele>285.64999999999998</ele>
        <time>2017-05-21T11:16:40Z</time>
      </trkpt>
      <trkpt lat="50.960730006918311" lon="10.268183005973697">
        <ele>284.20999999999998</ele>
        <time>2017-05-21T11:16:47Z</time>
      </trkpt>
      <trkpt lat="50.961205009371042" lon="10.269924011081457">
        <ele>279.39999999999998</ele>
        <time>2017-05-21T11:16:54Z</time>
      </trkpt>
      <trkpt lat="50.961334006860852" lon="10.271859979256988">
        <ele>272.19</ele>
        <time>2017-05-21T11:17:01Z</time>
      </trkpt>
      <trkpt lat="50.961408019065857" lon="10.2740110270679">
        <ele>270.26999999999998</ele>
        <time>2017-05-21T11:17:08Z</time>
      </trkpt>
      <trkpt lat="50.961733991280198" lon="10.275616999715567">
        <ele>269.79000000000002</ele>
        <time>2017-05-21T11:17:15Z</time>
      </trkpt>
      <trkpt lat="50.961834993213415" lon="10.275799976661801">
        <ele>269.79000000000002</ele>
        <time>2017-05-21T11:17:16Z</time>
      </trkpt>
      <trkpt lat="50.961973965167999" lon="10.275985971093178">
        <ele>268.82999999999998</ele>
        <time>2017-05-21T11:17:17Z</time>
      </trkpt>
      <trkpt lat="50.962956994771957" lon="10.277097998186946">
        <ele>265.94</ele>
        <time>2017-05-21T11:17:23Z</time>
      </trkpt>
      <trkpt lat="50.963225970044732" lon="10.277333026751876">
        <ele>264.98000000000002</ele>
        <time>2017-05-21T11:17:25Z</time>
      </trkpt>
      <trkpt lat="50.963747994974256" lon="10.277567971497774">
        <ele>263.54000000000002</ele>
        <time>2017-05-21T11:17:28Z</time>
      </trkpt>
      <trkpt lat="50.964876031503081" lon="10.277887992560863">
        <ele>258.73000000000002</ele>
        <time>2017-05-21T11:17:35Z</time>
      </trkpt>
      <trkpt lat="50.965165039524436" lon="10.278150010854006">
        <ele>257.76999999999998</ele>
        <time>2017-05-21T11:17:37Z</time>
      </trkpt>
      <trkpt lat="50.965311974287033" lon="10.278359977528453">
        <ele>257.29000000000002</ele>
        <time>2017-05-21T11:17:38Z</time>
      </trkpt>
      <trkpt lat="50.965464022010565" lon="10.27863297611475">
        <ele>256.81</ele>
        <time>2017-05-21T11:17:39Z</time>
      </trkpt>
      <trkpt lat="50.96558203920722" lon="10.278984010219574">
        <ele>256.32999999999998</ele>
        <time>2017-05-21T11:17:40Z</time>
      </trkpt>
      <trkpt lat="50.965694021433592" lon="10.279347030445933">
        <ele>255.84999999999999</ele>
        <time>2017-05-21T11:17:41Z</time>
      </trkpt>
      <trkpt lat="50.965779013931751" lon="10.279702004045248">
        <ele>256.32999999999998</ele>
        <time>2017-05-21T11:17:42Z</time>
      </trkpt>
      <trkpt lat="50.965825030580163" lon="10.280026970431209">
        <ele>255.84999999999999</ele>
        <time>2017-05-21T11:17:43Z</time>
      </trkpt>
      <trkpt lat="50.965831987559795" lon="10.280331987887621">
        <ele>255.84999999999999</ele>
        <time>2017-05-21T11:17:44Z</time>
      </trkpt>
      <trkpt lat="50.965816983953118" lon="10.280633987858891">
        <ele>255.84999999999999</ele>
        <time>2017-05-21T11:17:45Z</time>
      </trkpt>
      <trkpt lat="50.965800974518061" lon="10.280956020578742">
        <ele>255.84999999999999</ele>
        <time>2017-05-21T11:17:46Z</time>
      </trkpt>
      <trkpt lat="50.965599976480007" lon="10.283553991466761">
        <ele>255.84999999999999</ele>
        <time>2017-05-21T11:17:53Z</time>
      </trkpt>
      <trkpt lat="50.965399984270334" lon="10.285954987630248">
        <ele>252.47999999999999</ele>
        <time>2017-05-21T11:18:00Z</time>
      </trkpt>
      <trkpt lat="50.965321026742458" lon="10.288690002635121">
        <ele>250.56</ele>
        <time>2017-05-21T11:18:09Z</time>
      </trkpt>
      <trkpt lat="50.96547500230372" lon="10.290206959471107">
        <ele>249.12</ele>
        <time>2017-05-21T11:18:15Z</time>
      </trkpt>
      <trkpt lat="50.965568963438272" lon="10.290465960279107">
        <ele>247.19999999999999</ele>
        <time>2017-05-21T11:18:16Z</time>
      </trkpt>
      <trkpt lat="50.965674994513392" lon="10.290715992450714">
        <ele>246.72</ele>
        <time>2017-05-21T11:18:17Z</time>
      </trkpt>
      <trkpt lat="50.966363986954093" lon="10.29236102476716">
        <ele>240.94999999999999</ele>
        <time>2017-05-21T11:18:24Z</time>
      </trkpt>
      <trkpt lat="50.966424001380801" lon="10.292638968676329">
        <ele>240.47</ele>
        <time>2017-05-21T11:18:25Z</time>
      </trkpt>
      <trkpt lat="50.966473035514355" lon="10.292924959212542">
        <ele>239.99000000000001</ele>
        <time>2017-05-21T11:18:26Z</time>
      </trkpt>
      <trkpt lat="50.966750979423523" lon="10.295054968446493">
        <ele>234.69999999999999</ele>
        <time>2017-05-21T11:18:34Z</time>
      </trkpt>
      <trkpt lat="50.966824991628528" lon="10.295285973697901">
        <ele>234.69999999999999</ele>
        <time>2017-05-21T11:18:35Z</time>
      </trkpt>
      <trkpt lat="50.966920964419842" lon="10.295507004484534">
        <ele>235.18000000000001</ele>
        <time>2017-05-21T11:18:36Z</time>
      </trkpt>
      <trkpt lat="50.967024983838201" lon="10.295718982815742">
        <ele>235.18000000000001</ele>
        <time>2017-05-21T11:18:37Z</time>
      </trkpt>
      <trkpt lat="50.967146018519998" lon="10.295912018045783">
        <ele>236.62</ele>
        <time>2017-05-21T11:18:38Z</time>
      </trkpt>
      <trkpt lat="50.967269986867905" lon="10.296088960021734">
        <ele>237.09999999999999</ele>
        <time>2017-05-21T11:18:39Z</time>
      </trkpt>
      <trkpt lat="50.967393033206463" lon="10.29625098221004">
        <ele>237.09999999999999</ele>
        <time>2017-05-21T11:18:40Z</time>
      </trkpt>
      <trkpt lat="50.967543991282582" lon="10.296405041590333">
        <ele>237.09999999999999</ele>
        <time>2017-05-21T11:18:41Z</time>
      </trkpt>
      <trkpt lat="50.968802031129599" lon="10.297478009015322">
        <ele>236.62</ele>
        <time>2017-05-21T11:18:49Z</time>
      </trkpt>
      <trkpt lat="50.968987019732594" lon="10.297540035098791">
        <ele>236.62</ele>
        <time>2017-05-21T11:18:50Z</time>
      </trkpt>
      <trkpt lat="50.970477992668748" lon="10.297932978719473">
        <ele>237.58000000000001</ele>
        <time>2017-05-21T11:18:59Z</time>
      </trkpt>
      <trkpt lat="50.971001023426652" lon="10.298274038359523">
        <ele>237.09999999999999</ele>
        <time>2017-05-21T11:19:03Z</time>
      </trkpt>
      <trkpt lat="50.971076963469386" lon="10.298373028635979">
        <ele>236.62</ele>
        <time>2017-05-21T11:19:04Z</time>
      </trkpt>
      <trkpt lat="50.971133038401604" lon="10.298473024740815">
        <ele>236.62</ele>
        <time>2017-05-21T11:19:05Z</time>
      </trkpt>
      <trkpt lat="50.971292965114117" lon="10.298774018883705">
        <ele>235.66</ele>
        <time>2017-05-21T11:19:10Z</time>
      </trkpt>
      <trkpt lat="50.971230017021298" lon="10.299242986366153">
        <ele>236.13999999999999</ele>
        <time>2017-05-21T11:19:12Z</time>
      </trkpt>
      <trkpt lat="50.971301011741161" lon="10.299444990232587">
        <ele>236.13999999999999</ele>
        <time>2017-05-21T11:19:13Z</time>
      </trkpt>
      <trkpt lat="50.971315009519458" lon="10.299606006592512">
        <ele>236.13999999999999</ele>
        <time>2017-05-21T11:19:14Z</time>
      </trkpt>
      <trkpt lat="50.972242970019579" lon="10.300340009853244">
        <ele>235.18000000000001</ele>
        <time>2017-05-21T11:19:24Z</time>
      </trkpt>
      <trkpt lat="50.973479971289635" lon="10.301176020875573">
        <ele>229.41</ele>
        <time>2017-05-21T11:19:39Z</time>
      </trkpt>
      <trkpt lat="50.974798025563359" lon="10.301699973642826">
        <ele>228.44999999999999</ele>
        <time>2017-05-21T11:19:52Z</time>
      </trkpt>
      <trkpt lat="50.974899027496576" lon="10.301760993897915">
        <ele>227.97</ele>
        <time>2017-05-21T11:19:53Z</time>
      </trkpt>
      <trkpt lat="50.974996006116271" lon="10.301841963082552">
        <ele>227.97</ele>
        <time>2017-05-21T11:19:54Z</time>
      </trkpt>
      <trkpt lat="50.97617500461638" lon="10.302951978519559">
        <ele>226.53</ele>
        <time>2017-05-21T11:20:06Z</time>
      </trkpt>
      <trkpt lat="50.977159040048718" lon="10.303821014240384">
        <ele>223.16</ele>
        <time>2017-05-21T11:20:16Z</time>
      </trkpt>
      <trkpt lat="50.977475959807634" lon="10.304093006998301">
        <ele>222.19999999999999</ele>
        <time>2017-05-21T11:20:23Z</time>
      </trkpt>
      <trkpt lat="50.977510996162891" lon="10.304111028090119">
        <ele>220.75999999999999</ele>
        <time>2017-05-21T11:20:36Z</time>
      </trkpt>
      <trkpt lat="50.977731021121144" lon="10.304316971451044">
        <ele>218.84</ele>
        <time>2017-05-21T11:20:57Z</time>
      </trkpt>
      <trkpt lat="50.978017011657357" lon="10.304720979183912">
        <ele>217.88</ele>
        <time>2017-05-21T11:21:03Z</time>
      </trkpt>
      <trkpt lat="50.978069985285401" lon="10.304747968912125">
        <ele>217.40000000000001</ele>
        <time>2017-05-21T11:21:04Z</time>
      </trkpt>
      <trkpt lat="50.978124970570207" lon="10.304749980568886">
        <ele>217.40000000000001</ele>
        <time>2017-05-21T11:21:05Z</time>
      </trkpt>
      <trkpt lat="50.978179033845663" lon="10.304713016375899">
        <ele>216.91</ele>
        <time>2017-05-21T11:21:06Z</time>
      </trkpt>
      <trkpt lat="50.978240976110101" lon="10.304659036919475">
        <ele>216.43000000000001</ele>
        <time>2017-05-21T11:21:07Z</time>
      </trkpt>
      <trkpt lat="50.97843199968338" lon="10.304487040266395">
        <ele>215.94999999999999</ele>
        <time>2017-05-21T11:21:10Z</time>
      </trkpt>
      <trkpt lat="50.978917982429266" lon="10.303913969546556">
        <ele>213.06999999999999</ele>
        <time>2017-05-21T11:21:18Z</time>
      </trkpt>
      <trkpt lat="50.978967016562819" lon="10.303910030052066">
        <ele>213.06999999999999</ele>
        <time>2017-05-21T11:21:19Z</time>
      </trkpt>
      <trkpt lat="50.978998029604554" lon="10.303973983973265">
        <ele>213.06999999999999</ele>
        <time>2017-05-21T11:21:20Z</time>
      </trkpt>
      <trkpt lat="50.979028036817908" lon="10.304082026705146">
        <ele>213.06999999999999</ele>
        <time>2017-05-21T11:21:21Z</time>
      </trkpt>
      <trkpt lat="50.979047985747457" lon="10.304205995053053">
        <ele>212.59</ele>
        <time>2017-05-21T11:21:22Z</time>
      </trkpt>
      <trkpt lat="50.979060977697372" lon="10.304352007806301">
        <ele>213.06999999999999</ele>
        <time>2017-05-21T11:21:23Z</time>
      </trkpt>
      <trkpt lat="50.979073969647288" lon="10.304507995024323">
        <ele>213.55000000000001</ele>
        <time>2017-05-21T11:21:24Z</time>
      </trkpt>
      <trkpt lat="50.979188969358802" lon="10.306702964007854">
        <ele>211.63</ele>
        <time>2017-05-21T11:21:36Z</time>
      </trkpt>
      <trkpt lat="50.979397008195519" lon="10.310056982561946">
        <ele>209.69999999999999</ele>
        <time>2017-05-21T11:21:54Z</time>
      </trkpt>
      <trkpt lat="50.979590965434909" lon="10.313299018889666">
        <ele>207.78</ele>
        <time>2017-05-21T11:22:11Z</time>
      </trkpt>
      <trkpt lat="50.979646034538746" lon="10.314134024083614">
        <ele>207.78</ele>
        <time>2017-05-21T11:22:18Z</time>
      </trkpt>
      <trkpt lat="50.979660032317042" lon="10.314352959394455">
        <ele>206.81999999999999</ele>
        <time>2017-05-21T11:22:27Z</time>
      </trkpt>
      <trkpt lat="50.979690961539745" lon="10.31472796574235">
        <ele>208.74000000000001</ele>
        <time>2017-05-21T11:23:12Z</time>
      </trkpt>
      <trkpt lat="50.979784000664949" lon="10.316107962280512">
        <ele>211.15000000000001</ele>
        <time>2017-05-21T11:23:20Z</time>
      </trkpt>
      <trkpt lat="50.979901012033224" lon="10.318075027316809">
        <ele>212.59</ele>
        <time>2017-05-21T11:23:31Z</time>
      </trkpt>
      <trkpt lat="50.979907969012856" lon="10.31857400201261">
        <ele>213.06999999999999</ele>
        <time>2017-05-21T11:23:40Z</time>
      </trkpt>
      <trkpt lat="50.979926995933056" lon="10.319234998896718">
        <ele>214.50999999999999</ele>
        <time>2017-05-21T11:23:46Z</time>
      </trkpt>
      <trkpt lat="50.979868993163109" lon="10.321296025067568">
        <ele>214.50999999999999</ele>
        <time>2017-05-21T11:23:57Z</time>
      </trkpt>
      <trkpt lat="50.979791041463614" lon="10.322262039408088">
        <ele>213.06999999999999</ele>
        <time>2017-05-21T11:24:04Z</time>
      </trkpt>
      <trkpt lat="50.979748964309692" lon="10.322605026885867">
        <ele>211.15000000000001</ele>
        <time>2017-05-21T11:24:13Z</time>
      </trkpt>
      <trkpt lat="50.979718035086989" lon="10.322828991338611">
        <ele>210.19</ele>
        <time>2017-05-21T11:24:59Z</time>
      </trkpt>
      <trkpt lat="50.979537991806865" lon="10.324231032282114">
        <ele>210.19</ele>
        <time>2017-05-21T11:25:09Z</time>
      </trkpt>
      <trkpt lat="50.979081010445952" lon="10.326725989580154">
        <ele>211.15000000000001</ele>
        <time>2017-05-21T11:25:23Z</time>
      </trkpt>
      <trkpt lat="50.978380031883717" lon="10.329280961304903">
        <ele>209.22</ele>
        <time>2017-05-21T11:25:39Z</time>
      </trkpt>
      <trkpt lat="50.978017011657357" lon="10.330556016415358">
        <ele>208.25999999999999</ele>
        <time>2017-05-21T11:25:50Z</time>
      </trkpt>
      <trkpt lat="50.977968983352184" lon="10.330776963382959">
        <ele>209.22</ele>
        <time>2017-05-21T11:25:52Z</time>
      </trkpt>
      <trkpt lat="50.977607974782586" lon="10.332113038748503">
        <ele>210.19</ele>
        <time>2017-05-21T11:26:02Z</time>
      </trkpt>
      <trkpt lat="50.977351991459727" lon="10.333896959200501">
        <ele>211.63</ele>
        <time>2017-05-21T11:26:14Z</time>
      </trkpt>
      <trkpt lat="50.977315027266741" lon="10.33404397778213">
        <ele>212.11000000000001</ele>
        <time>2017-05-21T11:26:15Z</time>
      </trkpt>
      <trkpt lat="50.976908002048731" lon="10.335464039817452">
        <ele>212.11000000000001</ele>
        <time>2017-05-21T11:26:27Z</time>
      </trkpt>
      <trkpt lat="50.976849999278784" lon="10.335750030353665">
        <ele>212.59</ele>
        <time>2017-05-21T11:26:31Z</time>
      </trkpt>
      <trkpt lat="50.976853016763926" lon="10.335825970396399">
        <ele>212.59</ele>
        <time>2017-05-21T11:26:32Z</time>
      </trkpt>
      <trkpt lat="50.976872965693474" lon="10.335905011743307">
        <ele>212.59</ele>
        <time>2017-05-21T11:26:33Z</time>
      </trkpt>
      <trkpt lat="50.976952007040381" lon="10.336197959259152">
        <ele>212.11000000000001</ele>
        <time>2017-05-21T11:26:36Z</time>
      </trkpt>
      <trkpt lat="50.977284014225006" lon="10.337823964655399">
        <ele>212.11000000000001</ele>
        <time>2017-05-21T11:26:48Z</time>
      </trkpt>
      <trkpt lat="50.977307986468077" lon="10.337958997115493">
        <ele>212.11000000000001</ele>
        <time>2017-05-21T11:26:49Z</time>
      </trkpt>
      <trkpt lat="50.977652985602617" lon="10.33964803442359">
        <ele>214.99000000000001</ele>
        <time>2017-05-21T11:27:01Z</time>
      </trkpt>
      <trkpt lat="50.978080965578556" lon="10.341966971755028">
        <ele>217.88</ele>
        <time>2017-05-21T11:27:17Z</time>
      </trkpt>
      <trkpt lat="50.978490002453327" lon="10.343492981046438">
        <ele>221.24000000000001</ele>
        <time>2017-05-21T11:27:28Z</time>
      </trkpt>
      <trkpt lat="50.978651018813252" lon="10.343840997666121">
        <ele>222.68000000000001</ele>
        <time>2017-05-21T11:27:31Z</time>
      </trkpt>
      <trkpt lat="50.978712039068341" lon="10.343939987942576">
        <ele>223.16</ele>
        <time>2017-05-21T11:27:32Z</time>
      </trkpt>
      <trkpt lat="50.978778004646301" lon="10.344034032896161">
        <ele>222.68000000000001</ele>
        <time>2017-05-21T11:27:33Z</time>
      </trkpt>
      <trkpt lat="50.978854028508067" lon="10.34411801956594">
        <ele>222.68000000000001</ele>
        <time>2017-05-21T11:27:34Z</time>
      </trkpt>
      <trkpt lat="50.978936003521085" lon="10.344196977093816">
        <ele>223.16</ele>
        <time>2017-05-21T11:27:35Z</time>
      </trkpt>
      <trkpt lat="50.979605969041586" lon="10.344909019768238">
        <ele>222.19999999999999</ele>
        <time>2017-05-21T11:27:45Z</time>
      </trkpt>
      <trkpt lat="50.979647962376475" lon="10.344939026981592">
        <ele>222.19999999999999</ele>
        <time>2017-05-21T11:27:56Z</time>
      </trkpt>
      <trkpt lat="50.979867987334728" lon="10.34512803889811">
        <ele>221.24000000000001</ele>
        <time>2017-05-21T11:28:06Z</time>
      </trkpt>
      <trkpt lat="50.979952979832888" lon="10.34523599781096">
        <ele>221.24000000000001</ele>
        <time>2017-05-21T11:28:08Z</time>
      </trkpt>
      <trkpt lat="50.980010982602835" lon="10.345284026116133">
        <ele>220.75999999999999</ele>
        <time>2017-05-21T11:28:09Z</time>
      </trkpt>
      <trkpt lat="50.980696035549045" lon="10.345976036041975">
        <ele>218.84</ele>
        <time>2017-05-21T11:28:17Z</time>
      </trkpt>
      <trkpt lat="50.98079401999712" lon="10.346107967197895">
        <ele>219.31999999999999</ele>
        <time>2017-05-21T11:28:18Z</time>
      </trkpt>
      <trkpt lat="50.980882029980421" lon="10.34624501131475">
        <ele>219.31999999999999</ele>
        <time>2017-05-21T11:28:19Z</time>
      </trkpt>
      <trkpt lat="50.980955036357045" lon="10.346366968005896">
        <ele>219.31999999999999</ele>
        <time>2017-05-21T11:28:20Z</time>
      </trkpt>
      <trkpt lat="50.981046985834837" lon="10.346563020721078">
        <ele>219.31999999999999</ele>
        <time>2017-05-21T11:28:24Z</time>
      </trkpt>
      <trkpt lat="50.981072969734669" lon="10.346585987135768">
        <ele>219.31999999999999</ele>
        <time>2017-05-21T11:28:30Z</time>
      </trkpt>
      <trkpt lat="50.981089984998107" lon="10.346519015729427">
        <ele>217.88</ele>
        <time>2017-05-21T11:28:40Z</time>
      </trkpt>
      <trkpt lat="50.981087973341346" lon="10.346523961052299">
        <ele>216.43000000000001</ele>
        <time>2017-05-21T11:29:08Z</time>
      </trkpt>
      <trkpt lat="50.981086967512965" lon="10.346522033214569">
        <ele>216.91</ele>
        <time>2017-05-21T11:31:03Z</time>
      </trkpt>
      <trkpt lat="50.981085961684585" lon="10.346518009901047">
        <ele>216.91</ele>
        <time>2017-05-21T11:32:55Z</time>
      </trkpt>
      <trkpt lat="50.981084033846855" lon="10.346515998244286">
        <ele>216.91</ele>
        <time>2017-05-21T11:34:42Z</time>
      </trkpt>
      <trkpt lat="50.981084033846855" lon="10.346512980759144">
        <ele>216.91</ele>
        <time>2017-05-21T11:35:13Z</time>
      </trkpt>
      <trkpt lat="50.981045980006456" lon="10.346669973805547">
        <ele>216.43000000000001</ele>
        <time>2017-05-21T11:35:17Z</time>
      </trkpt>
      <trkpt lat="50.981071963906288" lon="10.346769969910383">
        <ele>216.43000000000001</ele>
        <time>2017-05-21T11:35:18Z</time>
      </trkpt>
      <trkpt lat="50.981105994433165" lon="10.346892010420561">
        <ele>216.43000000000001</ele>
        <time>2017-05-21T11:35:19Z</time>
      </trkpt>
      <trkpt lat="50.981133989989758" lon="10.347025031223893">
        <ele>216.91</ele>
        <time>2017-05-21T11:35:20Z</time>
      </trkpt>
      <trkpt lat="50.981162991374731" lon="10.347168026492">
        <ele>216.91</ele>
        <time>2017-05-21T11:35:21Z</time>
      </trkpt>
      <trkpt lat="50.981186963617802" lon="10.347328959032893">
        <ele>216.91</ele>
        <time>2017-05-21T11:35:22Z</time>
      </trkpt>
      <trkpt lat="50.981201967224479" lon="10.347503973171115">
        <ele>216.91</ele>
        <time>2017-05-21T11:35:23Z</time>
      </trkpt>
      <trkpt lat="50.981211019679904" lon="10.347687033936381">
        <ele>216.91</ele>
        <time>2017-05-21T11:35:24Z</time>
      </trkpt>
      <trkpt lat="50.981208002194762" lon="10.347872022539377">
        <ele>216.91</ele>
        <time>2017-05-21T11:35:25Z</time>
      </trkpt>
      <trkpt lat="50.981197021901608" lon="10.348066985607147">
        <ele>216.91</ele>
        <time>2017-05-21T11:35:26Z</time>
      </trkpt>
      <trkpt lat="50.981179000809789" lon="10.348268989473581">
        <ele>216.91</ele>
        <time>2017-05-21T11:35:27Z</time>
      </trkpt>
      <trkpt lat="50.980768958106637" lon="10.351625019684434">
        <ele>217.88</ele>
        <time>2017-05-21T11:35:43Z</time>
      </trkpt>
      <trkpt lat="50.980226984247565" lon="10.354535970836878">
        <ele>219.31999999999999</ele>
        <time>2017-05-21T11:35:56Z</time>
      </trkpt>
      <trkpt lat="50.980144003406167" lon="10.35585000179708">
        <ele>219.80000000000001</ele>
        <time>2017-05-21T11:36:02Z</time>
      </trkpt>
      <trkpt lat="50.980164036154747" lon="10.356074972078204">
        <ele>219.80000000000001</ele>
        <time>2017-05-21T11:36:03Z</time>
      </trkpt>
      <trkpt lat="50.980193037539721" lon="10.356298014521599">
        <ele>219.31999999999999</ele>
        <time>2017-05-21T11:36:04Z</time>
      </trkpt>
      <trkpt lat="50.980532001703978" lon="10.358519973233342">
        <ele>224.12</ele>
        <time>2017-05-21T11:36:14Z</time>
      </trkpt>
      <trkpt lat="50.980637026950717" lon="10.359553964808583">
        <ele>226.53</ele>
        <time>2017-05-21T11:36:20Z</time>
      </trkpt>
      <trkpt lat="50.980686983093619" lon="10.359960990026593">
        <ele>226.53</ele>
        <time>2017-05-21T11:36:23Z</time>
      </trkpt>
      <trkpt lat="50.980722019448876" lon="10.360068026930094">
        <ele>227.00999999999999</ele>
        <time>2017-05-21T11:36:24Z</time>
      </trkpt>
      <trkpt lat="50.980783039703965" lon="10.360126029700041">
        <ele>227.49000000000001</ele>
        <time>2017-05-21T11:36:25Z</time>
      </trkpt>
      <trkpt lat="50.980858979746699" lon="10.360130975022912">
        <ele>227.49000000000001</ele>
        <time>2017-05-21T11:36:26Z</time>
      </trkpt>
      <trkpt lat="50.980942966416478" lon="10.36008202470839">
        <ele>227.97</ele>
        <time>2017-05-21T11:36:27Z</time>
      </trkpt>
      <trkpt lat="50.98103298805654" lon="10.359985968098044">
        <ele>228.44999999999999</ele>
        <time>2017-05-21T11:36:28Z</time>
      </trkpt>
      <trkpt lat="50.981134995818138" lon="10.359875997528434">
        <ele>229.41</ele>
        <time>2017-05-21T11:36:29Z</time>
      </trkpt>
      <trkpt lat="50.982038984075189" lon="10.35915800370276">
        <ele>239.50999999999999</ele>
        <time>2017-05-21T11:36:35Z</time>
      </trkpt>
      <trkpt lat="50.982370991259813" lon="10.358934961259365">
        <ele>243.34999999999999</ele>
        <time>2017-05-21T11:36:37Z</time>
      </trkpt>
      <trkpt lat="50.982553968206048" lon="10.358863966539502">
        <ele>245.27000000000001</ele>
        <time>2017-05-21T11:36:38Z</time>
      </trkpt>
      <trkpt lat="50.98274901509285" lon="10.358842005953193">
        <ele>246.72</ele>
        <time>2017-05-21T11:36:39Z</time>
      </trkpt>
      <trkpt lat="50.984409973025322" lon="10.35905197262764">
        <ele>256.32999999999998</ele>
        <time>2017-05-21T11:36:47Z</time>
      </trkpt>
      <trkpt lat="50.984579036012292" lon="10.359139982610941">
        <ele>257.29000000000002</ele>
        <time>2017-05-21T11:36:48Z</time>
      </trkpt>
      <trkpt lat="50.984723959118128" lon="10.359261017292738">
        <ele>258.25</ele>
        <time>2017-05-21T11:36:49Z</time>
      </trkpt>
      <trkpt lat="50.984840970486403" lon="10.359400995075703">
        <ele>259.69</ele>
        <time>2017-05-21T11:36:50Z</time>
      </trkpt>
      <trkpt lat="50.984918000176549" lon="10.359619008377194">
        <ele>261.13999999999999</ele>
        <time>2017-05-21T11:36:51Z</time>
      </trkpt>
      <trkpt lat="50.984967034310102" lon="10.359855964779854">
        <ele>262.10000000000002</ele>
        <time>2017-05-21T11:36:52Z</time>
      </trkpt>
      <trkpt lat="50.984997963532805" lon="10.36010499112308">
        <ele>263.06</ele>
        <time>2017-05-21T11:36:53Z</time>
      </trkpt>
      <trkpt lat="50.985152022913098" lon="10.361240990459919">
        <ele>269.79000000000002</ele>
        <time>2017-05-21T11:36:59Z</time>
      </trkpt>
      <trkpt lat="50.985186975449324" lon="10.361529998481274">
        <ele>273.14999999999998</ele>
        <time>2017-05-21T11:37:01Z</time>
      </trkpt>
      <trkpt lat="50.985253024846315" lon="10.361623959615827">
        <ele>274.11000000000001</ele>
        <time>2017-05-21T11:37:02Z</time>
      </trkpt>
      <trkpt lat="50.985338017344475" lon="10.361663019284606">
        <ele>275.06999999999999</ele>
        <time>2017-05-21T11:37:03Z</time>
      </trkpt>
      <trkpt lat="50.985416974872351" lon="10.361647009849548">
        <ele>277</ele>
        <time>2017-05-21T11:37:04Z</time>
      </trkpt>
      <trkpt lat="50.985528035089374" lon="10.36156302317977">
        <ele>277.48000000000002</ele>
        <time>2017-05-21T11:37:05Z</time>
      </trkpt>
      <trkpt lat="50.985644962638617" lon="10.36143796518445">
        <ele>278.44</ele>
        <time>2017-05-21T11:37:06Z</time>
      </trkpt>
      <trkpt lat="50.985775971785188" lon="10.361287007108331">
        <ele>278.92000000000002</ele>
        <time>2017-05-21T11:37:07Z</time>
      </trkpt>
      <trkpt lat="50.986805018037558" lon="10.360163999721408">
        <ele>285.17000000000002</ele>
        <time>2017-05-21T11:37:13Z</time>
      </trkpt>
      <trkpt lat="50.988052999600768" lon="10.358463982120156">
        <ele>290.45999999999998</ele>
        <time>2017-05-21T11:37:20Z</time>
      </trkpt>
      <trkpt lat="50.988183002918959" lon="10.358173968270421">
        <ele>291.42000000000002</ele>
        <time>2017-05-21T11:37:21Z</time>
      </trkpt>
      <trkpt lat="50.988614000380039" lon="10.357016008347273">
        <ele>293.81999999999999</ele>
        <time>2017-05-21T11:37:25Z</time>
      </trkpt>
      <trkpt lat="50.988733023405075" lon="10.356800006702542">
        <ele>294.77999999999997</ele>
        <time>2017-05-21T11:37:26Z</time>
      </trkpt>
      <trkpt lat="50.988869983702898" lon="10.356615018099546">
        <ele>295.25999999999999</ele>
        <time>2017-05-21T11:37:27Z</time>
      </trkpt>
      <trkpt lat="50.989028988406062" lon="10.356480991467834">
        <ele>296.22000000000003</ele>
        <time>2017-05-21T11:37:28Z</time>
      </trkpt>
      <trkpt lat="50.989198973402381" lon="10.356395998969674">
        <ele>297.18000000000001</ele>
        <time>2017-05-21T11:37:29Z</time>
      </trkpt>
      <trkpt lat="50.9893689583987" lon="10.356355011463165">
        <ele>298.14999999999998</ele>
        <time>2017-05-21T11:37:30Z</time>
      </trkpt>
      <trkpt lat="50.989550007507205" lon="10.356345036998391">
        <ele>299.58999999999997</ele>
        <time>2017-05-21T11:37:31Z</time>
      </trkpt>
      <trkpt lat="50.991550013422966" lon="10.356363980099559">
        <ele>306.80000000000001</ele>
        <time>2017-05-21T11:37:41Z</time>
      </trkpt>
      <trkpt lat="50.991748999804258" lon="10.356319975107908">
        <ele>306.31999999999999</ele>
        <time>2017-05-21T11:37:42Z</time>
      </trkpt>
      <trkpt lat="50.991944968700409" lon="10.356230959296227">
        <ele>305.83999999999997</ele>
        <time>2017-05-21T11:37:43Z</time>
      </trkpt>
      <trkpt lat="50.992134986445308" lon="10.356112020090222">
        <ele>305.36000000000001</ele>
        <time>2017-05-21T11:37:44Z</time>
      </trkpt>
      <trkpt lat="50.994110014289618" lon="10.354626998305321">
        <ele>303.43000000000001</ele>
        <time>2017-05-21T11:37:55Z</time>
      </trkpt>
      <trkpt lat="50.994317969307303" lon="10.354508981108665">
        <ele>303.91000000000003</ele>
        <time>2017-05-21T11:37:57Z</time>
      </trkpt>
      <trkpt lat="50.994403967633843" lon="10.354487020522356">
        <ele>304.38999999999999</ele>
        <time>2017-05-21T11:37:58Z</time>
      </trkpt>
      <trkpt lat="50.99448200315237" lon="10.354505963623524">
        <ele>304.38999999999999</ele>
        <time>2017-05-21T11:37:59Z</time>
      </trkpt>
      <trkpt lat="50.994548974558711" lon="10.354576958343387">
        <ele>304.38999999999999</ele>
        <time>2017-05-21T11:38:00Z</time>
      </trkpt>
      <trkpt lat="50.994613012298942" lon="10.354681983590126">
        <ele>304.38999999999999</ele>
        <time>2017-05-21T11:38:01Z</time>
      </trkpt>
      <trkpt lat="50.994680989533663" lon="10.354801006615162">
        <ele>304.88</ele>
        <time>2017-05-21T11:38:02Z</time>
      </trkpt>
      <trkpt lat="50.994856003671885" lon="10.355047015473247">
        <ele>304.88</ele>
        <time>2017-05-21T11:38:04Z</time>
      </trkpt>
      <trkpt lat="50.994952982291579" lon="10.355143994092941">
        <ele>304.88</ele>
        <time>2017-05-21T11:38:05Z</time>
      </trkpt>
      <trkpt lat="50.995050966739655" lon="10.355219012126327">
        <ele>304.88</ele>
        <time>2017-05-21T11:38:06Z</time>
      </trkpt>
      <trkpt lat="50.995327988639474" lon="10.355394026264548">
        <ele>304.88</ele>
        <time>2017-05-21T11:38:09Z</time>
      </trkpt>
      <trkpt lat="50.995386997237802" lon="10.355478012934327">
        <ele>304.38999999999999</ele>
        <time>2017-05-21T11:38:10Z</time>
      </trkpt>
      <trkpt lat="50.995412981137633" lon="10.355591000989079">
        <ele>304.38999999999999</ele>
        <time>2017-05-21T11:38:11Z</time>
      </trkpt>
      <trkpt lat="50.995419016107917" lon="10.355731984600425">
        <ele>304.38999999999999</ele>
        <time>2017-05-21T11:38:12Z</time>
      </trkpt>
      <trkpt lat="50.99540501832962" lon="10.355904987081885">
        <ele>303.91000000000003</ele>
        <time>2017-05-21T11:38:13Z</time>
      </trkpt>
      <trkpt lat="50.99538498558104" lon="10.3561079967767">
        <ele>303.43000000000001</ele>
        <time>2017-05-21T11:38:14Z</time>
      </trkpt>
      <trkpt lat="50.995194967836142" lon="10.358034996315837">
        <ele>298.63</ele>
        <time>2017-05-21T11:38:21Z</time>
      </trkpt>
      <trkpt lat="50.995278032496572" lon="10.360358040779829">
        <ele>290.94</ele>
        <time>2017-05-21T11:38:28Z</time>
      </trkpt>
      <trkpt lat="50.995572991669178" lon="10.363819012418389">
        <ele>281.31999999999999</ele>
        <time>2017-05-21T11:38:38Z</time>
      </trkpt>
      <trkpt lat="50.995667036622763" lon="10.371924983337522">
        <ele>264.01999999999998</ele>
        <time>2017-05-21T11:39:01Z</time>
      </trkpt>
      <trkpt lat="50.99598697386682" lon="10.379678998142481">
        <ele>251.52000000000001</ele>
        <time>2017-05-21T11:39:23Z</time>
      </trkpt>
      <trkpt lat="50.996442027390003" lon="10.385937010869384">
        <ele>250.08000000000001</ele>
        <time>2017-05-21T11:39:41Z</time>
      </trkpt>
      <trkpt lat="50.99755103699863" lon="10.391568979248405">
        <ele>256.81</ele>
        <time>2017-05-21T11:39:58Z</time>
      </trkpt>
      <trkpt lat="50.997629994526505" lon="10.392944030463696">
        <ele>258.25</ele>
        <time>2017-05-21T11:40:04Z</time>
      </trkpt>
      <trkpt lat="50.997729990631342" lon="10.395806031301618">
        <ele>261.62</ele>
        <time>2017-05-21T11:40:19Z</time>
      </trkpt>
      <trkpt lat="50.99783199839294" lon="10.398919992148876">
        <ele>259.20999999999998</ele>
        <time>2017-05-21T11:40:35Z</time>
      </trkpt>
      <trkpt lat="50.99800399504602" lon="10.402838028967381">
        <ele>254.41</ele>
        <time>2017-05-21T11:40:58Z</time>
      </trkpt>
      <trkpt lat="50.997987985610962" lon="10.402961997315288">
        <ele>254.41</ele>
        <time>2017-05-21T11:40:59Z</time>
      </trkpt>
      <trkpt lat="50.997963007539511" lon="10.403075991198421">
        <ele>253.93000000000001</ele>
        <time>2017-05-21T11:41:00Z</time>
      </trkpt>
      <trkpt lat="50.997953033074737" lon="10.403339015319943">
        <ele>253.93000000000001</ele>
        <time>2017-05-21T11:41:02Z</time>
      </trkpt>
      <trkpt lat="50.997991003096104" lon="10.403473963961005">
        <ele>253.93000000000001</ele>
        <time>2017-05-21T11:41:03Z</time>
      </trkpt>
      <trkpt lat="50.998072978109121" lon="10.403801025822759">
        <ele>253.44</ele>
        <time>2017-05-21T11:41:05Z</time>
      </trkpt>
      <trkpt lat="50.998355029150844" lon="10.405668010935187">
        <ele>252</ele>
        <time>2017-05-21T11:41:13Z</time>
      </trkpt>
      <trkpt lat="50.99841495975852" lon="10.408444013446569">
        <ele>243.34999999999999</ele>
        <time>2017-05-21T11:41:23Z</time>
      </trkpt>
      <trkpt lat="50.998515039682388" lon="10.411411039531231">
        <ele>231.33000000000001</ele>
        <time>2017-05-21T11:41:33Z</time>
      </trkpt>
      <trkpt lat="50.998779991641641" lon="10.413083983585238">
        <ele>229.88999999999999</ele>
        <time>2017-05-21T11:41:38Z</time>
      </trkpt>
      <trkpt lat="50.998873030766845" lon="10.413398975506425">
        <ele>230.84999999999999</ele>
        <time>2017-05-21T11:41:39Z</time>
      </trkpt>
      <trkpt lat="50.999760003760457" lon="10.415423959493637">
        <ele>236.13999999999999</ele>
        <time>2017-05-21T11:41:46Z</time>
      </trkpt>
      <trkpt lat="51.001261034980416" lon="10.418685022741556">
        <ele>247.68000000000001</ele>
        <time>2017-05-21T11:41:57Z</time>
      </trkpt>
      <trkpt lat="51.002058992162347" lon="10.421116026118398">
        <ele>259.69</ele>
        <time>2017-05-21T11:42:04Z</time>
      </trkpt>
      <trkpt lat="51.002120012417436" lon="10.421478040516376">
        <ele>261.13999999999999</ele>
        <time>2017-05-21T11:42:05Z</time>
      </trkpt>
      <trkpt lat="51.002637008205056" lon="10.42533396743238">
        <ele>277</ele>
        <time>2017-05-21T11:42:15Z</time>
      </trkpt>
      <trkpt lat="51.00277497433126" lon="10.428246008232236">
        <ele>287.56999999999999</ele>
        <time>2017-05-21T11:42:22Z</time>
      </trkpt>
      <trkpt lat="51.003249976783991" lon="10.431622993201017">
        <ele>298.63</ele>
        <time>2017-05-21T11:42:30Z</time>
      </trkpt>
      <trkpt lat="51.004593009129167" lon="10.439830971881747">
        <ele>324.10000000000002</ele>
        <time>2017-05-21T11:42:49Z</time>
      </trkpt>
      <trkpt lat="51.004918981343508" lon="10.441731987521052">
        <ele>329.38999999999999</ele>
        <time>2017-05-21T11:42:55Z</time>
      </trkpt>
      <trkpt lat="51.005693972110748" lon="10.443969033658504">
        <ele>332.26999999999998</ele>
        <time>2017-05-21T11:43:03Z</time>
      </trkpt>
      <trkpt lat="51.006795018911362" lon="10.446596005931497">
        <ele>338.04000000000002</ele>
        <time>2017-05-21T11:43:11Z</time>
      </trkpt>
      <trkpt lat="51.008219020441175" lon="10.45042896643281">
        <ele>347.17000000000002</ele>
        <time>2017-05-21T11:43:21Z</time>
      </trkpt>
      <trkpt lat="51.011248994618654" lon="10.45674598775804">
        <ele>349.57999999999998</ele>
        <time>2017-05-21T11:43:38Z</time>
      </trkpt>
      <trkpt lat="51.012190030887723" lon="10.458424966782331">
        <ele>345.73000000000002</ele>
        <time>2017-05-21T11:43:44Z</time>
      </trkpt>
      <trkpt lat="51.013028975576162" lon="10.459756013005972">
        <ele>338.04000000000002</ele>
        <time>2017-05-21T11:43:49Z</time>
      </trkpt>
      <trkpt lat="51.013164008036256" lon="10.460109980776906">
        <ele>336.60000000000002</ele>
        <time>2017-05-21T11:43:50Z</time>
      </trkpt>
      <trkpt lat="51.013287976384163" lon="10.460492027923465">
        <ele>335.16000000000003</ele>
        <time>2017-05-21T11:43:51Z</time>
      </trkpt>
      <trkpt lat="51.014357004314661" lon="10.463858032599092">
        <ele>323.13999999999999</ele>
        <time>2017-05-21T11:44:00Z</time>
      </trkpt>
      <trkpt lat="51.015308015048504" lon="10.46694902703166">
        <ele>314.97000000000003</ele>
        <time>2017-05-21T11:44:07Z</time>
      </trkpt>
      <trkpt lat="51.016450971364975" lon="10.471092034131289">
        <ele>303.91000000000003</ele>
        <time>2017-05-21T11:44:16Z</time>
      </trkpt>
      <trkpt lat="51.017527040094137" lon="10.477065984159708">
        <ele>292.38</ele>
        <time>2017-05-21T11:44:29Z</time>
      </trkpt>
      <trkpt lat="51.018525995314121" lon="10.482258992269635">
        <ele>287.08999999999997</ele>
        <time>2017-05-21T11:44:41Z</time>
      </trkpt>
      <trkpt lat="51.020262977108359" lon="10.489541022107005">
        <ele>293.81999999999999</ele>
        <time>2017-05-21T11:44:58Z</time>
      </trkpt>
      <trkpt lat="51.020397003740072" lon="10.490295980125666">
        <ele>292.38</ele>
        <time>2017-05-21T11:45:00Z</time>
      </trkpt>
      <trkpt lat="51.020431034266949" lon="10.490695964545012">
        <ele>291.89999999999998</ele>
        <time>2017-05-21T11:45:01Z</time>
      </trkpt>
      <trkpt lat="51.020429022610188" lon="10.493652010336518">
        <ele>289.49000000000001</ele>
        <time>2017-05-21T11:45:08Z</time>
      </trkpt>
      <trkpt lat="51.020047981292009" lon="10.497775990515947">
        <ele>286.13</ele>
        <time>2017-05-21T11:45:18Z</time>
      </trkpt>
      <trkpt lat="51.019600974395871" lon="10.501279961317778">
        <ele>283.73000000000002</ele>
        <time>2017-05-21T11:45:28Z</time>
      </trkpt>
      <trkpt lat="51.01921197026968" lon="10.50491401925683">
        <ele>282.76999999999998</ele>
        <time>2017-05-21T11:45:40Z</time>
      </trkpt>
      <trkpt lat="51.019194032996893" lon="10.506340032443404">
        <ele>280.83999999999997</ele>
        <time>2017-05-21T11:45:47Z</time>
      </trkpt>
      <trkpt lat="51.019247006624937" lon="10.507434038445354">
        <ele>280.36000000000001</ele>
        <time>2017-05-21T11:45:54Z</time>
      </trkpt>
      <trkpt lat="51.019298974424601" lon="10.507578961551189">
        <ele>279.39999999999998</ele>
        <time>2017-05-21T11:45:55Z</time>
      </trkpt>
      <trkpt lat="51.019357983022928" lon="10.507723968476057">
        <ele>279.39999999999998</ele>
        <time>2017-05-21T11:45:56Z</time>
      </trkpt>
      <trkpt lat="51.019785962998867" lon="10.508429976180196">
        <ele>278.92000000000002</ele>
        <time>2017-05-21T11:46:02Z</time>
      </trkpt>
      <trkpt lat="51.019866010174155" lon="10.508496025577188">
        <ele>278.92000000000002</ele>
        <time>2017-05-21T11:46:03Z</time>
      </trkpt>
      <trkpt lat="51.020058961585164" lon="10.508640026673675">
        <ele>279.39999999999998</ele>
        <time>2017-05-21T11:46:06Z</time>
      </trkpt>
      <trkpt lat="51.02009198628366" lon="10.508689982816577">
        <ele>279.39999999999998</ele>
        <time>2017-05-21T11:46:07Z</time>
      </trkpt>
      <trkpt lat="51.020106989890337" lon="10.508753014728427">
        <ele>279.39999999999998</ele>
        <time>2017-05-21T11:46:08Z</time>
      </trkpt>
      <trkpt lat="51.020104978233576" lon="10.508820991963148">
        <ele>279.39999999999998</ele>
        <time>2017-05-21T11:46:09Z</time>
      </trkpt>
      <trkpt lat="51.020087962970138" lon="10.508893998339772">
        <ele>278.92000000000002</ele>
        <time>2017-05-21T11:46:10Z</time>
      </trkpt>
      <trkpt lat="51.020063990727067" lon="10.508974967524409">
        <ele>278.44</ele>
        <time>2017-05-21T11:46:11Z</time>
      </trkpt>
      <trkpt lat="51.019992996007204" lon="10.509303035214543">
        <ele>277.95999999999998</ele>
        <time>2017-05-21T11:46:14Z</time>
      </trkpt>
      <trkpt lat="51.019982015714049" lon="10.509424991905689">
        <ele>277.48000000000002</ele>
        <time>2017-05-21T11:46:15Z</time>
      </trkpt>
      <trkpt lat="51.019912026822567" lon="10.510382959619164">
        <ele>277</ele>
        <time>2017-05-21T11:46:23Z</time>
      </trkpt>
      <trkpt lat="51.019882019609213" lon="10.510495025664568">
        <ele>276.51999999999998</ele>
        <time>2017-05-21T11:46:24Z</time>
      </trkpt>
      <trkpt lat="51.019846983253956" lon="10.510595021769404">
        <ele>276.04000000000002</ele>
        <time>2017-05-21T11:46:25Z</time>
      </trkpt>
      <trkpt lat="51.019804989919066" lon="10.510689988732338">
        <ele>276.51999999999998</ele>
        <time>2017-05-21T11:46:26Z</time>
      </trkpt>
      <trkpt lat="51.019766014069319" lon="10.510769030079246">
        <ele>276.51999999999998</ele>
        <time>2017-05-21T11:46:27Z</time>
      </trkpt>
      <trkpt lat="51.019728966057301" lon="10.510841030627489">
        <ele>276.51999999999998</ele>
        <time>2017-05-21T11:46:28Z</time>
      </trkpt>
      <trkpt lat="51.019628969952464" lon="10.51101696677506">
        <ele>276.51999999999998</ele>
        <time>2017-05-21T11:46:31Z</time>
      </trkpt>
      <trkpt lat="51.019599968567491" lon="10.511078992858529">
        <ele>276.51999999999998</ele>
        <time>2017-05-21T11:46:32Z</time>
      </trkpt>
      <trkpt lat="51.019586976617575" lon="10.51114303059876">
        <ele>276.04000000000002</ele>
        <time>2017-05-21T11:46:33Z</time>
      </trkpt>
      <trkpt lat="51.019596029073" lon="10.511204972863197">
        <ele>276.51999999999998</ele>
        <time>2017-05-21T11:46:34Z</time>
      </trkpt>
      <trkpt lat="51.019625030457973" lon="10.51125199533999">
        <ele>276.51999999999998</ele>
        <time>2017-05-21T11:46:35Z</time>
      </trkpt>
      <trkpt lat="51.019673980772495" lon="10.511285020038486">
        <ele>276.51999999999998</ele>
        <time>2017-05-21T11:46:36Z</time>
      </trkpt>
      <trkpt lat="51.019732989370823" lon="10.511301029473543">
        <ele>276.51999999999998</ele>
        <time>2017-05-21T11:46:37Z</time>
      </trkpt>
      <trkpt lat="51.019789986312389" lon="10.511300023645163">
        <ele>277</ele>
        <time>2017-05-21T11:46:38Z</time>
      </trkpt>
      <trkpt lat="51.019852012395859" lon="10.51129499450326">
        <ele>277.48000000000002</ele>
        <time>2017-05-21T11:46:39Z</time>
      </trkpt>
      <trkpt lat="51.019914960488677" lon="10.511288959532976">
        <ele>277.48000000000002</ele>
        <time>2017-05-21T11:46:40Z</time>
      </trkpt>
      <trkpt lat="51.019974974915385" lon="10.511288959532976">
        <ele>277.48000000000002</ele>
        <time>2017-05-21T11:46:41Z</time>
      </trkpt>
      <trkpt lat="51.020033983513713" lon="10.511307986453176">
        <ele>277.95999999999998</ele>
        <time>2017-05-21T11:46:42Z</time>
      </trkpt>
      <trkpt lat="51.020087040960789" lon="10.511345034465194">
        <ele>277.95999999999998</ele>
        <time>2017-05-21T11:46:43Z</time>
      </trkpt>
      <trkpt lat="51.020124005153775" lon="10.511407982558012">
        <ele>277.48000000000002</ele>
        <time>2017-05-21T11:46:44Z</time>
      </trkpt>
      <trkpt lat="51.020150994881988" lon="10.511479983106256">
        <ele>277.48000000000002</ele>
        <time>2017-05-21T11:46:45Z</time>
      </trkpt>
      <trkpt lat="51.020173039287329" lon="10.511545026674867">
        <ele>277</ele>
        <time>2017-05-21T11:46:46Z</time>
      </trkpt>
      <trkpt lat="51.020225007086992" lon="10.511659020558">
        <ele>277.48000000000002</ele>
        <time>2017-05-21T11:46:48Z</time>
      </trkpt>
      <trkpt lat="51.020301030948758" lon="10.511827999725938">
        <ele>277.48000000000002</ele>
        <time>2017-05-21T11:46:51Z</time>
      </trkpt>
      <trkpt lat="51.020486019551754" lon="10.51237097941339">
        <ele>277.95999999999998</ele>
        <time>2017-05-21T11:46:56Z</time>
      </trkpt>
      <trkpt lat="51.020550979301333" lon="10.512472987174988">
        <ele>278.44</ele>
        <time>2017-05-21T11:46:57Z</time>
      </trkpt>
      <trkpt lat="51.021298980340362" lon="10.513896988704801">
        <ele>282.76999999999998</ele>
        <time>2017-05-21T11:47:11Z</time>
      </trkpt>
      <trkpt lat="51.02133896201849" lon="10.514044007286429">
        <ele>283.25</ele>
        <time>2017-05-21T11:47:12Z</time>
      </trkpt>
      <trkpt lat="51.021370980888605" lon="10.514212986454368">
        <ele>283.25</ele>
        <time>2017-05-21T11:47:13Z</time>
      </trkpt>
      <trkpt lat="51.021556975319982" lon="10.515904035419226">
        <ele>285.64999999999998</ele>
        <time>2017-05-21T11:47:23Z</time>
      </trkpt>
      <trkpt lat="51.021644985303283" lon="10.516669973731041">
        <ele>287.08999999999997</ele>
        <time>2017-05-21T11:47:31Z</time>
      </trkpt>
      <trkpt lat="51.021674992516637" lon="10.516737028956413">
        <ele>287.56999999999999</ele>
        <time>2017-05-21T11:47:32Z</time>
      </trkpt>
      <trkpt lat="51.021720003336668" lon="10.516763012856245">
        <ele>288.05000000000001</ele>
        <time>2017-05-21T11:47:33Z</time>
      </trkpt>
      <trkpt lat="51.021771971136332" lon="10.516762007027864">
        <ele>288.05000000000001</ele>
        <time>2017-05-21T11:47:34Z</time>
      </trkpt>
      <trkpt lat="51.021830979734659" lon="10.516744991764426">
        <ele>288.52999999999997</ele>
        <time>2017-05-21T11:47:35Z</time>
      </trkpt>
      <trkpt lat="51.022416958585382" lon="10.516546005383134">
        <ele>288.52999999999997</ele>
        <time>2017-05-21T11:47:46Z</time>
      </trkpt>
      <trkpt lat="51.022499017417431" lon="10.516531001776457">
        <ele>289.97000000000003</ele>
        <time>2017-05-21T11:47:50Z</time>
      </trkpt>
      <trkpt lat="51.022561965510249" lon="10.516594033688307">
        <ele>289.97000000000003</ele>
        <time>2017-05-21T11:47:53Z</time>
      </trkpt>
      <trkpt lat="51.022570012137294" lon="10.516658993437886">
        <ele>289.97000000000003</ele>
        <time>2017-05-21T11:47:54Z</time>
      </trkpt>
      <trkpt lat="51.022572023794055" lon="10.516739962622523">
        <ele>289.97000000000003</ele>
        <time>2017-05-21T11:47:55Z</time>
      </trkpt>
      <trkpt lat="51.02264603599906" lon="10.517957014963031">
        <ele>290.94</ele>
        <time>2017-05-21T11:48:04Z</time>
      </trkpt>
      <trkpt lat="51.022752989083529" lon="10.519690979272127">
        <ele>289.97000000000003</ele>
        <time>2017-05-21T11:48:15Z</time>
      </trkpt>
      <trkpt lat="51.022868994623423" lon="10.52235902287066">
        <ele>287.08999999999997</ele>
        <time>2017-05-21T11:48:30Z</time>
      </trkpt>
      <trkpt lat="51.022789031267166" lon="10.525150028988719">
        <ele>284.20999999999998</ele>
        <time>2017-05-21T11:48:47Z</time>
      </trkpt>
      <trkpt lat="51.022724993526936" lon="10.52693503908813">
        <ele>281.31999999999999</ele>
        <time>2017-05-21T11:48:59Z</time>
      </trkpt>
      <trkpt lat="51.022710995748639" lon="10.527051966637373">
        <ele>280.83999999999997</ele>
        <time>2017-05-21T11:49:00Z</time>
      </trkpt>
      <trkpt lat="51.02269196882844" lon="10.527514982968569">
        <ele>279.88</ele>
        <time>2017-05-21T11:49:04Z</time>
      </trkpt>
      <trkpt lat="51.022716024890542" lon="10.527619002386928">
        <ele>279.88</ele>
        <time>2017-05-21T11:49:05Z</time>
      </trkpt>
      <trkpt lat="51.022750977426767" lon="10.527821006253362">
        <ele>279.39999999999998</ele>
        <time>2017-05-21T11:49:07Z</time>
      </trkpt>
      <trkpt lat="51.022738991305232" lon="10.527923014014959">
        <ele>278.92000000000002</ele>
        <time>2017-05-21T11:49:08Z</time>
      </trkpt>
      <trkpt lat="51.022698003798723" lon="10.528013035655022">
        <ele>278.44</ele>
        <time>2017-05-21T11:49:09Z</time>
      </trkpt>
      <trkpt lat="51.022635977715254" lon="10.528079001232982">
        <ele>277.95999999999998</ele>
        <time>2017-05-21T11:49:10Z</time>
      </trkpt>
      <trkpt lat="51.022561965510249" lon="10.528127029538155">
        <ele>277.95999999999998</ele>
        <time>2017-05-21T11:49:11Z</time>
      </trkpt>
      <trkpt lat="51.022484013810754" lon="10.528157958760858">
        <ele>277.48000000000002</ele>
        <time>2017-05-21T11:49:12Z</time>
      </trkpt>
      <trkpt lat="51.022413019090891" lon="10.528190983459353">
        <ele>277.48000000000002</ele>
        <time>2017-05-21T11:49:13Z</time>
      </trkpt>
      <trkpt lat="51.022300031036139" lon="10.528289973735809">
        <ele>277</ele>
        <time>2017-05-21T11:49:15Z</time>
      </trkpt>
      <trkpt lat="51.022259965538979" lon="10.528371026739478">
        <ele>277.48000000000002</ele>
        <time>2017-05-21T11:49:16Z</time>
      </trkpt>
      <trkpt lat="51.022242028266191" lon="10.528471022844315">
        <ele>276.51999999999998</ele>
        <time>2017-05-21T11:49:17Z</time>
      </trkpt>
      <trkpt lat="51.022245967760682" lon="10.528593985363841">
        <ele>276.51999999999998</ele>
        <time>2017-05-21T11:49:18Z</time>
      </trkpt>
      <trkpt lat="51.022257031872869" lon="10.528731029480696">
        <ele>276.51999999999998</ele>
        <time>2017-05-21T11:49:19Z</time>
      </trkpt>
      <trkpt lat="51.022298019379377" lon="10.529182981699705">
        <ele>277.48000000000002</ele>
        <time>2017-05-21T11:49:22Z</time>
      </trkpt>
      <trkpt lat="51.022327020764351" lon="10.529335029423237">
        <ele>277.48000000000002</ele>
        <time>2017-05-21T11:49:23Z</time>
      </trkpt>
      <trkpt lat="51.02236901409924" lon="10.529474001377821">
        <ele>278.44</ele>
        <time>2017-05-21T11:49:24Z</time>
      </trkpt>
      <trkpt lat="51.022415030747652" lon="10.52960199303925">
        <ele>278.92000000000002</ele>
        <time>2017-05-21T11:49:25Z</time>
      </trkpt>
      <trkpt lat="51.022464986890554" lon="10.529727973043919">
        <ele>278.92000000000002</ele>
        <time>2017-05-21T11:49:26Z</time>
      </trkpt>
      <trkpt lat="51.022640001028776" lon="10.530043970793486">
        <ele>279.39999999999998</ele>
        <time>2017-05-21T11:49:29Z</time>
      </trkpt>
      <trkpt lat="51.022709989920259" lon="10.530125023797154">
        <ele>279.39999999999998</ele>
        <time>2017-05-21T11:49:30Z</time>
      </trkpt>
      <trkpt lat="51.022781990468502" lon="10.530197024345398">
        <ele>279.39999999999998</ele>
        <time>2017-05-21T11:49:31Z</time>
      </trkpt>
      <trkpt lat="51.023053983226418" lon="10.530467005446553">
        <ele>279.88</ele>
        <time>2017-05-21T11:49:35Z</time>
      </trkpt>
      <trkpt lat="51.023106034845114" lon="10.53054797463119">
        <ele>279.88</ele>
        <time>2017-05-21T11:49:36Z</time>
      </trkpt>
      <trkpt lat="51.023147022351623" lon="10.530642019584775">
        <ele>279.88</ele>
        <time>2017-05-21T11:49:37Z</time>
      </trkpt>
      <trkpt lat="51.023177029564977" lon="10.530746961012483">
        <ele>280.36000000000001</ele>
        <time>2017-05-21T11:49:38Z</time>
      </trkpt>
      <trkpt lat="51.023203013464808" lon="10.530858021229506">
        <ele>280.83999999999997</ele>
        <time>2017-05-21T11:49:39Z</time>
      </trkpt>
      <trkpt lat="51.023220028728247" lon="10.530962962657213">
        <ele>280.36000000000001</ele>
        <time>2017-05-21T11:49:40Z</time>
      </trkpt>
      <trkpt lat="51.023230003193021" lon="10.531094977632165">
        <ele>280.36000000000001</ele>
        <time>2017-05-21T11:49:41Z</time>
      </trkpt>
      <trkpt lat="51.023244000971317" lon="10.531222969293594">
        <ele>279.88</ele>
        <time>2017-05-21T11:49:42Z</time>
      </trkpt>
      <trkpt lat="51.023405017331243" lon="10.532616041600704">
        <ele>280.83999999999997</ele>
        <time>2017-05-21T11:49:51Z</time>
      </trkpt>
      <trkpt lat="51.023448016494513" lon="10.532776974141598">
        <ele>280.83999999999997</ele>
        <time>2017-05-21T11:49:52Z</time>
      </trkpt>
      <trkpt lat="51.023509036749601" lon="10.532934973016381">
        <ele>281.31999999999999</ele>
        <time>2017-05-21T11:49:53Z</time>
      </trkpt>
      <trkpt lat="51.023584976792336" lon="10.533075034618378">
        <ele>281.80000000000001</ele>
        <time>2017-05-21T11:49:54Z</time>
      </trkpt>
      <trkpt lat="51.023682039231062" lon="10.533191040158272">
        <ele>281.80000000000001</ele>
        <time>2017-05-21T11:49:55Z</time>
      </trkpt>
      <trkpt lat="51.023794021457434" lon="10.533261029049754">
        <ele>281.31999999999999</ele>
        <time>2017-05-21T11:49:56Z</time>
      </trkpt>
      <trkpt lat="51.023917989805341" lon="10.533283995464444">
        <ele>281.80000000000001</ele>
        <time>2017-05-21T11:49:57Z</time>
      </trkpt>
      <trkpt lat="51.024048998951912" lon="10.533279972150922">
        <ele>281.80000000000001</ele>
        <time>2017-05-21T11:49:58Z</time>
      </trkpt>
      <trkpt lat="51.024185959249735" lon="10.533263962715864">
        <ele>282.27999999999997</ele>
        <time>2017-05-21T11:49:59Z</time>
      </trkpt>
      <trkpt lat="51.025451961904764" lon="10.533063970506191">
        <ele>287.08999999999997</ele>
        <time>2017-05-21T11:50:07Z</time>
      </trkpt>
      <trkpt lat="51.027105962857604" lon="10.532833971083164">
        <ele>290.45999999999998</ele>
        <time>2017-05-21T11:50:15Z</time>
      </trkpt>
      <trkpt lat="51.029228009283543" lon="10.532484026625752">
        <ele>295.25999999999999</ele>
        <time>2017-05-21T11:50:24Z</time>
      </trkpt>
      <trkpt lat="51.0309639852494" lon="10.532282022759318">
        <ele>299.58999999999997</ele>
        <time>2017-05-21T11:50:30Z</time>
      </trkpt>
      <trkpt lat="51.034160004928708" lon="10.531595963984728">
        <ele>305.36000000000001</ele>
        <time>2017-05-21T11:50:42Z</time>
      </trkpt>
      <trkpt lat="51.03616202250123" lon="10.530302971601486">
        <ele>310.63999999999999</ele>
        <time>2017-05-21T11:50:52Z</time>
      </trkpt>
      <trkpt lat="51.036507021635771" lon="10.530126029625535">
        <ele>311.60000000000002</ele>
        <time>2017-05-21T11:50:54Z</time>
      </trkpt>
      <trkpt lat="51.036687986925244" lon="10.530086969956756">
        <ele>312.08999999999997</ele>
        <time>2017-05-21T11:50:55Z</time>
      </trkpt>
      <trkpt lat="51.036883033812046" lon="10.530084036290646">
        <ele>312.56999999999999</ele>
        <time>2017-05-21T11:50:56Z</time>
      </trkpt>
      <trkpt lat="51.037081014364958" lon="10.530108008533716">
        <ele>312.56999999999999</ele>
        <time>2017-05-21T11:50:57Z</time>
      </trkpt>
      <trkpt lat="51.037288969382644" lon="10.530152013525367">
        <ele>312.08999999999997</ele>
        <time>2017-05-21T11:50:58Z</time>
      </trkpt>
      <trkpt lat="51.038628984242678" lon="10.530795995146036">
        <ele>312.56999999999999</ele>
        <time>2017-05-21T11:51:04Z</time>
      </trkpt>
      <trkpt lat="51.039493996649981" lon="10.531683973968029">
        <ele>319.30000000000001</ele>
        <time>2017-05-21T11:51:09Z</time>
      </trkpt>
      <trkpt lat="51.039783004671335" lon="10.532012963667512">
        <ele>322.18000000000001</ele>
        <time>2017-05-21T11:51:11Z</time>
      </trkpt>
      <trkpt lat="51.03994301520288" lon="10.532141039147973">
        <ele>323.13999999999999</ele>
        <time>2017-05-21T11:51:12Z</time>
      </trkpt>
      <trkpt lat="51.040114006027579" lon="10.532237011939287">
        <ele>324.57999999999998</ele>
        <time>2017-05-21T11:51:13Z</time>
      </trkpt>
      <trkpt lat="51.040289020165801" lon="10.532301971688867">
        <ele>326.01999999999998</ele>
        <time>2017-05-21T11:51:14Z</time>
      </trkpt>
      <trkpt lat="51.040461016818881" lon="10.532342037186027">
        <ele>326.99000000000001</ele>
        <time>2017-05-21T11:51:15Z</time>
      </trkpt>
      <trkpt lat="51.040622033178806" lon="10.532363997772336">
        <ele>327.94999999999999</ele>
        <time>2017-05-21T11:51:16Z</time>
      </trkpt>
      <trkpt lat="51.040771985426545" lon="10.532369026914239">
        <ele>328.43000000000001</ele>
        <time>2017-05-21T11:51:17Z</time>
      </trkpt>
      <trkpt lat="51.04106199927628" lon="10.532408002763987">
        <ele>329.87</ele>
        <time>2017-05-21T11:51:19Z</time>
      </trkpt>
      <trkpt lat="51.041203988716006" lon="10.532452007755637">
        <ele>330.35000000000002</ele>
        <time>2017-05-21T11:51:20Z</time>
      </trkpt>
      <trkpt lat="51.042837034910917" lon="10.533361025154591">
        <ele>322.66000000000003</ele>
        <time>2017-05-21T11:51:33Z</time>
      </trkpt>
      <trkpt lat="51.043750997632742" lon="10.533932000398636">
        <ele>316.88999999999999</ele>
        <time>2017-05-21T11:51:43Z</time>
      </trkpt>
      <trkpt lat="51.04381000623107" lon="10.534022022038698">
        <ele>315.93000000000001</ele>
        <time>2017-05-21T11:51:44Z</time>
      </trkpt>
      <trkpt lat="51.043847976252437" lon="10.534137021750212">
        <ele>316.88999999999999</ele>
        <time>2017-05-21T11:51:45Z</time>
      </trkpt>
      <trkpt lat="51.043873960152268" lon="10.53426300175488">
        <ele>316.41000000000003</ele>
        <time>2017-05-21T11:51:46Z</time>
      </trkpt>
      <trkpt lat="51.043893992900848" lon="10.534407002851367">
        <ele>316.41000000000003</ele>
        <time>2017-05-21T11:51:47Z</time>
      </trkpt>
      <trkpt lat="51.044126003980637" lon="10.536297038197517">
        <ele>314.97000000000003</ele>
        <time>2017-05-21T11:51:59Z</time>
      </trkpt>
      <trkpt lat="51.04452196508646" lon="10.539471013471484">
        <ele>315.44999999999999</ele>
        <time>2017-05-21T11:52:19Z</time>
      </trkpt>
      <trkpt lat="51.044698990881443" lon="10.540724024176598">
        <ele>315.44999999999999</ele>
        <time>2017-05-21T11:52:27Z</time>
      </trkpt>
      <trkpt lat="51.044751964509487" lon="10.540864001959562">
        <ele>315.44999999999999</ele>
        <time>2017-05-21T11:52:28Z</time>
      </trkpt>
      <trkpt lat="51.044830000028014" lon="10.540981013327837">
        <ele>314.97000000000003</ele>
        <time>2017-05-21T11:52:29Z</time>
      </trkpt>
      <trkpt lat="51.044940976426005" lon="10.541051002219319">
        <ele>315.44999999999999</ele>
        <time>2017-05-21T11:52:30Z</time>
      </trkpt>
      <trkpt lat="51.045061005279422" lon="10.541097018867731">
        <ele>314.97000000000003</ele>
        <time>2017-05-21T11:52:31Z</time>
      </trkpt>
      <trkpt lat="51.045182039961219" lon="10.541134988889098">
        <ele>315.44999999999999</ele>
        <time>2017-05-21T11:52:32Z</time>
      </trkpt>
      <trkpt lat="51.046746019273996" lon="10.541672017425299">
        <ele>313.05000000000001</ele>
        <time>2017-05-21T11:52:44Z</time>
      </trkpt>
      <trkpt lat="51.047611031681299" lon="10.542236035689712">
        <ele>313.52999999999997</ele>
        <time>2017-05-21T11:52:49Z</time>
      </trkpt>
      <trkpt lat="51.047762995585799" lon="10.542436027899384">
        <ele>313.52999999999997</ele>
        <time>2017-05-21T11:52:50Z</time>
      </trkpt>
      <trkpt lat="51.047881012782454" lon="10.542682036757469">
        <ele>314.00999999999999</ele>
        <time>2017-05-21T11:52:51Z</time>
      </trkpt>
      <trkpt lat="51.047984026372433" lon="10.542970038950443">
        <ele>314.49000000000001</ele>
        <time>2017-05-21T11:52:52Z</time>
      </trkpt>
      <trkpt lat="51.048083016648889" lon="10.54328897036612">
        <ele>314.97000000000003</ele>
        <time>2017-05-21T11:52:53Z</time>
      </trkpt>
      <trkpt lat="51.048823976889253" lon="10.545645039528608">
        <ele>317.37</ele>
        <time>2017-05-21T11:52:59Z</time>
      </trkpt>
      <trkpt lat="51.050655003637075" lon="10.551512958481908">
        <ele>315.44999999999999</ele>
        <time>2017-05-21T11:53:12Z</time>
      </trkpt>
      <trkpt lat="51.051504006609321" lon="10.554516026750207">
        <ele>321.69999999999999</ele>
        <time>2017-05-21T11:53:19Z</time>
      </trkpt>
      <trkpt lat="51.052290983498096" lon="10.55886397138238">
        <ele>323.62</ele>
        <time>2017-05-21T11:53:28Z</time>
      </trkpt>
      <trkpt lat="51.053067985922098" lon="10.562343969941139">
        <ele>332.26999999999998</ele>
        <time>2017-05-21T11:53:36Z</time>
      </trkpt>
      <trkpt lat="51.053690006956458" lon="10.564817972481251">
        <ele>334.68000000000001</ele>
        <time>2017-05-21T11:53:43Z</time>
      </trkpt>
      <trkpt lat="51.054593995213509" lon="10.567915001884103">
        <ele>341.41000000000003</ele>
        <time>2017-05-21T11:53:52Z</time>
      </trkpt>
      <trkpt lat="51.05526396073401" lon="10.569836972281337">
        <ele>347.17000000000002</ele>
        <time>2017-05-21T11:53:57Z</time>
      </trkpt>
      <trkpt lat="51.057126000523567" lon="10.574946999549866">
        <ele>358.23000000000002</ele>
        <time>2017-05-21T11:54:09Z</time>
      </trkpt>
      <trkpt lat="51.058202991262078" lon="10.577412033453584">
        <ele>361.11000000000001</ele>
        <time>2017-05-21T11:54:16Z</time>
      </trkpt>
      <trkpt lat="51.059127012267709" lon="10.578962014988065">
        <ele>359.67000000000002</ele>
        <time>2017-05-21T11:54:23Z</time>
      </trkpt>
      <trkpt lat="51.059863027185202" lon="10.580701008439064">
        <ele>357.75</ele>
        <time>2017-05-21T11:54:32Z</time>
      </trkpt>
      <trkpt lat="51.060623014345765" lon="10.583145003765821">
        <ele>352.94</ele>
        <time>2017-05-21T11:54:42Z</time>
      </trkpt>
      <trkpt lat="51.06108502484858" lon="10.584369013085961">
        <ele>350.06</ele>
        <time>2017-05-21T11:54:46Z</time>
      </trkpt>
      <trkpt lat="51.061246041208506" lon="10.58464796282351">
        <ele>349.10000000000002</ele>
        <time>2017-05-21T11:54:47Z</time>
      </trkpt>
      <trkpt lat="51.06142801232636" lon="10.58490201830864">
        <ele>348.13</ele>
        <time>2017-05-21T11:54:48Z</time>
      </trkpt>
      <trkpt lat="51.061628004536033" lon="10.585136963054538">
        <ele>346.69</ele>
        <time>2017-05-21T11:54:49Z</time>
      </trkpt>
      <trkpt lat="51.061847023665905" lon="10.585341984406114">
        <ele>346.20999999999998</ele>
        <time>2017-05-21T11:54:50Z</time>
      </trkpt>
      <trkpt lat="51.062069982290268" lon="10.585529990494251">
        <ele>345.25</ele>
        <time>2017-05-21T11:54:51Z</time>
      </trkpt>
      <trkpt lat="51.064219018444419" lon="10.587216010317206">
        <ele>335.16000000000003</ele>
        <time>2017-05-21T11:55:01Z</time>
      </trkpt>
      <trkpt lat="51.065718038007617" lon="10.588371036574244">
        <ele>326.5</ele>
        <time>2017-05-21T11:55:07Z</time>
      </trkpt>
      <trkpt lat="51.067614024505019" lon="10.589858992025256">
        <ele>313.52999999999997</ele>
        <time>2017-05-21T11:55:15Z</time>
      </trkpt>
      <trkpt lat="51.069729030132294" lon="10.591679960489273">
        <ele>296.69999999999999</ele>
        <time>2017-05-21T11:55:26Z</time>
      </trkpt>
      <trkpt lat="51.071613030508161" lon="10.593285011127591">
        <ele>286.13</ele>
        <time>2017-05-21T11:55:36Z</time>
      </trkpt>
      <trkpt lat="51.071815034374595" lon="10.59336899779737">
        <ele>285.17000000000002</ele>
        <time>2017-05-21T11:55:37Z</time>
      </trkpt>
      <trkpt lat="51.073361998423934" lon="10.593768982216716">
        <ele>275.56</ele>
        <time>2017-05-21T11:55:44Z</time>
      </trkpt>
      <trkpt lat="51.075645983219147" lon="10.59442201629281">
        <ele>264.98000000000002</ele>
        <time>2017-05-21T11:55:55Z</time>
      </trkpt>
      <trkpt lat="51.075817979872227" lon="10.594556964933872">
        <ele>264.5</ele>
        <time>2017-05-21T11:55:56Z</time>
      </trkpt>
      <trkpt lat="51.075985031202435" lon="10.594731979072094">
        <ele>264.01999999999998</ele>
        <time>2017-05-21T11:55:57Z</time>
      </trkpt>
      <trkpt lat="51.077555967494845" lon="10.596727961674333">
        <ele>256.32999999999998</ele>
        <time>2017-05-21T11:56:06Z</time>
      </trkpt>
      <trkpt lat="51.077697034925222" lon="10.596970031037927">
        <ele>255.37</ele>
        <time>2017-05-21T11:56:07Z</time>
      </trkpt>
      <trkpt lat="51.077810022979975" lon="10.597239006310701">
        <ele>254.41</ele>
        <time>2017-05-21T11:56:08Z</time>
      </trkpt>
      <trkpt lat="51.077899960801005" lon="10.597544023767114">
        <ele>253.93000000000001</ele>
        <time>2017-05-21T11:56:09Z</time>
      </trkpt>
      <trkpt lat="51.077976990491152" lon="10.597875025123358">
        <ele>252.96000000000001</ele>
        <time>2017-05-21T11:56:10Z</time>
      </trkpt>
      <trkpt lat="51.078043961897492" lon="10.598227987065911">
        <ele>252</ele>
        <time>2017-05-21T11:56:11Z</time>
      </trkpt>
      <trkpt lat="51.078847032040358" lon="10.60222296975553">
        <ele>239.50999999999999</ele>
        <time>2017-05-21T11:56:23Z</time>
      </trkpt>
      <trkpt lat="51.080089984461665" lon="10.605666004121304">
        <ele>234.22</ele>
        <time>2017-05-21T11:56:35Z</time>
      </trkpt>
      <trkpt lat="51.081590009853244" lon="10.609219009056687">
        <ele>232.30000000000001</ele>
        <time>2017-05-21T11:56:49Z</time>
      </trkpt>
      <trkpt lat="51.08349303714931" lon="10.611950000748038">
        <ele>231.33000000000001</ele>
        <time>2017-05-21T11:57:02Z</time>
      </trkpt>
      <trkpt lat="51.084391996264458" lon="10.613150959834456">
        <ele>230.84999999999999</ele>
        <time>2017-05-21T11:57:10Z</time>
      </trkpt>
      <trkpt lat="51.085187019780278" lon="10.613783039152622">
        <ele>228.93000000000001</ele>
        <time>2017-05-21T11:57:15Z</time>
      </trkpt>
      <trkpt lat="51.086814031004906" lon="10.614857012405992">
        <ele>226.53</ele>
        <time>2017-05-21T11:57:24Z</time>
      </trkpt>
      <trkpt lat="51.08828597702086" lon="10.615893015637994">
        <ele>222.19999999999999</ele>
        <time>2017-05-21T11:57:32Z</time>
      </trkpt>
      <trkpt lat="51.089576035737991" lon="10.617280974984169">
        <ele>221.24000000000001</ele>
        <time>2017-05-21T11:57:41Z</time>
      </trkpt>
      <trkpt lat="51.089692963287234" lon="10.617502005770802">
        <ele>220.75999999999999</ele>
        <time>2017-05-21T11:57:42Z</time>
      </trkpt>
      <trkpt lat="51.089803017675877" lon="10.617741979658604">
        <ele>220.28</ele>
        <time>2017-05-21T11:57:43Z</time>
      </trkpt>
      <trkpt lat="51.090624025091529" lon="10.619785990566015">
        <ele>216.91</ele>
        <time>2017-05-21T11:57:51Z</time>
      </trkpt>
      <trkpt lat="51.091886004433036" lon="10.621415013447404">
        <ele>213.55000000000001</ele>
        <time>2017-05-21T11:58:00Z</time>
      </trkpt>
      <trkpt lat="51.092957966029644" lon="10.622784029692411">
        <ele>209.69999999999999</ele>
        <time>2017-05-21T11:58:09Z</time>
      </trkpt>
      <trkpt lat="51.09339902177453" lon="10.623646024614573">
        <ele>209.22</ele>
        <time>2017-05-21T11:58:18Z</time>
      </trkpt>
      <trkpt lat="51.093482002615929" lon="10.62385599128902">
        <ele>209.69999999999999</ele>
        <time>2017-05-21T11:58:21Z</time>
      </trkpt>
      <trkpt lat="51.093491977080703" lon="10.62396302819252">
        <ele>210.19</ele>
        <time>2017-05-21T11:58:22Z</time>
      </trkpt>
      <trkpt lat="51.093477979302406" lon="10.624086996540427">
        <ele>209.69999999999999</ele>
        <time>2017-05-21T11:58:23Z</time>
      </trkpt>
      <trkpt lat="51.093444032594562" lon="10.624229991808534">
        <ele>209.69999999999999</ele>
        <time>2017-05-21T11:58:24Z</time>
      </trkpt>
      <trkpt lat="51.093381000682712" lon="10.624370975419879">
        <ele>209.22</ele>
        <time>2017-05-21T11:58:25Z</time>
      </trkpt>
      <trkpt lat="51.093290979042649" lon="10.624509025365114">
        <ele>209.22</ele>
        <time>2017-05-21T11:58:26Z</time>
      </trkpt>
      <trkpt lat="51.09318695962429" lon="10.624644979834557">
        <ele>208.74000000000001</ele>
        <time>2017-05-21T11:58:27Z</time>
      </trkpt>
      <trkpt lat="51.092198984697461" lon="10.62604702077806">
        <ele>208.25999999999999</ele>
        <time>2017-05-21T11:58:35Z</time>
      </trkpt>
      <trkpt lat="51.092104017734528" lon="10.626282971352339">
        <ele>208.25999999999999</ele>
        <time>2017-05-21T11:58:36Z</time>
      </trkpt>
      <trkpt lat="51.092028999701142" lon="10.626539038494229">
        <ele>208.25999999999999</ele>
        <time>2017-05-21T11:58:37Z</time>
      </trkpt>
      <trkpt lat="51.091977031901479" lon="10.626808013767004">
        <ele>208.25999999999999</ele>
        <time>2017-05-21T11:58:38Z</time>
      </trkpt>
      <trkpt lat="51.091950964182615" lon="10.627086041495204">
        <ele>208.74000000000001</ele>
        <time>2017-05-21T11:58:39Z</time>
      </trkpt>
      <trkpt lat="51.091946018859744" lon="10.627368008717895">
        <ele>208.74000000000001</ele>
        <time>2017-05-21T11:58:40Z</time>
      </trkpt>
      <trkpt lat="51.091962028294802" lon="10.62763798981905">
        <ele>209.22</ele>
        <time>2017-05-21T11:58:41Z</time>
      </trkpt>
      <trkpt lat="51.092003015801311" lon="10.627888021990657">
        <ele>209.22</ele>
        <time>2017-05-21T11:58:42Z</time>
      </trkpt>
      <trkpt lat="51.092056995257735" lon="10.628119027242064">
        <ele>209.22</ele>
        <time>2017-05-21T11:58:43Z</time>
      </trkpt>
      <trkpt lat="51.092127989977598" lon="10.628328993916512">
        <ele>209.22</ele>
        <time>2017-05-21T11:58:44Z</time>
      </trkpt>
      <trkpt lat="51.092213988304138" lon="10.628524962812662">
        <ele>209.69999999999999</ele>
        <time>2017-05-21T11:58:45Z</time>
      </trkpt>
      <trkpt lat="51.092310966923833" lon="10.628706011921167">
        <ele>209.69999999999999</ele>
        <time>2017-05-21T11:58:46Z</time>
      </trkpt>
      <trkpt lat="51.092415992170572" lon="10.628864010795951">
        <ele>209.69999999999999</ele>
        <time>2017-05-21T11:58:47Z</time>
      </trkpt>
      <trkpt lat="51.092528980225325" lon="10.628998037427664">
        <ele>209.69999999999999</ele>
        <time>2017-05-21T11:58:48Z</time>
      </trkpt>
      <trkpt lat="51.092645991593599" lon="10.62910096719861">
        <ele>209.69999999999999</ele>
        <time>2017-05-21T11:58:49Z</time>
      </trkpt>
      <trkpt lat="51.092758979648352" lon="10.629182020202279">
        <ele>209.69999999999999</ele>
        <time>2017-05-21T11:58:50Z</time>
      </trkpt>
      <trkpt lat="51.09286299906671" lon="10.629263995215297">
        <ele>209.69999999999999</ele>
        <time>2017-05-21T11:58:51Z</time>
      </trkpt>
      <trkpt lat="51.092945979908109" lon="10.62935896217823">
        <ele>209.69999999999999</ele>
        <time>2017-05-21T11:58:52Z</time>
      </trkpt>
      <trkpt lat="51.093005994334817" lon="10.629492988809943">
        <ele>210.19</ele>
        <time>2017-05-21T11:58:53Z</time>
      </trkpt>
      <trkpt lat="51.093039019033313" lon="10.629665991291404">
        <ele>210.66999999999999</ele>
        <time>2017-05-21T11:58:54Z</time>
      </trkpt>
      <trkpt lat="51.09305402263999" lon="10.629869000986218">
        <ele>211.15000000000001</ele>
        <time>2017-05-21T11:58:55Z</time>
      </trkpt>
      <trkpt lat="51.093057040125132" lon="10.630097994580865">
        <ele>212.11000000000001</ele>
        <time>2017-05-21T11:58:56Z</time>
      </trkpt>
      <trkpt lat="51.093081012368202" lon="10.633278004825115">
        <ele>221.24000000000001</ele>
        <time>2017-05-21T11:59:08Z</time>
      </trkpt>
      <trkpt lat="51.092923013493419" lon="10.636778036132455">
        <ele>225.56999999999999</ele>
        <time>2017-05-21T11:59:19Z</time>
      </trkpt>
      <trkpt lat="51.092867022380233" lon="10.637573981657624">
        <ele>226.53</ele>
        <time>2017-05-21T11:59:22Z</time>
      </trkpt>
      <trkpt lat="51.092826034873724" lon="10.637785037979484">
        <ele>226.53</ele>
        <time>2017-05-21T11:59:23Z</time>
      </trkpt>
      <trkpt lat="51.092768032103777" lon="10.637985030189157">
        <ele>227.00999999999999</ele>
        <time>2017-05-21T11:59:24Z</time>
      </trkpt>
      <trkpt lat="51.092685973271728" lon="10.638170018792152">
        <ele>227.97</ele>
        <time>2017-05-21T11:59:25Z</time>
      </trkpt>
      <trkpt lat="51.092577008530498" lon="10.638326006010175">
        <ele>228.44999999999999</ele>
        <time>2017-05-21T11:59:26Z</time>
      </trkpt>
      <trkpt lat="51.092451028525829" lon="10.638450980186462">
        <ele>229.41</ele>
        <time>2017-05-21T11:59:27Z</time>
      </trkpt>
      <trkpt lat="51.092314990237355" lon="10.638560028746724">
        <ele>229.88999999999999</ele>
        <time>2017-05-21T11:59:28Z</time>
      </trkpt>
      <trkpt lat="51.092180963605642" lon="10.638664970174432">
        <ele>230.37</ele>
        <time>2017-05-21T11:59:29Z</time>
      </trkpt>
      <trkpt lat="51.092065963894129" lon="10.638798996806145">
        <ele>230.84999999999999</ele>
        <time>2017-05-21T11:59:30Z</time>
      </trkpt>
      <trkpt lat="51.091970996931195" lon="10.638959007337689">
        <ele>231.81</ele>
        <time>2017-05-21T11:59:31Z</time>
      </trkpt>
      <trkpt lat="51.091901008039713" lon="10.639152964577079">
        <ele>231.81</ele>
        <time>2017-05-21T11:59:32Z</time>
      </trkpt>
      <trkpt lat="51.091861026361585" lon="10.639372989535332">
        <ele>232.78</ele>
        <time>2017-05-21T11:59:33Z</time>
      </trkpt>
      <trkpt lat="51.091838981956244" lon="10.639603994786739">
        <ele>233.74000000000001</ele>
        <time>2017-05-21T11:59:34Z</time>
      </trkpt>
      <trkpt lat="51.091825990006328" lon="10.639832988381386">
        <ele>234.22</ele>
        <time>2017-05-21T11:59:35Z</time>
      </trkpt>
      <trkpt lat="51.09165801666677" lon="10.642275977879763">
        <ele>240.47</ele>
        <time>2017-05-21T11:59:46Z</time>
      </trkpt>
      <trkpt lat="51.091625997796655" lon="10.642410004511476">
        <ele>240.94999999999999</ele>
        <time>2017-05-21T11:59:47Z</time>
      </trkpt>
      <trkpt lat="51.091588027775288" lon="10.642514023929834">
        <ele>240.94999999999999</ele>
        <time>2017-05-21T11:59:48Z</time>
      </trkpt>
      <trkpt lat="51.091532958671451" lon="10.642714016139507">
        <ele>240.94999999999999</ele>
        <time>2017-05-21T11:59:50Z</time>
      </trkpt>
      <trkpt lat="51.091542011126876" lon="10.642819963395596">
        <ele>240.47</ele>
        <time>2017-05-21T11:59:51Z</time>
      </trkpt>
      <trkpt lat="51.091584004461765" lon="10.642903028056026">
        <ele>239.99000000000001</ele>
        <time>2017-05-21T11:59:52Z</time>
      </trkpt>
      <trkpt lat="51.091646030545235" lon="10.642952984198928">
        <ele>239.50999999999999</ele>
        <time>2017-05-21T11:59:53Z</time>
      </trkpt>
      <trkpt lat="51.091715013608336" lon="10.642948960885406">
        <ele>239.02000000000001</ele>
        <time>2017-05-21T11:59:54Z</time>
      </trkpt>
      <trkpt lat="51.091783996671438" lon="10.642908979207277">
        <ele>238.53999999999999</ele>
        <time>2017-05-21T11:59:55Z</time>
      </trkpt>
      <trkpt lat="51.091855997219682" lon="10.642860028892756">
        <ele>238.06</ele>
        <time>2017-05-21T11:59:56Z</time>
      </trkpt>
      <trkpt lat="51.092044003307819" lon="10.642838990315795">
        <ele>237.09999999999999</ele>
        <time>2017-05-21T11:59:58Z</time>
      </trkpt>
      <trkpt lat="51.093279998749495" lon="10.643083993345499">
        <ele>228.44999999999999</ele>
        <time>2017-05-21T12:00:08Z</time>
      </trkpt>
      <trkpt lat="51.093488959595561" lon="10.643162028864026">
        <ele>227.49000000000001</ele>
        <time>2017-05-21T12:00:10Z</time>
      </trkpt>
      <trkpt lat="51.093575041741133" lon="10.643223971128464">
        <ele>227.49000000000001</ele>
        <time>2017-05-21T12:00:11Z</time>
      </trkpt>
      <trkpt lat="51.09372197650373" lon="10.643352968618274">
        <ele>227.00999999999999</ele>
        <time>2017-05-21T12:00:13Z</time>
      </trkpt>
      <trkpt lat="51.093802023679018" lon="10.643362021073699">
        <ele>226.53</ele>
        <time>2017-05-21T12:00:14Z</time>
      </trkpt>
      <trkpt lat="51.0938910394907" lon="10.643336037173867">
        <ele>226.05000000000001</ele>
        <time>2017-05-21T12:00:15Z</time>
      </trkpt>
      <trkpt lat="51.094107963144779" lon="10.643296977505088">
        <ele>225.09</ele>
        <time>2017-05-21T12:00:17Z</time>
      </trkpt>
      <trkpt lat="51.094241989776492" lon="10.643313992768526">
        <ele>224.61000000000001</ele>
        <time>2017-05-21T12:00:18Z</time>
      </trkpt>
      <trkpt lat="51.095605976879597" lon="10.643632002174854">
        <ele>218.84</ele>
        <time>2017-05-21T12:00:26Z</time>
      </trkpt>
      <trkpt lat="51.09698798507452" lon="10.644067022949457">
        <ele>214.03</ele>
        <time>2017-05-21T12:00:34Z</time>
      </trkpt>
      <trkpt lat="51.098697977140546" lon="10.644915020093322">
        <ele>213.55000000000001</ele>
        <time>2017-05-21T12:00:45Z</time>
      </trkpt>
      <trkpt lat="51.099385041743517" lon="10.645214002579451">
        <ele>213.06999999999999</ele>
        <time>2017-05-21T12:00:52Z</time>
      </trkpt>
      <trkpt lat="51.100473012775183" lon="10.645611975342035">
        <ele>209.22</ele>
        <time>2017-05-21T12:01:05Z</time>
      </trkpt>
      <trkpt lat="51.100911973044276" lon="10.645784977823496">
        <ele>206.34</ele>
        <time>2017-05-21T12:01:14Z</time>
      </trkpt>
      <trkpt lat="51.100910967215896" lon="10.645787995308638">
        <ele>206.34</ele>
        <time>2017-05-21T12:01:35Z</time>
      </trkpt>
      <trkpt lat="51.101172985509038" lon="10.645916992798448">
        <ele>205.86000000000001</ele>
        <time>2017-05-21T12:01:56Z</time>
      </trkpt>
      <trkpt lat="51.102041015401483" lon="10.646282024681568">
        <ele>202.49000000000001</ele>
        <time>2017-05-21T12:02:05Z</time>
      </trkpt>
      <trkpt lat="51.103384969756007" lon="10.64680103212595">
        <ele>197.21000000000001</ele>
        <time>2017-05-21T12:02:19Z</time>
      </trkpt>
      <trkpt lat="51.10506696626544" lon="10.647445013746619">
        <ele>191.44</ele>
        <time>2017-05-21T12:02:34Z</time>
      </trkpt>
      <trkpt lat="51.105770040303469" lon="10.647762017324567">
        <ele>189.03999999999999</ele>
        <time>2017-05-21T12:02:41Z</time>
      </trkpt>
      <trkpt lat="51.105866013094783" lon="10.647869976237416">
        <ele>190</ele>
        <time>2017-05-21T12:02:42Z</time>
      </trkpt>
      <trkpt lat="51.10654603689909" lon="10.6491469591856">
        <ele>187.59</ele>
        <time>2017-05-21T12:02:51Z</time>
      </trkpt>
      <trkpt lat="51.106837978586555" lon="10.649715000763535">
        <ele>187.59</ele>
        <time>2017-05-21T12:02:56Z</time>
      </trkpt>
      <trkpt lat="51.106863040477037" lon="10.649837041273713">
        <ele>187.59</ele>
        <time>2017-05-21T12:02:57Z</time>
      </trkpt>
      <trkpt lat="51.106886006891727" lon="10.649958997964859">
        <ele>187.59</ele>
        <time>2017-05-21T12:02:58Z</time>
      </trkpt>
      <trkpt lat="51.106896987184882" lon="10.650075003504753">
        <ele>188.08000000000001</ele>
        <time>2017-05-21T12:02:59Z</time>
      </trkpt>
      <trkpt lat="51.106896987184882" lon="10.650199977681041">
        <ele>188.08000000000001</ele>
        <time>2017-05-21T12:03:00Z</time>
      </trkpt>
      <trkpt lat="51.10689396969974" lon="10.65032402984798">
        <ele>188.08000000000001</ele>
        <time>2017-05-21T12:03:01Z</time>
      </trkpt>
      <trkpt lat="51.106887012720108" lon="10.650447998195887">
        <ele>187.59</ele>
        <time>2017-05-21T12:03:02Z</time>
      </trkpt>
      <trkpt lat="51.106753991916776" lon="10.651863031089306">
        <ele>187.11000000000001</ele>
        <time>2017-05-21T12:03:13Z</time>
      </trkpt>
      <trkpt lat="51.106719961389899" lon="10.652128988876939">
        <ele>188.08000000000001</ele>
        <time>2017-05-21T12:03:21Z</time>
      </trkpt>
      <trkpt lat="51.106717027723789" lon="10.652175005525351">
        <ele>188.08000000000001</ele>
        <time>2017-05-21T12:04:05Z</time>
      </trkpt>
      <trkpt lat="51.106722978875041" lon="10.652261003851891">
        <ele>188.08000000000001</ele>
        <time>2017-05-21T12:04:06Z</time>
      </trkpt>
      <trkpt lat="51.106754997745156" lon="10.652351025491953">
        <ele>188.08000000000001</ele>
        <time>2017-05-21T12:04:07Z</time>
      </trkpt>
      <trkpt lat="51.106810988858342" lon="10.652411039918661">
        <ele>188.56</ele>
        <time>2017-05-21T12:04:08Z</time>
      </trkpt>
      <trkpt lat="51.106878966093063" lon="10.652439035475254">
        <ele>188.56</ele>
        <time>2017-05-21T12:04:09Z</time>
      </trkpt>
      <trkpt lat="51.106950966641307" lon="10.65245202742517">
        <ele>188.56</ele>
        <time>2017-05-21T12:04:10Z</time>
      </trkpt>
      <trkpt lat="51.107840035110712" lon="10.652627041563392">
        <ele>188.56</ele>
        <time>2017-05-21T12:04:19Z</time>
      </trkpt>
      <trkpt lat="51.109261019155383" lon="10.653326008468866">
        <ele>191.44</ele>
        <time>2017-05-21T12:04:31Z</time>
      </trkpt>
      <trkpt lat="51.110920971259475" lon="10.654240977019072">
        <ele>190.47999999999999</ele>
        <time>2017-05-21T12:04:45Z</time>
      </trkpt>
      <trkpt lat="51.112427031621337" lon="10.655402038246393">
        <ele>187.11000000000001</ele>
        <time>2017-05-21T12:04:57Z</time>
      </trkpt>
      <trkpt lat="51.112983003258705" lon="10.656690001487732">
        <ele>187.11000000000001</ele>
        <time>2017-05-21T12:05:04Z</time>
      </trkpt>
      <trkpt lat="51.113141002133489" lon="10.657127033919096">
        <ele>186.63</ele>
        <time>2017-05-21T12:05:09Z</time>
      </trkpt>
      <trkpt lat="51.113222977146506" lon="10.65737396478653">
        <ele>186.63</ele>
        <time>2017-05-21T12:05:15Z</time>
      </trkpt>
      <trkpt lat="51.113633019849658" lon="10.658528991043568">
        <ele>185.66999999999999</ele>
        <time>2017-05-21T12:05:22Z</time>
      </trkpt>
      <trkpt lat="51.114603979513049" lon="10.660474011674523">
        <ele>183.75</ele>
        <time>2017-05-21T12:05:32Z</time>
      </trkpt>
      <trkpt lat="51.115966038778424" lon="10.662732012569904">
        <ele>179.41999999999999</ele>
        <time>2017-05-21T12:05:42Z</time>
      </trkpt>
      <trkpt lat="51.117126010358334" lon="10.664674015715718">
        <ele>174.62</ele>
        <time>2017-05-21T12:05:51Z</time>
      </trkpt>
      <trkpt lat="51.118897022679448" lon="10.667679011821747">
        <ele>172.69</ele>
        <time>2017-05-21T12:06:07Z</time>
      </trkpt>
      <trkpt lat="51.119863959029317" lon="10.669767027720809">
        <ele>174.62</ele>
        <time>2017-05-21T12:06:15Z</time>
      </trkpt>
      <trkpt lat="51.120634004473686" lon="10.670738993212581">
        <ele>176.06</ele>
        <time>2017-05-21T12:06:21Z</time>
      </trkpt>
      <trkpt lat="51.12126499414444" lon="10.671129003167152">
        <ele>176.53999999999999</ele>
        <time>2017-05-21T12:06:26Z</time>
      </trkpt>
      <trkpt lat="51.121391979977489" lon="10.6711679790169">
        <ele>177.02000000000001</ele>
        <time>2017-05-21T12:06:27Z</time>
      </trkpt>
      <trkpt lat="51.121528018265963" lon="10.671172002330422">
        <ele>177.02000000000001</ele>
        <time>2017-05-21T12:06:28Z</time>
      </trkpt>
      <trkpt lat="51.121667996048927" lon="10.671152975410223">
        <ele>177.5</ele>
        <time>2017-05-21T12:06:29Z</time>
      </trkpt>
      <trkpt lat="51.121795987710357" lon="10.671122968196869">
        <ele>177.5</ele>
        <time>2017-05-21T12:06:30Z</time>
      </trkpt>
      <trkpt lat="51.121932025998831" lon="10.671069994568825">
        <ele>177.97999999999999</ele>
        <time>2017-05-21T12:06:31Z</time>
      </trkpt>
      <trkpt lat="51.122057000175118" lon="10.6710160151124">
        <ele>177.97999999999999</ele>
        <time>2017-05-21T12:06:32Z</time>
      </trkpt>
      <trkpt lat="51.122170994058251" lon="10.670958012342453">
        <ele>178.46000000000001</ele>
        <time>2017-05-21T12:06:33Z</time>
      </trkpt>
      <trkpt lat="51.12285302951932" lon="10.670698005706072">
        <ele>182.31</ele>
        <time>2017-05-21T12:06:40Z</time>
      </trkpt>
      <trkpt lat="51.122943973168731" lon="10.670691970735788">
        <ele>182.78999999999999</ele>
        <time>2017-05-21T12:06:41Z</time>
      </trkpt>
      <trkpt lat="51.123037012293935" lon="10.670700017362833">
        <ele>182.78999999999999</ele>
        <time>2017-05-21T12:06:42Z</time>
      </trkpt>
      <trkpt lat="51.123717958107591" lon="10.670924987643957">
        <ele>180.38</ele>
        <time>2017-05-21T12:06:49Z</time>
      </trkpt>
      <trkpt lat="51.123795993626118" lon="10.671005034819245">
        <ele>180.38</ele>
        <time>2017-05-21T12:06:50Z</time>
      </trkpt>
      <trkpt lat="51.123870005831122" lon="10.671104025095701">
        <ele>180.87</ele>
        <time>2017-05-21T12:06:51Z</time>
      </trkpt>
      <trkpt lat="51.123922979459167" lon="10.671223970130086">
        <ele>180.38</ele>
        <time>2017-05-21T12:06:52Z</time>
      </trkpt>
      <trkpt lat="51.123965978622437" lon="10.671357996761799">
        <ele>180.87</ele>
        <time>2017-05-21T12:06:53Z</time>
      </trkpt>
      <trkpt lat="51.124277031049132" lon="10.672413026914001">
        <ele>177.97999999999999</ele>
        <time>2017-05-21T12:07:00Z</time>
      </trkpt>
      <trkpt lat="51.124307960271835" lon="10.672574965283275">
        <ele>177.5</ele>
        <time>2017-05-21T12:07:01Z</time>
      </trkpt>
      <trkpt lat="51.124322963878512" lon="10.672746961936355">
        <ele>177.5</ele>
        <time>2017-05-21T12:07:02Z</time>
      </trkpt>
      <trkpt lat="51.124331010505557" lon="10.672912001609802">
        <ele>177.5</ele>
        <time>2017-05-21T12:07:03Z</time>
      </trkpt>
      <trkpt lat="51.124333022162318" lon="10.673070000484586">
        <ele>177.5</ele>
        <time>2017-05-21T12:07:04Z</time>
      </trkpt>
      <trkpt lat="51.124327993020415" lon="10.673233028501272">
        <ele>177.5</ele>
        <time>2017-05-21T12:07:05Z</time>
      </trkpt>
      <trkpt lat="51.124327993020415" lon="10.673407958820462">
        <ele>177.5</ele>
        <time>2017-05-21T12:07:06Z</time>
      </trkpt>
      <trkpt lat="51.124346014112234" lon="10.673583978787065">
        <ele>177.5</ele>
        <time>2017-05-21T12:07:07Z</time>
      </trkpt>
      <trkpt lat="51.124387001618743" lon="10.673754969611764">
        <ele>177.02000000000001</ele>
        <time>2017-05-21T12:07:08Z</time>
      </trkpt>
      <trkpt lat="51.124452967196703" lon="10.67391699180007">
        <ele>177.02000000000001</ele>
        <time>2017-05-21T12:07:09Z</time>
      </trkpt>
      <trkpt lat="51.124540977180004" lon="10.674052024260163">
        <ele>176.53999999999999</ele>
        <time>2017-05-21T12:07:10Z</time>
      </trkpt>
      <trkpt lat="51.124648014083505" lon="10.674172975122929">
        <ele>177.02000000000001</ele>
        <time>2017-05-21T12:07:11Z</time>
      </trkpt>
      <trkpt lat="51.124757984653115" lon="10.674285963177681">
        <ele>177.02000000000001</ele>
        <time>2017-05-21T12:07:12Z</time>
      </trkpt>
      <trkpt lat="51.125443959608674" lon="10.674919970333576">
        <ele>177.97999999999999</ele>
        <time>2017-05-21T12:07:18Z</time>
      </trkpt>
      <trkpt lat="51.126575013622642" lon="10.675395978614688">
        <ele>178.94</ele>
        <time>2017-05-21T12:07:27Z</time>
      </trkpt>
      <trkpt lat="51.127893989905715" lon="10.676177004352212">
        <ele>183.75</ele>
        <time>2017-05-21T12:07:38Z</time>
      </trkpt>
      <trkpt lat="51.129203997552395" lon="10.677295988425612">
        <ele>188.08000000000001</ele>
        <time>2017-05-21T12:07:49Z</time>
      </trkpt>
      <trkpt lat="51.129576992243528" lon="10.677613997831941">
        <ele>190</ele>
        <time>2017-05-21T12:07:52Z</time>
      </trkpt>
      <trkpt lat="51.129959039390087" lon="10.678025968372822">
        <ele>191.91999999999999</ele>
        <time>2017-05-21T12:07:55Z</time>
      </trkpt>
      <trkpt lat="51.130120977759361" lon="10.678142979741096">
        <ele>192.88</ele>
        <time>2017-05-21T12:07:56Z</time>
      </trkpt>
      <trkpt lat="51.130301021039486" lon="10.678237024694681">
        <ele>193.84</ele>
        <time>2017-05-21T12:07:57Z</time>
      </trkpt>
      <trkpt lat="51.131263012066483" lon="10.678765000775456">
        <ele>197.69</ele>
        <time>2017-05-21T12:08:02Z</time>
      </trkpt>
      <trkpt lat="51.131475996226072" lon="10.678830966353416">
        <ele>198.65000000000001</ele>
        <time>2017-05-21T12:08:03Z</time>
      </trkpt>
      <trkpt lat="51.133656967431307" lon="10.679359026253223">
        <ele>207.30000000000001</ele>
        <time>2017-05-21T12:08:12Z</time>
      </trkpt>
      <trkpt lat="51.136991959065199" lon="10.680195037275553">
        <ele>219.80000000000001</ele>
        <time>2017-05-21T12:08:25Z</time>
      </trkpt>
      <trkpt lat="51.140075996518135" lon="10.680951001122594">
        <ele>233.74000000000001</ele>
        <time>2017-05-21T12:08:37Z</time>
      </trkpt>
      <trkpt lat="51.14259802736342" lon="10.681693973019719">
        <ele>243.34999999999999</ele>
        <time>2017-05-21T12:08:47Z</time>
      </trkpt>
      <trkpt lat="51.144096041098237" lon="10.68233703263104">
        <ele>248.63999999999999</ele>
        <time>2017-05-21T12:08:52Z</time>
      </trkpt>
      <trkpt lat="51.146744973957539" lon="10.683565987274051">
        <ele>261.62</ele>
        <time>2017-05-21T12:09:02Z</time>
      </trkpt>
      <trkpt lat="51.151549983769655" lon="10.686188014224172">
        <ele>271.70999999999998</ele>
        <time>2017-05-21T12:09:20Z</time>
      </trkpt>
      <trkpt lat="51.152581041678786" lon="10.686613982543349">
        <ele>273.14999999999998</ele>
        <time>2017-05-21T12:09:24Z</time>
      </trkpt>
      <trkpt lat="51.152851022779942" lon="10.686627980321646">
        <ele>274.11000000000001</ele>
        <time>2017-05-21T12:09:25Z</time>
      </trkpt>
      <trkpt lat="51.153125027194619" lon="10.686598978936672">
        <ele>275.06999999999999</ele>
        <time>2017-05-21T12:09:26Z</time>
      </trkpt>
      <trkpt lat="51.153401965275407" lon="10.686526978388429">
        <ele>275.56</ele>
        <time>2017-05-21T12:09:27Z</time>
      </trkpt>
      <trkpt lat="51.153682004660368" lon="10.686425976455212">
        <ele>276.04000000000002</ele>
        <time>2017-05-21T12:09:28Z</time>
      </trkpt>
      <trkpt lat="51.153960032388568" lon="10.686299996450543">
        <ele>277</ele>
        <time>2017-05-21T12:09:29Z</time>
      </trkpt>
      <trkpt lat="51.156708039343357" lon="10.685072969645262">
        <ele>277.95999999999998</ele>
        <time>2017-05-21T12:09:39Z</time>
      </trkpt>
      <trkpt lat="51.159322019666433" lon="10.684623029083014">
        <ele>279.39999999999998</ele>
        <time>2017-05-21T12:09:48Z</time>
      </trkpt>
      <trkpt lat="51.161468960344791" lon="10.684427982196212">
        <ele>278.92000000000002</ele>
        <time>2017-05-21T12:09:56Z</time>
      </trkpt>
      <trkpt lat="51.161729972809553" lon="10.684524960815907">
        <ele>278.92000000000002</ele>
        <time>2017-05-21T12:09:57Z</time>
      </trkpt>
      <trkpt lat="51.161997020244598" lon="10.684664016589522">
        <ele>278.44</ele>
        <time>2017-05-21T12:09:58Z</time>
      </trkpt>
      <trkpt lat="51.163835003972054" lon="10.685658026486635">
        <ele>277.48000000000002</ele>
        <time>2017-05-21T12:10:05Z</time>
      </trkpt>
      <trkpt lat="51.166283022612333" lon="10.686709033325315">
        <ele>262.10000000000002</ele>
        <time>2017-05-21T12:10:14Z</time>
      </trkpt>
      <trkpt lat="51.168086975812912" lon="10.687919966876507">
        <ele>254.88999999999999</ele>
        <time>2017-05-21T12:10:21Z</time>
      </trkpt>
      <trkpt lat="51.169255999848247" lon="10.688736028969288">
        <ele>250.08000000000001</ele>
        <time>2017-05-21T12:10:27Z</time>
      </trkpt>
      <trkpt lat="51.16941299289465" lon="10.688894027844071">
        <ele>249.59999999999999</ele>
        <time>2017-05-21T12:10:28Z</time>
      </trkpt>
      <trkpt lat="51.169546013697982" lon="10.689100977033377">
        <ele>248.63999999999999</ele>
        <time>2017-05-21T12:10:29Z</time>
      </trkpt>
      <trkpt lat="51.169675011187792" lon="10.689332988113165">
        <ele>247.68000000000001</ele>
        <time>2017-05-21T12:10:30Z</time>
      </trkpt>
      <trkpt lat="51.169804008677602" lon="10.689597018063068">
        <ele>246.72</ele>
        <time>2017-05-21T12:10:31Z</time>
      </trkpt>
      <trkpt lat="51.169936023652554" lon="10.689878985285759">
        <ele>246.22999999999999</ele>
        <time>2017-05-21T12:10:32Z</time>
      </trkpt>
      <trkpt lat="51.170091005042195" lon="10.690149972215295">
        <ele>245.27000000000001</ele>
        <time>2017-05-21T12:10:33Z</time>
      </trkpt>
      <trkpt lat="51.170267025008798" lon="10.690419031307101">
        <ele>244.31</ele>
        <time>2017-05-21T12:10:34Z</time>
      </trkpt>
      <trkpt lat="51.172019010409713" lon="10.692407973110676">
        <ele>238.06</ele>
        <time>2017-05-21T12:10:42Z</time>
      </trkpt>
      <trkpt lat="51.173634035512805" lon="10.694701010361314">
        <ele>239.50999999999999</ele>
        <time>2017-05-21T12:10:50Z</time>
      </trkpt>
      <trkpt lat="51.17525702342391" lon="10.697462009266019">
        <ele>250.08000000000001</ele>
        <time>2017-05-21T12:10:59Z</time>
      </trkpt>
      <trkpt lat="51.176894009113312" lon="10.700860032811761">
        <ele>255.37</ele>
        <time>2017-05-21T12:11:09Z</time>
      </trkpt>
      <trkpt lat="51.177898999303579" lon="10.702930027619004">
        <ele>253.44</ele>
        <time>2017-05-21T12:11:17Z</time>
      </trkpt>
      <trkpt lat="51.179323000833392" lon="10.706061003729701">
        <ele>251.03999999999999</ele>
        <time>2017-05-21T12:11:31Z</time>
      </trkpt>
      <trkpt lat="51.179937981069088" lon="10.70689701475203">
        <ele>250.08000000000001</ele>
        <time>2017-05-21T12:11:37Z</time>
      </trkpt>
      <trkpt lat="51.181287970393896" lon="10.708523020148277">
        <ele>257.76999999999998</ele>
        <time>2017-05-21T12:11:52Z</time>
      </trkpt>
      <trkpt lat="51.182579034939408" lon="10.71001298725605">
        <ele>260.17000000000002</ele>
        <time>2017-05-21T12:12:07Z</time>
      </trkpt>
      <trkpt lat="51.182682970538735" lon="10.710088005289435">
        <ele>260.64999999999998</ele>
        <time>2017-05-21T12:12:08Z</time>
      </trkpt>
      <trkpt lat="51.183003997430205" lon="10.710239969193935">
        <ele>261.13999999999999</ele>
        <time>2017-05-21T12:12:11Z</time>
      </trkpt>
      <trkpt lat="51.183114973828197" lon="10.710262013599277">
        <ele>261.62</ele>
        <time>2017-05-21T12:12:12Z</time>
      </trkpt>
      <trkpt lat="51.183225028216839" lon="10.71026997640729">
        <ele>262.10000000000002</ele>
        <time>2017-05-21T12:12:13Z</time>
      </trkpt>
      <trkpt lat="51.18333600461483" lon="10.710264025256038">
        <ele>262.10000000000002</ele>
        <time>2017-05-21T12:12:14Z</time>
      </trkpt>
      <trkpt lat="51.183445975184441" lon="10.710246004164219">
        <ele>262.57999999999998</ele>
        <time>2017-05-21T12:12:15Z</time>
      </trkpt>
      <trkpt lat="51.183559969067574" lon="10.710208034142852">
        <ele>263.06</ele>
        <time>2017-05-21T12:12:16Z</time>
      </trkpt>
      <trkpt lat="51.183677986264229" lon="10.710161011666059">
        <ele>263.06</ele>
        <time>2017-05-21T12:12:17Z</time>
      </trkpt>
      <trkpt lat="51.185369035229087" lon="10.709418961778283">
        <ele>267.38</ele>
        <time>2017-05-21T12:12:31Z</time>
      </trkpt>
      <trkpt lat="51.186514003202319" lon="10.709348972886801">
        <ele>271.70999999999998</ele>
        <time>2017-05-21T12:12:39Z</time>
      </trkpt>
      <trkpt lat="51.187677998095751" lon="10.70945399813354">
        <ele>278.44</ele>
        <time>2017-05-21T12:12:45Z</time>
      </trkpt>
      <trkpt lat="51.187883019447327" lon="10.709542008116841">
        <ele>279.88</ele>
        <time>2017-05-21T12:12:46Z</time>
      </trkpt>
      <trkpt lat="51.188090974465013" lon="10.709657007828355">
        <ele>281.31999999999999</ele>
        <time>2017-05-21T12:12:47Z</time>
      </trkpt>
      <trkpt lat="51.190421981737018" lon="10.711117973551154">
        <ele>290.94</ele>
        <time>2017-05-21T12:12:57Z</time>
      </trkpt>
      <trkpt lat="51.192153012380004" lon="10.711926994845271">
        <ele>298.14999999999998</ele>
        <time>2017-05-21T12:13:04Z</time>
      </trkpt>
      <trkpt lat="51.194276986643672" lon="10.712615987285972">
        <ele>305.83999999999997</ele>
        <time>2017-05-21T12:13:13Z</time>
      </trkpt>
      <trkpt lat="51.196212032809854" lon="10.713646039366722">
        <ele>313.05000000000001</ele>
        <time>2017-05-21T12:13:23Z</time>
      </trkpt>
      <trkpt lat="51.197812976315618" lon="10.715357959270477">
        <ele>320.25999999999999</ele>
        <time>2017-05-21T12:13:31Z</time>
      </trkpt>
      <trkpt lat="51.198899019509554" lon="10.717158978804946">
        <ele>325.06</ele>
        <time>2017-05-21T12:13:37Z</time>
      </trkpt>
      <trkpt lat="51.20024599134922" lon="10.7188640255481">
        <ele>327.47000000000003</ele>
        <time>2017-05-21T12:13:44Z</time>
      </trkpt>
      <trkpt lat="51.201539989560843" lon="10.719725014641881">
        <ele>327.94999999999999</ele>
        <time>2017-05-21T12:13:50Z</time>
      </trkpt>
      <trkpt lat="51.202865000814199" lon="10.719904974102974">
        <ele>328.43000000000001</ele>
        <time>2017-05-21T12:13:56Z</time>
      </trkpt>
      <trkpt lat="51.203074967488647" lon="10.719822999089956">
        <ele>327.94999999999999</ele>
        <time>2017-05-21T12:13:57Z</time>
      </trkpt>
      <trkpt lat="51.203289963304996" lon="10.719695007428527">
        <ele>327.94999999999999</ele>
        <time>2017-05-21T12:13:58Z</time>
      </trkpt>
      <trkpt lat="51.205620970577002" lon="10.717977974563837">
        <ele>324.57999999999998</ele>
        <time>2017-05-21T12:14:09Z</time>
      </trkpt>
      <trkpt lat="51.208088016137481" lon="10.716172009706497">
        <ele>324.57999999999998</ele>
        <time>2017-05-21T12:14:20Z</time>
      </trkpt>
      <trkpt lat="51.209653001278639" lon="10.715208007022738">
        <ele>322.66000000000003</ele>
        <time>2017-05-21T12:14:27Z</time>
      </trkpt>
      <trkpt lat="51.20987000875175" lon="10.715145980939269">
        <ele>321.69999999999999</ele>
        <time>2017-05-21T12:14:28Z</time>
      </trkpt>
      <trkpt lat="51.210091039538383" lon="10.715128965675831">
        <ele>320.25999999999999</ele>
        <time>2017-05-21T12:14:29Z</time>
      </trkpt>
      <trkpt lat="51.210321038961411" lon="10.715160984545946">
        <ele>319.30000000000001</ele>
        <time>2017-05-21T12:14:30Z</time>
      </trkpt>
      <trkpt lat="51.212067995220423" lon="10.715610003098845">
        <ele>314.49000000000001</ele>
        <time>2017-05-21T12:14:37Z</time>
      </trkpt>
      <trkpt lat="51.213998012244701" lon="10.71613303385675">
        <ele>312.08999999999997</ele>
        <time>2017-05-21T12:14:45Z</time>
      </trkpt>
      <trkpt lat="51.2153260409832" lon="10.716476021334529">
        <ele>311.12</ele>
        <time>2017-05-21T12:14:52Z</time>
      </trkpt>
      <trkpt lat="51.217010971158743" lon="10.717073986306787">
        <ele>308.72000000000003</ele>
        <time>2017-05-21T12:15:02Z</time>
      </trkpt>
      <trkpt lat="51.217272989451885" lon="10.717270039021969">
        <ele>308.72000000000003</ele>
        <time>2017-05-21T12:15:04Z</time>
      </trkpt>
      <trkpt lat="51.217395029962063" lon="10.717409010976553">
        <ele>309.19999999999999</ele>
        <time>2017-05-21T12:15:05Z</time>
      </trkpt>
      <trkpt lat="51.217635003849864" lon="10.717771025374532">
        <ele>310.63999999999999</ele>
        <time>2017-05-21T12:15:07Z</time>
      </trkpt>
      <trkpt lat="51.217737011611462" lon="10.718002030625939">
        <ele>311.12</ele>
        <time>2017-05-21T12:15:08Z</time>
      </trkpt>
      <trkpt lat="51.217813035473228" lon="10.718268994241953">
        <ele>312.08999999999997</ele>
        <time>2017-05-21T12:15:09Z</time>
      </trkpt>
      <trkpt lat="51.217866009101272" lon="10.718576023355126">
        <ele>313.05000000000001</ele>
        <time>2017-05-21T12:15:10Z</time>
      </trkpt>
      <trkpt lat="51.217900039628148" lon="10.718912975862622">
        <ele>313.52999999999997</ele>
        <time>2017-05-21T12:15:11Z</time>
      </trkpt>
      <trkpt lat="51.218198016285896" lon="10.721604991704226">
        <ele>321.22000000000003</ele>
        <time>2017-05-21T12:15:18Z</time>
      </trkpt>
      <trkpt lat="51.218256019055843" lon="10.721891988068819">
        <ele>322.18000000000001</ele>
        <time>2017-05-21T12:15:19Z</time>
      </trkpt>
      <trkpt lat="51.218341011554003" lon="10.722136991098523">
        <ele>322.66000000000003</ele>
        <time>2017-05-21T12:15:20Z</time>
      </trkpt>
      <trkpt lat="51.218456011265516" lon="10.722352992743254">
        <ele>322.66000000000003</ele>
        <time>2017-05-21T12:15:21Z</time>
      </trkpt>
      <trkpt lat="51.218603029847145" lon="10.722530018538237">
        <ele>323.62</ele>
        <time>2017-05-21T12:15:22Z</time>
      </trkpt>
      <trkpt lat="51.218773014843464" lon="10.722649041563272">
        <ele>324.57999999999998</ele>
        <time>2017-05-21T12:15:23Z</time>
      </trkpt>
      <trkpt lat="51.218955991789699" lon="10.722701009362936">
        <ele>325.54000000000002</ele>
        <time>2017-05-21T12:15:24Z</time>
      </trkpt>
      <trkpt lat="51.219148021191359" lon="10.722698997706175">
        <ele>326.5</ele>
        <time>2017-05-21T12:15:25Z</time>
      </trkpt>
      <trkpt lat="51.219355976209044" lon="10.722661027684808">
        <ele>327.47000000000003</ele>
        <time>2017-05-21T12:15:26Z</time>
      </trkpt>
      <trkpt lat="51.21956099756062" lon="10.722607970237732">
        <ele>327.94999999999999</ele>
        <time>2017-05-21T12:15:27Z</time>
      </trkpt>
      <trkpt lat="51.219763001427054" lon="10.722529012709856">
        <ele>328.43000000000001</ele>
        <time>2017-05-21T12:15:28Z</time>
      </trkpt>
      <trkpt lat="51.219954025000334" lon="10.722415018826723">
        <ele>328.43000000000001</ele>
        <time>2017-05-21T12:15:29Z</time>
      </trkpt>
      <trkpt lat="51.220128033310175" lon="10.722259031608701">
        <ele>328.43000000000001</ele>
        <time>2017-05-21T12:15:30Z</time>
      </trkpt>
      <trkpt lat="51.220442019402981" lon="10.72193599306047">
        <ele>327.47000000000003</ele>
        <time>2017-05-21T12:15:32Z</time>
      </trkpt>
      <trkpt lat="51.220620973035693" lon="10.721905985847116">
        <ele>326.99000000000001</ele>
        <time>2017-05-21T12:15:33Z</time>
      </trkpt>
      <trkpt lat="51.220778971910477" lon="10.721966000273824">
        <ele>327.47000000000003</ele>
        <time>2017-05-21T12:15:34Z</time>
      </trkpt>
      <trkpt lat="51.220931019634008" lon="10.722116036340594">
        <ele>327.94999999999999</ele>
        <time>2017-05-21T12:15:35Z</time>
      </trkpt>
      <trkpt lat="51.221094969660044" lon="10.7223039586097">
        <ele>327.94999999999999</ele>
        <time>2017-05-21T12:15:36Z</time>
      </trkpt>
      <trkpt lat="51.222195010632277" lon="10.72378302924335">
        <ele>332.26999999999998</ele>
        <time>2017-05-21T12:15:42Z</time>
      </trkpt>
      <trkpt lat="51.223211986944079" lon="10.725148022174835">
        <ele>338.04000000000002</ele>
        <time>2017-05-21T12:15:48Z</time>
      </trkpt>
      <trkpt lat="51.223917994648218" lon="10.726087968796492">
        <ele>341.88999999999999</ele>
        <time>2017-05-21T12:15:55Z</time>
      </trkpt>
      <trkpt lat="51.223954958841205" lon="10.726116970181465">
        <ele>341.41000000000003</ele>
        <time>2017-05-21T12:15:56Z</time>
      </trkpt>
      <trkpt lat="51.223984966054559" lon="10.726124010980129">
        <ele>341.88999999999999</ele>
        <time>2017-05-21T12:15:57Z</time>
      </trkpt>
      <trkpt lat="51.224030982702971" lon="10.72621101513505">
        <ele>342.37</ele>
        <time>2017-05-21T12:16:08Z</time>
      </trkpt>
      <trkpt lat="51.224027965217829" lon="10.726214032620192">
        <ele>342.85000000000002</ele>
        <time>2017-05-21T12:18:11Z</time>
      </trkpt>
      <trkpt lat="51.224026959389448" lon="10.726217972114682">
        <ele>342.85000000000002</ele>
        <time>2017-05-21T12:19:47Z</time>
      </trkpt>
      <trkpt lat="51.224045986309648" lon="10.726279998198152">
        <ele>342.85000000000002</ele>
        <time>2017-05-21T12:19:48Z</time>
      </trkpt>
      <trkpt lat="51.224233992397785" lon="10.726586021482944">
        <ele>343.81</ele>
        <time>2017-05-21T12:19:51Z</time>
      </trkpt>
      <trkpt lat="51.224947962909937" lon="10.727535020560026">
        <ele>347.17000000000002</ele>
        <time>2017-05-21T12:19:57Z</time>
      </trkpt>
      <trkpt lat="51.225271001458168" lon="10.727913966402411">
        <ele>348.62</ele>
        <time>2017-05-21T12:19:59Z</time>
      </trkpt>
      <trkpt lat="51.22546998783946" lon="10.728079006075859">
        <ele>349.10000000000002</ele>
        <time>2017-05-21T12:20:00Z</time>
      </trkpt>
      <trkpt lat="51.225693030282855" lon="10.728227030485868">
        <ele>350.06</ele>
        <time>2017-05-21T12:20:01Z</time>
      </trkpt>
      <trkpt lat="51.227770987898111" lon="10.729297986254096">
        <ele>353.42000000000002</ele>
        <time>2017-05-21T12:20:09Z</time>
      </trkpt>
      <trkpt lat="51.230638017877936" lon="10.730430968105793">
        <ele>343.81</ele>
        <time>2017-05-21T12:20:20Z</time>
      </trkpt>
      <trkpt lat="51.233384013175964" lon="10.731150973588228">
        <ele>332.26999999999998</ele>
        <time>2017-05-21T12:20:31Z</time>
      </trkpt>
      <trkpt lat="51.234284983947873" lon="10.73166998103261">
        <ele>328.43000000000001</ele>
        <time>2017-05-21T12:20:38Z</time>
      </trkpt>
      <trkpt lat="51.234656972810626" lon="10.732065020129085">
        <ele>327.47000000000003</ele>
        <time>2017-05-21T12:20:42Z</time>
      </trkpt>
      <trkpt lat="51.234734002500772" lon="10.732187982648611">
        <ele>327.47000000000003</ele>
        <time>2017-05-21T12:20:43Z</time>
      </trkpt>
      <trkpt lat="51.234798040241003" lon="10.732325026765466">
        <ele>326.99000000000001</ele>
        <time>2017-05-21T12:20:44Z</time>
      </trkpt>
      <trkpt lat="51.234852019697428" lon="10.732460981234908">
        <ele>326.99000000000001</ele>
        <time>2017-05-21T12:20:45Z</time>
      </trkpt>
      <trkpt lat="51.234895018860698" lon="10.732604982331395">
        <ele>326.99000000000001</ele>
        <time>2017-05-21T12:20:46Z</time>
      </trkpt>
      <trkpt lat="51.234927959740162" lon="10.732759041711688">
        <ele>326.5</ele>
        <time>2017-05-21T12:20:47Z</time>
      </trkpt>
      <trkpt lat="51.234959978610277" lon="10.732917040586472">
        <ele>326.5</ele>
        <time>2017-05-21T12:20:48Z</time>
      </trkpt>
      <trkpt lat="51.235535982996225" lon="10.73585799895227">
        <ele>323.62</ele>
        <time>2017-05-21T12:21:07Z</time>
      </trkpt>
      <trkpt lat="51.235651988536119" lon="10.736255971714854">
        <ele>322.66000000000003</ele>
        <time>2017-05-21T12:21:10Z</time>
      </trkpt>
      <trkpt lat="51.235706973820925" lon="10.736367031931877">
        <ele>322.66000000000003</ele>
        <time>2017-05-21T12:21:11Z</time>
      </trkpt>
      <trkpt lat="51.235779980197549" lon="10.736465016379952">
        <ele>321.69999999999999</ele>
        <time>2017-05-21T12:21:12Z</time>
      </trkpt>
      <trkpt lat="51.235882993787527" lon="10.736526036635041">
        <ele>321.22000000000003</ele>
        <time>2017-05-21T12:21:13Z</time>
      </trkpt>
      <trkpt lat="51.236010985448956" lon="10.736543973907828">
        <ele>320.74000000000001</ele>
        <time>2017-05-21T12:21:14Z</time>
      </trkpt>
      <trkpt lat="51.236161021515727" lon="10.73652402497828">
        <ele>320.25999999999999</ele>
        <time>2017-05-21T12:21:15Z</time>
      </trkpt>
      <trkpt lat="51.236321032047272" lon="10.736491000279784">
        <ele>319.30000000000001</ele>
        <time>2017-05-21T12:21:16Z</time>
      </trkpt>
      <trkpt lat="51.23825398273766" lon="10.736099984496832">
        <ele>310.16000000000003</ele>
        <time>2017-05-21T12:21:27Z</time>
      </trkpt>
      <trkpt lat="51.238426985219121" lon="10.73613703250885">
        <ele>309.68000000000001</ele>
        <time>2017-05-21T12:21:28Z</time>
      </trkpt>
      <trkpt lat="51.239625010639429" lon="10.736772967502475">
        <ele>303.91000000000003</ele>
        <time>2017-05-21T12:21:35Z</time>
      </trkpt>
      <trkpt lat="51.240246025845408" lon="10.737059963867068">
        <ele>301.02999999999997</ele>
        <time>2017-05-21T12:21:38Z</time>
      </trkpt>
      <trkpt lat="51.242457004263997" lon="10.737494984641671">
        <ele>294.77999999999997</ele>
        <time>2017-05-21T12:21:47Z</time>
      </trkpt>
      <trkpt lat="51.245630979537964" lon="10.737691959366202">
        <ele>289.97000000000003</ele>
        <time>2017-05-21T12:21:59Z</time>
      </trkpt>
      <trkpt lat="51.248324001207948" lon="10.7373639754951">
        <ele>297.18000000000001</ele>
        <time>2017-05-21T12:22:09Z</time>
      </trkpt>
      <trkpt lat="51.251466041430831" lon="10.737819029018283">
        <ele>288.52999999999997</ele>
        <time>2017-05-21T12:22:20Z</time>
      </trkpt>
      <trkpt lat="51.256467020139098" lon="10.73852201923728">
        <ele>272.67000000000002</ele>
        <time>2017-05-21T12:22:37Z</time>
      </trkpt>
      <trkpt lat="51.259441003203392" lon="10.738913035020232">
        <ele>267.86000000000001</ele>
        <time>2017-05-21T12:22:48Z</time>
      </trkpt>
      <trkpt lat="51.260796021670103" lon="10.739158038049936">
        <ele>265.45999999999998</ele>
        <time>2017-05-21T12:22:55Z</time>
      </trkpt>
      <trkpt lat="51.261851973831654" lon="10.739216040819883">
        <ele>264.01999999999998</ele>
        <time>2017-05-21T12:23:03Z</time>
      </trkpt>
      <trkpt lat="51.263115964829922" lon="10.739019988104701">
        <ele>261.62</ele>
        <time>2017-05-21T12:23:13Z</time>
      </trkpt>
      <trkpt lat="51.264692014083266" lon="10.738644981756806">
        <ele>261.13999999999999</ele>
        <time>2017-05-21T12:23:26Z</time>
      </trkpt>
      <trkpt lat="51.265261983498931" lon="10.738540962338448">
        <ele>261.62</ele>
        <time>2017-05-21T12:23:31Z</time>
      </trkpt>
      <trkpt lat="51.265372037887573" lon="10.738564012572169">
        <ele>261.62</ele>
        <time>2017-05-21T12:23:32Z</time>
      </trkpt>
      <trkpt lat="51.265482008457184" lon="10.738614974543452">
        <ele>262.10000000000002</ele>
        <time>2017-05-21T12:23:33Z</time>
      </trkpt>
      <trkpt lat="51.265841005370021" lon="10.738800968974829">
        <ele>263.06</ele>
        <time>2017-05-21T12:23:36Z</time>
      </trkpt>
      <trkpt lat="51.265985006466508" lon="10.738827958703041">
        <ele>263.06</ele>
        <time>2017-05-21T12:23:37Z</time>
      </trkpt>
      <trkpt lat="51.267439015209675" lon="10.738919991999865">
        <ele>265.94</ele>
        <time>2017-05-21T12:23:45Z</time>
      </trkpt>
      <trkpt lat="51.269451007246971" lon="10.738692004233599">
        <ele>263.06</ele>
        <time>2017-05-21T12:23:53Z</time>
      </trkpt>
      <trkpt lat="51.271758964285254" lon="10.738666020333767">
        <ele>264.5</ele>
        <time>2017-05-21T12:24:01Z</time>
      </trkpt>
      <trkpt lat="51.275971038267016" lon="10.738941030576825">
        <ele>261.13999999999999</ele>
        <time>2017-05-21T12:24:15Z</time>
      </trkpt>
      <trkpt lat="51.2778490036726" lon="10.739179998636246">
        <ele>254.41</ele>
        <time>2017-05-21T12:24:22Z</time>
      </trkpt>
      <trkpt lat="51.278991037979722" lon="10.73931997641921">
        <ele>258.25</ele>
        <time>2017-05-21T12:24:28Z</time>
      </trkpt>
      <trkpt lat="51.279471991583705" lon="10.739393988624215">
        <ele>259.69</ele>
        <time>2017-05-21T12:24:32Z</time>
      </trkpt>
      <trkpt lat="51.279550027102232" lon="10.739464983344078">
        <ele>260.17000000000002</ele>
        <time>2017-05-21T12:24:33Z</time>
      </trkpt>
      <trkpt lat="51.279614986851811" lon="10.739590041339397">
        <ele>260.17000000000002</ele>
        <time>2017-05-21T12:24:34Z</time>
      </trkpt>
      <trkpt lat="51.279673995450139" lon="10.739767989143729">
        <ele>260.17000000000002</ele>
        <time>2017-05-21T12:24:35Z</time>
      </trkpt>
      <trkpt lat="51.27974197268486" lon="10.739964041858912">
        <ele>259.69</ele>
        <time>2017-05-21T12:24:36Z</time>
      </trkpt>
      <trkpt lat="51.2798279710114" lon="10.740182977169752">
        <ele>259.20999999999998</ele>
        <time>2017-05-21T12:24:37Z</time>
      </trkpt>
      <trkpt lat="51.279909024015069" lon="10.740433009341359">
        <ele>259.20999999999998</ele>
        <time>2017-05-21T12:24:38Z</time>
      </trkpt>
      <trkpt lat="51.279980018734932" lon="10.740705002099276">
        <ele>258.73000000000002</ele>
        <time>2017-05-21T12:24:39Z</time>
      </trkpt>
      <trkpt lat="51.280604973435402" lon="10.743394000455737">
        <ele>256.32999999999998</ele>
        <time>2017-05-21T12:24:47Z</time>
      </trkpt>
      <trkpt lat="51.281857984140515" lon="10.748666971921921">
        <ele>249.12</ele>
        <time>2017-05-21T12:25:01Z</time>
      </trkpt>
      <trkpt lat="51.282641021534801" lon="10.752523988485336">
        <ele>239.50999999999999</ele>
        <time>2017-05-21T12:25:12Z</time>
      </trkpt>
      <trkpt lat="51.283018961548805" lon="10.755089018493891">
        <ele>234.22</ele>
        <time>2017-05-21T12:25:21Z</time>
      </trkpt>
      <trkpt lat="51.283388016745448" lon="10.757350958883762">
        <ele>229.88999999999999</ele>
        <time>2017-05-21T12:25:28Z</time>
      </trkpt>
      <trkpt lat="51.283633019775152" lon="10.759204030036926">
        <ele>229.41</ele>
        <time>2017-05-21T12:25:35Z</time>
      </trkpt>
      <trkpt lat="51.283641988411546" lon="10.759549029171467">
        <ele>229.88999999999999</ele>
        <time>2017-05-21T12:25:37Z</time>
      </trkpt>
      <trkpt lat="51.283654980361462" lon="10.759668974205852">
        <ele>230.37</ele>
        <time>2017-05-21T12:25:38Z</time>
      </trkpt>
      <trkpt lat="51.283682975918055" lon="10.759768970310688">
        <ele>230.37</ele>
        <time>2017-05-21T12:25:39Z</time>
      </trkpt>
      <trkpt lat="51.283723963424563" lon="10.75985798612237">
        <ele>229.88999999999999</ele>
        <time>2017-05-21T12:25:40Z</time>
      </trkpt>
      <trkpt lat="51.283774003386497" lon="10.759951025247574">
        <ele>230.37</ele>
        <time>2017-05-21T12:25:41Z</time>
      </trkpt>
      <trkpt lat="51.283840974792838" lon="10.760034006088972">
        <ele>230.37</ele>
        <time>2017-05-21T12:25:42Z</time>
      </trkpt>
      <trkpt lat="51.283898977562785" lon="10.760084968060255">
        <ele>230.37</ele>
        <time>2017-05-21T12:25:43Z</time>
      </trkpt>
      <trkpt lat="51.28397298976779" lon="10.760074993595481">
        <ele>229.88999999999999</ele>
        <time>2017-05-21T12:25:44Z</time>
      </trkpt>
      <trkpt lat="51.28405999392271" lon="10.760040963068604">
        <ele>229.41</ele>
        <time>2017-05-21T12:25:45Z</time>
      </trkpt>
      <trkpt lat="51.284159990027547" lon="10.760011961683631">
        <ele>228.93000000000001</ele>
        <time>2017-05-21T12:25:46Z</time>
      </trkpt>
      <trkpt lat="51.284255962818861" lon="10.760015984997153">
        <ele>228.93000000000001</ele>
        <time>2017-05-21T12:25:47Z</time>
      </trkpt>
      <trkpt lat="51.284354031085968" lon="10.760046998038888">
        <ele>229.41</ele>
        <time>2017-05-21T12:25:48Z</time>
      </trkpt>
      <trkpt lat="51.284450003877282" lon="10.760114975273609">
        <ele>230.37</ele>
        <time>2017-05-21T12:25:49Z</time>
      </trkpt>
      <trkpt lat="51.284538013860583" lon="10.760187981650233">
        <ele>230.37</ele>
        <time>2017-05-21T12:25:50Z</time>
      </trkpt>
      <trkpt lat="51.284628035500646" lon="10.760268028825521">
        <ele>230.84999999999999</ele>
        <time>2017-05-21T12:25:51Z</time>
      </trkpt>
      <trkpt lat="51.285286014899611" lon="10.761144021525979">
        <ele>235.18000000000001</ele>
        <time>2017-05-21T12:26:00Z</time>
      </trkpt>
      <trkpt lat="51.285335971042514" lon="10.761288022622466">
        <ele>235.18000000000001</ele>
        <time>2017-05-21T12:26:01Z</time>
      </trkpt>
      <trkpt lat="51.285495981574059" lon="10.761682977899909">
        <ele>237.09999999999999</ele>
        <time>2017-05-21T12:26:04Z</time>
      </trkpt>
      <trkpt lat="51.285560019314289" lon="10.761795965954661">
        <ele>237.09999999999999</ele>
        <time>2017-05-21T12:26:05Z</time>
      </trkpt>
      <trkpt lat="51.28562799654901" lon="10.76189897954464">
        <ele>237.58000000000001</ele>
        <time>2017-05-21T12:26:06Z</time>
      </trkpt>
      <trkpt lat="51.285698991268873" lon="10.761982966214418">
        <ele>238.06</ele>
        <time>2017-05-21T12:26:07Z</time>
      </trkpt>
      <trkpt lat="51.285779038444161" lon="10.762054966762662">
        <ele>238.53999999999999</ele>
        <time>2017-05-21T12:26:08Z</time>
      </trkpt>
      <trkpt lat="51.28586201928556" lon="10.762116992846131">
        <ele>239.02000000000001</ele>
        <time>2017-05-21T12:26:09Z</time>
      </trkpt>
      <trkpt lat="51.285940976813436" lon="10.762168960645795">
        <ele>239.50999999999999</ele>
        <time>2017-05-21T12:26:10Z</time>
      </trkpt>
      <trkpt lat="51.286364011466503" lon="10.762404995039105">
        <ele>240.94999999999999</ele>
        <time>2017-05-21T12:26:18Z</time>
      </trkpt>
      <trkpt lat="51.286407010629773" lon="10.762410024181008">
        <ele>238.53999999999999</ele>
        <time>2017-05-21T12:26:22Z</time>
      </trkpt>
      <trkpt lat="51.28648404031992" lon="10.762359984219074">
        <ele>238.53999999999999</ele>
        <time>2017-05-21T12:26:24Z</time>
      </trkpt>
      <trkpt lat="51.286531984806061" lon="10.76226300559938">
        <ele>239.02000000000001</ele>
        <time>2017-05-21T12:26:25Z</time>
      </trkpt>
      <trkpt lat="51.286582024767995" lon="10.762131996452808">
        <ele>239.02000000000001</ele>
        <time>2017-05-21T12:26:26Z</time>
      </trkpt>
      <trkpt lat="51.286886036396027" lon="10.761149972677231">
        <ele>240.47</ele>
        <time>2017-05-21T12:26:32Z</time>
      </trkpt>
      <trkpt lat="51.286947978660464" lon="10.76101996935904">
        <ele>240.47</ele>
        <time>2017-05-21T12:26:33Z</time>
      </trkpt>
      <trkpt lat="51.287018973380327" lon="10.760944029316306">
        <ele>240.94999999999999</ele>
        <time>2017-05-21T12:26:34Z</time>
      </trkpt>
      <trkpt lat="51.28711000084877" lon="10.760929025709629">
        <ele>241.91</ele>
        <time>2017-05-21T12:26:35Z</time>
      </trkpt>
      <trkpt lat="51.287219971418381" lon="10.760960960760713">
        <ele>242.38999999999999</ele>
        <time>2017-05-21T12:26:36Z</time>
      </trkpt>
      <trkpt lat="51.287341006100178" lon="10.76101703569293">
        <ele>242.38999999999999</ele>
        <time>2017-05-21T12:26:37Z</time>
      </trkpt>
      <trkpt lat="51.288360999897122" lon="10.76151299290359">
        <ele>248.63999999999999</ele>
        <time>2017-05-21T12:26:43Z</time>
      </trkpt>
      <trkpt lat="51.289996979758143" lon="10.762279015034437">
        <ele>254.88999999999999</ele>
        <time>2017-05-21T12:26:50Z</time>
      </trkpt>
      <trkpt lat="51.293578986078501" lon="10.76394097879529">
        <ele>271.70999999999998</ele>
        <time>2017-05-21T12:27:03Z</time>
      </trkpt>
      <trkpt lat="51.295645041391253" lon="10.764772966504097">
        <ele>289.00999999999999</ele>
        <time>2017-05-21T12:27:11Z</time>
      </trkpt>
      <trkpt lat="51.297054961323738" lon="10.765140010043979">
        <ele>295.74000000000001</ele>
        <time>2017-05-21T12:27:18Z</time>
      </trkpt>
      <trkpt lat="51.297629959881306" lon="10.765280993655324">
        <ele>298.63</ele>
        <time>2017-05-21T12:27:23Z</time>
      </trkpt>
      <trkpt lat="51.29770397208631" lon="10.765363974496722">
        <ele>299.58999999999997</ele>
        <time>2017-05-21T12:27:29Z</time>
      </trkpt>
      <trkpt lat="51.297744959592819" lon="10.765468999743462">
        <ele>299.58999999999997</ele>
        <time>2017-05-21T12:27:30Z</time>
      </trkpt>
      <trkpt lat="51.298144022002816" lon="10.766687979921699">
        <ele>299.58999999999997</ele>
        <time>2017-05-21T12:27:36Z</time>
      </trkpt>
      <trkpt lat="51.298922030255198" lon="10.768664013594389">
        <ele>295.74000000000001</ele>
        <time>2017-05-21T12:27:43Z</time>
      </trkpt>
      <trkpt lat="51.299594007432461" lon="10.770324971526861">
        <ele>293.33999999999997</ele>
        <time>2017-05-21T12:27:50Z</time>
      </trkpt>
      <trkpt lat="51.300152996554971" lon="10.771576976403594">
        <ele>289.00999999999999</ele>
        <time>2017-05-21T12:27:59Z</time>
      </trkpt>
      <trkpt lat="51.30023698322475" lon="10.771688958629966">
        <ele>288.52999999999997</ele>
        <time>2017-05-21T12:28:00Z</time>
      </trkpt>
      <trkpt lat="51.300333961844444" lon="10.771786021068692">
        <ele>288.05000000000001</ele>
        <time>2017-05-21T12:28:01Z</time>
      </trkpt>
      <trkpt lat="51.300439992919564" lon="10.771874031051993">
        <ele>287.08999999999997</ele>
        <time>2017-05-21T12:28:02Z</time>
      </trkpt>
      <trkpt lat="51.300549041479826" lon="10.77195500023663">
        <ele>286.61000000000001</ele>
        <time>2017-05-21T12:28:03Z</time>
      </trkpt>
      <trkpt lat="51.30169996060431" lon="10.773068033158779">
        <ele>280.36000000000001</ele>
        <time>2017-05-21T12:28:14Z</time>
      </trkpt>
      <trkpt lat="51.302798995748162" lon="10.77429598197341">
        <ele>276.51999999999998</ele>
        <time>2017-05-21T12:28:22Z</time>
      </trkpt>
      <trkpt lat="51.304149990901351" lon="10.77590798959136">
        <ele>276.51999999999998</ele>
        <time>2017-05-21T12:28:29Z</time>
      </trkpt>
      <trkpt lat="51.305664014071226" lon="10.778530016541481">
        <ele>277.95999999999998</ele>
        <time>2017-05-21T12:28:37Z</time>
      </trkpt>
      <trkpt lat="51.307691009715199" lon="10.782714011147618">
        <ele>273.14999999999998</ele>
        <time>2017-05-21T12:28:48Z</time>
      </trkpt>
      <trkpt lat="51.308818040415645" lon="10.786491986364126">
        <ele>277.48000000000002</ele>
        <time>2017-05-21T12:28:57Z</time>
      </trkpt>
      <trkpt lat="51.310318987816572" lon="10.791530013084412">
        <ele>274.58999999999997</ele>
        <time>2017-05-21T12:29:10Z</time>
      </trkpt>
      <trkpt lat="51.311304029077291" lon="10.793940983712673">
        <ele>270.75</ele>
        <time>2017-05-21T12:29:17Z</time>
      </trkpt>
      <trkpt lat="51.312475986778736" lon="10.795553997159004">
        <ele>272.19</ele>
        <time>2017-05-21T12:29:24Z</time>
      </trkpt>
      <trkpt lat="51.313533028587699" lon="10.79638103954494">
        <ele>277.48000000000002</ele>
        <time>2017-05-21T12:29:30Z</time>
      </trkpt>
      <trkpt lat="51.315113017335534" lon="10.797075983136892">
        <ele>285.64999999999998</ele>
        <time>2017-05-21T12:29:37Z</time>
      </trkpt>
      <trkpt lat="51.317910980433226" lon="10.79825003631413">
        <ele>301.02999999999997</ele>
        <time>2017-05-21T12:29:50Z</time>
      </trkpt>
      <trkpt lat="51.319450987502933" lon="10.799256032332778">
        <ele>306.80000000000001</ele>
        <time>2017-05-21T12:30:00Z</time>
      </trkpt>
      <trkpt lat="51.320504005998373" lon="10.80024803057313">
        <ele>311.60000000000002</ele>
        <time>2017-05-21T12:30:07Z</time>
      </trkpt>
      <trkpt lat="51.322020040825009" lon="10.80216103233397">
        <ele>319.30000000000001</ele>
        <time>2017-05-21T12:30:16Z</time>
      </trkpt>
      <trkpt lat="51.322239981964231" lon="10.802323976531625">
        <ele>319.77999999999997</ele>
        <time>2017-05-21T12:30:17Z</time>
      </trkpt>
      <trkpt lat="51.322486996650696" lon="10.802456997334957">
        <ele>319.77999999999997</ele>
        <time>2017-05-21T12:30:18Z</time>
      </trkpt>
      <trkpt lat="51.324260020628572" lon="10.803465005010366">
        <ele>324.57999999999998</ele>
        <time>2017-05-21T12:30:24Z</time>
      </trkpt>
      <trkpt lat="51.327240960672498" lon="10.805263007059693">
        <ele>337.56</ele>
        <time>2017-05-21T12:30:34Z</time>
      </trkpt>
      <trkpt lat="51.328993029892445" lon="10.806306973099709">
        <ele>350.06</ele>
        <time>2017-05-21T12:30:41Z</time>
      </trkpt>
      <trkpt lat="51.331482036039233" lon="10.807658974081278">
        <ele>359.19</ele>
        <time>2017-05-21T12:30:54Z</time>
      </trkpt>
      <trkpt lat="51.332826996222138" lon="10.808437988162041">
        <ele>358.23000000000002</ele>
        <time>2017-05-21T12:31:02Z</time>
      </trkpt>
      <trkpt lat="51.332977032288909" lon="10.808592969551682">
        <ele>357.75</ele>
        <time>2017-05-21T12:31:03Z</time>
      </trkpt>
      <trkpt lat="51.333113992586732" lon="10.808778963983059">
        <ele>357.26999999999998</ele>
        <time>2017-05-21T12:31:04Z</time>
      </trkpt>
      <trkpt lat="51.333229998126626" lon="10.809004018083215">
        <ele>356.79000000000002</ele>
        <time>2017-05-21T12:31:05Z</time>
      </trkpt>
      <trkpt lat="51.333298981189728" lon="10.809279028326273">
        <ele>356.31</ele>
        <time>2017-05-21T12:31:06Z</time>
      </trkpt>
      <trkpt lat="51.333354972302914" lon="10.809567030519247">
        <ele>356.31</ele>
        <time>2017-05-21T12:31:07Z</time>
      </trkpt>
      <trkpt lat="51.333390008658171" lon="10.809883028268814">
        <ele>355.82999999999998</ele>
        <time>2017-05-21T12:31:08Z</time>
      </trkpt>
      <trkpt lat="51.333423033356667" lon="10.810227021574974">
        <ele>355.33999999999997</ele>
        <time>2017-05-21T12:31:09Z</time>
      </trkpt>
      <trkpt lat="51.333713969215751" lon="10.812759026885033">
        <ele>347.17000000000002</ele>
        <time>2017-05-21T12:31:15Z</time>
      </trkpt>
      <trkpt lat="51.334273964166641" lon="10.817018961533904">
        <ele>336.60000000000002</ele>
        <time>2017-05-21T12:31:24Z</time>
      </trkpt>
      <trkpt lat="51.334588034078479" lon="10.819622967392206">
        <ele>329.87</ele>
        <time>2017-05-21T12:31:30Z</time>
      </trkpt>
      <trkpt lat="51.334675038233399" lon="10.819980036467314">
        <ele>326.99000000000001</ele>
        <time>2017-05-21T12:31:31Z</time>
      </trkpt>
      <trkpt lat="51.334771011024714" lon="10.820288993418217">
        <ele>325.06</ele>
        <time>2017-05-21T12:31:32Z</time>
      </trkpt>
      <trkpt lat="51.334906965494156" lon="10.820517987012863">
        <ele>322.66000000000003</ele>
        <time>2017-05-21T12:31:33Z</time>
      </trkpt>
      <trkpt lat="51.335059013217688" lon="10.820745974779129">
        <ele>321.22000000000003</ele>
        <time>2017-05-21T12:31:34Z</time>
      </trkpt>
      <trkpt lat="51.335225980728865" lon="10.821000030264258">
        <ele>321.22000000000003</ele>
        <time>2017-05-21T12:31:35Z</time>
      </trkpt>
      <trkpt lat="51.336551997810602" lon="10.822997018694878">
        <ele>315.93000000000001</ele>
        <time>2017-05-21T12:31:43Z</time>
      </trkpt>
      <trkpt lat="51.337508959695697" lon="10.824581030756235">
        <ele>303.43000000000001</ele>
        <time>2017-05-21T12:31:51Z</time>
      </trkpt>
      <trkpt lat="51.338083036243916" lon="10.825371025130153">
        <ele>300.06999999999999</ele>
        <time>2017-05-21T12:31:58Z</time>
      </trkpt>
      <trkpt lat="51.338261989876628" lon="10.825635977089405">
        <ele>297.67000000000002</ele>
        <time>2017-05-21T12:32:06Z</time>
      </trkpt>
      <trkpt lat="51.338261989876628" lon="10.825708983466029">
        <ele>297.18000000000001</ele>
        <time>2017-05-21T12:32:08Z</time>
      </trkpt>
      <trkpt lat="51.338277999311686" lon="10.825797999277711">
        <ele>296.22000000000003</ele>
        <time>2017-05-21T12:32:10Z</time>
      </trkpt>
      <trkpt lat="51.338315969333053" lon="10.825856002047658">
        <ele>295.74000000000001</ele>
        <time>2017-05-21T12:32:11Z</time>
      </trkpt>
      <trkpt lat="51.338398028165102" lon="10.825891960412264">
        <ele>295.25999999999999</ele>
        <time>2017-05-21T12:32:12Z</time>
      </trkpt>
      <trkpt lat="51.338498024269938" lon="10.825920039787889">
        <ele>295.25999999999999</ele>
        <time>2017-05-21T12:32:13Z</time>
      </trkpt>
      <trkpt lat="51.33933998644352" lon="10.826261015608907">
        <ele>293.81999999999999</ele>
        <time>2017-05-21T12:32:19Z</time>
      </trkpt>
      <trkpt lat="51.340752001851797" lon="10.826687989756465">
        <ele>286.61000000000001</ele>
        <time>2017-05-21T12:32:26Z</time>
      </trkpt>
      <trkpt lat="51.342215985059738" lon="10.826520016416907">
        <ele>274.11000000000001</ele>
        <time>2017-05-21T12:32:32Z</time>
      </trkpt>
      <trkpt lat="51.344805993139744" lon="10.82521503791213">
        <ele>266.42000000000002</ele>
        <time>2017-05-21T12:32:42Z</time>
      </trkpt>
      <trkpt lat="51.349099958315492" lon="10.823042029514909">
        <ele>260.17000000000002</ele>
        <time>2017-05-21T12:32:58Z</time>
      </trkpt>
      <trkpt lat="51.350946994498372" lon="10.822758972644806">
        <ele>258.25</ele>
        <time>2017-05-21T12:33:05Z</time>
      </trkpt>
      <trkpt lat="51.352756982669234" lon="10.823258031159639">
        <ele>256.32999999999998</ele>
        <time>2017-05-21T12:33:12Z</time>
      </trkpt>
      <trkpt lat="51.354522965848446" lon="10.824492014944553">
        <ele>253.93000000000001</ele>
        <time>2017-05-21T12:33:19Z</time>
      </trkpt>
      <trkpt lat="51.356073031201959" lon="10.82644097507">
        <ele>252</ele>
        <time>2017-05-21T12:33:26Z</time>
      </trkpt>
      <trkpt lat="51.357426960021257" lon="10.829242039471865">
        <ele>249.12</ele>
        <time>2017-05-21T12:33:34Z</time>
      </trkpt>
      <trkpt lat="51.359066041186452" lon="10.832755984738469">
        <ele>246.22999999999999</ele>
        <time>2017-05-21T12:33:44Z</time>
      </trkpt>
      <trkpt lat="51.360452994704247" lon="10.834365980699658">
        <ele>245.27000000000001</ele>
        <time>2017-05-21T12:33:50Z</time>
      </trkpt>
      <trkpt lat="51.362127028405666" lon="10.835334006696939">
        <ele>243.83000000000001</ele>
        <time>2017-05-21T12:33:56Z</time>
      </trkpt>
      <trkpt lat="51.364065008237958" lon="10.835938006639481">
        <ele>244.31</ele>
        <time>2017-05-21T12:34:03Z</time>
      </trkpt>
      <trkpt lat="51.365420026704669" lon="10.836872002109885">
        <ele>244.78999999999999</ele>
        <time>2017-05-21T12:34:09Z</time>
      </trkpt>
      <trkpt lat="51.366488970816135" lon="10.838211011141539">
        <ele>244.31</ele>
        <time>2017-05-21T12:34:16Z</time>
      </trkpt>
      <trkpt lat="51.367289023473859" lon="10.839841961860657">
        <ele>244.31</ele>
        <time>2017-05-21T12:34:24Z</time>
      </trkpt>
      <trkpt lat="51.367446016520262" lon="10.840311013162136">
        <ele>245.27000000000001</ele>
        <time>2017-05-21T12:34:28Z</time>
      </trkpt>
      <trkpt lat="51.367446016520262" lon="10.840374967083335">
        <ele>245.27000000000001</ele>
        <time>2017-05-21T12:34:29Z</time>
      </trkpt>
      <trkpt lat="51.367427995428443" lon="10.840450990945101">
        <ele>245.27000000000001</ele>
        <time>2017-05-21T12:34:30Z</time>
      </trkpt>
      <trkpt lat="51.367386002093554" lon="10.840530032292008">
        <ele>245.75</ele>
        <time>2017-05-21T12:34:31Z</time>
      </trkpt>
      <trkpt lat="51.367323976010084" lon="10.840626005083323">
        <ele>245.27000000000001</ele>
        <time>2017-05-21T12:34:32Z</time>
      </trkpt>
      <trkpt lat="51.367249963805079" lon="10.840738993138075">
        <ele>244.78999999999999</ele>
        <time>2017-05-21T12:34:33Z</time>
      </trkpt>
      <trkpt lat="51.366765992715955" lon="10.841567041352391">
        <ele>241.91</ele>
        <time>2017-05-21T12:34:38Z</time>
      </trkpt>
      <trkpt lat="51.366677982732654" lon="10.841795029118657">
        <ele>240.94999999999999</ele>
        <time>2017-05-21T12:34:39Z</time>
      </trkpt>
      <trkpt lat="51.366419987753034" lon="10.842515034601092">
        <ele>238.06</ele>
        <time>2017-05-21T12:34:42Z</time>
      </trkpt>
      <trkpt lat="51.36630498804152" lon="10.842736987397075">
        <ele>237.09999999999999</ele>
        <time>2017-05-21T12:34:43Z</time>
      </trkpt>
      <trkpt lat="51.36617498472333" lon="10.842936979606748">
        <ele>236.13999999999999</ele>
        <time>2017-05-21T12:34:44Z</time>
      </trkpt>
      <trkpt lat="51.36602696031332" lon="10.843108976259828">
        <ele>235.18000000000001</ele>
        <time>2017-05-21T12:34:45Z</time>
      </trkpt>
      <trkpt lat="51.365872984752059" lon="10.843243002891541">
        <ele>233.74000000000001</ele>
        <time>2017-05-21T12:34:46Z</time>
      </trkpt>
      <trkpt lat="51.365710962563753" lon="10.843338975682855">
        <ele>232.78</ele>
        <time>2017-05-21T12:34:47Z</time>
      </trkpt>
      <trkpt lat="51.365548018366098" lon="10.843398990109563">
        <ele>231.81</ele>
        <time>2017-05-21T12:34:48Z</time>
      </trkpt>
      <trkpt lat="51.365387002006173" lon="10.843424974009395">
        <ele>230.37</ele>
        <time>2017-05-21T12:34:49Z</time>
      </trkpt>
      <trkpt lat="51.365234032273293" lon="10.843416005373001">
        <ele>229.41</ele>
        <time>2017-05-21T12:34:50Z</time>
      </trkpt>
      <trkpt lat="51.365098999813199" lon="10.843387003988028">
        <ele>228.93000000000001</ele>
        <time>2017-05-21T12:34:51Z</time>
      </trkpt>
      <trkpt lat="51.364978970959783" lon="10.843342998996377">
        <ele>227.97</ele>
        <time>2017-05-21T12:34:52Z</time>
      </trkpt>
      <trkpt lat="51.364872017875314" lon="10.843294970691204">
        <ele>227.49000000000001</ele>
        <time>2017-05-21T12:34:53Z</time>
      </trkpt>
      <trkpt lat="51.364764980971813" lon="10.843234034255147">
        <ele>226.53</ele>
        <time>2017-05-21T12:34:54Z</time>
      </trkpt>
      <trkpt lat="51.364579992368817" lon="10.843132026493549">
        <ele>225.56999999999999</ele>
        <time>2017-05-21T12:34:56Z</time>
      </trkpt>
      <trkpt lat="51.364500029012561" lon="10.843106964603066">
        <ele>224.61000000000001</ele>
        <time>2017-05-21T12:34:57Z</time>
      </trkpt>
      <trkpt lat="51.364297019317746" lon="10.843062037602067">
        <ele>223.63999999999999</ele>
        <time>2017-05-21T12:35:00Z</time>
      </trkpt>
      <trkpt lat="51.364162992686033" lon="10.843021972104907">
        <ele>222.68000000000001</ele>
        <time>2017-05-21T12:35:02Z</time>
      </trkpt>
      <trkpt lat="51.364101972430944" lon="10.84304703399539">
        <ele>222.68000000000001</ele>
        <time>2017-05-21T12:35:03Z</time>
      </trkpt>
      <trkpt lat="51.364059979096055" lon="10.843111993744969">
        <ele>222.68000000000001</ele>
        <time>2017-05-21T12:35:04Z</time>
      </trkpt>
      <trkpt lat="51.364043969660997" lon="10.843200003728271">
        <ele>222.19999999999999</ele>
        <time>2017-05-21T12:35:05Z</time>
      </trkpt>
      <trkpt lat="51.364059979096055" lon="10.843294970691204">
        <ele>222.19999999999999</ele>
        <time>2017-05-21T12:35:06Z</time>
      </trkpt>
      <trkpt lat="51.364102978259325" lon="10.843389015644789">
        <ele>222.19999999999999</ele>
        <time>2017-05-21T12:35:07Z</time>
      </trkpt>
      <trkpt lat="51.364151006564498" lon="10.843496974557638">
        <ele>222.19999999999999</ele>
        <time>2017-05-21T12:35:08Z</time>
      </trkpt>
      <trkpt lat="51.364818038418889" lon="10.844926005229354">
        <ele>220.28</ele>
        <time>2017-05-21T12:35:19Z</time>
      </trkpt>
      <trkpt lat="51.366162998601794" lon="10.847476031631231">
        <ele>216.43000000000001</ele>
        <time>2017-05-21T12:35:40Z</time>
      </trkpt>
      <trkpt lat="51.367246024310589" lon="10.848919982090592">
        <ele>215.47</ele>
        <time>2017-05-21T12:35:54Z</time>
      </trkpt>
      <trkpt lat="51.368227964267135" lon="10.850278018042445">
        <ele>219.31999999999999</ele>
        <time>2017-05-21T12:36:07Z</time>
      </trkpt>
      <trkpt lat="51.368290996178985" lon="10.850413972511888">
        <ele>219.80000000000001</ele>
        <time>2017-05-21T12:36:08Z</time>
      </trkpt>
      <trkpt lat="51.36834598146379" lon="10.850557973608375">
        <ele>220.28</ele>
        <time>2017-05-21T12:36:09Z</time>
      </trkpt>
      <trkpt lat="51.368398033082485" lon="10.850702980533242">
        <ele>221.24000000000001</ele>
        <time>2017-05-21T12:36:10Z</time>
      </trkpt>
      <trkpt lat="51.368441032245755" lon="10.850857039913535">
        <ele>222.68000000000001</ele>
        <time>2017-05-21T12:36:11Z</time>
      </trkpt>
      <trkpt lat="51.368475984781981" lon="10.851011015474796">
        <ele>223.16</ele>
        <time>2017-05-21T12:36:12Z</time>
      </trkpt>
      <trkpt lat="51.368802962824702" lon="10.852559991180897">
        <ele>226.05000000000001</ele>
        <time>2017-05-21T12:36:24Z</time>
      </trkpt>
      <trkpt lat="51.36881603859365" lon="10.852752020582557">
        <ele>226.05000000000001</ele>
        <time>2017-05-21T12:36:31Z</time>
      </trkpt>
      <trkpt lat="51.368828024715185" lon="10.852836007252336">
        <ele>226.05000000000001</ele>
        <time>2017-05-21T12:36:32Z</time>
      </trkpt>
      <trkpt lat="51.368850991129875" lon="10.852919993922114">
        <ele>225.56999999999999</ele>
        <time>2017-05-21T12:36:33Z</time>
      </trkpt>
      <trkpt lat="51.368889966979623" lon="10.852982020005584">
        <ele>225.56999999999999</ele>
        <time>2017-05-21T12:36:34Z</time>
      </trkpt>
      <trkpt lat="51.368943024426699" lon="10.853003980591893">
        <ele>225.56999999999999</ele>
        <time>2017-05-21T12:36:35Z</time>
      </trkpt>
      <trkpt lat="51.36899096891284" lon="10.85299601778388">
        <ele>225.56999999999999</ele>
        <time>2017-05-21T12:36:36Z</time>
      </trkpt>
      <trkpt lat="51.369032962247729" lon="10.852963998913765">
        <ele>226.05000000000001</ele>
        <time>2017-05-21T12:36:37Z</time>
      </trkpt>
      <trkpt lat="51.369059029966593" lon="10.852913036942482">
        <ele>225.09</ele>
        <time>2017-05-21T12:36:38Z</time>
      </trkpt>
      <trkpt lat="51.369073027744889" lon="10.852850005030632">
        <ele>224.12</ele>
        <time>2017-05-21T12:36:39Z</time>
      </trkpt>
      <trkpt lat="51.36907696723938" lon="10.852775992825627">
        <ele>224.12</ele>
        <time>2017-05-21T12:36:40Z</time>
      </trkpt>
      <trkpt lat="51.369069004431367" lon="10.852699968963861">
        <ele>224.12</ele>
        <time>2017-05-21T12:36:41Z</time>
      </trkpt>
      <trkpt lat="51.369067998602986" lon="10.852626962587237">
        <ele>224.12</ele>
        <time>2017-05-21T12:36:42Z</time>
      </trkpt>
      <trkpt lat="51.369071016088128" lon="10.852534007281065">
        <ele>224.12</ele>
        <time>2017-05-21T12:36:44Z</time>
      </trkpt>
      <trkpt lat="51.369081996381283" lon="10.852511040866375">
        <ele>224.12</ele>
        <time>2017-05-21T12:36:45Z</time>
      </trkpt>
      <trkpt lat="51.36911803856492" lon="10.852486984804273">
        <ele>224.61000000000001</ele>
        <time>2017-05-21T12:36:49Z</time>
      </trkpt>
      <trkpt lat="51.369142010807991" lon="10.852486984804273">
        <ele>224.61000000000001</ele>
        <time>2017-05-21T12:37:07Z</time>
      </trkpt>
      <trkpt lat="51.36911703273654" lon="10.852488996461034">
        <ele>224.61000000000001</ele>
        <time>2017-05-21T12:37:33Z</time>
      </trkpt>
      <trkpt lat="51.36911996640265" lon="10.852496037259698">
        <ele>224.61000000000001</ele>
        <time>2017-05-21T12:37:35Z</time>
      </trkpt>
      <trkpt lat="51.369146034121513" lon="10.852745985612273">
        <ele>224.61000000000001</ele>
        <time>2017-05-21T12:37:43Z</time>
      </trkpt>
      <trkpt lat="51.369136981666088" lon="10.852757971733809">
        <ele>224.61000000000001</ele>
        <time>2017-05-21T12:37:44Z</time>
      </trkpt>
      <trkpt lat="51.369122983887792" lon="10.852767024189234">
        <ele>224.12</ele>
        <time>2017-05-21T12:37:45Z</time>
      </trkpt>
      <trkpt lat="51.369100017473102" lon="10.852766018360853">
        <ele>224.61000000000001</ele>
        <time>2017-05-21T12:37:46Z</time>
      </trkpt>
      <trkpt lat="51.369078978896141" lon="10.852741962298751">
        <ele>224.61000000000001</ele>
        <time>2017-05-21T12:37:47Z</time>
      </trkpt>
      <trkpt lat="51.369060035794973" lon="10.852696029469371">
        <ele>225.09</ele>
        <time>2017-05-21T12:37:48Z</time>
      </trkpt>
      <trkpt lat="51.369046038016677" lon="10.852637020871043">
        <ele>224.61000000000001</ele>
        <time>2017-05-21T12:37:49Z</time>
      </trkpt>
      <trkpt lat="51.369019970297813" lon="10.852573988959193">
        <ele>224.61000000000001</ele>
        <time>2017-05-21T12:37:50Z</time>
      </trkpt>
      <trkpt lat="51.368978982791305" lon="10.852536018937826">
        <ele>224.12</ele>
        <time>2017-05-21T12:37:51Z</time>
      </trkpt>
      <trkpt lat="51.368928020820022" lon="10.852520009502769">
        <ele>224.61000000000001</ele>
        <time>2017-05-21T12:37:52Z</time>
      </trkpt>
      <trkpt lat="51.368875969201326" lon="10.852536018937826">
        <ele>224.61000000000001</ele>
        <time>2017-05-21T12:37:53Z</time>
      </trkpt>
      <trkpt lat="51.368830958381295" lon="10.852585975080729">
        <ele>224.12</ele>
        <time>2017-05-21T12:37:54Z</time>
      </trkpt>
      <trkpt lat="51.368798017501831" lon="10.852664010599256">
        <ele>224.12</ele>
        <time>2017-05-21T12:37:55Z</time>
      </trkpt>
      <trkpt lat="51.368790976703167" lon="10.852768030017614">
        <ele>223.16</ele>
        <time>2017-05-21T12:37:56Z</time>
      </trkpt>
      <trkpt lat="51.368803968653083" lon="10.852890992537141">
        <ele>223.16</ele>
        <time>2017-05-21T12:37:57Z</time>
      </trkpt>
      <trkpt lat="51.36881997808814" lon="10.853025019168854">
        <ele>223.16</ele>
        <time>2017-05-21T12:37:58Z</time>
      </trkpt>
      <trkpt lat="51.369079984724522" lon="10.854662004858255">
        <ele>219.31999999999999</ele>
        <time>2017-05-21T12:38:08Z</time>
      </trkpt>
      <trkpt lat="51.369404029101133" lon="10.856537958607078">
        <ele>213.06999999999999</ele>
        <time>2017-05-21T12:38:22Z</time>
      </trkpt>
      <trkpt lat="51.369435964152217" lon="10.856859991326928">
        <ele>211.15000000000001</ele>
        <time>2017-05-21T12:38:26Z</time>
      </trkpt>
      <trkpt lat="51.369432024657726" lon="10.856981026008725">
        <ele>210.66999999999999</ele>
        <time>2017-05-21T12:38:27Z</time>
      </trkpt>
      <trkpt lat="51.369401011615992" lon="10.857114968821406">
        <ele>210.66999999999999</ele>
        <time>2017-05-21T12:38:28Z</time>
      </trkpt>
      <trkpt lat="51.369357006624341" lon="10.857258969917893">
        <ele>210.19</ele>
        <time>2017-05-21T12:38:29Z</time>
      </trkpt>
      <trkpt lat="51.369291041046381" lon="10.857417974621058">
        <ele>209.69999999999999</ele>
        <time>2017-05-21T12:38:30Z</time>
      </trkpt>
      <trkpt lat="51.368798017501831" lon="10.858635026961565">
        <ele>206.34</ele>
        <time>2017-05-21T12:38:39Z</time>
      </trkpt>
      <trkpt lat="51.368745965883136" lon="10.858708033338189">
        <ele>206.34</ele>
        <time>2017-05-21T12:38:40Z</time>
      </trkpt>
      <trkpt lat="51.368654016405344" lon="10.858853040263057">
        <ele>204.41999999999999</ele>
        <time>2017-05-21T12:38:42Z</time>
      </trkpt>
      <trkpt lat="51.368618980050087" lon="10.858985977247357">
        <ele>203.94</ele>
        <time>2017-05-21T12:38:43Z</time>
      </trkpt>
      <trkpt lat="51.368572041392326" lon="10.859131990000606">
        <ele>203.46000000000001</ele>
        <time>2017-05-21T12:38:44Z</time>
      </trkpt>
      <trkpt lat="51.368502974510193" lon="10.859261993318796">
        <ele>203.46000000000001</ele>
        <time>2017-05-21T12:38:45Z</time>
      </trkpt>
      <trkpt lat="51.368418987840414" lon="10.859403982758522">
        <ele>203.46000000000001</ele>
        <time>2017-05-21T12:38:46Z</time>
      </trkpt>
      <trkpt lat="51.367839965969324" lon="10.860334960743785">
        <ele>204.90000000000001</ele>
        <time>2017-05-21T12:38:53Z</time>
      </trkpt>
      <trkpt lat="51.367796966806054" lon="10.860478961840272">
        <ele>204.90000000000001</ele>
        <time>2017-05-21T12:38:54Z</time>
      </trkpt>
      <trkpt lat="51.36778699234128" lon="10.860635032877326">
        <ele>204.41999999999999</ele>
        <time>2017-05-21T12:38:55Z</time>
      </trkpt>
      <trkpt lat="51.367799984291196" lon="10.860820021480322">
        <ele>204.41999999999999</ele>
        <time>2017-05-21T12:38:56Z</time>
      </trkpt>
      <trkpt lat="51.367821022868156" lon="10.86101196706295">
        <ele>204.41999999999999</ele>
        <time>2017-05-21T12:38:57Z</time>
      </trkpt>
      <trkpt lat="51.368068959563971" lon="10.86335202679038">
        <ele>202.49000000000001</ele>
        <time>2017-05-21T12:39:09Z</time>
      </trkpt>
      <trkpt lat="51.368275992572308" lon="10.865470971912146">
        <ele>200.56999999999999</ele>
        <time>2017-05-21T12:39:22Z</time>
      </trkpt>
      <trkpt lat="51.368312034755945" lon="10.866046976298094">
        <ele>202.00999999999999</ele>
        <time>2017-05-21T12:39:30Z</time>
      </trkpt>
      <trkpt lat="51.368271969258785" lon="10.866070026531816">
        <ele>202.49000000000001</ele>
        <time>2017-05-21T12:39:48Z</time>
      </trkpt>
      <trkpt lat="51.368298958986998" lon="10.866156024858356">
        <ele>202.97999999999999</ele>
        <time>2017-05-21T12:39:54Z</time>
      </trkpt>
      <trkpt lat="51.368327038362622" lon="10.866234982386231">
        <ele>204.41999999999999</ele>
        <time>2017-05-21T12:39:55Z</time>
      </trkpt>
      <trkpt lat="51.368490988388658" lon="10.867658983916044">
        <ele>203.46000000000001</ele>
        <time>2017-05-21T12:40:07Z</time>
      </trkpt>
      <trkpt lat="51.368574975058436" lon="10.869273003190756">
        <ele>206.81999999999999</ele>
        <time>2017-05-21T12:40:18Z</time>
      </trkpt>
      <trkpt lat="51.368488976731896" lon="10.871037980541587">
        <ele>208.25999999999999</ele>
        <time>2017-05-21T12:40:29Z</time>
      </trkpt>
      <trkpt lat="51.368438014760613" lon="10.8722909912467">
        <ele>205.86000000000001</ele>
        <time>2017-05-21T12:40:36Z</time>
      </trkpt>
      <trkpt lat="51.368615040555596" lon="10.874126041308045">
        <ele>209.22</ele>
        <time>2017-05-21T12:40:45Z</time>
      </trkpt>
      <trkpt lat="51.368504986166954" lon="10.876302989199758">
        <ele>205.86000000000001</ele>
        <time>2017-05-21T12:40:57Z</time>
      </trkpt>
      <trkpt lat="51.368513032793999" lon="10.876460988074541">
        <ele>205.38</ele>
        <time>2017-05-21T12:40:58Z</time>
      </trkpt>
      <trkpt lat="51.368730962276459" lon="10.878008035942912">
        <ele>199.13</ele>
        <time>2017-05-21T12:41:09Z</time>
      </trkpt>
      <trkpt lat="51.368779996410012" lon="10.878310035914183">
        <ele>198.16999999999999</ele>
        <time>2017-05-21T12:41:18Z</time>
      </trkpt>
      <trkpt lat="51.368846967816353" lon="10.878676995635033">
        <ele>196.25</ele>
        <time>2017-05-21T12:42:02Z</time>
      </trkpt>
      <trkpt lat="51.36888300999999" lon="10.878811022266746">
        <ele>195.77000000000001</ele>
        <time>2017-05-21T12:42:03Z</time>
      </trkpt>
      <trkpt lat="51.368930032476783" lon="10.878943959251046">
        <ele>195.77000000000001</ele>
        <time>2017-05-21T12:42:04Z</time>
      </trkpt>
      <trkpt lat="51.369576025754213" lon="10.880712037906051">
        <ele>194.80000000000001</ele>
        <time>2017-05-21T12:42:16Z</time>
      </trkpt>
      <trkpt lat="51.370419999584556" lon="10.882111983373761">
        <ele>195.77000000000001</ele>
        <time>2017-05-21T12:42:27Z</time>
      </trkpt>
      <trkpt lat="51.370669025927782" lon="10.882506016641855">
        <ele>195.77000000000001</ele>
        <time>2017-05-21T12:42:31Z</time>
      </trkpt>
      <trkpt lat="51.37068897485733" lon="10.882596960291266">
        <ele>196.25</ele>
        <time>2017-05-21T12:42:32Z</time>
      </trkpt>
      <trkpt lat="51.370686963200569" lon="10.882681030780077">
        <ele>196.25</ele>
        <time>2017-05-21T12:42:33Z</time>
      </trkpt>
      <trkpt lat="51.370655028149486" lon="10.882765017449856">
        <ele>195.28</ele>
        <time>2017-05-21T12:42:34Z</time>
      </trkpt>
      <trkpt lat="51.370603982359171" lon="10.882826037704945">
        <ele>195.77000000000001</ele>
        <time>2017-05-21T12:42:35Z</time>
      </trkpt>
      <trkpt lat="51.370523013174534" lon="10.882884962484241">
        <ele>195.77000000000001</ele>
        <time>2017-05-21T12:42:36Z</time>
      </trkpt>
      <trkpt lat="51.370431985706091" lon="10.882957968860865">
        <ele>195.28</ele>
        <time>2017-05-21T12:42:37Z</time>
      </trkpt>
      <trkpt lat="51.368961967527866" lon="10.883886013180017">
        <ele>194.80000000000001</ele>
        <time>2017-05-21T12:42:51Z</time>
      </trkpt>
      <trkpt lat="51.367714991793036" lon="10.884641977027059">
        <ele>196.25</ele>
        <time>2017-05-21T12:43:02Z</time>
      </trkpt>
      <trkpt lat="51.367612984031439" lon="10.884759994223714">
        <ele>196.25</ele>
        <time>2017-05-21T12:43:03Z</time>
      </trkpt>
      <trkpt lat="51.367513993754983" lon="10.884895026683807">
        <ele>197.21000000000001</ele>
        <time>2017-05-21T12:43:04Z</time>
      </trkpt>
      <trkpt lat="51.36742003262043" lon="10.885045984759927">
        <ele>198.16999999999999</ele>
        <time>2017-05-21T12:43:05Z</time>
      </trkpt>
      <trkpt lat="51.367330010980368" lon="10.885213036090136">
        <ele>198.65000000000001</ele>
        <time>2017-05-21T12:43:06Z</time>
      </trkpt>
      <trkpt lat="51.367244012653828" lon="10.885388972237706">
        <ele>199.61000000000001</ele>
        <time>2017-05-21T12:43:07Z</time>
      </trkpt>
      <trkpt lat="51.367157008498907" lon="10.885572033002973">
        <ele>200.56999999999999</ele>
        <time>2017-05-21T12:43:08Z</time>
      </trkpt>
      <trkpt lat="51.366395009681582" lon="10.887323012575507">
        <ele>203.94</ele>
        <time>2017-05-21T12:43:18Z</time>
      </trkpt>
      <trkpt lat="51.365952026098967" lon="10.888696974143386">
        <ele>201.53</ele>
        <time>2017-05-21T12:43:25Z</time>
      </trkpt>
      <trkpt lat="51.365345008671284" lon="10.891042985022068">
        <ele>195.77000000000001</ele>
        <time>2017-05-21T12:43:37Z</time>
      </trkpt>
      <trkpt lat="51.365044014528394" lon="10.893754027783871">
        <ele>192.40000000000001</ele>
        <time>2017-05-21T12:43:49Z</time>
      </trkpt>
      <trkpt lat="51.364645035937428" lon="10.895823016762733">
        <ele>192.40000000000001</ele>
        <time>2017-05-21T12:43:59Z</time>
      </trkpt>
      <trkpt lat="51.364095015451312" lon="10.898225018754601">
        <ele>193.36000000000001</ele>
        <time>2017-05-21T12:44:09Z</time>
      </trkpt>
      <trkpt lat="51.363077033311129" lon="10.902193011716008">
        <ele>192.40000000000001</ele>
        <time>2017-05-21T12:44:23Z</time>
      </trkpt>
      <trkpt lat="51.36254302226007" lon="10.904653016477823">
        <ele>189.52000000000001</ele>
        <time>2017-05-21T12:44:31Z</time>
      </trkpt>
      <trkpt lat="51.362197017297149" lon="10.908033018931746">
        <ele>191.44</ele>
        <time>2017-05-21T12:44:43Z</time>
      </trkpt>
      <trkpt lat="51.361889988183975" lon="10.911231972277164">
        <ele>190.96000000000001</ele>
        <time>2017-05-21T12:44:53Z</time>
      </trkpt>
      <trkpt lat="51.361816981807351" lon="10.911605972796679">
        <ele>190.47999999999999</ele>
        <time>2017-05-21T12:44:54Z</time>
      </trkpt>
      <trkpt lat="51.361723020672798" lon="10.911979973316193">
        <ele>190</ele>
        <time>2017-05-21T12:44:55Z</time>
      </trkpt>
      <trkpt lat="51.360592972487211" lon="10.915958024561405">
        <ele>187.59</ele>
        <time>2017-05-21T12:45:05Z</time>
      </trkpt>
      <trkpt lat="51.359565015882254" lon="10.919517986476421">
        <ele>186.63</ele>
        <time>2017-05-21T12:45:14Z</time>
      </trkpt>
      <trkpt lat="51.359419003129005" lon="10.91977003030479">
        <ele>187.11000000000001</ele>
        <time>2017-05-21T12:45:15Z</time>
      </trkpt>
      <trkpt lat="51.359254969283938" lon="10.919995000585914">
        <ele>187.11000000000001</ele>
        <time>2017-05-21T12:45:16Z</time>
      </trkpt>
      <trkpt lat="51.357638016343117" lon="10.921838013455272">
        <ele>186.63</ele>
        <time>2017-05-21T12:45:24Z</time>
      </trkpt>
      <trkpt lat="51.35706402361393" lon="10.922446036711335">
        <ele>187.11000000000001</ele>
        <time>2017-05-21T12:45:27Z</time>
      </trkpt>
      <trkpt lat="51.356874005869031" lon="10.92256598174572">
        <ele>187.11000000000001</ele>
        <time>2017-05-21T12:45:28Z</time>
      </trkpt>
      <trkpt lat="51.356684993952513" lon="10.922622978687286">
        <ele>187.11000000000001</ele>
        <time>2017-05-21T12:45:29Z</time>
      </trkpt>
      <trkpt lat="51.356495982035995" lon="10.922638988122344">
        <ele>187.59</ele>
        <time>2017-05-21T12:45:30Z</time>
      </trkpt>
      <trkpt lat="51.356305964291096" lon="10.922625996172428">
        <ele>187.59</ele>
        <time>2017-05-21T12:45:31Z</time>
      </trkpt>
      <trkpt lat="51.356116030365229" lon="10.922603029757738">
        <ele>187.59</ele>
        <time>2017-05-21T12:45:32Z</time>
      </trkpt>
      <trkpt lat="51.354776015505195" lon="10.922588026151061">
        <ele>186.63</ele>
        <time>2017-05-21T12:45:39Z</time>
      </trkpt>
      <trkpt lat="51.354588009417057" lon="10.922677963972092">
        <ele>186.63</ele>
        <time>2017-05-21T12:45:40Z</time>
      </trkpt>
      <trkpt lat="51.354404026642442" lon="10.922795981168747">
        <ele>186.63</ele>
        <time>2017-05-21T12:45:41Z</time>
      </trkpt>
      <trkpt lat="51.354230018332601" lon="10.922950962558389">
        <ele>186.63</ele>
        <time>2017-05-21T12:45:42Z</time>
      </trkpt>
      <trkpt lat="51.354076964780688" lon="10.923133017495275">
        <ele>185.66999999999999</ele>
        <time>2017-05-21T12:45:43Z</time>
      </trkpt>
      <trkpt lat="51.353959031403065" lon="10.923347007483244">
        <ele>184.71000000000001</ele>
        <time>2017-05-21T12:45:44Z</time>
      </trkpt>
      <trkpt lat="51.353878984227777" lon="10.923599973320961">
        <ele>184.71000000000001</ele>
        <time>2017-05-21T12:45:45Z</time>
      </trkpt>
      <trkpt lat="51.353832967579365" lon="10.923885963857174">
        <ele>184.71000000000001</ele>
        <time>2017-05-21T12:45:46Z</time>
      </trkpt>
      <trkpt lat="51.35379902087152" lon="10.924199027940631">
        <ele>185.19</ele>
        <time>2017-05-21T12:45:47Z</time>
      </trkpt>
      <trkpt lat="51.353599028661847" lon="10.92600298114121">
        <ele>185.66999999999999</ele>
        <time>2017-05-21T12:45:52Z</time>
      </trkpt>
      <trkpt lat="51.353265009820461" lon="10.928885014727712">
        <ele>186.15000000000001</ele>
        <time>2017-05-21T12:46:00Z</time>
      </trkpt>
      <trkpt lat="51.353107010945678" lon="10.93027900904417">
        <ele>186.63</ele>
        <time>2017-05-21T12:46:06Z</time>
      </trkpt>
      <trkpt lat="51.353043979033828" lon="10.931247035041451">
        <ele>187.11000000000001</ele>
        <time>2017-05-21T12:46:13Z</time>
      </trkpt>
      <trkpt lat="51.353029981255531" lon="10.933214016258717">
        <ele>186.15000000000001</ele>
        <time>2017-05-21T12:46:23Z</time>
      </trkpt>
      <trkpt lat="51.353249000385404" lon="10.937340008094907">
        <ele>187.11000000000001</ele>
        <time>2017-05-21T12:46:40Z</time>
      </trkpt>
      <trkpt lat="51.353065017610788" lon="10.940040992572904">
        <ele>188.56</ele>
        <time>2017-05-21T12:46:49Z</time>
      </trkpt>
      <trkpt lat="51.35266100987792" lon="10.943540018051863">
        <ele>188.56</ele>
        <time>2017-05-21T12:46:58Z</time>
      </trkpt>
      <trkpt lat="51.352431010454893" lon="10.945586040616035">
        <ele>190.47999999999999</ele>
        <time>2017-05-21T12:47:05Z</time>
      </trkpt>
      <trkpt lat="51.352418018504977" lon="10.945824002847075">
        <ele>190.96000000000001</ele>
        <time>2017-05-21T12:47:06Z</time>
      </trkpt>
      <trkpt lat="51.3524220418185" lon="10.946057019755244">
        <ele>190.96000000000001</ele>
        <time>2017-05-21T12:47:07Z</time>
      </trkpt>
      <trkpt lat="51.352447019889951" lon="10.946290958672762">
        <ele>190.96000000000001</ele>
        <time>2017-05-21T12:47:08Z</time>
      </trkpt>
      <trkpt lat="51.352482978254557" lon="10.946509977802634">
        <ele>190.96000000000001</ele>
        <time>2017-05-21T12:47:09Z</time>
      </trkpt>
      <trkpt lat="51.352524971589446" lon="10.946704018861055">
        <ele>190.96000000000001</ele>
        <time>2017-05-21T12:47:10Z</time>
      </trkpt>
      <trkpt lat="51.352569982409477" lon="10.946869980543852">
        <ele>191.44</ele>
        <time>2017-05-21T12:47:11Z</time>
      </trkpt>
      <trkpt lat="51.352684982120991" lon="10.947191007435322">
        <ele>191.91999999999999</ele>
        <time>2017-05-21T12:47:13Z</time>
      </trkpt>
      <trkpt lat="51.352767962962389" lon="10.947352023795247">
        <ele>191.91999999999999</ele>
        <time>2017-05-21T12:47:14Z</time>
      </trkpt>
      <trkpt lat="51.352869970723987" lon="10.947504993528128">
        <ele>192.40000000000001</ele>
        <time>2017-05-21T12:47:15Z</time>
      </trkpt>
      <trkpt lat="51.352989999577403" lon="10.947646982967854">
        <ele>192.88</ele>
        <time>2017-05-21T12:47:16Z</time>
      </trkpt>
      <trkpt lat="51.353126959875226" lon="10.947774974629283">
        <ele>193.36000000000001</ele>
        <time>2017-05-21T12:47:17Z</time>
      </trkpt>
      <trkpt lat="51.353281019255519" lon="10.947888968512416">
        <ele>193.84</ele>
        <time>2017-05-21T12:47:18Z</time>
      </trkpt>
      <trkpt lat="51.353443963453174" lon="10.947984019294381">
        <ele>194.80000000000001</ele>
        <time>2017-05-21T12:47:19Z</time>
      </trkpt>
      <trkpt lat="51.353625012561679" lon="10.948046967387199">
        <ele>195.77000000000001</ele>
        <time>2017-05-21T12:47:20Z</time>
      </trkpt>
      <trkpt lat="51.353816036134958" lon="10.948076974600554">
        <ele>196.25</ele>
        <time>2017-05-21T12:47:21Z</time>
      </trkpt>
      <trkpt lat="51.354009993374348" lon="10.948076974600554">
        <ele>197.21000000000001</ele>
        <time>2017-05-21T12:47:22Z</time>
      </trkpt>
      <trkpt lat="51.354210991412401" lon="10.948055014014244">
        <ele>198.16999999999999</ele>
        <time>2017-05-21T12:47:23Z</time>
      </trkpt>
      <trkpt lat="51.354415006935596" lon="10.948029030114412">
        <ele>199.13</ele>
        <time>2017-05-21T12:47:24Z</time>
      </trkpt>
      <trkpt lat="51.35633597150445" lon="10.947714038193226">
        <ele>205.86000000000001</ele>
        <time>2017-05-21T12:47:33Z</time>
      </trkpt>
      <trkpt lat="51.357115991413593" lon="10.947524020448327">
        <ele>208.25999999999999</ele>
        <time>2017-05-21T12:47:38Z</time>
      </trkpt>
      <trkpt lat="51.357250018045306" lon="10.947532989084721">
        <ele>208.74000000000001</ele>
        <time>2017-05-21T12:47:39Z</time>
      </trkpt>
      <trkpt lat="51.357383960857987" lon="10.947599960491061">
        <ele>209.22</ele>
        <time>2017-05-21T12:47:40Z</time>
      </trkpt>
      <trkpt lat="51.357500972226262" lon="10.947711020708084">
        <ele>210.19</ele>
        <time>2017-05-21T12:47:41Z</time>
      </trkpt>
      <trkpt lat="51.357600968331099" lon="10.947899026796222">
        <ele>211.15000000000001</ele>
        <time>2017-05-21T12:47:42Z</time>
      </trkpt>
      <trkpt lat="51.357685960829258" lon="10.948156015947461">
        <ele>212.59</ele>
        <time>2017-05-21T12:47:43Z</time>
      </trkpt>
      <trkpt lat="51.357739018276334" lon="10.948403030633926">
        <ele>214.03</ele>
        <time>2017-05-21T12:47:44Z</time>
      </trkpt>
      <trkpt lat="51.357726026326418" lon="10.948684997856617">
        <ele>215.47</ele>
        <time>2017-05-21T12:47:45Z</time>
      </trkpt>
      <trkpt lat="51.357701970264316" lon="10.948984986171126">
        <ele>215.47</ele>
        <time>2017-05-21T12:47:46Z</time>
      </trkpt>
      <trkpt lat="51.357684032991529" lon="10.949295032769442">
        <ele>216.43000000000001</ele>
        <time>2017-05-21T12:47:47Z</time>
      </trkpt>
      <trkpt lat="51.357722003012896" lon="10.950735965743661">
        <ele>220.75999999999999</ele>
        <time>2017-05-21T12:47:53Z</time>
      </trkpt>
      <trkpt lat="51.357720997184515" lon="10.950942998751998">
        <ele>221.24000000000001</ele>
        <time>2017-05-21T12:47:54Z</time>
      </trkpt>
      <trkpt lat="51.357705993577838" lon="10.951134022325277">
        <ele>222.19999999999999</ele>
        <time>2017-05-21T12:47:55Z</time>
      </trkpt>
      <trkpt lat="51.357671963050961" lon="10.951268970966339">
        <ele>222.68000000000001</ele>
        <time>2017-05-21T12:47:56Z</time>
      </trkpt>
      <trkpt lat="51.357610020786524" lon="10.951348012313247">
        <ele>223.63999999999999</ele>
        <time>2017-05-21T12:47:57Z</time>
      </trkpt>
      <trkpt lat="51.357539026066661" lon="10.951371984556317">
        <ele>224.12</ele>
        <time>2017-05-21T12:47:58Z</time>
      </trkpt>
      <trkpt lat="51.357455039396882" lon="10.95133401453495">
        <ele>223.63999999999999</ele>
        <time>2017-05-21T12:47:59Z</time>
      </trkpt>
      <trkpt lat="51.35738798417151" lon="10.951241981238127">
        <ele>224.12</ele>
        <time>2017-05-21T12:48:00Z</time>
      </trkpt>
      <trkpt lat="51.357336016371846" lon="10.951108038425446">
        <ele>225.09</ele>
        <time>2017-05-21T12:48:01Z</time>
      </trkpt>
      <trkpt lat="51.357277007773519" lon="10.950938975438476">
        <ele>226.53</ele>
        <time>2017-05-21T12:48:02Z</time>
      </trkpt>
      <trkpt lat="51.356980036944151" lon="10.95013196580112">
        <ele>227.97</ele>
        <time>2017-05-21T12:48:06Z</time>
      </trkpt>
      <trkpt lat="51.35687300004065" lon="10.949978996068239">
        <ele>227.97</ele>
        <time>2017-05-21T12:48:07Z</time>
      </trkpt>
      <trkpt lat="51.35674400255084" lon="10.94989400357008">
        <ele>227.97</ele>
        <time>2017-05-21T12:48:08Z</time>
      </trkpt>
      <trkpt lat="51.356602013111115" lon="10.949871959164739">
        <ele>228.44999999999999</ele>
        <time>2017-05-21T12:48:09Z</time>
      </trkpt>
      <trkpt lat="51.356463963165879" lon="10.949902972206473">
        <ele>229.88999999999999</ele>
        <time>2017-05-21T12:48:10Z</time>
      </trkpt>
      <trkpt lat="51.356333959847689" lon="10.949976984411478">
        <ele>230.37</ele>
        <time>2017-05-21T12:48:11Z</time>
      </trkpt>
      <trkpt lat="51.356208985671401" lon="10.950090978294611">
        <ele>230.84999999999999</ele>
        <time>2017-05-21T12:48:12Z</time>
      </trkpt>
      <trkpt lat="51.356089962646365" lon="10.9502590354532">
        <ele>231.33000000000001</ele>
        <time>2017-05-21T12:48:13Z</time>
      </trkpt>
      <trkpt lat="51.355997007340193" lon="10.950469002127647">
        <ele>231.81</ele>
        <time>2017-05-21T12:48:14Z</time>
      </trkpt>
      <trkpt lat="51.355928024277091" lon="10.950715010985732">
        <ele>233.25999999999999</ele>
        <time>2017-05-21T12:48:15Z</time>
      </trkpt>
      <trkpt lat="51.355889970436692" lon="10.950992032885551">
        <ele>233.74000000000001</ele>
        <time>2017-05-21T12:48:16Z</time>
      </trkpt>
      <trkpt lat="51.355879995971918" lon="10.951274000108242">
        <ele>234.69999999999999</ele>
        <time>2017-05-21T12:48:17Z</time>
      </trkpt>
      <trkpt lat="51.355896005406976" lon="10.951573988422751">
        <ele>235.66</ele>
        <time>2017-05-21T12:48:18Z</time>
      </trkpt>
      <trkpt lat="51.355918971821666" lon="10.951885040849447">
        <ele>236.62</ele>
        <time>2017-05-21T12:48:19Z</time>
      </trkpt>
      <trkpt lat="51.355962976813316" lon="10.952204978093505">
        <ele>237.58000000000001</ele>
        <time>2017-05-21T12:48:20Z</time>
      </trkpt>
      <trkpt lat="51.35654803365469" lon="10.954566998407245">
        <ele>246.72</ele>
        <time>2017-05-21T12:48:27Z</time>
      </trkpt>
      <trkpt lat="51.357804983854294" lon="10.958256041631103">
        <ele>264.98000000000002</ele>
        <time>2017-05-21T12:48:37Z</time>
      </trkpt>
      <trkpt lat="51.35831200517714" lon="10.959665961563587">
        <ele>271.23000000000002</ele>
        <time>2017-05-21T12:48:42Z</time>
      </trkpt>
      <trkpt lat="51.35841996408999" lon="10.959835024550557">
        <ele>271.70999999999998</ele>
        <time>2017-05-21T12:48:43Z</time>
      </trkpt>
      <trkpt lat="51.358531024307013" lon="10.959979025647044">
        <ele>272.19</ele>
        <time>2017-05-21T12:48:44Z</time>
      </trkpt>
      <trkpt lat="51.35863202624023" lon="10.960112968459725">
        <ele>272.67000000000002</ele>
        <time>2017-05-21T12:48:45Z</time>
      </trkpt>
      <trkpt lat="51.358715007081628" lon="10.960259987041354">
        <ele>273.14999999999998</ele>
        <time>2017-05-21T12:48:46Z</time>
      </trkpt>
      <trkpt lat="51.358745014294982" lon="10.960458973422647">
        <ele>273.63</ele>
        <time>2017-05-21T12:48:47Z</time>
      </trkpt>
      <trkpt lat="51.358748031780124" lon="10.960691990330815">
        <ele>274.11000000000001</ele>
        <time>2017-05-21T12:48:48Z</time>
      </trkpt>
      <trkpt lat="51.35874199680984" lon="10.960948979482055">
        <ele>274.58999999999997</ele>
        <time>2017-05-21T12:48:49Z</time>
      </trkpt>
      <trkpt lat="51.358729004859924" lon="10.961231030523777">
        <ele>275.56</ele>
        <time>2017-05-21T12:48:50Z</time>
      </trkpt>
      <trkpt lat="51.358643006533384" lon="10.962931970134377">
        <ele>279.88</ele>
        <time>2017-05-21T12:48:56Z</time>
      </trkpt>
      <trkpt lat="51.35867795906961" lon="10.963139003142715">
        <ele>281.31999999999999</ele>
        <time>2017-05-21T12:48:57Z</time>
      </trkpt>
      <trkpt lat="51.358735039830208" lon="10.963321980088949">
        <ele>282.27999999999997</ele>
        <time>2017-05-21T12:48:58Z</time>
      </trkpt>
      <trkpt lat="51.358832018449903" lon="10.963479978963733">
        <ele>282.76999999999998</ele>
        <time>2017-05-21T12:48:59Z</time>
      </trkpt>
      <trkpt lat="51.358940983191133" lon="10.963637977838516">
        <ele>283.73000000000002</ele>
        <time>2017-05-21T12:49:00Z</time>
      </trkpt>
      <trkpt lat="51.35908498428762" lon="10.963805029168725">
        <ele>286.13</ele>
        <time>2017-05-21T12:49:01Z</time>
      </trkpt>
      <trkpt lat="51.359497038647532" lon="10.964368041604757">
        <ele>288.05000000000001</ele>
        <time>2017-05-21T12:49:04Z</time>
      </trkpt>
      <trkpt lat="51.359623018652201" lon="10.964597035199404">
        <ele>287.56999999999999</ele>
        <time>2017-05-21T12:49:05Z</time>
      </trkpt>
      <trkpt lat="51.359724020585418" lon="10.964846983551979">
        <ele>287.08999999999997</ele>
        <time>2017-05-21T12:49:06Z</time>
      </trkpt>
      <trkpt lat="51.359796021133661" lon="10.965118976309896">
        <ele>286.13</ele>
        <time>2017-05-21T12:49:07Z</time>
      </trkpt>
      <trkpt lat="51.359831979498267" lon="10.965408990159631">
        <ele>285.17000000000002</ele>
        <time>2017-05-21T12:49:08Z</time>
      </trkpt>
      <trkpt lat="51.359841031953692" lon="10.965720964595675">
        <ele>284.20999999999998</ele>
        <time>2017-05-21T12:49:09Z</time>
      </trkpt>
      <trkpt lat="51.35983600281179" lon="10.9660529717803">
        <ele>283.25</ele>
        <time>2017-05-21T12:49:10Z</time>
      </trkpt>
      <trkpt lat="51.359799960628152" lon="10.966764008626342">
        <ele>280.83999999999997</ele>
        <time>2017-05-21T12:49:12Z</time>
      </trkpt>
      <trkpt lat="51.359742041677237" lon="10.967124011367559">
        <ele>279.39999999999998</ele>
        <time>2017-05-21T12:49:13Z</time>
      </trkpt>
      <trkpt lat="51.359659982845187" lon="10.967479990795255">
        <ele>278.44</ele>
        <time>2017-05-21T12:49:14Z</time>
      </trkpt>
      <trkpt lat="51.35955504141748" lon="10.967810992151499">
        <ele>277.48000000000002</ele>
        <time>2017-05-21T12:49:15Z</time>
      </trkpt>
      <trkpt lat="51.359435012564063" lon="10.968106035143137">
        <ele>276.51999999999998</ele>
        <time>2017-05-21T12:49:16Z</time>
      </trkpt>
      <trkpt lat="51.359316995367408" lon="10.968355983495712">
        <ele>276.04000000000002</ele>
        <time>2017-05-21T12:49:17Z</time>
      </trkpt>
      <trkpt lat="51.359212975949049" lon="10.968552958220243">
        <ele>275.06999999999999</ele>
        <time>2017-05-21T12:49:18Z</time>
      </trkpt>
      <trkpt lat="51.359133012592793" lon="10.968730989843607">
        <ele>274.58999999999997</ele>
        <time>2017-05-21T12:49:19Z</time>
      </trkpt>
      <trkpt lat="51.359095964580774" lon="10.968936011195183">
        <ele>273.63</ele>
        <time>2017-05-21T12:49:20Z</time>
      </trkpt>
      <trkpt lat="51.35908498428762" lon="10.969173973426223">
        <ele>273.14999999999998</ele>
        <time>2017-05-21T12:49:21Z</time>
      </trkpt>
      <trkpt lat="51.359103005379438" lon="10.969441020861268">
        <ele>271.70999999999998</ele>
        <time>2017-05-21T12:49:22Z</time>
      </trkpt>
      <trkpt lat="51.359125971794128" lon="10.969737991690636">
        <ele>270.75</ele>
        <time>2017-05-21T12:49:23Z</time>
      </trkpt>
      <trkpt lat="51.359086995944381" lon="10.971568012610078">
        <ele>265.94</ele>
        <time>2017-05-21T12:49:28Z</time>
      </trkpt>
      <trkpt lat="51.358979037031531" lon="10.972330011427402">
        <ele>263.54000000000002</ele>
        <time>2017-05-21T12:49:30Z</time>
      </trkpt>
      <trkpt lat="51.35889396071434" lon="10.972684985026717">
        <ele>262.10000000000002</ele>
        <time>2017-05-21T12:49:31Z</time>
      </trkpt>
      <trkpt lat="51.358378976583481" lon="10.974351977929473">
        <ele>257.29000000000002</ele>
        <time>2017-05-21T12:49:36Z</time>
      </trkpt>
      <trkpt lat="51.358308987691998" lon="10.974695971235633">
        <ele>256.32999999999998</ele>
        <time>2017-05-21T12:49:37Z</time>
      </trkpt>
      <trkpt lat="51.358256014063954" lon="10.975035019218922">
        <ele>255.37</ele>
        <time>2017-05-21T12:49:38Z</time>
      </trkpt>
      <trkpt lat="51.358168004080653" lon="10.975957028567791">
        <ele>251.03999999999999</ele>
        <time>2017-05-21T12:49:41Z</time>
      </trkpt>
      <trkpt lat="51.358193987980485" lon="10.976191973313689">
        <ele>247.19999999999999</ele>
        <time>2017-05-21T12:49:42Z</time>
      </trkpt>
      <trkpt lat="51.35824897326529" lon="10.976421972736716">
        <ele>246.22999999999999</ele>
        <time>2017-05-21T12:49:43Z</time>
      </trkpt>
      <trkpt lat="51.358341006562114" lon="10.976629005745053">
        <ele>244.78999999999999</ele>
        <time>2017-05-21T12:49:44Z</time>
      </trkpt>
      <trkpt lat="51.358481990173459" lon="10.976839978247881">
        <ele>243.34999999999999</ele>
        <time>2017-05-21T12:49:45Z</time>
      </trkpt>
      <trkpt lat="51.358636971563101" lon="10.97707400098443">
        <ele>242.87</ele>
        <time>2017-05-21T12:49:46Z</time>
      </trkpt>
      <trkpt lat="51.359196966513991" lon="10.977786965668201">
        <ele>243.34999999999999</ele>
        <time>2017-05-21T12:49:49Z</time>
      </trkpt>
      <trkpt lat="51.360605964437127" lon="10.979438032954931">
        <ele>247.68000000000001</ele>
        <time>2017-05-21T12:49:56Z</time>
      </trkpt>
      <trkpt lat="51.36155404150486" lon="10.980680985376239">
        <ele>252.47999999999999</ele>
        <time>2017-05-21T12:50:01Z</time>
      </trkpt>
      <trkpt lat="51.362360967323184" lon="10.981636019423604">
        <ele>252.96000000000001</ele>
        <time>2017-05-21T12:50:06Z</time>
      </trkpt>
      <trkpt lat="51.362466998398304" lon="10.981854032725096">
        <ele>252.96000000000001</ele>
        <time>2017-05-21T12:50:07Z</time>
      </trkpt>
      <trkpt lat="51.362541010603309" lon="10.9820990357548">
        <ele>252.47999999999999</ele>
        <time>2017-05-21T12:50:08Z</time>
      </trkpt>
      <trkpt lat="51.36258702725172" lon="10.98237999714911">
        <ele>252</ele>
        <time>2017-05-21T12:50:09Z</time>
      </trkpt>
      <trkpt lat="51.362606976181269" lon="10.982670010998845">
        <ele>251.52000000000001</ele>
        <time>2017-05-21T12:50:10Z</time>
      </trkpt>
      <trkpt lat="51.362601025030017" lon="10.982942003756762">
        <ele>251.03999999999999</ele>
        <time>2017-05-21T12:50:11Z</time>
      </trkpt>
      <trkpt lat="51.36256699450314" lon="10.983195975422859">
        <ele>250.56</ele>
        <time>2017-05-21T12:50:12Z</time>
      </trkpt>
      <trkpt lat="51.362488958984613" lon="10.983421029523015">
        <ele>249.12</ele>
        <time>2017-05-21T12:50:13Z</time>
      </trkpt>
      <trkpt lat="51.362383011728525" lon="10.983615992590785">
        <ele>247.19999999999999</ele>
        <time>2017-05-21T12:50:14Z</time>
      </trkpt>
      <trkpt lat="51.362262982875109" lon="10.983783965930343">
        <ele>246.22999999999999</ele>
        <time>2017-05-21T12:50:15Z</time>
      </trkpt>
      <trkpt lat="51.362142032012343" lon="10.983940036967397">
        <ele>245.75</ele>
        <time>2017-05-21T12:50:16Z</time>
      </trkpt>
      <trkpt lat="51.362041030079126" lon="10.984104992821813">
        <ele>244.78999999999999</ele>
        <time>2017-05-21T12:50:17Z</time>
      </trkpt>
      <trkpt lat="51.361966012045741" lon="10.984286963939667">
        <ele>244.31</ele>
        <time>2017-05-21T12:50:18Z</time>
      </trkpt>
      <trkpt lat="51.361929969862103" lon="10.98448502831161">
        <ele>242.38999999999999</ele>
        <time>2017-05-21T12:50:19Z</time>
      </trkpt>
      <trkpt lat="51.361942961812019" lon="10.984698012471199">
        <ele>241.43000000000001</ele>
        <time>2017-05-21T12:50:20Z</time>
      </trkpt>
      <trkpt lat="51.361974980682135" lon="10.984930023550987">
        <ele>240.94999999999999</ele>
        <time>2017-05-21T12:50:21Z</time>
      </trkpt>
      <trkpt lat="51.362187964841723" lon="10.986828021705151">
        <ele>235.18000000000001</ele>
        <time>2017-05-21T12:50:27Z</time>
      </trkpt>
      <trkpt lat="51.362311011180282" lon="10.989575022831559">
        <ele>227.49000000000001</ele>
        <time>2017-05-21T12:50:35Z</time>
      </trkpt>
      <trkpt lat="51.362283015623689" lon="10.989891020581126">
        <ele>226.53</ele>
        <time>2017-05-21T12:50:36Z</time>
      </trkpt>
      <trkpt lat="51.36224202811718" lon="10.990207018330693">
        <ele>226.05000000000001</ele>
        <time>2017-05-21T12:50:37Z</time>
      </trkpt>
      <trkpt lat="51.362183019518852" lon="10.990525027737021">
        <ele>223.63999999999999</ele>
        <time>2017-05-21T12:50:38Z</time>
      </trkpt>
      <trkpt lat="51.36211403645575" lon="10.990838008001447">
        <ele>223.16</ele>
        <time>2017-05-21T12:50:39Z</time>
      </trkpt>
      <trkpt lat="51.362019991502166" lon="10.991136990487576">
        <ele>220.28</ele>
        <time>2017-05-21T12:50:40Z</time>
      </trkpt>
      <trkpt lat="51.361899962648749" lon="10.991437984630466">
        <ele>220.28</ele>
        <time>2017-05-21T12:50:41Z</time>
      </trkpt>
      <trkpt lat="51.361778005957603" lon="10.991721041500568">
        <ele>218.84</ele>
        <time>2017-05-21T12:50:42Z</time>
      </trkpt>
      <trkpt lat="51.361670969054103" lon="10.991999991238117">
        <ele>215.94999999999999</ele>
        <time>2017-05-21T12:50:43Z</time>
      </trkpt>
      <trkpt lat="51.361592011526227" lon="10.992295034229755">
        <ele>214.99000000000001</ele>
        <time>2017-05-21T12:50:44Z</time>
      </trkpt>
      <trkpt lat="51.361538032069802" lon="10.99260600283742">
        <ele>214.03</ele>
        <time>2017-05-21T12:50:45Z</time>
      </trkpt>
      <trkpt lat="51.361444992944598" lon="10.993507979437709">
        <ele>212.11000000000001</ele>
        <time>2017-05-21T12:50:48Z</time>
      </trkpt>
      <trkpt lat="51.361455973237753" lon="10.993763962760568">
        <ele>211.15000000000001</ele>
        <time>2017-05-21T12:50:49Z</time>
      </trkpt>
      <trkpt lat="51.361495032906532" lon="10.993997985497117">
        <ele>209.22</ele>
        <time>2017-05-21T12:50:50Z</time>
      </trkpt>
      <trkpt lat="51.361568961292505" lon="10.994217004626989">
        <ele>208.25999999999999</ele>
        <time>2017-05-21T12:50:51Z</time>
      </trkpt>
      <trkpt lat="51.361675998196006" lon="10.994416996836662">
        <ele>207.30000000000001</ele>
        <time>2017-05-21T12:50:52Z</time>
      </trkpt>
      <trkpt lat="51.361809018999338" lon="10.994607014581561">
        <ele>205.86000000000001</ele>
        <time>2017-05-21T12:50:53Z</time>
      </trkpt>
      <trkpt lat="51.361972969025373" lon="10.99477800540626">
        <ele>204.90000000000001</ele>
        <time>2017-05-21T12:50:54Z</time>
      </trkpt>
      <trkpt lat="51.36215703561902" lon="10.99494899623096">
        <ele>204.41999999999999</ele>
        <time>2017-05-21T12:50:55Z</time>
      </trkpt>
      <trkpt lat="51.363709028810263" lon="10.99630200304091">
        <ele>197.21000000000001</ele>
        <time>2017-05-21T12:51:02Z</time>
      </trkpt>
      <trkpt lat="51.366300964727998" lon="10.998547011986375">
        <ele>187.59</ele>
        <time>2017-05-21T12:51:13Z</time>
      </trkpt>
      <trkpt lat="51.36810801923275" lon="11.000168994069099">
        <ele>181.34999999999999</ele>
        <time>2017-05-21T12:51:22Z</time>
      </trkpt>
      <trkpt lat="51.368561983108521" lon="11.000623041763902">
        <ele>178.94</ele>
        <time>2017-05-21T12:51:25Z</time>
      </trkpt>
      <trkpt lat="51.368672037497163" lon="11.000807024538517">
        <ele>178.94</ele>
        <time>2017-05-21T12:51:26Z</time>
      </trkpt>
      <trkpt lat="51.368758035823703" lon="11.001025959849358">
        <ele>178.94</ele>
        <time>2017-05-21T12:51:27Z</time>
      </trkpt>
      <trkpt lat="51.368817966431379" lon="11.001297030597925">
        <ele>178.46000000000001</ele>
        <time>2017-05-21T12:51:28Z</time>
      </trkpt>
      <trkpt lat="51.368857026100159" lon="11.001602970063686">
        <ele>177.97999999999999</ele>
        <time>2017-05-21T12:51:29Z</time>
      </trkpt>
      <trkpt lat="51.368880998343229" lon="11.001928020268679">
        <ele>177.97999999999999</ele>
        <time>2017-05-21T12:51:30Z</time>
      </trkpt>
      <trkpt lat="51.369029022753239" lon="11.004941985011101">
        <ele>172.69</ele>
        <time>2017-05-21T12:51:38Z</time>
      </trkpt>
      <trkpt lat="51.369136981666088" lon="11.007009968161583">
        <ele>168.37</ele>
        <time>2017-05-21T12:51:45Z</time>
      </trkpt>
      <trkpt lat="51.369091970846057" lon="11.008938979357481">
        <ele>164.03999999999999</ele>
        <time>2017-05-21T12:51:54Z</time>
      </trkpt>
      <trkpt lat="51.368923997506499" lon="11.010080007836223">
        <ele>162.59999999999999</ele>
        <time>2017-05-21T12:51:59Z</time>
      </trkpt>
      <trkpt lat="51.368846967816353" lon="11.010301960632205">
        <ele>162.12</ele>
        <time>2017-05-21T12:52:00Z</time>
      </trkpt>
      <trkpt lat="51.367992013692856" lon="11.011865017935634">
        <ele>159.72</ele>
        <time>2017-05-21T12:52:07Z</time>
      </trkpt>
      <trkpt lat="51.366418981924653" lon="11.013742983341217">
        <ele>155.87</ele>
        <time>2017-05-21T12:52:15Z</time>
      </trkpt>
      <trkpt lat="51.363371992483735" lon="11.017390033230186">
        <ele>151.06</ele>
        <time>2017-05-21T12:52:30Z</time>
      </trkpt>
      <trkpt lat="51.362842004746199" lon="11.018090005964041">
        <ele>150.58000000000001</ele>
        <time>2017-05-21T12:52:33Z</time>
      </trkpt>
      <trkpt lat="51.362722981721163" lon="11.018340038135648">
        <ele>151.06</ele>
        <time>2017-05-21T12:52:34Z</time>
      </trkpt>
      <trkpt lat="51.362631032243371" lon="11.018611025065184">
        <ele>151.06</ele>
        <time>2017-05-21T12:52:35Z</time>
      </trkpt>
      <trkpt lat="51.362241022288799" lon="11.020213980227709">
        <ele>152.03</ele>
        <time>2017-05-21T12:52:40Z</time>
      </trkpt>
      <trkpt lat="51.362195005640388" lon="11.020565014332533">
        <ele>152.03</ele>
        <time>2017-05-21T12:52:41Z</time>
      </trkpt>
      <trkpt lat="51.361933993175626" lon="11.023786012083292">
        <ele>153.94999999999999</ele>
        <time>2017-05-21T12:52:49Z</time>
      </trkpt>
      <trkpt lat="51.361434012651443" lon="11.029842020943761">
        <ele>158.27000000000001</ele>
        <time>2017-05-21T12:53:03Z</time>
      </trkpt>
      <trkpt lat="51.361222034320235" lon="11.032692035660148">
        <ele>159.24000000000001</ele>
        <time>2017-05-21T12:53:10Z</time>
      </trkpt>
      <trkpt lat="51.360896984115243" lon="11.036690035834908">
        <ele>158.27000000000001</ele>
        <time>2017-05-21T12:53:20Z</time>
      </trkpt>
      <trkpt lat="51.360708978027105" lon="11.038875030353665">
        <ele>157.78999999999999</ele>
        <time>2017-05-21T12:53:28Z</time>
      </trkpt>
      <trkpt lat="51.360619962215424" lon="11.040463987737894">
        <ele>156.34999999999999</ele>
        <time>2017-05-21T12:53:37Z</time>
      </trkpt>
      <trkpt lat="51.360633037984371" lon="11.0406260099262">
        <ele>155.87</ele>
        <time>2017-05-21T12:53:38Z</time>
      </trkpt>
      <trkpt lat="51.360662039369345" lon="11.040791971608996">
        <ele>155.38999999999999</ele>
        <time>2017-05-21T12:53:39Z</time>
      </trkpt>
      <trkpt lat="51.361239971593022" lon="11.043252982199192">
        <ele>151.06</ele>
        <time>2017-05-21T12:53:54Z</time>
      </trkpt>
      <trkpt lat="51.361912032589316" lon="11.045454991981387">
        <ele>148.18000000000001</ele>
        <time>2017-05-21T12:54:09Z</time>
      </trkpt>
      <trkpt lat="51.3620700314641" lon="11.045938963070512">
        <ele>147.22</ele>
        <time>2017-05-21T12:54:13Z</time>
      </trkpt>
      <trkpt lat="51.36209299787879" lon="11.046082964166999">
        <ele>146.25999999999999</ele>
        <time>2017-05-21T12:54:14Z</time>
      </trkpt>
      <trkpt lat="51.36220003478229" lon="11.046542041003704">
        <ele>145.30000000000001</ele>
        <time>2017-05-21T12:54:17Z</time>
      </trkpt>
      <trkpt lat="51.362250996753573" lon="11.04668403044343">
        <ele>144.81999999999999</ele>
        <time>2017-05-21T12:54:18Z</time>
      </trkpt>
      <trkpt lat="51.362311011180282" lon="11.046810010448098">
        <ele>144.34</ele>
        <time>2017-05-21T12:54:19Z</time>
      </trkpt>
      <trkpt lat="51.362383011728525" lon="11.046905983239412">
        <ele>144.34</ele>
        <time>2017-05-21T12:54:20Z</time>
      </trkpt>
      <trkpt lat="51.362463980913162" lon="11.046981001272798">
        <ele>143.84999999999999</ele>
        <time>2017-05-21T12:54:21Z</time>
      </trkpt>
      <trkpt lat="51.362547967582941" lon="11.047037998214364">
        <ele>143.84999999999999</ele>
        <time>2017-05-21T12:54:22Z</time>
      </trkpt>
      <trkpt lat="51.362703032791615" lon="11.047159032896161">
        <ele>143.37</ele>
        <time>2017-05-21T12:54:24Z</time>
      </trkpt>
      <trkpt lat="51.362748965620995" lon="11.047246959060431">
        <ele>143.37</ele>
        <time>2017-05-21T12:54:25Z</time>
      </trkpt>
      <trkpt lat="51.362773021683097" lon="11.047364976257086">
        <ele>142.88999999999999</ele>
        <time>2017-05-21T12:54:26Z</time>
      </trkpt>
      <trkpt lat="51.362767992541194" lon="11.047500008717179">
        <ele>142.88999999999999</ele>
        <time>2017-05-21T12:54:27Z</time>
      </trkpt>
      <trkpt lat="51.362752988934517" lon="11.047644009813666">
        <ele>142.41</ele>
        <time>2017-05-21T12:54:28Z</time>
      </trkpt>
      <trkpt lat="51.362729016691446" lon="11.047796979546547">
        <ele>142.41</ele>
        <time>2017-05-21T12:54:29Z</time>
      </trkpt>
      <trkpt lat="51.36262902058661" lon="11.049833027645946">
        <ele>141.44999999999999</ele>
        <time>2017-05-21T12:54:41Z</time>
      </trkpt>
      <trkpt lat="51.362670008093119" lon="11.049989014863968">
        <ele>140.49000000000001</ele>
        <time>2017-05-21T12:54:42Z</time>
      </trkpt>
      <trkpt lat="51.362733962014318" lon="11.050119018182158">
        <ele>139.53</ele>
        <time>2017-05-21T12:54:43Z</time>
      </trkpt>
      <trkpt lat="51.362832030281425" lon="11.050215996801853">
        <ele>139.53</ele>
        <time>2017-05-21T12:54:44Z</time>
      </trkpt>
      <trkpt lat="51.362949041649699" lon="11.05029403232038">
        <ele>139.53</ele>
        <time>2017-05-21T12:54:45Z</time>
      </trkpt>
      <trkpt lat="51.363081978634" lon="11.050371984019876">
        <ele>139.53</ele>
        <time>2017-05-21T12:54:46Z</time>
      </trkpt>
      <trkpt lat="51.364473039284348" lon="11.051198020577431">
        <ele>138.09</ele>
        <time>2017-05-21T12:54:54Z</time>
      </trkpt>
      <trkpt lat="51.365876002237201" lon="11.052097985520959">
        <ele>138.09</ele>
        <time>2017-05-21T12:55:01Z</time>
      </trkpt>
      <trkpt lat="51.366037018597126" lon="11.052303006872535">
        <ele>138.56999999999999</ele>
        <time>2017-05-21T12:55:02Z</time>
      </trkpt>
      <trkpt lat="51.366199040785432" lon="11.052547004073858">
        <ele>138.56999999999999</ele>
        <time>2017-05-21T12:55:03Z</time>
      </trkpt>
      <trkpt lat="51.366526018828154" lon="11.053058970719576">
        <ele>138.09</ele>
        <time>2017-05-21T12:55:05Z</time>
      </trkpt>
      <trkpt lat="51.366716036573052" lon="11.053277989849448">
        <ele>138.09</ele>
        <time>2017-05-21T12:55:06Z</time>
      </trkpt>
      <trkpt lat="51.36692700907588" lon="11.053455015644431">
        <ele>139.05000000000001</ele>
        <time>2017-05-21T12:55:07Z</time>
      </trkpt>
      <trkpt lat="51.36714200489223" lon="11.053608991205692">
        <ele>139.53</ele>
        <time>2017-05-21T12:55:08Z</time>
      </trkpt>
      <trkpt lat="51.367363035678864" lon="11.053750980645418">
        <ele>140.97</ele>
        <time>2017-05-21T12:55:09Z</time>
      </trkpt>
      <trkpt lat="51.369032962247729" lon="11.054787989705801">
        <ele>147.69999999999999</ele>
        <time>2017-05-21T12:55:17Z</time>
      </trkpt>
      <trkpt lat="51.369181992486119" lon="11.054928973317146">
        <ele>148.18000000000001</ele>
        <time>2017-05-21T12:55:18Z</time>
      </trkpt>
      <trkpt lat="51.369309984147549" lon="11.055109016597271">
        <ele>149.13999999999999</ele>
        <time>2017-05-21T12:55:19Z</time>
      </trkpt>
      <trkpt lat="51.36941903270781" lon="11.055329963564873">
        <ele>149.62</ele>
        <time>2017-05-21T12:55:20Z</time>
      </trkpt>
      <trkpt lat="51.36950695887208" lon="11.055587958544493">
        <ele>150.58000000000001</ele>
        <time>2017-05-21T12:55:21Z</time>
      </trkpt>
      <trkpt lat="51.369565967470407" lon="11.055875960737467">
        <ele>151.06</ele>
        <time>2017-05-21T12:55:22Z</time>
      </trkpt>
      <trkpt lat="51.369583988562226" lon="11.056173015385866">
        <ele>150.58000000000001</ele>
        <time>2017-05-21T12:55:23Z</time>
      </trkpt>
      <trkpt lat="51.369566973298788" lon="11.05648297816515">
        <ele>150.09999999999999</ele>
        <time>2017-05-21T12:55:24Z</time>
      </trkpt>
      <trkpt lat="51.36952699162066" lon="11.056807022541761">
        <ele>150.09999999999999</ele>
        <time>2017-05-21T12:55:25Z</time>
      </trkpt>
      <trkpt lat="51.369471000507474" lon="11.057153027504683">
        <ele>152.50999999999999</ele>
        <time>2017-05-21T12:55:26Z</time>
      </trkpt>
      <trkpt lat="51.368987029418349" lon="11.059859041124582">
        <ele>158.27000000000001</ele>
        <time>2017-05-21T12:55:33Z</time>
      </trkpt>
      <trkpt lat="51.368619985878468" lon="11.061097970232368">
        <ele>160.19999999999999</ele>
        <time>2017-05-21T12:55:38Z</time>
      </trkpt>
      <trkpt lat="51.368395015597343" lon="11.061815964058042">
        <ele>161.63999999999999</ele>
        <time>2017-05-21T12:55:44Z</time>
      </trkpt>
      <trkpt lat="51.368172978982329" lon="11.062492970377207">
        <ele>163.08000000000001</ele>
        <time>2017-05-21T12:55:50Z</time>
      </trkpt>
      <trkpt lat="51.367834014818072" lon="11.063923006877303">
        <ele>164.03999999999999</ele>
        <time>2017-05-21T12:55:56Z</time>
      </trkpt>
      <trkpt lat="51.366908987984061" lon="11.066016973927617">
        <ele>163.08000000000001</ele>
        <time>2017-05-21T12:56:04Z</time>
      </trkpt>
      <trkpt lat="51.366541022434831" lon="11.066790958866477">
        <ele>162.12</ele>
        <time>2017-05-21T12:56:07Z</time>
      </trkpt>
      <trkpt lat="51.366443037986755" lon="11.067090025171638">
        <ele>161.63999999999999</ele>
        <time>2017-05-21T12:56:08Z</time>
      </trkpt>
      <trkpt lat="51.365882037207484" lon="11.068889033049345">
        <ele>159.72</ele>
        <time>2017-05-21T12:56:14Z</time>
      </trkpt>
      <trkpt lat="51.365757985040545" lon="11.069140993058681">
        <ele>159.24000000000001</ele>
        <time>2017-05-21T12:56:15Z</time>
      </trkpt>
      <trkpt lat="51.3656170014292" lon="11.06937400996685">
        <ele>158.75</ele>
        <time>2017-05-21T12:56:16Z</time>
      </trkpt>
      <trkpt lat="51.364586027339101" lon="11.071226997300982">
        <ele>155.87</ele>
        <time>2017-05-21T12:56:24Z</time>
      </trkpt>
      <trkpt lat="51.363947996869683" lon="11.073493966832757">
        <ele>153.94999999999999</ele>
        <time>2017-05-21T12:56:32Z</time>
      </trkpt>
      <trkpt lat="51.363051971420646" lon="11.076209032908082">
        <ele>150.58000000000001</ele>
        <time>2017-05-21T12:56:43Z</time>
      </trkpt>
      <trkpt lat="51.362537993118167" lon="11.078136032447219">
        <ele>149.13999999999999</ele>
        <time>2017-05-21T12:56:51Z</time>
      </trkpt>
      <trkpt lat="51.362176984548569" lon="11.080217007547617">
        <ele>147.69999999999999</ele>
        <time>2017-05-21T12:57:00Z</time>
      </trkpt>
      <trkpt lat="51.362172961235046" lon="11.080452958121896">
        <ele>147.69999999999999</ele>
        <time>2017-05-21T12:57:01Z</time>
      </trkpt>
      <trkpt lat="51.362183019518852" lon="11.080683963373303">
        <ele>146.74000000000001</ele>
        <time>2017-05-21T12:57:02Z</time>
      </trkpt>
      <trkpt lat="51.362198023125529" lon="11.080899965018034">
        <ele>146.74000000000001</ele>
        <time>2017-05-21T12:57:03Z</time>
      </trkpt>
      <trkpt lat="51.362220989540219" lon="11.081101968884468">
        <ele>146.74000000000001</ele>
        <time>2017-05-21T12:57:04Z</time>
      </trkpt>
      <trkpt lat="51.36228796094656" lon="11.083094011992216">
        <ele>145.30000000000001</ele>
        <time>2017-05-21T12:57:14Z</time>
      </trkpt>
      <trkpt lat="51.361823016777635" lon="11.084971977397799">
        <ele>147.69999999999999</ele>
        <time>2017-05-21T12:57:23Z</time>
      </trkpt>
      <trkpt lat="51.361238965764642" lon="11.087388982996345">
        <ele>148.18000000000001</ele>
        <time>2017-05-21T12:57:34Z</time>
      </trkpt>
      <trkpt lat="51.360879968851805" lon="11.089918976649642">
        <ele>149.13999999999999</ele>
        <time>2017-05-21T12:57:46Z</time>
      </trkpt>
      <trkpt lat="51.360600013285875" lon="11.092566987499595">
        <ele>151.06</ele>
        <time>2017-05-21T12:57:59Z</time>
      </trkpt>
      <trkpt lat="51.360300024971366" lon="11.095183985307813">
        <ele>150.58000000000001</ele>
        <time>2017-05-21T12:58:13Z</time>
      </trkpt>
      <trkpt lat="51.3601169642061" lon="11.09614497050643">
        <ele>148.66</ele>
        <time>2017-05-21T12:58:22Z</time>
      </trkpt>
      <trkpt lat="51.360054016113281" lon="11.096399025991559">
        <ele>148.66</ele>
        <time>2017-05-21T12:58:26Z</time>
      </trkpt>
      <trkpt lat="51.360048986971378" lon="11.096460968255997">
        <ele>150.09999999999999</ele>
        <time>2017-05-21T12:58:27Z</time>
      </trkpt>
      <trkpt lat="51.360062984749675" lon="11.096505979076028">
        <ele>149.62</ele>
        <time>2017-05-21T12:58:28Z</time>
      </trkpt>
      <trkpt lat="51.360076982527971" lon="11.096539003774524">
        <ele>149.62</ele>
        <time>2017-05-21T12:58:29Z</time>
      </trkpt>
      <trkpt lat="51.360092991963029" lon="11.096556019037962">
        <ele>149.62</ele>
        <time>2017-05-21T12:58:30Z</time>
      </trkpt>
      <trkpt lat="51.360113024711609" lon="11.09655300155282">
        <ele>149.13999999999999</ele>
        <time>2017-05-21T12:58:31Z</time>
      </trkpt>
      <trkpt lat="51.360129034146667" lon="11.096546966582537">
        <ele>149.62</ele>
        <time>2017-05-21T12:58:32Z</time>
      </trkpt>
      <trkpt lat="51.36015996336937" lon="11.096516037359834">
        <ele>145.78</ele>
        <time>2017-05-21T12:58:49Z</time>
      </trkpt>
      <trkpt lat="51.36016096919775" lon="11.096512014046311">
        <ele>145.30000000000001</ele>
        <time>2017-05-21T13:00:32Z</time>
      </trkpt>
      <trkpt lat="51.360161975026131" lon="11.09650899656117">
        <ele>145.30000000000001</ele>
        <time>2017-05-21T13:02:13Z</time>
      </trkpt>
      <trkpt lat="51.360167004168034" lon="11.096502039581537">
        <ele>145.30000000000001</ele>
        <time>2017-05-21T13:03:47Z</time>
      </trkpt>
      <trkpt lat="51.360256019979715" lon="11.096476977691054">
        <ele>145.78</ele>
        <time>2017-05-21T13:04:31Z</time>
      </trkpt>
      <trkpt lat="51.360313016921282" lon="11.096477983519435">
        <ele>145.78</ele>
        <time>2017-05-21T13:04:32Z</time>
      </trkpt>
      <trkpt lat="51.360930008813739" lon="11.096554007381201">
        <ele>150.09999999999999</ele>
        <time>2017-05-21T13:04:40Z</time>
      </trkpt>
      <trkpt lat="51.361037967726588" lon="11.096545960754156">
        <ele>151.06</ele>
        <time>2017-05-21T13:04:41Z</time>
      </trkpt>
      <trkpt lat="51.361150033771992" lon="11.09651000238955">
        <ele>151.53999999999999</ele>
        <time>2017-05-21T13:04:42Z</time>
      </trkpt>
      <trkpt lat="51.361267967149615" lon="11.096440013498068">
        <ele>152.03</ele>
        <time>2017-05-21T13:04:43Z</time>
      </trkpt>
      <trkpt lat="51.36138497851789" lon="11.096352003514767">
        <ele>152.50999999999999</ele>
        <time>2017-05-21T13:04:44Z</time>
      </trkpt>
      <trkpt lat="51.361507019028068" lon="11.096246978268027">
        <ele>152.99000000000001</ele>
        <time>2017-05-21T13:04:45Z</time>
      </trkpt>
      <trkpt lat="51.36166300624609" lon="11.096112029626966">
        <ele>153.47</ele>
        <time>2017-05-21T13:04:46Z</time>
      </trkpt>
      <trkpt lat="51.36181203648448" lon="11.095999963581562">
        <ele>153.94999999999999</ele>
        <time>2017-05-21T13:04:47Z</time>
      </trkpt>
      <trkpt lat="51.363069992512465" lon="11.094929007813334">
        <ele>158.27000000000001</ele>
        <time>2017-05-21T13:04:56Z</time>
      </trkpt>
      <trkpt lat="51.363390013575554" lon="11.094784000888467">
        <ele>159.24000000000001</ele>
        <time>2017-05-21T13:04:58Z</time>
      </trkpt>
      <trkpt lat="51.363557986915112" lon="11.094753993675113">
        <ele>159.72</ele>
        <time>2017-05-21T13:04:59Z</time>
      </trkpt>
      <trkpt lat="51.363731995224953" lon="11.094761034473777">
        <ele>159.72</ele>
        <time>2017-05-21T13:05:00Z</time>
      </trkpt>
      <trkpt lat="51.363903991878033" lon="11.09478903003037">
        <ele>160.19999999999999</ele>
        <time>2017-05-21T13:05:01Z</time>
      </trkpt>
      <trkpt lat="51.36407095938921" lon="11.094821970909834">
        <ele>160.68000000000001</ele>
        <time>2017-05-21T13:05:02Z</time>
      </trkpt>
      <trkpt lat="51.364375976845622" lon="11.09483596868813">
        <ele>161.16</ele>
        <time>2017-05-21T13:05:04Z</time>
      </trkpt>
      <trkpt lat="51.364527018740773" lon="11.094788024201989">
        <ele>161.63999999999999</ele>
        <time>2017-05-21T13:05:05Z</time>
      </trkpt>
      <trkpt lat="51.364688035100698" lon="11.094722980633378">
        <ele>161.63999999999999</ele>
        <time>2017-05-21T13:05:06Z</time>
      </trkpt>
      <trkpt lat="51.364902025088668" lon="11.094610998407006">
        <ele>161.63999999999999</ele>
        <time>2017-05-21T13:05:07Z</time>
      </trkpt>
      <trkpt lat="51.365092964842916" lon="11.094484012573957">
        <ele>162.12</ele>
        <time>2017-05-21T13:05:08Z</time>
      </trkpt>
      <trkpt lat="51.36619501747191" lon="11.093572983518243">
        <ele>162.12</ele>
        <time>2017-05-21T13:05:13Z</time>
      </trkpt>
      <trkpt lat="51.367562022060156" lon="11.091999029740691">
        <ele>160.19999999999999</ele>
        <time>2017-05-21T13:05:20Z</time>
      </trkpt>
      <trkpt lat="51.367899980396032" lon="11.091641960665584">
        <ele>160.19999999999999</ele>
        <time>2017-05-21T13:05:22Z</time>
      </trkpt>
      <trkpt lat="51.368188988417387" lon="11.091426964849234">
        <ele>160.68000000000001</ele>
        <time>2017-05-21T13:05:24Z</time>
      </trkpt>
      <trkpt lat="51.36828001588583" lon="11.091368040069938">
        <ele>161.16</ele>
        <time>2017-05-21T13:05:25Z</time>
      </trkpt>
      <trkpt lat="51.368382023647428" lon="11.091359993442893">
        <ele>161.16</ele>
        <time>2017-05-21T13:05:26Z</time>
      </trkpt>
      <trkpt lat="51.368458969518542" lon="11.091370973736048">
        <ele>161.63999999999999</ele>
        <time>2017-05-21T13:05:27Z</time>
      </trkpt>
      <trkpt lat="51.368440026417375" lon="11.091402992606163">
        <ele>162.12</ele>
        <time>2017-05-21T13:05:28Z</time>
      </trkpt>
      <trkpt lat="51.368480008095503" lon="11.091564008966088">
        <ele>162.59999999999999</ele>
        <time>2017-05-21T13:05:29Z</time>
      </trkpt>
      <trkpt lat="51.368573969230056" lon="11.091726031154394">
        <ele>163.08000000000001</ele>
        <time>2017-05-21T13:05:30Z</time>
      </trkpt>
      <trkpt lat="51.368865994736552" lon="11.092927996069193">
        <ele>164.52000000000001</ele>
        <time>2017-05-21T13:05:36Z</time>
      </trkpt>
      <trkpt lat="51.368972025811672" lon="11.093164030462503">
        <ele>165.47999999999999</ele>
        <time>2017-05-21T13:05:38Z</time>
      </trkpt>
      <trkpt lat="51.369046038016677" lon="11.093143997713923">
        <ele>166.44999999999999</ele>
        <time>2017-05-21T13:05:39Z</time>
      </trkpt>
      <trkpt lat="51.369118960574269" lon="11.093143997713923">
        <ele>166.44999999999999</ele>
        <time>2017-05-21T13:05:40Z</time>
      </trkpt>
      <trkpt lat="51.369149973616004" lon="11.093139974400401">
        <ele>167.41</ele>
        <time>2017-05-21T13:05:41Z</time>
      </trkpt>
      <trkpt lat="51.369250975549221" lon="11.093019023537636">
        <ele>167.88999999999999</ele>
        <time>2017-05-21T13:05:42Z</time>
      </trkpt>
      <trkpt lat="51.369342003017664" lon="11.092863036319613">
        <ele>167.41</ele>
        <time>2017-05-21T13:05:43Z</time>
      </trkpt>
      <trkpt lat="51.369424983859062" lon="11.092705959454179">
        <ele>167.88999999999999</ele>
        <time>2017-05-21T13:05:44Z</time>
      </trkpt>
      <trkpt lat="51.369525985792279" lon="11.092529017478228">
        <ele>168.37</ele>
        <time>2017-05-21T13:05:45Z</time>
      </trkpt>
      <trkpt lat="51.370082963258028" lon="11.091641038656235">
        <ele>169.33000000000001</ele>
        <time>2017-05-21T13:05:50Z</time>
      </trkpt>
      <trkpt lat="51.370176002383232" lon="11.091411039233208">
        <ele>169.81</ele>
        <time>2017-05-21T13:05:51Z</time>
      </trkpt>
      <trkpt lat="51.370259989053011" lon="11.091154972091317">
        <ele>170.28999999999999</ele>
        <time>2017-05-21T13:05:52Z</time>
      </trkpt>
      <trkpt lat="51.370591996237636" lon="11.090238997712731">
        <ele>171.72999999999999</ele>
        <time>2017-05-21T13:05:56Z</time>
      </trkpt>
      <trkpt lat="51.370856026187539" lon="11.089846976101398">
        <ele>172.69</ele>
        <time>2017-05-21T13:05:59Z</time>
      </trkpt>
      <trkpt lat="51.37094403617084" lon="11.089738011360168">
        <ele>173.16999999999999</ele>
        <time>2017-05-21T13:06:00Z</time>
      </trkpt>
      <trkpt lat="51.371380984783173" lon="11.089702975004911">
        <ele>175.58000000000001</ele>
        <time>2017-05-21T13:06:02Z</time>
      </trkpt>
      <trkpt lat="51.371515011414886" lon="11.089594010263681">
        <ele>176.53999999999999</ele>
        <time>2017-05-21T13:06:03Z</time>
      </trkpt>
      <trkpt lat="51.372080035507679" lon="11.089210035279393">
        <ele>177.97999999999999</ele>
        <time>2017-05-21T13:06:07Z</time>
      </trkpt>
      <trkpt lat="51.372345993295312" lon="11.08933299779892">
        <ele>178.46000000000001</ele>
        <time>2017-05-21T13:06:08Z</time>
      </trkpt>
      <trkpt lat="51.372516984120011" lon="11.089424025267363">
        <ele>179.90000000000001</ele>
        <time>2017-05-21T13:06:09Z</time>
      </trkpt>
      <trkpt lat="51.372702978551388" lon="11.089659975841641">
        <ele>179.41999999999999</ele>
        <time>2017-05-21T13:06:10Z</time>
      </trkpt>
      <trkpt lat="51.37283599935472" lon="11.089889975264668">
        <ele>179.90000000000001</ele>
        <time>2017-05-21T13:06:11Z</time>
      </trkpt>
      <trkpt lat="51.37292099185288" lon="11.090168002992868">
        <ele>180.38</ele>
        <time>2017-05-21T13:06:12Z</time>
      </trkpt>
      <trkpt lat="51.373012019321322" lon="11.0904910415411">
        <ele>181.83000000000001</ele>
        <time>2017-05-21T13:06:13Z</time>
      </trkpt>
      <trkpt lat="51.373141016811132" lon="11.090756999328732">
        <ele>183.27000000000001</ele>
        <time>2017-05-21T13:06:14Z</time>
      </trkpt>
      <trkpt lat="51.373274959623814" lon="11.090955985710025">
        <ele>184.71000000000001</ele>
        <time>2017-05-21T13:06:15Z</time>
      </trkpt>
      <trkpt lat="51.373406974598765" lon="11.091133011505008">
        <ele>185.66999999999999</ele>
        <time>2017-05-21T13:06:16Z</time>
      </trkpt>
      <trkpt lat="51.373565979301929" lon="11.091270977631211">
        <ele>187.59</ele>
        <time>2017-05-21T13:06:17Z</time>
      </trkpt>
      <trkpt lat="51.373707968741655" lon="11.091406010091305">
        <ele>189.03999999999999</ele>
        <time>2017-05-21T13:06:18Z</time>
      </trkpt>
      <trkpt lat="51.373817017301917" lon="11.091559985652566">
        <ele>189.52000000000001</ele>
        <time>2017-05-21T13:06:19Z</time>
      </trkpt>
      <trkpt lat="51.373933022841811" lon="11.091692000627518">
        <ele>191.44</ele>
        <time>2017-05-21T13:06:20Z</time>
      </trkpt>
      <trkpt lat="51.373993037268519" lon="11.091900961473584">
        <ele>193.36000000000001</ele>
        <time>2017-05-21T13:06:21Z</time>
      </trkpt>
      <trkpt lat="51.37401700951159" lon="11.092138001695275">
        <ele>195.28</ele>
        <time>2017-05-21T13:06:22Z</time>
      </trkpt>
      <trkpt lat="51.374016003683209" lon="11.092421980574727">
        <ele>199.13</ele>
        <time>2017-05-21T13:06:23Z</time>
      </trkpt>
      <trkpt lat="51.373997982591391" lon="11.092686010524631">
        <ele>201.53</ele>
        <time>2017-05-21T13:06:24Z</time>
      </trkpt>
      <trkpt lat="51.373975016176701" lon="11.092951968312263">
        <ele>202.49000000000001</ele>
        <time>2017-05-21T13:06:25Z</time>
      </trkpt>
      <trkpt lat="51.373985996469855" lon="11.093220021575689">
        <ele>204.41999999999999</ele>
        <time>2017-05-21T13:06:26Z</time>
      </trkpt>
      <trkpt lat="51.374037964269519" lon="11.093464018777013">
        <ele>205.86000000000001</ele>
        <time>2017-05-21T13:06:27Z</time>
      </trkpt>
      <trkpt lat="51.37412597425282" lon="11.093688989058137">
        <ele>206.81999999999999</ele>
        <time>2017-05-21T13:06:28Z</time>
      </trkpt>
      <trkpt lat="51.374251032248139" lon="11.093899039551616">
        <ele>208.25999999999999</ele>
        <time>2017-05-21T13:06:29Z</time>
      </trkpt>
      <trkpt lat="51.374382041394711" lon="11.09410397708416">
        <ele>209.22</ele>
        <time>2017-05-21T13:06:30Z</time>
      </trkpt>
      <trkpt lat="51.374519001692533" lon="11.094298018142581">
        <ele>211.63</ele>
        <time>2017-05-21T13:06:31Z</time>
      </trkpt>
      <trkpt lat="51.374655961990356" lon="11.0944489762187">
        <ele>213.06999999999999</ele>
        <time>2017-05-21T13:06:32Z</time>
      </trkpt>
      <trkpt lat="51.374778002500534" lon="11.094569005072117">
        <ele>214.50999999999999</ele>
        <time>2017-05-21T13:06:33Z</time>
      </trkpt>
      <trkpt lat="51.374891996383667" lon="11.094616027548909">
        <ele>215.94999999999999</ele>
        <time>2017-05-21T13:06:34Z</time>
      </trkpt>
      <trkpt lat="51.374976988881826" lon="11.094607980921865">
        <ele>216.91</ele>
        <time>2017-05-21T13:06:35Z</time>
      </trkpt>
      <trkpt lat="51.375058041885495" lon="11.09457403421402">
        <ele>223.16</ele>
        <time>2017-05-21T13:06:36Z</time>
      </trkpt>
      <trkpt lat="51.375116966664791" lon="11.094435984268785">
        <ele>224.61000000000001</ele>
        <time>2017-05-21T13:06:37Z</time>
      </trkpt>
      <trkpt lat="51.375171029940248" lon="11.094284020364285">
        <ele>226.05000000000001</ele>
        <time>2017-05-21T13:06:38Z</time>
      </trkpt>
      <trkpt lat="51.375331040471792" lon="11.094028037041426">
        <ele>227.49000000000001</ele>
        <time>2017-05-21T13:06:40Z</time>
      </trkpt>
      <trkpt lat="51.375441011041403" lon="11.093942038714886">
        <ele>228.44999999999999</ele>
        <time>2017-05-21T13:06:41Z</time>
      </trkpt>
      <trkpt lat="51.375627005472779" lon="11.093763001263142">
        <ele>231.33000000000001</ele>
        <time>2017-05-21T13:06:43Z</time>
      </trkpt>
      <trkpt lat="51.375636979937553" lon="11.093621011823416">
        <ele>232.30000000000001</ele>
        <time>2017-05-21T13:06:44Z</time>
      </trkpt>
      <trkpt lat="51.375618958845735" lon="11.093468964099884">
        <ele>233.25999999999999</ele>
        <time>2017-05-21T13:06:45Z</time>
      </trkpt>
      <trkpt lat="51.375556010752916" lon="11.093328986316919">
        <ele>234.69999999999999</ele>
        <time>2017-05-21T13:06:46Z</time>
      </trkpt>
      <trkpt lat="51.375464983284473" lon="11.093192026019096">
        <ele>236.13999999999999</ele>
        <time>2017-05-21T13:06:47Z</time>
      </trkpt>
      <trkpt lat="51.375374039635062" lon="11.093073002994061">
        <ele>237.58000000000001</ele>
        <time>2017-05-21T13:06:48Z</time>
      </trkpt>
      <trkpt lat="51.375249987468123" lon="11.093005025759339">
        <ele>237.58000000000001</ele>
        <time>2017-05-21T13:06:49Z</time>
      </trkpt>
      <trkpt lat="51.375129958614707" lon="11.092955991625786">
        <ele>238.53999999999999</ele>
        <time>2017-05-21T13:06:50Z</time>
      </trkpt>
      <trkpt lat="51.375051001086831" lon="11.092863036319613">
        <ele>239.99000000000001</ele>
        <time>2017-05-21T13:06:51Z</time>
      </trkpt>
      <trkpt lat="51.375015964731574" lon="11.092762034386396">
        <ele>241.43000000000001</ele>
        <time>2017-05-21T13:06:52Z</time>
      </trkpt>
      <trkpt lat="51.374911023303866" lon="11.092781983315945">
        <ele>243.83000000000001</ele>
        <time>2017-05-21T13:06:53Z</time>
      </trkpt>
      <trkpt lat="51.374957961961627" lon="11.092620966956019">
        <ele>246.22999999999999</ele>
        <time>2017-05-21T13:06:54Z</time>
      </trkpt>
      <trkpt lat="51.375006996095181" lon="11.092446958646178">
        <ele>248.63999999999999</ele>
        <time>2017-05-21T13:06:55Z</time>
      </trkpt>
      <trkpt lat="51.375058963894844" lon="11.092230034992099">
        <ele>250.08000000000001</ele>
        <time>2017-05-21T13:06:56Z</time>
      </trkpt>
      <trkpt lat="51.375576965510845" lon="11.090018972754478">
        <ele>258.25</ele>
        <time>2017-05-21T13:07:04Z</time>
      </trkpt>
      <trkpt lat="51.376205021515489" lon="11.08800396323204">
        <ele>264.01999999999998</ele>
        <time>2017-05-21T13:07:12Z</time>
      </trkpt>
      <trkpt lat="51.376297976821661" lon="11.087875971570611">
        <ele>264.5</ele>
        <time>2017-05-21T13:07:13Z</time>
      </trkpt>
      <trkpt lat="51.376418005675077" lon="11.087772035971284">
        <ele>264.98000000000002</ele>
        <time>2017-05-21T13:07:14Z</time>
      </trkpt>
      <trkpt lat="51.376563012599945" lon="11.08768000267446">
        <ele>265.94</ele>
        <time>2017-05-21T13:07:15Z</time>
      </trkpt>
      <trkpt lat="51.37672696262598" lon="11.087582018226385">
        <ele>266.89999999999998</ele>
        <time>2017-05-21T13:07:16Z</time>
      </trkpt>
      <trkpt lat="51.377578983083367" lon="11.087226960808039">
        <ele>272.67000000000002</ele>
        <time>2017-05-21T13:07:21Z</time>
      </trkpt>
      <trkpt lat="51.377708986401558" lon="11.087264008820057">
        <ele>273.14999999999998</ele>
        <time>2017-05-21T13:07:22Z</time>
      </trkpt>
      <trkpt lat="51.377814011648297" lon="11.087374985218048">
        <ele>274.58999999999997</ele>
        <time>2017-05-21T13:07:23Z</time>
      </trkpt>
      <trkpt lat="51.37794803828001" lon="11.087544970214367">
        <ele>276.04000000000002</ele>
        <time>2017-05-21T13:07:24Z</time>
      </trkpt>
      <trkpt lat="51.378053985536098" lon="11.087747979909182">
        <ele>277</ele>
        <time>2017-05-21T13:07:25Z</time>
      </trkpt>
      <trkpt lat="51.378135960549116" lon="11.087976973503828">
        <ele>279.39999999999998</ele>
        <time>2017-05-21T13:07:26Z</time>
      </trkpt>
      <trkpt lat="51.378226988017559" lon="11.088056014850736">
        <ele>281.80000000000001</ele>
        <time>2017-05-21T13:07:27Z</time>
      </trkpt>
      <trkpt lat="51.378327989950776" lon="11.088077975437045">
        <ele>283.25</ele>
        <time>2017-05-21T13:07:28Z</time>
      </trkpt>
      <trkpt lat="51.378457993268967" lon="11.08800396323204">
        <ele>284.69</ele>
        <time>2017-05-21T13:07:29Z</time>
      </trkpt>
      <trkpt lat="51.378569975495338" lon="11.08787102624774">
        <ele>285.64999999999998</ele>
        <time>2017-05-21T13:07:30Z</time>
      </trkpt>
      <trkpt lat="51.378675000742078" lon="11.087720990180969">
        <ele>287.08999999999997</ele>
        <time>2017-05-21T13:07:31Z</time>
      </trkpt>
      <trkpt lat="51.378898965194821" lon="11.087481016293168">
        <ele>289.97000000000003</ele>
        <time>2017-05-21T13:07:33Z</time>
      </trkpt>
      <trkpt lat="51.379017988219857" lon="11.087427958846092">
        <ele>290.94</ele>
        <time>2017-05-21T13:07:34Z</time>
      </trkpt>
      <trkpt lat="51.379136005416512" lon="11.087413961067796">
        <ele>292.38</ele>
        <time>2017-05-21T13:07:35Z</time>
      </trkpt>
      <trkpt lat="51.379225021228194" lon="11.087515968829393">
        <ele>292.86000000000001</ele>
        <time>2017-05-21T13:07:36Z</time>
      </trkpt>
      <trkpt lat="51.379314037039876" lon="11.087664999067783">
        <ele>293.33999999999997</ele>
        <time>2017-05-21T13:07:37Z</time>
      </trkpt>
      <trkpt lat="51.37940900400281" lon="11.087863985449076">
        <ele>293.81999999999999</ele>
        <time>2017-05-21T13:07:38Z</time>
      </trkpt>
      <trkpt lat="51.379478992894292" lon="11.088094990700483">
        <ele>294.30000000000001</ele>
        <time>2017-05-21T13:07:39Z</time>
      </trkpt>
      <trkpt lat="51.380042005330324" lon="11.089584035798907">
        <ele>301.50999999999999</ele>
        <time>2017-05-21T13:07:45Z</time>
      </trkpt>
      <trkpt lat="51.380093973129988" lon="11.089830966666341">
        <ele>302.94999999999999</ele>
        <time>2017-05-21T13:07:46Z</time>
      </trkpt>
      <trkpt lat="51.380120040848851" lon="11.090091979131103">
        <ele>303.91000000000003</ele>
        <time>2017-05-21T13:07:47Z</time>
      </trkpt>
      <trkpt lat="51.380119035020471" lon="11.090337987989187">
        <ele>304.88</ele>
        <time>2017-05-21T13:07:48Z</time>
      </trkpt>
      <trkpt lat="51.380125992000103" lon="11.090550972148776">
        <ele>305.36000000000001</ele>
        <time>2017-05-21T13:07:49Z</time>
      </trkpt>
      <trkpt lat="51.380135966464877" lon="11.09073000960052">
        <ele>305.83999999999997</ele>
        <time>2017-05-21T13:07:50Z</time>
      </trkpt>
      <trkpt lat="51.380192963406444" lon="11.091002002358437">
        <ele>308.24000000000001</ele>
        <time>2017-05-21T13:07:52Z</time>
      </trkpt>
      <trkpt lat="51.380212996155024" lon="11.091113984584808">
        <ele>309.68000000000001</ele>
        <time>2017-05-21T13:07:53Z</time>
      </trkpt>
      <trkpt lat="51.380276028066874" lon="11.091168969869614">
        <ele>311.12</ele>
        <time>2017-05-21T13:07:54Z</time>
      </trkpt>
      <trkpt lat="51.380338976159692" lon="11.091172993183136">
        <ele>312.08999999999997</ele>
        <time>2017-05-21T13:07:55Z</time>
      </trkpt>
      <trkpt lat="51.380432015284896" lon="11.091098980978131">
        <ele>314.00999999999999</ele>
        <time>2017-05-21T13:07:56Z</time>
      </trkpt>
      <trkpt lat="51.380504015833139" lon="11.090969983488321">
        <ele>314.49000000000001</ele>
        <time>2017-05-21T13:07:57Z</time>
      </trkpt>
      <trkpt lat="51.380567969754338" lon="11.09077300876379">
        <ele>316.41000000000003</ele>
        <time>2017-05-21T13:07:58Z</time>
      </trkpt>
      <trkpt lat="51.380643993616104" lon="11.09053697437048">
        <ele>317.37</ele>
        <time>2017-05-21T13:07:59Z</time>
      </trkpt>
      <trkpt lat="51.380741978064179" lon="11.09027897939086">
        <ele>318.32999999999998</ele>
        <time>2017-05-21T13:08:00Z</time>
      </trkpt>
      <trkpt lat="51.380844991654158" lon="11.090012015774846">
        <ele>320.25999999999999</ele>
        <time>2017-05-21T13:08:01Z</time>
      </trkpt>
      <trkpt lat="51.381695000454783" lon="11.087763989344239">
        <ele>325.54000000000002</ele>
        <time>2017-05-21T13:08:08Z</time>
      </trkpt>
      <trkpt lat="51.382646011188626" lon="11.084965020418167">
        <ele>334.19999999999999</ele>
        <time>2017-05-21T13:08:16Z</time>
      </trkpt>
      <trkpt lat="51.383125958964229" lon="11.083696000277996">
        <ele>339</ele>
        <time>2017-05-21T13:08:21Z</time>
      </trkpt>
      <trkpt lat="51.383236013352871" lon="11.083527021110058">
        <ele>338.51999999999998</ele>
        <time>2017-05-21T13:08:22Z</time>
      </trkpt>
      <trkpt lat="51.383365010842681" lon="11.083427025005221">
        <ele>338.51999999999998</ele>
        <time>2017-05-21T13:08:23Z</time>
      </trkpt>
      <trkpt lat="51.383500965312123" lon="11.083373967558146">
        <ele>338.51999999999998</ele>
        <time>2017-05-21T13:08:24Z</time>
      </trkpt>
      <trkpt lat="51.383640021085739" lon="11.083387965336442">
        <ele>339</ele>
        <time>2017-05-21T13:08:25Z</time>
      </trkpt>
      <trkpt lat="51.383810006082058" lon="11.083440016955137">
        <ele>339.48000000000002</ele>
        <time>2017-05-21T13:08:26Z</time>
      </trkpt>
      <trkpt lat="51.384014021605253" lon="11.083556022495031">
        <ele>338.51999999999998</ele>
        <time>2017-05-21T13:08:27Z</time>
      </trkpt>
      <trkpt lat="51.384219964966178" lon="11.083666998893023">
        <ele>338.04000000000002</ele>
        <time>2017-05-21T13:08:28Z</time>
      </trkpt>
      <trkpt lat="51.385916965082288" lon="11.084507033228874">
        <ele>339</ele>
        <time>2017-05-21T13:08:36Z</time>
      </trkpt>
      <trkpt lat="51.386277973651886" lon="11.084697972983122">
        <ele>339.95999999999998</ele>
        <time>2017-05-21T13:08:38Z</time>
      </trkpt>
      <trkpt lat="51.386448964476585" lon="11.084716999903321">
        <ele>339.95999999999998</ele>
        <time>2017-05-21T13:08:39Z</time>
      </trkpt>
      <trkpt lat="51.386638982221484" lon="11.084667965769768">
        <ele>339.95999999999998</ele>
        <time>2017-05-21T13:08:40Z</time>
      </trkpt>
      <trkpt lat="51.386805027723312" lon="11.08456201851368">
        <ele>339.95999999999998</ele>
        <time>2017-05-21T13:08:41Z</time>
      </trkpt>
      <trkpt lat="51.386961014941335" lon="11.08441399410367">
        <ele>339.95999999999998</ele>
        <time>2017-05-21T13:08:42Z</time>
      </trkpt>
      <trkpt lat="51.387097975239158" lon="11.084226993843913">
        <ele>340.44</ele>
        <time>2017-05-21T13:08:43Z</time>
      </trkpt>
      <trkpt lat="51.387232001870871" lon="11.083993976935744">
        <ele>340.44</ele>
        <time>2017-05-21T13:08:44Z</time>
      </trkpt>
      <trkpt lat="51.388275967910886" lon="11.08226303011179">
        <ele>342.37</ele>
        <time>2017-05-21T13:08:50Z</time>
      </trkpt>
      <trkpt lat="51.389470975846052" lon="11.080261012539268">
        <ele>348.13</ele>
        <time>2017-05-21T13:08:57Z</time>
      </trkpt>
      <trkpt lat="51.38995997607708" lon="11.079577971249819">
        <ele>349.57999999999998</ele>
        <time>2017-05-21T13:09:00Z</time>
      </trkpt>
      <trkpt lat="51.391579024493694" lon="11.078211972489953">
        <ele>351.01999999999998</ele>
        <time>2017-05-21T13:09:08Z</time>
      </trkpt>
      <trkpt lat="51.392865981906652" lon="11.077201031148434">
        <ele>358.23000000000002</ele>
        <time>2017-05-21T13:09:15Z</time>
      </trkpt>
      <trkpt lat="51.392982993274927" lon="11.077012019231915">
        <ele>357.26999999999998</ele>
        <time>2017-05-21T13:09:16Z</time>
      </trkpt>
      <trkpt lat="51.393131017684937" lon="11.076768022030592">
        <ele>358.23000000000002</ele>
        <time>2017-05-21T13:09:17Z</time>
      </trkpt>
      <trkpt lat="51.394010027870536" lon="11.075317030772567">
        <ele>365.44</ele>
        <time>2017-05-21T13:09:22Z</time>
      </trkpt>
      <trkpt lat="51.394565999507904" lon="11.074504991993308">
        <ele>368.80000000000001</ele>
        <time>2017-05-21T13:09:26Z</time>
      </trkpt>
      <trkpt lat="51.394721986725926" lon="11.074383035302162">
        <ele>369.75999999999999</ele>
        <time>2017-05-21T13:09:27Z</time>
      </trkpt>
      <trkpt lat="51.394902030006051" lon="11.074298964813352">
        <ele>371.69</ele>
        <time>2017-05-21T13:09:28Z</time>
      </trkpt>
      <trkpt lat="51.395075032487512" lon="11.074234005063772">
        <ele>371.69</ele>
        <time>2017-05-21T13:09:29Z</time>
      </trkpt>
      <trkpt lat="51.395247029140592" lon="11.074179019778967">
        <ele>372.17000000000002</ele>
        <time>2017-05-21T13:09:30Z</time>
      </trkpt>
      <trkpt lat="51.396070970222354" lon="11.074140965938568">
        <ele>371.69</ele>
        <time>2017-05-21T13:09:35Z</time>
      </trkpt>
      <trkpt lat="51.39621295966208" lon="11.074231993407011">
        <ele>372.17000000000002</ele>
        <time>2017-05-21T13:09:36Z</time>
      </trkpt>
      <trkpt lat="51.396325025707483" lon="11.074375994503498">
        <ele>371.69</ele>
        <time>2017-05-21T13:09:37Z</time>
      </trkpt>
      <trkpt lat="51.396457040682435" lon="11.074581015855074">
        <ele>371.20999999999998</ele>
        <time>2017-05-21T13:09:38Z</time>
      </trkpt>
      <trkpt lat="51.396566005423665" lon="11.074839010834694">
        <ele>371.69</ele>
        <time>2017-05-21T13:09:39Z</time>
      </trkpt>
      <trkpt lat="51.396675975993276" lon="11.075119972229004">
        <ele>370.24000000000001</ele>
        <time>2017-05-21T13:09:40Z</time>
      </trkpt>
      <trkpt lat="51.39765297062695" lon="11.07738995924592">
        <ele>367.36000000000001</ele>
        <time>2017-05-21T13:09:47Z</time>
      </trkpt>
      <trkpt lat="51.39881000854075" lon="11.080072000622749">
        <ele>369.27999999999997</ele>
        <time>2017-05-21T13:09:55Z</time>
      </trkpt>
      <trkpt lat="51.398945963010192" lon="11.080297976732254">
        <ele>370.24000000000001</ele>
        <time>2017-05-21T13:09:56Z</time>
      </trkpt>
      <trkpt lat="51.399109996855259" lon="11.080476008355618">
        <ele>370.73000000000002</ele>
        <time>2017-05-21T13:09:57Z</time>
      </trkpt>
      <trkpt lat="51.399291967973113" lon="11.08061003498733">
        <ele>370.73000000000002</ele>
        <time>2017-05-21T13:09:58Z</time>
      </trkpt>
      <trkpt lat="51.399514004588127" lon="11.080697039142251">
        <ele>371.20999999999998</ele>
        <time>2017-05-21T13:09:59Z</time>
      </trkpt>
      <trkpt lat="51.399727994576097" lon="11.080800974741578">
        <ele>371.20999999999998</ele>
        <time>2017-05-21T13:10:00Z</time>
      </trkpt>
      <trkpt lat="51.401364980265498" lon="11.081548975780606">
        <ele>378.89999999999998</ele>
        <time>2017-05-21T13:10:08Z</time>
      </trkpt>
      <trkpt lat="51.401511998847127" lon="11.081675961613655">
        <ele>379.86000000000001</ele>
        <time>2017-05-21T13:10:09Z</time>
      </trkpt>
      <trkpt lat="51.401651976630092" lon="11.081831026822329">
        <ele>380.33999999999997</ele>
        <time>2017-05-21T13:10:10Z</time>
      </trkpt>
      <trkpt lat="51.401800001040101" lon="11.081992965191603">
        <ele>381.30000000000001</ele>
        <time>2017-05-21T13:10:11Z</time>
      </trkpt>
      <trkpt lat="51.401976021006703" lon="11.082116011530161">
        <ele>382.25999999999999</ele>
        <time>2017-05-21T13:10:12Z</time>
      </trkpt>
      <trkpt lat="51.402134019881487" lon="11.082241991534829">
        <ele>383.22000000000003</ele>
        <time>2017-05-21T13:10:13Z</time>
      </trkpt>
      <trkpt lat="51.403136998414993" lon="11.082869963720441">
        <ele>390.43000000000001</ele>
        <time>2017-05-21T13:10:20Z</time>
      </trkpt>
      <trkpt lat="51.403251998126507" lon="11.082968031987548">
        <ele>390.91000000000003</ele>
        <time>2017-05-21T13:10:21Z</time>
      </trkpt>
      <trkpt lat="51.403349982574582" lon="11.083110021427274">
        <ele>391.38999999999999</ele>
        <time>2017-05-21T13:10:22Z</time>
      </trkpt>
      <trkpt lat="51.403427012264729" lon="11.083272965624928">
        <ele>391.87</ele>
        <time>2017-05-21T13:10:23Z</time>
      </trkpt>
      <trkpt lat="51.403503036126494" lon="11.083466000854969">
        <ele>392.83999999999997</ele>
        <time>2017-05-21T13:10:24Z</time>
      </trkpt>
      <trkpt lat="51.403575036674738" lon="11.08368300832808">
        <ele>393.80000000000001</ele>
        <time>2017-05-21T13:10:25Z</time>
      </trkpt>
      <trkpt lat="51.403638990595937" lon="11.083927005529404">
        <ele>394.75999999999999</ele>
        <time>2017-05-21T13:10:26Z</time>
      </trkpt>
      <trkpt lat="51.40368802472949" lon="11.084188017994165">
        <ele>395.72000000000003</ele>
        <time>2017-05-21T13:10:27Z</time>
      </trkpt>
      <trkpt lat="51.403735969215631" lon="11.08445699326694">
        <ele>396.19999999999999</ele>
        <time>2017-05-21T13:10:28Z</time>
      </trkpt>
      <trkpt lat="51.403876030817628" lon="11.085246987640858">
        <ele>397.16000000000003</ele>
        <time>2017-05-21T13:10:31Z</time>
      </trkpt>
      <trkpt lat="51.403966974467039" lon="11.087138028815389">
        <ele>397.16000000000003</ele>
        <time>2017-05-21T13:10:39Z</time>
      </trkpt>
      <trkpt lat="51.403998993337154" lon="11.087304996326566">
        <ele>396.68000000000001</ele>
        <time>2017-05-21T13:10:40Z</time>
      </trkpt>
      <trkpt lat="51.404045009985566" lon="11.087455032393336">
        <ele>397.16000000000003</ele>
        <time>2017-05-21T13:10:41Z</time>
      </trkpt>
      <trkpt lat="51.404128996655345" lon="11.08757103793323">
        <ele>396.19999999999999</ele>
        <time>2017-05-21T13:10:42Z</time>
      </trkpt>
      <trkpt lat="51.404231004416943" lon="11.087660975754261">
        <ele>396.68000000000001</ele>
        <time>2017-05-21T13:10:43Z</time>
      </trkpt>
      <trkpt lat="51.40435203909874" lon="11.087701041251421">
        <ele>395.72000000000003</ele>
        <time>2017-05-21T13:10:44Z</time>
      </trkpt>
      <trkpt lat="51.40448103658855" lon="11.087686959654093">
        <ele>395.24000000000001</ele>
        <time>2017-05-21T13:10:45Z</time>
      </trkpt>
      <trkpt lat="51.404607016593218" lon="11.087623005732894">
        <ele>395.72000000000003</ele>
        <time>2017-05-21T13:10:46Z</time>
      </trkpt>
      <trkpt lat="51.404743976891041" lon="11.087516974657774">
        <ele>395.72000000000003</ele>
        <time>2017-05-21T13:10:47Z</time>
      </trkpt>
      <trkpt lat="51.404884038493037" lon="11.087387977167964">
        <ele>396.19999999999999</ele>
        <time>2017-05-21T13:10:48Z</time>
      </trkpt>
      <trkpt lat="51.405831025913358" lon="11.086321966722608">
        <ele>402.93000000000001</ele>
        <time>2017-05-21T13:10:53Z</time>
      </trkpt>
      <trkpt lat="51.407704968005419" lon="11.084185000509024">
        <ele>417.35000000000002</ele>
        <time>2017-05-21T13:11:01Z</time>
      </trkpt>
      <trkpt lat="51.409755013883114" lon="11.081862961873412">
        <ele>429.37</ele>
        <time>2017-05-21T13:11:10Z</time>
      </trkpt>
      <trkpt lat="51.410182993859053" lon="11.081574037671089">
        <ele>430.81</ele>
        <time>2017-05-21T13:11:12Z</time>
      </trkpt>
      <trkpt lat="51.41041299328208" lon="11.081489967182279">
        <ele>431.76999999999998</ele>
        <time>2017-05-21T13:11:13Z</time>
      </trkpt>
      <trkpt lat="51.411109026521444" lon="11.081249993294477">
        <ele>436.10000000000002</ele>
        <time>2017-05-21T13:11:16Z</time>
      </trkpt>
      <trkpt lat="51.411307007074356" lon="11.081091994419694">
        <ele>437.06</ele>
        <time>2017-05-21T13:11:17Z</time>
      </trkpt>
      <trkpt lat="51.411501970142126" lon="11.080886973068118">
        <ele>438.01999999999998</ele>
        <time>2017-05-21T13:11:18Z</time>
      </trkpt>
      <trkpt lat="51.411673966795206" lon="11.080667031928897">
        <ele>438.98000000000002</ele>
        <time>2017-05-21T13:11:19Z</time>
      </trkpt>
      <trkpt lat="51.41183297149837" lon="11.08043996617198">
        <ele>439.94</ele>
        <time>2017-05-21T13:11:20Z</time>
      </trkpt>
      <trkpt lat="51.412966959178448" lon="11.078607011586428">
        <ele>435.61000000000001</ele>
        <time>2017-05-21T13:11:27Z</time>
      </trkpt>
      <trkpt lat="51.413831971585751" lon="11.077315025031567">
        <ele>431.29000000000002</ele>
        <time>2017-05-21T13:11:33Z</time>
      </trkpt>
      <trkpt lat="51.413999022915959" lon="11.077231960371137">
        <ele>431.76999999999998</ele>
        <time>2017-05-21T13:11:34Z</time>
      </trkpt>
      <trkpt lat="51.414178982377052" lon="11.077189967036247">
        <ele>433.20999999999998</ele>
        <time>2017-05-21T13:11:35Z</time>
      </trkpt>
      <trkpt lat="51.415412966161966" lon="11.077148979529738">
        <ele>434.17000000000002</ele>
        <time>2017-05-21T13:11:41Z</time>
      </trkpt>
      <trkpt lat="51.41619298607111" lon="11.077165994793177">
        <ele>437.54000000000002</ele>
        <time>2017-05-21T13:11:46Z</time>
      </trkpt>
      <trkpt lat="51.416337992995977" lon="11.077250987291336">
        <ele>438.5</ele>
        <time>2017-05-21T13:11:47Z</time>
      </trkpt>
      <trkpt lat="51.416440000757575" lon="11.077362969517708">
        <ele>439.45999999999998</ele>
        <time>2017-05-21T13:11:48Z</time>
      </trkpt>
      <trkpt lat="51.416551982983947" lon="11.077521974220872">
        <ele>440.42000000000002</ele>
        <time>2017-05-21T13:11:49Z</time>
      </trkpt>
      <trkpt lat="51.416630018502474" lon="11.077697994187474">
        <ele>440.42000000000002</ele>
        <time>2017-05-21T13:11:50Z</time>
      </trkpt>
      <trkpt lat="51.416699001565576" lon="11.077876025810838">
        <ele>441.38</ele>
        <time>2017-05-21T13:11:51Z</time>
      </trkpt>
      <trkpt lat="51.416754992678761" lon="11.078064031898975">
        <ele>442.33999999999997</ele>
        <time>2017-05-21T13:11:52Z</time>
      </trkpt>
      <trkpt lat="51.416790029034019" lon="11.078255977481604">
        <ele>442.33999999999997</ele>
        <time>2017-05-21T13:11:53Z</time>
      </trkpt>
      <trkpt lat="51.416792962700129" lon="11.078445995226502">
        <ele>441.86000000000001</ele>
        <time>2017-05-21T13:11:54Z</time>
      </trkpt>
      <trkpt lat="51.416786005720496" lon="11.078629978001118">
        <ele>441.86000000000001</ele>
        <time>2017-05-21T13:11:55Z</time>
      </trkpt>
      <trkpt lat="51.41675197519362" lon="11.078841034322977">
        <ele>440.89999999999998</ele>
        <time>2017-05-21T13:11:56Z</time>
      </trkpt>
      <trkpt lat="51.416718028485775" lon="11.079062987118959">
        <ele>440.42000000000002</ele>
        <time>2017-05-21T13:11:57Z</time>
      </trkpt>
      <trkpt lat="51.416341010481119" lon="11.081022005528212">
        <ele>436.10000000000002</ele>
        <time>2017-05-21T13:12:04Z</time>
      </trkpt>
      <trkpt lat="51.416083015501499" lon="11.082331007346511">
        <ele>433.69</ele>
        <time>2017-05-21T13:12:09Z</time>
      </trkpt>
      <trkpt lat="51.415733993053436" lon="11.084144013002515">
        <ele>431.29000000000002</ele>
        <time>2017-05-21T13:12:18Z</time>
      </trkpt>
      <trkpt lat="51.415775986388326" lon="11.084418017417192">
        <ele>431.29000000000002</ele>
        <time>2017-05-21T13:12:19Z</time>
      </trkpt>
      <trkpt lat="51.415775986388326" lon="11.084709037095308">
        <ele>430.81</ele>
        <time>2017-05-21T13:12:20Z</time>
      </trkpt>
      <trkpt lat="51.415685964748263" lon="11.086910041049123">
        <ele>427.44</ele>
        <time>2017-05-21T13:12:27Z</time>
      </trkpt>
      <trkpt lat="51.41567800194025" lon="11.087427036836743">
        <ele>426.95999999999998</ele>
        <time>2017-05-21T13:12:29Z</time>
      </trkpt>
      <trkpt lat="51.415723012760282" lon="11.087685031816363">
        <ele>426.95999999999998</ele>
        <time>2017-05-21T13:12:30Z</time>
      </trkpt>
      <trkpt lat="51.415819991379976" lon="11.088185012340546">
        <ele>426</ele>
        <time>2017-05-21T13:12:32Z</time>
      </trkpt>
      <trkpt lat="51.415832983329892" lon="11.088435966521502">
        <ele>425.04000000000002</ele>
        <time>2017-05-21T13:12:33Z</time>
      </trkpt>
      <trkpt lat="51.415816973894835" lon="11.088692033663392">
        <ele>424.56</ele>
        <time>2017-05-21T13:12:34Z</time>
      </trkpt>
      <trkpt lat="51.415779003873467" lon="11.088958997279406">
        <ele>424.07999999999998</ele>
        <time>2017-05-21T13:12:35Z</time>
      </trkpt>
      <trkpt lat="51.415734998881817" lon="11.089230990037322">
        <ele>423.12</ele>
        <time>2017-05-21T13:12:36Z</time>
      </trkpt>
      <trkpt lat="51.415279023349285" lon="11.091454038396478">
        <ele>416.38999999999999</ele>
        <time>2017-05-21T13:12:45Z</time>
      </trkpt>
      <trkpt lat="51.415234012529254" lon="11.091879000887275">
        <ele>415.43000000000001</ele>
        <time>2017-05-21T13:12:47Z</time>
      </trkpt>
      <trkpt lat="51.415240969508886" lon="11.092104976996779">
        <ele>414.47000000000003</ele>
        <time>2017-05-21T13:12:48Z</time>
      </trkpt>
      <trkpt lat="51.415268965065479" lon="11.092344028875232">
        <ele>413.5</ele>
        <time>2017-05-21T13:12:49Z</time>
      </trkpt>
      <trkpt lat="51.41529000364244" lon="11.093204012140632">
        <ele>410.62</ele>
        <time>2017-05-21T13:12:52Z</time>
      </trkpt>
      <trkpt lat="51.414967970922589" lon="11.09556402079761">
        <ele>405.81</ele>
        <time>2017-05-21T13:12:59Z</time>
      </trkpt>
      <trkpt lat="51.414351984858513" lon="11.097400998696685">
        <ele>401.00999999999999</ele>
        <time>2017-05-21T13:13:06Z</time>
      </trkpt>
      <trkpt lat="51.414295993745327" lon="11.097636027261615">
        <ele>400.05000000000001</ele>
        <time>2017-05-21T13:13:07Z</time>
      </trkpt>
      <trkpt lat="51.414269004017115" lon="11.097852028906345">
        <ele>399.07999999999998</ele>
        <time>2017-05-21T13:13:08Z</time>
      </trkpt>
      <trkpt lat="51.414250982925296" lon="11.098070964217186">
        <ele>398.12</ele>
        <time>2017-05-21T13:13:09Z</time>
      </trkpt>
      <trkpt lat="51.414249977096915" lon="11.098477989435196">
        <ele>396.68000000000001</ele>
        <time>2017-05-21T13:13:11Z</time>
      </trkpt>
      <trkpt lat="51.414250982925296" lon="11.099468981847167">
        <ele>391.38999999999999</ele>
        <time>2017-05-21T13:13:17Z</time>
      </trkpt>
      <trkpt lat="51.414236985146999" lon="11.099901990965009">
        <ele>389.47000000000003</ele>
        <time>2017-05-21T13:13:20Z</time>
      </trkpt>
      <trkpt lat="51.414211001247168" lon="11.100038029253483">
        <ele>388.99000000000001</ele>
        <time>2017-05-21T13:13:21Z</time>
      </trkpt>
      <trkpt lat="51.414185017347336" lon="11.100171972066164">
        <ele>388.50999999999999</ele>
        <time>2017-05-21T13:13:22Z</time>
      </trkpt>
      <trkpt lat="51.414103964343667" lon="11.100417980924249">
        <ele>388.50999999999999</ele>
        <time>2017-05-21T13:13:24Z</time>
      </trkpt>
      <trkpt lat="51.413901038467884" lon="11.100986022502184">
        <ele>389.94999999999999</ele>
        <time>2017-05-21T13:13:31Z</time>
      </trkpt>
      <trkpt lat="51.413730969652534" lon="11.101612988859415">
        <ele>389.47000000000003</ele>
        <time>2017-05-21T13:13:42Z</time>
      </trkpt>
      <trkpt lat="51.413669027388096" lon="11.101707033813">
        <ele>391.38999999999999</ele>
        <time>2017-05-21T13:13:47Z</time>
      </trkpt>
      <trkpt lat="51.413660980761051" lon="11.10173000022769">
        <ele>391.38999999999999</ele>
        <time>2017-05-21T13:13:48Z</time>
      </trkpt>
      <trkpt lat="51.413662992417812" lon="11.10175103880465">
        <ele>390.43000000000001</ele>
        <time>2017-05-21T13:13:49Z</time>
      </trkpt>
      <trkpt lat="51.413686964660883" lon="11.101786997169256">
        <ele>389.47000000000003</ele>
        <time>2017-05-21T13:14:01Z</time>
      </trkpt>
      <trkpt lat="51.413700962439179" lon="11.101783979684114">
        <ele>389.47000000000003</ele>
        <time>2017-05-21T13:14:02Z</time>
      </trkpt>
      <trkpt lat="51.413737004622817" lon="11.1016880068928">
        <ele>389.47000000000003</ele>
        <time>2017-05-21T13:14:05Z</time>
      </trkpt>
      <trkpt lat="51.413847981020808" lon="11.101607037708163">
        <ele>392.36000000000001</ele>
        <time>2017-05-21T13:14:18Z</time>
      </trkpt>
      <trkpt lat="51.413855021819472" lon="11.10160100273788">
        <ele>391.87</ele>
        <time>2017-05-21T13:15:01Z</time>
      </trkpt>
      <trkpt lat="51.414331030100584" lon="11.10132004134357">
        <ele>470.22000000000003</ele>
        <time>2017-05-21T14:24:03Z</time>
      </trkpt>
      <trkpt lat="51.413901960477233" lon="11.101470999419689">
        <ele>390.91000000000003</ele>
        <time>2017-05-21T14:24:39Z</time>
      </trkpt>
      <trkpt lat="51.414002040401101" lon="11.100874962285161">
        <ele>386.11000000000001</ele>
        <time>2017-05-21T14:24:48Z</time>
      </trkpt>
      <trkpt lat="51.414193985983729" lon="11.100043980404735">
        <ele>385.14999999999998</ele>
        <time>2017-05-21T14:24:56Z</time>
      </trkpt>
      <trkpt lat="51.414203960448503" lon="11.09992504119873">
        <ele>385.14999999999998</ele>
        <time>2017-05-21T14:24:57Z</time>
      </trkpt>
      <trkpt lat="51.414185017347336" lon="11.09876599162817">
        <ele>385.14999999999998</ele>
        <time>2017-05-21T14:25:05Z</time>
      </trkpt>
      <trkpt lat="51.414188034832478" lon="11.098608998581767">
        <ele>384.66000000000003</ele>
        <time>2017-05-21T14:25:06Z</time>
      </trkpt>
      <trkpt lat="51.41421502456069" lon="11.097689000889659">
        <ele>383.69999999999999</ele>
        <time>2017-05-21T14:25:12Z</time>
      </trkpt>
      <trkpt lat="51.414229022338986" lon="11.097567966207862">
        <ele>383.22000000000003</ele>
        <time>2017-05-21T14:25:13Z</time>
      </trkpt>
      <trkpt lat="51.414260035380721" lon="11.097453972324729">
        <ele>383.22000000000003</ele>
        <time>2017-05-21T14:25:14Z</time>
      </trkpt>
      <trkpt lat="51.414695978164673" lon="11.09629400074482">
        <ele>380.33999999999997</ele>
        <time>2017-05-21T14:25:22Z</time>
      </trkpt>
      <trkpt lat="51.414858000352979" lon="11.095734005793929">
        <ele>379.86000000000001</ele>
        <time>2017-05-21T14:25:25Z</time>
      </trkpt>
      <trkpt lat="51.414902005344629" lon="11.095525966957211">
        <ele>379.38</ele>
        <time>2017-05-21T14:25:26Z</time>
      </trkpt>
      <trkpt lat="51.414928995072842" lon="11.0953089594841">
        <ele>379.38</ele>
        <time>2017-05-21T14:25:27Z</time>
      </trkpt>
      <trkpt lat="51.415085988119245" lon="11.093240976333618">
        <ele>379.38</ele>
        <time>2017-05-21T14:25:36Z</time>
      </trkpt>
      <trkpt lat="51.415080958977342" lon="11.092766979709268">
        <ele>379.86000000000001</ele>
        <time>2017-05-21T14:25:38Z</time>
      </trkpt>
      <trkpt lat="51.415043994784355" lon="11.09201998449862">
        <ele>380.81999999999999</ele>
        <time>2017-05-21T14:25:41Z</time>
      </trkpt>
      <trkpt lat="51.415072996169329" lon="11.091757966205478">
        <ele>380.81999999999999</ele>
        <time>2017-05-21T14:25:42Z</time>
      </trkpt>
      <trkpt lat="51.415079031139612" lon="11.091453032568097">
        <ele>382.25999999999999</ele>
        <time>2017-05-21T14:25:43Z</time>
      </trkpt>
      <trkpt lat="51.41511901281774" lon="11.091192020103335">
        <ele>383.22000000000003</ele>
        <time>2017-05-21T14:25:44Z</time>
      </trkpt>
      <trkpt lat="51.415154971182346" lon="11.090917009860277">
        <ele>384.18000000000001</ele>
        <time>2017-05-21T14:25:45Z</time>
      </trkpt>
      <trkpt lat="51.4156339969486" lon="11.08851701952517">
        <ele>391.38999999999999</ele>
        <time>2017-05-21T14:25:54Z</time>
      </trkpt>
      <trkpt lat="51.415642965584993" lon="11.088279979303479">
        <ele>391.38999999999999</ele>
        <time>2017-05-21T14:25:55Z</time>
      </trkpt>
      <trkpt lat="51.415625028312206" lon="11.08804696239531">
        <ele>391.87</ele>
        <time>2017-05-21T14:25:56Z</time>
      </trkpt>
      <trkpt lat="51.415582029148936" lon="11.087824003770947">
        <ele>392.36000000000001</ele>
        <time>2017-05-21T14:25:57Z</time>
      </trkpt>
      <trkpt lat="51.415526960045099" lon="11.087596016004682">
        <ele>392.83999999999997</ele>
        <time>2017-05-21T14:25:58Z</time>
      </trkpt>
      <trkpt lat="51.415512040257454" lon="11.087331986054778">
        <ele>393.31999999999999</ele>
        <time>2017-05-21T14:25:59Z</time>
      </trkpt>
      <trkpt lat="51.415502987802029" lon="11.08705697581172">
        <ele>393.80000000000001</ele>
        <time>2017-05-21T14:26:00Z</time>
      </trkpt>
      <trkpt lat="51.41552503220737" lon="11.086767967790365">
        <ele>395.24000000000001</ele>
        <time>2017-05-21T14:26:01Z</time>
      </trkpt>
      <trkpt lat="51.415625028312206" lon="11.084946999326348">
        <ele>397.63999999999999</ele>
        <time>2017-05-21T14:26:07Z</time>
      </trkpt>
      <trkpt lat="51.415628967806697" lon="11.084364037960768">
        <ele>398.60000000000002</ele>
        <time>2017-05-21T14:26:09Z</time>
      </trkpt>
      <trkpt lat="51.415669033303857" lon="11.084079975262284">
        <ele>399.07999999999998</ele>
        <time>2017-05-21T14:26:10Z</time>
      </trkpt>
      <trkpt lat="51.415724018588662" lon="11.083806976675987">
        <ele>399.56999999999999</ele>
        <time>2017-05-21T14:26:11Z</time>
      </trkpt>
      <trkpt lat="51.416309997439384" lon="11.08058899641037">
        <ele>407.74000000000001</ele>
        <time>2017-05-21T14:26:22Z</time>
      </trkpt>
      <trkpt lat="51.416677962988615" lon="11.078621009364724">
        <ele>418.79000000000002</ele>
        <time>2017-05-21T14:26:31Z</time>
      </trkpt>
      <trkpt lat="51.416728002950549" lon="11.078500980511308">
        <ele>419.75</ele>
        <time>2017-05-21T14:26:32Z</time>
      </trkpt>
      <trkpt lat="51.416779970750213" lon="11.078420011326671">
        <ele>420.70999999999998</ele>
        <time>2017-05-21T14:26:33Z</time>
      </trkpt>
      <trkpt lat="51.416849037632346" lon="11.07835303992033">
        <ele>421.19</ele>
        <time>2017-05-21T14:26:34Z</time>
      </trkpt>
      <trkpt lat="51.416939981281757" lon="11.078278021886945">
        <ele>422.16000000000003</ele>
        <time>2017-05-21T14:26:35Z</time>
      </trkpt>
      <trkpt lat="51.417042994871736" lon="11.078195963054895">
        <ele>422.16000000000003</ele>
        <time>2017-05-21T14:26:36Z</time>
      </trkpt>
      <trkpt lat="51.417294032871723" lon="11.077977027744055">
        <ele>423.60000000000002</ele>
        <time>2017-05-21T14:26:38Z</time>
      </trkpt>
      <trkpt lat="51.417398974299431" lon="11.077793966978788">
        <ele>423.12</ele>
        <time>2017-05-21T14:26:39Z</time>
      </trkpt>
      <trkpt lat="51.417478015646338" lon="11.077568996697664">
        <ele>422.63999999999999</ele>
        <time>2017-05-21T14:26:40Z</time>
      </trkpt>
      <trkpt lat="51.417541969567537" lon="11.077331034466624">
        <ele>422.16000000000003</ele>
        <time>2017-05-21T14:26:41Z</time>
      </trkpt>
      <trkpt lat="51.417583962902427" lon="11.077095000073314">
        <ele>421.68000000000001</ele>
        <time>2017-05-21T14:26:42Z</time>
      </trkpt>
      <trkpt lat="51.41758899204433" lon="11.076866006478667">
        <ele>420.70999999999998</ele>
        <time>2017-05-21T14:26:43Z</time>
      </trkpt>
      <trkpt lat="51.417558984830976" lon="11.07663500122726">
        <ele>419.26999999999998</ele>
        <time>2017-05-21T14:26:44Z</time>
      </trkpt>
      <trkpt lat="51.417514979839325" lon="11.076412964612246">
        <ele>418.79000000000002</ele>
        <time>2017-05-21T14:26:45Z</time>
      </trkpt>
      <trkpt lat="51.417467035353184" lon="11.076187994331121">
        <ele>418.31</ele>
        <time>2017-05-21T14:26:46Z</time>
      </trkpt>
      <trkpt lat="51.417435016483068" lon="11.075960006564856">
        <ele>417.35000000000002</ele>
        <time>2017-05-21T14:26:47Z</time>
      </trkpt>
      <trkpt lat="51.41743702813983" lon="11.075707040727139">
        <ele>416.38999999999999</ele>
        <time>2017-05-21T14:26:48Z</time>
      </trkpt>
      <trkpt lat="51.417479021474719" lon="11.075445022433996">
        <ele>415.43000000000001</ele>
        <time>2017-05-21T14:26:49Z</time>
      </trkpt>
      <trkpt lat="51.417541969567537" lon="11.07519599609077">
        <ele>415.43000000000001</ele>
        <time>2017-05-21T14:26:50Z</time>
      </trkpt>
      <trkpt lat="51.417642971500754" lon="11.074971025809646">
        <ele>414.47000000000003</ele>
        <time>2017-05-21T14:26:51Z</time>
      </trkpt>
      <trkpt lat="51.417764006182551" lon="11.074787965044379">
        <ele>413.98000000000002</ele>
        <time>2017-05-21T14:26:52Z</time>
      </trkpt>
      <trkpt lat="51.417882023379207" lon="11.074626026675105">
        <ele>412.54000000000002</ele>
        <time>2017-05-21T14:26:53Z</time>
      </trkpt>
      <trkpt lat="51.417985036969185" lon="11.074464004486799">
        <ele>412.06</ele>
        <time>2017-05-21T14:26:54Z</time>
      </trkpt>
      <trkpt lat="51.418071035295725" lon="11.0742739867419">
        <ele>411.57999999999998</ele>
        <time>2017-05-21T14:26:55Z</time>
      </trkpt>
      <trkpt lat="51.418099030852318" lon="11.074063014239073">
        <ele>410.62</ele>
        <time>2017-05-21T14:26:56Z</time>
      </trkpt>
      <trkpt lat="51.418090984225273" lon="11.0738439951092">
        <ele>409.66000000000003</ele>
        <time>2017-05-21T14:26:57Z</time>
      </trkpt>
      <trkpt lat="51.418088972568512" lon="11.07362799346447">
        <ele>409.18000000000001</ele>
        <time>2017-05-21T14:26:58Z</time>
      </trkpt>
      <trkpt lat="51.418109005317092" lon="11.073410985991359">
        <ele>408.22000000000003</ele>
        <time>2017-05-21T14:26:59Z</time>
      </trkpt>
      <trkpt lat="51.4181690197438" lon="11.073170006275177">
        <ele>407.25999999999999</ele>
        <time>2017-05-21T14:27:00Z</time>
      </trkpt>
      <trkpt lat="51.418249988928437" lon="11.072930032387376">
        <ele>406.29000000000002</ele>
        <time>2017-05-21T14:27:01Z</time>
      </trkpt>
      <trkpt lat="51.418451992794871" lon="11.072292001917958">
        <ele>404.37</ele>
        <time>2017-05-21T14:27:04Z</time>
      </trkpt>
      <trkpt lat="51.418460039421916" lon="11.072114976122975">
        <ele>403.41000000000003</ele>
        <time>2017-05-21T14:27:05Z</time>
      </trkpt>
      <trkpt lat="51.418442018330097" lon="11.071950020268559">
        <ele>402.44999999999999</ele>
        <time>2017-05-21T14:27:06Z</time>
      </trkpt>
      <trkpt lat="51.418347973376513" lon="11.071813981980085">
        <ele>401.49000000000001</ele>
        <time>2017-05-21T14:27:07Z</time>
      </trkpt>
      <trkpt lat="51.418239008635283" lon="11.071681967005134">
        <ele>401.00999999999999</ele>
        <time>2017-05-21T14:27:08Z</time>
      </trkpt>
      <trkpt lat="51.41810598783195" lon="11.071589011698961">
        <ele>400.52999999999997</ele>
        <time>2017-05-21T14:27:09Z</time>
      </trkpt>
      <trkpt lat="51.417980007827282" lon="11.071533020585775">
        <ele>400.05000000000001</ele>
        <time>2017-05-21T14:27:10Z</time>
      </trkpt>
      <trkpt lat="51.417842041701078" lon="11.071519022807479">
        <ele>400.05000000000001</ele>
        <time>2017-05-21T14:27:11Z</time>
      </trkpt>
      <trkpt lat="51.417703991755843" lon="11.071565039455891">
        <ele>400.05000000000001</ele>
        <time>2017-05-21T14:27:12Z</time>
      </trkpt>
      <trkpt lat="51.417581029236317" lon="11.071632010862231">
        <ele>399.56999999999999</ele>
        <time>2017-05-21T14:27:13Z</time>
      </trkpt>
      <trkpt lat="51.417458988726139" lon="11.071699988096952">
        <ele>399.07999999999998</ele>
        <time>2017-05-21T14:27:14Z</time>
      </trkpt>
      <trkpt lat="51.416999995708466" lon="11.071963012218475">
        <ele>396.19999999999999</ele>
        <time>2017-05-21T14:27:18Z</time>
      </trkpt>
      <trkpt lat="51.416883990168571" lon="11.071970975026488">
        <ele>395.72000000000003</ele>
        <time>2017-05-21T14:27:19Z</time>
      </trkpt>
      <trkpt lat="51.416777959093451" lon="11.071924958378077">
        <ele>395.24000000000001</ele>
        <time>2017-05-21T14:27:20Z</time>
      </trkpt>
      <trkpt lat="51.416689027100801" lon="11.071813981980085">
        <ele>395.24000000000001</ele>
        <time>2017-05-21T14:27:21Z</time>
      </trkpt>
      <trkpt lat="51.416613003239036" lon="11.071679033339024">
        <ele>394.75999999999999</ele>
        <time>2017-05-21T14:27:22Z</time>
      </trkpt>
      <trkpt lat="51.416534967720509" lon="11.071565039455891">
        <ele>394.75999999999999</ele>
        <time>2017-05-21T14:27:23Z</time>
      </trkpt>
      <trkpt lat="51.41645098105073" lon="11.071472000330687">
        <ele>394.75999999999999</ele>
        <time>2017-05-21T14:27:24Z</time>
      </trkpt>
      <trkpt lat="51.416350984945893" lon="11.071453979238868">
        <ele>394.27999999999997</ele>
        <time>2017-05-21T14:27:25Z</time>
      </trkpt>
      <trkpt lat="51.416239002719522" lon="11.071485998108983">
        <ele>393.80000000000001</ele>
        <time>2017-05-21T14:27:26Z</time>
      </trkpt>
      <trkpt lat="51.41610799357295" lon="11.07148096896708">
        <ele>393.80000000000001</ele>
        <time>2017-05-21T14:27:27Z</time>
      </trkpt>
      <trkpt lat="51.415976984426379" lon="11.071439981460571">
        <ele>393.31999999999999</ele>
        <time>2017-05-21T14:27:28Z</time>
      </trkpt>
      <trkpt lat="51.415844969451427" lon="11.07137099839747">
        <ele>393.31999999999999</ele>
        <time>2017-05-21T14:27:29Z</time>
      </trkpt>
      <trkpt lat="51.415780009701848" lon="11.071233032271266">
        <ele>393.31999999999999</ele>
        <time>2017-05-21T14:27:30Z</time>
      </trkpt>
      <trkpt lat="51.415727036073804" lon="11.071021975949407">
        <ele>393.31999999999999</ele>
        <time>2017-05-21T14:27:31Z</time>
      </trkpt>
      <trkpt lat="51.41576400026679" lon="11.070827012881637">
        <ele>392.83999999999997</ele>
        <time>2017-05-21T14:27:32Z</time>
      </trkpt>
      <trkpt lat="51.415833989158273" lon="11.070603970438242">
        <ele>392.83999999999997</ele>
        <time>2017-05-21T14:27:33Z</time>
      </trkpt>
      <trkpt lat="51.415918981656432" lon="11.070330971851945">
        <ele>394.27999999999997</ele>
        <time>2017-05-21T14:27:34Z</time>
      </trkpt>
      <trkpt lat="51.416103970259428" lon="11.06984599493444">
        <ele>393.31999999999999</ele>
        <time>2017-05-21T14:27:36Z</time>
      </trkpt>
      <trkpt lat="51.41621402464807" lon="11.069638039916754">
        <ele>392.36000000000001</ele>
        <time>2017-05-21T14:27:37Z</time>
      </trkpt>
      <trkpt lat="51.416316032409668" lon="11.069423966109753">
        <ele>391.87</ele>
        <time>2017-05-21T14:27:38Z</time>
      </trkpt>
      <trkpt lat="51.416403036564589" lon="11.069194972515106">
        <ele>391.38999999999999</ele>
        <time>2017-05-21T14:27:39Z</time>
      </trkpt>
      <trkpt lat="51.416459027677774" lon="11.068959021940827">
        <ele>389.94999999999999</ele>
        <time>2017-05-21T14:27:40Z</time>
      </trkpt>
      <trkpt lat="51.416469002142549" lon="11.068717036396265">
        <ele>389.47000000000003</ele>
        <time>2017-05-21T14:27:41Z</time>
      </trkpt>
      <trkpt lat="51.416462967172265" lon="11.06849399395287">
        <ele>389.94999999999999</ele>
        <time>2017-05-21T14:27:42Z</time>
      </trkpt>
      <trkpt lat="51.416406976059079" lon="11.06834203004837">
        <ele>389.94999999999999</ele>
        <time>2017-05-21T14:27:43Z</time>
      </trkpt>
      <trkpt lat="51.416308991611004" lon="11.068244967609644">
        <ele>389.47000000000003</ele>
        <time>2017-05-21T14:27:44Z</time>
      </trkpt>
      <trkpt lat="51.416196003556252" lon="11.068203980103135">
        <ele>388.99000000000001</ele>
        <time>2017-05-21T14:27:45Z</time>
      </trkpt>
      <trkpt lat="51.416068011894822" lon="11.068194005638361">
        <ele>388.99000000000001</ele>
        <time>2017-05-21T14:27:46Z</time>
      </trkpt>
      <trkpt lat="51.415957035496831" lon="11.06817196123302">
        <ele>388.99000000000001</ele>
        <time>2017-05-21T14:27:47Z</time>
      </trkpt>
      <trkpt lat="51.415857039391994" lon="11.068079005926847">
        <ele>388.99000000000001</ele>
        <time>2017-05-21T14:27:48Z</time>
      </trkpt>
      <trkpt lat="51.41578302718699" lon="11.067926036193967">
        <ele>388.99000000000001</ele>
        <time>2017-05-21T14:27:49Z</time>
      </trkpt>
      <trkpt lat="51.415737010538578" lon="11.067744987085462">
        <ele>388.99000000000001</ele>
        <time>2017-05-21T14:27:50Z</time>
      </trkpt>
      <trkpt lat="51.41570096835494" lon="11.067580031231046">
        <ele>388.99000000000001</ele>
        <time>2017-05-21T14:27:51Z</time>
      </trkpt>
      <trkpt lat="51.415687976405025" lon="11.067420020699501">
        <ele>388.50999999999999</ele>
        <time>2017-05-21T14:27:52Z</time>
      </trkpt>
      <trkpt lat="51.415696023032069" lon="11.067261015996337">
        <ele>388.02999999999997</ele>
        <time>2017-05-21T14:27:53Z</time>
      </trkpt>
      <trkpt lat="51.415739022195339" lon="11.067155990749598">
        <ele>387.06999999999999</ele>
        <time>2017-05-21T14:27:54Z</time>
      </trkpt>
      <trkpt lat="51.415841029956937" lon="11.066998997703195">
        <ele>387.55000000000001</ele>
        <time>2017-05-21T14:27:55Z</time>
      </trkpt>
      <trkpt lat="51.415960974991322" lon="11.066912999376655">
        <ele>386.58999999999997</ele>
        <time>2017-05-21T14:27:56Z</time>
      </trkpt>
      <trkpt lat="51.416087038815022" lon="11.066808979958296">
        <ele>386.11000000000001</ele>
        <time>2017-05-21T14:27:57Z</time>
      </trkpt>
      <trkpt lat="51.416712999343872" lon="11.066380999982357">
        <ele>377.94</ele>
        <time>2017-05-21T14:28:01Z</time>
      </trkpt>
      <trkpt lat="51.416848031803966" lon="11.06625996530056">
        <ele>375.52999999999997</ele>
        <time>2017-05-21T14:28:02Z</time>
      </trkpt>
      <trkpt lat="51.41698700375855" lon="11.066014962270856">
        <ele>371.20999999999998</ele>
        <time>2017-05-21T14:28:04Z</time>
      </trkpt>
      <trkpt lat="51.41700997017324" lon="11.065865010023117">
        <ele>369.27999999999997</ele>
        <time>2017-05-21T14:28:05Z</time>
      </trkpt>
      <trkpt lat="51.416984992101789" lon="11.065724026411772">
        <ele>367.83999999999997</ele>
        <time>2017-05-21T14:28:06Z</time>
      </trkpt>
      <trkpt lat="51.416927995160222" lon="11.065413979813457">
        <ele>365.92000000000002</ele>
        <time>2017-05-21T14:28:08Z</time>
      </trkpt>
      <trkpt lat="51.416960014030337" lon="11.065269978716969">
        <ele>364.95999999999998</ele>
        <time>2017-05-21T14:28:09Z</time>
      </trkpt>
      <trkpt lat="51.417037965729833" lon="11.065133018419147">
        <ele>364.48000000000002</ele>
        <time>2017-05-21T14:28:10Z</time>
      </trkpt>
      <trkpt lat="51.41713603399694" lon="11.065003015100956">
        <ele>363.04000000000002</ele>
        <time>2017-05-21T14:28:11Z</time>
      </trkpt>
      <trkpt lat="51.417243992909789" lon="11.064878040924668">
        <ele>361.11000000000001</ele>
        <time>2017-05-21T14:28:12Z</time>
      </trkpt>
      <trkpt lat="51.417324962094426" lon="11.064735967665911">
        <ele>359.19</ele>
        <time>2017-05-21T14:28:13Z</time>
      </trkpt>
      <trkpt lat="51.417439039796591" lon="11.064424999058247">
        <ele>356.79000000000002</ele>
        <time>2017-05-21T14:28:15Z</time>
      </trkpt>
      <trkpt lat="51.417414983734488" lon="11.06426197104156">
        <ele>355.33999999999997</ele>
        <time>2017-05-21T14:28:16Z</time>
      </trkpt>
      <trkpt lat="51.417365027591586" lon="11.064120987430215">
        <ele>354.86000000000001</ele>
        <time>2017-05-21T14:28:17Z</time>
      </trkpt>
      <trkpt lat="51.417277017608285" lon="11.064001964405179">
        <ele>353.42000000000002</ele>
        <time>2017-05-21T14:28:18Z</time>
      </trkpt>
      <trkpt lat="51.417183978483081" lon="11.063885958865285">
        <ele>352.45999999999998</ele>
        <time>2017-05-21T14:28:19Z</time>
      </trkpt>
      <trkpt lat="51.417105020955205" lon="11.063764002174139">
        <ele>351.98000000000002</ele>
        <time>2017-05-21T14:28:20Z</time>
      </trkpt>
      <trkpt lat="51.417067972943187" lon="11.063612038269639">
        <ele>351.5</ele>
        <time>2017-05-21T14:28:21Z</time>
      </trkpt>
      <trkpt lat="51.417079037055373" lon="11.063458984717727">
        <ele>350.54000000000002</ele>
        <time>2017-05-21T14:28:22Z</time>
      </trkpt>
      <trkpt lat="51.417142990976572" lon="11.063323030248284">
        <ele>350.06</ele>
        <time>2017-05-21T14:28:23Z</time>
      </trkpt>
      <trkpt lat="51.417228989303112" lon="11.063205013051629">
        <ele>349.57999999999998</ele>
        <time>2017-05-21T14:28:24Z</time>
      </trkpt>
      <trkpt lat="51.417366033419967" lon="11.063088001683354">
        <ele>349.10000000000002</ele>
        <time>2017-05-21T14:28:25Z</time>
      </trkpt>
      <trkpt lat="51.417553033679724" lon="11.063052965328097">
        <ele>348.62</ele>
        <time>2017-05-21T14:28:26Z</time>
      </trkpt>
      <trkpt lat="51.417747996747494" lon="11.063039973378181">
        <ele>346.69</ele>
        <time>2017-05-21T14:28:27Z</time>
      </trkpt>
      <trkpt lat="51.418076986446977" lon="11.062918016687036">
        <ele>342.85000000000002</ele>
        <time>2017-05-21T14:28:29Z</time>
      </trkpt>
      <trkpt lat="51.418205983936787" lon="11.062787007540464">
        <ele>341.88999999999999</ele>
        <time>2017-05-21T14:28:30Z</time>
      </trkpt>
      <trkpt lat="51.418306985870004" lon="11.062631020322442">
        <ele>340.92000000000002</ele>
        <time>2017-05-21T14:28:31Z</time>
      </trkpt>
      <trkpt lat="51.418374963104725" lon="11.062459023669362">
        <ele>339.48000000000002</ele>
        <time>2017-05-21T14:28:32Z</time>
      </trkpt>
      <trkpt lat="51.418397007510066" lon="11.06228400953114">
        <ele>338.51999999999998</ele>
        <time>2017-05-21T14:28:33Z</time>
      </trkpt>
      <trkpt lat="51.418373035266995" lon="11.062122993171215">
        <ele>337.56</ele>
        <time>2017-05-21T14:28:34Z</time>
      </trkpt>
      <trkpt lat="51.418307991698384" lon="11.06198200955987">
        <ele>337.07999999999998</ele>
        <time>2017-05-21T14:28:35Z</time>
      </trkpt>
      <trkpt lat="51.41823397949338" lon="11.061846977099776">
        <ele>336.12</ele>
        <time>2017-05-21T14:28:36Z</time>
      </trkpt>
      <trkpt lat="51.418177988380194" lon="11.061546988785267">
        <ele>334.19999999999999</ele>
        <time>2017-05-21T14:28:38Z</time>
      </trkpt>
      <trkpt lat="51.418215958401561" lon="11.061411034315825">
        <ele>332.75</ele>
        <time>2017-05-21T14:28:39Z</time>
      </trkpt>
      <trkpt lat="51.418293993920088" lon="11.061302991583943">
        <ele>331.79000000000002</ele>
        <time>2017-05-21T14:28:40Z</time>
      </trkpt>
      <trkpt lat="51.418403964489698" lon="11.06120903044939">
        <ele>330.82999999999998</ele>
        <time>2017-05-21T14:28:41Z</time>
      </trkpt>
      <trkpt lat="51.418517958372831" lon="11.061097970232368">
        <ele>330.35000000000002</ele>
        <time>2017-05-21T14:28:42Z</time>
      </trkpt>
      <trkpt lat="51.418607980012894" lon="11.060949023813009">
        <ele>329.38999999999999</ele>
        <time>2017-05-21T14:28:43Z</time>
      </trkpt>
      <trkpt lat="51.418676041066647" lon="11.060769986361265">
        <ele>327.94999999999999</ele>
        <time>2017-05-21T14:28:44Z</time>
      </trkpt>
      <trkpt lat="51.418700013309717" lon="11.060588015243411">
        <ele>326.5</ele>
        <time>2017-05-21T14:28:45Z</time>
      </trkpt>
      <trkpt lat="51.418674029409885" lon="11.06041400693357">
        <ele>326.01999999999998</ele>
        <time>2017-05-21T14:28:46Z</time>
      </trkpt>
      <trkpt lat="51.418624995276332" lon="11.060281991958618">
        <ele>325.06</ele>
        <time>2017-05-21T14:28:47Z</time>
      </trkpt>
      <trkpt lat="51.418549977242947" lon="11.060183001682162">
        <ele>324.10000000000002</ele>
        <time>2017-05-21T14:28:48Z</time>
      </trkpt>
      <trkpt lat="51.41847001388669" lon="11.060089962556958">
        <ele>323.13999999999999</ele>
        <time>2017-05-21T14:28:49Z</time>
      </trkpt>
      <trkpt lat="51.418397007510066" lon="11.059977980330586">
        <ele>322.66000000000003</ele>
        <time>2017-05-21T14:28:50Z</time>
      </trkpt>
      <trkpt lat="51.418361971154809" lon="11.059842025861144">
        <ele>321.69999999999999</ele>
        <time>2017-05-21T14:28:51Z</time>
      </trkpt>
      <trkpt lat="51.418360965326428" lon="11.059687966480851">
        <ele>320.74000000000001</ele>
        <time>2017-05-21T14:28:52Z</time>
      </trkpt>
      <trkpt lat="51.418386027216911" lon="11.059534996747971">
        <ele>320.25999999999999</ele>
        <time>2017-05-21T14:28:53Z</time>
      </trkpt>
      <trkpt lat="51.418477976694703" lon="11.059428965672851">
        <ele>318.81</ele>
        <time>2017-05-21T14:28:54Z</time>
      </trkpt>
      <trkpt lat="51.418589036911726" lon="11.059347996488214">
        <ele>318.32999999999998</ele>
        <time>2017-05-21T14:28:55Z</time>
      </trkpt>
      <trkpt lat="51.41870797611773" lon="11.059252023696899">
        <ele>316.88999999999999</ele>
        <time>2017-05-21T14:28:56Z</time>
      </trkpt>
      <trkpt lat="51.418791962787509" lon="11.05912696570158">
        <ele>315.44999999999999</ele>
        <time>2017-05-21T14:28:57Z</time>
      </trkpt>
      <trkpt lat="51.418830016627908" lon="11.058958992362022">
        <ele>314.49000000000001</ele>
        <time>2017-05-21T14:28:58Z</time>
      </trkpt>
      <trkpt lat="51.418842002749443" lon="11.058751959353685">
        <ele>313.52999999999997</ele>
        <time>2017-05-21T14:28:59Z</time>
      </trkpt>
      <trkpt lat="51.418842002749443" lon="11.058562025427818">
        <ele>312.08999999999997</ele>
        <time>2017-05-21T14:29:00Z</time>
      </trkpt>
      <trkpt lat="51.418858012184501" lon="11.058384999632835">
        <ele>311.60000000000002</ele>
        <time>2017-05-21T14:29:01Z</time>
      </trkpt>
      <trkpt lat="51.41892297193408" lon="11.05828701518476">
        <ele>309.68000000000001</ele>
        <time>2017-05-21T14:29:02Z</time>
      </trkpt>
      <trkpt lat="51.419023973867297" lon="11.05820001102984">
        <ele>309.68000000000001</ele>
        <time>2017-05-21T14:29:03Z</time>
      </trkpt>
      <trkpt lat="51.419130004942417" lon="11.058220965787768">
        <ele>308.24000000000001</ele>
        <time>2017-05-21T14:29:04Z</time>
      </trkpt>
      <trkpt lat="51.419249027967453" lon="11.058297995477915">
        <ele>305.83999999999997</ele>
        <time>2017-05-21T14:29:05Z</time>
      </trkpt>
      <trkpt lat="51.419383976608515" lon="11.058396985754371">
        <ele>303.43000000000001</ele>
        <time>2017-05-21T14:29:06Z</time>
      </trkpt>
      <trkpt lat="51.419535018503666" lon="11.058457000181079">
        <ele>301.02999999999997</ele>
        <time>2017-05-21T14:29:07Z</time>
      </trkpt>
      <trkpt lat="51.419760994613171" lon="11.058449959382415">
        <ele>301.50999999999999</ele>
        <time>2017-05-21T14:29:08Z</time>
      </trkpt>
      <trkpt lat="51.420094007626176" lon="11.058389022946358">
        <ele>300.55000000000001</ele>
        <time>2017-05-21T14:29:10Z</time>
      </trkpt>
      <trkpt lat="51.420209007337689" lon="11.058316016569734">
        <ele>299.58999999999997</ele>
        <time>2017-05-21T14:29:11Z</time>
      </trkpt>
      <trkpt lat="51.420295005664229" lon="11.058199005201459">
        <ele>298.63</ele>
        <time>2017-05-21T14:29:12Z</time>
      </trkpt>
      <trkpt lat="51.420335993170738" lon="11.058027008548379">
        <ele>297.18000000000001</ele>
        <time>2017-05-21T14:29:13Z</time>
      </trkpt>
      <trkpt lat="51.420374969020486" lon="11.057873032987118">
        <ele>296.22000000000003</ele>
        <time>2017-05-21T14:29:14Z</time>
      </trkpt>
      <trkpt lat="51.420507989823818" lon="11.05773095972836">
        <ele>293.33999999999997</ele>
        <time>2017-05-21T14:29:16Z</time>
      </trkpt>
      <trkpt lat="51.420592982321978" lon="11.057776976376772">
        <ele>292.38</ele>
        <time>2017-05-21T14:29:17Z</time>
      </trkpt>
      <trkpt lat="51.420722985640168" lon="11.057915026322007">
        <ele>290.45999999999998</ele>
        <time>2017-05-21T14:29:18Z</time>
      </trkpt>
      <trkpt lat="51.421062033623457" lon="11.05848197825253">
        <ele>286.13</ele>
        <time>2017-05-21T14:29:21Z</time>
      </trkpt>
      <trkpt lat="51.421212991699576" lon="11.058612987399101">
        <ele>286.61000000000001</ele>
        <time>2017-05-21T14:29:22Z</time>
      </trkpt>
      <trkpt lat="51.42134802415967" lon="11.058732010424137">
        <ele>285.17000000000002</ele>
        <time>2017-05-21T14:29:23Z</time>
      </trkpt>
      <trkpt lat="51.421823026612401" lon="11.05901800096035">
        <ele>281.80000000000001</ele>
        <time>2017-05-21T14:29:27Z</time>
      </trkpt>
      <trkpt lat="51.421913970261812" lon="11.058976007625461">
        <ele>281.80000000000001</ele>
        <time>2017-05-21T14:29:28Z</time>
      </trkpt>
      <trkpt lat="51.422030981630087" lon="11.058835024014115">
        <ele>280.36000000000001</ele>
        <time>2017-05-21T14:29:29Z</time>
      </trkpt>
      <trkpt lat="51.422153022140265" lon="11.058720024302602">
        <ele>279.88</ele>
        <time>2017-05-21T14:29:30Z</time>
      </trkpt>
      <trkpt lat="51.422313032671809" lon="11.058638971298933">
        <ele>279.39999999999998</ele>
        <time>2017-05-21T14:29:31Z</time>
      </trkpt>
      <trkpt lat="51.422469019889832" lon="11.058616004884243">
        <ele>278.92000000000002</ele>
        <time>2017-05-21T14:29:32Z</time>
      </trkpt>
      <trkpt lat="51.422630036249757" lon="11.058620028197765">
        <ele>278.44</ele>
        <time>2017-05-21T14:29:33Z</time>
      </trkpt>
      <trkpt lat="51.422791974619031" lon="11.05863100849092">
        <ele>275.06999999999999</ele>
        <time>2017-05-21T14:29:34Z</time>
      </trkpt>
      <trkpt lat="51.422932958230376" lon="11.05860996991396">
        <ele>274.58999999999997</ele>
        <time>2017-05-21T14:29:35Z</time>
      </trkpt>
      <trkpt lat="51.423036977648735" lon="11.058534029871225">
        <ele>273.63</ele>
        <time>2017-05-21T14:29:36Z</time>
      </trkpt>
      <trkpt lat="51.423119958490133" lon="11.058392040431499">
        <ele>271.70999999999998</ele>
        <time>2017-05-21T14:29:37Z</time>
      </trkpt>
      <trkpt lat="51.423161029815674" lon="11.058193976059556">
        <ele>270.26999999999998</ele>
        <time>2017-05-21T14:29:38Z</time>
      </trkpt>
      <trkpt lat="51.423148959875107" lon="11.057974034920335">
        <ele>268.82999999999998</ele>
        <time>2017-05-21T14:29:39Z</time>
      </trkpt>
      <trkpt lat="51.423107972368598" lon="11.057761972770095">
        <ele>267.86000000000001</ele>
        <time>2017-05-21T14:29:40Z</time>
      </trkpt>
      <trkpt lat="51.423037983477116" lon="11.057549994438887">
        <ele>266.89999999999998</ele>
        <time>2017-05-21T14:29:41Z</time>
      </trkpt>
      <trkpt lat="51.422949973493814" lon="11.057337010279298">
        <ele>265.45999999999998</ele>
        <time>2017-05-21T14:29:42Z</time>
      </trkpt>
      <trkpt lat="51.422846037894487" lon="11.057107010856271">
        <ele>264.5</ele>
        <time>2017-05-21T14:29:43Z</time>
      </trkpt>
      <trkpt lat="51.42244697548449" lon="11.056150970980525">
        <ele>257.76999999999998</ele>
        <time>2017-05-21T14:29:48Z</time>
      </trkpt>
      <trkpt lat="51.422453010454774" lon="11.056018033996224">
        <ele>256.81</ele>
        <time>2017-05-21T14:29:49Z</time>
      </trkpt>
      <trkpt lat="51.422487962990999" lon="11.055912002921104">
        <ele>255.84999999999999</ele>
        <time>2017-05-21T14:29:50Z</time>
      </trkpt>
      <trkpt lat="51.422587959095836" lon="11.055790968239307">
        <ele>255.37</ele>
        <time>2017-05-21T14:29:51Z</time>
      </trkpt>
      <trkpt lat="51.422696001827717" lon="11.055726008489728">
        <ele>256.81</ele>
        <time>2017-05-21T14:29:52Z</time>
      </trkpt>
      <trkpt lat="51.422802032902837" lon="11.055685020983219">
        <ele>256.32999999999998</ele>
        <time>2017-05-21T14:29:53Z</time>
      </trkpt>
      <trkpt lat="51.422932958230376" lon="11.05570999905467">
        <ele>255.37</ele>
        <time>2017-05-21T14:29:54Z</time>
      </trkpt>
      <trkpt lat="51.423133034259081" lon="11.055793985724449">
        <ele>255.37</ele>
        <time>2017-05-21T14:29:55Z</time>
      </trkpt>
      <trkpt lat="51.423281980678439" lon="11.055926000699401">
        <ele>253.93000000000001</ele>
        <time>2017-05-21T14:29:56Z</time>
      </trkpt>
      <trkpt lat="51.423442997038364" lon="11.056079976260662">
        <ele>252.96000000000001</ele>
        <time>2017-05-21T14:29:57Z</time>
      </trkpt>
      <trkpt lat="51.423620022833347" lon="11.056222971528769">
        <ele>251.52000000000001</ele>
        <time>2017-05-21T14:29:58Z</time>
      </trkpt>
      <trkpt lat="51.423821020871401" lon="11.056351969018579">
        <ele>251.52000000000001</ele>
        <time>2017-05-21T14:29:59Z</time>
      </trkpt>
      <trkpt lat="51.424029981717467" lon="11.056458000093699">
        <ele>250.08000000000001</ele>
        <time>2017-05-21T14:30:00Z</time>
      </trkpt>
      <trkpt lat="51.424774965271354" lon="11.056575011461973">
        <ele>244.78999999999999</ele>
        <time>2017-05-21T14:30:04Z</time>
      </trkpt>
      <trkpt lat="51.424865992739797" lon="11.056538969278336">
        <ele>245.27000000000001</ele>
        <time>2017-05-21T14:30:05Z</time>
      </trkpt>
      <trkpt lat="51.424927012994885" lon="11.056393962353468">
        <ele>244.31</ele>
        <time>2017-05-21T14:30:06Z</time>
      </trkpt>
      <trkpt lat="51.424954002723098" lon="11.056232023984194">
        <ele>243.83000000000001</ele>
        <time>2017-05-21T14:30:07Z</time>
      </trkpt>
      <trkpt lat="51.424930030480027" lon="11.056023985147476">
        <ele>243.34999999999999</ele>
        <time>2017-05-21T14:30:08Z</time>
      </trkpt>
      <trkpt lat="51.424902034923434" lon="11.055785017088056">
        <ele>241.91</ele>
        <time>2017-05-21T14:30:09Z</time>
      </trkpt>
      <trkpt lat="51.42489499412477" lon="11.055530961602926">
        <ele>242.38999999999999</ele>
        <time>2017-05-21T14:30:10Z</time>
      </trkpt>
      <trkpt lat="51.424882002174854" lon="11.054985970258713">
        <ele>240.47</ele>
        <time>2017-05-21T14:30:12Z</time>
      </trkpt>
      <trkpt lat="51.424900023266673" lon="11.05474297888577">
        <ele>239.99000000000001</ele>
        <time>2017-05-21T14:30:13Z</time>
      </trkpt>
      <trkpt lat="51.424946039915085" lon="11.054580034688115">
        <ele>239.02000000000001</ele>
        <time>2017-05-21T14:30:14Z</time>
      </trkpt>
      <trkpt lat="51.425008988007903" lon="11.054456988349557">
        <ele>238.53999999999999</ele>
        <time>2017-05-21T14:30:15Z</time>
      </trkpt>
      <trkpt lat="51.425092974677682" lon="11.054414995014668">
        <ele>237.58000000000001</ele>
        <time>2017-05-21T14:30:16Z</time>
      </trkpt>
      <trkpt lat="51.425211997702718" lon="11.054474003612995">
        <ele>238.06</ele>
        <time>2017-05-21T14:30:17Z</time>
      </trkpt>
      <trkpt lat="51.42534401267767" lon="11.054563019424677">
        <ele>237.58000000000001</ele>
        <time>2017-05-21T14:30:18Z</time>
      </trkpt>
      <trkpt lat="51.425505029037595" lon="11.054711965844035">
        <ele>236.13999999999999</ele>
        <time>2017-05-21T14:30:19Z</time>
      </trkpt>
      <trkpt lat="51.425654981285334" lon="11.054868958890438">
        <ele>235.66</ele>
        <time>2017-05-21T14:30:20Z</time>
      </trkpt>
      <trkpt lat="51.426345985382795" lon="11.055498020723462">
        <ele>229.88999999999999</ele>
        <time>2017-05-21T14:30:26Z</time>
      </trkpt>
      <trkpt lat="51.426428966224194" lon="11.055512018501759">
        <ele>229.88999999999999</ele>
        <time>2017-05-21T14:30:27Z</time>
      </trkpt>
      <trkpt lat="51.426491998136044" lon="11.05547396466136">
        <ele>229.41</ele>
        <time>2017-05-21T14:30:28Z</time>
      </trkpt>
      <trkpt lat="51.426550000905991" lon="11.055404981598258">
        <ele>229.41</ele>
        <time>2017-05-21T14:30:29Z</time>
      </trkpt>
      <trkpt lat="51.42659199424088" lon="11.055295011028647">
        <ele>228.93000000000001</ele>
        <time>2017-05-21T14:30:30Z</time>
      </trkpt>
      <trkpt lat="51.426632981747389" lon="11.05517297051847">
        <ele>228.44999999999999</ele>
        <time>2017-05-21T14:30:31Z</time>
      </trkpt>
      <trkpt lat="51.426644967868924" lon="11.05502100661397">
        <ele>228.44999999999999</ele>
        <time>2017-05-21T14:30:32Z</time>
      </trkpt>
      <trkpt lat="51.426639016717672" lon="11.05485001578927">
        <ele>227.49000000000001</ele>
        <time>2017-05-21T14:30:33Z</time>
      </trkpt>
      <trkpt lat="51.426627030596137" lon="11.054695034399629">
        <ele>226.53</ele>
        <time>2017-05-21T14:30:34Z</time>
      </trkpt>
      <trkpt lat="51.426643040031195" lon="11.054539969190955">
        <ele>227.00999999999999</ele>
        <time>2017-05-21T14:30:35Z</time>
      </trkpt>
      <trkpt lat="51.426652008667588" lon="11.054424969479442">
        <ele>226.05000000000001</ele>
        <time>2017-05-21T14:30:36Z</time>
      </trkpt>
      <trkpt lat="51.426688972860575" lon="11.054322961717844">
        <ele>225.56999999999999</ele>
        <time>2017-05-21T14:30:37Z</time>
      </trkpt>
      <trkpt lat="51.426742030307651" lon="11.054241992533207">
        <ele>225.56999999999999</ele>
        <time>2017-05-21T14:30:38Z</time>
      </trkpt>
      <trkpt lat="51.426810007542372" lon="11.054201005026698">
        <ele>225.09</ele>
        <time>2017-05-21T14:30:39Z</time>
      </trkpt>
      <trkpt lat="51.426886031404138" lon="11.054202010855079">
        <ele>224.61000000000001</ele>
        <time>2017-05-21T14:30:40Z</time>
      </trkpt>
      <trkpt lat="51.426970018073916" lon="11.054250039160252">
        <ele>224.12</ele>
        <time>2017-05-21T14:30:41Z</time>
      </trkpt>
      <trkpt lat="51.427063979208469" lon="11.054318016394973">
        <ele>222.68000000000001</ele>
        <time>2017-05-21T14:30:42Z</time>
      </trkpt>
      <trkpt lat="51.427180990576744" lon="11.05441901832819">
        <ele>222.19999999999999</ele>
        <time>2017-05-21T14:30:43Z</time>
      </trkpt>
      <trkpt lat="51.427292972803116" lon="11.054566036909819">
        <ele>221.72</ele>
        <time>2017-05-21T14:30:44Z</time>
      </trkpt>
      <trkpt lat="51.427403027191758" lon="11.05474398471415">
        <ele>221.72</ele>
        <time>2017-05-21T14:30:45Z</time>
      </trkpt>
      <trkpt lat="51.427613999694586" lon="11.055095018818974">
        <ele>218.36000000000001</ele>
        <time>2017-05-21T14:30:47Z</time>
      </trkpt>
      <trkpt lat="51.427718019112945" lon="11.055186968296766">
        <ele>216.43000000000001</ele>
        <time>2017-05-21T14:30:48Z</time>
      </trkpt>
      <trkpt lat="51.427820026874542" lon="11.055198032408953">
        <ele>215.94999999999999</ele>
        <time>2017-05-21T14:30:49Z</time>
      </trkpt>
      <trkpt lat="51.427910970523953" lon="11.055131983011961">
        <ele>214.99000000000001</ele>
        <time>2017-05-21T14:30:50Z</time>
      </trkpt>
      <trkpt lat="51.427993029356003" lon="11.054999968037009">
        <ele>214.03</ele>
        <time>2017-05-21T14:30:51Z</time>
      </trkpt>
      <trkpt lat="51.42805203795433" lon="11.054817996919155">
        <ele>214.03</ele>
        <time>2017-05-21T14:30:52Z</time>
      </trkpt>
      <trkpt lat="51.428122026845813" lon="11.054608030244708">
        <ele>213.06999999999999</ele>
        <time>2017-05-21T14:30:53Z</time>
      </trkpt>
      <trkpt lat="51.428281031548977" lon="11.054149037227035">
        <ele>211.15000000000001</ele>
        <time>2017-05-21T14:30:55Z</time>
      </trkpt>
      <trkpt lat="51.428335011005402" lon="11.053913002833724">
        <ele>210.66999999999999</ele>
        <time>2017-05-21T14:30:56Z</time>
      </trkpt>
      <trkpt lat="51.428349008783698" lon="11.053659031167626">
        <ele>209.69999999999999</ele>
        <time>2017-05-21T14:30:57Z</time>
      </trkpt>
      <trkpt lat="51.428341967985034" lon="11.053374968469143">
        <ele>208.74000000000001</ele>
        <time>2017-05-21T14:30:58Z</time>
      </trkpt>
      <trkpt lat="51.42831003293395" lon="11.053106999024749">
        <ele>207.30000000000001</ele>
        <time>2017-05-21T14:30:59Z</time>
      </trkpt>
      <trkpt lat="51.428264016285539" lon="11.052845986559987">
        <ele>207.30000000000001</ele>
        <time>2017-05-21T14:31:00Z</time>
      </trkpt>
      <trkpt lat="51.428219005465508" lon="11.052600983530283">
        <ele>205.38</ele>
        <time>2017-05-21T14:31:01Z</time>
      </trkpt>
      <trkpt lat="51.428201990202069" lon="11.052371989935637">
        <ele>204.41999999999999</ele>
        <time>2017-05-21T14:31:02Z</time>
      </trkpt>
      <trkpt lat="51.428214982151985" lon="11.052175015211105">
        <ele>203.46000000000001</ele>
        <time>2017-05-21T14:31:03Z</time>
      </trkpt>
      <trkpt lat="51.42824599519372" lon="11.051989020779729">
        <ele>202.49000000000001</ele>
        <time>2017-05-21T14:31:04Z</time>
      </trkpt>
      <trkpt lat="51.428276002407074" lon="11.051817024126649">
        <ele>200.56999999999999</ele>
        <time>2017-05-21T14:31:05Z</time>
      </trkpt>
      <trkpt lat="51.42831196077168" lon="11.051489962264895">
        <ele>199.13</ele>
        <time>2017-05-21T14:31:07Z</time>
      </trkpt>
      <trkpt lat="51.428313972428441" lon="11.05132601223886">
        <ele>198.16999999999999</ele>
        <time>2017-05-21T14:31:08Z</time>
      </trkpt>
      <trkpt lat="51.428308021277189" lon="11.051159966737032">
        <ele>197.69</ele>
        <time>2017-05-21T14:31:09Z</time>
      </trkpt>
      <trkpt lat="51.428291006013751" lon="11.050996016710997">
        <ele>197.21000000000001</ele>
        <time>2017-05-21T14:31:10Z</time>
      </trkpt>
      <trkpt lat="51.428272984921932" lon="11.05083198286593">
        <ele>196.25</ele>
        <time>2017-05-21T14:31:11Z</time>
      </trkpt>
      <trkpt lat="51.428179023787379" lon="11.049956995993853">
        <ele>192.88</ele>
        <time>2017-05-21T14:31:17Z</time>
      </trkpt>
      <trkpt lat="51.428165026009083" lon="11.049893964082003">
        <ele>192.40000000000001</ele>
        <time>2017-05-21T14:31:18Z</time>
      </trkpt>
      <trkpt lat="51.428125966340303" lon="11.049622977152467">
        <ele>187.11000000000001</ele>
        <time>2017-05-21T14:31:29Z</time>
      </trkpt>
      <trkpt lat="51.428179023787379" lon="11.049447963014245">
        <ele>186.15000000000001</ele>
        <time>2017-05-21T14:32:49Z</time>
      </trkpt>
      <trkpt lat="51.428372981026769" lon="11.048013987019658">
        <ele>182.78999999999999</ele>
        <time>2017-05-21T14:32:57Z</time>
      </trkpt>
      <trkpt lat="51.428743964061141" lon="11.0455890186131">
        <ele>176.06</ele>
        <time>2017-05-21T14:33:06Z</time>
      </trkpt>
      <trkpt lat="51.428944962099195" lon="11.044610012322664">
        <ele>173.66</ele>
        <time>2017-05-21T14:33:10Z</time>
      </trkpt>
      <trkpt lat="51.429032972082496" lon="11.04442804120481">
        <ele>173.66</ele>
        <time>2017-05-21T14:33:11Z</time>
      </trkpt>
      <trkpt lat="51.429144032299519" lon="11.044289991259575">
        <ele>173.66</ele>
        <time>2017-05-21T14:33:12Z</time>
      </trkpt>
      <trkpt lat="51.429275963455439" lon="11.044186977669597">
        <ele>173.66</ele>
        <time>2017-05-21T14:33:13Z</time>
      </trkpt>
      <trkpt lat="51.42942801117897" lon="11.044115982949734">
        <ele>172.69</ele>
        <time>2017-05-21T14:33:14Z</time>
      </trkpt>
      <trkpt lat="51.429596990346909" lon="11.044060997664928">
        <ele>171.72999999999999</ele>
        <time>2017-05-21T14:33:15Z</time>
      </trkpt>
      <trkpt lat="51.431067008525133" lon="11.043776012957096">
        <ele>163.56</ele>
        <time>2017-05-21T14:33:24Z</time>
      </trkpt>
      <trkpt lat="51.432711035013199" lon="11.043693032115698">
        <ele>157.31</ele>
        <time>2017-05-21T14:33:37Z</time>
      </trkpt>
      <trkpt lat="51.434317007660866" lon="11.04352698661387">
        <ele>154.91</ele>
        <time>2017-05-21T14:33:51Z</time>
      </trkpt>
      <trkpt lat="51.435632966458797" lon="11.04316002689302">
        <ele>158.27000000000001</ele>
        <time>2017-05-21T14:34:04Z</time>
      </trkpt>
      <trkpt lat="51.435831030830741" lon="11.043015019968152">
        <ele>158.27000000000001</ele>
        <time>2017-05-21T14:34:09Z</time>
      </trkpt>
      <trkpt lat="51.435846034437418" lon="11.042908988893032">
        <ele>158.27000000000001</ele>
        <time>2017-05-21T14:34:10Z</time>
      </trkpt>
      <trkpt lat="51.435843016952276" lon="11.042783008888364">
        <ele>158.27000000000001</ele>
        <time>2017-05-21T14:34:11Z</time>
      </trkpt>
      <trkpt lat="51.43583295866847" lon="11.042649988085032">
        <ele>158.27000000000001</ele>
        <time>2017-05-21T14:34:12Z</time>
      </trkpt>
      <trkpt lat="51.435815021395683" lon="11.042502969503403">
        <ele>158.27000000000001</ele>
        <time>2017-05-21T14:34:13Z</time>
      </trkpt>
      <trkpt lat="51.435716031119227" lon="11.041772989556193">
        <ele>157.31</ele>
        <time>2017-05-21T14:34:19Z</time>
      </trkpt>
      <trkpt lat="51.435730028897524" lon="11.041651032865047">
        <ele>156.34999999999999</ele>
        <time>2017-05-21T14:34:20Z</time>
      </trkpt>
      <trkpt lat="51.43574302084744" lon="11.041536033153534">
        <ele>157.31</ele>
        <time>2017-05-21T14:34:21Z</time>
      </trkpt>
      <trkpt lat="51.435804963111877" lon="11.041434025391936">
        <ele>156.34999999999999</ele>
        <time>2017-05-21T14:34:22Z</time>
      </trkpt>
      <trkpt lat="51.435880986973643" lon="11.041346015408635">
        <ele>155.87</ele>
        <time>2017-05-21T14:34:23Z</time>
      </trkpt>
      <trkpt lat="51.435974026098847" lon="11.041266974061728">
        <ele>155.38999999999999</ele>
        <time>2017-05-21T14:34:24Z</time>
      </trkpt>
      <trkpt lat="51.436050971969962" lon="11.041194973513484">
        <ele>154.91</ele>
        <time>2017-05-21T14:34:25Z</time>
      </trkpt>
      <trkpt lat="51.436297986656427" lon="11.041009984910488">
        <ele>153.47</ele>
        <time>2017-05-21T14:34:28Z</time>
      </trkpt>
      <trkpt lat="51.437170961871743" lon="11.040430041030049">
        <ele>145.78</ele>
        <time>2017-05-21T14:34:37Z</time>
      </trkpt>
      <trkpt lat="51.43724799156189" lon="11.040335996076465">
        <ele>145.30000000000001</ele>
        <time>2017-05-21T14:34:38Z</time>
      </trkpt>
      <trkpt lat="51.437726011499763" lon="11.039643986150622">
        <ele>145.78</ele>
        <time>2017-05-21T14:34:46Z</time>
      </trkpt>
      <trkpt lat="51.438338980078697" lon="11.03865098208189">
        <ele>142.88999999999999</ele>
        <time>2017-05-21T14:34:54Z</time>
      </trkpt>
      <trkpt lat="51.438396982848644" lon="11.038480997085571">
        <ele>142.41</ele>
        <time>2017-05-21T14:34:55Z</time>
      </trkpt>
      <trkpt lat="51.439106008037925" lon="11.037070993334055">
        <ele>141.93000000000001</ele>
        <time>2017-05-21T14:35:04Z</time>
      </trkpt>
      <trkpt lat="51.439300971105695" lon="11.036811992526054">
        <ele>142.88999999999999</ele>
        <time>2017-05-21T14:35:06Z</time>
      </trkpt>
      <trkpt lat="51.439412031322718" lon="11.036701016128063">
        <ele>142.88999999999999</ele>
        <time>2017-05-21T14:35:07Z</time>
      </trkpt>
      <trkpt lat="51.440161960199475" lon="11.03589802980423">
        <ele>141.44999999999999</ele>
        <time>2017-05-21T14:35:14Z</time>
      </trkpt>
      <trkpt lat="51.440245024859905" lon="11.03574899956584">
        <ele>140.97</ele>
        <time>2017-05-21T14:35:15Z</time>
      </trkpt>
      <trkpt lat="51.44032197073102" lon="11.035588989034295">
        <ele>140.97</ele>
        <time>2017-05-21T14:35:16Z</time>
      </trkpt>
      <trkpt lat="51.440739976242185" lon="11.034559020772576">
        <ele>140.49000000000001</ele>
        <time>2017-05-21T14:35:22Z</time>
      </trkpt>
      <trkpt lat="51.441144989803433" lon="11.032382994890213">
        <ele>140.00999999999999</ele>
        <time>2017-05-21T14:35:33Z</time>
      </trkpt>
      <trkpt lat="51.441774973645806" lon="11.029931036755443">
        <ele>140.00999999999999</ele>
        <time>2017-05-21T14:35:46Z</time>
      </trkpt>
      <trkpt lat="51.442799996584654" lon="11.027061995118856">
        <ele>140.00999999999999</ele>
        <time>2017-05-21T14:36:02Z</time>
      </trkpt>
      <trkpt lat="51.443382035940886" lon="11.025660960003734">
        <ele>139.05000000000001</ele>
        <time>2017-05-21T14:36:08Z</time>
      </trkpt>
      <trkpt lat="51.444777958095074" lon="11.022919993847609">
        <ele>138.09</ele>
        <time>2017-05-21T14:36:18Z</time>
      </trkpt>
      <trkpt lat="51.446826998144388" lon="11.018995000049472">
        <ele>138.09</ele>
        <time>2017-05-21T14:36:32Z</time>
      </trkpt>
      <trkpt lat="51.447012992575765" lon="11.018757959827781">
        <ele>138.56999999999999</ele>
        <time>2017-05-21T14:36:33Z</time>
      </trkpt>
      <trkpt lat="51.449197987094522" lon="11.016293009743094">
        <ele>140.97</ele>
        <time>2017-05-21T14:36:44Z</time>
      </trkpt>
      <trkpt lat="51.450445968657732" lon="11.014869008213282">
        <ele>141.44999999999999</ele>
        <time>2017-05-21T14:36:52Z</time>
      </trkpt>
      <trkpt lat="51.45170602016151" lon="11.013446012511849">
        <ele>143.37</ele>
        <time>2017-05-21T14:37:04Z</time>
      </trkpt>
      <trkpt lat="51.45254697650671" lon="11.012484021484852">
        <ele>145.30000000000001</ele>
        <time>2017-05-21T14:37:13Z</time>
      </trkpt>
      <trkpt lat="51.454483028501272" lon="11.010271031409502">
        <ele>147.22</ele>
        <time>2017-05-21T14:37:32Z</time>
      </trkpt>
      <trkpt lat="51.4562620036304" lon="11.008264990523458">
        <ele>149.13999999999999</ele>
        <time>2017-05-21T14:37:51Z</time>
      </trkpt>
      <trkpt lat="51.456551011651754" lon="11.008005989715457">
        <ele>150.09999999999999</ele>
        <time>2017-05-21T14:37:58Z</time>
      </trkpt>
      <trkpt lat="51.456974968314171" lon="11.00783902220428">
        <ele>151.06</ele>
        <time>2017-05-21T14:38:03Z</time>
      </trkpt>
      <trkpt lat="51.458337027579546" lon="11.007285984233022">
        <ele>154.91</ele>
        <time>2017-05-21T14:38:14Z</time>
      </trkpt>
      <trkpt lat="51.45982900634408" lon="11.006702017039061">
        <ele>155.38999999999999</ele>
        <time>2017-05-21T14:38:24Z</time>
      </trkpt>
      <trkpt lat="51.460977997630835" lon="11.006132969632745">
        <ele>155.87</ele>
        <time>2017-05-21T14:38:30Z</time>
      </trkpt>
      <trkpt lat="51.461163992062211" lon="11.005954016000032">
        <ele>155.87</ele>
        <time>2017-05-21T14:38:31Z</time>
      </trkpt>
      <trkpt lat="51.46270802244544" lon="11.004028022289276">
        <ele>156.34999999999999</ele>
        <time>2017-05-21T14:38:39Z</time>
      </trkpt>
      <trkpt lat="51.464828979223967" lon="11.001629959791899">
        <ele>155.87</ele>
        <time>2017-05-21T14:38:49Z</time>
      </trkpt>
      <trkpt lat="51.467466009780765" lon="10.998317012563348">
        <ele>155.87</ele>
        <time>2017-05-21T14:39:02Z</time>
      </trkpt>
      <trkpt lat="51.469213971868157" lon="10.996103016659617">
        <ele>156.83000000000001</ele>
        <time>2017-05-21T14:39:12Z</time>
      </trkpt>
      <trkpt lat="51.469796011224389" lon="10.99514395929873">
        <ele>157.31</ele>
        <time>2017-05-21T14:39:16Z</time>
      </trkpt>
      <trkpt lat="51.470060041174293" lon="10.994661999866366">
        <ele>157.31</ele>
        <time>2017-05-21T14:39:18Z</time>
      </trkpt>
      <trkpt lat="51.470224997028708" lon="10.994440969079733">
        <ele>157.78999999999999</ele>
        <time>2017-05-21T14:39:19Z</time>
      </trkpt>
      <trkpt lat="51.471413969993591" lon="10.993187958374619">
        <ele>161.16</ele>
        <time>2017-05-21T14:39:26Z</time>
      </trkpt>
      <trkpt lat="51.473121028393507" lon="10.991356009617448">
        <ele>161.16</ele>
        <time>2017-05-21T14:39:34Z</time>
      </trkpt>
      <trkpt lat="51.476056035608053" lon="10.988595010712743">
        <ele>163.08000000000001</ele>
        <time>2017-05-21T14:39:46Z</time>
      </trkpt>
      <trkpt lat="51.478590974584222" lon="10.98654898814857">
        <ele>165</ele>
        <time>2017-05-21T14:39:56Z</time>
      </trkpt>
      <trkpt lat="51.479519018903375" lon="10.985798975452781">
        <ele>165.96000000000001</ele>
        <time>2017-05-21T14:40:00Z</time>
      </trkpt>
      <trkpt lat="51.481084004044533" lon="10.984632968902588">
        <ele>167.88999999999999</ele>
        <time>2017-05-21T14:40:07Z</time>
      </trkpt>
      <trkpt lat="51.482102992013097" lon="10.984030980616808">
        <ele>169.33000000000001</ele>
        <time>2017-05-21T14:40:11Z</time>
      </trkpt>
      <trkpt lat="51.482344977557659" lon="10.983958980068564">
        <ele>170.28999999999999</ele>
        <time>2017-05-21T14:40:12Z</time>
      </trkpt>
      <trkpt lat="51.482599033042789" lon="10.983929978683591">
        <ele>170.77000000000001</ele>
        <time>2017-05-21T14:40:13Z</time>
      </trkpt>
      <trkpt lat="51.48468897677958" lon="10.983704002574086">
        <ele>172.21000000000001</ele>
        <time>2017-05-21T14:40:21Z</time>
      </trkpt>
      <trkpt lat="51.485381992533803" lon="10.983547009527683">
        <ele>171.72999999999999</ele>
        <time>2017-05-21T14:40:24Z</time>
      </trkpt>
      <trkpt lat="51.485576033592224" lon="10.983434021472931">
        <ele>171.72999999999999</ele>
        <time>2017-05-21T14:40:25Z</time>
      </trkpt>
      <trkpt lat="51.485739983618259" lon="10.983278034254909">
        <ele>171.72999999999999</ele>
        <time>2017-05-21T14:40:26Z</time>
      </trkpt>
      <trkpt lat="51.48589001968503" lon="10.983101008459926">
        <ele>171.72999999999999</ele>
        <time>2017-05-21T14:40:27Z</time>
      </trkpt>
      <trkpt lat="51.486026979982853" lon="10.982919037342072">
        <ele>172.21000000000001</ele>
        <time>2017-05-21T14:40:28Z</time>
      </trkpt>
      <trkpt lat="51.486154971644282" lon="10.982731031253934">
        <ele>172.21000000000001</ele>
        <time>2017-05-21T14:40:29Z</time>
      </trkpt>
      <trkpt lat="51.487441007047892" lon="10.981122041121125">
        <ele>171.72999999999999</ele>
        <time>2017-05-21T14:40:37Z</time>
      </trkpt>
      <trkpt lat="51.488778004422784" lon="10.979815972968936">
        <ele>172.69</ele>
        <time>2017-05-21T14:40:45Z</time>
      </trkpt>
      <trkpt lat="51.490979008376598" lon="10.977683030068874">
        <ele>174.62</ele>
        <time>2017-05-21T14:40:58Z</time>
      </trkpt>
      <trkpt lat="51.492498982697725" lon="10.976172024384141">
        <ele>176.53999999999999</ele>
        <time>2017-05-21T14:41:09Z</time>
      </trkpt>
      <trkpt lat="51.492594033479691" lon="10.976010002195835">
        <ele>176.53999999999999</ele>
        <time>2017-05-21T14:41:10Z</time>
      </trkpt>
      <trkpt lat="51.492675002664328" lon="10.97582995891571">
        <ele>176.53999999999999</ele>
        <time>2017-05-21T14:41:11Z</time>
      </trkpt>
      <trkpt lat="51.492742979899049" lon="10.975630972534418">
        <ele>176.53999999999999</ele>
        <time>2017-05-21T14:41:12Z</time>
      </trkpt>
      <trkpt lat="51.492799976840615" lon="10.975413965061307">
        <ele>176.53999999999999</ele>
        <time>2017-05-21T14:41:13Z</time>
      </trkpt>
      <trkpt lat="51.492852028459311" lon="10.975174997001886">
        <ele>176.53999999999999</ele>
        <time>2017-05-21T14:41:14Z</time>
      </trkpt>
      <trkpt lat="51.4930459856987" lon="10.974408974871039">
        <ele>176.06</ele>
        <time>2017-05-21T14:41:17Z</time>
      </trkpt>
      <trkpt lat="51.493136007338762" lon="10.974182998761535">
        <ele>176.06</ele>
        <time>2017-05-21T14:41:18Z</time>
      </trkpt>
      <trkpt lat="51.49323801510036" lon="10.973988035693765">
        <ele>175.58000000000001</ele>
        <time>2017-05-21T14:41:19Z</time>
      </trkpt>
      <trkpt lat="51.493353014811873" lon="10.973824001848698">
        <ele>175.58000000000001</ele>
        <time>2017-05-21T14:41:20Z</time>
      </trkpt>
      <trkpt lat="51.493480000644922" lon="10.973687041550875">
        <ele>175.58000000000001</ele>
        <time>2017-05-21T14:41:21Z</time>
      </trkpt>
      <trkpt lat="51.493616038933396" lon="10.973574975505471">
        <ele>175.58000000000001</ele>
        <time>2017-05-21T14:41:22Z</time>
      </trkpt>
      <trkpt lat="51.493758028373122" lon="10.973465004935861">
        <ele>176.06</ele>
        <time>2017-05-21T14:41:23Z</time>
      </trkpt>
      <trkpt lat="51.494805011898279" lon="10.972793027758598">
        <ele>177.02000000000001</ele>
        <time>2017-05-21T14:41:29Z</time>
      </trkpt>
      <trkpt lat="51.496798982843757" lon="10.971609000116587">
        <ele>178.94</ele>
        <time>2017-05-21T14:41:37Z</time>
      </trkpt>
      <trkpt lat="51.498436974361539" lon="10.970607027411461">
        <ele>180.87</ele>
        <time>2017-05-21T14:41:44Z</time>
      </trkpt>
      <trkpt lat="51.500340001657605" lon="10.969139020889997">
        <ele>182.31</ele>
        <time>2017-05-21T14:41:51Z</time>
      </trkpt>
      <trkpt lat="51.503414986655116" lon="10.965994969010353">
        <ele>184.22999999999999</ele>
        <time>2017-05-21T14:42:03Z</time>
      </trkpt>
      <trkpt lat="51.504450989887118" lon="10.964498966932297">
        <ele>185.66999999999999</ele>
        <time>2017-05-21T14:42:09Z</time>
      </trkpt>
      <trkpt lat="51.505888989195228" lon="10.96162598580122">
        <ele>188.56</ele>
        <time>2017-05-21T14:42:19Z</time>
      </trkpt>
      <trkpt lat="51.507779024541378" lon="10.956688039004803">
        <ele>191.44</ele>
        <time>2017-05-21T14:42:34Z</time>
      </trkpt>
      <trkpt lat="51.508028972893953" lon="10.956096025183797">
        <ele>190.96000000000001</ele>
        <time>2017-05-21T14:42:36Z</time>
      </trkpt>
      <trkpt lat="51.508188983425498" lon="10.955830989405513">
        <ele>190.96000000000001</ele>
        <time>2017-05-21T14:42:37Z</time>
      </trkpt>
      <trkpt lat="51.509236972779036" lon="10.954429032281041">
        <ele>190.47999999999999</ele>
        <time>2017-05-21T14:42:44Z</time>
      </trkpt>
      <trkpt lat="51.510433992370963" lon="10.952830016613007">
        <ele>190</ele>
        <time>2017-05-21T14:42:56Z</time>
      </trkpt>
      <trkpt lat="51.511305039748549" lon="10.951632997021079">
        <ele>189.03999999999999</ele>
        <time>2017-05-21T14:43:07Z</time>
      </trkpt>
      <trkpt lat="51.512050023302436" lon="10.950549971312284">
        <ele>187.59</ele>
        <time>2017-05-21T14:43:15Z</time>
      </trkpt>
      <trkpt lat="51.512114983052015" lon="10.950386021286249">
        <ele>187.59</ele>
        <time>2017-05-21T14:43:16Z</time>
      </trkpt>
      <trkpt lat="51.512169968336821" lon="10.950211007148027">
        <ele>187.59</ele>
        <time>2017-05-21T14:43:17Z</time>
      </trkpt>
      <trkpt lat="51.512213973328471" lon="10.950025012716651">
        <ele>187.59</ele>
        <time>2017-05-21T14:43:18Z</time>
      </trkpt>
      <trkpt lat="51.51225202716887" lon="10.949829965829849">
        <ele>187.59</ele>
        <time>2017-05-21T14:43:19Z</time>
      </trkpt>
      <trkpt lat="51.512284968048334" lon="10.94963600859046">
        <ele>188.08000000000001</ele>
        <time>2017-05-21T14:43:20Z</time>
      </trkpt>
      <trkpt lat="51.512411031872034" lon="10.949075007811189">
        <ele>188.08000000000001</ele>
        <time>2017-05-21T14:43:23Z</time>
      </trkpt>
      <trkpt lat="51.512476997449994" lon="10.948916003108025">
        <ele>188.56</ele>
        <time>2017-05-21T14:43:24Z</time>
      </trkpt>
      <trkpt lat="51.512551009654999" lon="10.948762027546763">
        <ele>188.56</ele>
        <time>2017-05-21T14:43:25Z</time>
      </trkpt>
      <trkpt lat="51.513452986255288" lon="10.947657041251659">
        <ele>188.56</ele>
        <time>2017-05-21T14:43:34Z</time>
      </trkpt>
      <trkpt lat="51.514395028352737" lon="10.946701001375914">
        <ele>190</ele>
        <time>2017-05-21T14:43:43Z</time>
      </trkpt>
      <trkpt lat="51.514576999470592" lon="10.946520958095789">
        <ele>190</ele>
        <time>2017-05-21T14:43:45Z</time>
      </trkpt>
      <trkpt lat="51.514670960605145" lon="10.946451975032687">
        <ele>190.47999999999999</ele>
        <time>2017-05-21T14:43:46Z</time>
      </trkpt>
      <trkpt lat="51.514763999730349" lon="10.946404030546546">
        <ele>190.96000000000001</ele>
        <time>2017-05-21T14:43:47Z</time>
      </trkpt>
      <trkpt lat="51.514858966693282" lon="10.946373017504811">
        <ele>190.96000000000001</ele>
        <time>2017-05-21T14:43:48Z</time>
      </trkpt>
      <trkpt lat="51.514954017475247" lon="10.946352984756231">
        <ele>191.44</ele>
        <time>2017-05-21T14:43:49Z</time>
      </trkpt>
      <trkpt lat="51.515050996094942" lon="10.946356002241373">
        <ele>190.96000000000001</ele>
        <time>2017-05-21T14:43:50Z</time>
      </trkpt>
      <trkpt lat="51.515145963057876" lon="10.946381986141205">
        <ele>190.96000000000001</ele>
        <time>2017-05-21T14:43:51Z</time>
      </trkpt>
      <trkpt lat="51.51524000801146" lon="10.946431020274758">
        <ele>190.96000000000001</ele>
        <time>2017-05-21T14:43:52Z</time>
      </trkpt>
      <trkpt lat="51.515337992459536" lon="10.946487011387944">
        <ele>191.44</ele>
        <time>2017-05-21T14:43:53Z</time>
      </trkpt>
      <trkpt lat="51.515545025467873" lon="10.946607040241361">
        <ele>191.91999999999999</ele>
        <time>2017-05-21T14:43:55Z</time>
      </trkpt>
      <trkpt lat="51.516327979043126" lon="10.946961008012295">
        <ele>195.77000000000001</ele>
        <time>2017-05-21T14:44:03Z</time>
      </trkpt>
      <trkpt lat="51.516423029825091" lon="10.946953967213631">
        <ele>195.77000000000001</ele>
        <time>2017-05-21T14:44:04Z</time>
      </trkpt>
      <trkpt lat="51.516511039808393" lon="10.946896970272064">
        <ele>195.28</ele>
        <time>2017-05-21T14:44:05Z</time>
      </trkpt>
      <trkpt lat="51.516591003164649" lon="10.946798985823989">
        <ele>195.28</ele>
        <time>2017-05-21T14:44:06Z</time>
      </trkpt>
      <trkpt lat="51.51665797457099" lon="10.946679040789604">
        <ele>195.28</ele>
        <time>2017-05-21T14:44:07Z</time>
      </trkpt>
      <trkpt lat="51.516714971512556" lon="10.946533028036356">
        <ele>195.28</ele>
        <time>2017-05-21T14:44:08Z</time>
      </trkpt>
      <trkpt lat="51.516770040616393" lon="10.946377040818334">
        <ele>195.28</ele>
        <time>2017-05-21T14:44:09Z</time>
      </trkpt>
      <trkpt lat="51.517089977860451" lon="10.944986985996366">
        <ele>195.77000000000001</ele>
        <time>2017-05-21T14:44:18Z</time>
      </trkpt>
      <trkpt lat="51.517145968973637" lon="10.944882966578007">
        <ele>195.77000000000001</ele>
        <time>2017-05-21T14:44:19Z</time>
      </trkpt>
      <trkpt lat="51.517198020592332" lon="10.944809960201383">
        <ele>196.25</ele>
        <time>2017-05-21T14:44:20Z</time>
      </trkpt>
      <trkpt lat="51.517287036404014" lon="10.944861005991697">
        <ele>198.16999999999999</ele>
        <time>2017-05-21T14:44:21Z</time>
      </trkpt>
      <trkpt lat="51.517384015023708" lon="10.944953039288521">
        <ele>198.65000000000001</ele>
        <time>2017-05-21T14:44:22Z</time>
      </trkpt>
      <trkpt lat="51.518442984670401" lon="10.946017038077116">
        <ele>200.56999999999999</ele>
        <time>2017-05-21T14:44:31Z</time>
      </trkpt>
      <trkpt lat="51.519502960145473" lon="10.946587007492781">
        <ele>201.53</ele>
        <time>2017-05-21T14:44:40Z</time>
      </trkpt>
      <trkpt lat="51.519619971513748" lon="10.946604022756219">
        <ele>201.53</ele>
        <time>2017-05-21T14:44:41Z</time>
      </trkpt>
      <trkpt lat="51.519732037559152" lon="10.94660796225071">
        <ele>201.53</ele>
        <time>2017-05-21T14:44:42Z</time>
      </trkpt>
      <trkpt lat="51.521354019641876" lon="10.946767972782254">
        <ele>206.81999999999999</ele>
        <time>2017-05-21T14:44:56Z</time>
      </trkpt>
      <trkpt lat="51.523207006976008" lon="10.947178015485406">
        <ele>210.19</ele>
        <time>2017-05-21T14:45:11Z</time>
      </trkpt>
      <trkpt lat="51.524665039032698" lon="10.947556961327791">
        <ele>213.55000000000001</ele>
        <time>2017-05-21T14:45:23Z</time>
      </trkpt>
      <trkpt lat="51.524770986288786" lon="10.947623010724783">
        <ele>214.03</ele>
        <time>2017-05-21T14:45:24Z</time>
      </trkpt>
      <trkpt lat="51.524869976565242" lon="10.947711020708084">
        <ele>214.50999999999999</ele>
        <time>2017-05-21T14:45:25Z</time>
      </trkpt>
      <trkpt lat="51.525298962369561" lon="10.948200020939112">
        <ele>215.94999999999999</ele>
        <time>2017-05-21T14:45:32Z</time>
      </trkpt>
      <trkpt lat="51.525415973737836" lon="10.948307979851961">
        <ele>214.50999999999999</ele>
        <time>2017-05-21T14:45:42Z</time>
      </trkpt>
      <trkpt lat="51.525518987327814" lon="10.94839196652174">
        <ele>214.03</ele>
        <time>2017-05-21T14:45:44Z</time>
      </trkpt>
      <trkpt lat="51.525585958734155" lon="10.94847603701055">
        <ele>214.03</ele>
        <time>2017-05-21T14:45:45Z</time>
      </trkpt>
      <trkpt lat="51.52630303055048" lon="10.949287991970778">
        <ele>213.55000000000001</ele>
        <time>2017-05-21T14:45:52Z</time>
      </trkpt>
      <trkpt lat="51.527469959110022" lon="10.95047403126955">
        <ele>215.94999999999999</ele>
        <time>2017-05-21T14:46:01Z</time>
      </trkpt>
      <trkpt lat="51.528402026742697" lon="10.951053975149989">
        <ele>216.91</ele>
        <time>2017-05-21T14:46:08Z</time>
      </trkpt>
      <trkpt lat="51.528525995090604" lon="10.951171992346644">
        <ele>217.40000000000001</ele>
        <time>2017-05-21T14:46:09Z</time>
      </trkpt>
      <trkpt lat="51.52864602394402" lon="10.951304007321596">
        <ele>217.88</ele>
        <time>2017-05-21T14:46:10Z</time>
      </trkpt>
      <trkpt lat="51.528755994513631" lon="10.951452031731606">
        <ele>217.88</ele>
        <time>2017-05-21T14:46:11Z</time>
      </trkpt>
      <trkpt lat="51.528863031417131" lon="10.951609024778008">
        <ele>218.36000000000001</ele>
        <time>2017-05-21T14:46:12Z</time>
      </trkpt>
      <trkpt lat="51.529787974432111" lon="10.953400991857052">
        <ele>221.24000000000001</ele>
        <time>2017-05-21T14:46:21Z</time>
      </trkpt>
      <trkpt lat="51.531184986233711" lon="10.956288976594806">
        <ele>223.63999999999999</ele>
        <time>2017-05-21T14:46:33Z</time>
      </trkpt>
      <trkpt lat="51.531414985656738" lon="10.956685021519661">
        <ele>225.09</ele>
        <time>2017-05-21T14:46:35Z</time>
      </trkpt>
      <trkpt lat="51.53154700063169" lon="10.956828016787767">
        <ele>225.56999999999999</ele>
        <time>2017-05-21T14:46:36Z</time>
      </trkpt>
      <trkpt lat="51.531687984243035" lon="10.956947961822152">
        <ele>226.05000000000001</ele>
        <time>2017-05-21T14:46:37Z</time>
      </trkpt>
      <trkpt lat="51.531850006431341" lon="10.957034965977073">
        <ele>227.00999999999999</ele>
        <time>2017-05-21T14:46:38Z</time>
      </trkpt>
      <trkpt lat="51.532067013904452" lon="10.957023985683918">
        <ele>227.49000000000001</ele>
        <time>2017-05-21T14:46:39Z</time>
      </trkpt>
      <trkpt lat="51.532262982800603" lon="10.95702800899744">
        <ele>227.97</ele>
        <time>2017-05-21T14:46:40Z</time>
      </trkpt>
      <trkpt lat="51.533225979655981" lon="10.956975035369396">
        <ele>232.30000000000001</ele>
        <time>2017-05-21T14:46:45Z</time>
      </trkpt>
      <trkpt lat="51.53360903263092" lon="10.956806978210807">
        <ele>233.74000000000001</ele>
        <time>2017-05-21T14:46:47Z</time>
      </trkpt>
      <trkpt lat="51.533801984041929" lon="10.956677980720997">
        <ele>234.69999999999999</ele>
        <time>2017-05-21T14:46:48Z</time>
      </trkpt>
      <trkpt lat="51.534772021695971" lon="10.956045985221863">
        <ele>237.58000000000001</ele>
        <time>2017-05-21T14:46:53Z</time>
      </trkpt>
      <trkpt lat="51.534977965056896" lon="10.955979013815522">
        <ele>237.58000000000001</ele>
        <time>2017-05-21T14:46:54Z</time>
      </trkpt>
      <trkpt lat="51.535191033035517" lon="10.955955041572452">
        <ele>237.09999999999999</ele>
        <time>2017-05-21T14:46:55Z</time>
      </trkpt>
      <trkpt lat="51.536086974665523" lon="10.955907013267279">
        <ele>235.66</ele>
        <time>2017-05-21T14:46:59Z</time>
      </trkpt>
      <trkpt lat="51.536641018465161" lon="10.955955041572452">
        <ele>235.66</ele>
        <time>2017-05-21T14:47:02Z</time>
      </trkpt>
      <trkpt lat="51.536817038431764" lon="10.955891003832221">
        <ele>235.66</ele>
        <time>2017-05-21T14:47:03Z</time>
      </trkpt>
      <trkpt lat="51.53700202703476" lon="10.95575999468565">
        <ele>235.66</ele>
        <time>2017-05-21T14:47:04Z</time>
      </trkpt>
      <trkpt lat="51.537179974839091" lon="10.955595960840583">
        <ele>235.18000000000001</ele>
        <time>2017-05-21T14:47:05Z</time>
      </trkpt>
      <trkpt lat="51.537348031997681" lon="10.955426981672645">
        <ele>235.66</ele>
        <time>2017-05-21T14:47:06Z</time>
      </trkpt>
      <trkpt lat="51.537517011165619" lon="10.955290021374822">
        <ele>235.66</ele>
        <time>2017-05-21T14:47:07Z</time>
      </trkpt>
      <trkpt lat="51.537694958969951" lon="10.955182984471321">
        <ele>235.66</ele>
        <time>2017-05-21T14:47:08Z</time>
      </trkpt>
      <trkpt lat="51.538511021062732" lon="10.954731032252312">
        <ele>235.18000000000001</ele>
        <time>2017-05-21T14:47:12Z</time>
      </trkpt>
      <trkpt lat="51.53936798684299" lon="10.953679019585252">
        <ele>235.18000000000001</ele>
        <time>2017-05-21T14:47:17Z</time>
      </trkpt>
      <trkpt lat="51.539736036211252" lon="10.95316001214087">
        <ele>235.18000000000001</ele>
        <time>2017-05-21T14:47:19Z</time>
      </trkpt>
      <trkpt lat="51.540516978129745" lon="10.952317966148257">
        <ele>234.22</ele>
        <time>2017-05-21T14:47:23Z</time>
      </trkpt>
      <trkpt lat="51.541896974667907" lon="10.951451025903225">
        <ele>234.22</ele>
        <time>2017-05-21T14:47:29Z</time>
      </trkpt>
      <trkpt lat="51.542467027902603" lon="10.951060010120273">
        <ele>233.25999999999999</ele>
        <time>2017-05-21T14:47:32Z</time>
      </trkpt>
      <trkpt lat="51.54265302233398" lon="10.950988009572029">
        <ele>233.25999999999999</ele>
        <time>2017-05-21T14:47:33Z</time>
      </trkpt>
      <trkpt lat="51.542857037857175" lon="10.950966970995069">
        <ele>234.69999999999999</ele>
        <time>2017-05-21T14:47:34Z</time>
      </trkpt>
      <trkpt lat="51.543120983988047" lon="10.950895976275206">
        <ele>236.13999999999999</ele>
        <time>2017-05-21T14:47:35Z</time>
      </trkpt>
      <trkpt lat="51.543332040309906" lon="10.950820036232471">
        <ele>236.13999999999999</ele>
        <time>2017-05-21T14:47:36Z</time>
      </trkpt>
      <trkpt lat="51.54353597201407" lon="10.950722973793745">
        <ele>236.62</ele>
        <time>2017-05-21T14:47:37Z</time>
      </trkpt>
      <trkpt lat="51.544030001387" lon="10.950346039608121">
        <ele>236.62</ele>
        <time>2017-05-21T14:47:40Z</time>
      </trkpt>
      <trkpt lat="51.544172996655107" lon="10.950191980227828">
        <ele>237.09999999999999</ele>
        <time>2017-05-21T14:47:41Z</time>
      </trkpt>
      <trkpt lat="51.544436020776629" lon="10.949896015226841">
        <ele>238.53999999999999</ele>
        <time>2017-05-21T14:47:43Z</time>
      </trkpt>
      <trkpt lat="51.544567029923201" lon="10.949794007465243">
        <ele>239.02000000000001</ele>
        <time>2017-05-21T14:47:44Z</time>
      </trkpt>
      <trkpt lat="51.544712036848068" lon="10.949733993038535">
        <ele>239.50999999999999</ele>
        <time>2017-05-21T14:47:45Z</time>
      </trkpt>
      <trkpt lat="51.544899037107825" lon="10.949708009138703">
        <ele>240.47</ele>
        <time>2017-05-21T14:47:46Z</time>
      </trkpt>
      <trkpt lat="51.545081008225679" lon="10.949743967503309">
        <ele>240.94999999999999</ele>
        <time>2017-05-21T14:47:47Z</time>
      </trkpt>
      <trkpt lat="51.545273037627339" lon="10.949829965829849">
        <ele>241.43000000000001</ele>
        <time>2017-05-21T14:47:48Z</time>
      </trkpt>
      <trkpt lat="51.545471018180251" lon="10.949956029653549">
        <ele>241.91</ele>
        <time>2017-05-21T14:47:49Z</time>
      </trkpt>
      <trkpt lat="51.546625960618258" lon="10.950373029336333">
        <ele>244.31</ele>
        <time>2017-05-21T14:47:55Z</time>
      </trkpt>
      <trkpt lat="51.547932028770447" lon="10.950875021517277">
        <ele>248.63999999999999</ele>
        <time>2017-05-21T14:48:02Z</time>
      </trkpt>
      <trkpt lat="51.549539007246494" lon="10.951972967013717">
        <ele>252.96000000000001</ele>
        <time>2017-05-21T14:48:10Z</time>
      </trkpt>
      <trkpt lat="51.549768000841141" lon="10.952016972005367">
        <ele>253.44</ele>
        <time>2017-05-21T14:48:11Z</time>
      </trkpt>
      <trkpt lat="51.550761004909873" lon="10.952357025817037">
        <ele>258.25</ele>
        <time>2017-05-21T14:48:16Z</time>
      </trkpt>
      <trkpt lat="51.550943981856108" lon="10.952524999156594">
        <ele>259.20999999999998</ele>
        <time>2017-05-21T14:48:17Z</time>
      </trkpt>
      <trkpt lat="51.551261991262436" lon="10.952887013554573">
        <ele>261.62</ele>
        <time>2017-05-21T14:48:19Z</time>
      </trkpt>
      <trkpt lat="51.551718972623348" lon="10.953515991568565">
        <ele>265.45999999999998</ele>
        <time>2017-05-21T14:48:22Z</time>
      </trkpt>
      <trkpt lat="51.551823997870088" lon="10.953766023740172">
        <ele>264.5</ele>
        <time>2017-05-21T14:48:23Z</time>
      </trkpt>
      <trkpt lat="51.552050979807973" lon="10.954190986230969">
        <ele>264.98000000000002</ele>
        <time>2017-05-21T14:48:25Z</time>
      </trkpt>
      <trkpt lat="51.552349962294102" lon="10.954595999792218">
        <ele>263.06</ele>
        <time>2017-05-21T14:48:28Z</time>
      </trkpt>
      <trkpt lat="51.552497986704111" lon="10.95457898452878">
        <ele>263.54000000000002</ele>
        <time>2017-05-21T14:48:29Z</time>
      </trkpt>
      <trkpt lat="51.552800992503762" lon="10.954469013959169">
        <ele>264.01999999999998</ele>
        <time>2017-05-21T14:48:31Z</time>
      </trkpt>
      <trkpt lat="51.553111039102077" lon="10.954332975670695">
        <ele>265.45999999999998</ele>
        <time>2017-05-21T14:48:33Z</time>
      </trkpt>
      <trkpt lat="51.553245987743139" lon="10.95423499122262">
        <ele>265.94</ele>
        <time>2017-05-21T14:48:34Z</time>
      </trkpt>
      <trkpt lat="51.553399041295052" lon="10.954134995117784">
        <ele>266.42000000000002</ele>
        <time>2017-05-21T14:48:35Z</time>
      </trkpt>
      <trkpt lat="51.553556034341455" lon="10.954046985134482">
        <ele>266.89999999999998</ele>
        <time>2017-05-21T14:48:36Z</time>
      </trkpt>
      <trkpt lat="51.553727025166154" lon="10.953979007899761">
        <ele>267.86000000000001</ele>
        <time>2017-05-21T14:48:37Z</time>
      </trkpt>
      <trkpt lat="51.553910002112389" lon="10.953906001523137">
        <ele>268.82999999999998</ele>
        <time>2017-05-21T14:48:38Z</time>
      </trkpt>
      <trkpt lat="51.554796975106001" lon="10.953601989895105">
        <ele>270.75</ele>
        <time>2017-05-21T14:48:43Z</time>
      </trkpt>
      <trkpt lat="51.554969977587461" lon="10.95365303568542">
        <ele>270.75</ele>
        <time>2017-05-21T14:48:44Z</time>
      </trkpt>
      <trkpt lat="51.555151026695967" lon="10.953751020133495">
        <ele>270.26999999999998</ele>
        <time>2017-05-21T14:48:45Z</time>
      </trkpt>
      <trkpt lat="51.555334003642201" lon="10.95389099791646">
        <ele>270.26999999999998</ele>
        <time>2017-05-21T14:48:46Z</time>
      </trkpt>
      <trkpt lat="51.555509017780423" lon="10.954048996791244">
        <ele>270.75</ele>
        <time>2017-05-21T14:48:47Z</time>
      </trkpt>
      <trkpt lat="51.5561059769243" lon="10.954821975901723">
        <ele>273.14999999999998</ele>
        <time>2017-05-21T14:48:51Z</time>
      </trkpt>
      <trkpt lat="51.556521970778704" lon="10.955467969179153">
        <ele>274.11000000000001</ele>
        <time>2017-05-21T14:48:54Z</time>
      </trkpt>
      <trkpt lat="51.556671001017094" lon="10.95560903660953">
        <ele>274.58999999999997</ele>
        <time>2017-05-21T14:48:55Z</time>
      </trkpt>
      <trkpt lat="51.556845009326935" lon="10.955724958330393">
        <ele>275.56</ele>
        <time>2017-05-21T14:48:56Z</time>
      </trkpt>
      <trkpt lat="51.557755032554269" lon="10.956313032656908">
        <ele>277.48000000000002</ele>
        <time>2017-05-21T14:49:01Z</time>
      </trkpt>
      <trkpt lat="51.55786600895226" lon="10.95646901987493">
        <ele>277</ele>
        <time>2017-05-21T14:49:02Z</time>
      </trkpt>
      <trkpt lat="51.557958964258432" lon="10.956626012921333">
        <ele>276.51999999999998</ele>
        <time>2017-05-21T14:49:03Z</time>
      </trkpt>
      <trkpt lat="51.558024007827044" lon="10.956809995695949">
        <ele>276.04000000000002</ele>
        <time>2017-05-21T14:49:04Z</time>
      </trkpt>
      <trkpt lat="51.558093996718526" lon="10.957009987905622">
        <ele>276.51999999999998</ele>
        <time>2017-05-21T14:49:05Z</time>
      </trkpt>
      <trkpt lat="51.558197010308504" lon="10.957196988165379">
        <ele>277</ele>
        <time>2017-05-21T14:49:06Z</time>
      </trkpt>
      <trkpt lat="51.558331036940217" lon="10.957341995090246">
        <ele>277.48000000000002</ele>
        <time>2017-05-21T14:49:07Z</time>
      </trkpt>
      <trkpt lat="51.558491969481111" lon="10.957447020336986">
        <ele>277.95999999999998</ele>
        <time>2017-05-21T14:49:08Z</time>
      </trkpt>
      <trkpt lat="51.558666983619332" lon="10.95750099979341">
        <ele>277.95999999999998</ele>
        <time>2017-05-21T14:49:09Z</time>
      </trkpt>
      <trkpt lat="51.558837974444032" lon="10.9575239662081">
        <ele>278.44</ele>
        <time>2017-05-21T14:49:10Z</time>
      </trkpt>
      <trkpt lat="51.559018017724156" lon="10.957503011450171">
        <ele>277.95999999999998</ele>
        <time>2017-05-21T14:49:11Z</time>
      </trkpt>
      <trkpt lat="51.559189008548856" lon="10.957476021721959">
        <ele>278.44</ele>
        <time>2017-05-21T14:49:12Z</time>
      </trkpt>
      <trkpt lat="51.559367962181568" lon="10.95741500146687">
        <ele>278.92000000000002</ele>
        <time>2017-05-21T14:49:13Z</time>
      </trkpt>
      <trkpt lat="51.559541970491409" lon="10.95730503089726">
        <ele>278.92000000000002</ele>
        <time>2017-05-21T14:49:14Z</time>
      </trkpt>
      <trkpt lat="51.560803027823567" lon="10.956415962427855">
        <ele>281.31999999999999</ele>
        <time>2017-05-21T14:49:21Z</time>
      </trkpt>
      <trkpt lat="51.561078038066626" lon="10.956229967996478">
        <ele>281.80000000000001</ele>
        <time>2017-05-21T14:49:23Z</time>
      </trkpt>
      <trkpt lat="51.561209969222546" lon="10.956194009631872">
        <ele>282.27999999999997</ele>
        <time>2017-05-21T14:49:24Z</time>
      </trkpt>
      <trkpt lat="51.56132597476244" lon="10.956193003803492">
        <ele>282.76999999999998</ele>
        <time>2017-05-21T14:49:25Z</time>
      </trkpt>
      <trkpt lat="51.561438962817192" lon="10.95621395856142">
        <ele>282.76999999999998</ele>
        <time>2017-05-21T14:49:26Z</time>
      </trkpt>
      <trkpt lat="51.561543988063931" lon="10.956259975209832">
        <ele>283.25</ele>
        <time>2017-05-21T14:49:27Z</time>
      </trkpt>
      <trkpt lat="51.561651024967432" lon="10.956334993243217">
        <ele>283.25</ele>
        <time>2017-05-21T14:49:28Z</time>
      </trkpt>
      <trkpt lat="51.561730988323689" lon="10.956474971026182">
        <ele>283.73000000000002</ele>
        <time>2017-05-21T14:49:29Z</time>
      </trkpt>
      <trkpt lat="51.561812963336706" lon="10.956631964072585">
        <ele>284.20999999999998</ele>
        <time>2017-05-21T14:49:30Z</time>
      </trkpt>
      <trkpt lat="51.561897033825517" lon="10.956762973219156">
        <ele>283.25</ele>
        <time>2017-05-21T14:49:31Z</time>
      </trkpt>
      <trkpt lat="51.56207799911499" lon="10.957023985683918">
        <ele>282.76999999999998</ele>
        <time>2017-05-21T14:49:33Z</time>
      </trkpt>
      <trkpt lat="51.562171960249543" lon="10.957111995667219">
        <ele>282.27999999999997</ele>
        <time>2017-05-21T14:49:34Z</time>
      </trkpt>
      <trkpt lat="51.56227296218276" lon="10.957197993993759">
        <ele>281.31999999999999</ele>
        <time>2017-05-21T14:49:35Z</time>
      </trkpt>
      <trkpt lat="51.562381004914641" lon="10.95726203173399">
        <ele>280.36000000000001</ele>
        <time>2017-05-21T14:49:36Z</time>
      </trkpt>
      <trkpt lat="51.562485024333" lon="10.957313999533653">
        <ele>280.83999999999997</ele>
        <time>2017-05-21T14:49:37Z</time>
      </trkpt>
      <trkpt lat="51.564300963655114" lon="10.957834012806416">
        <ele>278.44</ele>
        <time>2017-05-21T14:49:55Z</time>
      </trkpt>
      <trkpt lat="51.565425982698798" lon="10.958039034157991">
        <ele>281.31999999999999</ele>
        <time>2017-05-21T14:50:07Z</time>
      </trkpt>
      <trkpt lat="51.566474977880716" lon="10.957809034734964">
        <ele>286.13</ele>
        <time>2017-05-21T14:50:18Z</time>
      </trkpt>
      <trkpt lat="51.567711979150772" lon="10.957540981471539">
        <ele>290.94</ele>
        <time>2017-05-21T14:50:32Z</time>
      </trkpt>
      <trkpt lat="51.567881964147091" lon="10.957502005621791">
        <ele>295.25999999999999</ele>
        <time>2017-05-21T14:50:35Z</time>
      </trkpt>
      <trkpt lat="51.56792001798749" lon="10.957502005621791">
        <ele>297.67000000000002</ele>
        <time>2017-05-21T14:50:36Z</time>
      </trkpt>
      <trkpt lat="51.567957988008857" lon="10.957513991743326">
        <ele>298.14999999999998</ele>
        <time>2017-05-21T14:50:37Z</time>
      </trkpt>
      <trkpt lat="51.567983971908689" lon="10.957536958158016">
        <ele>297.67000000000002</ele>
        <time>2017-05-21T14:50:38Z</time>
      </trkpt>
      <trkpt lat="51.567997969686985" lon="10.957540981471539">
        <ele>299.11000000000001</ele>
        <time>2017-05-21T14:50:39Z</time>
      </trkpt>
      <trkpt lat="51.56802898272872" lon="10.957549028098583">
        <ele>299.58999999999997</ele>
        <time>2017-05-21T14:50:50Z</time>
      </trkpt>
      <trkpt lat="51.568032000213861" lon="10.957549028098583">
        <ele>299.58999999999997</ele>
        <time>2017-05-21T14:51:48Z</time>
      </trkpt>
      <trkpt lat="51.568084973841906" lon="10.957571994513273">
        <ele>299.58999999999997</ele>
        <time>2017-05-21T14:52:04Z</time>
      </trkpt>
      <trkpt lat="51.568662989884615" lon="10.957666961476207">
        <ele>299.11000000000001</ele>
        <time>2017-05-21T14:52:12Z</time>
      </trkpt>
      <trkpt lat="51.568733984604478" lon="10.957662016153336">
        <ele>299.11000000000001</ele>
        <time>2017-05-21T14:52:13Z</time>
      </trkpt>
      <trkpt lat="51.568804979324341" lon="10.957639971747994">
        <ele>299.11000000000001</ele>
        <time>2017-05-21T14:52:14Z</time>
      </trkpt>
      <trkpt lat="51.568870022892952" lon="10.957612982019782">
        <ele>299.11000000000001</ele>
        <time>2017-05-21T14:52:15Z</time>
      </trkpt>
      <trkpt lat="51.569853974506259" lon="10.957105038687587">
        <ele>298.63</ele>
        <time>2017-05-21T14:52:29Z</time>
      </trkpt>
      <trkpt lat="51.570150023326278" lon="10.956999007612467">
        <ele>298.63</ele>
        <time>2017-05-21T14:52:33Z</time>
      </trkpt>
      <trkpt lat="51.57022001221776" lon="10.956991966813803">
        <ele>298.63</ele>
        <time>2017-05-21T14:52:34Z</time>
      </trkpt>
      <trkpt lat="51.570341968908906" lon="10.957001019269228">
        <ele>298.63</ele>
        <time>2017-05-21T14:52:35Z</time>
      </trkpt>
      <trkpt lat="51.570497034117579" lon="10.956961959600449">
        <ele>298.63</ele>
        <time>2017-05-21T14:52:37Z</time>
      </trkpt>
      <trkpt lat="51.571007994934916" lon="10.956841008737683">
        <ele>297.18000000000001</ele>
        <time>2017-05-21T14:52:44Z</time>
      </trkpt>
      <trkpt lat="51.571313012391329" lon="10.956661971285939">
        <ele>294.77999999999997</ele>
        <time>2017-05-21T14:52:48Z</time>
      </trkpt>
      <trkpt lat="51.571396999061108" lon="10.956600029021502">
        <ele>293.81999999999999</ele>
        <time>2017-05-21T14:52:49Z</time>
      </trkpt>
      <trkpt lat="51.572211971506476" lon="10.95606098882854">
        <ele>292.86000000000001</ele>
        <time>2017-05-21T14:53:01Z</time>
      </trkpt>
      <trkpt lat="51.57243400812149" lon="10.956036010757089">
        <ele>293.33999999999997</ele>
        <time>2017-05-21T14:53:04Z</time>
      </trkpt>
      <trkpt lat="51.57249997369945" lon="10.95599502325058">
        <ele>293.33999999999997</ele>
        <time>2017-05-21T14:53:05Z</time>
      </trkpt>
      <trkpt lat="51.572986962273717" lon="10.955450031906366">
        <ele>291.42000000000002</ele>
        <time>2017-05-21T14:53:15Z</time>
      </trkpt>
      <trkpt lat="51.573019986972213" lon="10.955381970852613">
        <ele>290.45999999999998</ele>
        <time>2017-05-21T14:53:16Z</time>
      </trkpt>
      <trkpt lat="51.573197012767196" lon="10.954983998090029">
        <ele>289.00999999999999</ele>
        <time>2017-05-21T14:53:25Z</time>
      </trkpt>
      <trkpt lat="51.573229031637311" lon="10.954971006140113">
        <ele>289.49000000000001</ele>
        <time>2017-05-21T14:53:26Z</time>
      </trkpt>
      <trkpt lat="51.573234982788563" lon="10.954944016411901">
        <ele>289.00999999999999</ele>
        <time>2017-05-21T14:53:27Z</time>
      </trkpt>
      <trkpt lat="51.573279993608594" lon="10.954978968948126">
        <ele>289.49000000000001</ele>
        <time>2017-05-21T14:53:28Z</time>
      </trkpt>
      <trkpt lat="51.573312012478709" lon="10.955003025010228">
        <ele>289.97000000000003</ele>
        <time>2017-05-21T14:53:29Z</time>
      </trkpt>
      <trkpt lat="51.573352999985218" lon="10.955034038051963">
        <ele>289.49000000000001</ele>
        <time>2017-05-21T14:53:30Z</time>
      </trkpt>
      <trkpt lat="51.573613006621599" lon="10.955279963091016">
        <ele>289.49000000000001</ele>
        <time>2017-05-21T14:53:36Z</time>
      </trkpt>
      <trkpt lat="51.573758013546467" lon="10.955423964187503">
        <ele>289.49000000000001</ele>
        <time>2017-05-21T14:53:39Z</time>
      </trkpt>
      <trkpt lat="51.5738529805094" lon="10.955541981384158">
        <ele>289.00999999999999</ele>
        <time>2017-05-21T14:53:41Z</time>
      </trkpt>
      <trkpt lat="51.574035035446286" lon="10.955969039350748">
        <ele>288.05000000000001</ele>
        <time>2017-05-21T14:53:47Z</time>
      </trkpt>
      <trkpt lat="51.574403000995517" lon="10.95649098046124">
        <ele>289.97000000000003</ele>
        <time>2017-05-21T14:53:57Z</time>
      </trkpt>
      <trkpt lat="51.574444994330406" lon="10.956521993502975">
        <ele>289.97000000000003</ele>
        <time>2017-05-21T14:53:58Z</time>
      </trkpt>
      <trkpt lat="51.574502997100353" lon="10.956539008766413">
        <ele>289.97000000000003</ele>
        <time>2017-05-21T14:53:59Z</time>
      </trkpt>
      <trkpt lat="51.574552031233907" lon="10.956544037908316">
        <ele>289.97000000000003</ele>
        <time>2017-05-21T14:54:00Z</time>
      </trkpt>
      <trkpt lat="51.574600981548429" lon="10.956541020423174">
        <ele>289.97000000000003</ele>
        <time>2017-05-21T14:54:01Z</time>
      </trkpt>
      <trkpt lat="51.574631994590163" lon="10.956532973796129">
        <ele>291.42000000000002</ele>
        <time>2017-05-21T14:54:02Z</time>
      </trkpt>
      <trkpt lat="51.574737019836903" lon="10.956530040130019">
        <ele>293.81999999999999</ele>
        <time>2017-05-21T14:54:05Z</time>
      </trkpt>
      <trkpt lat="51.574787981808186" lon="10.9565120190382">
        <ele>294.30000000000001</ele>
        <time>2017-05-21T14:54:06Z</time>
      </trkpt>
      <trkpt lat="51.574840033426881" lon="10.956477988511324">
        <ele>294.77999999999997</ele>
        <time>2017-05-21T14:54:07Z</time>
      </trkpt>
      <trkpt lat="51.574896024540067" lon="10.956443035975099">
        <ele>294.77999999999997</ele>
        <time>2017-05-21T14:54:08Z</time>
      </trkpt>
      <trkpt lat="51.574941035360098" lon="10.956407999619842">
        <ele>295.25999999999999</ele>
        <time>2017-05-21T14:54:09Z</time>
      </trkpt>
      <trkpt lat="51.575025022029877" lon="10.956255029886961">
        <ele>297.67000000000002</ele>
        <time>2017-05-21T14:54:11Z</time>
      </trkpt>
      <trkpt lat="51.575126023963094" lon="10.956116979941726">
        <ele>298.14999999999998</ele>
        <time>2017-05-21T14:54:13Z</time>
      </trkpt>
      <trkpt lat="51.575878970324993" lon="10.955077037215233">
        <ele>298.14999999999998</ele>
        <time>2017-05-21T14:54:26Z</time>
      </trkpt>
      <trkpt lat="51.576541978865862" lon="10.953884962946177">
        <ele>299.58999999999997</ele>
        <time>2017-05-21T14:54:34Z</time>
      </trkpt>
      <trkpt lat="51.577440015971661" lon="10.952095007523894">
        <ele>304.88</ele>
        <time>2017-05-21T14:54:43Z</time>
      </trkpt>
      <trkpt lat="51.577572030946612" lon="10.951924016699195">
        <ele>305.83999999999997</ele>
        <time>2017-05-21T14:54:44Z</time>
      </trkpt>
      <trkpt lat="51.577726006507874" lon="10.951790995895863">
        <ele>306.31999999999999</ele>
        <time>2017-05-21T14:54:45Z</time>
      </trkpt>
      <trkpt lat="51.577948965132236" lon="10.951731987297535">
        <ele>306.80000000000001</ele>
        <time>2017-05-21T14:54:46Z</time>
      </trkpt>
      <trkpt lat="51.578149041160941" lon="10.951686976477504">
        <ele>307.75999999999999</ele>
        <time>2017-05-21T14:54:47Z</time>
      </trkpt>
      <trkpt lat="51.578358002007008" lon="10.951694017276168">
        <ele>308.72000000000003</ele>
        <time>2017-05-21T14:54:48Z</time>
      </trkpt>
      <trkpt lat="51.578585989773273" lon="10.951735004782677">
        <ele>309.19999999999999</ele>
        <time>2017-05-21T14:54:49Z</time>
      </trkpt>
      <trkpt lat="51.578824035823345" lon="10.951798036694527">
        <ele>310.16000000000003</ele>
        <time>2017-05-21T14:54:50Z</time>
      </trkpt>
      <trkpt lat="51.580493962392211" lon="10.952312014997005">
        <ele>316.41000000000003</ele>
        <time>2017-05-21T14:54:58Z</time>
      </trkpt>
      <trkpt lat="51.580842984840274" lon="10.952604040503502">
        <ele>317.85000000000002</ele>
        <time>2017-05-21T14:55:00Z</time>
      </trkpt>
      <trkpt lat="51.58098204061389" lon="10.952814007177949">
        <ele>318.32999999999998</ele>
        <time>2017-05-21T14:55:01Z</time>
      </trkpt>
      <trkpt lat="51.582138994708657" lon="10.954253012314439">
        <ele>323.62</ele>
        <time>2017-05-21T14:55:07Z</time>
      </trkpt>
      <trkpt lat="51.584160039201379" lon="10.956639004871249">
        <ele>334.68000000000001</ele>
        <time>2017-05-21T14:55:16Z</time>
      </trkpt>
      <trkpt lat="51.586327012628317" lon="10.959437973797321">
        <ele>350.54000000000002</ele>
        <time>2017-05-21T14:55:26Z</time>
      </trkpt>
      <trkpt lat="51.586499009281397" lon="10.959594966843724">
        <ele>351.5</ele>
        <time>2017-05-21T14:55:27Z</time>
      </trkpt>
      <trkpt lat="51.586643010377884" lon="10.959710972383618">
        <ele>352.45999999999998</ele>
        <time>2017-05-21T14:55:28Z</time>
      </trkpt>
      <trkpt lat="51.58680503256619" lon="10.959791019558907">
        <ele>353.42000000000002</ele>
        <time>2017-05-21T14:55:29Z</time>
      </trkpt>
      <trkpt lat="51.586975017562509" lon="10.959833012893796">
        <ele>354.86000000000001</ele>
        <time>2017-05-21T14:55:30Z</time>
      </trkpt>
      <trkpt lat="51.587122036144137" lon="10.959754977375269">
        <ele>355.82999999999998</ele>
        <time>2017-05-21T14:55:31Z</time>
      </trkpt>
      <trkpt lat="51.587265031412244" lon="10.959603013470769">
        <ele>356.79000000000002</ele>
        <time>2017-05-21T14:55:32Z</time>
      </trkpt>
      <trkpt lat="51.587396962568164" lon="10.959414001554251">
        <ele>358.23000000000002</ele>
        <time>2017-05-21T14:55:33Z</time>
      </trkpt>
      <trkpt lat="51.587568959221244" lon="10.959222977980971">
        <ele>359.19</ele>
        <time>2017-05-21T14:55:34Z</time>
      </trkpt>
      <trkpt lat="51.587728969752789" lon="10.95902600325644">
        <ele>360.63</ele>
        <time>2017-05-21T14:55:35Z</time>
      </trkpt>
      <trkpt lat="51.588103976100683" lon="10.958600034937263">
        <ele>363.04000000000002</ele>
        <time>2017-05-21T14:55:37Z</time>
      </trkpt>
      <trkpt lat="51.588703030720353" lon="10.958161996677518">
        <ele>366.88</ele>
        <time>2017-05-21T14:55:40Z</time>
      </trkpt>
      <trkpt lat="51.588938981294632" lon="10.958072980865836">
        <ele>367.83999999999997</ele>
        <time>2017-05-21T14:55:41Z</time>
      </trkpt>
      <trkpt lat="51.590106999501586" lon="10.957539975643158">
        <ele>368.31999999999999</ele>
        <time>2017-05-21T14:55:46Z</time>
      </trkpt>
      <trkpt lat="51.590312020853162" lon="10.957368984818459">
        <ele>368.31999999999999</ele>
        <time>2017-05-21T14:55:47Z</time>
      </trkpt>
      <trkpt lat="51.590497009456158" lon="10.957166980952024">
        <ele>369.27999999999997</ele>
        <time>2017-05-21T14:55:48Z</time>
      </trkpt>
      <trkpt lat="51.590659031644464" lon="10.956894988194108">
        <ele>370.24000000000001</ele>
        <time>2017-05-21T14:55:49Z</time>
      </trkpt>
      <trkpt lat="51.590801021084189" lon="10.956621989607811">
        <ele>371.20999999999998</ele>
        <time>2017-05-21T14:55:50Z</time>
      </trkpt>
      <trkpt lat="51.590927001088858" lon="10.956343961879611">
        <ele>372.64999999999998</ele>
        <time>2017-05-21T14:55:51Z</time>
      </trkpt>
      <trkpt lat="51.591058010235429" lon="10.956095019355416">
        <ele>374.08999999999997</ele>
        <time>2017-05-21T14:55:52Z</time>
      </trkpt>
      <trkpt lat="51.591184996068478" lon="10.95590902492404">
        <ele>375.05000000000001</ele>
        <time>2017-05-21T14:55:53Z</time>
      </trkpt>
      <trkpt lat="51.591320028528571" lon="10.95578103326261">
        <ele>376.49000000000001</ele>
        <time>2017-05-21T14:55:54Z</time>
      </trkpt>
      <trkpt lat="51.59146998077631" lon="10.95571699552238">
        <ele>377.44999999999999</ele>
        <time>2017-05-21T14:55:55Z</time>
      </trkpt>
      <trkpt lat="51.591624962165952" lon="10.95573996193707">
        <ele>377.94</ele>
        <time>2017-05-21T14:55:56Z</time>
      </trkpt>
      <trkpt lat="51.591787990182638" lon="10.955809028819203">
        <ele>378.89999999999998</ele>
        <time>2017-05-21T14:55:57Z</time>
      </trkpt>
      <trkpt lat="51.591955041512847" lon="10.955908019095659">
        <ele>379.38</ele>
        <time>2017-05-21T14:55:58Z</time>
      </trkpt>
      <trkpt lat="51.592127960175276" lon="10.956083033233881">
        <ele>379.38</ele>
        <time>2017-05-21T14:55:59Z</time>
      </trkpt>
      <trkpt lat="51.592260980978608" lon="10.956290988251567">
        <ele>378.89999999999998</ele>
        <time>2017-05-21T14:56:00Z</time>
      </trkpt>
      <trkpt lat="51.592363994568586" lon="10.956542026251554">
        <ele>379.86000000000001</ele>
        <time>2017-05-21T14:56:01Z</time>
      </trkpt>
      <trkpt lat="51.592405987903476" lon="10.956860035657883">
        <ele>380.33999999999997</ele>
        <time>2017-05-21T14:56:02Z</time>
      </trkpt>
      <trkpt lat="51.592438006773591" lon="10.957210985943675">
        <ele>381.30000000000001</ele>
        <time>2017-05-21T14:56:03Z</time>
      </trkpt>
      <trkpt lat="51.592469019815326" lon="10.957581968978047">
        <ele>381.77999999999997</ele>
        <time>2017-05-21T14:56:04Z</time>
      </trkpt>
      <trkpt lat="51.592617966234684" lon="10.95861503854394">
        <ele>383.22000000000003</ele>
        <time>2017-05-21T14:56:07Z</time>
      </trkpt>
      <trkpt lat="51.59271402284503" lon="10.958902034908533">
        <ele>385.14999999999998</ele>
        <time>2017-05-21T14:56:08Z</time>
      </trkpt>
      <trkpt lat="51.592833967879415" lon="10.959151983261108">
        <ele>386.11000000000001</ele>
        <time>2017-05-21T14:56:09Z</time>
      </trkpt>
      <trkpt lat="51.592967994511127" lon="10.959382988512516">
        <ele>388.02999999999997</ele>
        <time>2017-05-21T14:56:10Z</time>
      </trkpt>
      <trkpt lat="51.593120964244008" lon="10.959593039005995">
        <ele>388.99000000000001</ele>
        <time>2017-05-21T14:56:11Z</time>
      </trkpt>
      <trkpt lat="51.593286003917456" lon="10.95979898236692">
        <ele>389.94999999999999</ele>
        <time>2017-05-21T14:56:12Z</time>
      </trkpt>
      <trkpt lat="51.593815991654992" lon="10.96048504114151">
        <ele>393.80000000000001</ele>
        <time>2017-05-21T14:56:15Z</time>
      </trkpt>
      <trkpt lat="51.593969967216253" lon="10.960769020020962">
        <ele>393.31999999999999</ele>
        <time>2017-05-21T14:56:16Z</time>
      </trkpt>
      <trkpt lat="51.594097036868334" lon="10.961086023598909">
        <ele>393.80000000000001</ele>
        <time>2017-05-21T14:56:17Z</time>
      </trkpt>
      <trkpt lat="51.594203989952803" lon="10.961421970278025">
        <ele>394.75999999999999</ele>
        <time>2017-05-21T14:56:18Z</time>
      </trkpt>
      <trkpt lat="51.594281019642949" lon="10.961806029081345">
        <ele>396.68000000000001</ele>
        <time>2017-05-21T14:56:19Z</time>
      </trkpt>
      <trkpt lat="51.594342961907387" lon="10.962204001843929">
        <ele>398.60000000000002</ele>
        <time>2017-05-21T14:56:20Z</time>
      </trkpt>
      <trkpt lat="51.594398031011224" lon="10.962579008191824">
        <ele>401.00999999999999</ele>
        <time>2017-05-21T14:56:21Z</time>
      </trkpt>
      <trkpt lat="51.594593999907374" lon="10.96358098089695">
        <ele>403.88999999999999</ele>
        <time>2017-05-21T14:56:24Z</time>
      </trkpt>
      <trkpt lat="51.594697013497353" lon="10.963878035545349">
        <ele>404.37</ele>
        <time>2017-05-21T14:56:25Z</time>
      </trkpt>
      <trkpt lat="51.594808995723724" lon="10.96414097584784">
        <ele>405.32999999999998</ele>
        <time>2017-05-21T14:56:26Z</time>
      </trkpt>
      <trkpt lat="51.594941010698676" lon="10.964327976107597">
        <ele>406.29000000000002</ele>
        <time>2017-05-21T14:56:27Z</time>
      </trkpt>
      <trkpt lat="51.595085011795163" lon="10.964489998295903">
        <ele>407.25999999999999</ele>
        <time>2017-05-21T14:56:28Z</time>
      </trkpt>
      <trkpt lat="51.595240999013186" lon="10.964616984128952">
        <ele>408.69999999999999</ele>
        <time>2017-05-21T14:56:29Z</time>
      </trkpt>
      <trkpt lat="51.595451971516013" lon="10.964693007990718">
        <ele>409.66000000000003</ele>
        <time>2017-05-21T14:56:30Z</time>
      </trkpt>
      <trkpt lat="51.595631008967757" lon="10.964770037680864">
        <ele>410.62</ele>
        <time>2017-05-21T14:56:31Z</time>
      </trkpt>
      <trkpt lat="51.595898978412151" lon="10.964700970798731">
        <ele>411.57999999999998</ele>
        <time>2017-05-21T14:56:32Z</time>
      </trkpt>
      <trkpt lat="51.596858035773039" lon="10.964607009664178">
        <ele>415.43000000000001</ele>
        <time>2017-05-21T14:56:36Z</time>
      </trkpt>
      <trkpt lat="51.597060039639473" lon="10.964709017425776">
        <ele>415.91000000000003</ele>
        <time>2017-05-21T14:56:37Z</time>
      </trkpt>
      <trkpt lat="51.597259026020765" lon="10.96482602879405">
        <ele>416.38999999999999</ele>
        <time>2017-05-21T14:56:38Z</time>
      </trkpt>
      <trkpt lat="51.597445020452142" lon="10.964957037940621">
        <ele>416.87</ele>
        <time>2017-05-21T14:56:39Z</time>
      </trkpt>
      <trkpt lat="51.597606036812067" lon="10.965093998238444">
        <ele>417.35000000000002</ele>
        <time>2017-05-21T14:56:40Z</time>
      </trkpt>
      <trkpt lat="51.597880963236094" lon="10.965373031795025">
        <ele>421.19</ele>
        <time>2017-05-21T14:56:43Z</time>
      </trkpt>
      <trkpt lat="51.597954975441098" lon="10.965376971289515">
        <ele>421.68000000000001</ele>
        <time>2017-05-21T14:56:44Z</time>
      </trkpt>
      <trkpt lat="51.598051032051444" lon="10.965322991833091">
        <ele>422.16000000000003</ele>
        <time>2017-05-21T14:56:45Z</time>
      </trkpt>
      <trkpt lat="51.598168965429068" lon="10.965182008221745">
        <ele>422.63999999999999</ele>
        <time>2017-05-21T14:56:46Z</time>
      </trkpt>
      <trkpt lat="51.598272984847426" lon="10.965030966326594">
        <ele>423.12</ele>
        <time>2017-05-21T14:56:47Z</time>
      </trkpt>
      <trkpt lat="51.598370969295502" lon="10.964843966066837">
        <ele>423.60000000000002</ele>
        <time>2017-05-21T14:56:48Z</time>
      </trkpt>
      <trkpt lat="51.598441964015365" lon="10.964625030755997">
        <ele>423.60000000000002</ele>
        <time>2017-05-21T14:56:49Z</time>
      </trkpt>
      <trkpt lat="51.59849401563406" lon="10.964373992756009">
        <ele>424.07999999999998</ele>
        <time>2017-05-21T14:56:50Z</time>
      </trkpt>
      <trkpt lat="51.598522011190653" lon="10.964098982512951">
        <ele>425.04000000000002</ele>
        <time>2017-05-21T14:56:51Z</time>
      </trkpt>
      <trkpt lat="51.59853701479733" lon="10.963819026947021">
        <ele>425.51999999999998</ele>
        <time>2017-05-21T14:56:52Z</time>
      </trkpt>
      <trkpt lat="51.598611027002335" lon="10.963018974289298">
        <ele>424.56</ele>
        <time>2017-05-21T14:56:55Z</time>
      </trkpt>
      <trkpt lat="51.598786041140556" lon="10.962106017395854">
        <ele>425.04000000000002</ele>
        <time>2017-05-21T14:56:59Z</time>
      </trkpt>
      <trkpt lat="51.598900035023689" lon="10.961884986609221">
        <ele>426.48000000000002</ele>
        <time>2017-05-21T14:57:00Z</time>
      </trkpt>
      <trkpt lat="51.599026015028358" lon="10.96166898496449">
        <ele>427.44</ele>
        <time>2017-05-21T14:57:01Z</time>
      </trkpt>
      <trkpt lat="51.599163981154561" lon="10.961473016068339">
        <ele>428.39999999999998</ele>
        <time>2017-05-21T14:57:02Z</time>
      </trkpt>
      <trkpt lat="51.599307982251048" lon="10.961321974173188">
        <ele>428.39999999999998</ele>
        <time>2017-05-21T14:57:03Z</time>
      </trkpt>
      <trkpt lat="51.599490037187934" lon="10.96121896058321">
        <ele>428.88999999999999</ele>
        <time>2017-05-21T14:57:04Z</time>
      </trkpt>
      <trkpt lat="51.599714001640677" lon="10.961154000833631">
        <ele>429.37</ele>
        <time>2017-05-21T14:57:05Z</time>
      </trkpt>
      <trkpt lat="51.599928997457027" lon="10.961085017770529">
        <ele>429.37</ele>
        <time>2017-05-21T14:57:06Z</time>
      </trkpt>
      <trkpt lat="51.600741958245635" lon="10.960906986147165">
        <ele>433.20999999999998</ele>
        <time>2017-05-21T14:57:11Z</time>
      </trkpt>
      <trkpt lat="51.600929964333773" lon="10.96098099835217">
        <ele>433.20999999999998</ele>
        <time>2017-05-21T14:57:12Z</time>
      </trkpt>
      <trkpt lat="51.601140014827251" lon="10.961134973913431">
        <ele>433.69</ele>
        <time>2017-05-21T14:57:13Z</time>
      </trkpt>
      <trkpt lat="51.602441975846887" lon="10.962081039324403">
        <ele>437.54000000000002</ele>
        <time>2017-05-21T14:57:18Z</time>
      </trkpt>
      <trkpt lat="51.60268203355372" lon="10.962319001555443">
        <ele>438.98000000000002</ele>
        <time>2017-05-21T14:57:19Z</time>
      </trkpt>
      <trkpt lat="51.60343699157238" lon="10.963035989552736">
        <ele>446.67000000000002</ele>
        <time>2017-05-21T14:57:23Z</time>
      </trkpt>
      <trkpt lat="51.603590967133641" lon="10.963083012029529">
        <ele>448.58999999999997</ele>
        <time>2017-05-21T14:57:24Z</time>
      </trkpt>
      <trkpt lat="51.603743014857173" lon="10.963076977059245">
        <ele>450.51999999999998</ele>
        <time>2017-05-21T14:57:25Z</time>
      </trkpt>
      <trkpt lat="51.603895984590054" lon="10.963016040623188">
        <ele>452.44</ele>
        <time>2017-05-21T14:57:26Z</time>
      </trkpt>
      <trkpt lat="51.604040991514921" lon="10.962882013991475">
        <ele>453.88</ele>
        <time>2017-05-21T14:57:27Z</time>
      </trkpt>
      <trkpt lat="51.604175018146634" lon="10.962699959054589">
        <ele>455.80000000000001</ele>
        <time>2017-05-21T14:57:28Z</time>
      </trkpt>
      <trkpt lat="51.604311978444457" lon="10.962469959631562">
        <ele>455.80000000000001</ele>
        <time>2017-05-21T14:57:29Z</time>
      </trkpt>
      <trkpt lat="51.604440975934267" lon="10.962277008220553">
        <ele>457.24000000000001</ele>
        <time>2017-05-21T14:57:30Z</time>
      </trkpt>
      <trkpt lat="51.604593023657799" lon="10.962129989638925">
        <ele>458.69</ele>
        <time>2017-05-21T14:57:31Z</time>
      </trkpt>
      <trkpt lat="51.604770971462131" lon="10.962030999362469">
        <ele>459.64999999999998</ele>
        <time>2017-05-21T14:57:32Z</time>
      </trkpt>
      <trkpt lat="51.604967024177313" lon="10.961994035169482">
        <ele>460.61000000000001</ele>
        <time>2017-05-21T14:57:33Z</time>
      </trkpt>
      <trkpt lat="51.605202974751592" lon="10.961971990764141">
        <ele>462.05000000000001</ele>
        <time>2017-05-21T14:57:34Z</time>
      </trkpt>
      <trkpt lat="51.606398988515139" lon="10.961935026571155">
        <ele>466.86000000000001</ele>
        <time>2017-05-21T14:57:39Z</time>
      </trkpt>
      <trkpt lat="51.60657299682498" lon="10.962004009634256">
        <ele>467.81999999999999</ele>
        <time>2017-05-21T14:57:40Z</time>
      </trkpt>
      <trkpt lat="51.606763014569879" lon="10.962136024609208">
        <ele>468.30000000000001</ele>
        <time>2017-05-21T14:57:41Z</time>
      </trkpt>
      <trkpt lat="51.60691699013114" lon="10.962331993505359">
        <ele>468.77999999999997</ele>
        <time>2017-05-21T14:57:42Z</time>
      </trkpt>
      <trkpt lat="51.607047999277711" lon="10.96263499930501">
        <ele>469.74000000000001</ele>
        <time>2017-05-21T14:57:43Z</time>
      </trkpt>
      <trkpt lat="51.607169033959508" lon="10.96293699927628">
        <ele>471.18000000000001</ele>
        <time>2017-05-21T14:57:44Z</time>
      </trkpt>
      <trkpt lat="51.607299959287047" lon="10.96321502700448">
        <ele>472.63</ele>
        <time>2017-05-21T14:57:45Z</time>
      </trkpt>
      <trkpt lat="51.607554014772177" lon="10.963692963123322">
        <ele>474.55000000000001</ele>
        <time>2017-05-21T14:57:47Z</time>
      </trkpt>
      <trkpt lat="51.607692986726761" lon="10.963853979483247">
        <ele>475.02999999999997</ele>
        <time>2017-05-21T14:57:48Z</time>
      </trkpt>
      <trkpt lat="51.607835981994867" lon="10.963975014165044">
        <ele>475.99000000000001</ele>
        <time>2017-05-21T14:57:49Z</time>
      </trkpt>
      <trkpt lat="51.607996998354793" lon="10.964006027206779">
        <ele>476.94999999999999</ele>
        <time>2017-05-21T14:57:50Z</time>
      </trkpt>
      <trkpt lat="51.60816103219986" lon="10.963970990851521">
        <ele>477.91000000000003</ele>
        <time>2017-05-21T14:57:51Z</time>
      </trkpt>
      <trkpt lat="51.608346020802855" lon="10.963820032775402">
        <ele>478.38999999999999</ele>
        <time>2017-05-21T14:57:52Z</time>
      </trkpt>
      <trkpt lat="51.608519023284316" lon="10.963620040565729">
        <ele>478.87</ele>
        <time>2017-05-21T14:57:53Z</time>
      </trkpt>
      <trkpt lat="51.608705017715693" lon="10.963376965373755">
        <ele>479.35000000000002</ele>
        <time>2017-05-21T14:57:54Z</time>
      </trkpt>
      <trkpt lat="51.609877981245518" lon="10.962044997140765">
        <ele>485.12</ele>
        <time>2017-05-21T14:58:00Z</time>
      </trkpt>
      <trkpt lat="51.610066993162036" lon="10.961996968835592">
        <ele>486.07999999999998</ele>
        <time>2017-05-21T14:58:01Z</time>
      </trkpt>
      <trkpt lat="51.610407968983054" lon="10.961918011307716">
        <ele>488.00999999999999</ele>
        <time>2017-05-21T14:58:03Z</time>
      </trkpt>
      <trkpt lat="51.610558005049825" lon="10.961833018809557">
        <ele>488.97000000000003</ele>
        <time>2017-05-21T14:58:04Z</time>
      </trkpt>
      <trkpt lat="51.610693959519267" lon="10.961736040189862">
        <ele>489.44999999999999</ele>
        <time>2017-05-21T14:58:05Z</time>
      </trkpt>
      <trkpt lat="51.610853970050812" lon="10.961545016616583">
        <ele>488.49000000000001</ele>
        <time>2017-05-21T14:58:06Z</time>
      </trkpt>
      <trkpt lat="51.610969975590706" lon="10.961307976394892">
        <ele>488.97000000000003</ele>
        <time>2017-05-21T14:58:07Z</time>
      </trkpt>
      <trkpt lat="51.611068965867162" lon="10.961080994457006">
        <ele>489.44999999999999</ele>
        <time>2017-05-21T14:58:08Z</time>
      </trkpt>
      <trkpt lat="51.611151024699211" lon="10.960833979770541">
        <ele>489.44999999999999</ele>
        <time>2017-05-21T14:58:09Z</time>
      </trkpt>
      <trkpt lat="51.612002039328218" lon="10.958899017423391">
        <ele>490.41000000000003</ele>
        <time>2017-05-21T14:58:19Z</time>
      </trkpt>
      <trkpt lat="51.612023999914527" lon="10.958837997168303">
        <ele>489.93000000000001</ele>
        <time>2017-05-21T14:58:20Z</time>
      </trkpt>
      <trkpt lat="51.61205199547112" lon="10.958806984126568">
        <ele>489.44999999999999</ele>
        <time>2017-05-21T14:58:21Z</time>
      </trkpt>
      <trkpt lat="51.612178981304169" lon="10.958586037158966">
        <ele>489.44999999999999</ele>
        <time>2017-05-21T14:58:27Z</time>
      </trkpt>
      <trkpt lat="51.612214017659426" lon="10.958451004698873">
        <ele>489.93000000000001</ele>
        <time>2017-05-21T14:58:28Z</time>
      </trkpt>
      <trkpt lat="51.612233966588974" lon="10.958270961418748">
        <ele>489.93000000000001</ele>
        <time>2017-05-21T14:58:29Z</time>
      </trkpt>
      <trkpt lat="51.61224503070116" lon="10.958054959774017">
        <ele>489.93000000000001</ele>
        <time>2017-05-21T14:58:30Z</time>
      </trkpt>
      <trkpt lat="51.612261040136218" lon="10.957805011421442">
        <ele>489.93000000000001</ele>
        <time>2017-05-21T14:58:31Z</time>
      </trkpt>
      <trkpt lat="51.612279983237386" lon="10.957527989521623">
        <ele>489.93000000000001</ele>
        <time>2017-05-21T14:58:32Z</time>
      </trkpt>
      <trkpt lat="51.612418033182621" lon="10.955786984413862">
        <ele>487.52999999999997</ele>
        <time>2017-05-21T14:58:37Z</time>
      </trkpt>
      <trkpt lat="51.612862022593617" lon="10.953158000484109">
        <ele>480.31999999999999</ele>
        <time>2017-05-21T14:58:43Z</time>
      </trkpt>
      <trkpt lat="51.613438026979566" lon="10.950992032885551">
        <ele>476.94999999999999</ele>
        <time>2017-05-21T14:58:49Z</time>
      </trkpt>
      <trkpt lat="51.613568030297756" lon="10.950807966291904">
        <ele>476.94999999999999</ele>
        <time>2017-05-21T14:58:50Z</time>
      </trkpt>
      <trkpt lat="51.613728040829301" lon="10.950674023479223">
        <ele>477.43000000000001</ele>
        <time>2017-05-21T14:58:51Z</time>
      </trkpt>
      <trkpt lat="51.613912023603916" lon="10.950580984354019">
        <ele>476.94999999999999</ele>
        <time>2017-05-21T14:58:52Z</time>
      </trkpt>
      <trkpt lat="51.61411402747035" lon="10.950522981584072">
        <ele>476.94999999999999</ele>
        <time>2017-05-21T14:58:53Z</time>
      </trkpt>
      <trkpt lat="51.614333968609571" lon="10.950504960492253">
        <ele>476.47000000000003</ele>
        <time>2017-05-21T14:58:54Z</time>
      </trkpt>
      <trkpt lat="51.614575032144785" lon="10.950508983805776">
        <ele>476.47000000000003</ele>
        <time>2017-05-21T14:58:55Z</time>
      </trkpt>
      <trkpt lat="51.616457020863891" lon="10.950570004060864">
        <ele>474.06999999999999</ele>
        <time>2017-05-21T14:59:03Z</time>
      </trkpt>
      <trkpt lat="51.616656007245183" lon="10.95049599185586">
        <ele>473.11000000000001</ele>
        <time>2017-05-21T14:59:04Z</time>
      </trkpt>
      <trkpt lat="51.616860022768378" lon="10.950385015457869">
        <ele>472.13999999999999</ele>
        <time>2017-05-21T14:59:05Z</time>
      </trkpt>
      <trkpt lat="51.617683963850141" lon="10.949857961386442">
        <ele>470.22000000000003</ele>
        <time>2017-05-21T14:59:10Z</time>
      </trkpt>
      <trkpt lat="51.617777002975345" lon="10.949721001088619">
        <ele>468.77999999999997</ele>
        <time>2017-05-21T14:59:11Z</time>
      </trkpt>
      <trkpt lat="51.617853026837111" lon="10.949555961415172">
        <ele>467.81999999999999</ele>
        <time>2017-05-21T14:59:12Z</time>
      </trkpt>
      <trkpt lat="51.617911029607058" lon="10.94937901943922">
        <ele>466.86000000000001</ele>
        <time>2017-05-21T14:59:13Z</time>
      </trkpt>
      <trkpt lat="51.617969032377005" lon="10.949202999472618">
        <ele>466.38</ele>
        <time>2017-05-21T14:59:14Z</time>
      </trkpt>
      <trkpt lat="51.618071962147951" lon="10.948893958702683">
        <ele>463.97000000000003</ele>
        <time>2017-05-21T14:59:16Z</time>
      </trkpt>
      <trkpt lat="51.618126025423408" lon="10.948784993961453">
        <ele>463.49000000000001</ele>
        <time>2017-05-21T14:59:17Z</time>
      </trkpt>
      <trkpt lat="51.618200959637761" lon="10.948709975928068">
        <ele>463.00999999999999</ele>
        <time>2017-05-21T14:59:18Z</time>
      </trkpt>
      <trkpt lat="51.618285030126572" lon="10.948676029220223">
        <ele>463.00999999999999</ele>
        <time>2017-05-21T14:59:19Z</time>
      </trkpt>
      <trkpt lat="51.618377985432744" lon="10.948640992864966">
        <ele>463.00999999999999</ele>
        <time>2017-05-21T14:59:20Z</time>
      </trkpt>
      <trkpt lat="51.618849970400333" lon="10.948495985940099">
        <ele>462.52999999999997</ele>
        <time>2017-05-21T14:59:25Z</time>
      </trkpt>
      <trkpt lat="51.618931023404002" lon="10.948446029797196">
        <ele>462.05000000000001</ele>
        <time>2017-05-21T14:59:26Z</time>
      </trkpt>
      <trkpt lat="51.619004029780626" lon="10.948378974571824">
        <ele>462.05000000000001</ele>
        <time>2017-05-21T14:59:27Z</time>
      </trkpt>
      <trkpt lat="51.61907896399498" lon="10.948304962366819">
        <ele>462.52999999999997</ele>
        <time>2017-05-21T14:59:28Z</time>
      </trkpt>
      <trkpt lat="51.619144007563591" lon="10.948229022324085">
        <ele>462.05000000000001</ele>
        <time>2017-05-21T14:59:29Z</time>
      </trkpt>
      <trkpt lat="51.620115973055363" lon="10.947393011301756">
        <ele>456.75999999999999</ele>
        <time>2017-05-21T14:59:42Z</time>
      </trkpt>
      <trkpt lat="51.6211829893291" lon="10.947221014648676">
        <ele>457.24000000000001</ele>
        <time>2017-05-21T14:59:54Z</time>
      </trkpt>
      <trkpt lat="51.621248032897711" lon="10.947136022150517">
        <ele>457.24000000000001</ele>
        <time>2017-05-21T14:59:55Z</time>
      </trkpt>
      <trkpt lat="51.621309975162148" lon="10.947035020217299">
        <ele>457.24000000000001</ele>
        <time>2017-05-21T14:59:56Z</time>
      </trkpt>
      <trkpt lat="51.621436960995197" lon="10.946841984987259">
        <ele>457.72000000000003</ele>
        <time>2017-05-21T14:59:58Z</time>
      </trkpt>
      <trkpt lat="51.621508039534092" lon="10.94678096473217">
        <ele>457.72000000000003</ele>
        <time>2017-05-21T14:59:59Z</time>
      </trkpt>
      <trkpt lat="51.621592026203871" lon="10.946753975003958">
        <ele>458.20999999999998</ele>
        <time>2017-05-21T15:00:00Z</time>
      </trkpt>
      <trkpt lat="51.621878016740084" lon="10.946708964183927">
        <ele>457.72000000000003</ele>
        <time>2017-05-21T15:00:03Z</time>
      </trkpt>
      <trkpt lat="51.621982958167791" lon="10.946722961962223">
        <ele>457.72000000000003</ele>
        <time>2017-05-21T15:00:04Z</time>
      </trkpt>
      <trkpt lat="51.622208012267947" lon="10.9467569924891">
        <ele>458.69</ele>
        <time>2017-05-21T15:00:06Z</time>
      </trkpt>
      <trkpt lat="51.622327035292983" lon="10.946741988882422">
        <ele>458.69</ele>
        <time>2017-05-21T15:00:07Z</time>
      </trkpt>
      <trkpt lat="51.622440023347735" lon="10.946683986112475">
        <ele>458.69</ele>
        <time>2017-05-21T15:00:08Z</time>
      </trkpt>
      <trkpt lat="51.622532978653908" lon="10.946579966694117">
        <ele>459.17000000000002</ele>
        <time>2017-05-21T15:00:09Z</time>
      </trkpt>
      <trkpt lat="51.622614031657577" lon="10.946402018889785">
        <ele>460.13</ele>
        <time>2017-05-21T15:00:10Z</time>
      </trkpt>
      <trkpt lat="51.622670022770762" lon="10.946162967011333">
        <ele>460.61000000000001</ele>
        <time>2017-05-21T15:00:11Z</time>
      </trkpt>
      <trkpt lat="51.622720984742045" lon="10.945879993960261">
        <ele>461.56999999999999</ele>
        <time>2017-05-21T15:00:12Z</time>
      </trkpt>
      <trkpt lat="51.623122980818152" lon="10.943463994190097">
        <ele>468.30000000000001</ele>
        <time>2017-05-21T15:00:19Z</time>
      </trkpt>
      <trkpt lat="51.623197998851538" lon="10.943173980340362">
        <ele>469.74000000000001</ele>
        <time>2017-05-21T15:00:20Z</time>
      </trkpt>
      <trkpt lat="51.623303024098277" lon="10.94291397370398">
        <ele>470.69999999999999</ele>
        <time>2017-05-21T15:00:21Z</time>
      </trkpt>
      <trkpt lat="51.623579040169716" lon="10.942420028150082">
        <ele>472.63</ele>
        <time>2017-05-21T15:00:23Z</time>
      </trkpt>
      <trkpt lat="51.624809000641108" lon="10.940776001662016">
        <ele>478.38999999999999</ele>
        <time>2017-05-21T15:00:31Z</time>
      </trkpt>
      <trkpt lat="51.626292010769248" lon="10.937898997217417">
        <ele>489.93000000000001</ele>
        <time>2017-05-21T15:00:42Z</time>
      </trkpt>
      <trkpt lat="51.627775020897388" lon="10.935209998860955">
        <ele>500.5</ele>
        <time>2017-05-21T15:00:53Z</time>
      </trkpt>
      <trkpt lat="51.628224039450288" lon="10.934451017528772">
        <ele>502.91000000000003</ele>
        <time>2017-05-21T15:00:57Z</time>
      </trkpt>
      <trkpt lat="51.628347001969814" lon="10.934311039745808">
        <ele>502.91000000000003</ele>
        <time>2017-05-21T15:00:58Z</time>
      </trkpt>
      <trkpt lat="51.628497038036585" lon="10.934202997013927">
        <ele>503.38999999999999</ele>
        <time>2017-05-21T15:00:59Z</time>
      </trkpt>
      <trkpt lat="51.629359032958746" lon="10.933785997331142">
        <ele>504.82999999999998</ele>
        <time>2017-05-21T15:01:03Z</time>
      </trkpt>
      <trkpt lat="51.630798038095236" lon="10.93283599242568">
        <ele>502.43000000000001</ele>
        <time>2017-05-21T15:01:09Z</time>
      </trkpt>
      <trkpt lat="51.631243033334613" lon="10.932510020211339">
        <ele>501.45999999999998</ele>
        <time>2017-05-21T15:01:11Z</time>
      </trkpt>
      <trkpt lat="51.631463980302215" lon="10.932401977479458">
        <ele>500.98000000000002</ele>
        <time>2017-05-21T15:01:12Z</time>
      </trkpt>
      <trkpt lat="51.631700014695525" lon="10.93234196305275">
        <ele>500.5</ele>
        <time>2017-05-21T15:01:13Z</time>
      </trkpt>
      <trkpt lat="51.631939988583326" lon="10.932341041043401">
        <ele>500.01999999999998</ele>
        <time>2017-05-21T15:01:14Z</time>
      </trkpt>
      <trkpt lat="51.632202006876469" lon="10.932375993579626">
        <ele>499.54000000000002</ele>
        <time>2017-05-21T15:01:15Z</time>
      </trkpt>
      <trkpt lat="51.632486991584301" lon="10.932429973036051">
        <ele>499.54000000000002</ele>
        <time>2017-05-21T15:01:16Z</time>
      </trkpt>
      <trkpt lat="51.634184997528791" lon="10.932763991877437">
        <ele>500.01999999999998</ele>
        <time>2017-05-21T15:01:23Z</time>
      </trkpt>
      <trkpt lat="51.635452006012201" lon="10.932944035157561">
        <ele>494.74000000000001</ele>
        <time>2017-05-21T15:01:32Z</time>
      </trkpt>
      <trkpt lat="51.636189026758075" lon="10.933005977421999">
        <ele>492.81</ele>
        <time>2017-05-21T15:01:38Z</time>
      </trkpt>
      <trkpt lat="51.636312995105982" lon="10.932977981865406">
        <ele>492.32999999999998</ele>
        <time>2017-05-21T15:01:39Z</time>
      </trkpt>
      <trkpt lat="51.636433023959398" lon="10.932924002408981">
        <ele>491.37</ele>
        <time>2017-05-21T15:01:40Z</time>
      </trkpt>
      <trkpt lat="51.636546012014151" lon="10.932842027395964">
        <ele>490.88999999999999</ele>
        <time>2017-05-21T15:01:41Z</time>
      </trkpt>
      <trkpt lat="51.63665103726089" lon="10.932728033512831">
        <ele>489.93000000000001</ele>
        <time>2017-05-21T15:01:42Z</time>
      </trkpt>
      <trkpt lat="51.636746004223824" lon="10.932593001052737">
        <ele>489.44999999999999</ele>
        <time>2017-05-21T15:01:43Z</time>
      </trkpt>
      <trkpt lat="51.636840971186757" lon="10.932442964985967">
        <ele>488.49000000000001</ele>
        <time>2017-05-21T15:01:44Z</time>
      </trkpt>
      <trkpt lat="51.637668013572693" lon="10.931560015305877">
        <ele>479.83999999999997</ele>
        <time>2017-05-21T15:01:50Z</time>
      </trkpt>
      <trkpt lat="51.638529002666473" lon="10.930920979008079">
        <ele>472.13999999999999</ele>
        <time>2017-05-21T15:01:55Z</time>
      </trkpt>
      <trkpt lat="51.638667974621058" lon="10.930878985673189">
        <ele>470.22000000000003</ele>
        <time>2017-05-21T15:01:56Z</time>
      </trkpt>
      <trkpt lat="51.638796972110868" lon="10.930890971794724">
        <ele>469.25999999999999</ele>
        <time>2017-05-21T15:01:57Z</time>
      </trkpt>
      <trkpt lat="51.638904009014368" lon="10.930975964292884">
        <ele>467.81999999999999</ele>
        <time>2017-05-21T15:01:58Z</time>
      </trkpt>
      <trkpt lat="51.639011967927217" lon="10.931110996752977">
        <ele>466.38</ele>
        <time>2017-05-21T15:01:59Z</time>
      </trkpt>
      <trkpt lat="51.639108024537563" lon="10.931306965649128">
        <ele>464.93000000000001</ele>
        <time>2017-05-21T15:02:00Z</time>
      </trkpt>
      <trkpt lat="51.63920902647078" lon="10.931529002264142">
        <ele>463.49000000000001</ele>
        <time>2017-05-21T15:02:01Z</time>
      </trkpt>
      <trkpt lat="51.639710012823343" lon="10.932861976325512">
        <ele>458.69</ele>
        <time>2017-05-21T15:02:06Z</time>
      </trkpt>
      <trkpt lat="51.639781007543206" lon="10.933152996003628">
        <ele>459.17000000000002</ele>
        <time>2017-05-21T15:02:07Z</time>
      </trkpt>
      <trkpt lat="51.639825012534857" lon="10.93345700763166">
        <ele>458.20999999999998</ele>
        <time>2017-05-21T15:02:08Z</time>
      </trkpt>
      <trkpt lat="51.639847978949547" lon="10.933773005381227">
        <ele>457.24000000000001</ele>
        <time>2017-05-21T15:02:09Z</time>
      </trkpt>
      <trkpt lat="51.639855019748211" lon="10.934097971767187">
        <ele>455.80000000000001</ele>
        <time>2017-05-21T15:02:10Z</time>
      </trkpt>
      <trkpt lat="51.63985401391983" lon="10.934410030022264">
        <ele>454.83999999999997</ele>
        <time>2017-05-21T15:02:11Z</time>
      </trkpt>
      <trkpt lat="51.639844961464405" lon="10.934708006680012">
        <ele>453.88</ele>
        <time>2017-05-21T15:02:12Z</time>
      </trkpt>
      <trkpt lat="51.639798022806644" lon="10.935269007459283">
        <ele>452.44</ele>
        <time>2017-05-21T15:02:14Z</time>
      </trkpt>
      <trkpt lat="51.639719987288117" lon="10.935745015740395">
        <ele>450.51999999999998</ele>
        <time>2017-05-21T15:02:16Z</time>
      </trkpt>
      <trkpt lat="51.639686040580273" lon="10.935936039313674">
        <ele>450.02999999999997</ele>
        <time>2017-05-21T15:02:17Z</time>
      </trkpt>
      <trkpt lat="51.639657039195299" lon="10.936246002092957">
        <ele>448.58999999999997</ele>
        <time>2017-05-21T15:02:19Z</time>
      </trkpt>
      <trkpt lat="51.639685034751892" lon="10.936364019289613">
        <ele>448.11000000000001</ele>
        <time>2017-05-21T15:02:20Z</time>
      </trkpt>
      <trkpt lat="51.639729039743543" lon="10.936468038707972">
        <ele>448.11000000000001</ele>
        <time>2017-05-21T15:02:21Z</time>
      </trkpt>
      <trkpt lat="51.639787964522839" lon="10.936532998457551">
        <ele>448.11000000000001</ele>
        <time>2017-05-21T15:02:22Z</time>
      </trkpt>
      <trkpt lat="51.639843033626676" lon="10.936584966257215">
        <ele>448.11000000000001</ele>
        <time>2017-05-21T15:02:23Z</time>
      </trkpt>
      <trkpt lat="51.639908999204636" lon="10.936613967642188">
        <ele>448.11000000000001</ele>
        <time>2017-05-21T15:02:24Z</time>
      </trkpt>
      <trkpt lat="51.639985023066401" lon="10.936645986512303">
        <ele>448.11000000000001</ele>
        <time>2017-05-21T15:02:25Z</time>
      </trkpt>
      <trkpt lat="51.640264978632331" lon="10.936707006767392">
        <ele>448.58999999999997</ele>
        <time>2017-05-21T15:02:30Z</time>
      </trkpt>
      <trkpt lat="51.640287023037672" lon="10.93663802370429">
        <ele>448.11000000000001</ele>
        <time>2017-05-21T15:02:31Z</time>
      </trkpt>
      <trkpt lat="51.640309989452362" lon="10.936532998457551">
        <ele>447.63</ele>
        <time>2017-05-21T15:02:32Z</time>
      </trkpt>
      <trkpt lat="51.640333961695433" lon="10.936386985704303">
        <ele>447.14999999999998</ele>
        <time>2017-05-21T15:02:33Z</time>
      </trkpt>
      <trkpt lat="51.640367992222309" lon="10.93620995990932">
        <ele>447.14999999999998</ele>
        <time>2017-05-21T15:02:34Z</time>
      </trkpt>
      <trkpt lat="51.640687007457018" lon="10.934408018365502">
        <ele>447.63</ele>
        <time>2017-05-21T15:02:41Z</time>
      </trkpt>
      <trkpt lat="51.640946008265018" lon="10.93234196305275">
        <ele>447.63</ele>
        <time>2017-05-21T15:02:48Z</time>
      </trkpt>
      <trkpt lat="51.641261000186205" lon="10.930826012045145">
        <ele>448.11000000000001</ele>
        <time>2017-05-21T15:02:54Z</time>
      </trkpt>
      <trkpt lat="51.641348004341125" lon="10.930634988471866">
        <ele>449.06999999999999</ele>
        <time>2017-05-21T15:02:55Z</time>
      </trkpt>
      <trkpt lat="51.641470966860652" lon="10.930469026789069">
        <ele>449.55000000000001</ele>
        <time>2017-05-21T15:02:56Z</time>
      </trkpt>
      <trkpt lat="51.641632989048958" lon="10.930373976007104">
        <ele>451.48000000000002</ele>
        <time>2017-05-21T15:02:57Z</time>
      </trkpt>
      <trkpt lat="51.641803979873657" lon="10.930284960195422">
        <ele>452.44</ele>
        <time>2017-05-21T15:02:58Z</time>
      </trkpt>
      <trkpt lat="51.641985028982162" lon="10.930208014324307">
        <ele>453.39999999999998</ele>
        <time>2017-05-21T15:02:59Z</time>
      </trkpt>
      <trkpt lat="51.643209960311651" lon="10.929416008293629">
        <ele>458.69</ele>
        <time>2017-05-21T15:03:06Z</time>
      </trkpt>
      <trkpt lat="51.643352033570409" lon="10.929241999983788">
        <ele>459.64999999999998</ele>
        <time>2017-05-21T15:03:07Z</time>
      </trkpt>
      <trkpt lat="51.643496034666896" lon="10.929038990288973">
        <ele>460.61000000000001</ele>
        <time>2017-05-21T15:03:08Z</time>
      </trkpt>
      <trkpt lat="51.643902976065874" lon="10.928330970928073">
        <ele>462.52999999999997</ele>
        <time>2017-05-21T15:03:11Z</time>
      </trkpt>
      <trkpt lat="51.644000960513949" lon="10.928073981776834">
        <ele>463.00999999999999</ele>
        <time>2017-05-21T15:03:12Z</time>
      </trkpt>
      <trkpt lat="51.644175974652171" lon="10.927547011524439">
        <ele>464.44999999999999</ele>
        <time>2017-05-21T15:03:14Z</time>
      </trkpt>
      <trkpt lat="51.644292986020446" lon="10.927290022373199">
        <ele>465.42000000000002</ele>
        <time>2017-05-21T15:03:15Z</time>
      </trkpt>
      <trkpt lat="51.644938979297876" lon="10.92613197863102">
        <ele>465.89999999999998</ele>
        <time>2017-05-21T15:03:20Z</time>
      </trkpt>
      <trkpt lat="51.645093960687518" lon="10.9259810205549">
        <ele>466.38</ele>
        <time>2017-05-21T15:03:21Z</time>
      </trkpt>
      <trkpt lat="51.645401995629072" lon="10.925694024190307">
        <ele>465.42000000000002</ele>
        <time>2017-05-21T15:03:23Z</time>
      </trkpt>
      <trkpt lat="51.64552696980536" lon="10.92548699118197">
        <ele>464.93000000000001</ele>
        <time>2017-05-21T15:03:24Z</time>
      </trkpt>
      <trkpt lat="51.645625038072467" lon="10.925220027565956">
        <ele>465.89999999999998</ele>
        <time>2017-05-21T15:03:25Z</time>
      </trkpt>
      <trkpt lat="51.645927960053086" lon="10.924037005752325">
        <ele>466.86000000000001</ele>
        <time>2017-05-21T15:03:29Z</time>
      </trkpt>
      <trkpt lat="51.645961990579963" lon="10.92372503131628">
        <ele>467.33999999999997</ele>
        <time>2017-05-21T15:03:30Z</time>
      </trkpt>
      <trkpt lat="51.646053018048406" lon="10.922855995595455">
        <ele>468.30000000000001</ele>
        <time>2017-05-21T15:03:33Z</time>
      </trkpt>
      <trkpt lat="51.646144967526197" lon="10.92258702032268">
        <ele>469.25999999999999</ele>
        <time>2017-05-21T15:03:34Z</time>
      </trkpt>
      <trkpt lat="51.646261978894472" lon="10.922336988151073">
        <ele>470.69999999999999</ele>
        <time>2017-05-21T15:03:35Z</time>
      </trkpt>
      <trkpt lat="51.646402040496469" lon="10.922118974849582">
        <ele>472.13999999999999</ele>
        <time>2017-05-21T15:03:36Z</time>
      </trkpt>
      <trkpt lat="51.646551992744207" lon="10.921956030651927">
        <ele>472.63</ele>
        <time>2017-05-21T15:03:37Z</time>
      </trkpt>
      <trkpt lat="51.646734969690442" lon="10.921866009011865">
        <ele>473.58999999999997</ele>
        <time>2017-05-21T15:03:38Z</time>
      </trkpt>
      <trkpt lat="51.646926999092102" lon="10.921829966828227">
        <ele>473.58999999999997</ele>
        <time>2017-05-21T15:03:39Z</time>
      </trkpt>
      <trkpt lat="51.647136965766549" lon="10.921827033162117">
        <ele>474.55000000000001</ele>
        <time>2017-05-21T15:03:40Z</time>
      </trkpt>
      <trkpt lat="51.647721016779542" lon="10.921841030940413">
        <ele>479.83999999999997</ele>
        <time>2017-05-21T15:03:43Z</time>
      </trkpt>
      <trkpt lat="51.647887984290719" lon="10.921783028170466">
        <ele>480.80000000000001</ele>
        <time>2017-05-21T15:03:44Z</time>
      </trkpt>
      <trkpt lat="51.64803902618587" lon="10.921714967116714">
        <ele>482.24000000000001</ele>
        <time>2017-05-21T15:03:45Z</time>
      </trkpt>
      <trkpt lat="51.648807981982827" lon="10.921119013801217">
        <ele>488.00999999999999</ele>
        <time>2017-05-21T15:03:51Z</time>
      </trkpt>
      <trkpt lat="51.648917030543089" lon="10.921118007972836">
        <ele>488.97000000000003</ele>
        <time>2017-05-21T15:03:52Z</time>
      </trkpt>
      <trkpt lat="51.649033958092332" lon="10.921177016571164">
        <ele>490.41000000000003</ele>
        <time>2017-05-21T15:03:53Z</time>
      </trkpt>
      <trkpt lat="51.649133032187819" lon="10.921296961605549">
        <ele>492.32999999999998</ele>
        <time>2017-05-21T15:03:54Z</time>
      </trkpt>
      <trkpt lat="51.649226993322372" lon="10.921445991843939">
        <ele>493.76999999999998</ele>
        <time>2017-05-21T15:03:55Z</time>
      </trkpt>
      <trkpt lat="51.649350039660931" lon="10.921613965183496">
        <ele>494.25999999999999</ele>
        <time>2017-05-21T15:03:56Z</time>
      </trkpt>
      <trkpt lat="51.649482976645231" lon="10.921768024563789">
        <ele>494.74000000000001</ele>
        <time>2017-05-21T15:03:57Z</time>
      </trkpt>
      <trkpt lat="51.649648016318679" lon="10.921879000961781">
        <ele>495.69999999999999</ele>
        <time>2017-05-21T15:03:58Z</time>
      </trkpt>
      <trkpt lat="51.649827975779772" lon="10.921982014551759">
        <ele>496.18000000000001</ele>
        <time>2017-05-21T15:03:59Z</time>
      </trkpt>
      <trkpt lat="51.650650994852185" lon="10.922545026987791">
        <ele>499.06</ele>
        <time>2017-05-21T15:04:04Z</time>
      </trkpt>
      <trkpt lat="51.650772029533982" lon="10.922686010599136">
        <ele>500.01999999999998</ele>
        <time>2017-05-21T15:04:05Z</time>
      </trkpt>
      <trkpt lat="51.650861967355013" lon="10.922891031950712">
        <ele>500.98000000000002</ele>
        <time>2017-05-21T15:04:06Z</time>
      </trkpt>
      <trkpt lat="51.651329006999731" lon="10.924152005463839">
        <ele>504.35000000000002</ele>
        <time>2017-05-21T15:04:11Z</time>
      </trkpt>
      <trkpt lat="51.651467978954315" lon="10.924354009330273">
        <ele>505.31</ele>
        <time>2017-05-21T15:04:12Z</time>
      </trkpt>
      <trkpt lat="51.65162899531424" lon="10.924515025690198">
        <ele>505.31</ele>
        <time>2017-05-21T15:04:13Z</time>
      </trkpt>
      <trkpt lat="51.651811972260475" lon="10.924615021795034">
        <ele>505.31</ele>
        <time>2017-05-21T15:04:14Z</time>
      </trkpt>
      <trkpt lat="51.652020011097193" lon="10.92464704066515">
        <ele>505.79000000000002</ele>
        <time>2017-05-21T15:04:15Z</time>
      </trkpt>
      <trkpt lat="51.65222997777164" lon="10.924658020958304">
        <ele>505.79000000000002</ele>
        <time>2017-05-21T15:04:16Z</time>
      </trkpt>
      <trkpt lat="51.652451008558273" lon="10.924648968502879">
        <ele>506.26999999999998</ele>
        <time>2017-05-21T15:04:17Z</time>
      </trkpt>
      <trkpt lat="51.654159994795918" lon="10.924189975485206">
        <ele>511.07999999999998</ele>
        <time>2017-05-21T15:04:24Z</time>
      </trkpt>
      <trkpt lat="51.655631018802524" lon="10.92303603887558">
        <ele>508.67000000000002</ele>
        <time>2017-05-21T15:04:30Z</time>
      </trkpt>
      <trkpt lat="51.656678002327681" lon="10.921480022370815">
        <ele>512.51999999999998</ele>
        <time>2017-05-21T15:04:35Z</time>
      </trkpt>
      <trkpt lat="51.656841030344367" lon="10.921121025457978">
        <ele>512.51999999999998</ele>
        <time>2017-05-21T15:04:36Z</time>
      </trkpt>
      <trkpt lat="51.657308991998434" lon="10.920127015560865">
        <ele>513</ele>
        <time>2017-05-21T15:04:39Z</time>
      </trkpt>
      <trkpt lat="51.657491968944669" lon="10.919881006702781">
        <ele>513</ele>
        <time>2017-05-21T15:04:40Z</time>
      </trkpt>
      <trkpt lat="51.657691961154342" lon="10.919691994786263">
        <ele>513.48000000000002</ele>
        <time>2017-05-21T15:04:41Z</time>
      </trkpt>
      <trkpt lat="51.657922966405749" lon="10.919576995074749">
        <ele>513.96000000000004</ele>
        <time>2017-05-21T15:04:42Z</time>
      </trkpt>
      <trkpt lat="51.65815900079906" lon="10.919484961777925">
        <ele>514.44000000000005</ele>
        <time>2017-05-21T15:04:43Z</time>
      </trkpt>
      <trkpt lat="51.658396041020751" lon="10.919427964836359">
        <ele>515.39999999999998</ele>
        <time>2017-05-21T15:04:44Z</time>
      </trkpt>
      <trkpt lat="51.658638026565313" lon="10.919427964836359">
        <ele>515.88</ele>
        <time>2017-05-21T15:04:45Z</time>
      </trkpt>
      <trkpt lat="51.658881017938256" lon="10.919424025341868">
        <ele>517.80999999999995</ele>
        <time>2017-05-21T15:04:46Z</time>
      </trkpt>
      <trkpt lat="51.660339972004294" lon="10.919438023120165">
        <ele>518.28999999999996</ele>
        <time>2017-05-21T15:04:53Z</time>
      </trkpt>
      <trkpt lat="51.660533007234335" lon="10.919348001480103">
        <ele>518.28999999999996</ele>
        <time>2017-05-21T15:04:54Z</time>
      </trkpt>
      <trkpt lat="51.66071598418057" lon="10.91921104118228">
        <ele>517.80999999999995</ele>
        <time>2017-05-21T15:04:55Z</time>
      </trkpt>
      <trkpt lat="51.660884963348508" lon="10.919011970981956">
        <ele>517.33000000000004</ele>
        <time>2017-05-21T15:04:56Z</time>
      </trkpt>
      <trkpt lat="51.661051008850336" lon="10.918753976002336">
        <ele>517.33000000000004</ele>
        <time>2017-05-21T15:04:57Z</time>
      </trkpt>
      <trkpt lat="51.661206996068358" lon="10.91846002265811">
        <ele>517.33000000000004</ele>
        <time>2017-05-21T15:04:58Z</time>
      </trkpt>
      <trkpt lat="51.661341022700071" lon="10.918132960796356">
        <ele>516.37</ele>
        <time>2017-05-21T15:04:59Z</time>
      </trkpt>
      <trkpt lat="51.661453004926443" lon="10.917758960276842">
        <ele>516.85000000000002</ele>
        <time>2017-05-21T15:05:00Z</time>
      </trkpt>
      <trkpt lat="51.661556018516421" lon="10.917370961979032">
        <ele>516.37</ele>
        <time>2017-05-21T15:05:01Z</time>
      </trkpt>
      <trkpt lat="51.662321034818888" lon="10.914482977241278">
        <ele>518.76999999999998</ele>
        <time>2017-05-21T15:05:08Z</time>
      </trkpt>
      <trkpt lat="51.662395969033241" lon="10.914065977558494">
        <ele>519.73000000000002</ele>
        <time>2017-05-21T15:05:09Z</time>
      </trkpt>
      <trkpt lat="51.662619011476636" lon="10.912479031831026">
        <ele>520.69000000000005</ele>
        <time>2017-05-21T15:05:13Z</time>
      </trkpt>
      <trkpt lat="51.662718001753092" lon="10.912112994119525">
        <ele>521.16999999999996</ele>
        <time>2017-05-21T15:05:14Z</time>
      </trkpt>
      <trkpt lat="51.66284398175776" lon="10.911774029955268">
        <ele>520.69000000000005</ele>
        <time>2017-05-21T15:05:15Z</time>
      </trkpt>
      <trkpt lat="51.663136007264256" lon="10.91077197343111">
        <ele>519.25</ele>
        <time>2017-05-21T15:05:18Z</time>
      </trkpt>
      <trkpt lat="51.663184035569429" lon="10.91040400788188">
        <ele>518.28999999999996</ele>
        <time>2017-05-21T15:05:19Z</time>
      </trkpt>
      <trkpt lat="51.6632080078125" lon="10.910013997927308">
        <ele>516.85000000000002</ele>
        <time>2017-05-21T15:05:20Z</time>
      </trkpt>
      <trkpt lat="51.663205996155739" lon="10.909273959696293">
        <ele>513.96000000000004</ele>
        <time>2017-05-21T15:05:22Z</time>
      </trkpt>
      <trkpt lat="51.663166014477611" lon="10.908939018845558">
        <ele>512.51999999999998</ele>
        <time>2017-05-21T15:05:23Z</time>
      </trkpt>
      <trkpt lat="51.663092002272606" lon="10.908630983904004">
        <ele>511.56</ele>
        <time>2017-05-21T15:05:24Z</time>
      </trkpt>
      <trkpt lat="51.662980020046234" lon="10.908324960619211">
        <ele>509.63999999999999</ele>
        <time>2017-05-21T15:05:25Z</time>
      </trkpt>
      <trkpt lat="51.662838030606508" lon="10.908014997839928">
        <ele>508.67000000000002</ele>
        <time>2017-05-21T15:05:26Z</time>
      </trkpt>
      <trkpt lat="51.662689000368118" lon="10.907711992040277">
        <ele>507.23000000000002</ele>
        <time>2017-05-21T15:05:27Z</time>
      </trkpt>
      <trkpt lat="51.661993972957134" lon="10.906242979690433">
        <ele>501.94999999999999</ele>
        <time>2017-05-21T15:05:33Z</time>
      </trkpt>
      <trkpt lat="51.661962037906051" lon="10.906058996915817">
        <ele>501.45999999999998</ele>
        <time>2017-05-21T15:05:34Z</time>
      </trkpt>
      <trkpt lat="51.661978969350457" lon="10.905896974727511">
        <ele>500.98000000000002</ele>
        <time>2017-05-21T15:05:35Z</time>
      </trkpt>
      <trkpt lat="51.662048036232591" lon="10.905738975852728">
        <ele>500.98000000000002</ele>
        <time>2017-05-21T15:05:36Z</time>
      </trkpt>
      <trkpt lat="51.662137974053621" lon="10.905561028048396">
        <ele>500.01999999999998</ele>
        <time>2017-05-21T15:05:37Z</time>
      </trkpt>
      <trkpt lat="51.662242999300361" lon="10.905362963676453">
        <ele>499.06</ele>
        <time>2017-05-21T15:05:38Z</time>
      </trkpt>
      <trkpt lat="51.663063000887632" lon="10.903693037107587">
        <ele>492.32999999999998</ele>
        <time>2017-05-21T15:05:45Z</time>
      </trkpt>
      <trkpt lat="51.663088984787464" lon="10.903459014371037">
        <ele>490.88999999999999</ele>
        <time>2017-05-21T15:05:46Z</time>
      </trkpt>
      <trkpt lat="51.663094013929367" lon="10.903204958885908">
        <ele>489.93000000000001</ele>
        <time>2017-05-21T15:05:47Z</time>
      </trkpt>
      <trkpt lat="51.663066018372774" lon="10.902942018583417">
        <ele>489.44999999999999</ele>
        <time>2017-05-21T15:05:48Z</time>
      </trkpt>
      <trkpt lat="51.663001980632544" lon="10.902672959491611">
        <ele>488.49000000000001</ele>
        <time>2017-05-21T15:05:49Z</time>
      </trkpt>
      <trkpt lat="51.662921011447906" lon="10.902394009754062">
        <ele>487.05000000000001</ele>
        <time>2017-05-21T15:05:50Z</time>
      </trkpt>
      <trkpt lat="51.662856973707676" lon="10.902105001732707">
        <ele>486.07999999999998</ele>
        <time>2017-05-21T15:05:51Z</time>
      </trkpt>
      <trkpt lat="51.662822021171451" lon="10.90180903673172">
        <ele>485.12</ele>
        <time>2017-05-21T15:05:52Z</time>
      </trkpt>
      <trkpt lat="51.662814980372787" lon="10.901522040367126">
        <ele>484.16000000000003</ele>
        <time>2017-05-21T15:05:53Z</time>
      </trkpt>
      <trkpt lat="51.662839958444238" lon="10.901239989325404">
        <ele>484.16000000000003</ele>
        <time>2017-05-21T15:05:54Z</time>
      </trkpt>
      <trkpt lat="51.662899972870946" lon="10.900975959375501">
        <ele>482.72000000000003</ele>
        <time>2017-05-21T15:05:55Z</time>
      </trkpt>
      <trkpt lat="51.66299301199615" lon="10.900712013244629">
        <ele>482.24000000000001</ele>
        <time>2017-05-21T15:05:56Z</time>
      </trkpt>
      <trkpt lat="51.663127038627863" lon="10.900440020486712">
        <ele>481.75999999999999</ele>
        <time>2017-05-21T15:05:57Z</time>
      </trkpt>
      <trkpt lat="51.663259975612164" lon="10.900167021900415">
        <ele>480.80000000000001</ele>
        <time>2017-05-21T15:05:58Z</time>
      </trkpt>
      <trkpt lat="51.664382982999086" lon="10.897653037682176">
        <ele>478.87</ele>
        <time>2017-05-21T15:06:06Z</time>
      </trkpt>
      <trkpt lat="51.664848010987043" lon="10.896205985918641">
        <ele>478.38999999999999</ele>
        <time>2017-05-21T15:06:11Z</time>
      </trkpt>
      <trkpt lat="51.665188986808062" lon="10.89508599601686">
        <ele>480.31999999999999</ele>
        <time>2017-05-21T15:06:17Z</time>
      </trkpt>
      <trkpt lat="51.665688967332244" lon="10.893445992842317">
        <ele>481.75999999999999</ele>
        <time>2017-05-21T15:06:27Z</time>
      </trkpt>
      <trkpt lat="51.665976969525218" lon="10.892131961882114">
        <ele>480.80000000000001</ele>
        <time>2017-05-21T15:06:35Z</time>
      </trkpt>
      <trkpt lat="51.666034972295165" lon="10.891988966614008">
        <ele>480.31999999999999</ele>
        <time>2017-05-21T15:06:36Z</time>
      </trkpt>
      <trkpt lat="51.666283998638391" lon="10.891422014683485">
        <ele>479.83999999999997</ele>
        <time>2017-05-21T15:06:40Z</time>
      </trkpt>
      <trkpt lat="51.666320040822029" lon="10.891272984445095">
        <ele>479.35000000000002</ele>
        <time>2017-05-21T15:06:41Z</time>
      </trkpt>
      <trkpt lat="51.666340995579958" lon="10.891120014712214">
        <ele>479.35000000000002</ele>
        <time>2017-05-21T15:06:42Z</time>
      </trkpt>
      <trkpt lat="51.66634501889348" lon="10.890967966988683">
        <ele>479.35000000000002</ele>
        <time>2017-05-21T15:06:43Z</time>
      </trkpt>
      <trkpt lat="51.666337978094816" lon="10.890813991427422">
        <ele>478.87</ele>
        <time>2017-05-21T15:06:44Z</time>
      </trkpt>
      <trkpt lat="51.666322974488139" lon="10.890664961189032">
        <ele>478.38999999999999</ele>
        <time>2017-05-21T15:06:45Z</time>
      </trkpt>
      <trkpt lat="51.666303025558591" lon="10.890518026426435">
        <ele>477.91000000000003</ele>
        <time>2017-05-21T15:06:46Z</time>
      </trkpt>
      <trkpt lat="51.66625801473856" lon="10.888736033812165">
        <ele>472.63</ele>
        <time>2017-05-21T15:06:57Z</time>
      </trkpt>
      <trkpt lat="51.666287016123533" lon="10.888582980260253">
        <ele>472.63</ele>
        <time>2017-05-21T15:06:58Z</time>
      </trkpt>
      <trkpt lat="51.666334038600326" lon="10.888438979163766">
        <ele>471.66000000000003</ele>
        <time>2017-05-21T15:06:59Z</time>
      </trkpt>
      <trkpt lat="51.666406961157918" lon="10.888299001380801">
        <ele>471.66000000000003</ele>
        <time>2017-05-21T15:07:00Z</time>
      </trkpt>
      <trkpt lat="51.666491031646729" lon="10.888176038861275">
        <ele>471.18000000000001</ele>
        <time>2017-05-21T15:07:01Z</time>
      </trkpt>
      <trkpt lat="51.666569989174604" lon="10.888041006401181">
        <ele>470.69999999999999</ele>
        <time>2017-05-21T15:07:02Z</time>
      </trkpt>
      <trkpt lat="51.666699992492795" lon="10.887749986723065">
        <ele>470.22000000000003</ele>
        <time>2017-05-21T15:07:04Z</time>
      </trkpt>
      <trkpt lat="51.666742991656065" lon="10.887598022818565">
        <ele>469.74000000000001</ele>
        <time>2017-05-21T15:07:05Z</time>
      </trkpt>
      <trkpt lat="51.666940972208977" lon="10.886897966265678">
        <ele>465.89999999999998</ele>
        <time>2017-05-21T15:07:11Z</time>
      </trkpt>
      <trkpt lat="51.666979026049376" lon="10.886832000687718">
        <ele>465.42000000000002</ele>
        <time>2017-05-21T15:07:12Z</time>
      </trkpt>
      <trkpt lat="51.667025964707136" lon="10.886765029281378">
        <ele>464.44999999999999</ele>
        <time>2017-05-21T15:07:13Z</time>
      </trkpt>
      <trkpt lat="51.66709796525538" lon="10.886720018461347">
        <ele>464.44999999999999</ele>
        <time>2017-05-21T15:07:14Z</time>
      </trkpt>
      <trkpt lat="51.667185975238681" lon="10.88668498210609">
        <ele>464.44999999999999</ele>
        <time>2017-05-21T15:07:15Z</time>
      </trkpt>
      <trkpt lat="51.667551007121801" lon="10.8864910248667">
        <ele>463.49000000000001</ele>
        <time>2017-05-21T15:07:19Z</time>
      </trkpt>
      <trkpt lat="51.667627030983567" lon="10.88640502654016">
        <ele>463.49000000000001</ele>
        <time>2017-05-21T15:07:20Z</time>
      </trkpt>
      <trkpt lat="51.667688973248005" lon="10.886290026828647">
        <ele>463.49000000000001</ele>
        <time>2017-05-21T15:07:21Z</time>
      </trkpt>
      <trkpt lat="51.66774395853281" lon="10.886150971055031">
        <ele>463.49000000000001</ele>
        <time>2017-05-21T15:07:22Z</time>
      </trkpt>
      <trkpt lat="51.667792992666364" lon="10.885990038514137">
        <ele>463.49000000000001</ele>
        <time>2017-05-21T15:07:23Z</time>
      </trkpt>
      <trkpt lat="51.667835991829634" lon="10.885819969698787">
        <ele>463.00999999999999</ele>
        <time>2017-05-21T15:07:24Z</time>
      </trkpt>
      <trkpt lat="51.667883014306426" lon="10.885646967217326">
        <ele>463.49000000000001</ele>
        <time>2017-05-21T15:07:25Z</time>
      </trkpt>
      <trkpt lat="51.66799801401794" lon="10.885171964764595">
        <ele>463.00999999999999</ele>
        <time>2017-05-21T15:07:28Z</time>
      </trkpt>
      <trkpt lat="51.668072026222944" lon="10.885047996416688">
        <ele>463.49000000000001</ele>
        <time>2017-05-21T15:07:29Z</time>
      </trkpt>
      <trkpt lat="51.668146038427949" lon="10.884937020018697">
        <ele>463.49000000000001</ele>
        <time>2017-05-21T15:07:30Z</time>
      </trkpt>
      <trkpt lat="51.668232036754489" lon="10.884854961186647">
        <ele>463.49000000000001</ele>
        <time>2017-05-21T15:07:31Z</time>
      </trkpt>
      <trkpt lat="51.668336978182197" lon="10.884820008650422">
        <ele>463.49000000000001</ele>
        <time>2017-05-21T15:07:32Z</time>
      </trkpt>
      <trkpt lat="51.668439991772175" lon="10.884790001437068">
        <ele>463.97000000000003</ele>
        <time>2017-05-21T15:07:33Z</time>
      </trkpt>
      <trkpt lat="51.668535964563489" lon="10.884771980345249">
        <ele>463.97000000000003</ele>
        <time>2017-05-21T15:07:34Z</time>
      </trkpt>
      <trkpt lat="51.668635960668325" lon="10.884769968688488">
        <ele>463.97000000000003</ele>
        <time>2017-05-21T15:07:35Z</time>
      </trkpt>
      <trkpt lat="51.668746015056968" lon="10.884792013093829">
        <ele>463.97000000000003</ele>
        <time>2017-05-21T15:07:36Z</time>
      </trkpt>
      <trkpt lat="51.668845005333424" lon="10.884830988943577">
        <ele>463.97000000000003</ele>
        <time>2017-05-21T15:07:37Z</time>
      </trkpt>
      <trkpt lat="51.668943995609879" lon="10.884884968400002">
        <ele>463.49000000000001</ele>
        <time>2017-05-21T15:07:38Z</time>
      </trkpt>
      <trkpt lat="51.669042985886335" lon="10.884985970333219">
        <ele>463.00999999999999</ele>
        <time>2017-05-21T15:07:39Z</time>
      </trkpt>
      <trkpt lat="51.669130995869637" lon="10.885102981701493">
        <ele>462.05000000000001</ele>
        <time>2017-05-21T15:07:40Z</time>
      </trkpt>
      <trkpt lat="51.669612033292651" lon="10.885919965803623">
        <ele>461.56999999999999</ele>
        <time>2017-05-21T15:07:46Z</time>
      </trkpt>
      <trkpt lat="51.669664001092315" lon="10.886077964678407">
        <ele>462.05000000000001</ele>
        <time>2017-05-21T15:07:47Z</time>
      </trkpt>
      <trkpt lat="51.669763997197151" lon="10.886424975469708">
        <ele>462.05000000000001</ele>
        <time>2017-05-21T15:07:49Z</time>
      </trkpt>
      <trkpt lat="51.669934988021851" lon="10.887142969295382">
        <ele>462.05000000000001</ele>
        <time>2017-05-21T15:07:53Z</time>
      </trkpt>
      <trkpt lat="51.670003971084952" lon="10.887239025905728">
        <ele>462.05000000000001</ele>
        <time>2017-05-21T15:07:54Z</time>
      </trkpt>
      <trkpt lat="51.670112013816833" lon="10.887278001755476">
        <ele>463.97000000000003</ele>
        <time>2017-05-21T15:07:55Z</time>
      </trkpt>
      <trkpt lat="51.670205974951386" lon="10.887242965400219">
        <ele>463.97000000000003</ele>
        <time>2017-05-21T15:07:56Z</time>
      </trkpt>
      <trkpt lat="51.670301025733352" lon="10.887146992608905">
        <ele>464.44999999999999</ele>
        <time>2017-05-21T15:07:57Z</time>
      </trkpt>
      <trkpt lat="51.670389035716653" lon="10.886996034532785">
        <ele>464.93000000000001</ele>
        <time>2017-05-21T15:07:58Z</time>
      </trkpt>
      <trkpt lat="51.670468999072909" lon="10.886810040101409">
        <ele>464.93000000000001</ele>
        <time>2017-05-21T15:07:59Z</time>
      </trkpt>
      <trkpt lat="51.670544017106295" lon="10.886596972122788">
        <ele>464.93000000000001</ele>
        <time>2017-05-21T15:08:00Z</time>
      </trkpt>
      <trkpt lat="51.670602019876242" lon="10.88636202737689">
        <ele>464.44999999999999</ele>
        <time>2017-05-21T15:08:01Z</time>
      </trkpt>
      <trkpt lat="51.670643007382751" lon="10.88610403239727">
        <ele>464.44999999999999</ele>
        <time>2017-05-21T15:08:02Z</time>
      </trkpt>
      <trkpt lat="51.670677037909627" lon="10.885835979133844">
        <ele>463.97000000000003</ele>
        <time>2017-05-21T15:08:03Z</time>
      </trkpt>
      <trkpt lat="51.670777034014463" lon="10.885284030809999">
        <ele>463.97000000000003</ele>
        <time>2017-05-21T15:08:05Z</time>
      </trkpt>
      <trkpt lat="51.6708580031991" lon="10.885003991425037">
        <ele>463.97000000000003</ele>
        <time>2017-05-21T15:08:06Z</time>
      </trkpt>
      <trkpt lat="51.670956993475556" lon="10.884742978960276">
        <ele>463.49000000000001</ele>
        <time>2017-05-21T15:08:07Z</time>
      </trkpt>
      <trkpt lat="51.671107029542327" lon="10.884497975930572">
        <ele>463.97000000000003</ele>
        <time>2017-05-21T15:08:08Z</time>
      </trkpt>
      <trkpt lat="51.671257987618446" lon="10.884267976507545">
        <ele>463.97000000000003</ele>
        <time>2017-05-21T15:08:09Z</time>
      </trkpt>
      <trkpt lat="51.671387990936637" lon="10.883996989578009">
        <ele>463.49000000000001</ele>
        <time>2017-05-21T15:08:10Z</time>
      </trkpt>
      <trkpt lat="51.671511037275195" lon="10.883707981556654">
        <ele>463.00999999999999</ele>
        <time>2017-05-21T15:08:11Z</time>
      </trkpt>
      <trkpt lat="51.671614972874522" lon="10.883401958271861">
        <ele>463.00999999999999</ele>
        <time>2017-05-21T15:08:12Z</time>
      </trkpt>
      <trkpt lat="51.671684039756656" lon="10.883085038512945">
        <ele>462.52999999999997</ele>
        <time>2017-05-21T15:08:13Z</time>
      </trkpt>
      <trkpt lat="51.671741036698222" lon="10.882773986086249">
        <ele>462.05000000000001</ele>
        <time>2017-05-21T15:08:14Z</time>
      </trkpt>
      <trkpt lat="51.67178001254797" lon="10.882467040792108">
        <ele>461.56999999999999</ele>
        <time>2017-05-21T15:08:15Z</time>
      </trkpt>
      <trkpt lat="51.672114031389356" lon="10.880655962973833">
        <ele>459.17000000000002</ele>
        <time>2017-05-21T15:08:22Z</time>
      </trkpt>
      <trkpt lat="51.672200029715896" lon="10.880443984642625">
        <ele>459.17000000000002</ele>
        <time>2017-05-21T15:08:23Z</time>
      </trkpt>
      <trkpt lat="51.672304971143603" lon="10.880251033231616">
        <ele>459.17000000000002</ele>
        <time>2017-05-21T15:08:24Z</time>
      </trkpt>
      <trkpt lat="51.672432962805033" lon="10.880105020478368">
        <ele>459.17000000000002</ele>
        <time>2017-05-21T15:08:25Z</time>
      </trkpt>
      <trkpt lat="51.672564977779984" lon="10.879999995231628">
        <ele>459.17000000000002</ele>
        <time>2017-05-21T15:08:26Z</time>
      </trkpt>
      <trkpt lat="51.67270596139133" lon="10.879962025210261">
        <ele>459.17000000000002</ele>
        <time>2017-05-21T15:08:27Z</time>
      </trkpt>
      <trkpt lat="51.672874018549919" lon="10.880008963868022">
        <ele>459.17000000000002</ele>
        <time>2017-05-21T15:08:28Z</time>
      </trkpt>
      <trkpt lat="51.673028999939561" lon="10.880100997164845">
        <ele>459.17000000000002</ele>
        <time>2017-05-21T15:08:29Z</time>
      </trkpt>
      <trkpt lat="51.673183981329203" lon="10.880242986604571">
        <ele>459.17000000000002</ele>
        <time>2017-05-21T15:08:30Z</time>
      </trkpt>
      <trkpt lat="51.673347009345889" lon="10.880441972985864">
        <ele>459.64999999999998</ele>
        <time>2017-05-21T15:08:31Z</time>
      </trkpt>
      <trkpt lat="51.673492016270757" lon="10.880612963810563">
        <ele>459.64999999999998</ele>
        <time>2017-05-21T15:08:32Z</time>
      </trkpt>
      <trkpt lat="51.673646997660398" lon="10.880758976563811">
        <ele>459.64999999999998</ele>
        <time>2017-05-21T15:08:33Z</time>
      </trkpt>
      <trkpt lat="51.673812037333846" lon="10.880841035395861">
        <ele>459.64999999999998</ele>
        <time>2017-05-21T15:08:34Z</time>
      </trkpt>
      <trkpt lat="51.674002977088094" lon="10.880895014852285">
        <ele>459.17000000000002</ele>
        <time>2017-05-21T15:08:35Z</time>
      </trkpt>
      <trkpt lat="51.674206992611289" lon="10.880908006802201">
        <ele>458.69</ele>
        <time>2017-05-21T15:08:36Z</time>
      </trkpt>
      <trkpt lat="51.674408996477723" lon="10.880871964618564">
        <ele>458.69</ele>
        <time>2017-05-21T15:08:37Z</time>
      </trkpt>
      <trkpt lat="51.674599014222622" lon="10.880787977948785">
        <ele>458.20999999999998</ele>
        <time>2017-05-21T15:08:38Z</time>
      </trkpt>
      <trkpt lat="51.674796994775534" lon="10.880675995722413">
        <ele>457.24000000000001</ele>
        <time>2017-05-21T15:08:39Z</time>
      </trkpt>
      <trkpt lat="51.674983995035291" lon="10.880533000454307">
        <ele>456.75999999999999</ele>
        <time>2017-05-21T15:08:40Z</time>
      </trkpt>
      <trkpt lat="51.675165966153145" lon="10.880353963002563">
        <ele>456.27999999999997</ele>
        <time>2017-05-21T15:08:41Z</time>
      </trkpt>
      <trkpt lat="51.675339974462986" lon="10.880124969407916">
        <ele>455.80000000000001</ele>
        <time>2017-05-21T15:08:42Z</time>
      </trkpt>
      <trkpt lat="51.675506019964814" lon="10.879893964156508">
        <ele>455.31999999999999</ele>
        <time>2017-05-21T15:08:43Z</time>
      </trkpt>
      <trkpt lat="51.675672987475991" lon="10.879648961126804">
        <ele>454.36000000000001</ele>
        <time>2017-05-21T15:08:44Z</time>
      </trkpt>
      <trkpt lat="51.676556020975113" lon="10.878633996471763">
        <ele>451.95999999999998</ele>
        <time>2017-05-21T15:08:49Z</time>
      </trkpt>
      <trkpt lat="51.676759030669928" lon="10.878528971225023">
        <ele>451.48000000000002</ele>
        <time>2017-05-21T15:08:50Z</time>
      </trkpt>
      <trkpt lat="51.677553970366716" lon="10.878079030662775">
        <ele>449.55000000000001</ele>
        <time>2017-05-21T15:08:54Z</time>
      </trkpt>
      <trkpt lat="51.677738958969712" lon="10.877904016524553">
        <ele>449.06999999999999</ele>
        <time>2017-05-21T15:08:55Z</time>
      </trkpt>
      <trkpt lat="51.6782489977777" lon="10.877406969666481">
        <ele>449.55000000000001</ele>
        <time>2017-05-21T15:08:58Z</time>
      </trkpt>
      <trkpt lat="51.678457958623767" lon="10.87733899243176">
        <ele>450.02999999999997</ele>
        <time>2017-05-21T15:08:59Z</time>
      </trkpt>
      <trkpt lat="51.678667003288865" lon="10.877285012975335">
        <ele>450.51999999999998</ele>
        <time>2017-05-21T15:09:00Z</time>
      </trkpt>
      <trkpt lat="51.679670987650752" lon="10.877218963578343">
        <ele>451.95999999999998</ele>
        <time>2017-05-21T15:09:05Z</time>
      </trkpt>
      <trkpt lat="51.679854970425367" lon="10.877143023535609">
        <ele>451.95999999999998</ele>
        <time>2017-05-21T15:09:06Z</time>
      </trkpt>
      <trkpt lat="51.680025039240718" lon="10.877033974975348">
        <ele>451.48000000000002</ele>
        <time>2017-05-21T15:09:07Z</time>
      </trkpt>
      <trkpt lat="51.680175997316837" lon="10.876895003020763">
        <ele>451</ele>
        <time>2017-05-21T15:09:08Z</time>
      </trkpt>
      <trkpt lat="51.680295020341873" lon="10.876727029681206">
        <ele>450.02999999999997</ele>
        <time>2017-05-21T15:09:09Z</time>
      </trkpt>
      <trkpt lat="51.680411025881767" lon="10.876557966694236">
        <ele>449.55000000000001</ele>
        <time>2017-05-21T15:09:10Z</time>
      </trkpt>
      <trkpt lat="51.680920980870724" lon="10.875653978437185">
        <ele>447.14999999999998</ele>
        <time>2017-05-21T15:09:15Z</time>
      </trkpt>
      <trkpt lat="51.680988958105445" lon="10.875437976792455">
        <ele>446.67000000000002</ele>
        <time>2017-05-21T15:09:16Z</time>
      </trkpt>
      <trkpt lat="51.681322976946831" lon="10.874458970502019">
        <ele>445.70999999999998</ele>
        <time>2017-05-21T15:09:20Z</time>
      </trkpt>
      <trkpt lat="51.681451974436641" lon="10.874215979129076">
        <ele>445.70999999999998</ele>
        <time>2017-05-21T15:09:21Z</time>
      </trkpt>
      <trkpt lat="51.681593963876367" lon="10.873994026333094">
        <ele>445.70999999999998</ele>
        <time>2017-05-21T15:09:22Z</time>
      </trkpt>
      <trkpt lat="51.681743999943137" lon="10.87379302829504">
        <ele>445.23000000000002</ele>
        <time>2017-05-21T15:09:23Z</time>
      </trkpt>
      <trkpt lat="51.68190099298954" lon="10.873598987236619">
        <ele>445.70999999999998</ele>
        <time>2017-05-21T15:09:24Z</time>
      </trkpt>
      <trkpt lat="51.682792995125055" lon="10.872657028958201">
        <ele>445.23000000000002</ele>
        <time>2017-05-21T15:09:29Z</time>
      </trkpt>
      <trkpt lat="51.682946970686316" lon="10.87243901565671">
        <ele>445.70999999999998</ele>
        <time>2017-05-21T15:09:30Z</time>
      </trkpt>
      <trkpt lat="51.683074962347746" lon="10.87218102067709">
        <ele>446.67000000000002</ele>
        <time>2017-05-21T15:09:31Z</time>
      </trkpt>
      <trkpt lat="51.683177975937724" lon="10.871870974078774">
        <ele>447.14999999999998</ele>
        <time>2017-05-21T15:09:32Z</time>
      </trkpt>
      <trkpt lat="51.683264980092645" lon="10.871511977165937">
        <ele>448.58999999999997</ele>
        <time>2017-05-21T15:09:33Z</time>
      </trkpt>
      <trkpt lat="51.683347960934043" lon="10.871135964989662">
        <ele>449.55000000000001</ele>
        <time>2017-05-21T15:09:34Z</time>
      </trkpt>
      <trkpt lat="51.684180032461882" lon="10.868382006883621">
        <ele>458.69</ele>
        <time>2017-05-21T15:09:41Z</time>
      </trkpt>
      <trkpt lat="51.685000034049153" lon="10.866577969864011">
        <ele>456.27999999999997</ele>
        <time>2017-05-21T15:09:47Z</time>
      </trkpt>
      <trkpt lat="51.68566295877099" lon="10.865009967237711">
        <ele>451.48000000000002</ele>
        <time>2017-05-21T15:09:54Z</time>
      </trkpt>
      <trkpt lat="51.685980968177319" lon="10.863960972055793">
        <ele>449.06999999999999</ele>
        <time>2017-05-21T15:09:59Z</time>
      </trkpt>
      <trkpt lat="51.686053974553943" lon="10.863802973181009">
        <ele>449.06999999999999</ele>
        <time>2017-05-21T15:10:00Z</time>
      </trkpt>
      <trkpt lat="51.686126980930567" lon="10.863667018711567">
        <ele>448.58999999999997</ele>
        <time>2017-05-21T15:10:01Z</time>
      </trkpt>
      <trkpt lat="51.686196969822049" lon="10.863555958494544">
        <ele>448.58999999999997</ele>
        <time>2017-05-21T15:10:02Z</time>
      </trkpt>
      <trkpt lat="51.686264025047421" lon="10.863461997359991">
        <ele>448.11000000000001</ele>
        <time>2017-05-21T15:10:03Z</time>
      </trkpt>
      <trkpt lat="51.687041027471423" lon="10.862247040495276">
        <ele>444.75</ele>
        <time>2017-05-21T15:10:14Z</time>
      </trkpt>
      <trkpt lat="51.687372028827667" lon="10.861635999754071">
        <ele>442.81999999999999</ele>
        <time>2017-05-21T15:10:19Z</time>
      </trkpt>
      <trkpt lat="51.687855999916792" lon="10.859891977161169">
        <ele>438.98000000000002</ele>
        <time>2017-05-21T15:10:31Z</time>
      </trkpt>
      <trkpt lat="51.688253972679377" lon="10.857650991529226">
        <ele>439.45999999999998</ele>
        <time>2017-05-21T15:10:44Z</time>
      </trkpt>
      <trkpt lat="51.688662003725767" lon="10.856740968301892">
        <ele>438.98000000000002</ele>
        <time>2017-05-21T15:10:51Z</time>
      </trkpt>
      <trkpt lat="51.688739033415914" lon="10.856650024652481">
        <ele>438.98000000000002</ele>
        <time>2017-05-21T15:10:52Z</time>
      </trkpt>
      <trkpt lat="51.688824025914073" lon="10.856570983305573">
        <ele>439.45999999999998</ele>
        <time>2017-05-21T15:10:53Z</time>
      </trkpt>
      <trkpt lat="51.688911030068994" lon="10.856517003849149">
        <ele>439.94</ele>
        <time>2017-05-21T15:10:54Z</time>
      </trkpt>
      <trkpt lat="51.688999962061644" lon="10.85647601634264">
        <ele>440.89999999999998</ele>
        <time>2017-05-21T15:10:55Z</time>
      </trkpt>
      <trkpt lat="51.689084032550454" lon="10.856449026614428">
        <ele>441.86000000000001</ele>
        <time>2017-05-21T15:10:56Z</time>
      </trkpt>
      <trkpt lat="51.689736982807517" lon="10.856367973610759">
        <ele>451.95999999999998</ele>
        <time>2017-05-21T15:11:05Z</time>
      </trkpt>
      <trkpt lat="51.689761038869619" lon="10.85636998526752">
        <ele>454.36000000000001</ele>
        <time>2017-05-21T15:11:15Z</time>
      </trkpt>
      <trkpt lat="51.689897999167442" lon="10.856351964175701">
        <ele>454.36000000000001</ele>
        <time>2017-05-21T15:11:23Z</time>
      </trkpt>
      <trkpt lat="51.689948039129376" lon="10.85630401968956">
        <ele>453.88</ele>
        <time>2017-05-21T15:11:24Z</time>
      </trkpt>
      <trkpt lat="51.689974023029208" lon="10.856225984171033">
        <ele>453.88</ele>
        <time>2017-05-21T15:11:25Z</time>
      </trkpt>
      <trkpt lat="51.689983997493982" lon="10.856131017208099">
        <ele>453.88</ele>
        <time>2017-05-21T15:11:26Z</time>
      </trkpt>
      <trkpt lat="51.689986009150743" lon="10.856021968647838">
        <ele>453.39999999999998</ele>
        <time>2017-05-21T15:11:27Z</time>
      </trkpt>
      <trkpt lat="51.68997997418046" lon="10.855907974764705">
        <ele>453.39999999999998</ele>
        <time>2017-05-21T15:11:28Z</time>
      </trkpt>
      <trkpt lat="51.689986009150743" lon="10.855174977332354">
        <ele>451.48000000000002</ele>
        <time>2017-05-21T15:11:33Z</time>
      </trkpt>
      <trkpt lat="51.690019033849239" lon="10.854707015678287">
        <ele>451.95999999999998</ele>
        <time>2017-05-21T15:11:36Z</time>
      </trkpt>
      <trkpt lat="51.690052980557084" lon="10.85456402041018">
        <ele>452.44</ele>
        <time>2017-05-21T15:11:37Z</time>
      </trkpt>
      <trkpt lat="51.690152976661921" lon="10.854123970493674">
        <ele>451.95999999999998</ele>
        <time>2017-05-21T15:11:40Z</time>
      </trkpt>
      <trkpt lat="51.690168986096978" lon="10.853968989104033">
        <ele>451.48000000000002</ele>
        <time>2017-05-21T15:11:41Z</time>
      </trkpt>
      <trkpt lat="51.690176026895642" lon="10.85381199605763">
        <ele>451</ele>
        <time>2017-05-21T15:11:42Z</time>
      </trkpt>
      <trkpt lat="51.690174015238881" lon="10.853651985526085">
        <ele>450.51999999999998</ele>
        <time>2017-05-21T15:11:43Z</time>
      </trkpt>
      <trkpt lat="51.690174015238881" lon="10.853484012186527">
        <ele>450.51999999999998</ele>
        <time>2017-05-21T15:11:44Z</time>
      </trkpt>
      <trkpt lat="51.690079970285296" lon="10.851136995479465">
        <ele>449.55000000000001</ele>
        <time>2017-05-21T15:11:59Z</time>
      </trkpt>
      <trkpt lat="51.690023979172111" lon="10.848772963508964">
        <ele>451.48000000000002</ele>
        <time>2017-05-21T15:12:13Z</time>
      </trkpt>
      <trkpt lat="51.689982991665602" lon="10.847779959440231">
        <ele>451.48000000000002</ele>
        <time>2017-05-21T15:12:19Z</time>
      </trkpt>
      <trkpt lat="51.689959019422531" lon="10.847604023292661">
        <ele>451.95999999999998</ele>
        <time>2017-05-21T15:12:20Z</time>
      </trkpt>
      <trkpt lat="51.689920965582132" lon="10.847434038296342">
        <ele>452.44</ele>
        <time>2017-05-21T15:12:21Z</time>
      </trkpt>
      <trkpt lat="51.689870003610849" lon="10.847267992794514">
        <ele>452.92000000000002</ele>
        <time>2017-05-21T15:12:22Z</time>
      </trkpt>
      <trkpt lat="51.68980797752738" lon="10.847112005576491">
        <ele>452.92000000000002</ele>
        <time>2017-05-21T15:12:23Z</time>
      </trkpt>
      <trkpt lat="51.68974201194942" lon="10.846966998651624">
        <ele>452.92000000000002</ele>
        <time>2017-05-21T15:12:24Z</time>
      </trkpt>
      <trkpt lat="51.688727969303727" lon="10.844785021618009">
        <ele>454.36000000000001</ele>
        <time>2017-05-21T15:12:39Z</time>
      </trkpt>
      <trkpt lat="51.688054986298084" lon="10.843395972624421">
        <ele>454.83999999999997</ele>
        <time>2017-05-21T15:12:46Z</time>
      </trkpt>
      <trkpt lat="51.687045972794294" lon="10.841769967228174">
        <ele>452.44</ele>
        <time>2017-05-21T15:12:54Z</time>
      </trkpt>
      <trkpt lat="51.685947021469474" lon="10.840739998966455">
        <ele>451.48000000000002</ele>
        <time>2017-05-21T15:13:01Z</time>
      </trkpt>
      <trkpt lat="51.685193991288543" lon="10.84023398347199">
        <ele>451.95999999999998</ele>
        <time>2017-05-21T15:13:05Z</time>
      </trkpt>
      <trkpt lat="51.683832015842199" lon="10.838767988607287">
        <ele>455.80000000000001</ele>
        <time>2017-05-21T15:13:11Z</time>
      </trkpt>
      <trkpt lat="51.68192102573812" lon="10.837041987106204">
        <ele>461.08999999999997</ele>
        <time>2017-05-21T15:13:19Z</time>
      </trkpt>
      <trkpt lat="51.681717010214925" lon="10.836894968524575">
        <ele>462.05000000000001</ele>
        <time>2017-05-21T15:13:20Z</time>
      </trkpt>
      <trkpt lat="51.68151400052011" lon="10.836792960762978">
        <ele>462.05000000000001</ele>
        <time>2017-05-21T15:13:21Z</time>
      </trkpt>
      <trkpt lat="51.68131903745234" lon="10.836730012670159">
        <ele>462.05000000000001</ele>
        <time>2017-05-21T15:13:22Z</time>
      </trkpt>
      <trkpt lat="51.681131031364202" lon="10.836702017113566">
        <ele>462.05000000000001</ele>
        <time>2017-05-21T15:13:23Z</time>
      </trkpt>
      <trkpt lat="51.680952999740839" lon="10.836695982143283">
        <ele>462.05000000000001</ele>
        <time>2017-05-21T15:13:24Z</time>
      </trkpt>
      <trkpt lat="51.680795000866055" lon="10.836708974093199">
        <ele>462.52999999999997</ele>
        <time>2017-05-21T15:13:25Z</time>
      </trkpt>
      <trkpt lat="51.680655023083091" lon="10.836752979084849">
        <ele>463.49000000000001</ele>
        <time>2017-05-21T15:13:26Z</time>
      </trkpt>
      <trkpt lat="51.680527031421661" lon="10.836812993511558">
        <ele>463.97000000000003</ele>
        <time>2017-05-21T15:13:27Z</time>
      </trkpt>
      <trkpt lat="51.679389020428061" lon="10.837372988462448">
        <ele>466.86000000000001</ele>
        <time>2017-05-21T15:13:37Z</time>
      </trkpt>
      <trkpt lat="51.678394004702568" lon="10.837273998185992">
        <ele>467.33999999999997</ele>
        <time>2017-05-21T15:13:45Z</time>
      </trkpt>
      <trkpt lat="51.677240990102291" lon="10.837166961282492">
        <ele>467.33999999999997</ele>
        <time>2017-05-21T15:13:54Z</time>
      </trkpt>
      <trkpt lat="51.676256032660604" lon="10.837352033704519">
        <ele>467.81999999999999</ele>
        <time>2017-05-21T15:14:01Z</time>
      </trkpt>
      <trkpt lat="51.676110019907355" lon="10.837332000955939">
        <ele>467.33999999999997</ele>
        <time>2017-05-21T15:14:02Z</time>
      </trkpt>
      <trkpt lat="51.675956966355443" lon="10.837261006236076">
        <ele>466.86000000000001</ele>
        <time>2017-05-21T15:14:03Z</time>
      </trkpt>
      <trkpt lat="51.675616996362805" lon="10.837022038176656">
        <ele>466.38</ele>
        <time>2017-05-21T15:14:05Z</time>
      </trkpt>
      <trkpt lat="51.675422033295035" lon="10.836850041523576">
        <ele>465.89999999999998</ele>
        <time>2017-05-21T15:14:06Z</time>
      </trkpt>
      <trkpt lat="51.673815976828337" lon="10.835199980065227">
        <ele>468.30000000000001</ele>
        <time>2017-05-21T15:14:13Z</time>
      </trkpt>
      <trkpt lat="51.672403961420059" lon="10.83378897048533">
        <ele>470.22000000000003</ele>
        <time>2017-05-21T15:14:19Z</time>
      </trkpt>
      <trkpt lat="51.672207992523909" lon="10.83355201408267">
        <ele>471.18000000000001</ele>
        <time>2017-05-21T15:14:20Z</time>
      </trkpt>
      <trkpt lat="51.672047981992364" lon="10.833278009667993">
        <ele>471.66000000000003</ele>
        <time>2017-05-21T15:14:21Z</time>
      </trkpt>
      <trkpt lat="51.671915967017412" lon="10.832960000261664">
        <ele>471.66000000000003</ele>
        <time>2017-05-21T15:14:22Z</time>
      </trkpt>
      <trkpt lat="51.671396037563682" lon="10.831761974841356">
        <ele>477.91000000000003</ele>
        <time>2017-05-21T15:14:26Z</time>
      </trkpt>
      <trkpt lat="51.671240972355008" lon="10.831517977640033">
        <ele>479.35000000000002</ele>
        <time>2017-05-21T15:14:27Z</time>
      </trkpt>
      <trkpt lat="51.671063024550676" lon="10.831310022622347">
        <ele>480.31999999999999</ele>
        <time>2017-05-21T15:14:28Z</time>
      </trkpt>
      <trkpt lat="51.670866971835494" lon="10.831128973513842">
        <ele>482.72000000000003</ele>
        <time>2017-05-21T15:14:29Z</time>
      </trkpt>
      <trkpt lat="51.670659016817808" lon="10.830955971032381">
        <ele>484.63999999999999</ele>
        <time>2017-05-21T15:14:30Z</time>
      </trkpt>
      <trkpt lat="51.668766969814897" lon="10.829798011109233">
        <ele>497.13999999999999</ele>
        <time>2017-05-21T15:14:38Z</time>
      </trkpt>
      <trkpt lat="51.665991973131895" lon="10.828989995643497">
        <ele>509.16000000000003</ele>
        <time>2017-05-21T15:14:49Z</time>
      </trkpt>
      <trkpt lat="51.665584025904536" lon="10.828915983438492">
        <ele>509.63999999999999</ele>
        <time>2017-05-21T15:14:51Z</time>
      </trkpt>
      <trkpt lat="51.66542099788785" lon="10.828937022015452">
        <ele>511.56</ele>
        <time>2017-05-21T15:14:52Z</time>
      </trkpt>
      <trkpt lat="51.66526903398335" lon="10.829025031998754">
        <ele>511.56</ele>
        <time>2017-05-21T15:14:53Z</time>
      </trkpt>
      <trkpt lat="51.665127966552973" lon="10.829186970368028">
        <ele>512.03999999999996</ele>
        <time>2017-05-21T15:14:54Z</time>
      </trkpt>
      <trkpt lat="51.665009027346969" lon="10.829406995326281">
        <ele>512.51999999999998</ele>
        <time>2017-05-21T15:14:55Z</time>
      </trkpt>
      <trkpt lat="51.664882963523269" lon="10.829651998355985">
        <ele>513.48000000000002</ele>
        <time>2017-05-21T15:14:56Z</time>
      </trkpt>
      <trkpt lat="51.664784979075193" lon="10.829930026084185">
        <ele>514.44000000000005</ele>
        <time>2017-05-21T15:14:57Z</time>
      </trkpt>
      <trkpt lat="51.664709039032459" lon="10.830218028277159">
        <ele>515.39999999999998</ele>
        <time>2017-05-21T15:14:58Z</time>
      </trkpt>
      <trkpt lat="51.664467975497246" lon="10.83101699128747">
        <ele>517.80999999999995</ele>
        <time>2017-05-21T15:15:01Z</time>
      </trkpt>
      <trkpt lat="51.664358004927635" lon="10.83127498626709">
        <ele>519.73000000000002</ele>
        <time>2017-05-21T15:15:02Z</time>
      </trkpt>
      <trkpt lat="51.664221966639161" lon="10.831500040367246">
        <ele>521.16999999999996</ele>
        <time>2017-05-21T15:15:03Z</time>
      </trkpt>
      <trkpt lat="51.664078971371055" lon="10.831734985113144">
        <ele>522.61000000000001</ele>
        <time>2017-05-21T15:15:04Z</time>
      </trkpt>
      <trkpt lat="51.663942011073232" lon="10.831976970657706">
        <ele>523.09000000000003</ele>
        <time>2017-05-21T15:15:05Z</time>
      </trkpt>
      <trkpt lat="51.663256036117673" lon="10.833586966618896">
        <ele>530.78999999999996</ele>
        <time>2017-05-21T15:15:11Z</time>
      </trkpt>
      <trkpt lat="51.663132989779115" lon="10.833753012120724">
        <ele>531.75</ele>
        <time>2017-05-21T15:15:12Z</time>
      </trkpt>
      <trkpt lat="51.663000974804163" lon="10.833833981305361">
        <ele>532.23000000000002</ele>
        <time>2017-05-21T15:15:13Z</time>
      </trkpt>
      <trkpt lat="51.662892010062933" lon="10.833873962983489">
        <ele>533.19000000000005</ele>
        <time>2017-05-21T15:15:14Z</time>
      </trkpt>
      <trkpt lat="51.662779022008181" lon="10.833815038204193">
        <ele>534.14999999999998</ele>
        <time>2017-05-21T15:15:15Z</time>
      </trkpt>
      <trkpt lat="51.662675002589822" lon="10.833699032664299">
        <ele>535.11000000000001</ele>
        <time>2017-05-21T15:15:16Z</time>
      </trkpt>
      <trkpt lat="51.662569977343082" lon="10.8335090149194">
        <ele>535.59000000000003</ele>
        <time>2017-05-21T15:15:17Z</time>
      </trkpt>
      <trkpt lat="51.662464030086994" lon="10.833307011052966">
        <ele>536.07000000000005</ele>
        <time>2017-05-21T15:15:18Z</time>
      </trkpt>
      <trkpt lat="51.661540009081364" lon="10.831918967887759">
        <ele>537.99000000000001</ele>
        <time>2017-05-21T15:15:25Z</time>
      </trkpt>
      <trkpt lat="51.661422997713089" lon="10.83172501064837">
        <ele>537.02999999999997</ele>
        <time>2017-05-21T15:15:26Z</time>
      </trkpt>
      <trkpt lat="51.661326019093394" lon="10.831500962376595">
        <ele>536.07000000000005</ele>
        <time>2017-05-21T15:15:27Z</time>
      </trkpt>
      <trkpt lat="51.661256030201912" lon="10.831233998760581">
        <ele>534.14999999999998</ele>
        <time>2017-05-21T15:15:28Z</time>
      </trkpt>
      <trkpt lat="51.661206996068358" lon="10.83095395937562">
        <ele>532.71000000000004</ele>
        <time>2017-05-21T15:15:29Z</time>
      </trkpt>
      <trkpt lat="51.661162991076708" lon="10.830675009638071">
        <ele>531.75</ele>
        <time>2017-05-21T15:15:30Z</time>
      </trkpt>
      <trkpt lat="51.661101970821619" lon="10.830419026315212">
        <ele>530.29999999999995</ele>
        <time>2017-05-21T15:15:31Z</time>
      </trkpt>
      <trkpt lat="51.661023013293743" lon="10.830187015235424">
        <ele>529.34000000000003</ele>
        <time>2017-05-21T15:15:32Z</time>
      </trkpt>
      <trkpt lat="51.660902984440327" lon="10.830004960298538">
        <ele>527.41999999999996</ele>
        <time>2017-05-21T15:15:33Z</time>
      </trkpt>
      <trkpt lat="51.660757977515459" lon="10.829855008050799">
        <ele>525.98000000000002</ele>
        <time>2017-05-21T15:15:34Z</time>
      </trkpt>
      <trkpt lat="51.660590004175901" lon="10.829740008339286">
        <ele>524.53999999999996</ele>
        <time>2017-05-21T15:15:35Z</time>
      </trkpt>
      <trkpt lat="51.660428987815976" lon="10.829628026112914">
        <ele>523.58000000000004</ele>
        <time>2017-05-21T15:15:36Z</time>
      </trkpt>
      <trkpt lat="51.660279035568237" lon="10.829497016966343">
        <ele>522.13</ele>
        <time>2017-05-21T15:15:37Z</time>
      </trkpt>
      <trkpt lat="51.66018096730113" lon="10.829299036413431">
        <ele>520.69000000000005</ele>
        <time>2017-05-21T15:15:38Z</time>
      </trkpt>
      <trkpt lat="51.660107038915157" lon="10.829073982313275">
        <ele>519.73000000000002</ele>
        <time>2017-05-21T15:15:39Z</time>
      </trkpt>
      <trkpt lat="51.659983992576599" lon="10.828655976802111">
        <ele>517.33000000000004</ele>
        <time>2017-05-21T15:15:41Z</time>
      </trkpt>
      <trkpt lat="51.659901011735201" lon="10.828510969877243">
        <ele>515.88</ele>
        <time>2017-05-21T15:15:42Z</time>
      </trkpt>
      <trkpt lat="51.659799003973603" lon="10.828419020399451">
        <ele>515.39999999999998</ele>
        <time>2017-05-21T15:15:43Z</time>
      </trkpt>
      <trkpt lat="51.659674029797316" lon="10.828402005136013">
        <ele>513.48000000000002</ele>
        <time>2017-05-21T15:15:44Z</time>
      </trkpt>
      <trkpt lat="51.659546960145235" lon="10.828470988199115">
        <ele>511.56</ele>
        <time>2017-05-21T15:15:45Z</time>
      </trkpt>
      <trkpt lat="51.659425003454089" lon="10.828580036759377">
        <ele>510.60000000000002</ele>
        <time>2017-05-21T15:15:46Z</time>
      </trkpt>
      <trkpt lat="51.659287959337234" lon="10.828679027035832">
        <ele>508.19</ele>
        <time>2017-05-21T15:15:47Z</time>
      </trkpt>
      <trkpt lat="51.659135995432734" lon="10.828741975128651">
        <ele>508.19</ele>
        <time>2017-05-21T15:15:48Z</time>
      </trkpt>
      <trkpt lat="51.658960981294513" lon="10.828759996220469">
        <ele>508.19</ele>
        <time>2017-05-21T15:15:49Z</time>
      </trkpt>
      <trkpt lat="51.658780016005039" lon="10.828725965693593">
        <ele>506.26999999999998</ele>
        <time>2017-05-21T15:15:50Z</time>
      </trkpt>
      <trkpt lat="51.658597961068153" lon="10.828669974580407">
        <ele>505.31</ele>
        <time>2017-05-21T15:15:51Z</time>
      </trkpt>
      <trkpt lat="51.658249022439122" lon="10.82850300706923">
        <ele>502.91000000000003</ele>
        <time>2017-05-21T15:15:53Z</time>
      </trkpt>
      <trkpt lat="51.658081971108913" lon="10.828365040943027">
        <ele>501.94999999999999</ele>
        <time>2017-05-21T15:15:54Z</time>
      </trkpt>
      <trkpt lat="51.657920032739639" lon="10.828189020976424">
        <ele>500.98000000000002</ele>
        <time>2017-05-21T15:15:55Z</time>
      </trkpt>
      <trkpt lat="51.657009003683925" lon="10.827352004125714">
        <ele>497.13999999999999</ele>
        <time>2017-05-21T15:16:00Z</time>
      </trkpt>
      <trkpt lat="51.656833989545703" lon="10.827275980263948">
        <ele>496.18000000000001</ele>
        <time>2017-05-21T15:16:01Z</time>
      </trkpt>
      <trkpt lat="51.656679008156061" lon="10.827264999970794">
        <ele>495.22000000000003</ele>
        <time>2017-05-21T15:16:02Z</time>
      </trkpt>
      <trkpt lat="51.656542969867587" lon="10.827331971377134">
        <ele>493.76999999999998</ele>
        <time>2017-05-21T15:16:03Z</time>
      </trkpt>
      <trkpt lat="51.656440040096641" lon="10.827433979138732">
        <ele>493.29000000000002</ele>
        <time>2017-05-21T15:16:04Z</time>
      </trkpt>
      <trkpt lat="51.656356975436211" lon="10.827583009377122">
        <ele>492.81</ele>
        <time>2017-05-21T15:16:05Z</time>
      </trkpt>
      <trkpt lat="51.656337026506662" lon="10.827775038778782">
        <ele>493.76999999999998</ele>
        <time>2017-05-21T15:16:06Z</time>
      </trkpt>
      <trkpt lat="51.656357981264591" lon="10.82800998352468">
        <ele>492.32999999999998</ele>
        <time>2017-05-21T15:16:07Z</time>
      </trkpt>
      <trkpt lat="51.656395029276609" lon="10.828268984332681">
        <ele>492.32999999999998</ele>
        <time>2017-05-21T15:16:08Z</time>
      </trkpt>
      <trkpt lat="51.656429981812835" lon="10.828538965433836">
        <ele>492.32999999999998</ele>
        <time>2017-05-21T15:16:09Z</time>
      </trkpt>
      <trkpt lat="51.656450014561415" lon="10.828835014253855">
        <ele>492.81</ele>
        <time>2017-05-21T15:16:10Z</time>
      </trkpt>
      <trkpt lat="51.656473986804485" lon="10.829178001731634">
        <ele>494.74000000000001</ele>
        <time>2017-05-21T15:16:11Z</time>
      </trkpt>
      <trkpt lat="51.656455965712667" lon="10.829519983381033">
        <ele>493.29000000000002</ele>
        <time>2017-05-21T15:16:12Z</time>
      </trkpt>
      <trkpt lat="51.65614097379148" lon="10.83204897120595">
        <ele>488.97000000000003</ele>
        <time>2017-05-21T15:16:19Z</time>
      </trkpt>
      <trkpt lat="51.656056987121701" lon="10.8323710039258">
        <ele>488.00999999999999</ele>
        <time>2017-05-21T15:16:20Z</time>
      </trkpt>
      <trkpt lat="51.655956991016865" lon="10.832646014168859">
        <ele>487.52999999999997</ele>
        <time>2017-05-21T15:16:21Z</time>
      </trkpt>
      <trkpt lat="51.655853977426887" lon="10.832838965579867">
        <ele>486.56</ele>
        <time>2017-05-21T15:16:22Z</time>
      </trkpt>
      <trkpt lat="51.655743001028895" lon="10.832963017746806">
        <ele>486.07999999999998</ele>
        <time>2017-05-21T15:16:23Z</time>
      </trkpt>
      <trkpt lat="51.655635964125395" lon="10.832996964454651">
        <ele>484.63999999999999</ele>
        <time>2017-05-21T15:16:24Z</time>
      </trkpt>
      <trkpt lat="51.655530016869307" lon="10.832980033010244">
        <ele>484.16000000000003</ele>
        <time>2017-05-21T15:16:25Z</time>
      </trkpt>
      <trkpt lat="51.655435971915722" lon="10.832905014976859">
        <ele>482.72000000000003</ele>
        <time>2017-05-21T15:16:26Z</time>
      </trkpt>
      <trkpt lat="51.655346034094691" lon="10.832767970860004">
        <ele>480.80000000000001</ele>
        <time>2017-05-21T15:16:27Z</time>
      </trkpt>
      <trkpt lat="51.655254000797868" lon="10.832591028884053">
        <ele>479.35000000000002</ele>
        <time>2017-05-21T15:16:28Z</time>
      </trkpt>
      <trkpt lat="51.655154004693031" lon="10.832379972562194">
        <ele>478.38999999999999</ele>
        <time>2017-05-21T15:16:29Z</time>
      </trkpt>
      <trkpt lat="51.65448697283864" lon="10.830578031018376">
        <ele>475.50999999999999</ele>
        <time>2017-05-21T15:16:35Z</time>
      </trkpt>
      <trkpt lat="51.654135016724467" lon="10.829664990305901">
        <ele>472.63</ele>
        <time>2017-05-21T15:16:38Z</time>
      </trkpt>
      <trkpt lat="51.65399101562798" lon="10.829423004761338">
        <ele>471.18000000000001</ele>
        <time>2017-05-21T15:16:39Z</time>
      </trkpt>
      <trkpt lat="51.653833016753197" lon="10.829223012551665">
        <ele>470.22000000000003</ele>
        <time>2017-05-21T15:16:40Z</time>
      </trkpt>
      <trkpt lat="51.653665965422988" lon="10.829066019505262">
        <ele>469.25999999999999</ele>
        <time>2017-05-21T15:16:41Z</time>
      </trkpt>
      <trkpt lat="51.653495980426669" lon="10.828943978995085">
        <ele>468.77999999999997</ele>
        <time>2017-05-21T15:16:42Z</time>
      </trkpt>
      <trkpt lat="51.653329012915492" lon="10.828817998990417">
        <ele>467.81999999999999</ele>
        <time>2017-05-21T15:16:43Z</time>
      </trkpt>
      <trkpt lat="51.653172019869089" lon="10.828655976802111">
        <ele>466.38</ele>
        <time>2017-05-21T15:16:44Z</time>
      </trkpt>
      <trkpt lat="51.653032964095473" lon="10.828465959057212">
        <ele>465.42000000000002</ele>
        <time>2017-05-21T15:16:45Z</time>
      </trkpt>
      <trkpt lat="51.652916958555579" lon="10.828216010704637">
        <ele>464.44999999999999</ele>
        <time>2017-05-21T15:16:46Z</time>
      </trkpt>
      <trkpt lat="51.652816040441394" lon="10.827934965491295">
        <ele>463.00999999999999</ele>
        <time>2017-05-21T15:16:47Z</time>
      </trkpt>
      <trkpt lat="51.652720989659429" lon="10.827627014368773">
        <ele>462.52999999999997</ele>
        <time>2017-05-21T15:16:48Z</time>
      </trkpt>
      <trkpt lat="51.652214974164963" lon="10.825241021811962">
        <ele>454.83999999999997</ele>
        <time>2017-05-21T15:16:55Z</time>
      </trkpt>
      <trkpt lat="51.652125036343932" lon="10.824889987707138">
        <ele>452.92000000000002</ele>
        <time>2017-05-21T15:16:56Z</time>
      </trkpt>
      <trkpt lat="51.652016993612051" lon="10.824574995785952">
        <ele>453.39999999999998</ele>
        <time>2017-05-21T15:16:57Z</time>
      </trkpt>
      <trkpt lat="51.651828987523913" lon="10.823999997228384">
        <ele>451</ele>
        <time>2017-05-21T15:16:59Z</time>
      </trkpt>
      <trkpt lat="51.65177802555263" lon="10.823738984763622">
        <ele>449.55000000000001</ele>
        <time>2017-05-21T15:17:00Z</time>
      </trkpt>
      <trkpt lat="51.651760004460812" lon="10.823471015319228">
        <ele>448.58999999999997</ele>
        <time>2017-05-21T15:17:01Z</time>
      </trkpt>
      <trkpt lat="51.651747012510896" lon="10.822897022590041">
        <ele>446.67000000000002</ele>
        <time>2017-05-21T15:17:03Z</time>
      </trkpt>
      <trkpt lat="51.651698984205723" lon="10.822641039267182">
        <ele>446.67000000000002</ele>
        <time>2017-05-21T15:17:04Z</time>
      </trkpt>
      <trkpt lat="51.651608040556312" lon="10.822398969903588">
        <ele>445.23000000000002</ele>
        <time>2017-05-21T15:17:05Z</time>
      </trkpt>
      <trkpt lat="51.65147703140974" lon="10.822162013500929">
        <ele>444.26999999999998</ele>
        <time>2017-05-21T15:17:06Z</time>
      </trkpt>
      <trkpt lat="51.651332024484873" lon="10.821935031563044">
        <ele>443.31</ele>
        <time>2017-05-21T15:17:07Z</time>
      </trkpt>
      <trkpt lat="51.650280011817813" lon="10.820745974779129">
        <ele>435.13</ele>
        <time>2017-05-21T15:17:13Z</time>
      </trkpt>
      <trkpt lat="51.649665031582117" lon="10.820345990359783">
        <ele>432.73000000000002</ele>
        <time>2017-05-21T15:17:16Z</time>
      </trkpt>
      <trkpt lat="51.649479959160089" lon="10.820298967882991">
        <ele>431.29000000000002</ele>
        <time>2017-05-21T15:17:17Z</time>
      </trkpt>
      <trkpt lat="51.649297988042235" lon="10.820302991196513">
        <ele>430.32999999999998</ele>
        <time>2017-05-21T15:17:18Z</time>
      </trkpt>
      <trkpt lat="51.649105036631227" lon="10.820348002016544">
        <ele>429.37</ele>
        <time>2017-05-21T15:17:19Z</time>
      </trkpt>
      <trkpt lat="51.648905966430902" lon="10.82042302004993">
        <ele>428.39999999999998</ele>
        <time>2017-05-21T15:17:20Z</time>
      </trkpt>
      <trkpt lat="51.648697005584836" lon="10.820502983406186">
        <ele>427.44</ele>
        <time>2017-05-21T15:17:21Z</time>
      </trkpt>
      <trkpt lat="51.648473041132092" lon="10.820557968690991">
        <ele>426.95999999999998</ele>
        <time>2017-05-21T15:17:22Z</time>
      </trkpt>
      <trkpt lat="51.648239018395543" lon="10.820584958419204">
        <ele>426.48000000000002</ele>
        <time>2017-05-21T15:17:23Z</time>
      </trkpt>
      <trkpt lat="51.648007007315755" lon="10.820580013096333">
        <ele>426</ele>
        <time>2017-05-21T15:17:24Z</time>
      </trkpt>
      <trkpt lat="51.647791005671024" lon="10.820541037246585">
        <ele>425.51999999999998</ele>
        <time>2017-05-21T15:17:25Z</time>
      </trkpt>
      <trkpt lat="51.64758799597621" lon="10.820479011163116">
        <ele>425.04000000000002</ele>
        <time>2017-05-21T15:17:26Z</time>
      </trkpt>
      <trkpt lat="51.647381968796253" lon="10.820384966209531">
        <ele>423.60000000000002</ele>
        <time>2017-05-21T15:17:27Z</time>
      </trkpt>
      <trkpt lat="51.645956039428711" lon="10.819579968228936">
        <ele>419.26999999999998</ele>
        <time>2017-05-21T15:17:34Z</time>
      </trkpt>
      <trkpt lat="51.645818995311856" lon="10.819465974345803">
        <ele>418.79000000000002</ele>
        <time>2017-05-21T15:17:35Z</time>
      </trkpt>
      <trkpt lat="51.64569997228682" lon="10.819323984906077">
        <ele>418.31</ele>
        <time>2017-05-21T15:17:36Z</time>
      </trkpt>
      <trkpt lat="51.645595030859113" lon="10.819142013788223">
        <ele>417.82999999999998</ele>
        <time>2017-05-21T15:17:37Z</time>
      </trkpt>
      <trkpt lat="51.645510038360953" lon="10.818935986608267">
        <ele>417.82999999999998</ele>
        <time>2017-05-21T15:17:38Z</time>
      </trkpt>
      <trkpt lat="51.645433008670807" lon="10.818719984963536">
        <ele>417.35000000000002</ele>
        <time>2017-05-21T15:17:39Z</time>
      </trkpt>
      <trkpt lat="51.645266963168979" lon="10.818308014422655">
        <ele>417.35000000000002</ele>
        <time>2017-05-21T15:17:41Z</time>
      </trkpt>
      <trkpt lat="51.64516001008451" lon="10.81812696531415">
        <ele>416.87</ele>
        <time>2017-05-21T15:17:42Z</time>
      </trkpt>
      <trkpt lat="51.645039981231093" lon="10.81797500140965">
        <ele>416.87</ele>
        <time>2017-05-21T15:17:43Z</time>
      </trkpt>
      <trkpt lat="51.644907966256142" lon="10.817876011133194">
        <ele>415.43000000000001</ele>
        <time>2017-05-21T15:17:44Z</time>
      </trkpt>
      <trkpt lat="51.644775029271841" lon="10.817813985049725">
        <ele>414.94999999999999</ele>
        <time>2017-05-21T15:17:45Z</time>
      </trkpt>
      <trkpt lat="51.644636979326606" lon="10.817762017250061">
        <ele>414.47000000000003</ele>
        <time>2017-05-21T15:17:46Z</time>
      </trkpt>
      <trkpt lat="51.644219979643822" lon="10.817630002275109">
        <ele>414.94999999999999</ele>
        <time>2017-05-21T15:17:49Z</time>
      </trkpt>
      <trkpt lat="51.644101962447166" lon="10.817538974806666">
        <ele>414.47000000000003</ele>
        <time>2017-05-21T15:17:50Z</time>
      </trkpt>
      <trkpt lat="51.64399903267622" lon="10.817406037822366">
        <ele>414.47000000000003</ele>
        <time>2017-05-21T15:17:51Z</time>
      </trkpt>
      <trkpt lat="51.643919991329312" lon="10.817236974835396">
        <ele>413.98000000000002</ele>
        <time>2017-05-21T15:17:52Z</time>
      </trkpt>
      <trkpt lat="51.643853019922972" lon="10.817023990675807">
        <ele>413.5</ele>
        <time>2017-05-21T15:17:53Z</time>
      </trkpt>
      <trkpt lat="51.643790993839502" lon="10.816777981817722">
        <ele>413.01999999999998</ele>
        <time>2017-05-21T15:17:54Z</time>
      </trkpt>
      <trkpt lat="51.643499974161386" lon="10.815854966640472">
        <ele>412.06</ele>
        <time>2017-05-21T15:17:57Z</time>
      </trkpt>
      <trkpt lat="51.643039975315332" lon="10.814891969785094">
        <ele>409.66000000000003</ele>
        <time>2017-05-21T15:18:00Z</time>
      </trkpt>
      <trkpt lat="51.642827996984124" lon="10.814591981470585">
        <ele>409.18000000000001</ele>
        <time>2017-05-21T15:18:01Z</time>
      </trkpt>
      <trkpt lat="51.641643969342113" lon="10.813169991597533">
        <ele>406.76999999999998</ele>
        <time>2017-05-21T15:18:07Z</time>
      </trkpt>
      <trkpt lat="51.641481025144458" lon="10.813020961359143">
        <ele>406.29000000000002</ele>
        <time>2017-05-21T15:18:08Z</time>
      </trkpt>
      <trkpt lat="51.641326965764165" lon="10.8129040338099">
        <ele>406.29000000000002</ele>
        <time>2017-05-21T15:18:09Z</time>
      </trkpt>
      <trkpt lat="51.641158992424607" lon="10.812874026596546">
        <ele>405.81</ele>
        <time>2017-05-21T15:18:10Z</time>
      </trkpt>
      <trkpt lat="51.640967968851328" lon="10.812967987731099">
        <ele>404.85000000000002</ele>
        <time>2017-05-21T15:18:11Z</time>
      </trkpt>
      <trkpt lat="51.640793960541487" lon="10.813080975785851">
        <ele>403.88999999999999</ele>
        <time>2017-05-21T15:18:12Z</time>
      </trkpt>
      <trkpt lat="51.64064702577889" lon="10.813278034329414">
        <ele>403.41000000000003</ele>
        <time>2017-05-21T15:18:13Z</time>
      </trkpt>
      <trkpt lat="51.640492966398597" lon="10.813458999618888">
        <ele>403.41000000000003</ele>
        <time>2017-05-21T15:18:14Z</time>
      </trkpt>
      <trkpt lat="51.640017963945866" lon="10.813854038715363">
        <ele>402.44999999999999</ele>
        <time>2017-05-21T15:18:17Z</time>
      </trkpt>
      <trkpt lat="51.63985300809145" lon="10.813913969323039">
        <ele>402.44999999999999</ele>
        <time>2017-05-21T15:18:18Z</time>
      </trkpt>
      <trkpt lat="51.639690985903144" lon="10.813954034820199">
        <ele>402.44999999999999</ele>
        <time>2017-05-21T15:18:19Z</time>
      </trkpt>
      <trkpt lat="51.639524018391967" lon="10.814047995954752">
        <ele>402.44999999999999</ele>
        <time>2017-05-21T15:18:20Z</time>
      </trkpt>
      <trkpt lat="51.639376999810338" lon="10.814208006486297">
        <ele>402.93000000000001</ele>
        <time>2017-05-21T15:18:21Z</time>
      </trkpt>
      <trkpt lat="51.63925495930016" lon="10.814360976219177">
        <ele>403.41000000000003</ele>
        <time>2017-05-21T15:18:22Z</time>
      </trkpt>
      <trkpt lat="51.639130990952253" lon="10.814533978700638">
        <ele>403.88999999999999</ele>
        <time>2017-05-21T15:18:23Z</time>
      </trkpt>
      <trkpt lat="51.639032000675797" lon="10.814747968688607">
        <ele>404.37</ele>
        <time>2017-05-21T15:18:24Z</time>
      </trkpt>
      <trkpt lat="51.638909038156271" lon="10.814886018633842">
        <ele>404.37</ele>
        <time>2017-05-21T15:18:25Z</time>
      </trkpt>
      <trkpt lat="51.6387780290097" lon="10.814964976161718">
        <ele>404.85000000000002</ele>
        <time>2017-05-21T15:18:26Z</time>
      </trkpt>
      <trkpt lat="51.638637967407703" lon="10.814991965889931">
        <ele>404.85000000000002</ele>
        <time>2017-05-21T15:18:27Z</time>
      </trkpt>
      <trkpt lat="51.638465970754623" lon="10.81490496173501">
        <ele>404.85000000000002</ele>
        <time>2017-05-21T15:18:28Z</time>
      </trkpt>
      <trkpt lat="51.638301014900208" lon="10.814787028357387">
        <ele>404.85000000000002</ele>
        <time>2017-05-21T15:18:29Z</time>
      </trkpt>
      <trkpt lat="51.638129018247128" lon="10.8146240003407">
        <ele>404.37</ele>
        <time>2017-05-21T15:18:30Z</time>
      </trkpt>
      <trkpt lat="51.637974958866835" lon="10.814419984817505">
        <ele>404.37</ele>
        <time>2017-05-21T15:18:31Z</time>
      </trkpt>
      <trkpt lat="51.637818971648812" lon="10.814210018143058">
        <ele>404.37</ele>
        <time>2017-05-21T15:18:32Z</time>
      </trkpt>
      <trkpt lat="51.637650998309255" lon="10.814037015661597">
        <ele>404.37</ele>
        <time>2017-05-21T15:18:33Z</time>
      </trkpt>
      <trkpt lat="51.637469027191401" lon="10.813921010121703">
        <ele>403.88999999999999</ele>
        <time>2017-05-21T15:18:34Z</time>
      </trkpt>
      <trkpt lat="51.637276997789741" lon="10.813835011795163">
        <ele>403.41000000000003</ele>
        <time>2017-05-21T15:18:35Z</time>
      </trkpt>
      <trkpt lat="51.637068958953023" lon="10.813795030117035">
        <ele>402.44999999999999</ele>
        <time>2017-05-21T15:18:36Z</time>
      </trkpt>
      <trkpt lat="51.636852035298944" lon="10.813778014853597">
        <ele>402.44999999999999</ele>
        <time>2017-05-21T15:18:37Z</time>
      </trkpt>
      <trkpt lat="51.636628992855549" lon="10.813797041773796">
        <ele>401.97000000000003</ele>
        <time>2017-05-21T15:18:38Z</time>
      </trkpt>
      <trkpt lat="51.636419026181102" lon="10.813900977373123">
        <ele>401.49000000000001</ele>
        <time>2017-05-21T15:18:39Z</time>
      </trkpt>
      <trkpt lat="51.636197995394468" lon="10.813995022326708">
        <ele>401.00999999999999</ele>
        <time>2017-05-21T15:18:40Z</time>
      </trkpt>
      <trkpt lat="51.635973025113344" lon="10.81410700455308">
        <ele>400.52999999999997</ele>
        <time>2017-05-21T15:18:41Z</time>
      </trkpt>
      <trkpt lat="51.635751994326711" lon="10.814247988164425">
        <ele>399.56999999999999</ele>
        <time>2017-05-21T15:18:42Z</time>
      </trkpt>
      <trkpt lat="51.635550996288657" lon="10.814427025616169">
        <ele>399.56999999999999</ele>
        <time>2017-05-21T15:18:43Z</time>
      </trkpt>
      <trkpt lat="51.635366007685661" lon="10.814619977027178">
        <ele>399.56999999999999</ele>
        <time>2017-05-21T15:18:44Z</time>
      </trkpt>
      <trkpt lat="51.634764019399881" lon="10.815376024693251">
        <ele>397.63999999999999</ele>
        <time>2017-05-21T15:18:48Z</time>
      </trkpt>
      <trkpt lat="51.634661005809903" lon="10.815602000802755">
        <ele>396.68000000000001</ele>
        <time>2017-05-21T15:18:49Z</time>
      </trkpt>
      <trkpt lat="51.634058011695743" lon="10.816932963207364">
        <ele>395.24000000000001</ele>
        <time>2017-05-21T15:18:54Z</time>
      </trkpt>
      <trkpt lat="51.633894983679056" lon="10.817139996215701">
        <ele>394.75999999999999</ele>
        <time>2017-05-21T15:18:55Z</time>
      </trkpt>
      <trkpt lat="51.633715024217963" lon="10.817317022010684">
        <ele>394.75999999999999</ele>
        <time>2017-05-21T15:18:56Z</time>
      </trkpt>
      <trkpt lat="51.633512014523149" lon="10.817456999793649">
        <ele>394.27999999999997</ele>
        <time>2017-05-21T15:18:57Z</time>
      </trkpt>
      <trkpt lat="51.633294001221657" lon="10.817559007555246">
        <ele>393.80000000000001</ele>
        <time>2017-05-21T15:18:58Z</time>
      </trkpt>
      <trkpt lat="51.633057966828346" lon="10.817642994225025">
        <ele>393.31999999999999</ele>
        <time>2017-05-21T15:18:59Z</time>
      </trkpt>
      <trkpt lat="51.631819037720561" lon="10.818216986954212">
        <ele>389.94999999999999</ele>
        <time>2017-05-21T15:19:05Z</time>
      </trkpt>
      <trkpt lat="51.631555007770658" lon="10.81825302913785">
        <ele>387.55000000000001</ele>
        <time>2017-05-21T15:19:07Z</time>
      </trkpt>
      <trkpt lat="51.631448976695538" lon="10.818217992782593">
        <ele>386.58999999999997</ele>
        <time>2017-05-21T15:19:08Z</time>
      </trkpt>
      <trkpt lat="51.6313680075109" lon="10.818112967535853">
        <ele>383.69999999999999</ele>
        <time>2017-05-21T15:19:09Z</time>
      </trkpt>
      <trkpt lat="51.631292989477515" lon="10.817984975874424">
        <ele>383.22000000000003</ele>
        <time>2017-05-21T15:19:10Z</time>
      </trkpt>
      <trkpt lat="51.631244961172342" lon="10.817743996158242">
        <ele>381.30000000000001</ele>
        <time>2017-05-21T15:19:11Z</time>
      </trkpt>
      <trkpt lat="51.631188970059156" lon="10.817542998120189">
        <ele>379.86000000000001</ele>
        <time>2017-05-21T15:19:12Z</time>
      </trkpt>
      <trkpt lat="51.6311090067029" lon="10.817383993417025">
        <ele>379.38</ele>
        <time>2017-05-21T15:19:13Z</time>
      </trkpt>
      <trkpt lat="51.631013033911586" lon="10.817274022847414">
        <ele>378.89999999999998</ele>
        <time>2017-05-21T15:19:14Z</time>
      </trkpt>
      <trkpt lat="51.630905997008085" lon="10.817199004814029">
        <ele>378.42000000000002</ele>
        <time>2017-05-21T15:19:15Z</time>
      </trkpt>
      <trkpt lat="51.630764007568359" lon="10.817168997600675">
        <ele>377.44999999999999</ele>
        <time>2017-05-21T15:19:16Z</time>
      </trkpt>
      <trkpt lat="51.630614977329969" lon="10.817197998985648">
        <ele>376.97000000000003</ele>
        <time>2017-05-21T15:19:17Z</time>
      </trkpt>
      <trkpt lat="51.630463013425469" lon="10.817279973998666">
        <ele>376.00999999999999</ele>
        <time>2017-05-21T15:19:18Z</time>
      </trkpt>
      <trkpt lat="51.630303002893925" lon="10.81739698536694">
        <ele>375.52999999999997</ele>
        <time>2017-05-21T15:19:19Z</time>
      </trkpt>
      <trkpt lat="51.630145004019141" lon="10.817565964534879">
        <ele>374.56999999999999</ele>
        <time>2017-05-21T15:19:20Z</time>
      </trkpt>
      <trkpt lat="51.629997985437512" lon="10.817768974229693">
        <ele>374.08999999999997</ele>
        <time>2017-05-21T15:19:21Z</time>
      </trkpt>
      <trkpt lat="51.629863036796451" lon="10.817965026944876">
        <ele>374.08999999999997</ele>
        <time>2017-05-21T15:19:22Z</time>
      </trkpt>
      <trkpt lat="51.629593977704644" lon="10.818271972239017">
        <ele>373.13</ele>
        <time>2017-05-21T15:19:24Z</time>
      </trkpt>
      <trkpt lat="51.629449976608157" lon="10.818371968343854">
        <ele>372.64999999999998</ele>
        <time>2017-05-21T15:19:25Z</time>
      </trkpt>
      <trkpt lat="51.629309998825192" lon="10.818396024405956">
        <ele>372.17000000000002</ele>
        <time>2017-05-21T15:19:26Z</time>
      </trkpt>
      <trkpt lat="51.629181001335382" lon="10.818356964737177">
        <ele>371.20999999999998</ele>
        <time>2017-05-21T15:19:27Z</time>
      </trkpt>
      <trkpt lat="51.629078993573785" lon="10.818255040794611">
        <ele>369.75999999999999</ele>
        <time>2017-05-21T15:19:28Z</time>
      </trkpt>
      <trkpt lat="51.629007998853922" lon="10.818056976422668">
        <ele>368.31999999999999</ele>
        <time>2017-05-21T15:19:29Z</time>
      </trkpt>
      <trkpt lat="51.628932980820537" lon="10.817834017798305">
        <ele>367.83999999999997</ele>
        <time>2017-05-21T15:19:30Z</time>
      </trkpt>
      <trkpt lat="51.628844970837235" lon="10.817591026425362">
        <ele>367.36000000000001</ele>
        <time>2017-05-21T15:19:31Z</time>
      </trkpt>
      <trkpt lat="51.628758972510695" lon="10.817392040044069">
        <ele>366.39999999999998</ele>
        <time>2017-05-21T15:19:32Z</time>
      </trkpt>
      <trkpt lat="51.628664005547762" lon="10.817220965400338">
        <ele>365.92000000000002</ele>
        <time>2017-05-21T15:19:33Z</time>
      </trkpt>
      <trkpt lat="51.628553029149771" lon="10.817098002880812">
        <ele>364.95999999999998</ele>
        <time>2017-05-21T15:19:34Z</time>
      </trkpt>
      <trkpt lat="51.62842302583158" lon="10.817019967362285">
        <ele>364.48000000000002</ele>
        <time>2017-05-21T15:19:35Z</time>
      </trkpt>
      <trkpt lat="51.628267960622907" lon="10.817003035917878">
        <ele>363.51999999999998</ele>
        <time>2017-05-21T15:19:36Z</time>
      </trkpt>
      <trkpt lat="51.628098981454968" lon="10.817045029252768">
        <ele>362.55000000000001</ele>
        <time>2017-05-21T15:19:37Z</time>
      </trkpt>
      <trkpt lat="51.627920027822256" lon="10.817144019529223">
        <ele>361.58999999999997</ele>
        <time>2017-05-21T15:19:38Z</time>
      </trkpt>
      <trkpt lat="51.627743002027273" lon="10.817280979827046">
        <ele>360.63</ele>
        <time>2017-05-21T15:19:39Z</time>
      </trkpt>
      <trkpt lat="51.62756497040391" lon="10.817434033378959">
        <ele>360.14999999999998</ele>
        <time>2017-05-21T15:19:40Z</time>
      </trkpt>
      <trkpt lat="51.626973962411284" lon="10.817800993099809">
        <ele>358.70999999999998</ele>
        <time>2017-05-21T15:19:43Z</time>
      </trkpt>
      <trkpt lat="51.625333959236741" lon="10.818336009979248">
        <ele>355.82999999999998</ele>
        <time>2017-05-21T15:19:50Z</time>
      </trkpt>
      <trkpt lat="51.625116029754281" lon="10.81836199387908">
        <ele>355.82999999999998</ele>
        <time>2017-05-21T15:19:51Z</time>
      </trkpt>
      <trkpt lat="51.624178010970354" lon="10.818267026916146">
        <ele>353.89999999999998</ele>
        <time>2017-05-21T15:19:56Z</time>
      </trkpt>
      <trkpt lat="51.624015988782048" lon="10.818197960034013">
        <ele>353.42000000000002</ele>
        <time>2017-05-21T15:19:57Z</time>
      </trkpt>
      <trkpt lat="51.623862013220787" lon="10.818108022212982">
        <ele>352.94</ele>
        <time>2017-05-21T15:19:58Z</time>
      </trkpt>
      <trkpt lat="51.623713988810778" lon="10.817982964217663">
        <ele>352.45999999999998</ele>
        <time>2017-05-21T15:19:59Z</time>
      </trkpt>
      <trkpt lat="51.623574011027813" lon="10.817821025848389">
        <ele>351.98000000000002</ele>
        <time>2017-05-21T15:20:00Z</time>
      </trkpt>
      <trkpt lat="51.623438978567719" lon="10.817616004496813">
        <ele>351.98000000000002</ele>
        <time>2017-05-21T15:20:01Z</time>
      </trkpt>
      <trkpt lat="51.623316016048193" lon="10.817359015345573">
        <ele>351.98000000000002</ele>
        <time>2017-05-21T15:20:02Z</time>
      </trkpt>
      <trkpt lat="51.623215014114976" lon="10.817070007324219">
        <ele>351.98000000000002</ele>
        <time>2017-05-21T15:20:03Z</time>
      </trkpt>
      <trkpt lat="51.623145025223494" lon="10.816756021231413">
        <ele>351.98000000000002</ele>
        <time>2017-05-21T15:20:04Z</time>
      </trkpt>
      <trkpt lat="51.623105965554714" lon="10.816400963813066">
        <ele>351.98000000000002</ele>
        <time>2017-05-21T15:20:05Z</time>
      </trkpt>
      <trkpt lat="51.62307595834136" lon="10.816030986607075">
        <ele>351.01999999999998</ele>
        <time>2017-05-21T15:20:06Z</time>
      </trkpt>
      <trkpt lat="51.622889963909984" lon="10.814188979566097">
        <ele>347.17000000000002</ele>
        <time>2017-05-21T15:20:12Z</time>
      </trkpt>
      <trkpt lat="51.622828021645546" lon="10.813945988193154">
        <ele>347.17000000000002</ele>
        <time>2017-05-21T15:20:13Z</time>
      </trkpt>
      <trkpt lat="51.622741017490625" lon="10.813709031790495">
        <ele>346.20999999999998</ele>
        <time>2017-05-21T15:20:14Z</time>
      </trkpt>
      <trkpt lat="51.622636998072267" lon="10.813446007668972">
        <ele>345.25</ele>
        <time>2017-05-21T15:20:15Z</time>
      </trkpt>
      <trkpt lat="51.622500959783792" lon="10.813209973275661">
        <ele>344.76999999999998</ele>
        <time>2017-05-21T15:20:16Z</time>
      </trkpt>
      <trkpt lat="51.622339021414518" lon="10.812991037964821">
        <ele>344.76999999999998</ele>
        <time>2017-05-21T15:20:17Z</time>
      </trkpt>
      <trkpt lat="51.622160989791155" lon="10.812812000513077">
        <ele>343.81</ele>
        <time>2017-05-21T15:20:18Z</time>
      </trkpt>
      <trkpt lat="51.621970972046256" lon="10.812675040215254">
        <ele>343.32999999999998</ele>
        <time>2017-05-21T15:20:19Z</time>
      </trkpt>
      <trkpt lat="51.621772991493344" lon="10.812571020796895">
        <ele>342.85000000000002</ele>
        <time>2017-05-21T15:20:20Z</time>
      </trkpt>
      <trkpt lat="51.621581967920065" lon="10.812479993328452">
        <ele>341.88999999999999</ele>
        <time>2017-05-21T15:20:21Z</time>
      </trkpt>
      <trkpt lat="51.620630035176873" lon="10.812062993645668">
        <ele>338.04000000000002</ele>
        <time>2017-05-21T15:20:27Z</time>
      </trkpt>
      <trkpt lat="51.620472958311439" lon="10.811964003369212">
        <ele>337.56</ele>
        <time>2017-05-21T15:20:28Z</time>
      </trkpt>
      <trkpt lat="51.6203230060637" lon="10.811784965917468">
        <ele>338.04000000000002</ele>
        <time>2017-05-21T15:20:29Z</time>
      </trkpt>
      <trkpt lat="51.620196020230651" lon="10.811597965657711">
        <ele>338.04000000000002</ele>
        <time>2017-05-21T15:20:30Z</time>
      </trkpt>
      <trkpt lat="51.620084038004279" lon="10.811369977891445">
        <ele>337.07999999999998</ele>
        <time>2017-05-21T15:20:31Z</time>
      </trkpt>
      <trkpt lat="51.619984041899443" lon="10.811132015660405">
        <ele>336.60000000000002</ele>
        <time>2017-05-21T15:20:32Z</time>
      </trkpt>
      <trkpt lat="51.619895026087761" lon="10.810877038165927">
        <ele>335.63999999999999</ele>
        <time>2017-05-21T15:20:33Z</time>
      </trkpt>
      <trkpt lat="51.619819002225995" lon="10.810614014044404">
        <ele>335.16000000000003</ele>
        <time>2017-05-21T15:20:34Z</time>
      </trkpt>
      <trkpt lat="51.619554972276092" lon="10.808576960116625">
        <ele>330.82999999999998</ele>
        <time>2017-05-21T15:20:40Z</time>
      </trkpt>
      <trkpt lat="51.619111988693476" lon="10.80572996288538">
        <ele>326.99000000000001</ele>
        <time>2017-05-21T15:20:46Z</time>
      </trkpt>
      <trkpt lat="51.618641009554267" lon="10.803459975868464">
        <ele>326.01999999999998</ele>
        <time>2017-05-21T15:20:51Z</time>
      </trkpt>
      <trkpt lat="51.61836901679635" lon="10.802367981523275">
        <ele>325.54000000000002</ele>
        <time>2017-05-21T15:20:54Z</time>
      </trkpt>
      <trkpt lat="51.618256028741598" lon="10.802065981552005">
        <ele>324.57999999999998</ele>
        <time>2017-05-21T15:20:55Z</time>
      </trkpt>
      <trkpt lat="51.618122002109885" lon="10.80179700627923">
        <ele>323.13999999999999</ele>
        <time>2017-05-21T15:20:56Z</time>
      </trkpt>
      <trkpt lat="51.617953022941947" lon="10.801547979936004">
        <ele>322.66000000000003</ele>
        <time>2017-05-21T15:20:57Z</time>
      </trkpt>
      <trkpt lat="51.617760993540287" lon="10.801326027140021">
        <ele>322.18000000000001</ele>
        <time>2017-05-21T15:20:58Z</time>
      </trkpt>
      <trkpt lat="51.617549015209079" lon="10.801114970818162">
        <ele>322.66000000000003</ele>
        <time>2017-05-21T15:20:59Z</time>
      </trkpt>
      <trkpt lat="51.616446962580085" lon="10.80003303475678">
        <ele>321.22000000000003</ele>
        <time>2017-05-21T15:21:05Z</time>
      </trkpt>
      <trkpt lat="51.616259962320328" lon="10.79999296925962">
        <ele>321.22000000000003</ele>
        <time>2017-05-21T15:21:06Z</time>
      </trkpt>
      <trkpt lat="51.616057036444545" lon="10.799979977309704">
        <ele>321.22000000000003</ele>
        <time>2017-05-21T15:21:07Z</time>
      </trkpt>
      <trkpt lat="51.614810982719064" lon="10.799882998690009">
        <ele>321.22000000000003</ele>
        <time>2017-05-21T15:21:12Z</time>
      </trkpt>
      <trkpt lat="51.613237028941512" lon="10.79962600953877">
        <ele>317.37</ele>
        <time>2017-05-21T15:21:19Z</time>
      </trkpt>
      <trkpt lat="51.612931005656719" lon="10.799532970413566">
        <ele>315.93000000000001</ele>
        <time>2017-05-21T15:21:21Z</time>
      </trkpt>
      <trkpt lat="51.612216029316187" lon="10.79943498596549">
        <ele>310.63999999999999</ele>
        <time>2017-05-21T15:21:27Z</time>
      </trkpt>
      <trkpt lat="51.612117039039731" lon="10.799459964036942">
        <ele>309.68000000000001</ele>
        <time>2017-05-21T15:21:28Z</time>
      </trkpt>
      <trkpt lat="51.612014025449753" lon="10.799486031755805">
        <ele>308.72000000000003</ele>
        <time>2017-05-21T15:21:29Z</time>
      </trkpt>
      <trkpt lat="51.611628960818052" lon="10.799642018973827">
        <ele>306.31999999999999</ele>
        <time>2017-05-21T15:21:33Z</time>
      </trkpt>
      <trkpt lat="51.611543968319893" lon="10.799642018973827">
        <ele>304.88</ele>
        <time>2017-05-21T15:21:34Z</time>
      </trkpt>
      <trkpt lat="51.611469034105539" lon="10.799629027023911">
        <ele>304.38999999999999</ele>
        <time>2017-05-21T15:21:35Z</time>
      </trkpt>
      <trkpt lat="51.611402984708548" lon="10.79956297762692">
        <ele>305.83999999999997</ele>
        <time>2017-05-21T15:21:36Z</time>
      </trkpt>
      <trkpt lat="51.611355962231755" lon="10.799474967643619">
        <ele>306.31999999999999</ele>
        <time>2017-05-21T15:21:37Z</time>
      </trkpt>
      <trkpt lat="51.611316986382008" lon="10.799344964325428">
        <ele>305.83999999999997</ele>
        <time>2017-05-21T15:21:38Z</time>
      </trkpt>
      <trkpt lat="51.611299971118569" lon="10.799213033169508">
        <ele>305.83999999999997</ele>
        <time>2017-05-21T15:21:39Z</time>
      </trkpt>
      <trkpt lat="51.611285973340273" lon="10.799044976010919">
        <ele>306.80000000000001</ele>
        <time>2017-05-21T15:21:40Z</time>
      </trkpt>
      <trkpt lat="51.611281028017402" lon="10.798863004893064">
        <ele>307.27999999999997</ele>
        <time>2017-05-21T15:21:41Z</time>
      </trkpt>
      <trkpt lat="51.611288990825415" lon="10.798679022118449">
        <ele>307.27999999999997</ele>
        <time>2017-05-21T15:21:42Z</time>
      </trkpt>
      <trkpt lat="51.611306006088853" lon="10.79848799854517">
        <ele>307.75999999999999</ele>
        <time>2017-05-21T15:21:43Z</time>
      </trkpt>
      <trkpt lat="51.611338024958968" lon="10.798283983021975">
        <ele>307.27999999999997</ele>
        <time>2017-05-21T15:21:44Z</time>
      </trkpt>
      <trkpt lat="51.611383035778999" lon="10.798072004690766">
        <ele>307.27999999999997</ele>
        <time>2017-05-21T15:21:45Z</time>
      </trkpt>
      <trkpt lat="51.611441960558295" lon="10.797859020531178">
        <ele>306.80000000000001</ele>
        <time>2017-05-21T15:21:46Z</time>
      </trkpt>
      <trkpt lat="51.611509015783668" lon="10.797652993351221">
        <ele>306.80000000000001</ele>
        <time>2017-05-21T15:21:47Z</time>
      </trkpt>
      <trkpt lat="51.611585039645433" lon="10.797441015020013">
        <ele>306.31999999999999</ele>
        <time>2017-05-21T15:21:48Z</time>
      </trkpt>
      <trkpt lat="51.611663997173309" lon="10.797244962304831">
        <ele>305.83999999999997</ele>
        <time>2017-05-21T15:21:49Z</time>
      </trkpt>
      <trkpt lat="51.612078985199332" lon="10.796395959332585">
        <ele>303.91000000000003</ele>
        <time>2017-05-21T15:21:54Z</time>
      </trkpt>
      <trkpt lat="51.612128019332886" lon="10.796220023185015">
        <ele>302.94999999999999</ele>
        <time>2017-05-21T15:21:55Z</time>
      </trkpt>
      <trkpt lat="51.612179987132549" lon="10.796034028753638">
        <ele>303.43000000000001</ele>
        <time>2017-05-21T15:21:56Z</time>
      </trkpt>
      <trkpt lat="51.612197002395988" lon="10.795821966603398">
        <ele>303.91000000000003</ele>
        <time>2017-05-21T15:21:57Z</time>
      </trkpt>
      <trkpt lat="51.612191973254085" lon="10.795600013807416">
        <ele>303.91000000000003</ele>
        <time>2017-05-21T15:21:58Z</time>
      </trkpt>
      <trkpt lat="51.612183004617691" lon="10.795390969142318">
        <ele>304.38999999999999</ele>
        <time>2017-05-21T15:21:59Z</time>
      </trkpt>
      <trkpt lat="51.61216196604073" lon="10.795192988589406">
        <ele>303.91000000000003</ele>
        <time>2017-05-21T15:22:00Z</time>
      </trkpt>
      <trkpt lat="51.612134976312518" lon="10.795003976672888">
        <ele>302.94999999999999</ele>
        <time>2017-05-21T15:22:01Z</time>
      </trkpt>
      <trkpt lat="51.611658968031406" lon="10.793458018451929">
        <ele>296.22000000000003</ele>
        <time>2017-05-21T15:22:09Z</time>
      </trkpt>
      <trkpt lat="51.611467022448778" lon="10.792872039601207">
        <ele>295.74000000000001</ele>
        <time>2017-05-21T15:22:12Z</time>
      </trkpt>
      <trkpt lat="51.611425029113889" lon="10.792661989107728">
        <ele>295.25999999999999</ele>
        <time>2017-05-21T15:22:13Z</time>
      </trkpt>
      <trkpt lat="51.611409019678831" lon="10.792439030483365">
        <ele>295.25999999999999</ele>
        <time>2017-05-21T15:22:14Z</time>
      </trkpt>
      <trkpt lat="51.611400973051786" lon="10.792223028838634">
        <ele>294.30000000000001</ele>
        <time>2017-05-21T15:22:15Z</time>
      </trkpt>
      <trkpt lat="51.611402984708548" lon="10.792013984173536">
        <ele>293.81999999999999</ele>
        <time>2017-05-21T15:22:16Z</time>
      </trkpt>
      <trkpt lat="51.611377000808716" lon="10.791584998369217">
        <ele>292.86000000000001</ele>
        <time>2017-05-21T15:22:18Z</time>
      </trkpt>
      <trkpt lat="51.611345987766981" lon="10.791387017816305">
        <ele>292.86000000000001</ele>
        <time>2017-05-21T15:22:19Z</time>
      </trkpt>
      <trkpt lat="51.611288990825415" lon="10.791193982586265">
        <ele>292.38</ele>
        <time>2017-05-21T15:22:20Z</time>
      </trkpt>
      <trkpt lat="51.611220007762313" lon="10.79101201146841">
        <ele>292.38</ele>
        <time>2017-05-21T15:22:21Z</time>
      </trkpt>
      <trkpt lat="51.611139960587025" lon="10.790838003158569">
        <ele>291.42000000000002</ele>
        <time>2017-05-21T15:22:22Z</time>
      </trkpt>
      <trkpt lat="51.611053040251136" lon="10.790681010112166">
        <ele>291.42000000000002</ele>
        <time>2017-05-21T15:22:23Z</time>
      </trkpt>
      <trkpt lat="51.610951032489538" lon="10.790529968217015">
        <ele>291.89999999999998</ele>
        <time>2017-05-21T15:22:24Z</time>
      </trkpt>
      <trkpt lat="51.610843995586038" lon="10.790387978777289">
        <ele>292.38</ele>
        <time>2017-05-21T15:22:25Z</time>
      </trkpt>
      <trkpt lat="51.610734025016427" lon="10.790268033742905">
        <ele>293.33999999999997</ele>
        <time>2017-05-21T15:22:26Z</time>
      </trkpt>
      <trkpt lat="51.610622964799404" lon="10.790150016546249">
        <ele>293.33999999999997</ele>
        <time>2017-05-21T15:22:27Z</time>
      </trkpt>
      <trkpt lat="51.609810004010797" lon="10.789398998022079">
        <ele>295.74000000000001</ele>
        <time>2017-05-21T15:22:34Z</time>
      </trkpt>
      <trkpt lat="51.60966700874269" lon="10.789324985817075">
        <ele>296.22000000000003</ele>
        <time>2017-05-21T15:22:35Z</time>
      </trkpt>
      <trkpt lat="51.609523007646203" lon="10.789283998310566">
        <ele>296.22000000000003</ele>
        <time>2017-05-21T15:22:36Z</time>
      </trkpt>
      <trkpt lat="51.60850896500051" lon="10.789174027740955">
        <ele>298.14999999999998</ele>
        <time>2017-05-21T15:22:41Z</time>
      </trkpt>
      <trkpt lat="51.607379000633955" lon="10.789245022460818">
        <ele>298.63</ele>
        <time>2017-05-21T15:22:46Z</time>
      </trkpt>
      <trkpt lat="51.607154030352831" lon="10.789316017180681">
        <ele>298.63</ele>
        <time>2017-05-21T15:22:47Z</time>
      </trkpt>
      <trkpt lat="51.605807980522513" lon="10.789533024653792">
        <ele>298.63</ele>
        <time>2017-05-21T15:22:53Z</time>
      </trkpt>
      <trkpt lat="51.604394037276506" lon="10.789868971332908">
        <ele>296.69999999999999</ele>
        <time>2017-05-21T15:23:01Z</time>
      </trkpt>
      <trkpt lat="51.604087008163333" lon="10.789894033223391">
        <ele>296.69999999999999</ele>
        <time>2017-05-21T15:23:03Z</time>
      </trkpt>
      <trkpt lat="51.603968990966678" lon="10.789881963282824">
        <ele>296.22000000000003</ele>
        <time>2017-05-21T15:23:04Z</time>
      </trkpt>
      <trkpt lat="51.603875029832125" lon="10.789832007139921">
        <ele>296.69999999999999</ele>
        <time>2017-05-21T15:23:05Z</time>
      </trkpt>
      <trkpt lat="51.603805040940642" lon="10.789735028520226">
        <ele>297.18000000000001</ele>
        <time>2017-05-21T15:23:06Z</time>
      </trkpt>
      <trkpt lat="51.603748966008425" lon="10.78959496691823">
        <ele>297.67000000000002</ele>
        <time>2017-05-21T15:23:07Z</time>
      </trkpt>
      <trkpt lat="51.603675959631801" lon="10.789386006072164">
        <ele>297.67000000000002</ele>
        <time>2017-05-21T15:23:08Z</time>
      </trkpt>
      <trkpt lat="51.603602031245828" lon="10.78916204161942">
        <ele>297.18000000000001</ele>
        <time>2017-05-21T15:23:09Z</time>
      </trkpt>
      <trkpt lat="51.603327021002769" lon="10.788228968158364">
        <ele>296.69999999999999</ele>
        <time>2017-05-21T15:23:13Z</time>
      </trkpt>
      <trkpt lat="51.603298019617796" lon="10.788025036454201">
        <ele>297.18000000000001</ele>
        <time>2017-05-21T15:23:14Z</time>
      </trkpt>
      <trkpt lat="51.603301959112287" lon="10.787837030366063">
        <ele>296.69999999999999</ele>
        <time>2017-05-21T15:23:15Z</time>
      </trkpt>
      <trkpt lat="51.603351999074221" lon="10.787642989307642">
        <ele>296.69999999999999</ele>
        <time>2017-05-21T15:23:16Z</time>
      </trkpt>
      <trkpt lat="51.603420982137322" lon="10.78742497600615">
        <ele>297.67000000000002</ele>
        <time>2017-05-21T15:23:17Z</time>
      </trkpt>
      <trkpt lat="51.603708984330297" lon="10.786414034664631">
        <ele>297.18000000000001</ele>
        <time>2017-05-21T15:23:22Z</time>
      </trkpt>
      <trkpt lat="51.603743014857173" lon="10.786208007484674">
        <ele>296.69999999999999</ele>
        <time>2017-05-21T15:23:23Z</time>
      </trkpt>
      <trkpt lat="51.603733962401748" lon="10.785992005839944">
        <ele>294.77999999999997</ele>
        <time>2017-05-21T15:23:24Z</time>
      </trkpt>
      <trkpt lat="51.603722982108593" lon="10.785792013630271">
        <ele>294.30000000000001</ele>
        <time>2017-05-21T15:23:25Z</time>
      </trkpt>
      <trkpt lat="51.603696998208761" lon="10.78559797257185">
        <ele>294.77999999999997</ele>
        <time>2017-05-21T15:23:26Z</time>
      </trkpt>
      <trkpt lat="51.603655004873872" lon="10.785427987575531">
        <ele>294.77999999999997</ele>
        <time>2017-05-21T15:23:27Z</time>
      </trkpt>
      <trkpt lat="51.603609994053841" lon="10.785273006185889">
        <ele>294.77999999999997</ele>
        <time>2017-05-21T15:23:28Z</time>
      </trkpt>
      <trkpt lat="51.603546962141991" lon="10.785036971792579">
        <ele>295.25999999999999</ele>
        <time>2017-05-21T15:23:30Z</time>
      </trkpt>
      <trkpt lat="51.603541010990739" lon="10.784947033971548">
        <ele>295.74000000000001</ele>
        <time>2017-05-21T15:23:31Z</time>
      </trkpt>
      <trkpt lat="51.603559032082558" lon="10.784882996231318">
        <ele>295.74000000000001</ele>
        <time>2017-05-21T15:23:32Z</time>
      </trkpt>
      <trkpt lat="51.603599013760686" lon="10.784821975976229">
        <ele>295.74000000000001</ele>
        <time>2017-05-21T15:23:33Z</time>
      </trkpt>
      <trkpt lat="51.603653999045491" lon="10.784747963771224">
        <ele>295.25999999999999</ele>
        <time>2017-05-21T15:23:34Z</time>
      </trkpt>
      <trkpt lat="51.603791965171695" lon="10.784502038732171">
        <ele>295.74000000000001</ele>
        <time>2017-05-21T15:23:36Z</time>
      </trkpt>
      <trkpt lat="51.604340979829431" lon="10.782955996692181">
        <ele>296.69999999999999</ele>
        <time>2017-05-21T15:23:43Z</time>
      </trkpt>
      <trkpt lat="51.605153018608689" lon="10.780299017205834">
        <ele>302.47000000000003</ele>
        <time>2017-05-21T15:23:52Z</time>
      </trkpt>
      <trkpt lat="51.606541983783245" lon="10.777510022744536">
        <ele>310.16000000000003</ele>
        <time>2017-05-21T15:24:02Z</time>
      </trkpt>
      <trkpt lat="51.6075390111655" lon="10.776256006211042">
        <ele>313.52999999999997</ele>
        <time>2017-05-21T15:24:08Z</time>
      </trkpt>
      <trkpt lat="51.607723999768496" lon="10.776110999286175">
        <ele>314.49000000000001</ele>
        <time>2017-05-21T15:24:09Z</time>
      </trkpt>
      <trkpt lat="51.607935978099704" lon="10.776017960160971">
        <ele>315.44999999999999</ele>
        <time>2017-05-21T15:24:10Z</time>
      </trkpt>
      <trkpt lat="51.608145022764802" lon="10.77592802233994">
        <ele>316.41000000000003</ele>
        <time>2017-05-21T15:24:11Z</time>
      </trkpt>
      <trkpt lat="51.608369993045926" lon="10.775879994034767">
        <ele>317.37</ele>
        <time>2017-05-21T15:24:12Z</time>
      </trkpt>
      <trkpt lat="51.608600998297334" lon="10.775844035670161">
        <ele>317.85000000000002</ele>
        <time>2017-05-21T15:24:13Z</time>
      </trkpt>
      <trkpt lat="51.610357007011771" lon="10.775372972711921">
        <ele>323.13999999999999</ele>
        <time>2017-05-21T15:24:21Z</time>
      </trkpt>
      <trkpt lat="51.610778030008078" lon="10.775292003527284">
        <ele>324.57999999999998</ele>
        <time>2017-05-21T15:24:23Z</time>
      </trkpt>
      <trkpt lat="51.610997971147299" lon="10.775295021012425">
        <ele>325.06</ele>
        <time>2017-05-21T15:24:24Z</time>
      </trkpt>
      <trkpt lat="51.612558010965586" lon="10.775643959641457">
        <ele>329.87</ele>
        <time>2017-05-21T15:24:31Z</time>
      </trkpt>
      <trkpt lat="51.613915041089058" lon="10.776343010365963">
        <ele>335.63999999999999</ele>
        <time>2017-05-21T15:24:38Z</time>
      </trkpt>
      <trkpt lat="51.614039009436965" lon="10.776435965672135">
        <ele>337.56</ele>
        <time>2017-05-21T15:24:39Z</time>
      </trkpt>
      <trkpt lat="51.614185022190213" lon="10.776484999805689">
        <ele>339</ele>
        <time>2017-05-21T15:24:40Z</time>
      </trkpt>
      <trkpt lat="51.614345032721758" lon="10.776471002027392">
        <ele>339.48000000000002</ele>
        <time>2017-05-21T15:24:41Z</time>
      </trkpt>
      <trkpt lat="51.614484004676342" lon="10.776404030621052">
        <ele>339.95999999999998</ele>
        <time>2017-05-21T15:24:42Z</time>
      </trkpt>
      <trkpt lat="51.614606967195868" lon="10.776255000382662">
        <ele>340.92000000000002</ele>
        <time>2017-05-21T15:24:43Z</time>
      </trkpt>
      <trkpt lat="51.614711992442608" lon="10.776070011779666">
        <ele>342.37</ele>
        <time>2017-05-21T15:24:44Z</time>
      </trkpt>
      <trkpt lat="51.614784998819232" lon="10.775847975164652">
        <ele>343.32999999999998</ele>
        <time>2017-05-21T15:24:45Z</time>
      </trkpt>
      <trkpt lat="51.614827997982502" lon="10.775574976578355">
        <ele>344.76999999999998</ele>
        <time>2017-05-21T15:24:46Z</time>
      </trkpt>
      <trkpt lat="51.614851970225573" lon="10.775285968557">
        <ele>346.69</ele>
        <time>2017-05-21T15:24:47Z</time>
      </trkpt>
      <trkpt lat="51.614869991317391" lon="10.774965025484562">
        <ele>348.13</ele>
        <time>2017-05-21T15:24:48Z</time>
      </trkpt>
      <trkpt lat="51.614788016304374" lon="10.772971976548433">
        <ele>357.26999999999998</ele>
        <time>2017-05-21T15:24:54Z</time>
      </trkpt>
      <trkpt lat="51.614822968840599" lon="10.771970003843307">
        <ele>360.63</ele>
        <time>2017-05-21T15:24:58Z</time>
      </trkpt>
      <trkpt lat="51.614896981045604" lon="10.771732041612267">
        <ele>361.58999999999997</ele>
        <time>2017-05-21T15:24:59Z</time>
      </trkpt>
      <trkpt lat="51.614993959665298" lon="10.771499024704099">
        <ele>362.55000000000001</ele>
        <time>2017-05-21T15:25:00Z</time>
      </trkpt>
      <trkpt lat="51.615114994347095" lon="10.771274976432323">
        <ele>362.55000000000001</ele>
        <time>2017-05-21T15:25:01Z</time>
      </trkpt>
      <trkpt lat="51.615238040685654" lon="10.771067021414638">
        <ele>363.51999999999998</ele>
        <time>2017-05-21T15:25:02Z</time>
      </trkpt>
      <trkpt lat="51.615372989326715" lon="10.770885972306132">
        <ele>363.51999999999998</ele>
        <time>2017-05-21T15:25:03Z</time>
      </trkpt>
      <trkpt lat="51.615528976544738" lon="10.770726967602968">
        <ele>364</ele>
        <time>2017-05-21T15:25:04Z</time>
      </trkpt>
      <trkpt lat="51.615698961541057" lon="10.77062102034688">
        <ele>364.48000000000002</ele>
        <time>2017-05-21T15:25:05Z</time>
      </trkpt>
      <trkpt lat="51.615864001214504" lon="10.770520018413663">
        <ele>364.48000000000002</ele>
        <time>2017-05-21T15:25:06Z</time>
      </trkpt>
      <trkpt lat="51.617222959175706" lon="10.769753996282816">
        <ele>367.36000000000001</ele>
        <time>2017-05-21T15:25:14Z</time>
      </trkpt>
      <trkpt lat="51.617381041869521" lon="10.769607983529568">
        <ele>368.31999999999999</ele>
        <time>2017-05-21T15:25:15Z</time>
      </trkpt>
      <trkpt lat="51.617539962753654" lon="10.769441016018391">
        <ele>370.24000000000001</ele>
        <time>2017-05-21T15:25:16Z</time>
      </trkpt>
      <trkpt lat="51.619025990366936" lon="10.767319975420833">
        <ele>383.69999999999999</ele>
        <time>2017-05-21T15:25:26Z</time>
      </trkpt>
      <trkpt lat="51.619127998128533" lon="10.767027027904987">
        <ele>385.63</ele>
        <time>2017-05-21T15:25:27Z</time>
      </trkpt>
      <trkpt lat="51.619230005890131" lon="10.76671103015542">
        <ele>389.47000000000003</ele>
        <time>2017-05-21T15:25:28Z</time>
      </trkpt>
      <trkpt lat="51.619462016969919" lon="10.765768988057971">
        <ele>392.83999999999997</ele>
        <time>2017-05-21T15:25:31Z</time>
      </trkpt>
      <trkpt lat="51.619579028338194" lon="10.765456007793546">
        <ele>393.80000000000001</ele>
        <time>2017-05-21T15:25:32Z</time>
      </trkpt>
      <trkpt lat="51.62047597579658" lon="10.763544011861086">
        <ele>399.07999999999998</ele>
        <time>2017-05-21T15:25:39Z</time>
      </trkpt>
      <trkpt lat="51.620641015470028" lon="10.763362962752581">
        <ele>401.00999999999999</ele>
        <time>2017-05-21T15:25:40Z</time>
      </trkpt>
      <trkpt lat="51.620823992416263" lon="10.763223990797997">
        <ele>401.49000000000001</ele>
        <time>2017-05-21T15:25:41Z</time>
      </trkpt>
      <trkpt lat="51.621024990454316" lon="10.763122988864779">
        <ele>402.93000000000001</ele>
        <time>2017-05-21T15:25:42Z</time>
      </trkpt>
      <trkpt lat="51.621235962957144" lon="10.763045959174633">
        <ele>404.37</ele>
        <time>2017-05-21T15:25:43Z</time>
      </trkpt>
      <trkpt lat="51.62161398679018" lon="10.762854013592005">
        <ele>406.76999999999998</ele>
        <time>2017-05-21T15:25:45Z</time>
      </trkpt>
      <trkpt lat="51.621781038120389" lon="10.762703977525234">
        <ele>407.74000000000001</ele>
        <time>2017-05-21T15:25:46Z</time>
      </trkpt>
      <trkpt lat="51.621929984539747" lon="10.762502979487181">
        <ele>409.18000000000001</ele>
        <time>2017-05-21T15:25:47Z</time>
      </trkpt>
      <trkpt lat="51.622054958716035" lon="10.762257976457477">
        <ele>409.66000000000003</ele>
        <time>2017-05-21T15:25:48Z</time>
      </trkpt>
      <trkpt lat="51.622118996456265" lon="10.761958993971348">
        <ele>408.22000000000003</ele>
        <time>2017-05-21T15:25:49Z</time>
      </trkpt>
      <trkpt lat="51.62217297591269" lon="10.761624975129962">
        <ele>408.22000000000003</ele>
        <time>2017-05-21T15:25:50Z</time>
      </trkpt>
      <trkpt lat="51.622203988954425" lon="10.761273019015789">
        <ele>408.69999999999999</ele>
        <time>2017-05-21T15:25:51Z</time>
      </trkpt>
      <trkpt lat="51.622230978682637" lon="10.760906981304288">
        <ele>408.69999999999999</ele>
        <time>2017-05-21T15:25:52Z</time>
      </trkpt>
      <trkpt lat="51.622336003929377" lon="10.760169038549066">
        <ele>409.18000000000001</ele>
        <time>2017-05-21T15:25:54Z</time>
      </trkpt>
      <trkpt lat="51.622438011690974" lon="10.759794032201171">
        <ele>411.57999999999998</ele>
        <time>2017-05-21T15:25:55Z</time>
      </trkpt>
      <trkpt lat="51.623571999371052" lon="10.756387962028384">
        <ele>424.56</ele>
        <time>2017-05-21T15:26:04Z</time>
      </trkpt>
      <trkpt lat="51.62425403483212" lon="10.754746031016111">
        <ele>430.32999999999998</ele>
        <time>2017-05-21T15:26:09Z</time>
      </trkpt>
      <trkpt lat="51.624336009845138" lon="10.754397008568048">
        <ele>431.29000000000002</ele>
        <time>2017-05-21T15:26:10Z</time>
      </trkpt>
      <trkpt lat="51.62438596598804" lon="10.754025019705296">
        <ele>432.25</ele>
        <time>2017-05-21T15:26:11Z</time>
      </trkpt>
      <trkpt lat="51.624412033706903" lon="10.753638027235866">
        <ele>433.69</ele>
        <time>2017-05-21T15:26:12Z</time>
      </trkpt>
      <trkpt lat="51.624419996514916" lon="10.753242988139391">
        <ele>435.13</ele>
        <time>2017-05-21T15:26:13Z</time>
      </trkpt>
      <trkpt lat="51.624513035640121" lon="10.751756960526109">
        <ele>440.42000000000002</ele>
        <time>2017-05-21T15:26:17Z</time>
      </trkpt>
      <trkpt lat="51.624585036188364" lon="10.751405004411936">
        <ele>441.86000000000001</ele>
        <time>2017-05-21T15:26:18Z</time>
      </trkpt>
      <trkpt lat="51.624681008979678" lon="10.751063022762537">
        <ele>443.79000000000002</ele>
        <time>2017-05-21T15:26:19Z</time>
      </trkpt>
      <trkpt lat="51.624790979549289" lon="10.750733027234674">
        <ele>445.23000000000002</ele>
        <time>2017-05-21T15:26:20Z</time>
      </trkpt>
      <trkpt lat="51.624915031716228" lon="10.750412000343204">
        <ele>446.67000000000002</ele>
        <time>2017-05-21T15:26:21Z</time>
      </trkpt>
      <trkpt lat="51.62505199201405" lon="10.750103965401649">
        <ele>448.11000000000001</ele>
        <time>2017-05-21T15:26:22Z</time>
      </trkpt>
      <trkpt lat="51.625206973403692" lon="10.749802971258759">
        <ele>450.02999999999997</ele>
        <time>2017-05-21T15:26:23Z</time>
      </trkpt>
      <trkpt lat="51.626437017694116" lon="10.747277000918984">
        <ele>464.44999999999999</ele>
        <time>2017-05-21T15:26:31Z</time>
      </trkpt>
      <trkpt lat="51.627534963190556" lon="10.743255028501153">
        <ele>481.27999999999997</ele>
        <time>2017-05-21T15:26:41Z</time>
      </trkpt>
      <trkpt lat="51.627802010625601" lon="10.742149036377668">
        <ele>484.63999999999999</ele>
        <time>2017-05-21T15:26:44Z</time>
      </trkpt>
      <trkpt lat="51.627860013395548" lon="10.741764977574348">
        <ele>485.60000000000002</ele>
        <time>2017-05-21T15:26:45Z</time>
      </trkpt>
      <trkpt lat="51.628083977848291" lon="10.739737981930375">
        <ele>490.41000000000003</ele>
        <time>2017-05-21T15:26:50Z</time>
      </trkpt>
      <trkpt lat="51.62881001830101" lon="10.736935995519161">
        <ele>499.54000000000002</ele>
        <time>2017-05-21T15:26:57Z</time>
      </trkpt>
      <trkpt lat="51.629204973578453" lon="10.734016997739673">
        <ele>506.75</ele>
        <time>2017-05-21T15:27:04Z</time>
      </trkpt>
      <trkpt lat="51.629438996315002" lon="10.732897007837892">
        <ele>510.60000000000002</ele>
        <time>2017-05-21T15:27:07Z</time>
      </trkpt>
      <trkpt lat="51.629577968269587" lon="10.732539016753435">
        <ele>513.48000000000002</ele>
        <time>2017-05-21T15:27:08Z</time>
      </trkpt>
      <trkpt lat="51.629962027072906" lon="10.73151801712811">
        <ele>516.37</ele>
        <time>2017-05-21T15:27:11Z</time>
      </trkpt>
      <trkpt lat="51.630050959065557" lon="10.731149967759848">
        <ele>517.33000000000004</ele>
        <time>2017-05-21T15:27:12Z</time>
      </trkpt>
      <trkpt lat="51.630096975713968" lon="10.730758029967546">
        <ele>519.73000000000002</ele>
        <time>2017-05-21T15:27:13Z</time>
      </trkpt>
      <trkpt lat="51.630111979320645" lon="10.730360979214311">
        <ele>521.16999999999996</ele>
        <time>2017-05-21T15:27:14Z</time>
      </trkpt>
      <trkpt lat="51.630100999027491" lon="10.729960994794965">
        <ele>522.13</ele>
        <time>2017-05-21T15:27:15Z</time>
      </trkpt>
      <trkpt lat="51.630079038441181" lon="10.729552041739225">
        <ele>524.05999999999995</ele>
        <time>2017-05-21T15:27:16Z</time>
      </trkpt>
      <trkpt lat="51.630021035671234" lon="10.728054028004408">
        <ele>530.78999999999996</ele>
        <time>2017-05-21T15:27:20Z</time>
      </trkpt>
      <trkpt lat="51.630059005692601" lon="10.727707017213106">
        <ele>532.23000000000002</ele>
        <time>2017-05-21T15:27:21Z</time>
      </trkpt>
      <trkpt lat="51.630128994584084" lon="10.727364029735327">
        <ele>533.66999999999996</ele>
        <time>2017-05-21T15:27:22Z</time>
      </trkpt>
      <trkpt lat="51.630223961547017" lon="10.727019030600786">
        <ele>536.07000000000005</ele>
        <time>2017-05-21T15:27:23Z</time>
      </trkpt>
      <trkpt lat="51.630323035642505" lon="10.726708984002471">
        <ele>538.48000000000002</ele>
        <time>2017-05-21T15:27:24Z</time>
      </trkpt>
      <trkpt lat="51.63042102009058" lon="10.726446965709329">
        <ele>540.39999999999998</ele>
        <time>2017-05-21T15:27:25Z</time>
      </trkpt>
      <trkpt lat="51.630945978686213" lon="10.725191021338105">
        <ele>545.69000000000005</ele>
        <time>2017-05-21T15:27:32Z</time>
      </trkpt>
      <trkpt lat="51.631493987515569" lon="10.723451022058725">
        <ele>557.70000000000005</ele>
        <time>2017-05-21T15:27:43Z</time>
      </trkpt>
      <trkpt lat="51.631704038009048" lon="10.722890021279454">
        <ele>559.62</ele>
        <time>2017-05-21T15:27:47Z</time>
      </trkpt>
      <trkpt lat="51.631767991930246" lon="10.722772004082799">
        <ele>559.62</ele>
        <time>2017-05-21T15:27:48Z</time>
      </trkpt>
      <trkpt lat="51.631837980821729" lon="10.722663961350918">
        <ele>559.62</ele>
        <time>2017-05-21T15:27:49Z</time>
      </trkpt>
      <trkpt lat="51.631920039653778" lon="10.722577963024378">
        <ele>559.13999999999999</ele>
        <time>2017-05-21T15:27:50Z</time>
      </trkpt>
      <trkpt lat="51.632010983303189" lon="10.722522977739573">
        <ele>558.17999999999995</ele>
        <time>2017-05-21T15:27:51Z</time>
      </trkpt>
      <trkpt lat="51.632110979408026" lon="10.722486013546586">
        <ele>558.17999999999995</ele>
        <time>2017-05-21T15:27:52Z</time>
      </trkpt>
      <trkpt lat="51.632212987169623" lon="10.722463969141245">
        <ele>557.70000000000005</ele>
        <time>2017-05-21T15:27:53Z</time>
      </trkpt>
      <trkpt lat="51.632322035729885" lon="10.722448965534568">
        <ele>556.74000000000001</ele>
        <time>2017-05-21T15:27:54Z</time>
      </trkpt>
      <trkpt lat="51.632438041269779" lon="10.722443014383316">
        <ele>555.77999999999997</ele>
        <time>2017-05-21T15:27:55Z</time>
      </trkpt>
      <trkpt lat="51.633191993460059" lon="10.722554996609688">
        <ele>557.22000000000003</ele>
        <time>2017-05-21T15:28:02Z</time>
      </trkpt>
      <trkpt lat="51.633303975686431" lon="10.722563965246081">
        <ele>557.70000000000005</ele>
        <time>2017-05-21T15:28:03Z</time>
      </trkpt>
      <trkpt lat="51.633531963452697" lon="10.722532030194998">
        <ele>559.62</ele>
        <time>2017-05-21T15:28:05Z</time>
      </trkpt>
      <trkpt lat="51.633645035326481" lon="10.722492970526218">
        <ele>561.07000000000005</ele>
        <time>2017-05-21T15:28:06Z</time>
      </trkpt>
      <trkpt lat="51.633760035037994" lon="10.722427004948258">
        <ele>562.02999999999997</ele>
        <time>2017-05-21T15:28:07Z</time>
      </trkpt>
      <trkpt lat="51.633876962587237" lon="10.7223229855299">
        <ele>563.47000000000003</ele>
        <time>2017-05-21T15:28:08Z</time>
      </trkpt>
      <trkpt lat="51.633999003097415" lon="10.722190970554948">
        <ele>563.95000000000005</ele>
        <time>2017-05-21T15:28:09Z</time>
      </trkpt>
      <trkpt lat="51.635059984400868" lon="10.720986993983388">
        <ele>571.15999999999997</ele>
        <time>2017-05-21T15:28:16Z</time>
      </trkpt>
      <trkpt lat="51.636360017582774" lon="10.71946601383388">
        <ele>574.03999999999996</ele>
        <time>2017-05-21T15:28:24Z</time>
      </trkpt>
      <trkpt lat="51.636499995365739" lon="10.719191003590822">
        <ele>574.03999999999996</ele>
        <time>2017-05-21T15:28:25Z</time>
      </trkpt>
      <trkpt lat="51.636609965935349" lon="10.718883974477649">
        <ele>573.55999999999995</ele>
        <time>2017-05-21T15:28:26Z</time>
      </trkpt>
      <trkpt lat="51.636690013110638" lon="10.718549033626914">
        <ele>573.08000000000004</ele>
        <time>2017-05-21T15:28:27Z</time>
      </trkpt>
      <trkpt lat="51.636752039194107" lon="10.718185007572174">
        <ele>573.55999999999995</ele>
        <time>2017-05-21T15:28:28Z</time>
      </trkpt>
      <trkpt lat="51.636798977851868" lon="10.717817964032292">
        <ele>574.03999999999996</ele>
        <time>2017-05-21T15:28:29Z</time>
      </trkpt>
      <trkpt lat="51.637280015274882" lon="10.71446000598371">
        <ele>576.92999999999995</ele>
        <time>2017-05-21T15:28:38Z</time>
      </trkpt>
      <trkpt lat="51.637825006619096" lon="10.712017016485333">
        <ele>576.45000000000005</ele>
        <time>2017-05-21T15:28:46Z</time>
      </trkpt>
      <trkpt lat="51.638015024363995" lon="10.710640959441662">
        <ele>574.52999999999997</ele>
        <time>2017-05-21T15:28:51Z</time>
      </trkpt>
      <trkpt lat="51.638376032933593" lon="10.708254966884851">
        <ele>576.92999999999995</ele>
        <time>2017-05-21T15:28:58Z</time>
      </trkpt>
      <trkpt lat="51.638943990692496" lon="10.704227965325117">
        <ele>575.97000000000003</ele>
        <time>2017-05-21T15:29:08Z</time>
      </trkpt>
      <trkpt lat="51.639226041734219" lon="10.702854003757238">
        <ele>573.08000000000004</ele>
        <time>2017-05-21T15:29:12Z</time>
      </trkpt>
      <trkpt lat="51.639350010082126" lon="10.702563989907503">
        <ele>572.12</ele>
        <time>2017-05-21T15:29:13Z</time>
      </trkpt>
      <trkpt lat="51.639503985643387" lon="10.702288979664445">
        <ele>571.15999999999997</ele>
        <time>2017-05-21T15:29:14Z</time>
      </trkpt>
      <trkpt lat="51.640760013833642" lon="10.700243040919304">
        <ele>569.24000000000001</ele>
        <time>2017-05-21T15:29:22Z</time>
      </trkpt>
      <trkpt lat="51.6413579788059" lon="10.699216006323695">
        <ele>570.20000000000005</ele>
        <time>2017-05-21T15:29:26Z</time>
      </trkpt>
      <trkpt lat="51.641455041244626" lon="10.698916018009186">
        <ele>571.15999999999997</ele>
        <time>2017-05-21T15:29:27Z</time>
      </trkpt>
      <trkpt lat="51.641498962417245" lon="10.698525002226233">
        <ele>573.08000000000004</ele>
        <time>2017-05-21T15:29:28Z</time>
      </trkpt>
      <trkpt lat="51.64187204092741" lon="10.69542302750051">
        <ele>582.70000000000005</ele>
        <time>2017-05-21T15:29:36Z</time>
      </trkpt>
      <trkpt lat="51.642009001225233" lon="10.694681983441114">
        <ele>585.10000000000002</ele>
        <time>2017-05-21T15:29:38Z</time>
      </trkpt>
      <trkpt lat="51.64210899733007" lon="10.694361040368676">
        <ele>586.53999999999996</ele>
        <time>2017-05-21T15:29:39Z</time>
      </trkpt>
      <trkpt lat="51.642223997041583" lon="10.694076977670193">
        <ele>587.5</ele>
        <time>2017-05-21T15:29:40Z</time>
      </trkpt>
      <trkpt lat="51.642369003966451" lon="10.693832980468869">
        <ele>588.46000000000004</ele>
        <time>2017-05-21T15:29:41Z</time>
      </trkpt>
      <trkpt lat="51.642545023933053" lon="10.693632988259196">
        <ele>589.42999999999995</ele>
        <time>2017-05-21T15:29:42Z</time>
      </trkpt>
      <trkpt lat="51.642735963687301" lon="10.693450011312962">
        <ele>589.90999999999997</ele>
        <time>2017-05-21T15:29:43Z</time>
      </trkpt>
      <trkpt lat="51.642941990867257" lon="10.693268962204456">
        <ele>590.87</ele>
        <time>2017-05-21T15:29:44Z</time>
      </trkpt>
      <trkpt lat="51.644771005958319" lon="10.691732978448272">
        <ele>598.08000000000004</ele>
        <time>2017-05-21T15:29:53Z</time>
      </trkpt>
      <trkpt lat="51.644915007054806" lon="10.691523011773825">
        <ele>599.03999999999996</ele>
        <time>2017-05-21T15:29:54Z</time>
      </trkpt>
      <trkpt lat="51.645979005843401" lon="10.68968896754086">
        <ele>595.66999999999996</ele>
        <time>2017-05-21T15:30:01Z</time>
      </trkpt>
      <trkpt lat="51.646166006103158" lon="10.689497021958232">
        <ele>594.71000000000004</ele>
        <time>2017-05-21T15:30:02Z</time>
      </trkpt>
      <trkpt lat="51.646368009969592" lon="10.689330976456404">
        <ele>593.26999999999998</ele>
        <time>2017-05-21T15:30:03Z</time>
      </trkpt>
      <trkpt lat="51.646576970815659" lon="10.689184963703156">
        <ele>591.35000000000002</ele>
        <time>2017-05-21T15:30:04Z</time>
      </trkpt>
      <trkpt lat="51.646817028522491" lon="10.689048003405333">
        <ele>590.87</ele>
        <time>2017-05-21T15:30:05Z</time>
      </trkpt>
      <trkpt lat="51.648980984464288" lon="10.687879985198379">
        <ele>581.73000000000002</ele>
        <time>2017-05-21T15:30:13Z</time>
      </trkpt>
      <trkpt lat="51.65139002725482" lon="10.68659202195704">
        <ele>571.15999999999997</ele>
        <time>2017-05-21T15:30:22Z</time>
      </trkpt>
      <trkpt lat="51.652068039402366" lon="10.686155995354056">
        <ele>569.24000000000001</ele>
        <time>2017-05-21T15:30:25Z</time>
      </trkpt>
      <trkpt lat="51.652284963056445" lon="10.685932030901313">
        <ele>567.79999999999995</ele>
        <time>2017-05-21T15:30:26Z</time>
      </trkpt>
      <trkpt lat="51.653530010953546" lon="10.684385988861322">
        <ele>563.47000000000003</ele>
        <time>2017-05-21T15:30:32Z</time>
      </trkpt>
      <trkpt lat="51.654154965654016" lon="10.683751981705427">
        <ele>563.47000000000003</ele>
        <time>2017-05-21T15:30:35Z</time>
      </trkpt>
      <trkpt lat="51.654384965077043" lon="10.68362801335752">
        <ele>564.42999999999995</ele>
        <time>2017-05-21T15:30:36Z</time>
      </trkpt>
      <trkpt lat="51.656911019235849" lon="10.682534007355571">
        <ele>562.99000000000001</ele>
        <time>2017-05-21T15:30:46Z</time>
      </trkpt>
      <trkpt lat="51.65975097566843" lon="10.681333970278502">
        <ele>564.42999999999995</ele>
        <time>2017-05-21T15:30:57Z</time>
      </trkpt>
      <trkpt lat="51.65996597148478" lon="10.681245038285851">
        <ele>565.87</ele>
        <time>2017-05-21T15:30:58Z</time>
      </trkpt>
      <trkpt lat="51.660126987844706" lon="10.681129032745957">
        <ele>568.75999999999999</ele>
        <time>2017-05-21T15:30:59Z</time>
      </trkpt>
      <trkpt lat="51.660274006426334" lon="10.680971033871174">
        <ele>570.67999999999995</ele>
        <time>2017-05-21T15:31:00Z</time>
      </trkpt>
      <trkpt lat="51.660422030836344" lon="10.680762995034456">
        <ele>572.60000000000002</ele>
        <time>2017-05-21T15:31:01Z</time>
      </trkpt>
      <trkpt lat="51.660552034154534" lon="10.680509023368359">
        <ele>575.00999999999999</ele>
        <time>2017-05-21T15:31:02Z</time>
      </trkpt>
      <trkpt lat="51.660652030259371" lon="10.680214986205101">
        <ele>576.92999999999995</ele>
        <time>2017-05-21T15:31:03Z</time>
      </trkpt>
      <trkpt lat="51.660741968080401" lon="10.679883984848857">
        <ele>578.85000000000002</ele>
        <time>2017-05-21T15:31:04Z</time>
      </trkpt>
      <trkpt lat="51.660813968628645" lon="10.679534040391445">
        <ele>580.28999999999996</ele>
        <time>2017-05-21T15:31:05Z</time>
      </trkpt>
      <trkpt lat="51.660873983055353" lon="10.679165991023183">
        <ele>581.25</ele>
        <time>2017-05-21T15:31:06Z</time>
      </trkpt>
      <trkpt lat="51.660892004147172" lon="10.67877103574574">
        <ele>580.76999999999998</ele>
        <time>2017-05-21T15:31:07Z</time>
      </trkpt>
      <trkpt lat="51.660895021632314" lon="10.678375996649265">
        <ele>580.28999999999996</ele>
        <time>2017-05-21T15:31:08Z</time>
      </trkpt>
      <trkpt lat="51.66088898666203" lon="10.677997972816229">
        <ele>581.25</ele>
        <time>2017-05-21T15:31:09Z</time>
      </trkpt>
      <trkpt lat="51.6609510127455" lon="10.676962975412607">
        <ele>584.62</ele>
        <time>2017-05-21T15:31:12Z</time>
      </trkpt>
      <trkpt lat="51.661028964444995" lon="10.67662401124835">
        <ele>586.53999999999996</ele>
        <time>2017-05-21T15:31:13Z</time>
      </trkpt>
      <trkpt lat="51.661397013813257" lon="10.675305034965277">
        <ele>593.75</ele>
        <time>2017-05-21T15:31:17Z</time>
      </trkpt>
      <trkpt lat="51.661500027403235" lon="10.675028013065457">
        <ele>594.71000000000004</ele>
        <time>2017-05-21T15:31:18Z</time>
      </trkpt>
      <trkpt lat="51.661620978266001" lon="10.67477697506547">
        <ele>595.19000000000005</ele>
        <time>2017-05-21T15:31:19Z</time>
      </trkpt>
      <trkpt lat="51.661755004897714" lon="10.674568014219403">
        <ele>596.14999999999998</ele>
        <time>2017-05-21T15:31:20Z</time>
      </trkpt>
      <trkpt lat="51.661884002387524" lon="10.67441001534462">
        <ele>596.14999999999998</ele>
        <time>2017-05-21T15:31:21Z</time>
      </trkpt>
      <trkpt lat="51.662030015140772" lon="10.674308007583022">
        <ele>596.63999999999999</ele>
        <time>2017-05-21T15:31:22Z</time>
      </trkpt>
      <trkpt lat="51.662193965166807" lon="10.67426098510623">
        <ele>599.03999999999996</ele>
        <time>2017-05-21T15:31:23Z</time>
      </trkpt>
      <trkpt lat="51.662349030375481" lon="10.674233995378017">
        <ele>601.44000000000005</ele>
        <time>2017-05-21T15:31:24Z</time>
      </trkpt>
      <trkpt lat="51.662479033693671" lon="10.674184961244464">
        <ele>603.36000000000001</ele>
        <time>2017-05-21T15:31:25Z</time>
      </trkpt>
      <trkpt lat="51.662581041455269" lon="10.674097035080194">
        <ele>605.28999999999996</ele>
        <time>2017-05-21T15:31:26Z</time>
      </trkpt>
      <trkpt lat="51.662661004811525" lon="10.673954961821437">
        <ele>605.76999999999998</ele>
        <time>2017-05-21T15:31:27Z</time>
      </trkpt>
      <trkpt lat="51.662723030894995" lon="10.673781037330627">
        <ele>606.73000000000002</ele>
        <time>2017-05-21T15:31:28Z</time>
      </trkpt>
      <trkpt lat="51.662768963724375" lon="10.673583978787065">
        <ele>607.69000000000005</ele>
        <time>2017-05-21T15:31:29Z</time>
      </trkpt>
      <trkpt lat="51.662806011736393" lon="10.673393039032817">
        <ele>608.64999999999998</ele>
        <time>2017-05-21T15:31:30Z</time>
      </trkpt>
      <trkpt lat="51.663080016151071" lon="10.671970965340734">
        <ele>611.53999999999996</ele>
        <time>2017-05-21T15:31:39Z</time>
      </trkpt>
      <trkpt lat="51.663097031414509" lon="10.671807015314698">
        <ele>612.01999999999998</ele>
        <time>2017-05-21T15:31:40Z</time>
      </trkpt>
      <trkpt lat="51.663111029192805" lon="10.671644993126392">
        <ele>612.5</ele>
        <time>2017-05-21T15:31:41Z</time>
      </trkpt>
      <trkpt lat="51.663104994222522" lon="10.671480037271976">
        <ele>612.5</ele>
        <time>2017-05-21T15:31:42Z</time>
      </trkpt>
      <trkpt lat="51.663088984787464" lon="10.671314997598529">
        <ele>612.98000000000002</ele>
        <time>2017-05-21T15:31:43Z</time>
      </trkpt>
      <trkpt lat="51.663073981180787" lon="10.670679984614253">
        <ele>614.89999999999998</ele>
        <time>2017-05-21T15:31:47Z</time>
      </trkpt>
      <trkpt lat="51.663076998665929" lon="10.670529026538134">
        <ele>613.94000000000005</ele>
        <time>2017-05-21T15:31:48Z</time>
      </trkpt>
      <trkpt lat="51.663107005879283" lon="10.670386031270027">
        <ele>614.41999999999996</ele>
        <time>2017-05-21T15:31:49Z</time>
      </trkpt>
      <trkpt lat="51.663143970072269" lon="10.670244041830301">
        <ele>614.89999999999998</ele>
        <time>2017-05-21T15:31:50Z</time>
      </trkpt>
      <trkpt lat="51.663190992549062" lon="10.670114038512111">
        <ele>614.41999999999996</ele>
        <time>2017-05-21T15:31:51Z</time>
      </trkpt>
      <trkpt lat="51.663254024460912" lon="10.669987974688411">
        <ele>615.38</ele>
        <time>2017-05-21T15:31:52Z</time>
      </trkpt>
      <trkpt lat="51.663323007524014" lon="10.669874986633658">
        <ele>615.38</ele>
        <time>2017-05-21T15:31:53Z</time>
      </trkpt>
      <trkpt lat="51.663398025557399" lon="10.66977197304368">
        <ele>614.89999999999998</ele>
        <time>2017-05-21T15:31:54Z</time>
      </trkpt>
      <trkpt lat="51.663482012227178" lon="10.669694021344185">
        <ele>614.89999999999998</ele>
        <time>2017-05-21T15:31:55Z</time>
      </trkpt>
      <trkpt lat="51.663576979190111" lon="10.669627971947193">
        <ele>615.38</ele>
        <time>2017-05-21T15:31:56Z</time>
      </trkpt>
      <trkpt lat="51.664080983027816" lon="10.669324966147542">
        <ele>616.34000000000003</ele>
        <time>2017-05-21T15:32:02Z</time>
      </trkpt>
      <trkpt lat="51.664492031559348" lon="10.669049033895135">
        <ele>613.94000000000005</ele>
        <time>2017-05-21T15:32:08Z</time>
      </trkpt>
      <trkpt lat="51.664526984095573" lon="10.668992958962917">
        <ele>613.46000000000004</ele>
        <time>2017-05-21T15:32:09Z</time>
      </trkpt>
      <trkpt lat="51.664551040157676" lon="10.668924981728196">
        <ele>612.98000000000002</ele>
        <time>2017-05-21T15:32:10Z</time>
      </trkpt>
      <trkpt lat="51.664555985480547" lon="10.66884501837194">
        <ele>611.53999999999996</ele>
        <time>2017-05-21T15:32:11Z</time>
      </trkpt>
      <trkpt lat="51.66456202045083" lon="10.668767988681793">
        <ele>611.05999999999995</ele>
        <time>2017-05-21T15:32:12Z</time>
      </trkpt>
      <trkpt lat="51.664559002965689" lon="10.668676039204001">
        <ele>611.05999999999995</ele>
        <time>2017-05-21T15:32:13Z</time>
      </trkpt>
      <trkpt lat="51.664547016844153" lon="10.668584005907178">
        <ele>610.57000000000005</ele>
        <time>2017-05-21T15:32:14Z</time>
      </trkpt>
      <trkpt lat="51.664458001032472" lon="10.667539034038782">
        <ele>605.76999999999998</ele>
        <time>2017-05-21T15:32:24Z</time>
      </trkpt>
      <trkpt lat="51.664439979940653" lon="10.667468039318919">
        <ele>605.76999999999998</ele>
        <time>2017-05-21T15:32:25Z</time>
      </trkpt>
      <trkpt lat="51.664405027404428" lon="10.667417999356985">
        <ele>605.28999999999996</ele>
        <time>2017-05-21T15:32:26Z</time>
      </trkpt>
      <trkpt lat="51.664358004927635" lon="10.667398972436786">
        <ele>604.80999999999995</ele>
        <time>2017-05-21T15:32:27Z</time>
      </trkpt>
      <trkpt lat="51.66430402547121" lon="10.667395032942295">
        <ele>604.80999999999995</ele>
        <time>2017-05-21T15:32:28Z</time>
      </trkpt>
      <trkpt lat="51.664033960551023" lon="10.667436020448804">
        <ele>604.80999999999995</ele>
        <time>2017-05-21T15:32:32Z</time>
      </trkpt>
      <trkpt lat="51.663955003023148" lon="10.667481031268835">
        <ele>604.80999999999995</ele>
        <time>2017-05-21T15:32:33Z</time>
      </trkpt>
      <trkpt lat="51.663874033838511" lon="10.667542973533273">
        <ele>604.33000000000004</ele>
        <time>2017-05-21T15:32:34Z</time>
      </trkpt>
      <trkpt lat="51.663795998319983" lon="10.667626038193703">
        <ele>603.85000000000002</ele>
        <time>2017-05-21T15:32:35Z</time>
      </trkpt>
      <trkpt lat="51.663722991943359" lon="10.667713964357972">
        <ele>604.33000000000004</ele>
        <time>2017-05-21T15:32:36Z</time>
      </trkpt>
      <trkpt lat="51.663571028038859" lon="10.667885961011052">
        <ele>602.88</ele>
        <time>2017-05-21T15:32:38Z</time>
      </trkpt>
      <trkpt lat="51.663487963378429" lon="10.66794304177165">
        <ele>602.39999999999998</ele>
        <time>2017-05-21T15:32:39Z</time>
      </trkpt>
      <trkpt lat="51.663399031385779" lon="10.667979000136256">
        <ele>601.44000000000005</ele>
        <time>2017-05-21T15:32:40Z</time>
      </trkpt>
      <trkpt lat="51.663304986432195" lon="10.667991992086172">
        <ele>600.96000000000004</ele>
        <time>2017-05-21T15:32:41Z</time>
      </trkpt>
      <trkpt lat="51.663210019469261" lon="10.667996015399694">
        <ele>600</ele>
        <time>2017-05-21T15:32:42Z</time>
      </trkpt>
      <trkpt lat="51.662468975409865" lon="10.667952010408044">
        <ele>592.78999999999996</ele>
        <time>2017-05-21T15:32:50Z</time>
      </trkpt>
      <trkpt lat="51.662374008446932" lon="10.667917979881167">
        <ele>592.30999999999995</ele>
        <time>2017-05-21T15:32:51Z</time>
      </trkpt>
      <trkpt lat="51.662074020132422" lon="10.66781597211957">
        <ele>591.35000000000002</ele>
        <time>2017-05-21T15:32:54Z</time>
      </trkpt>
      <trkpt lat="51.661688033491373" lon="10.667791999876499">
        <ele>587.98000000000002</ele>
        <time>2017-05-21T15:32:58Z</time>
      </trkpt>
      <trkpt lat="51.660927040502429" lon="10.667758975178003">
        <ele>581.73000000000002</ele>
        <time>2017-05-21T15:33:07Z</time>
      </trkpt>
      <trkpt lat="51.660840036347508" lon="10.667722010985017">
        <ele>581.25</ele>
        <time>2017-05-21T15:33:08Z</time>
      </trkpt>
      <trkpt lat="51.66011500172317" lon="10.667115999385715">
        <ele>577.40999999999997</ele>
        <time>2017-05-21T15:33:19Z</time>
      </trkpt>
      <trkpt lat="51.660049958154559" lon="10.667043998837471">
        <ele>577.40999999999997</ele>
        <time>2017-05-21T15:33:21Z</time>
      </trkpt>
      <trkpt lat="51.660040989518166" lon="10.666993958875537">
        <ele>576.45000000000005</ele>
        <time>2017-05-21T15:33:22Z</time>
      </trkpt>
      <trkpt lat="51.660047024488449" lon="10.666938973590732">
        <ele>576.45000000000005</ele>
        <time>2017-05-21T15:33:23Z</time>
      </trkpt>
      <trkpt lat="51.660045012831688" lon="10.666748033836484">
        <ele>575.00999999999999</ele>
        <time>2017-05-21T15:33:26Z</time>
      </trkpt>
      <trkpt lat="51.660031015053391" lon="10.66667896695435">
        <ele>574.52999999999997</ele>
        <time>2017-05-21T15:33:27Z</time>
      </trkpt>
      <trkpt lat="51.66000897064805" lon="10.666606966406107">
        <ele>574.03999999999996</ele>
        <time>2017-05-21T15:33:28Z</time>
      </trkpt>
      <trkpt lat="51.659925989806652" lon="10.666379984468222">
        <ele>573.08000000000004</ele>
        <time>2017-05-21T15:33:31Z</time>
      </trkpt>
      <trkpt lat="51.659600017592311" lon="10.665276004001498">
        <ele>567.32000000000005</ele>
        <time>2017-05-21T15:33:42Z</time>
      </trkpt>
      <trkpt lat="51.659174971282482" lon="10.663533993065357">
        <ele>561.07000000000005</ele>
        <time>2017-05-21T15:33:58Z</time>
      </trkpt>
      <trkpt lat="51.658891998231411" lon="10.662302020937204">
        <ele>561.07000000000005</ele>
        <time>2017-05-21T15:34:09Z</time>
      </trkpt>
      <trkpt lat="51.658853022381663" lon="10.66220797598362">
        <ele>561.54999999999995</ele>
        <time>2017-05-21T15:34:10Z</time>
      </trkpt>
      <trkpt lat="51.65860902518034" lon="10.66169299185276">
        <ele>562.02999999999997</ele>
        <time>2017-05-21T15:34:16Z</time>
      </trkpt>
      <trkpt lat="51.658583041280508" lon="10.661602970212698">
        <ele>562.02999999999997</ele>
        <time>2017-05-21T15:34:17Z</time>
      </trkpt>
      <trkpt lat="51.658557979390025" lon="10.661504985764623">
        <ele>562.50999999999999</ele>
        <time>2017-05-21T15:34:18Z</time>
      </trkpt>
      <trkpt lat="51.658536018803716" lon="10.661404989659786">
        <ele>562.99000000000001</ele>
        <time>2017-05-21T15:34:19Z</time>
      </trkpt>
      <trkpt lat="51.65852696634829" lon="10.661299964413047">
        <ele>564.42999999999995</ele>
        <time>2017-05-21T15:34:20Z</time>
      </trkpt>
      <trkpt lat="51.658522021025419" lon="10.661202985793352">
        <ele>564.90999999999997</ele>
        <time>2017-05-21T15:34:21Z</time>
      </trkpt>
      <trkpt lat="51.658519003540277" lon="10.661019003018737">
        <ele>565.38999999999999</ele>
        <time>2017-05-21T15:34:23Z</time>
      </trkpt>
      <trkpt lat="51.65839402936399" lon="10.660312995314598">
        <ele>566.83000000000004</ele>
        <time>2017-05-21T15:34:34Z</time>
      </trkpt>
      <trkpt lat="51.658323034644127" lon="10.660153990611434">
        <ele>566.35000000000002</ele>
        <time>2017-05-21T15:34:41Z</time>
      </trkpt>
      <trkpt lat="51.658309958875179" lon="10.660146027803421">
        <ele>566.35000000000002</ele>
        <time>2017-05-21T15:34:42Z</time>
      </trkpt>
      <trkpt lat="51.658281041309237" lon="10.660128006711602">
        <ele>565.87</ele>
        <time>2017-05-21T15:35:00Z</time>
      </trkpt>
    </trkseg>
  </trk>

</gpx>